<?xml version="1.0" encoding="UTF-8" standalone="no" ?>
<gpx xmlns="http://www.topografix.com/GPX/1/1" xmlns:xsi="http://www.w3.org/2001/XMLSchema-instance" xsi:schemaLocation="http://www.topografix.com/GPX/1/1 http://www.topografix.com/GPX/1/1/gpx.xsd" version="1.1" creator="VisuGPX - https://www.visugpx.com">
  <metadata>
    <name>Le Passage d'Agen 8.6 km</name>
  </metadata>
  <trk>
    <name><![CDATA[2026 02 22 Le Passage d'Agen Pierre 8]]></name>
    <extensions>
      <line xmlns="http://www.topografix.com/GPX/gpx_style/0/2">
        <color>0000FF</color>
        <width>4</width>
      </line>
    </extensions>
    <trkseg>
      <trkpt lat="44.19948" lon="0.60675">
        <ele>44</ele>
        <time>2026-02-22T13:02:06.188Z</time>
      </trkpt>
      <trkpt lat="44.19946" lon="0.60667">
        <ele>45</ele>
        <time>2026-02-22T13:02:07.188Z</time>
      </trkpt>
      <trkpt lat="44.19946" lon="0.60658">
        <ele>46</ele>
        <time>2026-02-22T13:02:08.188Z</time>
      </trkpt>
      <trkpt lat="44.19941" lon="0.60661">
        <ele>47</ele>
        <time>2026-02-22T13:02:09.188Z</time>
      </trkpt>
      <trkpt lat="44.1994" lon="0.60661">
        <ele>46</ele>
        <time>2026-02-22T13:02:10.188Z</time>
      </trkpt>
      <trkpt lat="44.19938" lon="0.60662">
        <ele>46</ele>
        <time>2026-02-22T13:02:11.188Z</time>
      </trkpt>
      <trkpt lat="44.19937" lon="0.60664">
        <ele>46</ele>
        <time>2026-02-22T13:02:12.188Z</time>
      </trkpt>
      <trkpt lat="44.19936" lon="0.60664">
        <ele>46</ele>
        <time>2026-02-22T13:02:13.188Z</time>
      </trkpt>
      <trkpt lat="44.19936" lon="0.60664">
        <ele>46</ele>
        <time>2026-02-22T13:02:14.188Z</time>
      </trkpt>
      <trkpt lat="44.19936" lon="0.60664">
        <ele>46</ele>
        <time>2026-02-22T13:02:15.188Z</time>
      </trkpt>
      <trkpt lat="44.19936" lon="0.60664">
        <ele>46</ele>
        <time>2026-02-22T13:02:16.188Z</time>
      </trkpt>
      <trkpt lat="44.19936" lon="0.60664">
        <ele>46</ele>
        <time>2026-02-22T13:02:17.188Z</time>
      </trkpt>
      <trkpt lat="44.19936" lon="0.60664">
        <ele>46</ele>
        <time>2026-02-22T13:02:18.188Z</time>
      </trkpt>
      <trkpt lat="44.19936" lon="0.60664">
        <ele>46</ele>
        <time>2026-02-22T13:02:19.188Z</time>
      </trkpt>
      <trkpt lat="44.19936" lon="0.60664">
        <ele>46</ele>
        <time>2026-02-22T13:02:20.188Z</time>
      </trkpt>
      <trkpt lat="44.19936" lon="0.60665">
        <ele>45</ele>
        <time>2026-02-22T13:02:21.188Z</time>
      </trkpt>
      <trkpt lat="44.19936" lon="0.60665">
        <ele>45</ele>
        <time>2026-02-22T13:02:22.189Z</time>
      </trkpt>
      <trkpt lat="44.19936" lon="0.60665">
        <ele>45</ele>
        <time>2026-02-22T13:02:23.188Z</time>
      </trkpt>
      <trkpt lat="44.19935" lon="0.60665">
        <ele>45</ele>
        <time>2026-02-22T13:02:24.188Z</time>
      </trkpt>
      <trkpt lat="44.19934" lon="0.60666">
        <ele>46</ele>
        <time>2026-02-22T13:02:25.188Z</time>
      </trkpt>
      <trkpt lat="44.19934" lon="0.60665">
        <ele>46</ele>
        <time>2026-02-22T13:02:26.188Z</time>
      </trkpt>
      <trkpt lat="44.19934" lon="0.60665">
        <ele>45</ele>
        <time>2026-02-22T13:02:27.188Z</time>
      </trkpt>
      <trkpt lat="44.19934" lon="0.60665">
        <ele>45</ele>
        <time>2026-02-22T13:02:28.188Z</time>
      </trkpt>
      <trkpt lat="44.19934" lon="0.60664">
        <ele>45</ele>
        <time>2026-02-22T13:02:29.188Z</time>
      </trkpt>
      <trkpt lat="44.19934" lon="0.60664">
        <ele>45</ele>
        <time>2026-02-22T13:02:30.188Z</time>
      </trkpt>
      <trkpt lat="44.19934" lon="0.60664">
        <ele>44</ele>
        <time>2026-02-22T13:02:31.188Z</time>
      </trkpt>
      <trkpt lat="44.19934" lon="0.60664">
        <ele>44</ele>
        <time>2026-02-22T13:02:32.188Z</time>
      </trkpt>
      <trkpt lat="44.19934" lon="0.60664">
        <ele>44</ele>
        <time>2026-02-22T13:02:33.188Z</time>
      </trkpt>
      <trkpt lat="44.19934" lon="0.60665">
        <ele>43</ele>
        <time>2026-02-22T13:02:34.188Z</time>
      </trkpt>
      <trkpt lat="44.19934" lon="0.60665">
        <ele>43</ele>
        <time>2026-02-22T13:02:35.188Z</time>
      </trkpt>
      <trkpt lat="44.19934" lon="0.60665">
        <ele>43</ele>
        <time>2026-02-22T13:02:36.188Z</time>
      </trkpt>
      <trkpt lat="44.19935" lon="0.60665">
        <ele>43</ele>
        <time>2026-02-22T13:02:37.188Z</time>
      </trkpt>
      <trkpt lat="44.19935" lon="0.60665">
        <ele>43</ele>
        <time>2026-02-22T13:02:38.188Z</time>
      </trkpt>
      <trkpt lat="44.19935" lon="0.60665">
        <ele>43</ele>
        <time>2026-02-22T13:02:39.188Z</time>
      </trkpt>
      <trkpt lat="44.19935" lon="0.60665">
        <ele>43</ele>
        <time>2026-02-22T13:02:40.188Z</time>
      </trkpt>
      <trkpt lat="44.19935" lon="0.60665">
        <ele>44</ele>
        <time>2026-02-22T13:02:41.188Z</time>
      </trkpt>
      <trkpt lat="44.19935" lon="0.60666">
        <ele>44</ele>
        <time>2026-02-22T13:02:42.188Z</time>
      </trkpt>
      <trkpt lat="44.19935" lon="0.60666">
        <ele>45</ele>
        <time>2026-02-22T13:02:43.188Z</time>
      </trkpt>
      <trkpt lat="44.19935" lon="0.60666">
        <ele>45</ele>
        <time>2026-02-22T13:02:44.188Z</time>
      </trkpt>
      <trkpt lat="44.19935" lon="0.60666">
        <ele>45</ele>
        <time>2026-02-22T13:02:45.188Z</time>
      </trkpt>
      <trkpt lat="44.19936" lon="0.60665">
        <ele>45</ele>
        <time>2026-02-22T13:02:46.189Z</time>
      </trkpt>
      <trkpt lat="44.19936" lon="0.60666">
        <ele>45</ele>
        <time>2026-02-22T13:02:47.188Z</time>
      </trkpt>
      <trkpt lat="44.19935" lon="0.60666">
        <ele>46</ele>
        <time>2026-02-22T13:02:48.188Z</time>
      </trkpt>
      <trkpt lat="44.19935" lon="0.60667">
        <ele>46</ele>
        <time>2026-02-22T13:02:49.188Z</time>
      </trkpt>
      <trkpt lat="44.19934" lon="0.60668">
        <ele>46</ele>
        <time>2026-02-22T13:02:50.189Z</time>
      </trkpt>
      <trkpt lat="44.19934" lon="0.60667">
        <ele>46</ele>
        <time>2026-02-22T13:02:51.188Z</time>
      </trkpt>
      <trkpt lat="44.19933" lon="0.60667">
        <ele>46</ele>
        <time>2026-02-22T13:02:52.188Z</time>
      </trkpt>
      <trkpt lat="44.19933" lon="0.60666">
        <ele>46</ele>
        <time>2026-02-22T13:02:53.188Z</time>
      </trkpt>
      <trkpt lat="44.19933" lon="0.60666">
        <ele>47</ele>
        <time>2026-02-22T13:02:54.189Z</time>
      </trkpt>
      <trkpt lat="44.19933" lon="0.60665">
        <ele>47</ele>
        <time>2026-02-22T13:02:55.188Z</time>
      </trkpt>
      <trkpt lat="44.19932" lon="0.60665">
        <ele>47</ele>
        <time>2026-02-22T13:02:56.189Z</time>
      </trkpt>
      <trkpt lat="44.19933" lon="0.60665">
        <ele>47</ele>
        <time>2026-02-22T13:02:57.188Z</time>
      </trkpt>
      <trkpt lat="44.19933" lon="0.60665">
        <ele>47</ele>
        <time>2026-02-22T13:02:58.188Z</time>
      </trkpt>
      <trkpt lat="44.19933" lon="0.60665">
        <ele>48</ele>
        <time>2026-02-22T13:02:59.188Z</time>
      </trkpt>
      <trkpt lat="44.19933" lon="0.60665">
        <ele>47</ele>
        <time>2026-02-22T13:03:00.188Z</time>
      </trkpt>
      <trkpt lat="44.19934" lon="0.60665">
        <ele>47</ele>
        <time>2026-02-22T13:03:01.188Z</time>
      </trkpt>
      <trkpt lat="44.19934" lon="0.60666">
        <ele>47</ele>
        <time>2026-02-22T13:03:02.188Z</time>
      </trkpt>
      <trkpt lat="44.19934" lon="0.60666">
        <ele>46</ele>
        <time>2026-02-22T13:03:03.188Z</time>
      </trkpt>
      <trkpt lat="44.19935" lon="0.60666">
        <ele>46</ele>
        <time>2026-02-22T13:03:04.188Z</time>
      </trkpt>
      <trkpt lat="44.19935" lon="0.60666">
        <ele>47</ele>
        <time>2026-02-22T13:03:05.188Z</time>
      </trkpt>
      <trkpt lat="44.19935" lon="0.60666">
        <ele>47</ele>
        <time>2026-02-22T13:03:06.188Z</time>
      </trkpt>
      <trkpt lat="44.19935" lon="0.60666">
        <ele>47</ele>
        <time>2026-02-22T13:03:07.188Z</time>
      </trkpt>
      <trkpt lat="44.19935" lon="0.60666">
        <ele>48</ele>
        <time>2026-02-22T13:03:08.188Z</time>
      </trkpt>
      <trkpt lat="44.19935" lon="0.60666">
        <ele>48</ele>
        <time>2026-02-22T13:03:09.189Z</time>
      </trkpt>
      <trkpt lat="44.19935" lon="0.60666">
        <ele>48</ele>
        <time>2026-02-22T13:03:10.188Z</time>
      </trkpt>
      <trkpt lat="44.19935" lon="0.60666">
        <ele>48</ele>
        <time>2026-02-22T13:03:11.188Z</time>
      </trkpt>
      <trkpt lat="44.19935" lon="0.60666">
        <ele>49</ele>
        <time>2026-02-22T13:03:12.188Z</time>
      </trkpt>
      <trkpt lat="44.19935" lon="0.60666">
        <ele>49</ele>
        <time>2026-02-22T13:03:13.188Z</time>
      </trkpt>
      <trkpt lat="44.19936" lon="0.60666">
        <ele>49</ele>
        <time>2026-02-22T13:03:14.188Z</time>
      </trkpt>
      <trkpt lat="44.19936" lon="0.60666">
        <ele>49</ele>
        <time>2026-02-22T13:03:15.188Z</time>
      </trkpt>
      <trkpt lat="44.19936" lon="0.60666">
        <ele>49</ele>
        <time>2026-02-22T13:03:16.188Z</time>
      </trkpt>
      <trkpt lat="44.19935" lon="0.60666">
        <ele>49</ele>
        <time>2026-02-22T13:03:17.188Z</time>
      </trkpt>
      <trkpt lat="44.19935" lon="0.60667">
        <ele>49</ele>
        <time>2026-02-22T13:03:18.188Z</time>
      </trkpt>
      <trkpt lat="44.19935" lon="0.60667">
        <ele>49</ele>
        <time>2026-02-22T13:03:19.188Z</time>
      </trkpt>
      <trkpt lat="44.19935" lon="0.60667">
        <ele>49</ele>
        <time>2026-02-22T13:03:20.188Z</time>
      </trkpt>
      <trkpt lat="44.19935" lon="0.60667">
        <ele>49</ele>
        <time>2026-02-22T13:03:21.188Z</time>
      </trkpt>
      <trkpt lat="44.19935" lon="0.60667">
        <ele>49</ele>
        <time>2026-02-22T13:03:22.189Z</time>
      </trkpt>
      <trkpt lat="44.19935" lon="0.60667">
        <ele>49</ele>
        <time>2026-02-22T13:03:23.188Z</time>
      </trkpt>
      <trkpt lat="44.19935" lon="0.60667">
        <ele>48</ele>
        <time>2026-02-22T13:03:24.188Z</time>
      </trkpt>
      <trkpt lat="44.19935" lon="0.60667">
        <ele>48</ele>
        <time>2026-02-22T13:03:25.188Z</time>
      </trkpt>
      <trkpt lat="44.19934" lon="0.60667">
        <ele>47</ele>
        <time>2026-02-22T13:03:26.188Z</time>
      </trkpt>
      <trkpt lat="44.19933" lon="0.60666">
        <ele>46</ele>
        <time>2026-02-22T13:03:27.188Z</time>
      </trkpt>
      <trkpt lat="44.19933" lon="0.60666">
        <ele>46</ele>
        <time>2026-02-22T13:03:28.189Z</time>
      </trkpt>
      <trkpt lat="44.19933" lon="0.60666">
        <ele>45</ele>
        <time>2026-02-22T13:03:29.188Z</time>
      </trkpt>
      <trkpt lat="44.19933" lon="0.60666">
        <ele>45</ele>
        <time>2026-02-22T13:03:30.188Z</time>
      </trkpt>
      <trkpt lat="44.19933" lon="0.60665">
        <ele>44</ele>
        <time>2026-02-22T13:03:31.188Z</time>
      </trkpt>
      <trkpt lat="44.19933" lon="0.60665">
        <ele>44</ele>
        <time>2026-02-22T13:03:32.189Z</time>
      </trkpt>
      <trkpt lat="44.19933" lon="0.60665">
        <ele>43</ele>
        <time>2026-02-22T13:03:33.188Z</time>
      </trkpt>
      <trkpt lat="44.19933" lon="0.60665">
        <ele>43</ele>
        <time>2026-02-22T13:03:34.188Z</time>
      </trkpt>
      <trkpt lat="44.19933" lon="0.60665">
        <ele>42</ele>
        <time>2026-02-22T13:03:35.188Z</time>
      </trkpt>
      <trkpt lat="44.19933" lon="0.60665">
        <ele>42</ele>
        <time>2026-02-22T13:03:36.188Z</time>
      </trkpt>
      <trkpt lat="44.19933" lon="0.60664">
        <ele>42</ele>
        <time>2026-02-22T13:03:37.188Z</time>
      </trkpt>
      <trkpt lat="44.19933" lon="0.60664">
        <ele>42</ele>
        <time>2026-02-22T13:03:38.188Z</time>
      </trkpt>
      <trkpt lat="44.19933" lon="0.60664">
        <ele>41</ele>
        <time>2026-02-22T13:03:39.189Z</time>
      </trkpt>
      <trkpt lat="44.19933" lon="0.60664">
        <ele>41</ele>
        <time>2026-02-22T13:03:40.188Z</time>
      </trkpt>
      <trkpt lat="44.19933" lon="0.60664">
        <ele>41</ele>
        <time>2026-02-22T13:03:41.188Z</time>
      </trkpt>
      <trkpt lat="44.19933" lon="0.60664">
        <ele>41</ele>
        <time>2026-02-22T13:03:42.188Z</time>
      </trkpt>
      <trkpt lat="44.19933" lon="0.60664">
        <ele>40</ele>
        <time>2026-02-22T13:03:43.188Z</time>
      </trkpt>
      <trkpt lat="44.19933" lon="0.60664">
        <ele>40</ele>
        <time>2026-02-22T13:03:44.188Z</time>
      </trkpt>
      <trkpt lat="44.19933" lon="0.60663">
        <ele>40</ele>
        <time>2026-02-22T13:03:45.188Z</time>
      </trkpt>
      <trkpt lat="44.19933" lon="0.60663">
        <ele>40</ele>
        <time>2026-02-22T13:03:46.188Z</time>
      </trkpt>
      <trkpt lat="44.19934" lon="0.60663">
        <ele>40</ele>
        <time>2026-02-22T13:03:47.188Z</time>
      </trkpt>
      <trkpt lat="44.19934" lon="0.60663">
        <ele>40</ele>
        <time>2026-02-22T13:03:48.188Z</time>
      </trkpt>
      <trkpt lat="44.19934" lon="0.60662">
        <ele>39</ele>
        <time>2026-02-22T13:03:49.188Z</time>
      </trkpt>
      <trkpt lat="44.19934" lon="0.60663">
        <ele>39</ele>
        <time>2026-02-22T13:03:50.188Z</time>
      </trkpt>
      <trkpt lat="44.19934" lon="0.60663">
        <ele>39</ele>
        <time>2026-02-22T13:03:51.188Z</time>
      </trkpt>
      <trkpt lat="44.19934" lon="0.60663">
        <ele>40</ele>
        <time>2026-02-22T13:03:52.188Z</time>
      </trkpt>
      <trkpt lat="44.19933" lon="0.60663">
        <ele>40</ele>
        <time>2026-02-22T13:03:53.188Z</time>
      </trkpt>
      <trkpt lat="44.19933" lon="0.60663">
        <ele>40</ele>
        <time>2026-02-22T13:03:54.189Z</time>
      </trkpt>
      <trkpt lat="44.19934" lon="0.60663">
        <ele>40</ele>
        <time>2026-02-22T13:03:55.188Z</time>
      </trkpt>
      <trkpt lat="44.19934" lon="0.60662">
        <ele>41</ele>
        <time>2026-02-22T13:03:56.188Z</time>
      </trkpt>
      <trkpt lat="44.19935" lon="0.60661">
        <ele>40</ele>
        <time>2026-02-22T13:03:57.188Z</time>
      </trkpt>
      <trkpt lat="44.19936" lon="0.60661">
        <ele>40</ele>
        <time>2026-02-22T13:03:58.188Z</time>
      </trkpt>
      <trkpt lat="44.19936" lon="0.60661">
        <ele>40</ele>
        <time>2026-02-22T13:03:59.188Z</time>
      </trkpt>
      <trkpt lat="44.19936" lon="0.60662">
        <ele>40</ele>
        <time>2026-02-22T13:04:00.188Z</time>
      </trkpt>
      <trkpt lat="44.19935" lon="0.60663">
        <ele>40</ele>
        <time>2026-02-22T13:04:01.188Z</time>
      </trkpt>
      <trkpt lat="44.19935" lon="0.60664">
        <ele>40</ele>
        <time>2026-02-22T13:04:02.188Z</time>
      </trkpt>
      <trkpt lat="44.19935" lon="0.60665">
        <ele>40</ele>
        <time>2026-02-22T13:04:03.188Z</time>
      </trkpt>
      <trkpt lat="44.19935" lon="0.60665">
        <ele>40</ele>
        <time>2026-02-22T13:04:04.188Z</time>
      </trkpt>
      <trkpt lat="44.19935" lon="0.60666">
        <ele>40</ele>
        <time>2026-02-22T13:04:05.188Z</time>
      </trkpt>
      <trkpt lat="44.19935" lon="0.60666">
        <ele>41</ele>
        <time>2026-02-22T13:04:06.189Z</time>
      </trkpt>
      <trkpt lat="44.19935" lon="0.60666">
        <ele>41</ele>
        <time>2026-02-22T13:04:07.188Z</time>
      </trkpt>
      <trkpt lat="44.19936" lon="0.60666">
        <ele>41</ele>
        <time>2026-02-22T13:04:08.189Z</time>
      </trkpt>
      <trkpt lat="44.19936" lon="0.60666">
        <ele>41</ele>
        <time>2026-02-22T13:04:09.188Z</time>
      </trkpt>
      <trkpt lat="44.19936" lon="0.60666">
        <ele>41</ele>
        <time>2026-02-22T13:04:10.188Z</time>
      </trkpt>
      <trkpt lat="44.19936" lon="0.60666">
        <ele>41</ele>
        <time>2026-02-22T13:04:11.188Z</time>
      </trkpt>
      <trkpt lat="44.19936" lon="0.60666">
        <ele>41</ele>
        <time>2026-02-22T13:04:12.188Z</time>
      </trkpt>
      <trkpt lat="44.19936" lon="0.60666">
        <ele>41</ele>
        <time>2026-02-22T13:04:13.188Z</time>
      </trkpt>
      <trkpt lat="44.19935" lon="0.60666">
        <ele>41</ele>
        <time>2026-02-22T13:04:14.188Z</time>
      </trkpt>
      <trkpt lat="44.19935" lon="0.60667">
        <ele>41</ele>
        <time>2026-02-22T13:04:15.188Z</time>
      </trkpt>
      <trkpt lat="44.19934" lon="0.60667">
        <ele>42</ele>
        <time>2026-02-22T13:04:16.188Z</time>
      </trkpt>
      <trkpt lat="44.19933" lon="0.60667">
        <ele>42</ele>
        <time>2026-02-22T13:04:17.188Z</time>
      </trkpt>
      <trkpt lat="44.19933" lon="0.60667">
        <ele>42</ele>
        <time>2026-02-22T13:04:18.188Z</time>
      </trkpt>
      <trkpt lat="44.19932" lon="0.60667">
        <ele>42</ele>
        <time>2026-02-22T13:04:19.188Z</time>
      </trkpt>
      <trkpt lat="44.19931" lon="0.60667">
        <ele>42</ele>
        <time>2026-02-22T13:04:20.188Z</time>
      </trkpt>
      <trkpt lat="44.19931" lon="0.60666">
        <ele>43</ele>
        <time>2026-02-22T13:04:21.188Z</time>
      </trkpt>
      <trkpt lat="44.1993" lon="0.60666">
        <ele>43</ele>
        <time>2026-02-22T13:04:22.188Z</time>
      </trkpt>
      <trkpt lat="44.1993" lon="0.60666">
        <ele>43</ele>
        <time>2026-02-22T13:04:23.188Z</time>
      </trkpt>
      <trkpt lat="44.1993" lon="0.60666">
        <ele>44</ele>
        <time>2026-02-22T13:04:24.189Z</time>
      </trkpt>
      <trkpt lat="44.1993" lon="0.60666">
        <ele>44</ele>
        <time>2026-02-22T13:04:25.188Z</time>
      </trkpt>
      <trkpt lat="44.19929" lon="0.60665">
        <ele>44</ele>
        <time>2026-02-22T13:04:26.189Z</time>
      </trkpt>
      <trkpt lat="44.19929" lon="0.60666">
        <ele>44</ele>
        <time>2026-02-22T13:04:27.188Z</time>
      </trkpt>
      <trkpt lat="44.19928" lon="0.60665">
        <ele>44</ele>
        <time>2026-02-22T13:04:28.188Z</time>
      </trkpt>
      <trkpt lat="44.19926" lon="0.60665">
        <ele>44</ele>
        <time>2026-02-22T13:04:29.188Z</time>
      </trkpt>
      <trkpt lat="44.19925" lon="0.60665">
        <ele>45</ele>
        <time>2026-02-22T13:04:30.188Z</time>
      </trkpt>
      <trkpt lat="44.19924" lon="0.60664">
        <ele>45</ele>
        <time>2026-02-22T13:04:31.188Z</time>
      </trkpt>
      <trkpt lat="44.19923" lon="0.60664">
        <ele>45</ele>
        <time>2026-02-22T13:04:32.188Z</time>
      </trkpt>
      <trkpt lat="44.19922" lon="0.60663">
        <ele>46</ele>
        <time>2026-02-22T13:04:33.188Z</time>
      </trkpt>
      <trkpt lat="44.1992" lon="0.60663">
        <ele>46</ele>
        <time>2026-02-22T13:04:34.188Z</time>
      </trkpt>
      <trkpt lat="44.19919" lon="0.60662">
        <ele>46</ele>
        <time>2026-02-22T13:04:35.188Z</time>
      </trkpt>
      <trkpt lat="44.19919" lon="0.60662">
        <ele>46</ele>
        <time>2026-02-22T13:04:36.188Z</time>
      </trkpt>
      <trkpt lat="44.19918" lon="0.60661">
        <ele>46</ele>
        <time>2026-02-22T13:04:37.188Z</time>
      </trkpt>
      <trkpt lat="44.19916" lon="0.6066">
        <ele>46</ele>
        <time>2026-02-22T13:04:38.188Z</time>
      </trkpt>
      <trkpt lat="44.19915" lon="0.6066">
        <ele>46</ele>
        <time>2026-02-22T13:04:39.189Z</time>
      </trkpt>
      <trkpt lat="44.19913" lon="0.60659">
        <ele>46</ele>
        <time>2026-02-22T13:04:40.188Z</time>
      </trkpt>
      <trkpt lat="44.19912" lon="0.60658">
        <ele>46</ele>
        <time>2026-02-22T13:04:41.188Z</time>
      </trkpt>
      <trkpt lat="44.19911" lon="0.60657">
        <ele>46</ele>
        <time>2026-02-22T13:04:42.188Z</time>
      </trkpt>
      <trkpt lat="44.1991" lon="0.60657">
        <ele>46</ele>
        <time>2026-02-22T13:04:43.188Z</time>
      </trkpt>
      <trkpt lat="44.19909" lon="0.60657">
        <ele>45</ele>
        <time>2026-02-22T13:04:44.189Z</time>
      </trkpt>
      <trkpt lat="44.19908" lon="0.60656">
        <ele>45</ele>
        <time>2026-02-22T13:04:45.189Z</time>
      </trkpt>
      <trkpt lat="44.19906" lon="0.60656">
        <ele>45</ele>
        <time>2026-02-22T13:04:46.188Z</time>
      </trkpt>
      <trkpt lat="44.19906" lon="0.60655">
        <ele>45</ele>
        <time>2026-02-22T13:04:47.188Z</time>
      </trkpt>
      <trkpt lat="44.19905" lon="0.60654">
        <ele>45</ele>
        <time>2026-02-22T13:04:48.188Z</time>
      </trkpt>
      <trkpt lat="44.19904" lon="0.60653">
        <ele>45</ele>
        <time>2026-02-22T13:04:49.188Z</time>
      </trkpt>
      <trkpt lat="44.19903" lon="0.60653">
        <ele>45</ele>
        <time>2026-02-22T13:04:50.188Z</time>
      </trkpt>
      <trkpt lat="44.19901" lon="0.60652">
        <ele>45</ele>
        <time>2026-02-22T13:04:51.188Z</time>
      </trkpt>
      <trkpt lat="44.199" lon="0.60651">
        <ele>45</ele>
        <time>2026-02-22T13:04:52.188Z</time>
      </trkpt>
      <trkpt lat="44.19899" lon="0.60651">
        <ele>45</ele>
        <time>2026-02-22T13:04:53.188Z</time>
      </trkpt>
      <trkpt lat="44.19899" lon="0.60649">
        <ele>45</ele>
        <time>2026-02-22T13:04:54.189Z</time>
      </trkpt>
      <trkpt lat="44.19898" lon="0.60648">
        <ele>45</ele>
        <time>2026-02-22T13:04:55.188Z</time>
      </trkpt>
      <trkpt lat="44.19898" lon="0.60646">
        <ele>46</ele>
        <time>2026-02-22T13:04:56.188Z</time>
      </trkpt>
      <trkpt lat="44.19898" lon="0.60645">
        <ele>46</ele>
        <time>2026-02-22T13:04:57.188Z</time>
      </trkpt>
      <trkpt lat="44.19897" lon="0.60643">
        <ele>46</ele>
        <time>2026-02-22T13:04:58.188Z</time>
      </trkpt>
      <trkpt lat="44.19897" lon="0.60642">
        <ele>46</ele>
        <time>2026-02-22T13:04:59.188Z</time>
      </trkpt>
      <trkpt lat="44.19897" lon="0.60641">
        <ele>46</ele>
        <time>2026-02-22T13:05:00.188Z</time>
      </trkpt>
      <trkpt lat="44.19898" lon="0.60639">
        <ele>47</ele>
        <time>2026-02-22T13:05:01.188Z</time>
      </trkpt>
      <trkpt lat="44.19898" lon="0.60637">
        <ele>48</ele>
        <time>2026-02-22T13:05:02.188Z</time>
      </trkpt>
      <trkpt lat="44.19898" lon="0.60636">
        <ele>48</ele>
        <time>2026-02-22T13:05:03.188Z</time>
      </trkpt>
      <trkpt lat="44.19899" lon="0.60634">
        <ele>48</ele>
        <time>2026-02-22T13:05:04.188Z</time>
      </trkpt>
      <trkpt lat="44.19899" lon="0.60633">
        <ele>48</ele>
        <time>2026-02-22T13:05:05.188Z</time>
      </trkpt>
      <trkpt lat="44.199" lon="0.60631">
        <ele>48</ele>
        <time>2026-02-22T13:05:06.188Z</time>
      </trkpt>
      <trkpt lat="44.199" lon="0.6063">
        <ele>48</ele>
        <time>2026-02-22T13:05:07.188Z</time>
      </trkpt>
      <trkpt lat="44.199" lon="0.60628">
        <ele>48</ele>
        <time>2026-02-22T13:05:08.188Z</time>
      </trkpt>
      <trkpt lat="44.19901" lon="0.60626">
        <ele>49</ele>
        <time>2026-02-22T13:05:09.189Z</time>
      </trkpt>
      <trkpt lat="44.19901" lon="0.60625">
        <ele>49</ele>
        <time>2026-02-22T13:05:10.188Z</time>
      </trkpt>
      <trkpt lat="44.19901" lon="0.60623">
        <ele>49</ele>
        <time>2026-02-22T13:05:11.188Z</time>
      </trkpt>
      <trkpt lat="44.19902" lon="0.60622">
        <ele>49</ele>
        <time>2026-02-22T13:05:12.188Z</time>
      </trkpt>
      <trkpt lat="44.19902" lon="0.60621">
        <ele>50</ele>
        <time>2026-02-22T13:05:13.188Z</time>
      </trkpt>
      <trkpt lat="44.19902" lon="0.60619">
        <ele>50</ele>
        <time>2026-02-22T13:05:14.188Z</time>
      </trkpt>
      <trkpt lat="44.19902" lon="0.60618">
        <ele>50</ele>
        <time>2026-02-22T13:05:15.188Z</time>
      </trkpt>
      <trkpt lat="44.19903" lon="0.60617">
        <ele>51</ele>
        <time>2026-02-22T13:05:16.188Z</time>
      </trkpt>
      <trkpt lat="44.19903" lon="0.60615">
        <ele>51</ele>
        <time>2026-02-22T13:05:17.188Z</time>
      </trkpt>
      <trkpt lat="44.19903" lon="0.60613">
        <ele>52</ele>
        <time>2026-02-22T13:05:18.188Z</time>
      </trkpt>
      <trkpt lat="44.19903" lon="0.60612">
        <ele>52</ele>
        <time>2026-02-22T13:05:19.188Z</time>
      </trkpt>
      <trkpt lat="44.19903" lon="0.6061">
        <ele>52</ele>
        <time>2026-02-22T13:05:20.189Z</time>
      </trkpt>
      <trkpt lat="44.19903" lon="0.60609">
        <ele>52</ele>
        <time>2026-02-22T13:05:21.188Z</time>
      </trkpt>
      <trkpt lat="44.19903" lon="0.60608">
        <ele>53</ele>
        <time>2026-02-22T13:05:22.188Z</time>
      </trkpt>
      <trkpt lat="44.19902" lon="0.60608">
        <ele>53</ele>
        <time>2026-02-22T13:05:23.188Z</time>
      </trkpt>
      <trkpt lat="44.19902" lon="0.60608">
        <ele>53</ele>
        <time>2026-02-22T13:05:24.189Z</time>
      </trkpt>
      <trkpt lat="44.19901" lon="0.60608">
        <ele>53</ele>
        <time>2026-02-22T13:05:25.188Z</time>
      </trkpt>
      <trkpt lat="44.199" lon="0.60608">
        <ele>52</ele>
        <time>2026-02-22T13:05:26.188Z</time>
      </trkpt>
      <trkpt lat="44.19899" lon="0.60609">
        <ele>52</ele>
        <time>2026-02-22T13:05:27.188Z</time>
      </trkpt>
      <trkpt lat="44.19898" lon="0.60609">
        <ele>52</ele>
        <time>2026-02-22T13:05:28.188Z</time>
      </trkpt>
      <trkpt lat="44.19897" lon="0.60608">
        <ele>51</ele>
        <time>2026-02-22T13:05:29.188Z</time>
      </trkpt>
      <trkpt lat="44.19896" lon="0.60608">
        <ele>51</ele>
        <time>2026-02-22T13:05:30.188Z</time>
      </trkpt>
      <trkpt lat="44.19896" lon="0.60607">
        <ele>51</ele>
        <time>2026-02-22T13:05:31.188Z</time>
      </trkpt>
      <trkpt lat="44.19896" lon="0.60607">
        <ele>51</ele>
        <time>2026-02-22T13:05:32.188Z</time>
      </trkpt>
      <trkpt lat="44.19896" lon="0.60607">
        <ele>51</ele>
        <time>2026-02-22T13:05:33.188Z</time>
      </trkpt>
      <trkpt lat="44.19896" lon="0.60606">
        <ele>51</ele>
        <time>2026-02-22T13:05:34.188Z</time>
      </trkpt>
      <trkpt lat="44.19896" lon="0.60606">
        <ele>51</ele>
        <time>2026-02-22T13:05:35.188Z</time>
      </trkpt>
      <trkpt lat="44.19896" lon="0.60605">
        <ele>51</ele>
        <time>2026-02-22T13:05:36.188Z</time>
      </trkpt>
      <trkpt lat="44.19896" lon="0.60605">
        <ele>51</ele>
        <time>2026-02-22T13:05:37.188Z</time>
      </trkpt>
      <trkpt lat="44.19895" lon="0.60604">
        <ele>51</ele>
        <time>2026-02-22T13:05:38.188Z</time>
      </trkpt>
      <trkpt lat="44.19895" lon="0.60603">
        <ele>51</ele>
        <time>2026-02-22T13:05:39.188Z</time>
      </trkpt>
      <trkpt lat="44.19895" lon="0.60602">
        <ele>50</ele>
        <time>2026-02-22T13:05:40.188Z</time>
      </trkpt>
      <trkpt lat="44.19894" lon="0.60601">
        <ele>50</ele>
        <time>2026-02-22T13:05:41.188Z</time>
      </trkpt>
      <trkpt lat="44.19894" lon="0.60599">
        <ele>50</ele>
        <time>2026-02-22T13:05:42.188Z</time>
      </trkpt>
      <trkpt lat="44.19893" lon="0.60598">
        <ele>50</ele>
        <time>2026-02-22T13:05:43.188Z</time>
      </trkpt>
      <trkpt lat="44.19892" lon="0.60597">
        <ele>50</ele>
        <time>2026-02-22T13:05:44.188Z</time>
      </trkpt>
      <trkpt lat="44.19892" lon="0.60596">
        <ele>50</ele>
        <time>2026-02-22T13:05:45.188Z</time>
      </trkpt>
      <trkpt lat="44.19891" lon="0.60594">
        <ele>50</ele>
        <time>2026-02-22T13:05:46.188Z</time>
      </trkpt>
      <trkpt lat="44.19891" lon="0.60593">
        <ele>50</ele>
        <time>2026-02-22T13:05:47.188Z</time>
      </trkpt>
      <trkpt lat="44.1989" lon="0.60592">
        <ele>50</ele>
        <time>2026-02-22T13:05:48.188Z</time>
      </trkpt>
      <trkpt lat="44.1989" lon="0.60591">
        <ele>49</ele>
        <time>2026-02-22T13:05:49.188Z</time>
      </trkpt>
      <trkpt lat="44.1989" lon="0.60589">
        <ele>49</ele>
        <time>2026-02-22T13:05:50.188Z</time>
      </trkpt>
      <trkpt lat="44.1989" lon="0.60588">
        <ele>49</ele>
        <time>2026-02-22T13:05:51.188Z</time>
      </trkpt>
      <trkpt lat="44.1989" lon="0.60587">
        <ele>49</ele>
        <time>2026-02-22T13:05:52.189Z</time>
      </trkpt>
      <trkpt lat="44.1989" lon="0.60586">
        <ele>49</ele>
        <time>2026-02-22T13:05:53.188Z</time>
      </trkpt>
      <trkpt lat="44.1989" lon="0.60584">
        <ele>49</ele>
        <time>2026-02-22T13:05:54.188Z</time>
      </trkpt>
      <trkpt lat="44.1989" lon="0.60584">
        <ele>49</ele>
        <time>2026-02-22T13:05:55.188Z</time>
      </trkpt>
      <trkpt lat="44.1989" lon="0.60583">
        <ele>49</ele>
        <time>2026-02-22T13:05:56.188Z</time>
      </trkpt>
      <trkpt lat="44.1989" lon="0.60582">
        <ele>49</ele>
        <time>2026-02-22T13:05:57.188Z</time>
      </trkpt>
      <trkpt lat="44.1989" lon="0.60581">
        <ele>49</ele>
        <time>2026-02-22T13:05:58.189Z</time>
      </trkpt>
      <trkpt lat="44.1989" lon="0.60579">
        <ele>49</ele>
        <time>2026-02-22T13:05:59.189Z</time>
      </trkpt>
      <trkpt lat="44.1989" lon="0.60578">
        <ele>49</ele>
        <time>2026-02-22T13:06:00.189Z</time>
      </trkpt>
      <trkpt lat="44.19891" lon="0.60576">
        <ele>49</ele>
        <time>2026-02-22T13:06:01.188Z</time>
      </trkpt>
      <trkpt lat="44.19891" lon="0.60575">
        <ele>50</ele>
        <time>2026-02-22T13:06:02.188Z</time>
      </trkpt>
      <trkpt lat="44.19892" lon="0.60573">
        <ele>50</ele>
        <time>2026-02-22T13:06:03.188Z</time>
      </trkpt>
      <trkpt lat="44.19893" lon="0.60572">
        <ele>50</ele>
        <time>2026-02-22T13:06:04.188Z</time>
      </trkpt>
      <trkpt lat="44.19893" lon="0.6057">
        <ele>50</ele>
        <time>2026-02-22T13:06:05.188Z</time>
      </trkpt>
      <trkpt lat="44.19894" lon="0.60568">
        <ele>50</ele>
        <time>2026-02-22T13:06:06.188Z</time>
      </trkpt>
      <trkpt lat="44.19894" lon="0.60566">
        <ele>50</ele>
        <time>2026-02-22T13:06:07.188Z</time>
      </trkpt>
      <trkpt lat="44.19895" lon="0.60565">
        <ele>50</ele>
        <time>2026-02-22T13:06:08.188Z</time>
      </trkpt>
      <trkpt lat="44.19895" lon="0.60563">
        <ele>50</ele>
        <time>2026-02-22T13:06:09.188Z</time>
      </trkpt>
      <trkpt lat="44.19895" lon="0.60562">
        <ele>50</ele>
        <time>2026-02-22T13:06:10.188Z</time>
      </trkpt>
      <trkpt lat="44.19896" lon="0.6056">
        <ele>50</ele>
        <time>2026-02-22T13:06:11.188Z</time>
      </trkpt>
      <trkpt lat="44.19896" lon="0.60559">
        <ele>50</ele>
        <time>2026-02-22T13:06:12.188Z</time>
      </trkpt>
      <trkpt lat="44.19897" lon="0.60558">
        <ele>50</ele>
        <time>2026-02-22T13:06:13.188Z</time>
      </trkpt>
      <trkpt lat="44.19897" lon="0.60557">
        <ele>50</ele>
        <time>2026-02-22T13:06:14.188Z</time>
      </trkpt>
      <trkpt lat="44.19898" lon="0.60556">
        <ele>51</ele>
        <time>2026-02-22T13:06:15.188Z</time>
      </trkpt>
      <trkpt lat="44.19898" lon="0.60554">
        <ele>51</ele>
        <time>2026-02-22T13:06:16.188Z</time>
      </trkpt>
      <trkpt lat="44.19898" lon="0.60553">
        <ele>51</ele>
        <time>2026-02-22T13:06:17.188Z</time>
      </trkpt>
      <trkpt lat="44.19899" lon="0.60552">
        <ele>51</ele>
        <time>2026-02-22T13:06:18.188Z</time>
      </trkpt>
      <trkpt lat="44.19899" lon="0.6055">
        <ele>52</ele>
        <time>2026-02-22T13:06:19.188Z</time>
      </trkpt>
      <trkpt lat="44.199" lon="0.60549">
        <ele>52</ele>
        <time>2026-02-22T13:06:20.188Z</time>
      </trkpt>
      <trkpt lat="44.199" lon="0.60548">
        <ele>52</ele>
        <time>2026-02-22T13:06:21.188Z</time>
      </trkpt>
      <trkpt lat="44.199" lon="0.60546">
        <ele>51</ele>
        <time>2026-02-22T13:06:22.189Z</time>
      </trkpt>
      <trkpt lat="44.19901" lon="0.60545">
        <ele>51</ele>
        <time>2026-02-22T13:06:23.188Z</time>
      </trkpt>
      <trkpt lat="44.19901" lon="0.60543">
        <ele>52</ele>
        <time>2026-02-22T13:06:24.189Z</time>
      </trkpt>
      <trkpt lat="44.19902" lon="0.60542">
        <ele>52</ele>
        <time>2026-02-22T13:06:25.188Z</time>
      </trkpt>
      <trkpt lat="44.19903" lon="0.6054">
        <ele>52</ele>
        <time>2026-02-22T13:06:26.188Z</time>
      </trkpt>
      <trkpt lat="44.19903" lon="0.60539">
        <ele>52</ele>
        <time>2026-02-22T13:06:27.188Z</time>
      </trkpt>
      <trkpt lat="44.19903" lon="0.60537">
        <ele>52</ele>
        <time>2026-02-22T13:06:28.188Z</time>
      </trkpt>
      <trkpt lat="44.19904" lon="0.60536">
        <ele>51</ele>
        <time>2026-02-22T13:06:29.188Z</time>
      </trkpt>
      <trkpt lat="44.19905" lon="0.60534">
        <ele>51</ele>
        <time>2026-02-22T13:06:30.188Z</time>
      </trkpt>
      <trkpt lat="44.19906" lon="0.60532">
        <ele>51</ele>
        <time>2026-02-22T13:06:31.188Z</time>
      </trkpt>
      <trkpt lat="44.19907" lon="0.6053">
        <ele>52</ele>
        <time>2026-02-22T13:06:32.188Z</time>
      </trkpt>
      <trkpt lat="44.19908" lon="0.60529">
        <ele>52</ele>
        <time>2026-02-22T13:06:33.188Z</time>
      </trkpt>
      <trkpt lat="44.19908" lon="0.60528">
        <ele>52</ele>
        <time>2026-02-22T13:06:34.189Z</time>
      </trkpt>
      <trkpt lat="44.19909" lon="0.60527">
        <ele>52</ele>
        <time>2026-02-22T13:06:35.188Z</time>
      </trkpt>
      <trkpt lat="44.19909" lon="0.60526">
        <ele>53</ele>
        <time>2026-02-22T13:06:36.189Z</time>
      </trkpt>
      <trkpt lat="44.1991" lon="0.60524">
        <ele>53</ele>
        <time>2026-02-22T13:06:37.188Z</time>
      </trkpt>
      <trkpt lat="44.1991" lon="0.60523">
        <ele>53</ele>
        <time>2026-02-22T13:06:38.188Z</time>
      </trkpt>
      <trkpt lat="44.19911" lon="0.60521">
        <ele>54</ele>
        <time>2026-02-22T13:06:39.189Z</time>
      </trkpt>
      <trkpt lat="44.19911" lon="0.60519">
        <ele>54</ele>
        <time>2026-02-22T13:06:40.188Z</time>
      </trkpt>
      <trkpt lat="44.19912" lon="0.60517">
        <ele>53</ele>
        <time>2026-02-22T13:06:41.188Z</time>
      </trkpt>
      <trkpt lat="44.19912" lon="0.60515">
        <ele>53</ele>
        <time>2026-02-22T13:06:42.188Z</time>
      </trkpt>
      <trkpt lat="44.19913" lon="0.60514">
        <ele>53</ele>
        <time>2026-02-22T13:06:43.188Z</time>
      </trkpt>
      <trkpt lat="44.19913" lon="0.60512">
        <ele>52</ele>
        <time>2026-02-22T13:06:44.188Z</time>
      </trkpt>
      <trkpt lat="44.19914" lon="0.6051">
        <ele>52</ele>
        <time>2026-02-22T13:06:45.188Z</time>
      </trkpt>
      <trkpt lat="44.19914" lon="0.60509">
        <ele>52</ele>
        <time>2026-02-22T13:06:46.188Z</time>
      </trkpt>
      <trkpt lat="44.19915" lon="0.60507">
        <ele>51</ele>
        <time>2026-02-22T13:06:47.188Z</time>
      </trkpt>
      <trkpt lat="44.19915" lon="0.60506">
        <ele>51</ele>
        <time>2026-02-22T13:06:48.188Z</time>
      </trkpt>
      <trkpt lat="44.19915" lon="0.60504">
        <ele>51</ele>
        <time>2026-02-22T13:06:49.188Z</time>
      </trkpt>
      <trkpt lat="44.19916" lon="0.60502">
        <ele>51</ele>
        <time>2026-02-22T13:06:50.188Z</time>
      </trkpt>
      <trkpt lat="44.19917" lon="0.605">
        <ele>51</ele>
        <time>2026-02-22T13:06:51.188Z</time>
      </trkpt>
      <trkpt lat="44.19917" lon="0.60498">
        <ele>52</ele>
        <time>2026-02-22T13:06:52.188Z</time>
      </trkpt>
      <trkpt lat="44.19917" lon="0.60497">
        <ele>52</ele>
        <time>2026-02-22T13:06:53.188Z</time>
      </trkpt>
      <trkpt lat="44.19917" lon="0.60494">
        <ele>52</ele>
        <time>2026-02-22T13:06:54.189Z</time>
      </trkpt>
      <trkpt lat="44.19917" lon="0.60492">
        <ele>52</ele>
        <time>2026-02-22T13:06:55.188Z</time>
      </trkpt>
      <trkpt lat="44.19917" lon="0.60491">
        <ele>53</ele>
        <time>2026-02-22T13:06:56.188Z</time>
      </trkpt>
      <trkpt lat="44.19918" lon="0.60489">
        <ele>53</ele>
        <time>2026-02-22T13:06:57.188Z</time>
      </trkpt>
      <trkpt lat="44.19918" lon="0.60488">
        <ele>53</ele>
        <time>2026-02-22T13:06:58.188Z</time>
      </trkpt>
      <trkpt lat="44.19919" lon="0.60486">
        <ele>53</ele>
        <time>2026-02-22T13:06:59.188Z</time>
      </trkpt>
      <trkpt lat="44.19919" lon="0.60484">
        <ele>53</ele>
        <time>2026-02-22T13:07:00.188Z</time>
      </trkpt>
      <trkpt lat="44.1992" lon="0.60483">
        <ele>53</ele>
        <time>2026-02-22T13:07:01.188Z</time>
      </trkpt>
      <trkpt lat="44.1992" lon="0.60481">
        <ele>53</ele>
        <time>2026-02-22T13:07:02.188Z</time>
      </trkpt>
      <trkpt lat="44.1992" lon="0.60479">
        <ele>53</ele>
        <time>2026-02-22T13:07:03.188Z</time>
      </trkpt>
      <trkpt lat="44.19921" lon="0.60478">
        <ele>53</ele>
        <time>2026-02-22T13:07:04.189Z</time>
      </trkpt>
      <trkpt lat="44.19922" lon="0.60476">
        <ele>53</ele>
        <time>2026-02-22T13:07:05.189Z</time>
      </trkpt>
      <trkpt lat="44.19922" lon="0.60475">
        <ele>53</ele>
        <time>2026-02-22T13:07:06.188Z</time>
      </trkpt>
      <trkpt lat="44.19923" lon="0.60474">
        <ele>53</ele>
        <time>2026-02-22T13:07:07.188Z</time>
      </trkpt>
      <trkpt lat="44.19924" lon="0.60473">
        <ele>54</ele>
        <time>2026-02-22T13:07:08.188Z</time>
      </trkpt>
      <trkpt lat="44.19924" lon="0.60471">
        <ele>54</ele>
        <time>2026-02-22T13:07:09.189Z</time>
      </trkpt>
      <trkpt lat="44.19925" lon="0.6047">
        <ele>54</ele>
        <time>2026-02-22T13:07:10.188Z</time>
      </trkpt>
      <trkpt lat="44.19925" lon="0.60468">
        <ele>54</ele>
        <time>2026-02-22T13:07:11.188Z</time>
      </trkpt>
      <trkpt lat="44.19925" lon="0.60467">
        <ele>55</ele>
        <time>2026-02-22T13:07:12.188Z</time>
      </trkpt>
      <trkpt lat="44.19926" lon="0.60465">
        <ele>55</ele>
        <time>2026-02-22T13:07:13.188Z</time>
      </trkpt>
      <trkpt lat="44.19926" lon="0.60463">
        <ele>55</ele>
        <time>2026-02-22T13:07:14.188Z</time>
      </trkpt>
      <trkpt lat="44.19926" lon="0.60461">
        <ele>55</ele>
        <time>2026-02-22T13:07:15.188Z</time>
      </trkpt>
      <trkpt lat="44.19927" lon="0.6046">
        <ele>55</ele>
        <time>2026-02-22T13:07:16.189Z</time>
      </trkpt>
      <trkpt lat="44.19927" lon="0.60458">
        <ele>55</ele>
        <time>2026-02-22T13:07:17.188Z</time>
      </trkpt>
      <trkpt lat="44.19927" lon="0.60457">
        <ele>55</ele>
        <time>2026-02-22T13:07:18.188Z</time>
      </trkpt>
      <trkpt lat="44.19928" lon="0.60455">
        <ele>55</ele>
        <time>2026-02-22T13:07:19.188Z</time>
      </trkpt>
      <trkpt lat="44.19929" lon="0.60454">
        <ele>56</ele>
        <time>2026-02-22T13:07:20.188Z</time>
      </trkpt>
      <trkpt lat="44.19929" lon="0.60453">
        <ele>56</ele>
        <time>2026-02-22T13:07:21.188Z</time>
      </trkpt>
      <trkpt lat="44.1993" lon="0.60451">
        <ele>56</ele>
        <time>2026-02-22T13:07:22.189Z</time>
      </trkpt>
      <trkpt lat="44.19931" lon="0.60449">
        <ele>56</ele>
        <time>2026-02-22T13:07:23.188Z</time>
      </trkpt>
      <trkpt lat="44.19932" lon="0.60448">
        <ele>56</ele>
        <time>2026-02-22T13:07:24.189Z</time>
      </trkpt>
      <trkpt lat="44.19933" lon="0.60446">
        <ele>55</ele>
        <time>2026-02-22T13:07:25.188Z</time>
      </trkpt>
      <trkpt lat="44.19932" lon="0.60444">
        <ele>55</ele>
        <time>2026-02-22T13:07:26.188Z</time>
      </trkpt>
      <trkpt lat="44.19933" lon="0.60442">
        <ele>55</ele>
        <time>2026-02-22T13:07:27.188Z</time>
      </trkpt>
      <trkpt lat="44.19933" lon="0.6044">
        <ele>55</ele>
        <time>2026-02-22T13:07:28.188Z</time>
      </trkpt>
      <trkpt lat="44.19933" lon="0.60438">
        <ele>55</ele>
        <time>2026-02-22T13:07:29.188Z</time>
      </trkpt>
      <trkpt lat="44.19933" lon="0.60437">
        <ele>55</ele>
        <time>2026-02-22T13:07:30.188Z</time>
      </trkpt>
      <trkpt lat="44.19933" lon="0.60435">
        <ele>55</ele>
        <time>2026-02-22T13:07:31.188Z</time>
      </trkpt>
      <trkpt lat="44.19933" lon="0.60434">
        <ele>54</ele>
        <time>2026-02-22T13:07:32.188Z</time>
      </trkpt>
      <trkpt lat="44.19933" lon="0.60432">
        <ele>54</ele>
        <time>2026-02-22T13:07:33.188Z</time>
      </trkpt>
      <trkpt lat="44.19932" lon="0.6043">
        <ele>54</ele>
        <time>2026-02-22T13:07:34.188Z</time>
      </trkpt>
      <trkpt lat="44.19932" lon="0.60428">
        <ele>53</ele>
        <time>2026-02-22T13:07:35.188Z</time>
      </trkpt>
      <trkpt lat="44.19933" lon="0.60427">
        <ele>53</ele>
        <time>2026-02-22T13:07:36.188Z</time>
      </trkpt>
      <trkpt lat="44.19933" lon="0.60426">
        <ele>53</ele>
        <time>2026-02-22T13:07:37.188Z</time>
      </trkpt>
      <trkpt lat="44.19933" lon="0.60424">
        <ele>53</ele>
        <time>2026-02-22T13:07:38.188Z</time>
      </trkpt>
      <trkpt lat="44.19933" lon="0.60423">
        <ele>52</ele>
        <time>2026-02-22T13:07:39.188Z</time>
      </trkpt>
      <trkpt lat="44.19934" lon="0.60421">
        <ele>52</ele>
        <time>2026-02-22T13:07:40.189Z</time>
      </trkpt>
      <trkpt lat="44.19934" lon="0.60419">
        <ele>52</ele>
        <time>2026-02-22T13:07:41.188Z</time>
      </trkpt>
      <trkpt lat="44.19934" lon="0.60418">
        <ele>52</ele>
        <time>2026-02-22T13:07:42.189Z</time>
      </trkpt>
      <trkpt lat="44.19934" lon="0.60417">
        <ele>52</ele>
        <time>2026-02-22T13:07:43.188Z</time>
      </trkpt>
      <trkpt lat="44.19934" lon="0.60415">
        <ele>51</ele>
        <time>2026-02-22T13:07:44.188Z</time>
      </trkpt>
      <trkpt lat="44.19934" lon="0.60414">
        <ele>51</ele>
        <time>2026-02-22T13:07:45.188Z</time>
      </trkpt>
      <trkpt lat="44.19934" lon="0.60412">
        <ele>51</ele>
        <time>2026-02-22T13:07:46.188Z</time>
      </trkpt>
      <trkpt lat="44.19933" lon="0.6041">
        <ele>51</ele>
        <time>2026-02-22T13:07:47.188Z</time>
      </trkpt>
      <trkpt lat="44.19933" lon="0.60408">
        <ele>51</ele>
        <time>2026-02-22T13:07:48.188Z</time>
      </trkpt>
      <trkpt lat="44.19932" lon="0.60406">
        <ele>51</ele>
        <time>2026-02-22T13:07:49.188Z</time>
      </trkpt>
      <trkpt lat="44.19932" lon="0.60405">
        <ele>51</ele>
        <time>2026-02-22T13:07:50.188Z</time>
      </trkpt>
      <trkpt lat="44.19931" lon="0.60403">
        <ele>51</ele>
        <time>2026-02-22T13:07:51.188Z</time>
      </trkpt>
      <trkpt lat="44.19931" lon="0.60402">
        <ele>51</ele>
        <time>2026-02-22T13:07:52.188Z</time>
      </trkpt>
      <trkpt lat="44.19931" lon="0.60401">
        <ele>51</ele>
        <time>2026-02-22T13:07:53.188Z</time>
      </trkpt>
      <trkpt lat="44.1993" lon="0.60401">
        <ele>51</ele>
        <time>2026-02-22T13:07:54.189Z</time>
      </trkpt>
      <trkpt lat="44.19929" lon="0.604">
        <ele>51</ele>
        <time>2026-02-22T13:07:55.188Z</time>
      </trkpt>
      <trkpt lat="44.19928" lon="0.60399">
        <ele>51</ele>
        <time>2026-02-22T13:07:56.188Z</time>
      </trkpt>
      <trkpt lat="44.19927" lon="0.60398">
        <ele>51</ele>
        <time>2026-02-22T13:07:57.188Z</time>
      </trkpt>
      <trkpt lat="44.19926" lon="0.60398">
        <ele>51</ele>
        <time>2026-02-22T13:07:58.188Z</time>
      </trkpt>
      <trkpt lat="44.19925" lon="0.60397">
        <ele>51</ele>
        <time>2026-02-22T13:07:59.188Z</time>
      </trkpt>
      <trkpt lat="44.19923" lon="0.60396">
        <ele>51</ele>
        <time>2026-02-22T13:08:00.188Z</time>
      </trkpt>
      <trkpt lat="44.19922" lon="0.60396">
        <ele>52</ele>
        <time>2026-02-22T13:08:01.188Z</time>
      </trkpt>
      <trkpt lat="44.19921" lon="0.60395">
        <ele>52</ele>
        <time>2026-02-22T13:08:02.188Z</time>
      </trkpt>
      <trkpt lat="44.1992" lon="0.60394">
        <ele>52</ele>
        <time>2026-02-22T13:08:03.188Z</time>
      </trkpt>
      <trkpt lat="44.19919" lon="0.60393">
        <ele>52</ele>
        <time>2026-02-22T13:08:04.188Z</time>
      </trkpt>
      <trkpt lat="44.19918" lon="0.60392">
        <ele>53</ele>
        <time>2026-02-22T13:08:05.188Z</time>
      </trkpt>
      <trkpt lat="44.19917" lon="0.60391">
        <ele>53</ele>
        <time>2026-02-22T13:08:06.188Z</time>
      </trkpt>
      <trkpt lat="44.19916" lon="0.6039">
        <ele>53</ele>
        <time>2026-02-22T13:08:07.188Z</time>
      </trkpt>
      <trkpt lat="44.19915" lon="0.6039">
        <ele>53</ele>
        <time>2026-02-22T13:08:08.188Z</time>
      </trkpt>
      <trkpt lat="44.19915" lon="0.60389">
        <ele>53</ele>
        <time>2026-02-22T13:08:09.188Z</time>
      </trkpt>
      <trkpt lat="44.19915" lon="0.60388">
        <ele>53</ele>
        <time>2026-02-22T13:08:10.188Z</time>
      </trkpt>
      <trkpt lat="44.19914" lon="0.60387">
        <ele>53</ele>
        <time>2026-02-22T13:08:11.189Z</time>
      </trkpt>
      <trkpt lat="44.19913" lon="0.60386">
        <ele>53</ele>
        <time>2026-02-22T13:08:12.188Z</time>
      </trkpt>
      <trkpt lat="44.19912" lon="0.60384">
        <ele>52</ele>
        <time>2026-02-22T13:08:13.188Z</time>
      </trkpt>
      <trkpt lat="44.19911" lon="0.60383">
        <ele>52</ele>
        <time>2026-02-22T13:08:14.188Z</time>
      </trkpt>
      <trkpt lat="44.19911" lon="0.60383">
        <ele>51</ele>
        <time>2026-02-22T13:08:15.188Z</time>
      </trkpt>
      <trkpt lat="44.1991" lon="0.60381">
        <ele>51</ele>
        <time>2026-02-22T13:08:16.189Z</time>
      </trkpt>
      <trkpt lat="44.19909" lon="0.6038">
        <ele>51</ele>
        <time>2026-02-22T13:08:17.188Z</time>
      </trkpt>
      <trkpt lat="44.19908" lon="0.6038">
        <ele>51</ele>
        <time>2026-02-22T13:08:18.188Z</time>
      </trkpt>
      <trkpt lat="44.19908" lon="0.60379">
        <ele>51</ele>
        <time>2026-02-22T13:08:19.188Z</time>
      </trkpt>
      <trkpt lat="44.19907" lon="0.60379">
        <ele>51</ele>
        <time>2026-02-22T13:08:20.188Z</time>
      </trkpt>
      <trkpt lat="44.19906" lon="0.60379">
        <ele>50</ele>
        <time>2026-02-22T13:08:21.188Z</time>
      </trkpt>
      <trkpt lat="44.19905" lon="0.60378">
        <ele>50</ele>
        <time>2026-02-22T13:08:22.188Z</time>
      </trkpt>
      <trkpt lat="44.19904" lon="0.60377">
        <ele>50</ele>
        <time>2026-02-22T13:08:23.188Z</time>
      </trkpt>
      <trkpt lat="44.19903" lon="0.60376">
        <ele>50</ele>
        <time>2026-02-22T13:08:24.189Z</time>
      </trkpt>
      <trkpt lat="44.19902" lon="0.60375">
        <ele>50</ele>
        <time>2026-02-22T13:08:25.188Z</time>
      </trkpt>
      <trkpt lat="44.19901" lon="0.60375">
        <ele>51</ele>
        <time>2026-02-22T13:08:26.188Z</time>
      </trkpt>
      <trkpt lat="44.199" lon="0.60374">
        <ele>51</ele>
        <time>2026-02-22T13:08:27.188Z</time>
      </trkpt>
      <trkpt lat="44.19899" lon="0.60373">
        <ele>51</ele>
        <time>2026-02-22T13:08:28.188Z</time>
      </trkpt>
      <trkpt lat="44.19898" lon="0.60372">
        <ele>51</ele>
        <time>2026-02-22T13:08:29.188Z</time>
      </trkpt>
      <trkpt lat="44.19897" lon="0.60371">
        <ele>51</ele>
        <time>2026-02-22T13:08:30.188Z</time>
      </trkpt>
      <trkpt lat="44.19895" lon="0.6037">
        <ele>50</ele>
        <time>2026-02-22T13:08:31.188Z</time>
      </trkpt>
      <trkpt lat="44.19894" lon="0.6037">
        <ele>50</ele>
        <time>2026-02-22T13:08:32.188Z</time>
      </trkpt>
      <trkpt lat="44.19893" lon="0.60369">
        <ele>50</ele>
        <time>2026-02-22T13:08:33.188Z</time>
      </trkpt>
      <trkpt lat="44.19892" lon="0.60368">
        <ele>50</ele>
        <time>2026-02-22T13:08:34.188Z</time>
      </trkpt>
      <trkpt lat="44.19891" lon="0.60368">
        <ele>49</ele>
        <time>2026-02-22T13:08:35.188Z</time>
      </trkpt>
      <trkpt lat="44.1989" lon="0.60367">
        <ele>49</ele>
        <time>2026-02-22T13:08:36.188Z</time>
      </trkpt>
      <trkpt lat="44.19889" lon="0.60366">
        <ele>49</ele>
        <time>2026-02-22T13:08:37.188Z</time>
      </trkpt>
      <trkpt lat="44.19888" lon="0.60365">
        <ele>49</ele>
        <time>2026-02-22T13:08:38.188Z</time>
      </trkpt>
      <trkpt lat="44.19887" lon="0.60364">
        <ele>50</ele>
        <time>2026-02-22T13:08:39.189Z</time>
      </trkpt>
      <trkpt lat="44.19885" lon="0.60364">
        <ele>50</ele>
        <time>2026-02-22T13:08:40.188Z</time>
      </trkpt>
      <trkpt lat="44.19884" lon="0.60363">
        <ele>50</ele>
        <time>2026-02-22T13:08:41.188Z</time>
      </trkpt>
      <trkpt lat="44.19883" lon="0.60362">
        <ele>51</ele>
        <time>2026-02-22T13:08:42.188Z</time>
      </trkpt>
      <trkpt lat="44.19882" lon="0.60361">
        <ele>51</ele>
        <time>2026-02-22T13:08:43.188Z</time>
      </trkpt>
      <trkpt lat="44.19881" lon="0.60361">
        <ele>51</ele>
        <time>2026-02-22T13:08:44.188Z</time>
      </trkpt>
      <trkpt lat="44.1988" lon="0.6036">
        <ele>51</ele>
        <time>2026-02-22T13:08:45.188Z</time>
      </trkpt>
      <trkpt lat="44.19879" lon="0.60359">
        <ele>51</ele>
        <time>2026-02-22T13:08:46.188Z</time>
      </trkpt>
      <trkpt lat="44.19878" lon="0.60358">
        <ele>51</ele>
        <time>2026-02-22T13:08:47.188Z</time>
      </trkpt>
      <trkpt lat="44.19877" lon="0.60357">
        <ele>51</ele>
        <time>2026-02-22T13:08:48.188Z</time>
      </trkpt>
      <trkpt lat="44.19876" lon="0.60356">
        <ele>51</ele>
        <time>2026-02-22T13:08:49.188Z</time>
      </trkpt>
      <trkpt lat="44.19875" lon="0.60354">
        <ele>51</ele>
        <time>2026-02-22T13:08:50.189Z</time>
      </trkpt>
      <trkpt lat="44.19874" lon="0.60354">
        <ele>51</ele>
        <time>2026-02-22T13:08:51.188Z</time>
      </trkpt>
      <trkpt lat="44.19873" lon="0.60353">
        <ele>51</ele>
        <time>2026-02-22T13:08:52.188Z</time>
      </trkpt>
      <trkpt lat="44.19872" lon="0.60352">
        <ele>51</ele>
        <time>2026-02-22T13:08:53.188Z</time>
      </trkpt>
      <trkpt lat="44.19871" lon="0.60351">
        <ele>51</ele>
        <time>2026-02-22T13:08:54.189Z</time>
      </trkpt>
      <trkpt lat="44.1987" lon="0.60351">
        <ele>51</ele>
        <time>2026-02-22T13:08:55.188Z</time>
      </trkpt>
      <trkpt lat="44.19869" lon="0.6035">
        <ele>51</ele>
        <time>2026-02-22T13:08:56.188Z</time>
      </trkpt>
      <trkpt lat="44.19868" lon="0.60349">
        <ele>51</ele>
        <time>2026-02-22T13:08:57.188Z</time>
      </trkpt>
      <trkpt lat="44.19867" lon="0.60348">
        <ele>51</ele>
        <time>2026-02-22T13:08:58.188Z</time>
      </trkpt>
      <trkpt lat="44.19866" lon="0.60347">
        <ele>51</ele>
        <time>2026-02-22T13:08:59.188Z</time>
      </trkpt>
      <trkpt lat="44.19864" lon="0.60346">
        <ele>51</ele>
        <time>2026-02-22T13:09:00.188Z</time>
      </trkpt>
      <trkpt lat="44.19863" lon="0.60346">
        <ele>50</ele>
        <time>2026-02-22T13:09:01.188Z</time>
      </trkpt>
      <trkpt lat="44.19862" lon="0.60345">
        <ele>50</ele>
        <time>2026-02-22T13:09:02.188Z</time>
      </trkpt>
      <trkpt lat="44.19861" lon="0.60344">
        <ele>50</ele>
        <time>2026-02-22T13:09:03.188Z</time>
      </trkpt>
      <trkpt lat="44.1986" lon="0.60344">
        <ele>50</ele>
        <time>2026-02-22T13:09:04.188Z</time>
      </trkpt>
      <trkpt lat="44.19859" lon="0.60343">
        <ele>50</ele>
        <time>2026-02-22T13:09:05.189Z</time>
      </trkpt>
      <trkpt lat="44.19858" lon="0.60342">
        <ele>50</ele>
        <time>2026-02-22T13:09:06.188Z</time>
      </trkpt>
      <trkpt lat="44.19856" lon="0.60341">
        <ele>50</ele>
        <time>2026-02-22T13:09:07.188Z</time>
      </trkpt>
      <trkpt lat="44.19855" lon="0.60341">
        <ele>50</ele>
        <time>2026-02-22T13:09:08.188Z</time>
      </trkpt>
      <trkpt lat="44.19854" lon="0.6034">
        <ele>51</ele>
        <time>2026-02-22T13:09:09.188Z</time>
      </trkpt>
      <trkpt lat="44.19853" lon="0.60339">
        <ele>51</ele>
        <time>2026-02-22T13:09:10.188Z</time>
      </trkpt>
      <trkpt lat="44.19852" lon="0.60338">
        <ele>50</ele>
        <time>2026-02-22T13:09:11.188Z</time>
      </trkpt>
      <trkpt lat="44.19851" lon="0.60337">
        <ele>50</ele>
        <time>2026-02-22T13:09:12.188Z</time>
      </trkpt>
      <trkpt lat="44.1985" lon="0.60336">
        <ele>50</ele>
        <time>2026-02-22T13:09:13.188Z</time>
      </trkpt>
      <trkpt lat="44.19849" lon="0.60335">
        <ele>50</ele>
        <time>2026-02-22T13:09:14.188Z</time>
      </trkpt>
      <trkpt lat="44.19847" lon="0.60335">
        <ele>49</ele>
        <time>2026-02-22T13:09:15.188Z</time>
      </trkpt>
      <trkpt lat="44.19846" lon="0.60334">
        <ele>49</ele>
        <time>2026-02-22T13:09:16.188Z</time>
      </trkpt>
      <trkpt lat="44.19845" lon="0.60334">
        <ele>49</ele>
        <time>2026-02-22T13:09:17.188Z</time>
      </trkpt>
      <trkpt lat="44.19843" lon="0.60333">
        <ele>49</ele>
        <time>2026-02-22T13:09:18.189Z</time>
      </trkpt>
      <trkpt lat="44.19842" lon="0.60333">
        <ele>49</ele>
        <time>2026-02-22T13:09:19.188Z</time>
      </trkpt>
      <trkpt lat="44.1984" lon="0.60333">
        <ele>49</ele>
        <time>2026-02-22T13:09:20.188Z</time>
      </trkpt>
      <trkpt lat="44.19839" lon="0.60332">
        <ele>50</ele>
        <time>2026-02-22T13:09:21.188Z</time>
      </trkpt>
      <trkpt lat="44.19838" lon="0.60331">
        <ele>50</ele>
        <time>2026-02-22T13:09:22.188Z</time>
      </trkpt>
      <trkpt lat="44.19836" lon="0.60331">
        <ele>51</ele>
        <time>2026-02-22T13:09:23.188Z</time>
      </trkpt>
      <trkpt lat="44.19835" lon="0.6033">
        <ele>51</ele>
        <time>2026-02-22T13:09:24.188Z</time>
      </trkpt>
      <trkpt lat="44.19834" lon="0.60329">
        <ele>51</ele>
        <time>2026-02-22T13:09:25.188Z</time>
      </trkpt>
      <trkpt lat="44.19833" lon="0.60329">
        <ele>51</ele>
        <time>2026-02-22T13:09:26.188Z</time>
      </trkpt>
      <trkpt lat="44.19832" lon="0.60328">
        <ele>51</ele>
        <time>2026-02-22T13:09:27.188Z</time>
      </trkpt>
      <trkpt lat="44.19831" lon="0.60327">
        <ele>51</ele>
        <time>2026-02-22T13:09:28.188Z</time>
      </trkpt>
      <trkpt lat="44.1983" lon="0.60326">
        <ele>51</ele>
        <time>2026-02-22T13:09:29.188Z</time>
      </trkpt>
      <trkpt lat="44.19828" lon="0.60325">
        <ele>51</ele>
        <time>2026-02-22T13:09:30.189Z</time>
      </trkpt>
      <trkpt lat="44.19827" lon="0.60324">
        <ele>51</ele>
        <time>2026-02-22T13:09:31.188Z</time>
      </trkpt>
      <trkpt lat="44.19826" lon="0.60322">
        <ele>52</ele>
        <time>2026-02-22T13:09:32.188Z</time>
      </trkpt>
      <trkpt lat="44.19825" lon="0.60321">
        <ele>52</ele>
        <time>2026-02-22T13:09:33.188Z</time>
      </trkpt>
      <trkpt lat="44.19825" lon="0.6032">
        <ele>52</ele>
        <time>2026-02-22T13:09:34.188Z</time>
      </trkpt>
      <trkpt lat="44.19824" lon="0.60319">
        <ele>52</ele>
        <time>2026-02-22T13:09:35.188Z</time>
      </trkpt>
      <trkpt lat="44.19823" lon="0.60318">
        <ele>52</ele>
        <time>2026-02-22T13:09:36.188Z</time>
      </trkpt>
      <trkpt lat="44.19822" lon="0.60317">
        <ele>52</ele>
        <time>2026-02-22T13:09:37.188Z</time>
      </trkpt>
      <trkpt lat="44.19821" lon="0.60316">
        <ele>52</ele>
        <time>2026-02-22T13:09:38.188Z</time>
      </trkpt>
      <trkpt lat="44.1982" lon="0.60315">
        <ele>53</ele>
        <time>2026-02-22T13:09:39.188Z</time>
      </trkpt>
      <trkpt lat="44.1982" lon="0.60314">
        <ele>53</ele>
        <time>2026-02-22T13:09:40.188Z</time>
      </trkpt>
      <trkpt lat="44.19819" lon="0.60313">
        <ele>53</ele>
        <time>2026-02-22T13:09:41.188Z</time>
      </trkpt>
      <trkpt lat="44.19819" lon="0.60312">
        <ele>52</ele>
        <time>2026-02-22T13:09:42.188Z</time>
      </trkpt>
      <trkpt lat="44.19818" lon="0.60311">
        <ele>52</ele>
        <time>2026-02-22T13:09:43.188Z</time>
      </trkpt>
      <trkpt lat="44.19817" lon="0.6031">
        <ele>52</ele>
        <time>2026-02-22T13:09:44.189Z</time>
      </trkpt>
      <trkpt lat="44.19815" lon="0.60309">
        <ele>52</ele>
        <time>2026-02-22T13:09:45.188Z</time>
      </trkpt>
      <trkpt lat="44.19814" lon="0.60309">
        <ele>52</ele>
        <time>2026-02-22T13:09:46.188Z</time>
      </trkpt>
      <trkpt lat="44.19814" lon="0.60308">
        <ele>52</ele>
        <time>2026-02-22T13:09:47.188Z</time>
      </trkpt>
      <trkpt lat="44.19813" lon="0.60307">
        <ele>52</ele>
        <time>2026-02-22T13:09:48.188Z</time>
      </trkpt>
      <trkpt lat="44.19811" lon="0.60306">
        <ele>52</ele>
        <time>2026-02-22T13:09:49.188Z</time>
      </trkpt>
      <trkpt lat="44.1981" lon="0.60306">
        <ele>52</ele>
        <time>2026-02-22T13:09:50.188Z</time>
      </trkpt>
      <trkpt lat="44.1981" lon="0.60305">
        <ele>52</ele>
        <time>2026-02-22T13:09:51.188Z</time>
      </trkpt>
      <trkpt lat="44.19809" lon="0.60304">
        <ele>52</ele>
        <time>2026-02-22T13:09:52.188Z</time>
      </trkpt>
      <trkpt lat="44.19808" lon="0.60303">
        <ele>52</ele>
        <time>2026-02-22T13:09:53.188Z</time>
      </trkpt>
      <trkpt lat="44.19807" lon="0.60302">
        <ele>52</ele>
        <time>2026-02-22T13:09:54.188Z</time>
      </trkpt>
      <trkpt lat="44.19805" lon="0.60301">
        <ele>51</ele>
        <time>2026-02-22T13:09:55.188Z</time>
      </trkpt>
      <trkpt lat="44.19805" lon="0.603">
        <ele>51</ele>
        <time>2026-02-22T13:09:56.188Z</time>
      </trkpt>
      <trkpt lat="44.19804" lon="0.603">
        <ele>51</ele>
        <time>2026-02-22T13:09:57.188Z</time>
      </trkpt>
      <trkpt lat="44.19803" lon="0.60299">
        <ele>51</ele>
        <time>2026-02-22T13:09:58.188Z</time>
      </trkpt>
      <trkpt lat="44.19802" lon="0.60298">
        <ele>51</ele>
        <time>2026-02-22T13:09:59.188Z</time>
      </trkpt>
      <trkpt lat="44.198" lon="0.60297">
        <ele>51</ele>
        <time>2026-02-22T13:10:00.188Z</time>
      </trkpt>
      <trkpt lat="44.19799" lon="0.60296">
        <ele>51</ele>
        <time>2026-02-22T13:10:01.188Z</time>
      </trkpt>
      <trkpt lat="44.19798" lon="0.60296">
        <ele>52</ele>
        <time>2026-02-22T13:10:02.188Z</time>
      </trkpt>
      <trkpt lat="44.19797" lon="0.60295">
        <ele>52</ele>
        <time>2026-02-22T13:10:03.188Z</time>
      </trkpt>
      <trkpt lat="44.19796" lon="0.60294">
        <ele>52</ele>
        <time>2026-02-22T13:10:04.188Z</time>
      </trkpt>
      <trkpt lat="44.19795" lon="0.60294">
        <ele>52</ele>
        <time>2026-02-22T13:10:05.188Z</time>
      </trkpt>
      <trkpt lat="44.19794" lon="0.60293">
        <ele>52</ele>
        <time>2026-02-22T13:10:06.189Z</time>
      </trkpt>
      <trkpt lat="44.19793" lon="0.60292">
        <ele>52</ele>
        <time>2026-02-22T13:10:07.188Z</time>
      </trkpt>
      <trkpt lat="44.19792" lon="0.60291">
        <ele>52</ele>
        <time>2026-02-22T13:10:08.188Z</time>
      </trkpt>
      <trkpt lat="44.19791" lon="0.60291">
        <ele>52</ele>
        <time>2026-02-22T13:10:09.188Z</time>
      </trkpt>
      <trkpt lat="44.1979" lon="0.6029">
        <ele>52</ele>
        <time>2026-02-22T13:10:10.189Z</time>
      </trkpt>
      <trkpt lat="44.19789" lon="0.6029">
        <ele>51</ele>
        <time>2026-02-22T13:10:11.188Z</time>
      </trkpt>
      <trkpt lat="44.19788" lon="0.60289">
        <ele>51</ele>
        <time>2026-02-22T13:10:12.188Z</time>
      </trkpt>
      <trkpt lat="44.19787" lon="0.60288">
        <ele>51</ele>
        <time>2026-02-22T13:10:13.188Z</time>
      </trkpt>
      <trkpt lat="44.19785" lon="0.60288">
        <ele>51</ele>
        <time>2026-02-22T13:10:14.188Z</time>
      </trkpt>
      <trkpt lat="44.19784" lon="0.60287">
        <ele>51</ele>
        <time>2026-02-22T13:10:15.188Z</time>
      </trkpt>
      <trkpt lat="44.19783" lon="0.60287">
        <ele>51</ele>
        <time>2026-02-22T13:10:16.188Z</time>
      </trkpt>
      <trkpt lat="44.19782" lon="0.60286">
        <ele>51</ele>
        <time>2026-02-22T13:10:17.188Z</time>
      </trkpt>
      <trkpt lat="44.19781" lon="0.60285">
        <ele>51</ele>
        <time>2026-02-22T13:10:18.188Z</time>
      </trkpt>
      <trkpt lat="44.1978" lon="0.60285">
        <ele>51</ele>
        <time>2026-02-22T13:10:19.188Z</time>
      </trkpt>
      <trkpt lat="44.19779" lon="0.60284">
        <ele>51</ele>
        <time>2026-02-22T13:10:20.188Z</time>
      </trkpt>
      <trkpt lat="44.19778" lon="0.60283">
        <ele>51</ele>
        <time>2026-02-22T13:10:21.188Z</time>
      </trkpt>
      <trkpt lat="44.19777" lon="0.60283">
        <ele>51</ele>
        <time>2026-02-22T13:10:22.188Z</time>
      </trkpt>
      <trkpt lat="44.19776" lon="0.60282">
        <ele>52</ele>
        <time>2026-02-22T13:10:23.189Z</time>
      </trkpt>
      <trkpt lat="44.19775" lon="0.60281">
        <ele>52</ele>
        <time>2026-02-22T13:10:24.188Z</time>
      </trkpt>
      <trkpt lat="44.19774" lon="0.60281">
        <ele>52</ele>
        <time>2026-02-22T13:10:25.188Z</time>
      </trkpt>
      <trkpt lat="44.19773" lon="0.6028">
        <ele>52</ele>
        <time>2026-02-22T13:10:26.188Z</time>
      </trkpt>
      <trkpt lat="44.19772" lon="0.6028">
        <ele>52</ele>
        <time>2026-02-22T13:10:27.188Z</time>
      </trkpt>
      <trkpt lat="44.19771" lon="0.60279">
        <ele>52</ele>
        <time>2026-02-22T13:10:28.188Z</time>
      </trkpt>
      <trkpt lat="44.1977" lon="0.60278">
        <ele>52</ele>
        <time>2026-02-22T13:10:29.188Z</time>
      </trkpt>
      <trkpt lat="44.19769" lon="0.60277">
        <ele>52</ele>
        <time>2026-02-22T13:10:30.188Z</time>
      </trkpt>
      <trkpt lat="44.19768" lon="0.60277">
        <ele>52</ele>
        <time>2026-02-22T13:10:31.188Z</time>
      </trkpt>
      <trkpt lat="44.19767" lon="0.60276">
        <ele>52</ele>
        <time>2026-02-22T13:10:32.188Z</time>
      </trkpt>
      <trkpt lat="44.19766" lon="0.60276">
        <ele>52</ele>
        <time>2026-02-22T13:10:33.188Z</time>
      </trkpt>
      <trkpt lat="44.19765" lon="0.60275">
        <ele>52</ele>
        <time>2026-02-22T13:10:34.188Z</time>
      </trkpt>
      <trkpt lat="44.19764" lon="0.60275">
        <ele>52</ele>
        <time>2026-02-22T13:10:35.188Z</time>
      </trkpt>
      <trkpt lat="44.19763" lon="0.60274">
        <ele>52</ele>
        <time>2026-02-22T13:10:36.189Z</time>
      </trkpt>
      <trkpt lat="44.19762" lon="0.60273">
        <ele>52</ele>
        <time>2026-02-22T13:10:37.188Z</time>
      </trkpt>
      <trkpt lat="44.19761" lon="0.60272">
        <ele>52</ele>
        <time>2026-02-22T13:10:38.188Z</time>
      </trkpt>
      <trkpt lat="44.1976" lon="0.60272">
        <ele>52</ele>
        <time>2026-02-22T13:10:39.188Z</time>
      </trkpt>
      <trkpt lat="44.19759" lon="0.60271">
        <ele>52</ele>
        <time>2026-02-22T13:10:40.188Z</time>
      </trkpt>
      <trkpt lat="44.19757" lon="0.60271">
        <ele>52</ele>
        <time>2026-02-22T13:10:41.188Z</time>
      </trkpt>
      <trkpt lat="44.19756" lon="0.60271">
        <ele>52</ele>
        <time>2026-02-22T13:10:42.189Z</time>
      </trkpt>
      <trkpt lat="44.19755" lon="0.6027">
        <ele>52</ele>
        <time>2026-02-22T13:10:43.189Z</time>
      </trkpt>
      <trkpt lat="44.19754" lon="0.60269">
        <ele>52</ele>
        <time>2026-02-22T13:10:44.188Z</time>
      </trkpt>
      <trkpt lat="44.19753" lon="0.60269">
        <ele>52</ele>
        <time>2026-02-22T13:10:45.188Z</time>
      </trkpt>
      <trkpt lat="44.19752" lon="0.60268">
        <ele>52</ele>
        <time>2026-02-22T13:10:46.188Z</time>
      </trkpt>
      <trkpt lat="44.19751" lon="0.60268">
        <ele>53</ele>
        <time>2026-02-22T13:10:47.188Z</time>
      </trkpt>
      <trkpt lat="44.1975" lon="0.60268">
        <ele>53</ele>
        <time>2026-02-22T13:10:48.188Z</time>
      </trkpt>
      <trkpt lat="44.19749" lon="0.60267">
        <ele>53</ele>
        <time>2026-02-22T13:10:49.188Z</time>
      </trkpt>
      <trkpt lat="44.19748" lon="0.60267">
        <ele>53</ele>
        <time>2026-02-22T13:10:50.188Z</time>
      </trkpt>
      <trkpt lat="44.19747" lon="0.60266">
        <ele>53</ele>
        <time>2026-02-22T13:10:51.188Z</time>
      </trkpt>
      <trkpt lat="44.19746" lon="0.60265">
        <ele>52</ele>
        <time>2026-02-22T13:10:52.188Z</time>
      </trkpt>
      <trkpt lat="44.19745" lon="0.60265">
        <ele>52</ele>
        <time>2026-02-22T13:10:53.188Z</time>
      </trkpt>
      <trkpt lat="44.19744" lon="0.60264">
        <ele>51</ele>
        <time>2026-02-22T13:10:54.188Z</time>
      </trkpt>
      <trkpt lat="44.19743" lon="0.60263">
        <ele>51</ele>
        <time>2026-02-22T13:10:55.188Z</time>
      </trkpt>
      <trkpt lat="44.19742" lon="0.60263">
        <ele>51</ele>
        <time>2026-02-22T13:10:56.188Z</time>
      </trkpt>
      <trkpt lat="44.19741" lon="0.60263">
        <ele>51</ele>
        <time>2026-02-22T13:10:57.188Z</time>
      </trkpt>
      <trkpt lat="44.19739" lon="0.60262">
        <ele>51</ele>
        <time>2026-02-22T13:10:58.188Z</time>
      </trkpt>
      <trkpt lat="44.19738" lon="0.60262">
        <ele>51</ele>
        <time>2026-02-22T13:10:59.188Z</time>
      </trkpt>
      <trkpt lat="44.19737" lon="0.60261">
        <ele>50</ele>
        <time>2026-02-22T13:11:00.188Z</time>
      </trkpt>
      <trkpt lat="44.19735" lon="0.6026">
        <ele>50</ele>
        <time>2026-02-22T13:11:01.188Z</time>
      </trkpt>
      <trkpt lat="44.19734" lon="0.6026">
        <ele>50</ele>
        <time>2026-02-22T13:11:02.189Z</time>
      </trkpt>
      <trkpt lat="44.19733" lon="0.60259">
        <ele>50</ele>
        <time>2026-02-22T13:11:03.188Z</time>
      </trkpt>
      <trkpt lat="44.19732" lon="0.60259">
        <ele>50</ele>
        <time>2026-02-22T13:11:04.188Z</time>
      </trkpt>
      <trkpt lat="44.19731" lon="0.60259">
        <ele>50</ele>
        <time>2026-02-22T13:11:05.188Z</time>
      </trkpt>
      <trkpt lat="44.1973" lon="0.60258">
        <ele>51</ele>
        <time>2026-02-22T13:11:06.188Z</time>
      </trkpt>
      <trkpt lat="44.19729" lon="0.60258">
        <ele>51</ele>
        <time>2026-02-22T13:11:07.188Z</time>
      </trkpt>
      <trkpt lat="44.19728" lon="0.60257">
        <ele>51</ele>
        <time>2026-02-22T13:11:08.188Z</time>
      </trkpt>
      <trkpt lat="44.19727" lon="0.60256">
        <ele>51</ele>
        <time>2026-02-22T13:11:09.188Z</time>
      </trkpt>
      <trkpt lat="44.19726" lon="0.60256">
        <ele>51</ele>
        <time>2026-02-22T13:11:10.188Z</time>
      </trkpt>
      <trkpt lat="44.19725" lon="0.60255">
        <ele>50</ele>
        <time>2026-02-22T13:11:11.188Z</time>
      </trkpt>
      <trkpt lat="44.19724" lon="0.60255">
        <ele>50</ele>
        <time>2026-02-22T13:11:12.188Z</time>
      </trkpt>
      <trkpt lat="44.19723" lon="0.60254">
        <ele>50</ele>
        <time>2026-02-22T13:11:13.188Z</time>
      </trkpt>
      <trkpt lat="44.19722" lon="0.60254">
        <ele>50</ele>
        <time>2026-02-22T13:11:14.188Z</time>
      </trkpt>
      <trkpt lat="44.19721" lon="0.60253">
        <ele>49</ele>
        <time>2026-02-22T13:11:15.188Z</time>
      </trkpt>
      <trkpt lat="44.1972" lon="0.60252">
        <ele>49</ele>
        <time>2026-02-22T13:11:16.188Z</time>
      </trkpt>
      <trkpt lat="44.19719" lon="0.60252">
        <ele>49</ele>
        <time>2026-02-22T13:11:17.188Z</time>
      </trkpt>
      <trkpt lat="44.19718" lon="0.60252">
        <ele>49</ele>
        <time>2026-02-22T13:11:18.189Z</time>
      </trkpt>
      <trkpt lat="44.19718" lon="0.60251">
        <ele>49</ele>
        <time>2026-02-22T13:11:19.188Z</time>
      </trkpt>
      <trkpt lat="44.19717" lon="0.60251">
        <ele>49</ele>
        <time>2026-02-22T13:11:20.188Z</time>
      </trkpt>
      <trkpt lat="44.19715" lon="0.60251">
        <ele>50</ele>
        <time>2026-02-22T13:11:21.188Z</time>
      </trkpt>
      <trkpt lat="44.19714" lon="0.60251">
        <ele>50</ele>
        <time>2026-02-22T13:11:22.188Z</time>
      </trkpt>
      <trkpt lat="44.19713" lon="0.6025">
        <ele>50</ele>
        <time>2026-02-22T13:11:23.188Z</time>
      </trkpt>
      <trkpt lat="44.19712" lon="0.60249">
        <ele>50</ele>
        <time>2026-02-22T13:11:24.188Z</time>
      </trkpt>
      <trkpt lat="44.19711" lon="0.60249">
        <ele>50</ele>
        <time>2026-02-22T13:11:25.188Z</time>
      </trkpt>
      <trkpt lat="44.1971" lon="0.60248">
        <ele>50</ele>
        <time>2026-02-22T13:11:26.188Z</time>
      </trkpt>
      <trkpt lat="44.19709" lon="0.60247">
        <ele>50</ele>
        <time>2026-02-22T13:11:27.188Z</time>
      </trkpt>
      <trkpt lat="44.19708" lon="0.60246">
        <ele>50</ele>
        <time>2026-02-22T13:11:28.188Z</time>
      </trkpt>
      <trkpt lat="44.19707" lon="0.60246">
        <ele>51</ele>
        <time>2026-02-22T13:11:29.188Z</time>
      </trkpt>
      <trkpt lat="44.19706" lon="0.60245">
        <ele>51</ele>
        <time>2026-02-22T13:11:30.189Z</time>
      </trkpt>
      <trkpt lat="44.19705" lon="0.60245">
        <ele>51</ele>
        <time>2026-02-22T13:11:31.188Z</time>
      </trkpt>
      <trkpt lat="44.19704" lon="0.60245">
        <ele>52</ele>
        <time>2026-02-22T13:11:32.189Z</time>
      </trkpt>
      <trkpt lat="44.19703" lon="0.60245">
        <ele>52</ele>
        <time>2026-02-22T13:11:33.188Z</time>
      </trkpt>
      <trkpt lat="44.19702" lon="0.60244">
        <ele>52</ele>
        <time>2026-02-22T13:11:34.188Z</time>
      </trkpt>
      <trkpt lat="44.19701" lon="0.60243">
        <ele>52</ele>
        <time>2026-02-22T13:11:35.188Z</time>
      </trkpt>
      <trkpt lat="44.19699" lon="0.60243">
        <ele>52</ele>
        <time>2026-02-22T13:11:36.188Z</time>
      </trkpt>
      <trkpt lat="44.19698" lon="0.60243">
        <ele>53</ele>
        <time>2026-02-22T13:11:37.188Z</time>
      </trkpt>
      <trkpt lat="44.19696" lon="0.60242">
        <ele>53</ele>
        <time>2026-02-22T13:11:38.188Z</time>
      </trkpt>
      <trkpt lat="44.19695" lon="0.60242">
        <ele>53</ele>
        <time>2026-02-22T13:11:39.188Z</time>
      </trkpt>
      <trkpt lat="44.19694" lon="0.60242">
        <ele>53</ele>
        <time>2026-02-22T13:11:40.188Z</time>
      </trkpt>
      <trkpt lat="44.19693" lon="0.60242">
        <ele>53</ele>
        <time>2026-02-22T13:11:41.188Z</time>
      </trkpt>
      <trkpt lat="44.19692" lon="0.60241">
        <ele>53</ele>
        <time>2026-02-22T13:11:42.188Z</time>
      </trkpt>
      <trkpt lat="44.19691" lon="0.6024">
        <ele>53</ele>
        <time>2026-02-22T13:11:43.188Z</time>
      </trkpt>
      <trkpt lat="44.1969" lon="0.6024">
        <ele>53</ele>
        <time>2026-02-22T13:11:44.188Z</time>
      </trkpt>
      <trkpt lat="44.19689" lon="0.60239">
        <ele>53</ele>
        <time>2026-02-22T13:11:45.188Z</time>
      </trkpt>
      <trkpt lat="44.19688" lon="0.60239">
        <ele>53</ele>
        <time>2026-02-22T13:11:46.188Z</time>
      </trkpt>
      <trkpt lat="44.19687" lon="0.60239">
        <ele>53</ele>
        <time>2026-02-22T13:11:47.189Z</time>
      </trkpt>
      <trkpt lat="44.19686" lon="0.60239">
        <ele>53</ele>
        <time>2026-02-22T13:11:48.188Z</time>
      </trkpt>
      <trkpt lat="44.19685" lon="0.60238">
        <ele>53</ele>
        <time>2026-02-22T13:11:49.188Z</time>
      </trkpt>
      <trkpt lat="44.19683" lon="0.60238">
        <ele>53</ele>
        <time>2026-02-22T13:11:50.188Z</time>
      </trkpt>
      <trkpt lat="44.19682" lon="0.60237">
        <ele>53</ele>
        <time>2026-02-22T13:11:51.188Z</time>
      </trkpt>
      <trkpt lat="44.19681" lon="0.60236">
        <ele>53</ele>
        <time>2026-02-22T13:11:52.188Z</time>
      </trkpt>
      <trkpt lat="44.1968" lon="0.60236">
        <ele>53</ele>
        <time>2026-02-22T13:11:53.188Z</time>
      </trkpt>
      <trkpt lat="44.19679" lon="0.60235">
        <ele>53</ele>
        <time>2026-02-22T13:11:54.189Z</time>
      </trkpt>
      <trkpt lat="44.19678" lon="0.60234">
        <ele>53</ele>
        <time>2026-02-22T13:11:55.188Z</time>
      </trkpt>
      <trkpt lat="44.19677" lon="0.60233">
        <ele>53</ele>
        <time>2026-02-22T13:11:56.188Z</time>
      </trkpt>
      <trkpt lat="44.19676" lon="0.60232">
        <ele>52</ele>
        <time>2026-02-22T13:11:57.188Z</time>
      </trkpt>
      <trkpt lat="44.19675" lon="0.60231">
        <ele>52</ele>
        <time>2026-02-22T13:11:58.188Z</time>
      </trkpt>
      <trkpt lat="44.19674" lon="0.6023">
        <ele>52</ele>
        <time>2026-02-22T13:11:59.188Z</time>
      </trkpt>
      <trkpt lat="44.19673" lon="0.60229">
        <ele>52</ele>
        <time>2026-02-22T13:12:00.188Z</time>
      </trkpt>
      <trkpt lat="44.19672" lon="0.60228">
        <ele>52</ele>
        <time>2026-02-22T13:12:01.188Z</time>
      </trkpt>
      <trkpt lat="44.19671" lon="0.60227">
        <ele>52</ele>
        <time>2026-02-22T13:12:02.188Z</time>
      </trkpt>
      <trkpt lat="44.1967" lon="0.60227">
        <ele>52</ele>
        <time>2026-02-22T13:12:03.188Z</time>
      </trkpt>
      <trkpt lat="44.19668" lon="0.60226">
        <ele>53</ele>
        <time>2026-02-22T13:12:04.188Z</time>
      </trkpt>
      <trkpt lat="44.19667" lon="0.60225">
        <ele>53</ele>
        <time>2026-02-22T13:12:05.188Z</time>
      </trkpt>
      <trkpt lat="44.19666" lon="0.60224">
        <ele>53</ele>
        <time>2026-02-22T13:12:06.188Z</time>
      </trkpt>
      <trkpt lat="44.19665" lon="0.60223">
        <ele>52</ele>
        <time>2026-02-22T13:12:07.189Z</time>
      </trkpt>
      <trkpt lat="44.19664" lon="0.60222">
        <ele>52</ele>
        <time>2026-02-22T13:12:08.188Z</time>
      </trkpt>
      <trkpt lat="44.19663" lon="0.6022">
        <ele>52</ele>
        <time>2026-02-22T13:12:09.188Z</time>
      </trkpt>
      <trkpt lat="44.19662" lon="0.60219">
        <ele>52</ele>
        <time>2026-02-22T13:12:10.188Z</time>
      </trkpt>
      <trkpt lat="44.19661" lon="0.60218">
        <ele>52</ele>
        <time>2026-02-22T13:12:11.188Z</time>
      </trkpt>
      <trkpt lat="44.1966" lon="0.60218">
        <ele>53</ele>
        <time>2026-02-22T13:12:12.188Z</time>
      </trkpt>
      <trkpt lat="44.19659" lon="0.60217">
        <ele>53</ele>
        <time>2026-02-22T13:12:13.188Z</time>
      </trkpt>
      <trkpt lat="44.19658" lon="0.60216">
        <ele>53</ele>
        <time>2026-02-22T13:12:14.188Z</time>
      </trkpt>
      <trkpt lat="44.19657" lon="0.60215">
        <ele>53</ele>
        <time>2026-02-22T13:12:15.188Z</time>
      </trkpt>
      <trkpt lat="44.19656" lon="0.60214">
        <ele>52</ele>
        <time>2026-02-22T13:12:16.189Z</time>
      </trkpt>
      <trkpt lat="44.19655" lon="0.60213">
        <ele>52</ele>
        <time>2026-02-22T13:12:17.188Z</time>
      </trkpt>
      <trkpt lat="44.19654" lon="0.60212">
        <ele>51</ele>
        <time>2026-02-22T13:12:18.188Z</time>
      </trkpt>
      <trkpt lat="44.19653" lon="0.60212">
        <ele>51</ele>
        <time>2026-02-22T13:12:19.188Z</time>
      </trkpt>
      <trkpt lat="44.19653" lon="0.6021">
        <ele>51</ele>
        <time>2026-02-22T13:12:20.189Z</time>
      </trkpt>
      <trkpt lat="44.19652" lon="0.60208">
        <ele>51</ele>
        <time>2026-02-22T13:12:21.188Z</time>
      </trkpt>
      <trkpt lat="44.19652" lon="0.60207">
        <ele>51</ele>
        <time>2026-02-22T13:12:22.188Z</time>
      </trkpt>
      <trkpt lat="44.19651" lon="0.60206">
        <ele>51</ele>
        <time>2026-02-22T13:12:23.188Z</time>
      </trkpt>
      <trkpt lat="44.1965" lon="0.60205">
        <ele>51</ele>
        <time>2026-02-22T13:12:24.188Z</time>
      </trkpt>
      <trkpt lat="44.19649" lon="0.60205">
        <ele>51</ele>
        <time>2026-02-22T13:12:25.188Z</time>
      </trkpt>
      <trkpt lat="44.19648" lon="0.60203">
        <ele>51</ele>
        <time>2026-02-22T13:12:26.188Z</time>
      </trkpt>
      <trkpt lat="44.19647" lon="0.60202">
        <ele>51</ele>
        <time>2026-02-22T13:12:27.188Z</time>
      </trkpt>
      <trkpt lat="44.19646" lon="0.60201">
        <ele>51</ele>
        <time>2026-02-22T13:12:28.188Z</time>
      </trkpt>
      <trkpt lat="44.19645" lon="0.60199">
        <ele>51</ele>
        <time>2026-02-22T13:12:29.188Z</time>
      </trkpt>
      <trkpt lat="44.19644" lon="0.60198">
        <ele>50</ele>
        <time>2026-02-22T13:12:30.188Z</time>
      </trkpt>
      <trkpt lat="44.19644" lon="0.60197">
        <ele>50</ele>
        <time>2026-02-22T13:12:31.188Z</time>
      </trkpt>
      <trkpt lat="44.19643" lon="0.60196">
        <ele>50</ele>
        <time>2026-02-22T13:12:32.188Z</time>
      </trkpt>
      <trkpt lat="44.19642" lon="0.60195">
        <ele>51</ele>
        <time>2026-02-22T13:12:33.188Z</time>
      </trkpt>
      <trkpt lat="44.19641" lon="0.60194">
        <ele>50</ele>
        <time>2026-02-22T13:12:34.188Z</time>
      </trkpt>
      <trkpt lat="44.1964" lon="0.60193">
        <ele>50</ele>
        <time>2026-02-22T13:12:35.188Z</time>
      </trkpt>
      <trkpt lat="44.19639" lon="0.60192">
        <ele>50</ele>
        <time>2026-02-22T13:12:36.188Z</time>
      </trkpt>
      <trkpt lat="44.19638" lon="0.6019">
        <ele>50</ele>
        <time>2026-02-22T13:12:37.188Z</time>
      </trkpt>
      <trkpt lat="44.19637" lon="0.60189">
        <ele>50</ele>
        <time>2026-02-22T13:12:38.188Z</time>
      </trkpt>
      <trkpt lat="44.19636" lon="0.60188">
        <ele>49</ele>
        <time>2026-02-22T13:12:39.188Z</time>
      </trkpt>
      <trkpt lat="44.19636" lon="0.60187">
        <ele>49</ele>
        <time>2026-02-22T13:12:40.188Z</time>
      </trkpt>
      <trkpt lat="44.19635" lon="0.60186">
        <ele>49</ele>
        <time>2026-02-22T13:12:41.188Z</time>
      </trkpt>
      <trkpt lat="44.19634" lon="0.60184">
        <ele>49</ele>
        <time>2026-02-22T13:12:42.188Z</time>
      </trkpt>
      <trkpt lat="44.19634" lon="0.60183">
        <ele>49</ele>
        <time>2026-02-22T13:12:43.188Z</time>
      </trkpt>
      <trkpt lat="44.19633" lon="0.60182">
        <ele>49</ele>
        <time>2026-02-22T13:12:44.188Z</time>
      </trkpt>
      <trkpt lat="44.19632" lon="0.60181">
        <ele>49</ele>
        <time>2026-02-22T13:12:45.188Z</time>
      </trkpt>
      <trkpt lat="44.19631" lon="0.6018">
        <ele>49</ele>
        <time>2026-02-22T13:12:46.188Z</time>
      </trkpt>
      <trkpt lat="44.1963" lon="0.60179">
        <ele>49</ele>
        <time>2026-02-22T13:12:47.188Z</time>
      </trkpt>
      <trkpt lat="44.19629" lon="0.60178">
        <ele>49</ele>
        <time>2026-02-22T13:12:48.188Z</time>
      </trkpt>
      <trkpt lat="44.19628" lon="0.60177">
        <ele>49</ele>
        <time>2026-02-22T13:12:49.188Z</time>
      </trkpt>
      <trkpt lat="44.19628" lon="0.60175">
        <ele>49</ele>
        <time>2026-02-22T13:12:50.189Z</time>
      </trkpt>
      <trkpt lat="44.19627" lon="0.60173">
        <ele>50</ele>
        <time>2026-02-22T13:12:51.188Z</time>
      </trkpt>
      <trkpt lat="44.19627" lon="0.60172">
        <ele>50</ele>
        <time>2026-02-22T13:12:52.188Z</time>
      </trkpt>
      <trkpt lat="44.19626" lon="0.6017">
        <ele>50</ele>
        <time>2026-02-22T13:12:53.188Z</time>
      </trkpt>
      <trkpt lat="44.19626" lon="0.60169">
        <ele>49</ele>
        <time>2026-02-22T13:12:54.188Z</time>
      </trkpt>
      <trkpt lat="44.19625" lon="0.60168">
        <ele>49</ele>
        <time>2026-02-22T13:12:55.188Z</time>
      </trkpt>
      <trkpt lat="44.19624" lon="0.60166">
        <ele>49</ele>
        <time>2026-02-22T13:12:56.188Z</time>
      </trkpt>
      <trkpt lat="44.19624" lon="0.60165">
        <ele>50</ele>
        <time>2026-02-22T13:12:57.188Z</time>
      </trkpt>
      <trkpt lat="44.19622" lon="0.60163">
        <ele>50</ele>
        <time>2026-02-22T13:12:58.188Z</time>
      </trkpt>
      <trkpt lat="44.19622" lon="0.60162">
        <ele>50</ele>
        <time>2026-02-22T13:12:59.188Z</time>
      </trkpt>
      <trkpt lat="44.19621" lon="0.6016">
        <ele>50</ele>
        <time>2026-02-22T13:13:00.188Z</time>
      </trkpt>
      <trkpt lat="44.1962" lon="0.60158">
        <ele>50</ele>
        <time>2026-02-22T13:13:01.188Z</time>
      </trkpt>
      <trkpt lat="44.1962" lon="0.60157">
        <ele>49</ele>
        <time>2026-02-22T13:13:02.188Z</time>
      </trkpt>
      <trkpt lat="44.1962" lon="0.60156">
        <ele>50</ele>
        <time>2026-02-22T13:13:03.188Z</time>
      </trkpt>
      <trkpt lat="44.19619" lon="0.60156">
        <ele>50</ele>
        <time>2026-02-22T13:13:04.188Z</time>
      </trkpt>
      <trkpt lat="44.19618" lon="0.60156">
        <ele>50</ele>
        <time>2026-02-22T13:13:05.188Z</time>
      </trkpt>
      <trkpt lat="44.19618" lon="0.60156">
        <ele>51</ele>
        <time>2026-02-22T13:13:06.189Z</time>
      </trkpt>
      <trkpt lat="44.19617" lon="0.60156">
        <ele>51</ele>
        <time>2026-02-22T13:13:07.188Z</time>
      </trkpt>
      <trkpt lat="44.19617" lon="0.60156">
        <ele>52</ele>
        <time>2026-02-22T13:13:08.189Z</time>
      </trkpt>
      <trkpt lat="44.19617" lon="0.60156">
        <ele>52</ele>
        <time>2026-02-22T13:13:09.189Z</time>
      </trkpt>
      <trkpt lat="44.19617" lon="0.60156">
        <ele>52</ele>
        <time>2026-02-22T13:13:10.188Z</time>
      </trkpt>
      <trkpt lat="44.19617" lon="0.60156">
        <ele>52</ele>
        <time>2026-02-22T13:13:11.188Z</time>
      </trkpt>
      <trkpt lat="44.19617" lon="0.60156">
        <ele>52</ele>
        <time>2026-02-22T13:13:12.188Z</time>
      </trkpt>
      <trkpt lat="44.19617" lon="0.60156">
        <ele>52</ele>
        <time>2026-02-22T13:13:13.188Z</time>
      </trkpt>
      <trkpt lat="44.19617" lon="0.60156">
        <ele>51</ele>
        <time>2026-02-22T13:13:14.188Z</time>
      </trkpt>
      <trkpt lat="44.19617" lon="0.60156">
        <ele>51</ele>
        <time>2026-02-22T13:13:15.188Z</time>
      </trkpt>
      <trkpt lat="44.19617" lon="0.60156">
        <ele>51</ele>
        <time>2026-02-22T13:13:16.188Z</time>
      </trkpt>
      <trkpt lat="44.19617" lon="0.60156">
        <ele>51</ele>
        <time>2026-02-22T13:13:17.188Z</time>
      </trkpt>
      <trkpt lat="44.19617" lon="0.60156">
        <ele>51</ele>
        <time>2026-02-22T13:13:18.189Z</time>
      </trkpt>
      <trkpt lat="44.19617" lon="0.60156">
        <ele>51</ele>
        <time>2026-02-22T13:13:19.188Z</time>
      </trkpt>
      <trkpt lat="44.19617" lon="0.60156">
        <ele>51</ele>
        <time>2026-02-22T13:13:20.188Z</time>
      </trkpt>
      <trkpt lat="44.19617" lon="0.60156">
        <ele>51</ele>
        <time>2026-02-22T13:13:21.188Z</time>
      </trkpt>
      <trkpt lat="44.19616" lon="0.60156">
        <ele>51</ele>
        <time>2026-02-22T13:13:22.188Z</time>
      </trkpt>
      <trkpt lat="44.19617" lon="0.60155">
        <ele>50</ele>
        <time>2026-02-22T13:13:23.188Z</time>
      </trkpt>
      <trkpt lat="44.19617" lon="0.60154">
        <ele>50</ele>
        <time>2026-02-22T13:13:24.188Z</time>
      </trkpt>
      <trkpt lat="44.19617" lon="0.60154">
        <ele>50</ele>
        <time>2026-02-22T13:13:25.188Z</time>
      </trkpt>
      <trkpt lat="44.19617" lon="0.60153">
        <ele>50</ele>
        <time>2026-02-22T13:13:26.188Z</time>
      </trkpt>
      <trkpt lat="44.19617" lon="0.60152">
        <ele>50</ele>
        <time>2026-02-22T13:13:27.188Z</time>
      </trkpt>
      <trkpt lat="44.19617" lon="0.60151">
        <ele>50</ele>
        <time>2026-02-22T13:13:28.188Z</time>
      </trkpt>
      <trkpt lat="44.19617" lon="0.60149">
        <ele>49</ele>
        <time>2026-02-22T13:13:29.188Z</time>
      </trkpt>
      <trkpt lat="44.19617" lon="0.60147">
        <ele>49</ele>
        <time>2026-02-22T13:13:30.188Z</time>
      </trkpt>
      <trkpt lat="44.19617" lon="0.60145">
        <ele>50</ele>
        <time>2026-02-22T13:13:31.188Z</time>
      </trkpt>
      <trkpt lat="44.19618" lon="0.60143">
        <ele>50</ele>
        <time>2026-02-22T13:13:32.188Z</time>
      </trkpt>
      <trkpt lat="44.19618" lon="0.60141">
        <ele>50</ele>
        <time>2026-02-22T13:13:33.188Z</time>
      </trkpt>
      <trkpt lat="44.19618" lon="0.60139">
        <ele>50</ele>
        <time>2026-02-22T13:13:34.188Z</time>
      </trkpt>
      <trkpt lat="44.19618" lon="0.60137">
        <ele>51</ele>
        <time>2026-02-22T13:13:35.188Z</time>
      </trkpt>
      <trkpt lat="44.19618" lon="0.60135">
        <ele>51</ele>
        <time>2026-02-22T13:13:36.188Z</time>
      </trkpt>
      <trkpt lat="44.19618" lon="0.60134">
        <ele>51</ele>
        <time>2026-02-22T13:13:37.188Z</time>
      </trkpt>
      <trkpt lat="44.19618" lon="0.60132">
        <ele>51</ele>
        <time>2026-02-22T13:13:38.188Z</time>
      </trkpt>
      <trkpt lat="44.19618" lon="0.6013">
        <ele>51</ele>
        <time>2026-02-22T13:13:39.188Z</time>
      </trkpt>
      <trkpt lat="44.19618" lon="0.60128">
        <ele>51</ele>
        <time>2026-02-22T13:13:40.188Z</time>
      </trkpt>
      <trkpt lat="44.19618" lon="0.60126">
        <ele>51</ele>
        <time>2026-02-22T13:13:41.188Z</time>
      </trkpt>
      <trkpt lat="44.19619" lon="0.60124">
        <ele>51</ele>
        <time>2026-02-22T13:13:42.189Z</time>
      </trkpt>
      <trkpt lat="44.19619" lon="0.60122">
        <ele>50</ele>
        <time>2026-02-22T13:13:43.188Z</time>
      </trkpt>
      <trkpt lat="44.1962" lon="0.6012">
        <ele>50</ele>
        <time>2026-02-22T13:13:44.189Z</time>
      </trkpt>
      <trkpt lat="44.19621" lon="0.60118">
        <ele>50</ele>
        <time>2026-02-22T13:13:45.188Z</time>
      </trkpt>
      <trkpt lat="44.19621" lon="0.60116">
        <ele>50</ele>
        <time>2026-02-22T13:13:46.189Z</time>
      </trkpt>
      <trkpt lat="44.19622" lon="0.60114">
        <ele>50</ele>
        <time>2026-02-22T13:13:47.188Z</time>
      </trkpt>
      <trkpt lat="44.19624" lon="0.60112">
        <ele>50</ele>
        <time>2026-02-22T13:13:48.188Z</time>
      </trkpt>
      <trkpt lat="44.19624" lon="0.60111">
        <ele>50</ele>
        <time>2026-02-22T13:13:49.188Z</time>
      </trkpt>
      <trkpt lat="44.19625" lon="0.60109">
        <ele>50</ele>
        <time>2026-02-22T13:13:50.188Z</time>
      </trkpt>
      <trkpt lat="44.19626" lon="0.60107">
        <ele>50</ele>
        <time>2026-02-22T13:13:51.188Z</time>
      </trkpt>
      <trkpt lat="44.19627" lon="0.60105">
        <ele>51</ele>
        <time>2026-02-22T13:13:52.188Z</time>
      </trkpt>
      <trkpt lat="44.19628" lon="0.60103">
        <ele>51</ele>
        <time>2026-02-22T13:13:53.188Z</time>
      </trkpt>
      <trkpt lat="44.19629" lon="0.60102">
        <ele>52</ele>
        <time>2026-02-22T13:13:54.188Z</time>
      </trkpt>
      <trkpt lat="44.1963" lon="0.601">
        <ele>52</ele>
        <time>2026-02-22T13:13:55.188Z</time>
      </trkpt>
      <trkpt lat="44.19631" lon="0.60097">
        <ele>52</ele>
        <time>2026-02-22T13:13:56.188Z</time>
      </trkpt>
      <trkpt lat="44.19632" lon="0.60095">
        <ele>52</ele>
        <time>2026-02-22T13:13:57.188Z</time>
      </trkpt>
      <trkpt lat="44.19633" lon="0.60094">
        <ele>52</ele>
        <time>2026-02-22T13:13:58.188Z</time>
      </trkpt>
      <trkpt lat="44.19634" lon="0.60091">
        <ele>52</ele>
        <time>2026-02-22T13:13:59.188Z</time>
      </trkpt>
      <trkpt lat="44.19635" lon="0.6009">
        <ele>52</ele>
        <time>2026-02-22T13:14:00.188Z</time>
      </trkpt>
      <trkpt lat="44.19637" lon="0.60088">
        <ele>52</ele>
        <time>2026-02-22T13:14:01.188Z</time>
      </trkpt>
      <trkpt lat="44.19638" lon="0.60087">
        <ele>52</ele>
        <time>2026-02-22T13:14:02.188Z</time>
      </trkpt>
      <trkpt lat="44.19639" lon="0.60086">
        <ele>52</ele>
        <time>2026-02-22T13:14:03.188Z</time>
      </trkpt>
      <trkpt lat="44.1964" lon="0.60084">
        <ele>51</ele>
        <time>2026-02-22T13:14:04.188Z</time>
      </trkpt>
      <trkpt lat="44.19641" lon="0.60083">
        <ele>51</ele>
        <time>2026-02-22T13:14:05.188Z</time>
      </trkpt>
      <trkpt lat="44.19642" lon="0.60081">
        <ele>51</ele>
        <time>2026-02-22T13:14:06.188Z</time>
      </trkpt>
      <trkpt lat="44.19643" lon="0.60079">
        <ele>51</ele>
        <time>2026-02-22T13:14:07.188Z</time>
      </trkpt>
      <trkpt lat="44.19644" lon="0.60077">
        <ele>52</ele>
        <time>2026-02-22T13:14:08.188Z</time>
      </trkpt>
      <trkpt lat="44.19645" lon="0.60075">
        <ele>52</ele>
        <time>2026-02-22T13:14:09.188Z</time>
      </trkpt>
      <trkpt lat="44.19646" lon="0.60073">
        <ele>52</ele>
        <time>2026-02-22T13:14:10.188Z</time>
      </trkpt>
      <trkpt lat="44.19647" lon="0.60072">
        <ele>52</ele>
        <time>2026-02-22T13:14:11.188Z</time>
      </trkpt>
      <trkpt lat="44.19647" lon="0.6007">
        <ele>52</ele>
        <time>2026-02-22T13:14:12.188Z</time>
      </trkpt>
      <trkpt lat="44.19648" lon="0.60068">
        <ele>52</ele>
        <time>2026-02-22T13:14:13.188Z</time>
      </trkpt>
      <trkpt lat="44.19649" lon="0.60067">
        <ele>52</ele>
        <time>2026-02-22T13:14:14.189Z</time>
      </trkpt>
      <trkpt lat="44.1965" lon="0.60066">
        <ele>52</ele>
        <time>2026-02-22T13:14:15.188Z</time>
      </trkpt>
      <trkpt lat="44.19651" lon="0.60065">
        <ele>52</ele>
        <time>2026-02-22T13:14:16.188Z</time>
      </trkpt>
      <trkpt lat="44.19652" lon="0.60063">
        <ele>52</ele>
        <time>2026-02-22T13:14:17.188Z</time>
      </trkpt>
      <trkpt lat="44.19652" lon="0.60062">
        <ele>52</ele>
        <time>2026-02-22T13:14:18.188Z</time>
      </trkpt>
      <trkpt lat="44.19653" lon="0.60061">
        <ele>52</ele>
        <time>2026-02-22T13:14:19.188Z</time>
      </trkpt>
      <trkpt lat="44.19654" lon="0.60059">
        <ele>52</ele>
        <time>2026-02-22T13:14:20.189Z</time>
      </trkpt>
      <trkpt lat="44.19655" lon="0.60057">
        <ele>53</ele>
        <time>2026-02-22T13:14:21.188Z</time>
      </trkpt>
      <trkpt lat="44.19656" lon="0.60055">
        <ele>53</ele>
        <time>2026-02-22T13:14:22.188Z</time>
      </trkpt>
      <trkpt lat="44.19656" lon="0.60053">
        <ele>54</ele>
        <time>2026-02-22T13:14:23.188Z</time>
      </trkpt>
      <trkpt lat="44.19657" lon="0.60051">
        <ele>54</ele>
        <time>2026-02-22T13:14:24.188Z</time>
      </trkpt>
      <trkpt lat="44.19658" lon="0.60049">
        <ele>54</ele>
        <time>2026-02-22T13:14:25.188Z</time>
      </trkpt>
      <trkpt lat="44.19659" lon="0.60048">
        <ele>54</ele>
        <time>2026-02-22T13:14:26.188Z</time>
      </trkpt>
      <trkpt lat="44.1966" lon="0.60047">
        <ele>54</ele>
        <time>2026-02-22T13:14:27.188Z</time>
      </trkpt>
      <trkpt lat="44.19661" lon="0.60046">
        <ele>54</ele>
        <time>2026-02-22T13:14:28.188Z</time>
      </trkpt>
      <trkpt lat="44.19662" lon="0.60045">
        <ele>53</ele>
        <time>2026-02-22T13:14:29.189Z</time>
      </trkpt>
      <trkpt lat="44.19663" lon="0.60043">
        <ele>53</ele>
        <time>2026-02-22T13:14:30.188Z</time>
      </trkpt>
      <trkpt lat="44.19664" lon="0.60042">
        <ele>53</ele>
        <time>2026-02-22T13:14:31.188Z</time>
      </trkpt>
      <trkpt lat="44.19665" lon="0.60041">
        <ele>52</ele>
        <time>2026-02-22T13:14:32.188Z</time>
      </trkpt>
      <trkpt lat="44.19665" lon="0.6004">
        <ele>52</ele>
        <time>2026-02-22T13:14:33.188Z</time>
      </trkpt>
      <trkpt lat="44.19666" lon="0.60039">
        <ele>52</ele>
        <time>2026-02-22T13:14:34.188Z</time>
      </trkpt>
      <trkpt lat="44.19667" lon="0.60037">
        <ele>52</ele>
        <time>2026-02-22T13:14:35.188Z</time>
      </trkpt>
      <trkpt lat="44.19668" lon="0.60035">
        <ele>52</ele>
        <time>2026-02-22T13:14:36.188Z</time>
      </trkpt>
      <trkpt lat="44.19669" lon="0.60034">
        <ele>52</ele>
        <time>2026-02-22T13:14:37.188Z</time>
      </trkpt>
      <trkpt lat="44.1967" lon="0.60033">
        <ele>52</ele>
        <time>2026-02-22T13:14:38.188Z</time>
      </trkpt>
      <trkpt lat="44.19671" lon="0.60031">
        <ele>52</ele>
        <time>2026-02-22T13:14:39.188Z</time>
      </trkpt>
      <trkpt lat="44.19672" lon="0.6003">
        <ele>51</ele>
        <time>2026-02-22T13:14:40.188Z</time>
      </trkpt>
      <trkpt lat="44.19673" lon="0.60028">
        <ele>52</ele>
        <time>2026-02-22T13:14:41.188Z</time>
      </trkpt>
      <trkpt lat="44.19673" lon="0.60027">
        <ele>52</ele>
        <time>2026-02-22T13:14:42.189Z</time>
      </trkpt>
      <trkpt lat="44.19674" lon="0.60026">
        <ele>52</ele>
        <time>2026-02-22T13:14:43.188Z</time>
      </trkpt>
      <trkpt lat="44.19675" lon="0.60025">
        <ele>52</ele>
        <time>2026-02-22T13:14:44.188Z</time>
      </trkpt>
      <trkpt lat="44.19675" lon="0.60023">
        <ele>52</ele>
        <time>2026-02-22T13:14:45.188Z</time>
      </trkpt>
      <trkpt lat="44.19676" lon="0.60022">
        <ele>52</ele>
        <time>2026-02-22T13:14:46.188Z</time>
      </trkpt>
      <trkpt lat="44.19677" lon="0.60021">
        <ele>51</ele>
        <time>2026-02-22T13:14:47.188Z</time>
      </trkpt>
      <trkpt lat="44.19678" lon="0.6002">
        <ele>51</ele>
        <time>2026-02-22T13:14:48.188Z</time>
      </trkpt>
      <trkpt lat="44.19679" lon="0.60019">
        <ele>51</ele>
        <time>2026-02-22T13:14:49.188Z</time>
      </trkpt>
      <trkpt lat="44.19679" lon="0.60018">
        <ele>51</ele>
        <time>2026-02-22T13:14:50.188Z</time>
      </trkpt>
      <trkpt lat="44.1968" lon="0.60016">
        <ele>51</ele>
        <time>2026-02-22T13:14:51.188Z</time>
      </trkpt>
      <trkpt lat="44.19681" lon="0.60014">
        <ele>51</ele>
        <time>2026-02-22T13:14:52.188Z</time>
      </trkpt>
      <trkpt lat="44.19682" lon="0.60012">
        <ele>51</ele>
        <time>2026-02-22T13:14:53.188Z</time>
      </trkpt>
      <trkpt lat="44.19683" lon="0.6001">
        <ele>51</ele>
        <time>2026-02-22T13:14:54.188Z</time>
      </trkpt>
      <trkpt lat="44.19684" lon="0.60009">
        <ele>51</ele>
        <time>2026-02-22T13:14:55.188Z</time>
      </trkpt>
      <trkpt lat="44.19685" lon="0.60007">
        <ele>51</ele>
        <time>2026-02-22T13:14:56.189Z</time>
      </trkpt>
      <trkpt lat="44.19686" lon="0.60006">
        <ele>51</ele>
        <time>2026-02-22T13:14:57.188Z</time>
      </trkpt>
      <trkpt lat="44.19687" lon="0.60004">
        <ele>51</ele>
        <time>2026-02-22T13:14:58.188Z</time>
      </trkpt>
      <trkpt lat="44.19687" lon="0.60002">
        <ele>51</ele>
        <time>2026-02-22T13:14:59.188Z</time>
      </trkpt>
      <trkpt lat="44.19688" lon="0.6">
        <ele>51</ele>
        <time>2026-02-22T13:15:00.188Z</time>
      </trkpt>
      <trkpt lat="44.19689" lon="0.59999">
        <ele>51</ele>
        <time>2026-02-22T13:15:01.188Z</time>
      </trkpt>
      <trkpt lat="44.1969" lon="0.59997">
        <ele>51</ele>
        <time>2026-02-22T13:15:02.188Z</time>
      </trkpt>
      <trkpt lat="44.19691" lon="0.59996">
        <ele>52</ele>
        <time>2026-02-22T13:15:03.188Z</time>
      </trkpt>
      <trkpt lat="44.19692" lon="0.59994">
        <ele>52</ele>
        <time>2026-02-22T13:15:04.188Z</time>
      </trkpt>
      <trkpt lat="44.19693" lon="0.59993">
        <ele>52</ele>
        <time>2026-02-22T13:15:05.188Z</time>
      </trkpt>
      <trkpt lat="44.19693" lon="0.59991">
        <ele>52</ele>
        <time>2026-02-22T13:15:06.188Z</time>
      </trkpt>
      <trkpt lat="44.19694" lon="0.59989">
        <ele>52</ele>
        <time>2026-02-22T13:15:07.188Z</time>
      </trkpt>
      <trkpt lat="44.19695" lon="0.59987">
        <ele>52</ele>
        <time>2026-02-22T13:15:08.188Z</time>
      </trkpt>
      <trkpt lat="44.19696" lon="0.59986">
        <ele>53</ele>
        <time>2026-02-22T13:15:09.188Z</time>
      </trkpt>
      <trkpt lat="44.19696" lon="0.59985">
        <ele>53</ele>
        <time>2026-02-22T13:15:10.188Z</time>
      </trkpt>
      <trkpt lat="44.19697" lon="0.59983">
        <ele>53</ele>
        <time>2026-02-22T13:15:11.188Z</time>
      </trkpt>
      <trkpt lat="44.19698" lon="0.59982">
        <ele>53</ele>
        <time>2026-02-22T13:15:12.189Z</time>
      </trkpt>
      <trkpt lat="44.19699" lon="0.5998">
        <ele>53</ele>
        <time>2026-02-22T13:15:13.188Z</time>
      </trkpt>
      <trkpt lat="44.19701" lon="0.59979">
        <ele>53</ele>
        <time>2026-02-22T13:15:14.188Z</time>
      </trkpt>
      <trkpt lat="44.19702" lon="0.59978">
        <ele>52</ele>
        <time>2026-02-22T13:15:15.188Z</time>
      </trkpt>
      <trkpt lat="44.19702" lon="0.59976">
        <ele>52</ele>
        <time>2026-02-22T13:15:16.188Z</time>
      </trkpt>
      <trkpt lat="44.19703" lon="0.59974">
        <ele>52</ele>
        <time>2026-02-22T13:15:17.188Z</time>
      </trkpt>
      <trkpt lat="44.19703" lon="0.59973">
        <ele>52</ele>
        <time>2026-02-22T13:15:18.188Z</time>
      </trkpt>
      <trkpt lat="44.19704" lon="0.59971">
        <ele>51</ele>
        <time>2026-02-22T13:15:19.188Z</time>
      </trkpt>
      <trkpt lat="44.19705" lon="0.5997">
        <ele>51</ele>
        <time>2026-02-22T13:15:20.188Z</time>
      </trkpt>
      <trkpt lat="44.19706" lon="0.59969">
        <ele>51</ele>
        <time>2026-02-22T13:15:21.188Z</time>
      </trkpt>
      <trkpt lat="44.19706" lon="0.59967">
        <ele>51</ele>
        <time>2026-02-22T13:15:22.188Z</time>
      </trkpt>
      <trkpt lat="44.19707" lon="0.59966">
        <ele>51</ele>
        <time>2026-02-22T13:15:23.188Z</time>
      </trkpt>
      <trkpt lat="44.19708" lon="0.59965">
        <ele>51</ele>
        <time>2026-02-22T13:15:24.188Z</time>
      </trkpt>
      <trkpt lat="44.19709" lon="0.59964">
        <ele>51</ele>
        <time>2026-02-22T13:15:25.188Z</time>
      </trkpt>
      <trkpt lat="44.1971" lon="0.59962">
        <ele>52</ele>
        <time>2026-02-22T13:15:26.188Z</time>
      </trkpt>
      <trkpt lat="44.1971" lon="0.5996">
        <ele>52</ele>
        <time>2026-02-22T13:15:27.188Z</time>
      </trkpt>
      <trkpt lat="44.19711" lon="0.59959">
        <ele>52</ele>
        <time>2026-02-22T13:15:28.188Z</time>
      </trkpt>
      <trkpt lat="44.19712" lon="0.59957">
        <ele>53</ele>
        <time>2026-02-22T13:15:29.188Z</time>
      </trkpt>
      <trkpt lat="44.19713" lon="0.59956">
        <ele>53</ele>
        <time>2026-02-22T13:15:30.188Z</time>
      </trkpt>
      <trkpt lat="44.19714" lon="0.59955">
        <ele>53</ele>
        <time>2026-02-22T13:15:31.188Z</time>
      </trkpt>
      <trkpt lat="44.19714" lon="0.59954">
        <ele>54</ele>
        <time>2026-02-22T13:15:32.189Z</time>
      </trkpt>
      <trkpt lat="44.19715" lon="0.59953">
        <ele>54</ele>
        <time>2026-02-22T13:15:33.188Z</time>
      </trkpt>
      <trkpt lat="44.19715" lon="0.59952">
        <ele>54</ele>
        <time>2026-02-22T13:15:34.188Z</time>
      </trkpt>
      <trkpt lat="44.19716" lon="0.59951">
        <ele>54</ele>
        <time>2026-02-22T13:15:35.188Z</time>
      </trkpt>
      <trkpt lat="44.19717" lon="0.5995">
        <ele>53</ele>
        <time>2026-02-22T13:15:36.188Z</time>
      </trkpt>
      <trkpt lat="44.19718" lon="0.59948">
        <ele>53</ele>
        <time>2026-02-22T13:15:37.188Z</time>
      </trkpt>
      <trkpt lat="44.19719" lon="0.59946">
        <ele>53</ele>
        <time>2026-02-22T13:15:38.188Z</time>
      </trkpt>
      <trkpt lat="44.1972" lon="0.59945">
        <ele>54</ele>
        <time>2026-02-22T13:15:39.188Z</time>
      </trkpt>
      <trkpt lat="44.19721" lon="0.59943">
        <ele>54</ele>
        <time>2026-02-22T13:15:40.188Z</time>
      </trkpt>
      <trkpt lat="44.19721" lon="0.59942">
        <ele>54</ele>
        <time>2026-02-22T13:15:41.189Z</time>
      </trkpt>
      <trkpt lat="44.19722" lon="0.59941">
        <ele>54</ele>
        <time>2026-02-22T13:15:42.188Z</time>
      </trkpt>
      <trkpt lat="44.19722" lon="0.59939">
        <ele>54</ele>
        <time>2026-02-22T13:15:43.188Z</time>
      </trkpt>
      <trkpt lat="44.19723" lon="0.59937">
        <ele>55</ele>
        <time>2026-02-22T13:15:44.188Z</time>
      </trkpt>
      <trkpt lat="44.19723" lon="0.59936">
        <ele>55</ele>
        <time>2026-02-22T13:15:45.188Z</time>
      </trkpt>
      <trkpt lat="44.19724" lon="0.59934">
        <ele>55</ele>
        <time>2026-02-22T13:15:46.188Z</time>
      </trkpt>
      <trkpt lat="44.19724" lon="0.59932">
        <ele>54</ele>
        <time>2026-02-22T13:15:47.188Z</time>
      </trkpt>
      <trkpt lat="44.19725" lon="0.5993">
        <ele>54</ele>
        <time>2026-02-22T13:15:48.188Z</time>
      </trkpt>
      <trkpt lat="44.19726" lon="0.59929">
        <ele>54</ele>
        <time>2026-02-22T13:15:49.188Z</time>
      </trkpt>
      <trkpt lat="44.19727" lon="0.59927">
        <ele>55</ele>
        <time>2026-02-22T13:15:50.188Z</time>
      </trkpt>
      <trkpt lat="44.19728" lon="0.59925">
        <ele>55</ele>
        <time>2026-02-22T13:15:51.188Z</time>
      </trkpt>
      <trkpt lat="44.19729" lon="0.59924">
        <ele>55</ele>
        <time>2026-02-22T13:15:52.188Z</time>
      </trkpt>
      <trkpt lat="44.19731" lon="0.59923">
        <ele>55</ele>
        <time>2026-02-22T13:15:53.188Z</time>
      </trkpt>
      <trkpt lat="44.19731" lon="0.59923">
        <ele>55</ele>
        <time>2026-02-22T13:15:54.188Z</time>
      </trkpt>
      <trkpt lat="44.19732" lon="0.59922">
        <ele>54</ele>
        <time>2026-02-22T13:15:55.188Z</time>
      </trkpt>
      <trkpt lat="44.19733" lon="0.59921">
        <ele>54</ele>
        <time>2026-02-22T13:15:56.188Z</time>
      </trkpt>
      <trkpt lat="44.19733" lon="0.5992">
        <ele>54</ele>
        <time>2026-02-22T13:15:57.188Z</time>
      </trkpt>
      <trkpt lat="44.19734" lon="0.59919">
        <ele>54</ele>
        <time>2026-02-22T13:15:58.188Z</time>
      </trkpt>
      <trkpt lat="44.19735" lon="0.59918">
        <ele>53</ele>
        <time>2026-02-22T13:15:59.188Z</time>
      </trkpt>
      <trkpt lat="44.19736" lon="0.59916">
        <ele>53</ele>
        <time>2026-02-22T13:16:00.188Z</time>
      </trkpt>
      <trkpt lat="44.19737" lon="0.59915">
        <ele>53</ele>
        <time>2026-02-22T13:16:01.188Z</time>
      </trkpt>
      <trkpt lat="44.19738" lon="0.59913">
        <ele>53</ele>
        <time>2026-02-22T13:16:02.188Z</time>
      </trkpt>
      <trkpt lat="44.19739" lon="0.59912">
        <ele>53</ele>
        <time>2026-02-22T13:16:03.188Z</time>
      </trkpt>
      <trkpt lat="44.19739" lon="0.59911">
        <ele>53</ele>
        <time>2026-02-22T13:16:04.188Z</time>
      </trkpt>
      <trkpt lat="44.1974" lon="0.5991">
        <ele>53</ele>
        <time>2026-02-22T13:16:05.188Z</time>
      </trkpt>
      <trkpt lat="44.19741" lon="0.59909">
        <ele>53</ele>
        <time>2026-02-22T13:16:06.188Z</time>
      </trkpt>
      <trkpt lat="44.19741" lon="0.59908">
        <ele>53</ele>
        <time>2026-02-22T13:16:07.188Z</time>
      </trkpt>
      <trkpt lat="44.19742" lon="0.59907">
        <ele>53</ele>
        <time>2026-02-22T13:16:08.189Z</time>
      </trkpt>
      <trkpt lat="44.19743" lon="0.59905">
        <ele>53</ele>
        <time>2026-02-22T13:16:09.188Z</time>
      </trkpt>
      <trkpt lat="44.19744" lon="0.59904">
        <ele>53</ele>
        <time>2026-02-22T13:16:10.189Z</time>
      </trkpt>
      <trkpt lat="44.19745" lon="0.59903">
        <ele>52</ele>
        <time>2026-02-22T13:16:11.188Z</time>
      </trkpt>
      <trkpt lat="44.19746" lon="0.59901">
        <ele>52</ele>
        <time>2026-02-22T13:16:12.188Z</time>
      </trkpt>
      <trkpt lat="44.19746" lon="0.59899">
        <ele>52</ele>
        <time>2026-02-22T13:16:13.188Z</time>
      </trkpt>
      <trkpt lat="44.19747" lon="0.59898">
        <ele>52</ele>
        <time>2026-02-22T13:16:14.188Z</time>
      </trkpt>
      <trkpt lat="44.19748" lon="0.59896">
        <ele>53</ele>
        <time>2026-02-22T13:16:15.188Z</time>
      </trkpt>
      <trkpt lat="44.19748" lon="0.59895">
        <ele>53</ele>
        <time>2026-02-22T13:16:16.188Z</time>
      </trkpt>
      <trkpt lat="44.19749" lon="0.59894">
        <ele>53</ele>
        <time>2026-02-22T13:16:17.188Z</time>
      </trkpt>
      <trkpt lat="44.1975" lon="0.59893">
        <ele>53</ele>
        <time>2026-02-22T13:16:18.188Z</time>
      </trkpt>
      <trkpt lat="44.1975" lon="0.59892">
        <ele>53</ele>
        <time>2026-02-22T13:16:19.188Z</time>
      </trkpt>
      <trkpt lat="44.19751" lon="0.5989">
        <ele>53</ele>
        <time>2026-02-22T13:16:20.188Z</time>
      </trkpt>
      <trkpt lat="44.19752" lon="0.59889">
        <ele>53</ele>
        <time>2026-02-22T13:16:21.188Z</time>
      </trkpt>
      <trkpt lat="44.19753" lon="0.59887">
        <ele>53</ele>
        <time>2026-02-22T13:16:22.188Z</time>
      </trkpt>
      <trkpt lat="44.19753" lon="0.59886">
        <ele>54</ele>
        <time>2026-02-22T13:16:23.189Z</time>
      </trkpt>
      <trkpt lat="44.19754" lon="0.59885">
        <ele>54</ele>
        <time>2026-02-22T13:16:24.188Z</time>
      </trkpt>
      <trkpt lat="44.19755" lon="0.59884">
        <ele>54</ele>
        <time>2026-02-22T13:16:25.188Z</time>
      </trkpt>
      <trkpt lat="44.19755" lon="0.59882">
        <ele>55</ele>
        <time>2026-02-22T13:16:26.188Z</time>
      </trkpt>
      <trkpt lat="44.19756" lon="0.59881">
        <ele>55</ele>
        <time>2026-02-22T13:16:27.188Z</time>
      </trkpt>
      <trkpt lat="44.19757" lon="0.59879">
        <ele>55</ele>
        <time>2026-02-22T13:16:28.188Z</time>
      </trkpt>
      <trkpt lat="44.19758" lon="0.59878">
        <ele>56</ele>
        <time>2026-02-22T13:16:29.188Z</time>
      </trkpt>
      <trkpt lat="44.19758" lon="0.59876">
        <ele>56</ele>
        <time>2026-02-22T13:16:30.188Z</time>
      </trkpt>
      <trkpt lat="44.19759" lon="0.59875">
        <ele>56</ele>
        <time>2026-02-22T13:16:31.188Z</time>
      </trkpt>
      <trkpt lat="44.1976" lon="0.59874">
        <ele>55</ele>
        <time>2026-02-22T13:16:32.188Z</time>
      </trkpt>
      <trkpt lat="44.1976" lon="0.59872">
        <ele>55</ele>
        <time>2026-02-22T13:16:33.188Z</time>
      </trkpt>
      <trkpt lat="44.19761" lon="0.59871">
        <ele>55</ele>
        <time>2026-02-22T13:16:34.188Z</time>
      </trkpt>
      <trkpt lat="44.19762" lon="0.5987">
        <ele>55</ele>
        <time>2026-02-22T13:16:35.188Z</time>
      </trkpt>
      <trkpt lat="44.19762" lon="0.59868">
        <ele>55</ele>
        <time>2026-02-22T13:16:36.189Z</time>
      </trkpt>
      <trkpt lat="44.19763" lon="0.59867">
        <ele>55</ele>
        <time>2026-02-22T13:16:37.188Z</time>
      </trkpt>
      <trkpt lat="44.19764" lon="0.59866">
        <ele>55</ele>
        <time>2026-02-22T13:16:38.188Z</time>
      </trkpt>
      <trkpt lat="44.19764" lon="0.59864">
        <ele>55</ele>
        <time>2026-02-22T13:16:39.188Z</time>
      </trkpt>
      <trkpt lat="44.19765" lon="0.59863">
        <ele>55</ele>
        <time>2026-02-22T13:16:40.188Z</time>
      </trkpt>
      <trkpt lat="44.19766" lon="0.59862">
        <ele>55</ele>
        <time>2026-02-22T13:16:41.188Z</time>
      </trkpt>
      <trkpt lat="44.19766" lon="0.59861">
        <ele>55</ele>
        <time>2026-02-22T13:16:42.188Z</time>
      </trkpt>
      <trkpt lat="44.19767" lon="0.5986">
        <ele>55</ele>
        <time>2026-02-22T13:16:43.188Z</time>
      </trkpt>
      <trkpt lat="44.19768" lon="0.59859">
        <ele>55</ele>
        <time>2026-02-22T13:16:44.188Z</time>
      </trkpt>
      <trkpt lat="44.19769" lon="0.59858">
        <ele>55</ele>
        <time>2026-02-22T13:16:45.188Z</time>
      </trkpt>
      <trkpt lat="44.19769" lon="0.59857">
        <ele>55</ele>
        <time>2026-02-22T13:16:46.189Z</time>
      </trkpt>
      <trkpt lat="44.1977" lon="0.59856">
        <ele>55</ele>
        <time>2026-02-22T13:16:47.189Z</time>
      </trkpt>
      <trkpt lat="44.1977" lon="0.59854">
        <ele>55</ele>
        <time>2026-02-22T13:16:48.188Z</time>
      </trkpt>
      <trkpt lat="44.1977" lon="0.59853">
        <ele>55</ele>
        <time>2026-02-22T13:16:49.188Z</time>
      </trkpt>
      <trkpt lat="44.1977" lon="0.59851">
        <ele>55</ele>
        <time>2026-02-22T13:16:50.188Z</time>
      </trkpt>
      <trkpt lat="44.19771" lon="0.5985">
        <ele>55</ele>
        <time>2026-02-22T13:16:51.188Z</time>
      </trkpt>
      <trkpt lat="44.19771" lon="0.59849">
        <ele>55</ele>
        <time>2026-02-22T13:16:52.188Z</time>
      </trkpt>
      <trkpt lat="44.19772" lon="0.59848">
        <ele>55</ele>
        <time>2026-02-22T13:16:53.188Z</time>
      </trkpt>
      <trkpt lat="44.19772" lon="0.59846">
        <ele>55</ele>
        <time>2026-02-22T13:16:54.188Z</time>
      </trkpt>
      <trkpt lat="44.19772" lon="0.59845">
        <ele>55</ele>
        <time>2026-02-22T13:16:55.188Z</time>
      </trkpt>
      <trkpt lat="44.19773" lon="0.59843">
        <ele>55</ele>
        <time>2026-02-22T13:16:56.188Z</time>
      </trkpt>
      <trkpt lat="44.19774" lon="0.59841">
        <ele>55</ele>
        <time>2026-02-22T13:16:57.188Z</time>
      </trkpt>
      <trkpt lat="44.19774" lon="0.5984">
        <ele>54</ele>
        <time>2026-02-22T13:16:58.188Z</time>
      </trkpt>
      <trkpt lat="44.19775" lon="0.59839">
        <ele>54</ele>
        <time>2026-02-22T13:16:59.188Z</time>
      </trkpt>
      <trkpt lat="44.19775" lon="0.59837">
        <ele>54</ele>
        <time>2026-02-22T13:17:00.188Z</time>
      </trkpt>
      <trkpt lat="44.19776" lon="0.59835">
        <ele>54</ele>
        <time>2026-02-22T13:17:01.188Z</time>
      </trkpt>
      <trkpt lat="44.19776" lon="0.59834">
        <ele>54</ele>
        <time>2026-02-22T13:17:02.188Z</time>
      </trkpt>
      <trkpt lat="44.19777" lon="0.59832">
        <ele>54</ele>
        <time>2026-02-22T13:17:03.188Z</time>
      </trkpt>
      <trkpt lat="44.19777" lon="0.59831">
        <ele>53</ele>
        <time>2026-02-22T13:17:04.188Z</time>
      </trkpt>
      <trkpt lat="44.19778" lon="0.59828">
        <ele>53</ele>
        <time>2026-02-22T13:17:05.188Z</time>
      </trkpt>
      <trkpt lat="44.19778" lon="0.59826">
        <ele>53</ele>
        <time>2026-02-22T13:17:06.189Z</time>
      </trkpt>
      <trkpt lat="44.19778" lon="0.59825">
        <ele>53</ele>
        <time>2026-02-22T13:17:07.188Z</time>
      </trkpt>
      <trkpt lat="44.19779" lon="0.59823">
        <ele>53</ele>
        <time>2026-02-22T13:17:08.188Z</time>
      </trkpt>
      <trkpt lat="44.19779" lon="0.59822">
        <ele>53</ele>
        <time>2026-02-22T13:17:09.188Z</time>
      </trkpt>
      <trkpt lat="44.19779" lon="0.5982">
        <ele>53</ele>
        <time>2026-02-22T13:17:10.188Z</time>
      </trkpt>
      <trkpt lat="44.1978" lon="0.59818">
        <ele>53</ele>
        <time>2026-02-22T13:17:11.188Z</time>
      </trkpt>
      <trkpt lat="44.1978" lon="0.59816">
        <ele>53</ele>
        <time>2026-02-22T13:17:12.188Z</time>
      </trkpt>
      <trkpt lat="44.19781" lon="0.59815">
        <ele>53</ele>
        <time>2026-02-22T13:17:13.188Z</time>
      </trkpt>
      <trkpt lat="44.19782" lon="0.59812">
        <ele>53</ele>
        <time>2026-02-22T13:17:14.188Z</time>
      </trkpt>
      <trkpt lat="44.19783" lon="0.59811">
        <ele>53</ele>
        <time>2026-02-22T13:17:15.188Z</time>
      </trkpt>
      <trkpt lat="44.19784" lon="0.59809">
        <ele>53</ele>
        <time>2026-02-22T13:17:16.188Z</time>
      </trkpt>
      <trkpt lat="44.19785" lon="0.59808">
        <ele>53</ele>
        <time>2026-02-22T13:17:17.188Z</time>
      </trkpt>
      <trkpt lat="44.19786" lon="0.59807">
        <ele>53</ele>
        <time>2026-02-22T13:17:18.188Z</time>
      </trkpt>
      <trkpt lat="44.19787" lon="0.59806">
        <ele>53</ele>
        <time>2026-02-22T13:17:19.188Z</time>
      </trkpt>
      <trkpt lat="44.19787" lon="0.59805">
        <ele>53</ele>
        <time>2026-02-22T13:17:20.188Z</time>
      </trkpt>
      <trkpt lat="44.19789" lon="0.59804">
        <ele>54</ele>
        <time>2026-02-22T13:17:21.188Z</time>
      </trkpt>
      <trkpt lat="44.1979" lon="0.59803">
        <ele>54</ele>
        <time>2026-02-22T13:17:22.188Z</time>
      </trkpt>
      <trkpt lat="44.19791" lon="0.59803">
        <ele>54</ele>
        <time>2026-02-22T13:17:23.188Z</time>
      </trkpt>
      <trkpt lat="44.19793" lon="0.59802">
        <ele>54</ele>
        <time>2026-02-22T13:17:24.189Z</time>
      </trkpt>
      <trkpt lat="44.19794" lon="0.59802">
        <ele>54</ele>
        <time>2026-02-22T13:17:25.189Z</time>
      </trkpt>
      <trkpt lat="44.19796" lon="0.59802">
        <ele>54</ele>
        <time>2026-02-22T13:17:26.188Z</time>
      </trkpt>
      <trkpt lat="44.19798" lon="0.59802">
        <ele>54</ele>
        <time>2026-02-22T13:17:27.188Z</time>
      </trkpt>
      <trkpt lat="44.19799" lon="0.59802">
        <ele>54</ele>
        <time>2026-02-22T13:17:28.188Z</time>
      </trkpt>
      <trkpt lat="44.198" lon="0.59802">
        <ele>54</ele>
        <time>2026-02-22T13:17:29.188Z</time>
      </trkpt>
      <trkpt lat="44.19801" lon="0.59803">
        <ele>53</ele>
        <time>2026-02-22T13:17:30.188Z</time>
      </trkpt>
      <trkpt lat="44.19801" lon="0.59803">
        <ele>53</ele>
        <time>2026-02-22T13:17:31.188Z</time>
      </trkpt>
      <trkpt lat="44.19801" lon="0.59803">
        <ele>52</ele>
        <time>2026-02-22T13:17:32.188Z</time>
      </trkpt>
      <trkpt lat="44.19801" lon="0.59802">
        <ele>52</ele>
        <time>2026-02-22T13:17:33.188Z</time>
      </trkpt>
      <trkpt lat="44.19801" lon="0.59802">
        <ele>51</ele>
        <time>2026-02-22T13:17:34.188Z</time>
      </trkpt>
      <trkpt lat="44.19801" lon="0.59802">
        <ele>51</ele>
        <time>2026-02-22T13:17:35.188Z</time>
      </trkpt>
      <trkpt lat="44.19801" lon="0.59802">
        <ele>51</ele>
        <time>2026-02-22T13:17:36.188Z</time>
      </trkpt>
      <trkpt lat="44.19801" lon="0.59802">
        <ele>50</ele>
        <time>2026-02-22T13:17:37.188Z</time>
      </trkpt>
      <trkpt lat="44.19801" lon="0.59802">
        <ele>50</ele>
        <time>2026-02-22T13:17:38.189Z</time>
      </trkpt>
      <trkpt lat="44.19801" lon="0.59802">
        <ele>50</ele>
        <time>2026-02-22T13:17:39.188Z</time>
      </trkpt>
      <trkpt lat="44.19801" lon="0.59802">
        <ele>50</ele>
        <time>2026-02-22T13:17:40.188Z</time>
      </trkpt>
      <trkpt lat="44.19801" lon="0.59802">
        <ele>50</ele>
        <time>2026-02-22T13:17:41.188Z</time>
      </trkpt>
      <trkpt lat="44.19801" lon="0.59802">
        <ele>50</ele>
        <time>2026-02-22T13:17:42.188Z</time>
      </trkpt>
      <trkpt lat="44.19802" lon="0.59802">
        <ele>50</ele>
        <time>2026-02-22T13:17:43.188Z</time>
      </trkpt>
      <trkpt lat="44.19802" lon="0.59802">
        <ele>50</ele>
        <time>2026-02-22T13:17:44.188Z</time>
      </trkpt>
      <trkpt lat="44.19802" lon="0.59802">
        <ele>50</ele>
        <time>2026-02-22T13:17:45.188Z</time>
      </trkpt>
      <trkpt lat="44.19802" lon="0.59802">
        <ele>50</ele>
        <time>2026-02-22T13:17:46.188Z</time>
      </trkpt>
      <trkpt lat="44.19802" lon="0.59802">
        <ele>49</ele>
        <time>2026-02-22T13:17:47.188Z</time>
      </trkpt>
      <trkpt lat="44.19802" lon="0.59802">
        <ele>49</ele>
        <time>2026-02-22T13:17:48.188Z</time>
      </trkpt>
      <trkpt lat="44.19802" lon="0.59802">
        <ele>49</ele>
        <time>2026-02-22T13:17:49.188Z</time>
      </trkpt>
      <trkpt lat="44.19802" lon="0.59802">
        <ele>49</ele>
        <time>2026-02-22T13:17:50.188Z</time>
      </trkpt>
      <trkpt lat="44.19802" lon="0.59802">
        <ele>49</ele>
        <time>2026-02-22T13:17:51.188Z</time>
      </trkpt>
      <trkpt lat="44.19802" lon="0.59802">
        <ele>49</ele>
        <time>2026-02-22T13:17:52.188Z</time>
      </trkpt>
      <trkpt lat="44.19802" lon="0.59802">
        <ele>50</ele>
        <time>2026-02-22T13:17:53.189Z</time>
      </trkpt>
      <trkpt lat="44.19802" lon="0.59802">
        <ele>50</ele>
        <time>2026-02-22T13:17:54.188Z</time>
      </trkpt>
      <trkpt lat="44.19802" lon="0.59802">
        <ele>50</ele>
        <time>2026-02-22T13:17:55.188Z</time>
      </trkpt>
      <trkpt lat="44.19802" lon="0.59801">
        <ele>50</ele>
        <time>2026-02-22T13:17:56.188Z</time>
      </trkpt>
      <trkpt lat="44.19802" lon="0.59802">
        <ele>51</ele>
        <time>2026-02-22T13:17:57.188Z</time>
      </trkpt>
      <trkpt lat="44.19802" lon="0.59802">
        <ele>51</ele>
        <time>2026-02-22T13:17:58.188Z</time>
      </trkpt>
      <trkpt lat="44.19802" lon="0.59802">
        <ele>51</ele>
        <time>2026-02-22T13:17:59.188Z</time>
      </trkpt>
      <trkpt lat="44.19802" lon="0.59802">
        <ele>51</ele>
        <time>2026-02-22T13:18:00.189Z</time>
      </trkpt>
      <trkpt lat="44.19802" lon="0.59802">
        <ele>51</ele>
        <time>2026-02-22T13:18:01.188Z</time>
      </trkpt>
      <trkpt lat="44.19802" lon="0.59802">
        <ele>51</ele>
        <time>2026-02-22T13:18:02.188Z</time>
      </trkpt>
      <trkpt lat="44.19801" lon="0.59802">
        <ele>52</ele>
        <time>2026-02-22T13:18:03.189Z</time>
      </trkpt>
      <trkpt lat="44.19802" lon="0.59802">
        <ele>52</ele>
        <time>2026-02-22T13:18:04.188Z</time>
      </trkpt>
      <trkpt lat="44.19802" lon="0.59802">
        <ele>52</ele>
        <time>2026-02-22T13:18:05.188Z</time>
      </trkpt>
      <trkpt lat="44.19802" lon="0.59802">
        <ele>53</ele>
        <time>2026-02-22T13:18:06.188Z</time>
      </trkpt>
      <trkpt lat="44.19802" lon="0.59801">
        <ele>53</ele>
        <time>2026-02-22T13:18:07.188Z</time>
      </trkpt>
      <trkpt lat="44.19803" lon="0.598">
        <ele>53</ele>
        <time>2026-02-22T13:18:08.189Z</time>
      </trkpt>
      <trkpt lat="44.19803" lon="0.59798">
        <ele>53</ele>
        <time>2026-02-22T13:18:09.188Z</time>
      </trkpt>
      <trkpt lat="44.19804" lon="0.59797">
        <ele>53</ele>
        <time>2026-02-22T13:18:10.188Z</time>
      </trkpt>
      <trkpt lat="44.19804" lon="0.59796">
        <ele>53</ele>
        <time>2026-02-22T13:18:11.188Z</time>
      </trkpt>
      <trkpt lat="44.19804" lon="0.59795">
        <ele>54</ele>
        <time>2026-02-22T13:18:12.188Z</time>
      </trkpt>
      <trkpt lat="44.19805" lon="0.59793">
        <ele>54</ele>
        <time>2026-02-22T13:18:13.188Z</time>
      </trkpt>
      <trkpt lat="44.19805" lon="0.59792">
        <ele>54</ele>
        <time>2026-02-22T13:18:14.188Z</time>
      </trkpt>
      <trkpt lat="44.19805" lon="0.59791">
        <ele>53</ele>
        <time>2026-02-22T13:18:15.188Z</time>
      </trkpt>
      <trkpt lat="44.19805" lon="0.5979">
        <ele>53</ele>
        <time>2026-02-22T13:18:16.188Z</time>
      </trkpt>
      <trkpt lat="44.19804" lon="0.59789">
        <ele>53</ele>
        <time>2026-02-22T13:18:17.188Z</time>
      </trkpt>
      <trkpt lat="44.19804" lon="0.59788">
        <ele>53</ele>
        <time>2026-02-22T13:18:18.188Z</time>
      </trkpt>
      <trkpt lat="44.19803" lon="0.59787">
        <ele>53</ele>
        <time>2026-02-22T13:18:19.188Z</time>
      </trkpt>
      <trkpt lat="44.19803" lon="0.59786">
        <ele>53</ele>
        <time>2026-02-22T13:18:20.188Z</time>
      </trkpt>
      <trkpt lat="44.19802" lon="0.59785">
        <ele>53</ele>
        <time>2026-02-22T13:18:21.189Z</time>
      </trkpt>
      <trkpt lat="44.19801" lon="0.59784">
        <ele>53</ele>
        <time>2026-02-22T13:18:22.188Z</time>
      </trkpt>
      <trkpt lat="44.19801" lon="0.59782">
        <ele>53</ele>
        <time>2026-02-22T13:18:23.188Z</time>
      </trkpt>
      <trkpt lat="44.19801" lon="0.59781">
        <ele>53</ele>
        <time>2026-02-22T13:18:24.188Z</time>
      </trkpt>
      <trkpt lat="44.198" lon="0.5978">
        <ele>52</ele>
        <time>2026-02-22T13:18:25.188Z</time>
      </trkpt>
      <trkpt lat="44.19799" lon="0.59779">
        <ele>52</ele>
        <time>2026-02-22T13:18:26.188Z</time>
      </trkpt>
      <trkpt lat="44.19799" lon="0.59778">
        <ele>52</ele>
        <time>2026-02-22T13:18:27.188Z</time>
      </trkpt>
      <trkpt lat="44.19798" lon="0.59777">
        <ele>52</ele>
        <time>2026-02-22T13:18:28.188Z</time>
      </trkpt>
      <trkpt lat="44.19798" lon="0.59775">
        <ele>52</ele>
        <time>2026-02-22T13:18:29.188Z</time>
      </trkpt>
      <trkpt lat="44.19797" lon="0.59774">
        <ele>52</ele>
        <time>2026-02-22T13:18:30.188Z</time>
      </trkpt>
      <trkpt lat="44.19797" lon="0.59773">
        <ele>52</ele>
        <time>2026-02-22T13:18:31.188Z</time>
      </trkpt>
      <trkpt lat="44.19796" lon="0.59771">
        <ele>52</ele>
        <time>2026-02-22T13:18:32.188Z</time>
      </trkpt>
      <trkpt lat="44.19796" lon="0.5977">
        <ele>52</ele>
        <time>2026-02-22T13:18:33.188Z</time>
      </trkpt>
      <trkpt lat="44.19795" lon="0.59769">
        <ele>52</ele>
        <time>2026-02-22T13:18:34.189Z</time>
      </trkpt>
      <trkpt lat="44.19795" lon="0.59767">
        <ele>52</ele>
        <time>2026-02-22T13:18:35.188Z</time>
      </trkpt>
      <trkpt lat="44.19795" lon="0.59765">
        <ele>52</ele>
        <time>2026-02-22T13:18:36.188Z</time>
      </trkpt>
      <trkpt lat="44.19795" lon="0.59764">
        <ele>52</ele>
        <time>2026-02-22T13:18:37.188Z</time>
      </trkpt>
      <trkpt lat="44.19795" lon="0.59762">
        <ele>52</ele>
        <time>2026-02-22T13:18:38.188Z</time>
      </trkpt>
      <trkpt lat="44.19795" lon="0.5976">
        <ele>52</ele>
        <time>2026-02-22T13:18:39.189Z</time>
      </trkpt>
      <trkpt lat="44.19795" lon="0.59759">
        <ele>52</ele>
        <time>2026-02-22T13:18:40.188Z</time>
      </trkpt>
      <trkpt lat="44.19795" lon="0.59757">
        <ele>52</ele>
        <time>2026-02-22T13:18:41.188Z</time>
      </trkpt>
      <trkpt lat="44.19795" lon="0.59756">
        <ele>52</ele>
        <time>2026-02-22T13:18:42.188Z</time>
      </trkpt>
      <trkpt lat="44.19796" lon="0.59754">
        <ele>52</ele>
        <time>2026-02-22T13:18:43.188Z</time>
      </trkpt>
      <trkpt lat="44.19796" lon="0.59752">
        <ele>52</ele>
        <time>2026-02-22T13:18:44.188Z</time>
      </trkpt>
      <trkpt lat="44.19797" lon="0.5975">
        <ele>52</ele>
        <time>2026-02-22T13:18:45.188Z</time>
      </trkpt>
      <trkpt lat="44.19797" lon="0.59749">
        <ele>52</ele>
        <time>2026-02-22T13:18:46.188Z</time>
      </trkpt>
      <trkpt lat="44.19797" lon="0.59747">
        <ele>53</ele>
        <time>2026-02-22T13:18:47.188Z</time>
      </trkpt>
      <trkpt lat="44.19797" lon="0.59746">
        <ele>53</ele>
        <time>2026-02-22T13:18:48.188Z</time>
      </trkpt>
      <trkpt lat="44.19798" lon="0.59744">
        <ele>53</ele>
        <time>2026-02-22T13:18:49.189Z</time>
      </trkpt>
      <trkpt lat="44.19798" lon="0.59742">
        <ele>53</ele>
        <time>2026-02-22T13:18:50.188Z</time>
      </trkpt>
      <trkpt lat="44.19798" lon="0.59741">
        <ele>53</ele>
        <time>2026-02-22T13:18:51.188Z</time>
      </trkpt>
      <trkpt lat="44.19799" lon="0.59739">
        <ele>53</ele>
        <time>2026-02-22T13:18:52.188Z</time>
      </trkpt>
      <trkpt lat="44.19799" lon="0.59738">
        <ele>53</ele>
        <time>2026-02-22T13:18:53.188Z</time>
      </trkpt>
      <trkpt lat="44.19799" lon="0.59737">
        <ele>53</ele>
        <time>2026-02-22T13:18:54.188Z</time>
      </trkpt>
      <trkpt lat="44.198" lon="0.59735">
        <ele>53</ele>
        <time>2026-02-22T13:18:55.188Z</time>
      </trkpt>
      <trkpt lat="44.198" lon="0.59733">
        <ele>53</ele>
        <time>2026-02-22T13:18:56.188Z</time>
      </trkpt>
      <trkpt lat="44.19801" lon="0.59732">
        <ele>53</ele>
        <time>2026-02-22T13:18:57.188Z</time>
      </trkpt>
      <trkpt lat="44.19801" lon="0.5973">
        <ele>53</ele>
        <time>2026-02-22T13:18:58.188Z</time>
      </trkpt>
      <trkpt lat="44.19801" lon="0.59729">
        <ele>53</ele>
        <time>2026-02-22T13:18:59.188Z</time>
      </trkpt>
      <trkpt lat="44.19802" lon="0.59728">
        <ele>53</ele>
        <time>2026-02-22T13:19:00.188Z</time>
      </trkpt>
      <trkpt lat="44.19802" lon="0.59726">
        <ele>52</ele>
        <time>2026-02-22T13:19:01.188Z</time>
      </trkpt>
      <trkpt lat="44.19802" lon="0.59724">
        <ele>52</ele>
        <time>2026-02-22T13:19:02.189Z</time>
      </trkpt>
      <trkpt lat="44.19803" lon="0.59723">
        <ele>52</ele>
        <time>2026-02-22T13:19:03.188Z</time>
      </trkpt>
      <trkpt lat="44.19803" lon="0.59721">
        <ele>52</ele>
        <time>2026-02-22T13:19:04.188Z</time>
      </trkpt>
      <trkpt lat="44.19804" lon="0.59719">
        <ele>52</ele>
        <time>2026-02-22T13:19:05.188Z</time>
      </trkpt>
      <trkpt lat="44.19804" lon="0.59718">
        <ele>52</ele>
        <time>2026-02-22T13:19:06.188Z</time>
      </trkpt>
      <trkpt lat="44.19804" lon="0.59716">
        <ele>52</ele>
        <time>2026-02-22T13:19:07.188Z</time>
      </trkpt>
      <trkpt lat="44.19804" lon="0.59715">
        <ele>52</ele>
        <time>2026-02-22T13:19:08.188Z</time>
      </trkpt>
      <trkpt lat="44.19805" lon="0.59713">
        <ele>52</ele>
        <time>2026-02-22T13:19:09.188Z</time>
      </trkpt>
      <trkpt lat="44.19805" lon="0.59712">
        <ele>52</ele>
        <time>2026-02-22T13:19:10.188Z</time>
      </trkpt>
      <trkpt lat="44.19805" lon="0.5971">
        <ele>52</ele>
        <time>2026-02-22T13:19:11.188Z</time>
      </trkpt>
      <trkpt lat="44.19806" lon="0.59708">
        <ele>51</ele>
        <time>2026-02-22T13:19:12.188Z</time>
      </trkpt>
      <trkpt lat="44.19806" lon="0.59707">
        <ele>51</ele>
        <time>2026-02-22T13:19:13.188Z</time>
      </trkpt>
      <trkpt lat="44.19807" lon="0.59705">
        <ele>51</ele>
        <time>2026-02-22T13:19:14.188Z</time>
      </trkpt>
      <trkpt lat="44.19807" lon="0.59704">
        <ele>51</ele>
        <time>2026-02-22T13:19:15.188Z</time>
      </trkpt>
      <trkpt lat="44.19807" lon="0.59702">
        <ele>51</ele>
        <time>2026-02-22T13:19:16.189Z</time>
      </trkpt>
      <trkpt lat="44.19808" lon="0.59701">
        <ele>52</ele>
        <time>2026-02-22T13:19:17.188Z</time>
      </trkpt>
      <trkpt lat="44.19808" lon="0.597">
        <ele>52</ele>
        <time>2026-02-22T13:19:18.188Z</time>
      </trkpt>
      <trkpt lat="44.19808" lon="0.59698">
        <ele>52</ele>
        <time>2026-02-22T13:19:19.188Z</time>
      </trkpt>
      <trkpt lat="44.19808" lon="0.59696">
        <ele>53</ele>
        <time>2026-02-22T13:19:20.188Z</time>
      </trkpt>
      <trkpt lat="44.19808" lon="0.59695">
        <ele>53</ele>
        <time>2026-02-22T13:19:21.188Z</time>
      </trkpt>
      <trkpt lat="44.19809" lon="0.59694">
        <ele>53</ele>
        <time>2026-02-22T13:19:22.189Z</time>
      </trkpt>
      <trkpt lat="44.19809" lon="0.59692">
        <ele>53</ele>
        <time>2026-02-22T13:19:23.188Z</time>
      </trkpt>
      <trkpt lat="44.19809" lon="0.5969">
        <ele>53</ele>
        <time>2026-02-22T13:19:24.188Z</time>
      </trkpt>
      <trkpt lat="44.1981" lon="0.59688">
        <ele>53</ele>
        <time>2026-02-22T13:19:25.188Z</time>
      </trkpt>
      <trkpt lat="44.1981" lon="0.59687">
        <ele>53</ele>
        <time>2026-02-22T13:19:26.188Z</time>
      </trkpt>
      <trkpt lat="44.1981" lon="0.59685">
        <ele>53</ele>
        <time>2026-02-22T13:19:27.188Z</time>
      </trkpt>
      <trkpt lat="44.19811" lon="0.59684">
        <ele>53</ele>
        <time>2026-02-22T13:19:28.189Z</time>
      </trkpt>
      <trkpt lat="44.19811" lon="0.59682">
        <ele>53</ele>
        <time>2026-02-22T13:19:29.188Z</time>
      </trkpt>
      <trkpt lat="44.19811" lon="0.5968">
        <ele>53</ele>
        <time>2026-02-22T13:19:30.189Z</time>
      </trkpt>
      <trkpt lat="44.19812" lon="0.59679">
        <ele>53</ele>
        <time>2026-02-22T13:19:31.188Z</time>
      </trkpt>
      <trkpt lat="44.19812" lon="0.59678">
        <ele>53</ele>
        <time>2026-02-22T13:19:32.188Z</time>
      </trkpt>
      <trkpt lat="44.19812" lon="0.59676">
        <ele>53</ele>
        <time>2026-02-22T13:19:33.188Z</time>
      </trkpt>
      <trkpt lat="44.19812" lon="0.59674">
        <ele>53</ele>
        <time>2026-02-22T13:19:34.188Z</time>
      </trkpt>
      <trkpt lat="44.19813" lon="0.59672">
        <ele>53</ele>
        <time>2026-02-22T13:19:35.188Z</time>
      </trkpt>
      <trkpt lat="44.19813" lon="0.5967">
        <ele>54</ele>
        <time>2026-02-22T13:19:36.188Z</time>
      </trkpt>
      <trkpt lat="44.19814" lon="0.59669">
        <ele>54</ele>
        <time>2026-02-22T13:19:37.188Z</time>
      </trkpt>
      <trkpt lat="44.19814" lon="0.59667">
        <ele>54</ele>
        <time>2026-02-22T13:19:38.188Z</time>
      </trkpt>
      <trkpt lat="44.19814" lon="0.59665">
        <ele>54</ele>
        <time>2026-02-22T13:19:39.188Z</time>
      </trkpt>
      <trkpt lat="44.19815" lon="0.59664">
        <ele>54</ele>
        <time>2026-02-22T13:19:40.188Z</time>
      </trkpt>
      <trkpt lat="44.19815" lon="0.59662">
        <ele>54</ele>
        <time>2026-02-22T13:19:41.188Z</time>
      </trkpt>
      <trkpt lat="44.19815" lon="0.5966">
        <ele>54</ele>
        <time>2026-02-22T13:19:42.188Z</time>
      </trkpt>
      <trkpt lat="44.19815" lon="0.59659">
        <ele>54</ele>
        <time>2026-02-22T13:19:43.188Z</time>
      </trkpt>
      <trkpt lat="44.19816" lon="0.59657">
        <ele>54</ele>
        <time>2026-02-22T13:19:44.188Z</time>
      </trkpt>
      <trkpt lat="44.19816" lon="0.59655">
        <ele>54</ele>
        <time>2026-02-22T13:19:45.188Z</time>
      </trkpt>
      <trkpt lat="44.19816" lon="0.59654">
        <ele>54</ele>
        <time>2026-02-22T13:19:46.188Z</time>
      </trkpt>
      <trkpt lat="44.19817" lon="0.59652">
        <ele>55</ele>
        <time>2026-02-22T13:19:47.188Z</time>
      </trkpt>
      <trkpt lat="44.19817" lon="0.59651">
        <ele>55</ele>
        <time>2026-02-22T13:19:48.188Z</time>
      </trkpt>
      <trkpt lat="44.19818" lon="0.5965">
        <ele>55</ele>
        <time>2026-02-22T13:19:49.188Z</time>
      </trkpt>
      <trkpt lat="44.19818" lon="0.59648">
        <ele>55</ele>
        <time>2026-02-22T13:19:50.188Z</time>
      </trkpt>
      <trkpt lat="44.19818" lon="0.59646">
        <ele>55</ele>
        <time>2026-02-22T13:19:51.188Z</time>
      </trkpt>
      <trkpt lat="44.19819" lon="0.59645">
        <ele>54</ele>
        <time>2026-02-22T13:19:52.189Z</time>
      </trkpt>
      <trkpt lat="44.19819" lon="0.59643">
        <ele>54</ele>
        <time>2026-02-22T13:19:53.189Z</time>
      </trkpt>
      <trkpt lat="44.19819" lon="0.59642">
        <ele>54</ele>
        <time>2026-02-22T13:19:54.188Z</time>
      </trkpt>
      <trkpt lat="44.1982" lon="0.5964">
        <ele>54</ele>
        <time>2026-02-22T13:19:55.188Z</time>
      </trkpt>
      <trkpt lat="44.1982" lon="0.59639">
        <ele>54</ele>
        <time>2026-02-22T13:19:56.189Z</time>
      </trkpt>
      <trkpt lat="44.1982" lon="0.59637">
        <ele>54</ele>
        <time>2026-02-22T13:19:57.188Z</time>
      </trkpt>
      <trkpt lat="44.19821" lon="0.59636">
        <ele>54</ele>
        <time>2026-02-22T13:19:58.188Z</time>
      </trkpt>
      <trkpt lat="44.19821" lon="0.59634">
        <ele>54</ele>
        <time>2026-02-22T13:19:59.188Z</time>
      </trkpt>
      <trkpt lat="44.19822" lon="0.59633">
        <ele>54</ele>
        <time>2026-02-22T13:20:00.188Z</time>
      </trkpt>
      <trkpt lat="44.19822" lon="0.59632">
        <ele>54</ele>
        <time>2026-02-22T13:20:01.188Z</time>
      </trkpt>
      <trkpt lat="44.19822" lon="0.59631">
        <ele>54</ele>
        <time>2026-02-22T13:20:02.188Z</time>
      </trkpt>
      <trkpt lat="44.19822" lon="0.59629">
        <ele>53</ele>
        <time>2026-02-22T13:20:03.188Z</time>
      </trkpt>
      <trkpt lat="44.19823" lon="0.59628">
        <ele>53</ele>
        <time>2026-02-22T13:20:04.188Z</time>
      </trkpt>
      <trkpt lat="44.19823" lon="0.59627">
        <ele>53</ele>
        <time>2026-02-22T13:20:05.188Z</time>
      </trkpt>
      <trkpt lat="44.19823" lon="0.59625">
        <ele>53</ele>
        <time>2026-02-22T13:20:06.189Z</time>
      </trkpt>
      <trkpt lat="44.19824" lon="0.59623">
        <ele>53</ele>
        <time>2026-02-22T13:20:07.188Z</time>
      </trkpt>
      <trkpt lat="44.19824" lon="0.59621">
        <ele>53</ele>
        <time>2026-02-22T13:20:08.188Z</time>
      </trkpt>
      <trkpt lat="44.19824" lon="0.5962">
        <ele>53</ele>
        <time>2026-02-22T13:20:09.188Z</time>
      </trkpt>
      <trkpt lat="44.19825" lon="0.59618">
        <ele>53</ele>
        <time>2026-02-22T13:20:10.188Z</time>
      </trkpt>
      <trkpt lat="44.19826" lon="0.59617">
        <ele>53</ele>
        <time>2026-02-22T13:20:11.188Z</time>
      </trkpt>
      <trkpt lat="44.19826" lon="0.59615">
        <ele>52</ele>
        <time>2026-02-22T13:20:12.188Z</time>
      </trkpt>
      <trkpt lat="44.19826" lon="0.59614">
        <ele>52</ele>
        <time>2026-02-22T13:20:13.188Z</time>
      </trkpt>
      <trkpt lat="44.19827" lon="0.59613">
        <ele>52</ele>
        <time>2026-02-22T13:20:14.188Z</time>
      </trkpt>
      <trkpt lat="44.19827" lon="0.59611">
        <ele>52</ele>
        <time>2026-02-22T13:20:15.188Z</time>
      </trkpt>
      <trkpt lat="44.19828" lon="0.59609">
        <ele>52</ele>
        <time>2026-02-22T13:20:16.188Z</time>
      </trkpt>
      <trkpt lat="44.19828" lon="0.59607">
        <ele>52</ele>
        <time>2026-02-22T13:20:17.188Z</time>
      </trkpt>
      <trkpt lat="44.19828" lon="0.59605">
        <ele>53</ele>
        <time>2026-02-22T13:20:18.188Z</time>
      </trkpt>
      <trkpt lat="44.19829" lon="0.59603">
        <ele>53</ele>
        <time>2026-02-22T13:20:19.188Z</time>
      </trkpt>
      <trkpt lat="44.19829" lon="0.59601">
        <ele>53</ele>
        <time>2026-02-22T13:20:20.188Z</time>
      </trkpt>
      <trkpt lat="44.1983" lon="0.596">
        <ele>54</ele>
        <time>2026-02-22T13:20:21.188Z</time>
      </trkpt>
      <trkpt lat="44.1983" lon="0.59598">
        <ele>54</ele>
        <time>2026-02-22T13:20:22.189Z</time>
      </trkpt>
      <trkpt lat="44.1983" lon="0.59597">
        <ele>54</ele>
        <time>2026-02-22T13:20:23.188Z</time>
      </trkpt>
      <trkpt lat="44.19831" lon="0.59595">
        <ele>54</ele>
        <time>2026-02-22T13:20:24.189Z</time>
      </trkpt>
      <trkpt lat="44.19831" lon="0.59594">
        <ele>54</ele>
        <time>2026-02-22T13:20:25.188Z</time>
      </trkpt>
      <trkpt lat="44.19832" lon="0.59592">
        <ele>54</ele>
        <time>2026-02-22T13:20:26.188Z</time>
      </trkpt>
      <trkpt lat="44.19832" lon="0.59591">
        <ele>54</ele>
        <time>2026-02-22T13:20:27.188Z</time>
      </trkpt>
      <trkpt lat="44.19833" lon="0.59589">
        <ele>54</ele>
        <time>2026-02-22T13:20:28.188Z</time>
      </trkpt>
      <trkpt lat="44.19833" lon="0.59588">
        <ele>54</ele>
        <time>2026-02-22T13:20:29.188Z</time>
      </trkpt>
      <trkpt lat="44.19833" lon="0.59586">
        <ele>54</ele>
        <time>2026-02-22T13:20:30.188Z</time>
      </trkpt>
      <trkpt lat="44.19834" lon="0.59585">
        <ele>54</ele>
        <time>2026-02-22T13:20:31.189Z</time>
      </trkpt>
      <trkpt lat="44.19834" lon="0.59583">
        <ele>53</ele>
        <time>2026-02-22T13:20:32.189Z</time>
      </trkpt>
      <trkpt lat="44.19835" lon="0.59581">
        <ele>53</ele>
        <time>2026-02-22T13:20:33.188Z</time>
      </trkpt>
      <trkpt lat="44.19835" lon="0.59579">
        <ele>52</ele>
        <time>2026-02-22T13:20:34.188Z</time>
      </trkpt>
      <trkpt lat="44.19836" lon="0.59577">
        <ele>52</ele>
        <time>2026-02-22T13:20:35.188Z</time>
      </trkpt>
      <trkpt lat="44.19836" lon="0.59576">
        <ele>52</ele>
        <time>2026-02-22T13:20:36.188Z</time>
      </trkpt>
      <trkpt lat="44.19837" lon="0.59574">
        <ele>51</ele>
        <time>2026-02-22T13:20:37.188Z</time>
      </trkpt>
      <trkpt lat="44.19837" lon="0.59573">
        <ele>51</ele>
        <time>2026-02-22T13:20:38.188Z</time>
      </trkpt>
      <trkpt lat="44.19837" lon="0.59571">
        <ele>50</ele>
        <time>2026-02-22T13:20:39.188Z</time>
      </trkpt>
      <trkpt lat="44.19838" lon="0.5957">
        <ele>50</ele>
        <time>2026-02-22T13:20:40.188Z</time>
      </trkpt>
      <trkpt lat="44.19838" lon="0.59568">
        <ele>49</ele>
        <time>2026-02-22T13:20:41.188Z</time>
      </trkpt>
      <trkpt lat="44.19839" lon="0.59567">
        <ele>49</ele>
        <time>2026-02-22T13:20:42.188Z</time>
      </trkpt>
      <trkpt lat="44.19839" lon="0.59565">
        <ele>49</ele>
        <time>2026-02-22T13:20:43.188Z</time>
      </trkpt>
      <trkpt lat="44.1984" lon="0.59563">
        <ele>49</ele>
        <time>2026-02-22T13:20:44.188Z</time>
      </trkpt>
      <trkpt lat="44.1984" lon="0.59561">
        <ele>49</ele>
        <time>2026-02-22T13:20:45.188Z</time>
      </trkpt>
      <trkpt lat="44.19841" lon="0.5956">
        <ele>49</ele>
        <time>2026-02-22T13:20:46.188Z</time>
      </trkpt>
      <trkpt lat="44.19841" lon="0.59558">
        <ele>49</ele>
        <time>2026-02-22T13:20:47.188Z</time>
      </trkpt>
      <trkpt lat="44.19842" lon="0.59557">
        <ele>49</ele>
        <time>2026-02-22T13:20:48.188Z</time>
      </trkpt>
      <trkpt lat="44.19842" lon="0.59555">
        <ele>49</ele>
        <time>2026-02-22T13:20:49.188Z</time>
      </trkpt>
      <trkpt lat="44.19842" lon="0.59553">
        <ele>49</ele>
        <time>2026-02-22T13:20:50.188Z</time>
      </trkpt>
      <trkpt lat="44.19843" lon="0.59551">
        <ele>49</ele>
        <time>2026-02-22T13:20:51.188Z</time>
      </trkpt>
      <trkpt lat="44.19843" lon="0.59549">
        <ele>49</ele>
        <time>2026-02-22T13:20:52.189Z</time>
      </trkpt>
      <trkpt lat="44.19844" lon="0.59547">
        <ele>49</ele>
        <time>2026-02-22T13:20:53.188Z</time>
      </trkpt>
      <trkpt lat="44.19844" lon="0.59546">
        <ele>50</ele>
        <time>2026-02-22T13:20:54.188Z</time>
      </trkpt>
      <trkpt lat="44.19844" lon="0.59545">
        <ele>50</ele>
        <time>2026-02-22T13:20:55.188Z</time>
      </trkpt>
      <trkpt lat="44.19845" lon="0.59543">
        <ele>50</ele>
        <time>2026-02-22T13:20:56.188Z</time>
      </trkpt>
      <trkpt lat="44.19845" lon="0.59541">
        <ele>50</ele>
        <time>2026-02-22T13:20:57.188Z</time>
      </trkpt>
      <trkpt lat="44.19846" lon="0.5954">
        <ele>50</ele>
        <time>2026-02-22T13:20:58.188Z</time>
      </trkpt>
      <trkpt lat="44.19846" lon="0.59538">
        <ele>51</ele>
        <time>2026-02-22T13:20:59.188Z</time>
      </trkpt>
      <trkpt lat="44.19847" lon="0.59536">
        <ele>51</ele>
        <time>2026-02-22T13:21:00.188Z</time>
      </trkpt>
      <trkpt lat="44.19847" lon="0.59534">
        <ele>51</ele>
        <time>2026-02-22T13:21:01.188Z</time>
      </trkpt>
      <trkpt lat="44.19848" lon="0.59533">
        <ele>51</ele>
        <time>2026-02-22T13:21:02.188Z</time>
      </trkpt>
      <trkpt lat="44.19848" lon="0.59532">
        <ele>51</ele>
        <time>2026-02-22T13:21:03.188Z</time>
      </trkpt>
      <trkpt lat="44.19849" lon="0.59531">
        <ele>51</ele>
        <time>2026-02-22T13:21:04.188Z</time>
      </trkpt>
      <trkpt lat="44.1985" lon="0.5953">
        <ele>51</ele>
        <time>2026-02-22T13:21:05.188Z</time>
      </trkpt>
      <trkpt lat="44.1985" lon="0.59528">
        <ele>51</ele>
        <time>2026-02-22T13:21:06.188Z</time>
      </trkpt>
      <trkpt lat="44.19851" lon="0.59527">
        <ele>51</ele>
        <time>2026-02-22T13:21:07.188Z</time>
      </trkpt>
      <trkpt lat="44.19851" lon="0.59526">
        <ele>51</ele>
        <time>2026-02-22T13:21:08.189Z</time>
      </trkpt>
      <trkpt lat="44.19852" lon="0.59525">
        <ele>50</ele>
        <time>2026-02-22T13:21:09.188Z</time>
      </trkpt>
      <trkpt lat="44.19853" lon="0.59525">
        <ele>50</ele>
        <time>2026-02-22T13:21:10.188Z</time>
      </trkpt>
      <trkpt lat="44.19854" lon="0.59524">
        <ele>50</ele>
        <time>2026-02-22T13:21:11.188Z</time>
      </trkpt>
      <trkpt lat="44.19854" lon="0.59523">
        <ele>49</ele>
        <time>2026-02-22T13:21:12.188Z</time>
      </trkpt>
      <trkpt lat="44.19854" lon="0.59521">
        <ele>49</ele>
        <time>2026-02-22T13:21:13.188Z</time>
      </trkpt>
      <trkpt lat="44.19855" lon="0.5952">
        <ele>49</ele>
        <time>2026-02-22T13:21:14.188Z</time>
      </trkpt>
      <trkpt lat="44.19855" lon="0.59518">
        <ele>49</ele>
        <time>2026-02-22T13:21:15.188Z</time>
      </trkpt>
      <trkpt lat="44.19855" lon="0.59516">
        <ele>49</ele>
        <time>2026-02-22T13:21:16.188Z</time>
      </trkpt>
      <trkpt lat="44.19856" lon="0.59514">
        <ele>50</ele>
        <time>2026-02-22T13:21:17.188Z</time>
      </trkpt>
      <trkpt lat="44.19856" lon="0.59513">
        <ele>50</ele>
        <time>2026-02-22T13:21:18.188Z</time>
      </trkpt>
      <trkpt lat="44.19857" lon="0.59512">
        <ele>50</ele>
        <time>2026-02-22T13:21:19.188Z</time>
      </trkpt>
      <trkpt lat="44.19857" lon="0.5951">
        <ele>49</ele>
        <time>2026-02-22T13:21:20.188Z</time>
      </trkpt>
      <trkpt lat="44.19858" lon="0.59509">
        <ele>49</ele>
        <time>2026-02-22T13:21:21.188Z</time>
      </trkpt>
      <trkpt lat="44.19858" lon="0.59508">
        <ele>49</ele>
        <time>2026-02-22T13:21:22.189Z</time>
      </trkpt>
      <trkpt lat="44.19859" lon="0.59508">
        <ele>49</ele>
        <time>2026-02-22T13:21:23.188Z</time>
      </trkpt>
      <trkpt lat="44.19858" lon="0.59507">
        <ele>48</ele>
        <time>2026-02-22T13:21:24.189Z</time>
      </trkpt>
      <trkpt lat="44.19858" lon="0.59505">
        <ele>48</ele>
        <time>2026-02-22T13:21:25.188Z</time>
      </trkpt>
      <trkpt lat="44.19858" lon="0.59503">
        <ele>48</ele>
        <time>2026-02-22T13:21:26.188Z</time>
      </trkpt>
      <trkpt lat="44.19859" lon="0.59502">
        <ele>48</ele>
        <time>2026-02-22T13:21:27.188Z</time>
      </trkpt>
      <trkpt lat="44.19859" lon="0.595">
        <ele>48</ele>
        <time>2026-02-22T13:21:28.188Z</time>
      </trkpt>
      <trkpt lat="44.1986" lon="0.59498">
        <ele>49</ele>
        <time>2026-02-22T13:21:29.188Z</time>
      </trkpt>
      <trkpt lat="44.1986" lon="0.59497">
        <ele>49</ele>
        <time>2026-02-22T13:21:30.188Z</time>
      </trkpt>
      <trkpt lat="44.1986" lon="0.59496">
        <ele>49</ele>
        <time>2026-02-22T13:21:31.188Z</time>
      </trkpt>
      <trkpt lat="44.19861" lon="0.59494">
        <ele>49</ele>
        <time>2026-02-22T13:21:32.188Z</time>
      </trkpt>
      <trkpt lat="44.19862" lon="0.59493">
        <ele>49</ele>
        <time>2026-02-22T13:21:33.188Z</time>
      </trkpt>
      <trkpt lat="44.19862" lon="0.59491">
        <ele>49</ele>
        <time>2026-02-22T13:21:34.188Z</time>
      </trkpt>
      <trkpt lat="44.19863" lon="0.5949">
        <ele>49</ele>
        <time>2026-02-22T13:21:35.188Z</time>
      </trkpt>
      <trkpt lat="44.19863" lon="0.59488">
        <ele>49</ele>
        <time>2026-02-22T13:21:36.188Z</time>
      </trkpt>
      <trkpt lat="44.19864" lon="0.59487">
        <ele>49</ele>
        <time>2026-02-22T13:21:37.188Z</time>
      </trkpt>
      <trkpt lat="44.19864" lon="0.59485">
        <ele>49</ele>
        <time>2026-02-22T13:21:38.188Z</time>
      </trkpt>
      <trkpt lat="44.19864" lon="0.59484">
        <ele>49</ele>
        <time>2026-02-22T13:21:39.189Z</time>
      </trkpt>
      <trkpt lat="44.19865" lon="0.59482">
        <ele>49</ele>
        <time>2026-02-22T13:21:40.188Z</time>
      </trkpt>
      <trkpt lat="44.19865" lon="0.5948">
        <ele>49</ele>
        <time>2026-02-22T13:21:41.188Z</time>
      </trkpt>
      <trkpt lat="44.19866" lon="0.59479">
        <ele>49</ele>
        <time>2026-02-22T13:21:42.188Z</time>
      </trkpt>
      <trkpt lat="44.19866" lon="0.59477">
        <ele>49</ele>
        <time>2026-02-22T13:21:43.188Z</time>
      </trkpt>
      <trkpt lat="44.19866" lon="0.59476">
        <ele>49</ele>
        <time>2026-02-22T13:21:44.189Z</time>
      </trkpt>
      <trkpt lat="44.19867" lon="0.59474">
        <ele>49</ele>
        <time>2026-02-22T13:21:45.188Z</time>
      </trkpt>
      <trkpt lat="44.19867" lon="0.59472">
        <ele>50</ele>
        <time>2026-02-22T13:21:46.189Z</time>
      </trkpt>
      <trkpt lat="44.19868" lon="0.59471">
        <ele>50</ele>
        <time>2026-02-22T13:21:47.188Z</time>
      </trkpt>
      <trkpt lat="44.19868" lon="0.59469">
        <ele>50</ele>
        <time>2026-02-22T13:21:48.188Z</time>
      </trkpt>
      <trkpt lat="44.19869" lon="0.59468">
        <ele>50</ele>
        <time>2026-02-22T13:21:49.188Z</time>
      </trkpt>
      <trkpt lat="44.1987" lon="0.59466">
        <ele>50</ele>
        <time>2026-02-22T13:21:50.188Z</time>
      </trkpt>
      <trkpt lat="44.19871" lon="0.59465">
        <ele>50</ele>
        <time>2026-02-22T13:21:51.188Z</time>
      </trkpt>
      <trkpt lat="44.19871" lon="0.59463">
        <ele>49</ele>
        <time>2026-02-22T13:21:52.188Z</time>
      </trkpt>
      <trkpt lat="44.19872" lon="0.59462">
        <ele>49</ele>
        <time>2026-02-22T13:21:53.188Z</time>
      </trkpt>
      <trkpt lat="44.19872" lon="0.5946">
        <ele>49</ele>
        <time>2026-02-22T13:21:54.189Z</time>
      </trkpt>
      <trkpt lat="44.19872" lon="0.59459">
        <ele>49</ele>
        <time>2026-02-22T13:21:55.188Z</time>
      </trkpt>
      <trkpt lat="44.19873" lon="0.59457">
        <ele>49</ele>
        <time>2026-02-22T13:21:56.189Z</time>
      </trkpt>
      <trkpt lat="44.19873" lon="0.59456">
        <ele>49</ele>
        <time>2026-02-22T13:21:57.188Z</time>
      </trkpt>
      <trkpt lat="44.19874" lon="0.59454">
        <ele>50</ele>
        <time>2026-02-22T13:21:58.188Z</time>
      </trkpt>
      <trkpt lat="44.19874" lon="0.59452">
        <ele>50</ele>
        <time>2026-02-22T13:21:59.188Z</time>
      </trkpt>
      <trkpt lat="44.19875" lon="0.59451">
        <ele>51</ele>
        <time>2026-02-22T13:22:00.188Z</time>
      </trkpt>
      <trkpt lat="44.19875" lon="0.59449">
        <ele>51</ele>
        <time>2026-02-22T13:22:01.188Z</time>
      </trkpt>
      <trkpt lat="44.19875" lon="0.59447">
        <ele>51</ele>
        <time>2026-02-22T13:22:02.188Z</time>
      </trkpt>
      <trkpt lat="44.19876" lon="0.59446">
        <ele>51</ele>
        <time>2026-02-22T13:22:03.188Z</time>
      </trkpt>
      <trkpt lat="44.19876" lon="0.59444">
        <ele>51</ele>
        <time>2026-02-22T13:22:04.188Z</time>
      </trkpt>
      <trkpt lat="44.19877" lon="0.59443">
        <ele>51</ele>
        <time>2026-02-22T13:22:05.188Z</time>
      </trkpt>
      <trkpt lat="44.19878" lon="0.59441">
        <ele>52</ele>
        <time>2026-02-22T13:22:06.188Z</time>
      </trkpt>
      <trkpt lat="44.19878" lon="0.59439">
        <ele>52</ele>
        <time>2026-02-22T13:22:07.189Z</time>
      </trkpt>
      <trkpt lat="44.19879" lon="0.59438">
        <ele>52</ele>
        <time>2026-02-22T13:22:08.188Z</time>
      </trkpt>
      <trkpt lat="44.19879" lon="0.59436">
        <ele>52</ele>
        <time>2026-02-22T13:22:09.188Z</time>
      </trkpt>
      <trkpt lat="44.1988" lon="0.59434">
        <ele>52</ele>
        <time>2026-02-22T13:22:10.188Z</time>
      </trkpt>
      <trkpt lat="44.1988" lon="0.59432">
        <ele>52</ele>
        <time>2026-02-22T13:22:11.188Z</time>
      </trkpt>
      <trkpt lat="44.19881" lon="0.59431">
        <ele>52</ele>
        <time>2026-02-22T13:22:12.188Z</time>
      </trkpt>
      <trkpt lat="44.19881" lon="0.59429">
        <ele>52</ele>
        <time>2026-02-22T13:22:13.188Z</time>
      </trkpt>
      <trkpt lat="44.19882" lon="0.59428">
        <ele>51</ele>
        <time>2026-02-22T13:22:14.188Z</time>
      </trkpt>
      <trkpt lat="44.19882" lon="0.59426">
        <ele>51</ele>
        <time>2026-02-22T13:22:15.188Z</time>
      </trkpt>
      <trkpt lat="44.19883" lon="0.59425">
        <ele>51</ele>
        <time>2026-02-22T13:22:16.188Z</time>
      </trkpt>
      <trkpt lat="44.19883" lon="0.59423">
        <ele>51</ele>
        <time>2026-02-22T13:22:17.188Z</time>
      </trkpt>
      <trkpt lat="44.19884" lon="0.59422">
        <ele>51</ele>
        <time>2026-02-22T13:22:18.188Z</time>
      </trkpt>
      <trkpt lat="44.19884" lon="0.59421">
        <ele>51</ele>
        <time>2026-02-22T13:22:19.188Z</time>
      </trkpt>
      <trkpt lat="44.19885" lon="0.59419">
        <ele>50</ele>
        <time>2026-02-22T13:22:20.188Z</time>
      </trkpt>
      <trkpt lat="44.19885" lon="0.59418">
        <ele>50</ele>
        <time>2026-02-22T13:22:21.188Z</time>
      </trkpt>
      <trkpt lat="44.19886" lon="0.59417">
        <ele>50</ele>
        <time>2026-02-22T13:22:22.188Z</time>
      </trkpt>
      <trkpt lat="44.19886" lon="0.59415">
        <ele>50</ele>
        <time>2026-02-22T13:22:23.189Z</time>
      </trkpt>
      <trkpt lat="44.19887" lon="0.59414">
        <ele>49</ele>
        <time>2026-02-22T13:22:24.188Z</time>
      </trkpt>
      <trkpt lat="44.19887" lon="0.59412">
        <ele>49</ele>
        <time>2026-02-22T13:22:25.188Z</time>
      </trkpt>
      <trkpt lat="44.19888" lon="0.59411">
        <ele>50</ele>
        <time>2026-02-22T13:22:26.188Z</time>
      </trkpt>
      <trkpt lat="44.19889" lon="0.59409">
        <ele>50</ele>
        <time>2026-02-22T13:22:27.188Z</time>
      </trkpt>
      <trkpt lat="44.19889" lon="0.59408">
        <ele>50</ele>
        <time>2026-02-22T13:22:28.188Z</time>
      </trkpt>
      <trkpt lat="44.1989" lon="0.59406">
        <ele>50</ele>
        <time>2026-02-22T13:22:29.188Z</time>
      </trkpt>
      <trkpt lat="44.1989" lon="0.59405">
        <ele>50</ele>
        <time>2026-02-22T13:22:30.188Z</time>
      </trkpt>
      <trkpt lat="44.1989" lon="0.59403">
        <ele>50</ele>
        <time>2026-02-22T13:22:31.188Z</time>
      </trkpt>
      <trkpt lat="44.19891" lon="0.59402">
        <ele>50</ele>
        <time>2026-02-22T13:22:32.188Z</time>
      </trkpt>
      <trkpt lat="44.19891" lon="0.594">
        <ele>50</ele>
        <time>2026-02-22T13:22:33.188Z</time>
      </trkpt>
      <trkpt lat="44.19892" lon="0.59399">
        <ele>50</ele>
        <time>2026-02-22T13:22:34.188Z</time>
      </trkpt>
      <trkpt lat="44.19892" lon="0.59397">
        <ele>50</ele>
        <time>2026-02-22T13:22:35.188Z</time>
      </trkpt>
      <trkpt lat="44.19893" lon="0.59396">
        <ele>50</ele>
        <time>2026-02-22T13:22:36.188Z</time>
      </trkpt>
      <trkpt lat="44.19893" lon="0.59394">
        <ele>50</ele>
        <time>2026-02-22T13:22:37.188Z</time>
      </trkpt>
      <trkpt lat="44.19894" lon="0.59393">
        <ele>50</ele>
        <time>2026-02-22T13:22:38.189Z</time>
      </trkpt>
      <trkpt lat="44.19894" lon="0.59392">
        <ele>50</ele>
        <time>2026-02-22T13:22:39.188Z</time>
      </trkpt>
      <trkpt lat="44.19894" lon="0.59391">
        <ele>50</ele>
        <time>2026-02-22T13:22:40.188Z</time>
      </trkpt>
      <trkpt lat="44.19895" lon="0.59389">
        <ele>50</ele>
        <time>2026-02-22T13:22:41.188Z</time>
      </trkpt>
      <trkpt lat="44.19895" lon="0.59388">
        <ele>50</ele>
        <time>2026-02-22T13:22:42.188Z</time>
      </trkpt>
      <trkpt lat="44.19896" lon="0.59386">
        <ele>50</ele>
        <time>2026-02-22T13:22:43.188Z</time>
      </trkpt>
      <trkpt lat="44.19897" lon="0.59385">
        <ele>50</ele>
        <time>2026-02-22T13:22:44.188Z</time>
      </trkpt>
      <trkpt lat="44.19897" lon="0.59383">
        <ele>50</ele>
        <time>2026-02-22T13:22:45.188Z</time>
      </trkpt>
      <trkpt lat="44.19898" lon="0.59381">
        <ele>50</ele>
        <time>2026-02-22T13:22:46.188Z</time>
      </trkpt>
      <trkpt lat="44.19898" lon="0.5938">
        <ele>50</ele>
        <time>2026-02-22T13:22:47.188Z</time>
      </trkpt>
      <trkpt lat="44.19899" lon="0.59379">
        <ele>50</ele>
        <time>2026-02-22T13:22:48.188Z</time>
      </trkpt>
      <trkpt lat="44.19899" lon="0.59377">
        <ele>50</ele>
        <time>2026-02-22T13:22:49.188Z</time>
      </trkpt>
      <trkpt lat="44.199" lon="0.59376">
        <ele>50</ele>
        <time>2026-02-22T13:22:50.188Z</time>
      </trkpt>
      <trkpt lat="44.199" lon="0.59375">
        <ele>50</ele>
        <time>2026-02-22T13:22:51.188Z</time>
      </trkpt>
      <trkpt lat="44.19901" lon="0.59373">
        <ele>50</ele>
        <time>2026-02-22T13:22:52.189Z</time>
      </trkpt>
      <trkpt lat="44.19902" lon="0.59371">
        <ele>50</ele>
        <time>2026-02-22T13:22:53.188Z</time>
      </trkpt>
      <trkpt lat="44.19902" lon="0.5937">
        <ele>49</ele>
        <time>2026-02-22T13:22:54.188Z</time>
      </trkpt>
      <trkpt lat="44.19903" lon="0.59368">
        <ele>49</ele>
        <time>2026-02-22T13:22:55.188Z</time>
      </trkpt>
      <trkpt lat="44.19903" lon="0.59367">
        <ele>49</ele>
        <time>2026-02-22T13:22:56.188Z</time>
      </trkpt>
      <trkpt lat="44.19904" lon="0.59365">
        <ele>49</ele>
        <time>2026-02-22T13:22:57.188Z</time>
      </trkpt>
      <trkpt lat="44.19904" lon="0.59363">
        <ele>50</ele>
        <time>2026-02-22T13:22:58.188Z</time>
      </trkpt>
      <trkpt lat="44.19905" lon="0.59362">
        <ele>50</ele>
        <time>2026-02-22T13:22:59.188Z</time>
      </trkpt>
      <trkpt lat="44.19905" lon="0.59361">
        <ele>50</ele>
        <time>2026-02-22T13:23:00.189Z</time>
      </trkpt>
      <trkpt lat="44.19906" lon="0.59359">
        <ele>50</ele>
        <time>2026-02-22T13:23:01.188Z</time>
      </trkpt>
      <trkpt lat="44.19907" lon="0.59358">
        <ele>50</ele>
        <time>2026-02-22T13:23:02.188Z</time>
      </trkpt>
      <trkpt lat="44.19907" lon="0.59356">
        <ele>49</ele>
        <time>2026-02-22T13:23:03.188Z</time>
      </trkpt>
      <trkpt lat="44.19908" lon="0.59355">
        <ele>50</ele>
        <time>2026-02-22T13:23:04.188Z</time>
      </trkpt>
      <trkpt lat="44.19909" lon="0.59353">
        <ele>50</ele>
        <time>2026-02-22T13:23:05.188Z</time>
      </trkpt>
      <trkpt lat="44.19909" lon="0.59352">
        <ele>50</ele>
        <time>2026-02-22T13:23:06.188Z</time>
      </trkpt>
      <trkpt lat="44.1991" lon="0.59351">
        <ele>49</ele>
        <time>2026-02-22T13:23:07.188Z</time>
      </trkpt>
      <trkpt lat="44.1991" lon="0.5935">
        <ele>49</ele>
        <time>2026-02-22T13:23:08.188Z</time>
      </trkpt>
      <trkpt lat="44.19911" lon="0.59348">
        <ele>49</ele>
        <time>2026-02-22T13:23:09.188Z</time>
      </trkpt>
      <trkpt lat="44.19911" lon="0.59347">
        <ele>49</ele>
        <time>2026-02-22T13:23:10.188Z</time>
      </trkpt>
      <trkpt lat="44.19911" lon="0.59345">
        <ele>50</ele>
        <time>2026-02-22T13:23:11.188Z</time>
      </trkpt>
      <trkpt lat="44.19912" lon="0.59344">
        <ele>50</ele>
        <time>2026-02-22T13:23:12.188Z</time>
      </trkpt>
      <trkpt lat="44.19913" lon="0.59342">
        <ele>50</ele>
        <time>2026-02-22T13:23:13.188Z</time>
      </trkpt>
      <trkpt lat="44.19913" lon="0.59341">
        <ele>49</ele>
        <time>2026-02-22T13:23:14.188Z</time>
      </trkpt>
      <trkpt lat="44.19913" lon="0.59339">
        <ele>49</ele>
        <time>2026-02-22T13:23:15.188Z</time>
      </trkpt>
      <trkpt lat="44.19914" lon="0.59338">
        <ele>49</ele>
        <time>2026-02-22T13:23:16.188Z</time>
      </trkpt>
      <trkpt lat="44.19914" lon="0.59336">
        <ele>49</ele>
        <time>2026-02-22T13:23:17.188Z</time>
      </trkpt>
      <trkpt lat="44.19915" lon="0.59335">
        <ele>48</ele>
        <time>2026-02-22T13:23:18.188Z</time>
      </trkpt>
      <trkpt lat="44.19915" lon="0.59334">
        <ele>48</ele>
        <time>2026-02-22T13:23:19.188Z</time>
      </trkpt>
      <trkpt lat="44.19916" lon="0.59332">
        <ele>48</ele>
        <time>2026-02-22T13:23:20.188Z</time>
      </trkpt>
      <trkpt lat="44.19917" lon="0.59331">
        <ele>49</ele>
        <time>2026-02-22T13:23:21.188Z</time>
      </trkpt>
      <trkpt lat="44.19917" lon="0.59329">
        <ele>49</ele>
        <time>2026-02-22T13:23:22.189Z</time>
      </trkpt>
      <trkpt lat="44.19918" lon="0.59328">
        <ele>49</ele>
        <time>2026-02-22T13:23:23.188Z</time>
      </trkpt>
      <trkpt lat="44.19918" lon="0.59326">
        <ele>49</ele>
        <time>2026-02-22T13:23:24.188Z</time>
      </trkpt>
      <trkpt lat="44.19919" lon="0.59325">
        <ele>50</ele>
        <time>2026-02-22T13:23:25.188Z</time>
      </trkpt>
      <trkpt lat="44.19919" lon="0.59323">
        <ele>50</ele>
        <time>2026-02-22T13:23:26.188Z</time>
      </trkpt>
      <trkpt lat="44.19919" lon="0.59322">
        <ele>50</ele>
        <time>2026-02-22T13:23:27.188Z</time>
      </trkpt>
      <trkpt lat="44.1992" lon="0.59321">
        <ele>50</ele>
        <time>2026-02-22T13:23:28.188Z</time>
      </trkpt>
      <trkpt lat="44.19921" lon="0.59319">
        <ele>50</ele>
        <time>2026-02-22T13:23:29.188Z</time>
      </trkpt>
      <trkpt lat="44.19921" lon="0.59318">
        <ele>49</ele>
        <time>2026-02-22T13:23:30.188Z</time>
      </trkpt>
      <trkpt lat="44.19922" lon="0.59316">
        <ele>49</ele>
        <time>2026-02-22T13:23:31.188Z</time>
      </trkpt>
      <trkpt lat="44.19922" lon="0.59315">
        <ele>49</ele>
        <time>2026-02-22T13:23:32.188Z</time>
      </trkpt>
      <trkpt lat="44.19923" lon="0.59313">
        <ele>49</ele>
        <time>2026-02-22T13:23:33.188Z</time>
      </trkpt>
      <trkpt lat="44.19923" lon="0.59312">
        <ele>48</ele>
        <time>2026-02-22T13:23:34.188Z</time>
      </trkpt>
      <trkpt lat="44.19924" lon="0.5931">
        <ele>48</ele>
        <time>2026-02-22T13:23:35.188Z</time>
      </trkpt>
      <trkpt lat="44.19924" lon="0.59309">
        <ele>49</ele>
        <time>2026-02-22T13:23:36.189Z</time>
      </trkpt>
      <trkpt lat="44.19925" lon="0.59307">
        <ele>49</ele>
        <time>2026-02-22T13:23:37.188Z</time>
      </trkpt>
      <trkpt lat="44.19926" lon="0.59305">
        <ele>49</ele>
        <time>2026-02-22T13:23:38.189Z</time>
      </trkpt>
      <trkpt lat="44.19926" lon="0.59303">
        <ele>49</ele>
        <time>2026-02-22T13:23:39.188Z</time>
      </trkpt>
      <trkpt lat="44.19927" lon="0.59302">
        <ele>49</ele>
        <time>2026-02-22T13:23:40.188Z</time>
      </trkpt>
      <trkpt lat="44.19927" lon="0.593">
        <ele>49</ele>
        <time>2026-02-22T13:23:41.188Z</time>
      </trkpt>
      <trkpt lat="44.19928" lon="0.59299">
        <ele>49</ele>
        <time>2026-02-22T13:23:42.188Z</time>
      </trkpt>
      <trkpt lat="44.19928" lon="0.59297">
        <ele>49</ele>
        <time>2026-02-22T13:23:43.188Z</time>
      </trkpt>
      <trkpt lat="44.19929" lon="0.59296">
        <ele>49</ele>
        <time>2026-02-22T13:23:44.188Z</time>
      </trkpt>
      <trkpt lat="44.19929" lon="0.59294">
        <ele>49</ele>
        <time>2026-02-22T13:23:45.188Z</time>
      </trkpt>
      <trkpt lat="44.1993" lon="0.59292">
        <ele>50</ele>
        <time>2026-02-22T13:23:46.188Z</time>
      </trkpt>
      <trkpt lat="44.1993" lon="0.5929">
        <ele>50</ele>
        <time>2026-02-22T13:23:47.188Z</time>
      </trkpt>
      <trkpt lat="44.19931" lon="0.59289">
        <ele>50</ele>
        <time>2026-02-22T13:23:48.188Z</time>
      </trkpt>
      <trkpt lat="44.19931" lon="0.59287">
        <ele>50</ele>
        <time>2026-02-22T13:23:49.188Z</time>
      </trkpt>
      <trkpt lat="44.19932" lon="0.59286">
        <ele>49</ele>
        <time>2026-02-22T13:23:50.188Z</time>
      </trkpt>
      <trkpt lat="44.19933" lon="0.59285">
        <ele>49</ele>
        <time>2026-02-22T13:23:51.188Z</time>
      </trkpt>
      <trkpt lat="44.19934" lon="0.59284">
        <ele>48</ele>
        <time>2026-02-22T13:23:52.189Z</time>
      </trkpt>
      <trkpt lat="44.19934" lon="0.59283">
        <ele>48</ele>
        <time>2026-02-22T13:23:53.188Z</time>
      </trkpt>
      <trkpt lat="44.19935" lon="0.59281">
        <ele>48</ele>
        <time>2026-02-22T13:23:54.188Z</time>
      </trkpt>
      <trkpt lat="44.19936" lon="0.59279">
        <ele>48</ele>
        <time>2026-02-22T13:23:55.188Z</time>
      </trkpt>
      <trkpt lat="44.19936" lon="0.59277">
        <ele>48</ele>
        <time>2026-02-22T13:23:56.188Z</time>
      </trkpt>
      <trkpt lat="44.19937" lon="0.59276">
        <ele>48</ele>
        <time>2026-02-22T13:23:57.188Z</time>
      </trkpt>
      <trkpt lat="44.19937" lon="0.59274">
        <ele>49</ele>
        <time>2026-02-22T13:23:58.188Z</time>
      </trkpt>
      <trkpt lat="44.19938" lon="0.59273">
        <ele>49</ele>
        <time>2026-02-22T13:23:59.188Z</time>
      </trkpt>
      <trkpt lat="44.19939" lon="0.59272">
        <ele>49</ele>
        <time>2026-02-22T13:24:00.188Z</time>
      </trkpt>
      <trkpt lat="44.19939" lon="0.5927">
        <ele>49</ele>
        <time>2026-02-22T13:24:01.188Z</time>
      </trkpt>
      <trkpt lat="44.1994" lon="0.59269">
        <ele>49</ele>
        <time>2026-02-22T13:24:02.188Z</time>
      </trkpt>
      <trkpt lat="44.1994" lon="0.59267">
        <ele>49</ele>
        <time>2026-02-22T13:24:03.188Z</time>
      </trkpt>
      <trkpt lat="44.19941" lon="0.59265">
        <ele>49</ele>
        <time>2026-02-22T13:24:04.188Z</time>
      </trkpt>
      <trkpt lat="44.19941" lon="0.59264">
        <ele>49</ele>
        <time>2026-02-22T13:24:05.188Z</time>
      </trkpt>
      <trkpt lat="44.19942" lon="0.59262">
        <ele>50</ele>
        <time>2026-02-22T13:24:06.188Z</time>
      </trkpt>
      <trkpt lat="44.19942" lon="0.5926">
        <ele>50</ele>
        <time>2026-02-22T13:24:07.189Z</time>
      </trkpt>
      <trkpt lat="44.19943" lon="0.59259">
        <ele>50</ele>
        <time>2026-02-22T13:24:08.188Z</time>
      </trkpt>
      <trkpt lat="44.19943" lon="0.59258">
        <ele>50</ele>
        <time>2026-02-22T13:24:09.188Z</time>
      </trkpt>
      <trkpt lat="44.19944" lon="0.59256">
        <ele>50</ele>
        <time>2026-02-22T13:24:10.188Z</time>
      </trkpt>
      <trkpt lat="44.19945" lon="0.59255">
        <ele>50</ele>
        <time>2026-02-22T13:24:11.188Z</time>
      </trkpt>
      <trkpt lat="44.19945" lon="0.59253">
        <ele>50</ele>
        <time>2026-02-22T13:24:12.189Z</time>
      </trkpt>
      <trkpt lat="44.19946" lon="0.59251">
        <ele>49</ele>
        <time>2026-02-22T13:24:13.188Z</time>
      </trkpt>
      <trkpt lat="44.19947" lon="0.5925">
        <ele>49</ele>
        <time>2026-02-22T13:24:14.189Z</time>
      </trkpt>
      <trkpt lat="44.19947" lon="0.59248">
        <ele>49</ele>
        <time>2026-02-22T13:24:15.189Z</time>
      </trkpt>
      <trkpt lat="44.19948" lon="0.59247">
        <ele>49</ele>
        <time>2026-02-22T13:24:16.188Z</time>
      </trkpt>
      <trkpt lat="44.19949" lon="0.59246">
        <ele>49</ele>
        <time>2026-02-22T13:24:17.188Z</time>
      </trkpt>
      <trkpt lat="44.19949" lon="0.59244">
        <ele>49</ele>
        <time>2026-02-22T13:24:18.188Z</time>
      </trkpt>
      <trkpt lat="44.1995" lon="0.59243">
        <ele>49</ele>
        <time>2026-02-22T13:24:19.188Z</time>
      </trkpt>
      <trkpt lat="44.19951" lon="0.59242">
        <ele>50</ele>
        <time>2026-02-22T13:24:20.189Z</time>
      </trkpt>
      <trkpt lat="44.19951" lon="0.5924">
        <ele>50</ele>
        <time>2026-02-22T13:24:21.188Z</time>
      </trkpt>
      <trkpt lat="44.19952" lon="0.59238">
        <ele>50</ele>
        <time>2026-02-22T13:24:22.189Z</time>
      </trkpt>
      <trkpt lat="44.19953" lon="0.59237">
        <ele>50</ele>
        <time>2026-02-22T13:24:23.188Z</time>
      </trkpt>
      <trkpt lat="44.19953" lon="0.59236">
        <ele>50</ele>
        <time>2026-02-22T13:24:24.188Z</time>
      </trkpt>
      <trkpt lat="44.19954" lon="0.59234">
        <ele>50</ele>
        <time>2026-02-22T13:24:25.188Z</time>
      </trkpt>
      <trkpt lat="44.19954" lon="0.59233">
        <ele>50</ele>
        <time>2026-02-22T13:24:26.188Z</time>
      </trkpt>
      <trkpt lat="44.19955" lon="0.59232">
        <ele>50</ele>
        <time>2026-02-22T13:24:27.188Z</time>
      </trkpt>
      <trkpt lat="44.19956" lon="0.59231">
        <ele>50</ele>
        <time>2026-02-22T13:24:28.188Z</time>
      </trkpt>
      <trkpt lat="44.19957" lon="0.59229">
        <ele>50</ele>
        <time>2026-02-22T13:24:29.188Z</time>
      </trkpt>
      <trkpt lat="44.19957" lon="0.59228">
        <ele>50</ele>
        <time>2026-02-22T13:24:30.188Z</time>
      </trkpt>
      <trkpt lat="44.19958" lon="0.59226">
        <ele>50</ele>
        <time>2026-02-22T13:24:31.188Z</time>
      </trkpt>
      <trkpt lat="44.19959" lon="0.59224">
        <ele>50</ele>
        <time>2026-02-22T13:24:32.188Z</time>
      </trkpt>
      <trkpt lat="44.19959" lon="0.59223">
        <ele>50</ele>
        <time>2026-02-22T13:24:33.188Z</time>
      </trkpt>
      <trkpt lat="44.19959" lon="0.59221">
        <ele>50</ele>
        <time>2026-02-22T13:24:34.188Z</time>
      </trkpt>
      <trkpt lat="44.1996" lon="0.5922">
        <ele>50</ele>
        <time>2026-02-22T13:24:35.188Z</time>
      </trkpt>
      <trkpt lat="44.19961" lon="0.59219">
        <ele>51</ele>
        <time>2026-02-22T13:24:36.188Z</time>
      </trkpt>
      <trkpt lat="44.19961" lon="0.59217">
        <ele>51</ele>
        <time>2026-02-22T13:24:37.188Z</time>
      </trkpt>
      <trkpt lat="44.19962" lon="0.59215">
        <ele>51</ele>
        <time>2026-02-22T13:24:38.188Z</time>
      </trkpt>
      <trkpt lat="44.19963" lon="0.59214">
        <ele>51</ele>
        <time>2026-02-22T13:24:39.188Z</time>
      </trkpt>
      <trkpt lat="44.19963" lon="0.59213">
        <ele>51</ele>
        <time>2026-02-22T13:24:40.188Z</time>
      </trkpt>
      <trkpt lat="44.19964" lon="0.59211">
        <ele>50</ele>
        <time>2026-02-22T13:24:41.188Z</time>
      </trkpt>
      <trkpt lat="44.19964" lon="0.5921">
        <ele>50</ele>
        <time>2026-02-22T13:24:42.188Z</time>
      </trkpt>
      <trkpt lat="44.19965" lon="0.59209">
        <ele>50</ele>
        <time>2026-02-22T13:24:43.188Z</time>
      </trkpt>
      <trkpt lat="44.19966" lon="0.59208">
        <ele>50</ele>
        <time>2026-02-22T13:24:44.188Z</time>
      </trkpt>
      <trkpt lat="44.19966" lon="0.59206">
        <ele>50</ele>
        <time>2026-02-22T13:24:45.188Z</time>
      </trkpt>
      <trkpt lat="44.19967" lon="0.59204">
        <ele>51</ele>
        <time>2026-02-22T13:24:46.188Z</time>
      </trkpt>
      <trkpt lat="44.19967" lon="0.59202">
        <ele>51</ele>
        <time>2026-02-22T13:24:47.188Z</time>
      </trkpt>
      <trkpt lat="44.19968" lon="0.59201">
        <ele>51</ele>
        <time>2026-02-22T13:24:48.189Z</time>
      </trkpt>
      <trkpt lat="44.19969" lon="0.59199">
        <ele>51</ele>
        <time>2026-02-22T13:24:49.188Z</time>
      </trkpt>
      <trkpt lat="44.19969" lon="0.59198">
        <ele>51</ele>
        <time>2026-02-22T13:24:50.188Z</time>
      </trkpt>
      <trkpt lat="44.1997" lon="0.59196">
        <ele>52</ele>
        <time>2026-02-22T13:24:51.188Z</time>
      </trkpt>
      <trkpt lat="44.1997" lon="0.59195">
        <ele>52</ele>
        <time>2026-02-22T13:24:52.189Z</time>
      </trkpt>
      <trkpt lat="44.19971" lon="0.59193">
        <ele>51</ele>
        <time>2026-02-22T13:24:53.188Z</time>
      </trkpt>
      <trkpt lat="44.19972" lon="0.59192">
        <ele>51</ele>
        <time>2026-02-22T13:24:54.188Z</time>
      </trkpt>
      <trkpt lat="44.19972" lon="0.5919">
        <ele>50</ele>
        <time>2026-02-22T13:24:55.188Z</time>
      </trkpt>
      <trkpt lat="44.19973" lon="0.59188">
        <ele>50</ele>
        <time>2026-02-22T13:24:56.188Z</time>
      </trkpt>
      <trkpt lat="44.19974" lon="0.59187">
        <ele>49</ele>
        <time>2026-02-22T13:24:57.188Z</time>
      </trkpt>
      <trkpt lat="44.19975" lon="0.59186">
        <ele>49</ele>
        <time>2026-02-22T13:24:58.188Z</time>
      </trkpt>
      <trkpt lat="44.19976" lon="0.59185">
        <ele>49</ele>
        <time>2026-02-22T13:24:59.188Z</time>
      </trkpt>
      <trkpt lat="44.19976" lon="0.59183">
        <ele>49</ele>
        <time>2026-02-22T13:25:00.188Z</time>
      </trkpt>
      <trkpt lat="44.19977" lon="0.59182">
        <ele>50</ele>
        <time>2026-02-22T13:25:01.188Z</time>
      </trkpt>
      <trkpt lat="44.19978" lon="0.5918">
        <ele>50</ele>
        <time>2026-02-22T13:25:02.188Z</time>
      </trkpt>
      <trkpt lat="44.19978" lon="0.59179">
        <ele>50</ele>
        <time>2026-02-22T13:25:03.189Z</time>
      </trkpt>
      <trkpt lat="44.19979" lon="0.59177">
        <ele>51</ele>
        <time>2026-02-22T13:25:04.188Z</time>
      </trkpt>
      <trkpt lat="44.19979" lon="0.59176">
        <ele>51</ele>
        <time>2026-02-22T13:25:05.188Z</time>
      </trkpt>
      <trkpt lat="44.1998" lon="0.59174">
        <ele>51</ele>
        <time>2026-02-22T13:25:06.188Z</time>
      </trkpt>
      <trkpt lat="44.19981" lon="0.59173">
        <ele>51</ele>
        <time>2026-02-22T13:25:07.188Z</time>
      </trkpt>
      <trkpt lat="44.19982" lon="0.59171">
        <ele>51</ele>
        <time>2026-02-22T13:25:08.188Z</time>
      </trkpt>
      <trkpt lat="44.19982" lon="0.5917">
        <ele>51</ele>
        <time>2026-02-22T13:25:09.188Z</time>
      </trkpt>
      <trkpt lat="44.19983" lon="0.59168">
        <ele>51</ele>
        <time>2026-02-22T13:25:10.188Z</time>
      </trkpt>
      <trkpt lat="44.19983" lon="0.59167">
        <ele>51</ele>
        <time>2026-02-22T13:25:11.188Z</time>
      </trkpt>
      <trkpt lat="44.19984" lon="0.59166">
        <ele>51</ele>
        <time>2026-02-22T13:25:12.188Z</time>
      </trkpt>
      <trkpt lat="44.19985" lon="0.59165">
        <ele>51</ele>
        <time>2026-02-22T13:25:13.188Z</time>
      </trkpt>
      <trkpt lat="44.19985" lon="0.59164">
        <ele>52</ele>
        <time>2026-02-22T13:25:14.188Z</time>
      </trkpt>
      <trkpt lat="44.19986" lon="0.59163">
        <ele>52</ele>
        <time>2026-02-22T13:25:15.188Z</time>
      </trkpt>
      <trkpt lat="44.19987" lon="0.59161">
        <ele>52</ele>
        <time>2026-02-22T13:25:16.189Z</time>
      </trkpt>
      <trkpt lat="44.19987" lon="0.5916">
        <ele>52</ele>
        <time>2026-02-22T13:25:17.188Z</time>
      </trkpt>
      <trkpt lat="44.19988" lon="0.59159">
        <ele>51</ele>
        <time>2026-02-22T13:25:18.188Z</time>
      </trkpt>
      <trkpt lat="44.19989" lon="0.59157">
        <ele>51</ele>
        <time>2026-02-22T13:25:19.188Z</time>
      </trkpt>
      <trkpt lat="44.1999" lon="0.59156">
        <ele>51</ele>
        <time>2026-02-22T13:25:20.188Z</time>
      </trkpt>
      <trkpt lat="44.1999" lon="0.59155">
        <ele>51</ele>
        <time>2026-02-22T13:25:21.188Z</time>
      </trkpt>
      <trkpt lat="44.19991" lon="0.59154">
        <ele>51</ele>
        <time>2026-02-22T13:25:22.188Z</time>
      </trkpt>
      <trkpt lat="44.19991" lon="0.59152">
        <ele>51</ele>
        <time>2026-02-22T13:25:23.188Z</time>
      </trkpt>
      <trkpt lat="44.19992" lon="0.59151">
        <ele>51</ele>
        <time>2026-02-22T13:25:24.188Z</time>
      </trkpt>
      <trkpt lat="44.19993" lon="0.5915">
        <ele>51</ele>
        <time>2026-02-22T13:25:25.188Z</time>
      </trkpt>
      <trkpt lat="44.19993" lon="0.59149">
        <ele>51</ele>
        <time>2026-02-22T13:25:26.188Z</time>
      </trkpt>
      <trkpt lat="44.19994" lon="0.59147">
        <ele>51</ele>
        <time>2026-02-22T13:25:27.188Z</time>
      </trkpt>
      <trkpt lat="44.19995" lon="0.59146">
        <ele>51</ele>
        <time>2026-02-22T13:25:28.189Z</time>
      </trkpt>
      <trkpt lat="44.19995" lon="0.59145">
        <ele>51</ele>
        <time>2026-02-22T13:25:29.189Z</time>
      </trkpt>
      <trkpt lat="44.19996" lon="0.59144">
        <ele>51</ele>
        <time>2026-02-22T13:25:30.189Z</time>
      </trkpt>
      <trkpt lat="44.19997" lon="0.59143">
        <ele>50</ele>
        <time>2026-02-22T13:25:31.188Z</time>
      </trkpt>
      <trkpt lat="44.19997" lon="0.59142">
        <ele>50</ele>
        <time>2026-02-22T13:25:32.188Z</time>
      </trkpt>
      <trkpt lat="44.19998" lon="0.59142">
        <ele>50</ele>
        <time>2026-02-22T13:25:33.188Z</time>
      </trkpt>
      <trkpt lat="44.19999" lon="0.59141">
        <ele>50</ele>
        <time>2026-02-22T13:25:34.188Z</time>
      </trkpt>
      <trkpt lat="44.19999" lon="0.59139">
        <ele>49</ele>
        <time>2026-02-22T13:25:35.188Z</time>
      </trkpt>
      <trkpt lat="44.2" lon="0.59138">
        <ele>49</ele>
        <time>2026-02-22T13:25:36.188Z</time>
      </trkpt>
      <trkpt lat="44.2" lon="0.59137">
        <ele>49</ele>
        <time>2026-02-22T13:25:37.188Z</time>
      </trkpt>
      <trkpt lat="44.20001" lon="0.59135">
        <ele>49</ele>
        <time>2026-02-22T13:25:38.188Z</time>
      </trkpt>
      <trkpt lat="44.20002" lon="0.59134">
        <ele>49</ele>
        <time>2026-02-22T13:25:39.188Z</time>
      </trkpt>
      <trkpt lat="44.20002" lon="0.59133">
        <ele>49</ele>
        <time>2026-02-22T13:25:40.188Z</time>
      </trkpt>
      <trkpt lat="44.20003" lon="0.59131">
        <ele>49</ele>
        <time>2026-02-22T13:25:41.188Z</time>
      </trkpt>
      <trkpt lat="44.20004" lon="0.5913">
        <ele>49</ele>
        <time>2026-02-22T13:25:42.189Z</time>
      </trkpt>
      <trkpt lat="44.20005" lon="0.59129">
        <ele>48</ele>
        <time>2026-02-22T13:25:43.188Z</time>
      </trkpt>
      <trkpt lat="44.20006" lon="0.59127">
        <ele>49</ele>
        <time>2026-02-22T13:25:44.189Z</time>
      </trkpt>
      <trkpt lat="44.20007" lon="0.59126">
        <ele>48</ele>
        <time>2026-02-22T13:25:45.188Z</time>
      </trkpt>
      <trkpt lat="44.20007" lon="0.59124">
        <ele>48</ele>
        <time>2026-02-22T13:25:46.188Z</time>
      </trkpt>
      <trkpt lat="44.20008" lon="0.59123">
        <ele>48</ele>
        <time>2026-02-22T13:25:47.188Z</time>
      </trkpt>
      <trkpt lat="44.20008" lon="0.59121">
        <ele>48</ele>
        <time>2026-02-22T13:25:48.188Z</time>
      </trkpt>
      <trkpt lat="44.20009" lon="0.5912">
        <ele>48</ele>
        <time>2026-02-22T13:25:49.188Z</time>
      </trkpt>
      <trkpt lat="44.2001" lon="0.59119">
        <ele>48</ele>
        <time>2026-02-22T13:25:50.188Z</time>
      </trkpt>
      <trkpt lat="44.2001" lon="0.59117">
        <ele>48</ele>
        <time>2026-02-22T13:25:51.188Z</time>
      </trkpt>
      <trkpt lat="44.20011" lon="0.59116">
        <ele>48</ele>
        <time>2026-02-22T13:25:52.188Z</time>
      </trkpt>
      <trkpt lat="44.20012" lon="0.59114">
        <ele>48</ele>
        <time>2026-02-22T13:25:53.188Z</time>
      </trkpt>
      <trkpt lat="44.20012" lon="0.59113">
        <ele>47</ele>
        <time>2026-02-22T13:25:54.188Z</time>
      </trkpt>
      <trkpt lat="44.20013" lon="0.59112">
        <ele>47</ele>
        <time>2026-02-22T13:25:55.188Z</time>
      </trkpt>
      <trkpt lat="44.20013" lon="0.59111">
        <ele>46</ele>
        <time>2026-02-22T13:25:56.188Z</time>
      </trkpt>
      <trkpt lat="44.20014" lon="0.5911">
        <ele>46</ele>
        <time>2026-02-22T13:25:57.189Z</time>
      </trkpt>
      <trkpt lat="44.20014" lon="0.59108">
        <ele>47</ele>
        <time>2026-02-22T13:25:58.188Z</time>
      </trkpt>
      <trkpt lat="44.20015" lon="0.59107">
        <ele>47</ele>
        <time>2026-02-22T13:25:59.188Z</time>
      </trkpt>
      <trkpt lat="44.20016" lon="0.59106">
        <ele>46</ele>
        <time>2026-02-22T13:26:00.188Z</time>
      </trkpt>
      <trkpt lat="44.20017" lon="0.59104">
        <ele>46</ele>
        <time>2026-02-22T13:26:01.188Z</time>
      </trkpt>
      <trkpt lat="44.20018" lon="0.59103">
        <ele>46</ele>
        <time>2026-02-22T13:26:02.188Z</time>
      </trkpt>
      <trkpt lat="44.20018" lon="0.59102">
        <ele>45</ele>
        <time>2026-02-22T13:26:03.188Z</time>
      </trkpt>
      <trkpt lat="44.20019" lon="0.591">
        <ele>45</ele>
        <time>2026-02-22T13:26:04.189Z</time>
      </trkpt>
      <trkpt lat="44.2002" lon="0.59099">
        <ele>45</ele>
        <time>2026-02-22T13:26:05.188Z</time>
      </trkpt>
      <trkpt lat="44.2002" lon="0.59098">
        <ele>45</ele>
        <time>2026-02-22T13:26:06.189Z</time>
      </trkpt>
      <trkpt lat="44.20021" lon="0.59096">
        <ele>45</ele>
        <time>2026-02-22T13:26:07.189Z</time>
      </trkpt>
      <trkpt lat="44.20022" lon="0.59095">
        <ele>46</ele>
        <time>2026-02-22T13:26:08.188Z</time>
      </trkpt>
      <trkpt lat="44.20022" lon="0.59094">
        <ele>46</ele>
        <time>2026-02-22T13:26:09.188Z</time>
      </trkpt>
      <trkpt lat="44.20023" lon="0.59092">
        <ele>46</ele>
        <time>2026-02-22T13:26:10.189Z</time>
      </trkpt>
      <trkpt lat="44.20023" lon="0.59091">
        <ele>47</ele>
        <time>2026-02-22T13:26:11.188Z</time>
      </trkpt>
      <trkpt lat="44.20024" lon="0.59089">
        <ele>47</ele>
        <time>2026-02-22T13:26:12.189Z</time>
      </trkpt>
      <trkpt lat="44.20025" lon="0.59088">
        <ele>47</ele>
        <time>2026-02-22T13:26:13.188Z</time>
      </trkpt>
      <trkpt lat="44.20025" lon="0.59086">
        <ele>48</ele>
        <time>2026-02-22T13:26:14.188Z</time>
      </trkpt>
      <trkpt lat="44.20026" lon="0.59085">
        <ele>48</ele>
        <time>2026-02-22T13:26:15.188Z</time>
      </trkpt>
      <trkpt lat="44.20027" lon="0.59083">
        <ele>48</ele>
        <time>2026-02-22T13:26:16.188Z</time>
      </trkpt>
      <trkpt lat="44.20027" lon="0.59081">
        <ele>48</ele>
        <time>2026-02-22T13:26:17.188Z</time>
      </trkpt>
      <trkpt lat="44.20028" lon="0.5908">
        <ele>48</ele>
        <time>2026-02-22T13:26:18.188Z</time>
      </trkpt>
      <trkpt lat="44.20029" lon="0.59079">
        <ele>49</ele>
        <time>2026-02-22T13:26:19.188Z</time>
      </trkpt>
      <trkpt lat="44.20029" lon="0.59078">
        <ele>49</ele>
        <time>2026-02-22T13:26:20.188Z</time>
      </trkpt>
      <trkpt lat="44.2003" lon="0.59077">
        <ele>49</ele>
        <time>2026-02-22T13:26:21.188Z</time>
      </trkpt>
      <trkpt lat="44.20031" lon="0.59076">
        <ele>49</ele>
        <time>2026-02-22T13:26:22.188Z</time>
      </trkpt>
      <trkpt lat="44.20032" lon="0.59075">
        <ele>49</ele>
        <time>2026-02-22T13:26:23.188Z</time>
      </trkpt>
      <trkpt lat="44.20032" lon="0.59073">
        <ele>49</ele>
        <time>2026-02-22T13:26:24.188Z</time>
      </trkpt>
      <trkpt lat="44.20033" lon="0.59073">
        <ele>49</ele>
        <time>2026-02-22T13:26:25.189Z</time>
      </trkpt>
      <trkpt lat="44.20034" lon="0.59072">
        <ele>49</ele>
        <time>2026-02-22T13:26:26.188Z</time>
      </trkpt>
      <trkpt lat="44.20035" lon="0.59071">
        <ele>49</ele>
        <time>2026-02-22T13:26:27.188Z</time>
      </trkpt>
      <trkpt lat="44.20035" lon="0.59071">
        <ele>49</ele>
        <time>2026-02-22T13:26:28.188Z</time>
      </trkpt>
      <trkpt lat="44.20036" lon="0.5907">
        <ele>49</ele>
        <time>2026-02-22T13:26:29.188Z</time>
      </trkpt>
      <trkpt lat="44.20036" lon="0.5907">
        <ele>49</ele>
        <time>2026-02-22T13:26:30.188Z</time>
      </trkpt>
      <trkpt lat="44.20036" lon="0.59069">
        <ele>49</ele>
        <time>2026-02-22T13:26:31.188Z</time>
      </trkpt>
      <trkpt lat="44.20036" lon="0.59069">
        <ele>49</ele>
        <time>2026-02-22T13:26:32.188Z</time>
      </trkpt>
      <trkpt lat="44.20036" lon="0.59068">
        <ele>49</ele>
        <time>2026-02-22T13:26:33.188Z</time>
      </trkpt>
      <trkpt lat="44.20036" lon="0.59068">
        <ele>49</ele>
        <time>2026-02-22T13:26:34.188Z</time>
      </trkpt>
      <trkpt lat="44.20036" lon="0.59067">
        <ele>49</ele>
        <time>2026-02-22T13:26:35.188Z</time>
      </trkpt>
      <trkpt lat="44.20036" lon="0.59065">
        <ele>49</ele>
        <time>2026-02-22T13:26:36.188Z</time>
      </trkpt>
      <trkpt lat="44.20037" lon="0.59064">
        <ele>49</ele>
        <time>2026-02-22T13:26:37.188Z</time>
      </trkpt>
      <trkpt lat="44.20037" lon="0.59062">
        <ele>49</ele>
        <time>2026-02-22T13:26:38.189Z</time>
      </trkpt>
      <trkpt lat="44.20038" lon="0.59061">
        <ele>50</ele>
        <time>2026-02-22T13:26:39.188Z</time>
      </trkpt>
      <trkpt lat="44.20038" lon="0.5906">
        <ele>50</ele>
        <time>2026-02-22T13:26:40.189Z</time>
      </trkpt>
      <trkpt lat="44.20039" lon="0.59058">
        <ele>51</ele>
        <time>2026-02-22T13:26:41.188Z</time>
      </trkpt>
      <trkpt lat="44.2004" lon="0.59057">
        <ele>51</ele>
        <time>2026-02-22T13:26:42.188Z</time>
      </trkpt>
      <trkpt lat="44.20041" lon="0.59056">
        <ele>51</ele>
        <time>2026-02-22T13:26:43.188Z</time>
      </trkpt>
      <trkpt lat="44.20041" lon="0.59054">
        <ele>51</ele>
        <time>2026-02-22T13:26:44.188Z</time>
      </trkpt>
      <trkpt lat="44.20042" lon="0.59053">
        <ele>51</ele>
        <time>2026-02-22T13:26:45.189Z</time>
      </trkpt>
      <trkpt lat="44.20042" lon="0.59052">
        <ele>51</ele>
        <time>2026-02-22T13:26:46.188Z</time>
      </trkpt>
      <trkpt lat="44.20043" lon="0.59051">
        <ele>51</ele>
        <time>2026-02-22T13:26:47.188Z</time>
      </trkpt>
      <trkpt lat="44.20043" lon="0.5905">
        <ele>51</ele>
        <time>2026-02-22T13:26:48.188Z</time>
      </trkpt>
      <trkpt lat="44.20044" lon="0.59049">
        <ele>51</ele>
        <time>2026-02-22T13:26:49.188Z</time>
      </trkpt>
      <trkpt lat="44.20045" lon="0.59048">
        <ele>50</ele>
        <time>2026-02-22T13:26:50.188Z</time>
      </trkpt>
      <trkpt lat="44.20046" lon="0.59046">
        <ele>49</ele>
        <time>2026-02-22T13:26:51.188Z</time>
      </trkpt>
      <trkpt lat="44.20046" lon="0.59045">
        <ele>49</ele>
        <time>2026-02-22T13:26:52.188Z</time>
      </trkpt>
      <trkpt lat="44.20047" lon="0.59045">
        <ele>49</ele>
        <time>2026-02-22T13:26:53.188Z</time>
      </trkpt>
      <trkpt lat="44.20047" lon="0.59043">
        <ele>49</ele>
        <time>2026-02-22T13:26:54.188Z</time>
      </trkpt>
      <trkpt lat="44.20048" lon="0.59042">
        <ele>49</ele>
        <time>2026-02-22T13:26:55.189Z</time>
      </trkpt>
      <trkpt lat="44.20049" lon="0.5904">
        <ele>49</ele>
        <time>2026-02-22T13:26:56.188Z</time>
      </trkpt>
      <trkpt lat="44.20049" lon="0.59039">
        <ele>49</ele>
        <time>2026-02-22T13:26:57.188Z</time>
      </trkpt>
      <trkpt lat="44.2005" lon="0.59037">
        <ele>49</ele>
        <time>2026-02-22T13:26:58.188Z</time>
      </trkpt>
      <trkpt lat="44.20051" lon="0.59036">
        <ele>49</ele>
        <time>2026-02-22T13:26:59.188Z</time>
      </trkpt>
      <trkpt lat="44.20051" lon="0.59034">
        <ele>49</ele>
        <time>2026-02-22T13:27:00.188Z</time>
      </trkpt>
      <trkpt lat="44.20052" lon="0.59033">
        <ele>49</ele>
        <time>2026-02-22T13:27:01.188Z</time>
      </trkpt>
      <trkpt lat="44.20052" lon="0.59032">
        <ele>49</ele>
        <time>2026-02-22T13:27:02.188Z</time>
      </trkpt>
      <trkpt lat="44.20053" lon="0.5903">
        <ele>49</ele>
        <time>2026-02-22T13:27:03.188Z</time>
      </trkpt>
      <trkpt lat="44.20053" lon="0.59029">
        <ele>49</ele>
        <time>2026-02-22T13:27:04.188Z</time>
      </trkpt>
      <trkpt lat="44.20054" lon="0.59027">
        <ele>49</ele>
        <time>2026-02-22T13:27:05.188Z</time>
      </trkpt>
      <trkpt lat="44.20055" lon="0.59026">
        <ele>49</ele>
        <time>2026-02-22T13:27:06.188Z</time>
      </trkpt>
      <trkpt lat="44.20056" lon="0.59024">
        <ele>48</ele>
        <time>2026-02-22T13:27:07.188Z</time>
      </trkpt>
      <trkpt lat="44.20056" lon="0.59023">
        <ele>48</ele>
        <time>2026-02-22T13:27:08.189Z</time>
      </trkpt>
      <trkpt lat="44.20057" lon="0.59022">
        <ele>48</ele>
        <time>2026-02-22T13:27:09.188Z</time>
      </trkpt>
      <trkpt lat="44.20057" lon="0.59021">
        <ele>48</ele>
        <time>2026-02-22T13:27:10.189Z</time>
      </trkpt>
      <trkpt lat="44.20058" lon="0.5902">
        <ele>48</ele>
        <time>2026-02-22T13:27:11.188Z</time>
      </trkpt>
      <trkpt lat="44.20059" lon="0.59018">
        <ele>48</ele>
        <time>2026-02-22T13:27:12.188Z</time>
      </trkpt>
      <trkpt lat="44.20059" lon="0.59017">
        <ele>48</ele>
        <time>2026-02-22T13:27:13.188Z</time>
      </trkpt>
      <trkpt lat="44.2006" lon="0.59015">
        <ele>48</ele>
        <time>2026-02-22T13:27:14.188Z</time>
      </trkpt>
      <trkpt lat="44.20061" lon="0.59014">
        <ele>48</ele>
        <time>2026-02-22T13:27:15.188Z</time>
      </trkpt>
      <trkpt lat="44.20061" lon="0.59012">
        <ele>48</ele>
        <time>2026-02-22T13:27:16.188Z</time>
      </trkpt>
      <trkpt lat="44.20062" lon="0.59011">
        <ele>48</ele>
        <time>2026-02-22T13:27:17.188Z</time>
      </trkpt>
      <trkpt lat="44.20062" lon="0.59009">
        <ele>48</ele>
        <time>2026-02-22T13:27:18.188Z</time>
      </trkpt>
      <trkpt lat="44.20063" lon="0.59008">
        <ele>48</ele>
        <time>2026-02-22T13:27:19.188Z</time>
      </trkpt>
      <trkpt lat="44.20063" lon="0.59006">
        <ele>49</ele>
        <time>2026-02-22T13:27:20.188Z</time>
      </trkpt>
      <trkpt lat="44.20064" lon="0.59005">
        <ele>49</ele>
        <time>2026-02-22T13:27:21.188Z</time>
      </trkpt>
      <trkpt lat="44.20065" lon="0.59003">
        <ele>48</ele>
        <time>2026-02-22T13:27:22.189Z</time>
      </trkpt>
      <trkpt lat="44.20065" lon="0.59001">
        <ele>48</ele>
        <time>2026-02-22T13:27:23.188Z</time>
      </trkpt>
      <trkpt lat="44.20066" lon="0.59">
        <ele>48</ele>
        <time>2026-02-22T13:27:24.188Z</time>
      </trkpt>
      <trkpt lat="44.20067" lon="0.58999">
        <ele>48</ele>
        <time>2026-02-22T13:27:25.188Z</time>
      </trkpt>
      <trkpt lat="44.20067" lon="0.58997">
        <ele>48</ele>
        <time>2026-02-22T13:27:26.188Z</time>
      </trkpt>
      <trkpt lat="44.20068" lon="0.58996">
        <ele>48</ele>
        <time>2026-02-22T13:27:27.188Z</time>
      </trkpt>
      <trkpt lat="44.20068" lon="0.58994">
        <ele>48</ele>
        <time>2026-02-22T13:27:28.188Z</time>
      </trkpt>
      <trkpt lat="44.20069" lon="0.58993">
        <ele>48</ele>
        <time>2026-02-22T13:27:29.188Z</time>
      </trkpt>
      <trkpt lat="44.2007" lon="0.58991">
        <ele>48</ele>
        <time>2026-02-22T13:27:30.188Z</time>
      </trkpt>
      <trkpt lat="44.20071" lon="0.5899">
        <ele>48</ele>
        <time>2026-02-22T13:27:31.188Z</time>
      </trkpt>
      <trkpt lat="44.20072" lon="0.58988">
        <ele>48</ele>
        <time>2026-02-22T13:27:32.188Z</time>
      </trkpt>
      <trkpt lat="44.20072" lon="0.58987">
        <ele>48</ele>
        <time>2026-02-22T13:27:33.188Z</time>
      </trkpt>
      <trkpt lat="44.20073" lon="0.58986">
        <ele>48</ele>
        <time>2026-02-22T13:27:34.188Z</time>
      </trkpt>
      <trkpt lat="44.20073" lon="0.58984">
        <ele>48</ele>
        <time>2026-02-22T13:27:35.188Z</time>
      </trkpt>
      <trkpt lat="44.20074" lon="0.58983">
        <ele>48</ele>
        <time>2026-02-22T13:27:36.189Z</time>
      </trkpt>
      <trkpt lat="44.20075" lon="0.58982">
        <ele>48</ele>
        <time>2026-02-22T13:27:37.188Z</time>
      </trkpt>
      <trkpt lat="44.20075" lon="0.5898">
        <ele>48</ele>
        <time>2026-02-22T13:27:38.188Z</time>
      </trkpt>
      <trkpt lat="44.20076" lon="0.58979">
        <ele>48</ele>
        <time>2026-02-22T13:27:39.188Z</time>
      </trkpt>
      <trkpt lat="44.20076" lon="0.58977">
        <ele>48</ele>
        <time>2026-02-22T13:27:40.188Z</time>
      </trkpt>
      <trkpt lat="44.20077" lon="0.58976">
        <ele>48</ele>
        <time>2026-02-22T13:27:41.188Z</time>
      </trkpt>
      <trkpt lat="44.20078" lon="0.58975">
        <ele>48</ele>
        <time>2026-02-22T13:27:42.188Z</time>
      </trkpt>
      <trkpt lat="44.20079" lon="0.58973">
        <ele>48</ele>
        <time>2026-02-22T13:27:43.188Z</time>
      </trkpt>
      <trkpt lat="44.2008" lon="0.58972">
        <ele>48</ele>
        <time>2026-02-22T13:27:44.188Z</time>
      </trkpt>
      <trkpt lat="44.2008" lon="0.58971">
        <ele>48</ele>
        <time>2026-02-22T13:27:45.188Z</time>
      </trkpt>
      <trkpt lat="44.20081" lon="0.58969">
        <ele>49</ele>
        <time>2026-02-22T13:27:46.188Z</time>
      </trkpt>
      <trkpt lat="44.20081" lon="0.58968">
        <ele>49</ele>
        <time>2026-02-22T13:27:47.188Z</time>
      </trkpt>
      <trkpt lat="44.20082" lon="0.58966">
        <ele>49</ele>
        <time>2026-02-22T13:27:48.188Z</time>
      </trkpt>
      <trkpt lat="44.20082" lon="0.58965">
        <ele>49</ele>
        <time>2026-02-22T13:27:49.188Z</time>
      </trkpt>
      <trkpt lat="44.20083" lon="0.58963">
        <ele>48</ele>
        <time>2026-02-22T13:27:50.188Z</time>
      </trkpt>
      <trkpt lat="44.20084" lon="0.58962">
        <ele>48</ele>
        <time>2026-02-22T13:27:51.188Z</time>
      </trkpt>
      <trkpt lat="44.20084" lon="0.5896">
        <ele>48</ele>
        <time>2026-02-22T13:27:52.188Z</time>
      </trkpt>
      <trkpt lat="44.20085" lon="0.58959">
        <ele>48</ele>
        <time>2026-02-22T13:27:53.188Z</time>
      </trkpt>
      <trkpt lat="44.20085" lon="0.58957">
        <ele>48</ele>
        <time>2026-02-22T13:27:54.188Z</time>
      </trkpt>
      <trkpt lat="44.20086" lon="0.58956">
        <ele>48</ele>
        <time>2026-02-22T13:27:55.188Z</time>
      </trkpt>
      <trkpt lat="44.20087" lon="0.58954">
        <ele>48</ele>
        <time>2026-02-22T13:27:56.188Z</time>
      </trkpt>
      <trkpt lat="44.20088" lon="0.58952">
        <ele>48</ele>
        <time>2026-02-22T13:27:57.188Z</time>
      </trkpt>
      <trkpt lat="44.20089" lon="0.5895">
        <ele>48</ele>
        <time>2026-02-22T13:27:58.189Z</time>
      </trkpt>
      <trkpt lat="44.20089" lon="0.58949">
        <ele>48</ele>
        <time>2026-02-22T13:27:59.188Z</time>
      </trkpt>
      <trkpt lat="44.2009" lon="0.58948">
        <ele>48</ele>
        <time>2026-02-22T13:28:00.189Z</time>
      </trkpt>
      <trkpt lat="44.2009" lon="0.58947">
        <ele>48</ele>
        <time>2026-02-22T13:28:01.188Z</time>
      </trkpt>
      <trkpt lat="44.20091" lon="0.58946">
        <ele>48</ele>
        <time>2026-02-22T13:28:02.188Z</time>
      </trkpt>
      <trkpt lat="44.20092" lon="0.58944">
        <ele>48</ele>
        <time>2026-02-22T13:28:03.188Z</time>
      </trkpt>
      <trkpt lat="44.20093" lon="0.58943">
        <ele>48</ele>
        <time>2026-02-22T13:28:04.189Z</time>
      </trkpt>
      <trkpt lat="44.20093" lon="0.58941">
        <ele>48</ele>
        <time>2026-02-22T13:28:05.188Z</time>
      </trkpt>
      <trkpt lat="44.20094" lon="0.5894">
        <ele>48</ele>
        <time>2026-02-22T13:28:06.188Z</time>
      </trkpt>
      <trkpt lat="44.20095" lon="0.58939">
        <ele>48</ele>
        <time>2026-02-22T13:28:07.188Z</time>
      </trkpt>
      <trkpt lat="44.20096" lon="0.58938">
        <ele>48</ele>
        <time>2026-02-22T13:28:08.188Z</time>
      </trkpt>
      <trkpt lat="44.20097" lon="0.58937">
        <ele>48</ele>
        <time>2026-02-22T13:28:09.188Z</time>
      </trkpt>
      <trkpt lat="44.20098" lon="0.58936">
        <ele>48</ele>
        <time>2026-02-22T13:28:10.188Z</time>
      </trkpt>
      <trkpt lat="44.20098" lon="0.58935">
        <ele>49</ele>
        <time>2026-02-22T13:28:11.188Z</time>
      </trkpt>
      <trkpt lat="44.20099" lon="0.58934">
        <ele>49</ele>
        <time>2026-02-22T13:28:12.188Z</time>
      </trkpt>
      <trkpt lat="44.20099" lon="0.58933">
        <ele>49</ele>
        <time>2026-02-22T13:28:13.188Z</time>
      </trkpt>
      <trkpt lat="44.201" lon="0.58931">
        <ele>49</ele>
        <time>2026-02-22T13:28:14.188Z</time>
      </trkpt>
      <trkpt lat="44.20101" lon="0.5893">
        <ele>49</ele>
        <time>2026-02-22T13:28:15.188Z</time>
      </trkpt>
      <trkpt lat="44.20101" lon="0.58929">
        <ele>49</ele>
        <time>2026-02-22T13:28:16.188Z</time>
      </trkpt>
      <trkpt lat="44.20102" lon="0.58927">
        <ele>49</ele>
        <time>2026-02-22T13:28:17.188Z</time>
      </trkpt>
      <trkpt lat="44.20103" lon="0.58926">
        <ele>49</ele>
        <time>2026-02-22T13:28:18.188Z</time>
      </trkpt>
      <trkpt lat="44.20103" lon="0.58924">
        <ele>49</ele>
        <time>2026-02-22T13:28:19.188Z</time>
      </trkpt>
      <trkpt lat="44.20104" lon="0.58923">
        <ele>49</ele>
        <time>2026-02-22T13:28:20.188Z</time>
      </trkpt>
      <trkpt lat="44.20104" lon="0.58922">
        <ele>49</ele>
        <time>2026-02-22T13:28:21.188Z</time>
      </trkpt>
      <trkpt lat="44.20105" lon="0.5892">
        <ele>49</ele>
        <time>2026-02-22T13:28:22.188Z</time>
      </trkpt>
      <trkpt lat="44.20106" lon="0.58918">
        <ele>49</ele>
        <time>2026-02-22T13:28:23.188Z</time>
      </trkpt>
      <trkpt lat="44.20107" lon="0.58917">
        <ele>49</ele>
        <time>2026-02-22T13:28:24.188Z</time>
      </trkpt>
      <trkpt lat="44.20107" lon="0.58915">
        <ele>49</ele>
        <time>2026-02-22T13:28:25.188Z</time>
      </trkpt>
      <trkpt lat="44.20108" lon="0.58914">
        <ele>49</ele>
        <time>2026-02-22T13:28:26.188Z</time>
      </trkpt>
      <trkpt lat="44.20109" lon="0.58912">
        <ele>49</ele>
        <time>2026-02-22T13:28:27.188Z</time>
      </trkpt>
      <trkpt lat="44.20109" lon="0.58911">
        <ele>49</ele>
        <time>2026-02-22T13:28:28.188Z</time>
      </trkpt>
      <trkpt lat="44.2011" lon="0.5891">
        <ele>49</ele>
        <time>2026-02-22T13:28:29.188Z</time>
      </trkpt>
      <trkpt lat="44.2011" lon="0.58909">
        <ele>49</ele>
        <time>2026-02-22T13:28:30.188Z</time>
      </trkpt>
      <trkpt lat="44.20111" lon="0.58907">
        <ele>49</ele>
        <time>2026-02-22T13:28:31.188Z</time>
      </trkpt>
      <trkpt lat="44.20111" lon="0.58906">
        <ele>49</ele>
        <time>2026-02-22T13:28:32.189Z</time>
      </trkpt>
      <trkpt lat="44.20112" lon="0.58904">
        <ele>48</ele>
        <time>2026-02-22T13:28:33.188Z</time>
      </trkpt>
      <trkpt lat="44.20113" lon="0.58903">
        <ele>48</ele>
        <time>2026-02-22T13:28:34.188Z</time>
      </trkpt>
      <trkpt lat="44.20114" lon="0.58902">
        <ele>48</ele>
        <time>2026-02-22T13:28:35.188Z</time>
      </trkpt>
      <trkpt lat="44.20114" lon="0.58901">
        <ele>47</ele>
        <time>2026-02-22T13:28:36.189Z</time>
      </trkpt>
      <trkpt lat="44.20115" lon="0.589">
        <ele>47</ele>
        <time>2026-02-22T13:28:37.189Z</time>
      </trkpt>
      <trkpt lat="44.20116" lon="0.58898">
        <ele>47</ele>
        <time>2026-02-22T13:28:38.188Z</time>
      </trkpt>
      <trkpt lat="44.20116" lon="0.58896">
        <ele>47</ele>
        <time>2026-02-22T13:28:39.188Z</time>
      </trkpt>
      <trkpt lat="44.20117" lon="0.58895">
        <ele>47</ele>
        <time>2026-02-22T13:28:40.188Z</time>
      </trkpt>
      <trkpt lat="44.20118" lon="0.58893">
        <ele>47</ele>
        <time>2026-02-22T13:28:41.188Z</time>
      </trkpt>
      <trkpt lat="44.20118" lon="0.58892">
        <ele>47</ele>
        <time>2026-02-22T13:28:42.188Z</time>
      </trkpt>
      <trkpt lat="44.20119" lon="0.58891">
        <ele>47</ele>
        <time>2026-02-22T13:28:43.188Z</time>
      </trkpt>
      <trkpt lat="44.20119" lon="0.5889">
        <ele>47</ele>
        <time>2026-02-22T13:28:44.188Z</time>
      </trkpt>
      <trkpt lat="44.2012" lon="0.58888">
        <ele>47</ele>
        <time>2026-02-22T13:28:45.188Z</time>
      </trkpt>
      <trkpt lat="44.2012" lon="0.58887">
        <ele>47</ele>
        <time>2026-02-22T13:28:46.188Z</time>
      </trkpt>
      <trkpt lat="44.20121" lon="0.58885">
        <ele>47</ele>
        <time>2026-02-22T13:28:47.189Z</time>
      </trkpt>
      <trkpt lat="44.20122" lon="0.58883">
        <ele>47</ele>
        <time>2026-02-22T13:28:48.188Z</time>
      </trkpt>
      <trkpt lat="44.20123" lon="0.58881">
        <ele>47</ele>
        <time>2026-02-22T13:28:49.188Z</time>
      </trkpt>
      <trkpt lat="44.20123" lon="0.5888">
        <ele>47</ele>
        <time>2026-02-22T13:28:50.188Z</time>
      </trkpt>
      <trkpt lat="44.20124" lon="0.58879">
        <ele>47</ele>
        <time>2026-02-22T13:28:51.188Z</time>
      </trkpt>
      <trkpt lat="44.20125" lon="0.58878">
        <ele>47</ele>
        <time>2026-02-22T13:28:52.188Z</time>
      </trkpt>
      <trkpt lat="44.20125" lon="0.58876">
        <ele>47</ele>
        <time>2026-02-22T13:28:53.188Z</time>
      </trkpt>
      <trkpt lat="44.20126" lon="0.58875">
        <ele>47</ele>
        <time>2026-02-22T13:28:54.188Z</time>
      </trkpt>
      <trkpt lat="44.20127" lon="0.58874">
        <ele>46</ele>
        <time>2026-02-22T13:28:55.188Z</time>
      </trkpt>
      <trkpt lat="44.20128" lon="0.58872">
        <ele>46</ele>
        <time>2026-02-22T13:28:56.188Z</time>
      </trkpt>
      <trkpt lat="44.20128" lon="0.58871">
        <ele>46</ele>
        <time>2026-02-22T13:28:57.188Z</time>
      </trkpt>
      <trkpt lat="44.20129" lon="0.58869">
        <ele>46</ele>
        <time>2026-02-22T13:28:58.188Z</time>
      </trkpt>
      <trkpt lat="44.2013" lon="0.58868">
        <ele>46</ele>
        <time>2026-02-22T13:28:59.188Z</time>
      </trkpt>
      <trkpt lat="44.2013" lon="0.58866">
        <ele>46</ele>
        <time>2026-02-22T13:29:00.188Z</time>
      </trkpt>
      <trkpt lat="44.20131" lon="0.58865">
        <ele>46</ele>
        <time>2026-02-22T13:29:01.188Z</time>
      </trkpt>
      <trkpt lat="44.20132" lon="0.58863">
        <ele>46</ele>
        <time>2026-02-22T13:29:02.189Z</time>
      </trkpt>
      <trkpt lat="44.20132" lon="0.58862">
        <ele>46</ele>
        <time>2026-02-22T13:29:03.188Z</time>
      </trkpt>
      <trkpt lat="44.20133" lon="0.58861">
        <ele>46</ele>
        <time>2026-02-22T13:29:04.188Z</time>
      </trkpt>
      <trkpt lat="44.20134" lon="0.5886">
        <ele>46</ele>
        <time>2026-02-22T13:29:05.188Z</time>
      </trkpt>
      <trkpt lat="44.20135" lon="0.58858">
        <ele>46</ele>
        <time>2026-02-22T13:29:06.188Z</time>
      </trkpt>
      <trkpt lat="44.20136" lon="0.58857">
        <ele>46</ele>
        <time>2026-02-22T13:29:07.188Z</time>
      </trkpt>
      <trkpt lat="44.20136" lon="0.58855">
        <ele>46</ele>
        <time>2026-02-22T13:29:08.188Z</time>
      </trkpt>
      <trkpt lat="44.20137" lon="0.58853">
        <ele>46</ele>
        <time>2026-02-22T13:29:09.188Z</time>
      </trkpt>
      <trkpt lat="44.20138" lon="0.58852">
        <ele>46</ele>
        <time>2026-02-22T13:29:10.188Z</time>
      </trkpt>
      <trkpt lat="44.20139" lon="0.58851">
        <ele>46</ele>
        <time>2026-02-22T13:29:11.188Z</time>
      </trkpt>
      <trkpt lat="44.20139" lon="0.58849">
        <ele>46</ele>
        <time>2026-02-22T13:29:12.188Z</time>
      </trkpt>
      <trkpt lat="44.2014" lon="0.58847">
        <ele>47</ele>
        <time>2026-02-22T13:29:13.189Z</time>
      </trkpt>
      <trkpt lat="44.2014" lon="0.58846">
        <ele>47</ele>
        <time>2026-02-22T13:29:14.189Z</time>
      </trkpt>
      <trkpt lat="44.20141" lon="0.58844">
        <ele>47</ele>
        <time>2026-02-22T13:29:15.188Z</time>
      </trkpt>
      <trkpt lat="44.20141" lon="0.58843">
        <ele>47</ele>
        <time>2026-02-22T13:29:16.188Z</time>
      </trkpt>
      <trkpt lat="44.20142" lon="0.58841">
        <ele>47</ele>
        <time>2026-02-22T13:29:17.189Z</time>
      </trkpt>
      <trkpt lat="44.20143" lon="0.5884">
        <ele>48</ele>
        <time>2026-02-22T13:29:18.188Z</time>
      </trkpt>
      <trkpt lat="44.20144" lon="0.58838">
        <ele>48</ele>
        <time>2026-02-22T13:29:19.188Z</time>
      </trkpt>
      <trkpt lat="44.20145" lon="0.58837">
        <ele>48</ele>
        <time>2026-02-22T13:29:20.188Z</time>
      </trkpt>
      <trkpt lat="44.20146" lon="0.58835">
        <ele>47</ele>
        <time>2026-02-22T13:29:21.188Z</time>
      </trkpt>
      <trkpt lat="44.20146" lon="0.58834">
        <ele>47</ele>
        <time>2026-02-22T13:29:22.188Z</time>
      </trkpt>
      <trkpt lat="44.20147" lon="0.58832">
        <ele>47</ele>
        <time>2026-02-22T13:29:23.188Z</time>
      </trkpt>
      <trkpt lat="44.20147" lon="0.58831">
        <ele>48</ele>
        <time>2026-02-22T13:29:24.188Z</time>
      </trkpt>
      <trkpt lat="44.20148" lon="0.5883">
        <ele>48</ele>
        <time>2026-02-22T13:29:25.188Z</time>
      </trkpt>
      <trkpt lat="44.20149" lon="0.58828">
        <ele>49</ele>
        <time>2026-02-22T13:29:26.188Z</time>
      </trkpt>
      <trkpt lat="44.20149" lon="0.58827">
        <ele>49</ele>
        <time>2026-02-22T13:29:27.188Z</time>
      </trkpt>
      <trkpt lat="44.2015" lon="0.58826">
        <ele>49</ele>
        <time>2026-02-22T13:29:28.188Z</time>
      </trkpt>
      <trkpt lat="44.20151" lon="0.58824">
        <ele>49</ele>
        <time>2026-02-22T13:29:29.188Z</time>
      </trkpt>
      <trkpt lat="44.20151" lon="0.58823">
        <ele>50</ele>
        <time>2026-02-22T13:29:30.189Z</time>
      </trkpt>
      <trkpt lat="44.20152" lon="0.58822">
        <ele>50</ele>
        <time>2026-02-22T13:29:31.188Z</time>
      </trkpt>
      <trkpt lat="44.20153" lon="0.5882">
        <ele>50</ele>
        <time>2026-02-22T13:29:32.188Z</time>
      </trkpt>
      <trkpt lat="44.20153" lon="0.58818">
        <ele>50</ele>
        <time>2026-02-22T13:29:33.188Z</time>
      </trkpt>
      <trkpt lat="44.20154" lon="0.58816">
        <ele>49</ele>
        <time>2026-02-22T13:29:34.188Z</time>
      </trkpt>
      <trkpt lat="44.20155" lon="0.58814">
        <ele>49</ele>
        <time>2026-02-22T13:29:35.188Z</time>
      </trkpt>
      <trkpt lat="44.20155" lon="0.58812">
        <ele>48</ele>
        <time>2026-02-22T13:29:36.188Z</time>
      </trkpt>
      <trkpt lat="44.20156" lon="0.5881">
        <ele>48</ele>
        <time>2026-02-22T13:29:37.188Z</time>
      </trkpt>
      <trkpt lat="44.20157" lon="0.58809">
        <ele>48</ele>
        <time>2026-02-22T13:29:38.189Z</time>
      </trkpt>
      <trkpt lat="44.20158" lon="0.58807">
        <ele>48</ele>
        <time>2026-02-22T13:29:39.188Z</time>
      </trkpt>
      <trkpt lat="44.20159" lon="0.58806">
        <ele>48</ele>
        <time>2026-02-22T13:29:40.188Z</time>
      </trkpt>
      <trkpt lat="44.20159" lon="0.58805">
        <ele>48</ele>
        <time>2026-02-22T13:29:41.188Z</time>
      </trkpt>
      <trkpt lat="44.20159" lon="0.58802">
        <ele>48</ele>
        <time>2026-02-22T13:29:42.188Z</time>
      </trkpt>
      <trkpt lat="44.2016" lon="0.58801">
        <ele>48</ele>
        <time>2026-02-22T13:29:43.188Z</time>
      </trkpt>
      <trkpt lat="44.2016" lon="0.58799">
        <ele>48</ele>
        <time>2026-02-22T13:29:44.188Z</time>
      </trkpt>
      <trkpt lat="44.20161" lon="0.58797">
        <ele>48</ele>
        <time>2026-02-22T13:29:45.188Z</time>
      </trkpt>
      <trkpt lat="44.20162" lon="0.58796">
        <ele>48</ele>
        <time>2026-02-22T13:29:46.188Z</time>
      </trkpt>
      <trkpt lat="44.20163" lon="0.58794">
        <ele>48</ele>
        <time>2026-02-22T13:29:47.188Z</time>
      </trkpt>
      <trkpt lat="44.20164" lon="0.58793">
        <ele>48</ele>
        <time>2026-02-22T13:29:48.188Z</time>
      </trkpt>
      <trkpt lat="44.20165" lon="0.58792">
        <ele>48</ele>
        <time>2026-02-22T13:29:49.188Z</time>
      </trkpt>
      <trkpt lat="44.20166" lon="0.58791">
        <ele>47</ele>
        <time>2026-02-22T13:29:50.189Z</time>
      </trkpt>
      <trkpt lat="44.20166" lon="0.58789">
        <ele>47</ele>
        <time>2026-02-22T13:29:51.189Z</time>
      </trkpt>
      <trkpt lat="44.20167" lon="0.58787">
        <ele>48</ele>
        <time>2026-02-22T13:29:52.188Z</time>
      </trkpt>
      <trkpt lat="44.20167" lon="0.58785">
        <ele>48</ele>
        <time>2026-02-22T13:29:53.188Z</time>
      </trkpt>
      <trkpt lat="44.20168" lon="0.58783">
        <ele>48</ele>
        <time>2026-02-22T13:29:54.188Z</time>
      </trkpt>
      <trkpt lat="44.20169" lon="0.58782">
        <ele>48</ele>
        <time>2026-02-22T13:29:55.188Z</time>
      </trkpt>
      <trkpt lat="44.2017" lon="0.5878">
        <ele>48</ele>
        <time>2026-02-22T13:29:56.188Z</time>
      </trkpt>
      <trkpt lat="44.20171" lon="0.58779">
        <ele>47</ele>
        <time>2026-02-22T13:29:57.188Z</time>
      </trkpt>
      <trkpt lat="44.20171" lon="0.58778">
        <ele>47</ele>
        <time>2026-02-22T13:29:58.189Z</time>
      </trkpt>
      <trkpt lat="44.20172" lon="0.58776">
        <ele>47</ele>
        <time>2026-02-22T13:29:59.188Z</time>
      </trkpt>
      <trkpt lat="44.20173" lon="0.58775">
        <ele>47</ele>
        <time>2026-02-22T13:30:00.188Z</time>
      </trkpt>
      <trkpt lat="44.20173" lon="0.58774">
        <ele>47</ele>
        <time>2026-02-22T13:30:01.188Z</time>
      </trkpt>
      <trkpt lat="44.20174" lon="0.58773">
        <ele>47</ele>
        <time>2026-02-22T13:30:02.188Z</time>
      </trkpt>
      <trkpt lat="44.20175" lon="0.58771">
        <ele>47</ele>
        <time>2026-02-22T13:30:03.188Z</time>
      </trkpt>
      <trkpt lat="44.20176" lon="0.5877">
        <ele>47</ele>
        <time>2026-02-22T13:30:04.188Z</time>
      </trkpt>
      <trkpt lat="44.20176" lon="0.58769">
        <ele>47</ele>
        <time>2026-02-22T13:30:05.188Z</time>
      </trkpt>
      <trkpt lat="44.20177" lon="0.58767">
        <ele>47</ele>
        <time>2026-02-22T13:30:06.188Z</time>
      </trkpt>
      <trkpt lat="44.20178" lon="0.58766">
        <ele>46</ele>
        <time>2026-02-22T13:30:07.188Z</time>
      </trkpt>
      <trkpt lat="44.20179" lon="0.58765">
        <ele>46</ele>
        <time>2026-02-22T13:30:08.188Z</time>
      </trkpt>
      <trkpt lat="44.20179" lon="0.58763">
        <ele>46</ele>
        <time>2026-02-22T13:30:09.188Z</time>
      </trkpt>
      <trkpt lat="44.2018" lon="0.58762">
        <ele>46</ele>
        <time>2026-02-22T13:30:10.188Z</time>
      </trkpt>
      <trkpt lat="44.20181" lon="0.58761">
        <ele>46</ele>
        <time>2026-02-22T13:30:11.188Z</time>
      </trkpt>
      <trkpt lat="44.20181" lon="0.58759">
        <ele>46</ele>
        <time>2026-02-22T13:30:12.188Z</time>
      </trkpt>
      <trkpt lat="44.20182" lon="0.58758">
        <ele>46</ele>
        <time>2026-02-22T13:30:13.188Z</time>
      </trkpt>
      <trkpt lat="44.20183" lon="0.58756">
        <ele>46</ele>
        <time>2026-02-22T13:30:14.188Z</time>
      </trkpt>
      <trkpt lat="44.20183" lon="0.58755">
        <ele>46</ele>
        <time>2026-02-22T13:30:15.188Z</time>
      </trkpt>
      <trkpt lat="44.20184" lon="0.58753">
        <ele>47</ele>
        <time>2026-02-22T13:30:16.188Z</time>
      </trkpt>
      <trkpt lat="44.20185" lon="0.58752">
        <ele>47</ele>
        <time>2026-02-22T13:30:17.188Z</time>
      </trkpt>
      <trkpt lat="44.20185" lon="0.5875">
        <ele>47</ele>
        <time>2026-02-22T13:30:18.188Z</time>
      </trkpt>
      <trkpt lat="44.20186" lon="0.58749">
        <ele>47</ele>
        <time>2026-02-22T13:30:19.188Z</time>
      </trkpt>
      <trkpt lat="44.20186" lon="0.58747">
        <ele>47</ele>
        <time>2026-02-22T13:30:20.188Z</time>
      </trkpt>
      <trkpt lat="44.20187" lon="0.58746">
        <ele>47</ele>
        <time>2026-02-22T13:30:21.188Z</time>
      </trkpt>
      <trkpt lat="44.20188" lon="0.58744">
        <ele>47</ele>
        <time>2026-02-22T13:30:22.188Z</time>
      </trkpt>
      <trkpt lat="44.20188" lon="0.58743">
        <ele>48</ele>
        <time>2026-02-22T13:30:23.188Z</time>
      </trkpt>
      <trkpt lat="44.20189" lon="0.58742">
        <ele>47</ele>
        <time>2026-02-22T13:30:24.188Z</time>
      </trkpt>
      <trkpt lat="44.2019" lon="0.5874">
        <ele>47</ele>
        <time>2026-02-22T13:30:25.188Z</time>
      </trkpt>
      <trkpt lat="44.2019" lon="0.58739">
        <ele>47</ele>
        <time>2026-02-22T13:30:26.188Z</time>
      </trkpt>
      <trkpt lat="44.20191" lon="0.58737">
        <ele>47</ele>
        <time>2026-02-22T13:30:27.188Z</time>
      </trkpt>
      <trkpt lat="44.20192" lon="0.58736">
        <ele>48</ele>
        <time>2026-02-22T13:30:28.188Z</time>
      </trkpt>
      <trkpt lat="44.20193" lon="0.58734">
        <ele>48</ele>
        <time>2026-02-22T13:30:29.188Z</time>
      </trkpt>
      <trkpt lat="44.20194" lon="0.58734">
        <ele>48</ele>
        <time>2026-02-22T13:30:30.189Z</time>
      </trkpt>
      <trkpt lat="44.20194" lon="0.58734">
        <ele>48</ele>
        <time>2026-02-22T13:30:31.188Z</time>
      </trkpt>
      <trkpt lat="44.20195" lon="0.58733">
        <ele>48</ele>
        <time>2026-02-22T13:30:32.188Z</time>
      </trkpt>
      <trkpt lat="44.20195" lon="0.58732">
        <ele>48</ele>
        <time>2026-02-22T13:30:33.188Z</time>
      </trkpt>
      <trkpt lat="44.20195" lon="0.58731">
        <ele>48</ele>
        <time>2026-02-22T13:30:34.188Z</time>
      </trkpt>
      <trkpt lat="44.20196" lon="0.58729">
        <ele>48</ele>
        <time>2026-02-22T13:30:35.188Z</time>
      </trkpt>
      <trkpt lat="44.20197" lon="0.58727">
        <ele>48</ele>
        <time>2026-02-22T13:30:36.188Z</time>
      </trkpt>
      <trkpt lat="44.20197" lon="0.58726">
        <ele>48</ele>
        <time>2026-02-22T13:30:37.188Z</time>
      </trkpt>
      <trkpt lat="44.20198" lon="0.58724">
        <ele>48</ele>
        <time>2026-02-22T13:30:38.188Z</time>
      </trkpt>
      <trkpt lat="44.20199" lon="0.58723">
        <ele>48</ele>
        <time>2026-02-22T13:30:39.188Z</time>
      </trkpt>
      <trkpt lat="44.202" lon="0.58722">
        <ele>48</ele>
        <time>2026-02-22T13:30:40.188Z</time>
      </trkpt>
      <trkpt lat="44.202" lon="0.5872">
        <ele>48</ele>
        <time>2026-02-22T13:30:41.188Z</time>
      </trkpt>
      <trkpt lat="44.20201" lon="0.58719">
        <ele>48</ele>
        <time>2026-02-22T13:30:42.188Z</time>
      </trkpt>
      <trkpt lat="44.20202" lon="0.58718">
        <ele>48</ele>
        <time>2026-02-22T13:30:43.188Z</time>
      </trkpt>
      <trkpt lat="44.20202" lon="0.58716">
        <ele>47</ele>
        <time>2026-02-22T13:30:44.188Z</time>
      </trkpt>
      <trkpt lat="44.20203" lon="0.58715">
        <ele>47</ele>
        <time>2026-02-22T13:30:45.188Z</time>
      </trkpt>
      <trkpt lat="44.20204" lon="0.58713">
        <ele>47</ele>
        <time>2026-02-22T13:30:46.188Z</time>
      </trkpt>
      <trkpt lat="44.20204" lon="0.58712">
        <ele>47</ele>
        <time>2026-02-22T13:30:47.188Z</time>
      </trkpt>
      <trkpt lat="44.20205" lon="0.5871">
        <ele>47</ele>
        <time>2026-02-22T13:30:48.188Z</time>
      </trkpt>
      <trkpt lat="44.20206" lon="0.58709">
        <ele>48</ele>
        <time>2026-02-22T13:30:49.188Z</time>
      </trkpt>
      <trkpt lat="44.20206" lon="0.58707">
        <ele>48</ele>
        <time>2026-02-22T13:30:50.188Z</time>
      </trkpt>
      <trkpt lat="44.20207" lon="0.58706">
        <ele>48</ele>
        <time>2026-02-22T13:30:51.188Z</time>
      </trkpt>
      <trkpt lat="44.20207" lon="0.58705">
        <ele>48</ele>
        <time>2026-02-22T13:30:52.188Z</time>
      </trkpt>
      <trkpt lat="44.20208" lon="0.58703">
        <ele>48</ele>
        <time>2026-02-22T13:30:53.188Z</time>
      </trkpt>
      <trkpt lat="44.20209" lon="0.58702">
        <ele>48</ele>
        <time>2026-02-22T13:30:54.188Z</time>
      </trkpt>
      <trkpt lat="44.20209" lon="0.587">
        <ele>48</ele>
        <time>2026-02-22T13:30:55.188Z</time>
      </trkpt>
      <trkpt lat="44.2021" lon="0.58699">
        <ele>48</ele>
        <time>2026-02-22T13:30:56.188Z</time>
      </trkpt>
      <trkpt lat="44.20211" lon="0.58698">
        <ele>48</ele>
        <time>2026-02-22T13:30:57.188Z</time>
      </trkpt>
      <trkpt lat="44.20211" lon="0.58697">
        <ele>48</ele>
        <time>2026-02-22T13:30:58.189Z</time>
      </trkpt>
      <trkpt lat="44.20212" lon="0.58696">
        <ele>48</ele>
        <time>2026-02-22T13:30:59.188Z</time>
      </trkpt>
      <trkpt lat="44.20213" lon="0.58694">
        <ele>48</ele>
        <time>2026-02-22T13:31:00.188Z</time>
      </trkpt>
      <trkpt lat="44.20213" lon="0.58693">
        <ele>48</ele>
        <time>2026-02-22T13:31:01.188Z</time>
      </trkpt>
      <trkpt lat="44.20214" lon="0.58692">
        <ele>48</ele>
        <time>2026-02-22T13:31:02.188Z</time>
      </trkpt>
      <trkpt lat="44.20215" lon="0.5869">
        <ele>48</ele>
        <time>2026-02-22T13:31:03.188Z</time>
      </trkpt>
      <trkpt lat="44.20216" lon="0.58689">
        <ele>48</ele>
        <time>2026-02-22T13:31:04.189Z</time>
      </trkpt>
      <trkpt lat="44.20217" lon="0.58688">
        <ele>48</ele>
        <time>2026-02-22T13:31:05.188Z</time>
      </trkpt>
      <trkpt lat="44.20217" lon="0.58686">
        <ele>47</ele>
        <time>2026-02-22T13:31:06.189Z</time>
      </trkpt>
      <trkpt lat="44.20218" lon="0.58685">
        <ele>47</ele>
        <time>2026-02-22T13:31:07.188Z</time>
      </trkpt>
      <trkpt lat="44.20218" lon="0.58683">
        <ele>47</ele>
        <time>2026-02-22T13:31:08.188Z</time>
      </trkpt>
      <trkpt lat="44.20219" lon="0.58682">
        <ele>47</ele>
        <time>2026-02-22T13:31:09.188Z</time>
      </trkpt>
      <trkpt lat="44.20219" lon="0.5868">
        <ele>47</ele>
        <time>2026-02-22T13:31:10.188Z</time>
      </trkpt>
      <trkpt lat="44.2022" lon="0.58679">
        <ele>47</ele>
        <time>2026-02-22T13:31:11.188Z</time>
      </trkpt>
      <trkpt lat="44.20221" lon="0.58677">
        <ele>47</ele>
        <time>2026-02-22T13:31:12.188Z</time>
      </trkpt>
      <trkpt lat="44.20222" lon="0.58675">
        <ele>46</ele>
        <time>2026-02-22T13:31:13.188Z</time>
      </trkpt>
      <trkpt lat="44.20223" lon="0.58673">
        <ele>46</ele>
        <time>2026-02-22T13:31:14.188Z</time>
      </trkpt>
      <trkpt lat="44.20223" lon="0.58672">
        <ele>46</ele>
        <time>2026-02-22T13:31:15.189Z</time>
      </trkpt>
      <trkpt lat="44.20224" lon="0.5867">
        <ele>46</ele>
        <time>2026-02-22T13:31:16.188Z</time>
      </trkpt>
      <trkpt lat="44.20224" lon="0.58669">
        <ele>47</ele>
        <time>2026-02-22T13:31:17.188Z</time>
      </trkpt>
      <trkpt lat="44.20225" lon="0.58668">
        <ele>47</ele>
        <time>2026-02-22T13:31:18.188Z</time>
      </trkpt>
      <trkpt lat="44.20225" lon="0.58666">
        <ele>48</ele>
        <time>2026-02-22T13:31:19.188Z</time>
      </trkpt>
      <trkpt lat="44.20226" lon="0.58664">
        <ele>48</ele>
        <time>2026-02-22T13:31:20.188Z</time>
      </trkpt>
      <trkpt lat="44.20226" lon="0.58663">
        <ele>48</ele>
        <time>2026-02-22T13:31:21.188Z</time>
      </trkpt>
      <trkpt lat="44.20227" lon="0.58661">
        <ele>49</ele>
        <time>2026-02-22T13:31:22.188Z</time>
      </trkpt>
      <trkpt lat="44.20227" lon="0.5866">
        <ele>49</ele>
        <time>2026-02-22T13:31:23.188Z</time>
      </trkpt>
      <trkpt lat="44.20227" lon="0.58658">
        <ele>49</ele>
        <time>2026-02-22T13:31:24.188Z</time>
      </trkpt>
      <trkpt lat="44.20227" lon="0.58656">
        <ele>50</ele>
        <time>2026-02-22T13:31:25.188Z</time>
      </trkpt>
      <trkpt lat="44.20229" lon="0.58655">
        <ele>50</ele>
        <time>2026-02-22T13:31:26.188Z</time>
      </trkpt>
      <trkpt lat="44.20229" lon="0.58654">
        <ele>50</ele>
        <time>2026-02-22T13:31:27.188Z</time>
      </trkpt>
      <trkpt lat="44.2023" lon="0.58652">
        <ele>50</ele>
        <time>2026-02-22T13:31:28.189Z</time>
      </trkpt>
      <trkpt lat="44.20231" lon="0.5865">
        <ele>50</ele>
        <time>2026-02-22T13:31:29.188Z</time>
      </trkpt>
      <trkpt lat="44.20231" lon="0.58648">
        <ele>50</ele>
        <time>2026-02-22T13:31:30.189Z</time>
      </trkpt>
      <trkpt lat="44.20231" lon="0.58647">
        <ele>51</ele>
        <time>2026-02-22T13:31:31.188Z</time>
      </trkpt>
      <trkpt lat="44.20232" lon="0.58646">
        <ele>51</ele>
        <time>2026-02-22T13:31:32.188Z</time>
      </trkpt>
      <trkpt lat="44.20233" lon="0.58645">
        <ele>51</ele>
        <time>2026-02-22T13:31:33.188Z</time>
      </trkpt>
      <trkpt lat="44.20234" lon="0.58644">
        <ele>51</ele>
        <time>2026-02-22T13:31:34.188Z</time>
      </trkpt>
      <trkpt lat="44.20234" lon="0.58643">
        <ele>51</ele>
        <time>2026-02-22T13:31:35.188Z</time>
      </trkpt>
      <trkpt lat="44.20235" lon="0.58644">
        <ele>51</ele>
        <time>2026-02-22T13:31:36.189Z</time>
      </trkpt>
      <trkpt lat="44.20235" lon="0.58643">
        <ele>51</ele>
        <time>2026-02-22T13:31:37.188Z</time>
      </trkpt>
      <trkpt lat="44.20235" lon="0.58643">
        <ele>50</ele>
        <time>2026-02-22T13:31:38.188Z</time>
      </trkpt>
      <trkpt lat="44.20236" lon="0.58643">
        <ele>50</ele>
        <time>2026-02-22T13:31:39.188Z</time>
      </trkpt>
      <trkpt lat="44.20236" lon="0.58643">
        <ele>50</ele>
        <time>2026-02-22T13:31:40.188Z</time>
      </trkpt>
      <trkpt lat="44.20236" lon="0.58645">
        <ele>49</ele>
        <time>2026-02-22T13:31:41.188Z</time>
      </trkpt>
      <trkpt lat="44.20237" lon="0.58645">
        <ele>49</ele>
        <time>2026-02-22T13:31:42.189Z</time>
      </trkpt>
      <trkpt lat="44.20237" lon="0.58645">
        <ele>48</ele>
        <time>2026-02-22T13:31:43.188Z</time>
      </trkpt>
      <trkpt lat="44.20236" lon="0.58645">
        <ele>48</ele>
        <time>2026-02-22T13:31:44.188Z</time>
      </trkpt>
      <trkpt lat="44.20236" lon="0.58645">
        <ele>47</ele>
        <time>2026-02-22T13:31:45.188Z</time>
      </trkpt>
      <trkpt lat="44.20236" lon="0.58645">
        <ele>47</ele>
        <time>2026-02-22T13:31:46.188Z</time>
      </trkpt>
      <trkpt lat="44.20236" lon="0.58645">
        <ele>47</ele>
        <time>2026-02-22T13:31:47.188Z</time>
      </trkpt>
      <trkpt lat="44.20237" lon="0.58646">
        <ele>46</ele>
        <time>2026-02-22T13:31:48.188Z</time>
      </trkpt>
      <trkpt lat="44.20237" lon="0.58646">
        <ele>46</ele>
        <time>2026-02-22T13:31:49.188Z</time>
      </trkpt>
      <trkpt lat="44.20238" lon="0.58647">
        <ele>46</ele>
        <time>2026-02-22T13:31:50.188Z</time>
      </trkpt>
      <trkpt lat="44.20238" lon="0.58647">
        <ele>46</ele>
        <time>2026-02-22T13:31:51.188Z</time>
      </trkpt>
      <trkpt lat="44.20238" lon="0.58648">
        <ele>46</ele>
        <time>2026-02-22T13:31:52.188Z</time>
      </trkpt>
      <trkpt lat="44.20238" lon="0.58648">
        <ele>46</ele>
        <time>2026-02-22T13:31:53.188Z</time>
      </trkpt>
      <trkpt lat="44.20238" lon="0.58648">
        <ele>47</ele>
        <time>2026-02-22T13:31:54.188Z</time>
      </trkpt>
      <trkpt lat="44.20238" lon="0.58648">
        <ele>47</ele>
        <time>2026-02-22T13:31:55.188Z</time>
      </trkpt>
      <trkpt lat="44.20238" lon="0.58648">
        <ele>48</ele>
        <time>2026-02-22T13:31:56.188Z</time>
      </trkpt>
      <trkpt lat="44.20238" lon="0.58648">
        <ele>49</ele>
        <time>2026-02-22T13:31:57.188Z</time>
      </trkpt>
      <trkpt lat="44.20238" lon="0.58648">
        <ele>49</ele>
        <time>2026-02-22T13:31:58.188Z</time>
      </trkpt>
      <trkpt lat="44.20238" lon="0.58648">
        <ele>50</ele>
        <time>2026-02-22T13:31:59.188Z</time>
      </trkpt>
      <trkpt lat="44.20238" lon="0.58648">
        <ele>51</ele>
        <time>2026-02-22T13:32:00.188Z</time>
      </trkpt>
      <trkpt lat="44.20238" lon="0.58648">
        <ele>51</ele>
        <time>2026-02-22T13:32:01.188Z</time>
      </trkpt>
      <trkpt lat="44.20238" lon="0.58648">
        <ele>52</ele>
        <time>2026-02-22T13:32:02.188Z</time>
      </trkpt>
      <trkpt lat="44.20238" lon="0.58648">
        <ele>52</ele>
        <time>2026-02-22T13:32:03.188Z</time>
      </trkpt>
      <trkpt lat="44.20238" lon="0.58648">
        <ele>53</ele>
        <time>2026-02-22T13:32:04.188Z</time>
      </trkpt>
      <trkpt lat="44.20238" lon="0.58648">
        <ele>53</ele>
        <time>2026-02-22T13:32:05.188Z</time>
      </trkpt>
      <trkpt lat="44.20238" lon="0.58648">
        <ele>53</ele>
        <time>2026-02-22T13:32:06.188Z</time>
      </trkpt>
      <trkpt lat="44.20238" lon="0.58648">
        <ele>53</ele>
        <time>2026-02-22T13:32:07.188Z</time>
      </trkpt>
      <trkpt lat="44.20238" lon="0.58648">
        <ele>53</ele>
        <time>2026-02-22T13:32:08.188Z</time>
      </trkpt>
      <trkpt lat="44.20238" lon="0.58648">
        <ele>53</ele>
        <time>2026-02-22T13:32:09.188Z</time>
      </trkpt>
      <trkpt lat="44.20238" lon="0.58648">
        <ele>53</ele>
        <time>2026-02-22T13:32:10.188Z</time>
      </trkpt>
      <trkpt lat="44.20238" lon="0.58648">
        <ele>52</ele>
        <time>2026-02-22T13:32:11.188Z</time>
      </trkpt>
      <trkpt lat="44.20238" lon="0.58648">
        <ele>51</ele>
        <time>2026-02-22T13:32:12.188Z</time>
      </trkpt>
      <trkpt lat="44.20238" lon="0.58649">
        <ele>50</ele>
        <time>2026-02-22T13:32:13.188Z</time>
      </trkpt>
      <trkpt lat="44.20238" lon="0.58649">
        <ele>50</ele>
        <time>2026-02-22T13:32:14.188Z</time>
      </trkpt>
      <trkpt lat="44.20238" lon="0.58649">
        <ele>49</ele>
        <time>2026-02-22T13:32:15.188Z</time>
      </trkpt>
      <trkpt lat="44.20238" lon="0.58649">
        <ele>49</ele>
        <time>2026-02-22T13:32:16.188Z</time>
      </trkpt>
      <trkpt lat="44.20238" lon="0.58649">
        <ele>49</ele>
        <time>2026-02-22T13:32:17.188Z</time>
      </trkpt>
      <trkpt lat="44.20238" lon="0.58649">
        <ele>49</ele>
        <time>2026-02-22T13:32:18.189Z</time>
      </trkpt>
      <trkpt lat="44.20238" lon="0.58649">
        <ele>49</ele>
        <time>2026-02-22T13:32:19.189Z</time>
      </trkpt>
      <trkpt lat="44.20238" lon="0.58649">
        <ele>49</ele>
        <time>2026-02-22T13:32:20.188Z</time>
      </trkpt>
      <trkpt lat="44.20238" lon="0.58649">
        <ele>49</ele>
        <time>2026-02-22T13:32:21.188Z</time>
      </trkpt>
      <trkpt lat="44.20238" lon="0.58649">
        <ele>49</ele>
        <time>2026-02-22T13:32:22.189Z</time>
      </trkpt>
      <trkpt lat="44.20237" lon="0.5865">
        <ele>49</ele>
        <time>2026-02-22T13:32:23.188Z</time>
      </trkpt>
      <trkpt lat="44.20237" lon="0.5865">
        <ele>49</ele>
        <time>2026-02-22T13:32:24.188Z</time>
      </trkpt>
      <trkpt lat="44.20236" lon="0.5865">
        <ele>50</ele>
        <time>2026-02-22T13:32:25.188Z</time>
      </trkpt>
      <trkpt lat="44.20236" lon="0.58651">
        <ele>50</ele>
        <time>2026-02-22T13:32:26.188Z</time>
      </trkpt>
      <trkpt lat="44.20236" lon="0.58651">
        <ele>50</ele>
        <time>2026-02-22T13:32:27.188Z</time>
      </trkpt>
      <trkpt lat="44.20235" lon="0.58651">
        <ele>50</ele>
        <time>2026-02-22T13:32:28.188Z</time>
      </trkpt>
      <trkpt lat="44.20235" lon="0.58651">
        <ele>50</ele>
        <time>2026-02-22T13:32:29.188Z</time>
      </trkpt>
      <trkpt lat="44.20235" lon="0.58652">
        <ele>51</ele>
        <time>2026-02-22T13:32:30.188Z</time>
      </trkpt>
      <trkpt lat="44.20235" lon="0.58652">
        <ele>51</ele>
        <time>2026-02-22T13:32:31.188Z</time>
      </trkpt>
      <trkpt lat="44.20235" lon="0.58652">
        <ele>52</ele>
        <time>2026-02-22T13:32:32.188Z</time>
      </trkpt>
      <trkpt lat="44.20235" lon="0.58651">
        <ele>52</ele>
        <time>2026-02-22T13:32:33.188Z</time>
      </trkpt>
      <trkpt lat="44.20235" lon="0.58651">
        <ele>52</ele>
        <time>2026-02-22T13:32:34.188Z</time>
      </trkpt>
      <trkpt lat="44.20235" lon="0.58651">
        <ele>52</ele>
        <time>2026-02-22T13:32:35.189Z</time>
      </trkpt>
      <trkpt lat="44.20235" lon="0.58652">
        <ele>52</ele>
        <time>2026-02-22T13:32:36.188Z</time>
      </trkpt>
      <trkpt lat="44.20235" lon="0.58652">
        <ele>52</ele>
        <time>2026-02-22T13:32:37.189Z</time>
      </trkpt>
      <trkpt lat="44.20234" lon="0.58652">
        <ele>51</ele>
        <time>2026-02-22T13:32:38.188Z</time>
      </trkpt>
      <trkpt lat="44.20234" lon="0.58652">
        <ele>51</ele>
        <time>2026-02-22T13:32:39.188Z</time>
      </trkpt>
      <trkpt lat="44.20234" lon="0.58652">
        <ele>51</ele>
        <time>2026-02-22T13:32:40.188Z</time>
      </trkpt>
      <trkpt lat="44.20235" lon="0.58652">
        <ele>50</ele>
        <time>2026-02-22T13:32:41.188Z</time>
      </trkpt>
      <trkpt lat="44.20234" lon="0.58653">
        <ele>50</ele>
        <time>2026-02-22T13:32:42.188Z</time>
      </trkpt>
      <trkpt lat="44.20235" lon="0.58653">
        <ele>49</ele>
        <time>2026-02-22T13:32:43.188Z</time>
      </trkpt>
      <trkpt lat="44.20235" lon="0.58653">
        <ele>49</ele>
        <time>2026-02-22T13:32:44.188Z</time>
      </trkpt>
      <trkpt lat="44.20235" lon="0.58653">
        <ele>49</ele>
        <time>2026-02-22T13:32:45.188Z</time>
      </trkpt>
      <trkpt lat="44.20235" lon="0.58653">
        <ele>49</ele>
        <time>2026-02-22T13:32:46.188Z</time>
      </trkpt>
      <trkpt lat="44.20235" lon="0.58653">
        <ele>49</ele>
        <time>2026-02-22T13:32:47.188Z</time>
      </trkpt>
      <trkpt lat="44.20235" lon="0.58653">
        <ele>48</ele>
        <time>2026-02-22T13:32:48.188Z</time>
      </trkpt>
      <trkpt lat="44.20235" lon="0.58653">
        <ele>48</ele>
        <time>2026-02-22T13:32:49.188Z</time>
      </trkpt>
      <trkpt lat="44.20235" lon="0.58654">
        <ele>47</ele>
        <time>2026-02-22T13:32:50.189Z</time>
      </trkpt>
      <trkpt lat="44.20235" lon="0.58653">
        <ele>47</ele>
        <time>2026-02-22T13:32:51.188Z</time>
      </trkpt>
      <trkpt lat="44.20235" lon="0.58653">
        <ele>47</ele>
        <time>2026-02-22T13:32:52.189Z</time>
      </trkpt>
      <trkpt lat="44.20236" lon="0.58654">
        <ele>47</ele>
        <time>2026-02-22T13:32:53.188Z</time>
      </trkpt>
      <trkpt lat="44.20236" lon="0.58654">
        <ele>47</ele>
        <time>2026-02-22T13:32:54.189Z</time>
      </trkpt>
      <trkpt lat="44.20236" lon="0.58654">
        <ele>46</ele>
        <time>2026-02-22T13:32:55.188Z</time>
      </trkpt>
      <trkpt lat="44.20236" lon="0.58654">
        <ele>46</ele>
        <time>2026-02-22T13:32:56.189Z</time>
      </trkpt>
      <trkpt lat="44.20236" lon="0.58654">
        <ele>46</ele>
        <time>2026-02-22T13:32:57.188Z</time>
      </trkpt>
      <trkpt lat="44.20236" lon="0.58654">
        <ele>46</ele>
        <time>2026-02-22T13:32:58.188Z</time>
      </trkpt>
      <trkpt lat="44.20236" lon="0.58654">
        <ele>46</ele>
        <time>2026-02-22T13:32:59.188Z</time>
      </trkpt>
      <trkpt lat="44.20236" lon="0.58654">
        <ele>46</ele>
        <time>2026-02-22T13:33:00.188Z</time>
      </trkpt>
      <trkpt lat="44.20236" lon="0.58654">
        <ele>47</ele>
        <time>2026-02-22T13:33:01.188Z</time>
      </trkpt>
      <trkpt lat="44.20236" lon="0.58654">
        <ele>47</ele>
        <time>2026-02-22T13:33:02.188Z</time>
      </trkpt>
      <trkpt lat="44.20237" lon="0.58654">
        <ele>47</ele>
        <time>2026-02-22T13:33:03.188Z</time>
      </trkpt>
      <trkpt lat="44.20237" lon="0.58654">
        <ele>47</ele>
        <time>2026-02-22T13:33:04.188Z</time>
      </trkpt>
      <trkpt lat="44.20237" lon="0.58654">
        <ele>47</ele>
        <time>2026-02-22T13:33:05.188Z</time>
      </trkpt>
      <trkpt lat="44.20237" lon="0.58654">
        <ele>47</ele>
        <time>2026-02-22T13:33:06.188Z</time>
      </trkpt>
      <trkpt lat="44.20237" lon="0.58654">
        <ele>47</ele>
        <time>2026-02-22T13:33:07.188Z</time>
      </trkpt>
      <trkpt lat="44.20237" lon="0.58654">
        <ele>47</ele>
        <time>2026-02-22T13:33:08.188Z</time>
      </trkpt>
      <trkpt lat="44.20237" lon="0.58654">
        <ele>47</ele>
        <time>2026-02-22T13:33:09.188Z</time>
      </trkpt>
      <trkpt lat="44.20237" lon="0.58654">
        <ele>47</ele>
        <time>2026-02-22T13:33:10.188Z</time>
      </trkpt>
      <trkpt lat="44.20237" lon="0.58655">
        <ele>46</ele>
        <time>2026-02-22T13:33:11.188Z</time>
      </trkpt>
      <trkpt lat="44.20237" lon="0.58655">
        <ele>46</ele>
        <time>2026-02-22T13:33:12.188Z</time>
      </trkpt>
      <trkpt lat="44.20237" lon="0.58655">
        <ele>46</ele>
        <time>2026-02-22T13:33:13.188Z</time>
      </trkpt>
      <trkpt lat="44.20237" lon="0.58655">
        <ele>46</ele>
        <time>2026-02-22T13:33:14.188Z</time>
      </trkpt>
      <trkpt lat="44.20237" lon="0.58655">
        <ele>46</ele>
        <time>2026-02-22T13:33:15.188Z</time>
      </trkpt>
      <trkpt lat="44.20237" lon="0.58655">
        <ele>46</ele>
        <time>2026-02-22T13:33:16.189Z</time>
      </trkpt>
      <trkpt lat="44.20237" lon="0.58655">
        <ele>46</ele>
        <time>2026-02-22T13:33:17.188Z</time>
      </trkpt>
      <trkpt lat="44.20237" lon="0.58655">
        <ele>46</ele>
        <time>2026-02-22T13:33:18.188Z</time>
      </trkpt>
      <trkpt lat="44.20237" lon="0.58655">
        <ele>45</ele>
        <time>2026-02-22T13:33:19.188Z</time>
      </trkpt>
      <trkpt lat="44.20237" lon="0.58655">
        <ele>44</ele>
        <time>2026-02-22T13:33:20.188Z</time>
      </trkpt>
      <trkpt lat="44.20237" lon="0.58655">
        <ele>44</ele>
        <time>2026-02-22T13:33:21.188Z</time>
      </trkpt>
      <trkpt lat="44.20237" lon="0.58655">
        <ele>43</ele>
        <time>2026-02-22T13:33:22.188Z</time>
      </trkpt>
      <trkpt lat="44.20237" lon="0.58655">
        <ele>43</ele>
        <time>2026-02-22T13:33:23.188Z</time>
      </trkpt>
      <trkpt lat="44.20237" lon="0.58655">
        <ele>43</ele>
        <time>2026-02-22T13:33:24.188Z</time>
      </trkpt>
      <trkpt lat="44.20238" lon="0.58655">
        <ele>43</ele>
        <time>2026-02-22T13:33:25.188Z</time>
      </trkpt>
      <trkpt lat="44.20238" lon="0.58655">
        <ele>43</ele>
        <time>2026-02-22T13:33:26.188Z</time>
      </trkpt>
      <trkpt lat="44.20238" lon="0.58655">
        <ele>44</ele>
        <time>2026-02-22T13:33:27.188Z</time>
      </trkpt>
      <trkpt lat="44.20238" lon="0.58655">
        <ele>44</ele>
        <time>2026-02-22T13:33:28.189Z</time>
      </trkpt>
      <trkpt lat="44.20238" lon="0.58655">
        <ele>45</ele>
        <time>2026-02-22T13:33:29.188Z</time>
      </trkpt>
      <trkpt lat="44.20238" lon="0.58655">
        <ele>45</ele>
        <time>2026-02-22T13:33:30.188Z</time>
      </trkpt>
      <trkpt lat="44.20237" lon="0.58655">
        <ele>46</ele>
        <time>2026-02-22T13:33:31.188Z</time>
      </trkpt>
      <trkpt lat="44.20237" lon="0.58655">
        <ele>46</ele>
        <time>2026-02-22T13:33:32.189Z</time>
      </trkpt>
      <trkpt lat="44.20237" lon="0.58655">
        <ele>47</ele>
        <time>2026-02-22T13:33:33.188Z</time>
      </trkpt>
      <trkpt lat="44.20237" lon="0.58655">
        <ele>47</ele>
        <time>2026-02-22T13:33:34.189Z</time>
      </trkpt>
      <trkpt lat="44.20237" lon="0.58655">
        <ele>47</ele>
        <time>2026-02-22T13:33:35.188Z</time>
      </trkpt>
      <trkpt lat="44.20237" lon="0.58655">
        <ele>47</ele>
        <time>2026-02-22T13:33:36.188Z</time>
      </trkpt>
      <trkpt lat="44.20237" lon="0.58655">
        <ele>47</ele>
        <time>2026-02-22T13:33:37.188Z</time>
      </trkpt>
      <trkpt lat="44.20237" lon="0.58655">
        <ele>47</ele>
        <time>2026-02-22T13:33:38.188Z</time>
      </trkpt>
      <trkpt lat="44.20237" lon="0.58655">
        <ele>47</ele>
        <time>2026-02-22T13:33:39.188Z</time>
      </trkpt>
      <trkpt lat="44.20237" lon="0.58655">
        <ele>47</ele>
        <time>2026-02-22T13:33:40.188Z</time>
      </trkpt>
      <trkpt lat="44.20237" lon="0.58655">
        <ele>47</ele>
        <time>2026-02-22T13:33:41.188Z</time>
      </trkpt>
      <trkpt lat="44.20237" lon="0.58655">
        <ele>46</ele>
        <time>2026-02-22T13:33:42.188Z</time>
      </trkpt>
      <trkpt lat="44.20237" lon="0.58656">
        <ele>46</ele>
        <time>2026-02-22T13:33:43.188Z</time>
      </trkpt>
      <trkpt lat="44.20237" lon="0.58657">
        <ele>46</ele>
        <time>2026-02-22T13:33:44.188Z</time>
      </trkpt>
      <trkpt lat="44.20236" lon="0.58657">
        <ele>46</ele>
        <time>2026-02-22T13:33:45.188Z</time>
      </trkpt>
      <trkpt lat="44.20236" lon="0.58657">
        <ele>46</ele>
        <time>2026-02-22T13:33:46.188Z</time>
      </trkpt>
      <trkpt lat="44.20236" lon="0.58657">
        <ele>46</ele>
        <time>2026-02-22T13:33:47.188Z</time>
      </trkpt>
      <trkpt lat="44.20236" lon="0.58657">
        <ele>47</ele>
        <time>2026-02-22T13:33:48.188Z</time>
      </trkpt>
      <trkpt lat="44.20236" lon="0.58656">
        <ele>47</ele>
        <time>2026-02-22T13:33:49.188Z</time>
      </trkpt>
      <trkpt lat="44.20236" lon="0.58656">
        <ele>47</ele>
        <time>2026-02-22T13:33:50.188Z</time>
      </trkpt>
      <trkpt lat="44.20236" lon="0.58656">
        <ele>47</ele>
        <time>2026-02-22T13:33:51.188Z</time>
      </trkpt>
      <trkpt lat="44.20236" lon="0.58656">
        <ele>47</ele>
        <time>2026-02-22T13:33:52.188Z</time>
      </trkpt>
      <trkpt lat="44.20236" lon="0.58656">
        <ele>47</ele>
        <time>2026-02-22T13:33:53.188Z</time>
      </trkpt>
      <trkpt lat="44.20236" lon="0.58656">
        <ele>47</ele>
        <time>2026-02-22T13:33:54.188Z</time>
      </trkpt>
      <trkpt lat="44.20236" lon="0.58656">
        <ele>47</ele>
        <time>2026-02-22T13:33:55.188Z</time>
      </trkpt>
      <trkpt lat="44.20236" lon="0.58656">
        <ele>47</ele>
        <time>2026-02-22T13:33:56.188Z</time>
      </trkpt>
      <trkpt lat="44.20236" lon="0.58656">
        <ele>47</ele>
        <time>2026-02-22T13:33:57.188Z</time>
      </trkpt>
      <trkpt lat="44.20236" lon="0.58656">
        <ele>47</ele>
        <time>2026-02-22T13:33:58.188Z</time>
      </trkpt>
      <trkpt lat="44.20236" lon="0.58656">
        <ele>47</ele>
        <time>2026-02-22T13:33:59.188Z</time>
      </trkpt>
      <trkpt lat="44.20236" lon="0.58656">
        <ele>47</ele>
        <time>2026-02-22T13:34:00.188Z</time>
      </trkpt>
      <trkpt lat="44.20236" lon="0.58656">
        <ele>48</ele>
        <time>2026-02-22T13:34:01.188Z</time>
      </trkpt>
      <trkpt lat="44.20236" lon="0.58656">
        <ele>48</ele>
        <time>2026-02-22T13:34:02.188Z</time>
      </trkpt>
      <trkpt lat="44.20236" lon="0.58656">
        <ele>48</ele>
        <time>2026-02-22T13:34:03.188Z</time>
      </trkpt>
      <trkpt lat="44.20236" lon="0.58656">
        <ele>49</ele>
        <time>2026-02-22T13:34:04.188Z</time>
      </trkpt>
      <trkpt lat="44.20236" lon="0.58657">
        <ele>49</ele>
        <time>2026-02-22T13:34:05.188Z</time>
      </trkpt>
      <trkpt lat="44.20236" lon="0.58657">
        <ele>49</ele>
        <time>2026-02-22T13:34:06.188Z</time>
      </trkpt>
      <trkpt lat="44.20235" lon="0.58657">
        <ele>49</ele>
        <time>2026-02-22T13:34:07.188Z</time>
      </trkpt>
      <trkpt lat="44.20235" lon="0.58657">
        <ele>49</ele>
        <time>2026-02-22T13:34:08.189Z</time>
      </trkpt>
      <trkpt lat="44.20235" lon="0.58658">
        <ele>49</ele>
        <time>2026-02-22T13:34:09.188Z</time>
      </trkpt>
      <trkpt lat="44.20234" lon="0.58658">
        <ele>50</ele>
        <time>2026-02-22T13:34:10.189Z</time>
      </trkpt>
      <trkpt lat="44.20234" lon="0.58658">
        <ele>50</ele>
        <time>2026-02-22T13:34:11.188Z</time>
      </trkpt>
      <trkpt lat="44.20234" lon="0.58658">
        <ele>50</ele>
        <time>2026-02-22T13:34:12.188Z</time>
      </trkpt>
      <trkpt lat="44.20233" lon="0.58658">
        <ele>51</ele>
        <time>2026-02-22T13:34:13.188Z</time>
      </trkpt>
      <trkpt lat="44.20233" lon="0.58659">
        <ele>51</ele>
        <time>2026-02-22T13:34:14.188Z</time>
      </trkpt>
      <trkpt lat="44.20233" lon="0.58658">
        <ele>51</ele>
        <time>2026-02-22T13:34:15.188Z</time>
      </trkpt>
      <trkpt lat="44.20233" lon="0.58658">
        <ele>50</ele>
        <time>2026-02-22T13:34:16.189Z</time>
      </trkpt>
      <trkpt lat="44.20233" lon="0.58658">
        <ele>49</ele>
        <time>2026-02-22T13:34:17.188Z</time>
      </trkpt>
      <trkpt lat="44.20233" lon="0.58658">
        <ele>49</ele>
        <time>2026-02-22T13:34:18.188Z</time>
      </trkpt>
      <trkpt lat="44.20233" lon="0.58658">
        <ele>48</ele>
        <time>2026-02-22T13:34:19.188Z</time>
      </trkpt>
      <trkpt lat="44.20233" lon="0.58658">
        <ele>48</ele>
        <time>2026-02-22T13:34:20.188Z</time>
      </trkpt>
      <trkpt lat="44.20233" lon="0.58659">
        <ele>47</ele>
        <time>2026-02-22T13:34:21.188Z</time>
      </trkpt>
      <trkpt lat="44.20233" lon="0.58659">
        <ele>47</ele>
        <time>2026-02-22T13:34:22.188Z</time>
      </trkpt>
      <trkpt lat="44.20233" lon="0.58659">
        <ele>47</ele>
        <time>2026-02-22T13:34:23.188Z</time>
      </trkpt>
      <trkpt lat="44.20233" lon="0.58659">
        <ele>47</ele>
        <time>2026-02-22T13:34:24.188Z</time>
      </trkpt>
      <trkpt lat="44.20233" lon="0.58659">
        <ele>47</ele>
        <time>2026-02-22T13:34:25.188Z</time>
      </trkpt>
      <trkpt lat="44.20233" lon="0.58658">
        <ele>47</ele>
        <time>2026-02-22T13:34:26.188Z</time>
      </trkpt>
      <trkpt lat="44.20232" lon="0.58658">
        <ele>47</ele>
        <time>2026-02-22T13:34:27.188Z</time>
      </trkpt>
      <trkpt lat="44.20233" lon="0.58657">
        <ele>47</ele>
        <time>2026-02-22T13:34:28.188Z</time>
      </trkpt>
      <trkpt lat="44.20233" lon="0.58656">
        <ele>47</ele>
        <time>2026-02-22T13:34:29.188Z</time>
      </trkpt>
      <trkpt lat="44.20234" lon="0.58656">
        <ele>46</ele>
        <time>2026-02-22T13:34:30.188Z</time>
      </trkpt>
      <trkpt lat="44.20234" lon="0.58655">
        <ele>46</ele>
        <time>2026-02-22T13:34:31.189Z</time>
      </trkpt>
      <trkpt lat="44.20234" lon="0.58654">
        <ele>47</ele>
        <time>2026-02-22T13:34:32.188Z</time>
      </trkpt>
      <trkpt lat="44.20234" lon="0.58652">
        <ele>47</ele>
        <time>2026-02-22T13:34:33.188Z</time>
      </trkpt>
      <trkpt lat="44.20234" lon="0.58651">
        <ele>48</ele>
        <time>2026-02-22T13:34:34.188Z</time>
      </trkpt>
      <trkpt lat="44.20234" lon="0.5865">
        <ele>48</ele>
        <time>2026-02-22T13:34:35.188Z</time>
      </trkpt>
      <trkpt lat="44.20233" lon="0.5865">
        <ele>48</ele>
        <time>2026-02-22T13:34:36.188Z</time>
      </trkpt>
      <trkpt lat="44.20233" lon="0.5865">
        <ele>48</ele>
        <time>2026-02-22T13:34:37.188Z</time>
      </trkpt>
      <trkpt lat="44.20234" lon="0.5865">
        <ele>48</ele>
        <time>2026-02-22T13:34:38.188Z</time>
      </trkpt>
      <trkpt lat="44.20234" lon="0.5865">
        <ele>47</ele>
        <time>2026-02-22T13:34:39.188Z</time>
      </trkpt>
      <trkpt lat="44.20234" lon="0.5865">
        <ele>47</ele>
        <time>2026-02-22T13:34:40.188Z</time>
      </trkpt>
      <trkpt lat="44.20234" lon="0.5865">
        <ele>48</ele>
        <time>2026-02-22T13:34:41.188Z</time>
      </trkpt>
      <trkpt lat="44.20234" lon="0.58651">
        <ele>48</ele>
        <time>2026-02-22T13:34:42.188Z</time>
      </trkpt>
      <trkpt lat="44.20234" lon="0.58651">
        <ele>49</ele>
        <time>2026-02-22T13:34:43.188Z</time>
      </trkpt>
      <trkpt lat="44.20234" lon="0.58651">
        <ele>49</ele>
        <time>2026-02-22T13:34:44.188Z</time>
      </trkpt>
      <trkpt lat="44.20234" lon="0.58651">
        <ele>48</ele>
        <time>2026-02-22T13:34:45.188Z</time>
      </trkpt>
      <trkpt lat="44.20234" lon="0.58651">
        <ele>48</ele>
        <time>2026-02-22T13:34:46.189Z</time>
      </trkpt>
      <trkpt lat="44.20234" lon="0.5865">
        <ele>48</ele>
        <time>2026-02-22T13:34:47.188Z</time>
      </trkpt>
      <trkpt lat="44.20234" lon="0.5865">
        <ele>47</ele>
        <time>2026-02-22T13:34:48.188Z</time>
      </trkpt>
      <trkpt lat="44.20234" lon="0.5865">
        <ele>47</ele>
        <time>2026-02-22T13:34:49.188Z</time>
      </trkpt>
      <trkpt lat="44.20234" lon="0.5865">
        <ele>47</ele>
        <time>2026-02-22T13:34:50.188Z</time>
      </trkpt>
      <trkpt lat="44.20233" lon="0.5865">
        <ele>47</ele>
        <time>2026-02-22T13:34:51.188Z</time>
      </trkpt>
      <trkpt lat="44.20233" lon="0.5865">
        <ele>47</ele>
        <time>2026-02-22T13:34:52.188Z</time>
      </trkpt>
      <trkpt lat="44.20234" lon="0.5865">
        <ele>47</ele>
        <time>2026-02-22T13:34:53.188Z</time>
      </trkpt>
      <trkpt lat="44.20234" lon="0.5865">
        <ele>47</ele>
        <time>2026-02-22T13:34:54.188Z</time>
      </trkpt>
      <trkpt lat="44.20234" lon="0.5865">
        <ele>47</ele>
        <time>2026-02-22T13:34:55.188Z</time>
      </trkpt>
      <trkpt lat="44.20234" lon="0.5865">
        <ele>47</ele>
        <time>2026-02-22T13:34:56.188Z</time>
      </trkpt>
      <trkpt lat="44.20234" lon="0.5865">
        <ele>48</ele>
        <time>2026-02-22T13:34:57.188Z</time>
      </trkpt>
      <trkpt lat="44.20234" lon="0.5865">
        <ele>47</ele>
        <time>2026-02-22T13:34:58.188Z</time>
      </trkpt>
      <trkpt lat="44.20234" lon="0.5865">
        <ele>47</ele>
        <time>2026-02-22T13:34:59.188Z</time>
      </trkpt>
      <trkpt lat="44.20234" lon="0.58651">
        <ele>46</ele>
        <time>2026-02-22T13:35:00.188Z</time>
      </trkpt>
      <trkpt lat="44.20234" lon="0.58651">
        <ele>46</ele>
        <time>2026-02-22T13:35:01.188Z</time>
      </trkpt>
      <trkpt lat="44.20234" lon="0.58651">
        <ele>46</ele>
        <time>2026-02-22T13:35:02.188Z</time>
      </trkpt>
      <trkpt lat="44.20234" lon="0.58651">
        <ele>46</ele>
        <time>2026-02-22T13:35:03.188Z</time>
      </trkpt>
      <trkpt lat="44.20234" lon="0.58651">
        <ele>46</ele>
        <time>2026-02-22T13:35:04.188Z</time>
      </trkpt>
      <trkpt lat="44.20234" lon="0.5865">
        <ele>46</ele>
        <time>2026-02-22T13:35:05.188Z</time>
      </trkpt>
      <trkpt lat="44.20234" lon="0.5865">
        <ele>46</ele>
        <time>2026-02-22T13:35:06.188Z</time>
      </trkpt>
      <trkpt lat="44.20234" lon="0.58649">
        <ele>46</ele>
        <time>2026-02-22T13:35:07.188Z</time>
      </trkpt>
      <trkpt lat="44.20235" lon="0.58649">
        <ele>47</ele>
        <time>2026-02-22T13:35:08.188Z</time>
      </trkpt>
      <trkpt lat="44.20235" lon="0.58648">
        <ele>47</ele>
        <time>2026-02-22T13:35:09.188Z</time>
      </trkpt>
      <trkpt lat="44.20235" lon="0.58648">
        <ele>47</ele>
        <time>2026-02-22T13:35:10.188Z</time>
      </trkpt>
      <trkpt lat="44.20235" lon="0.58647">
        <ele>47</ele>
        <time>2026-02-22T13:35:11.188Z</time>
      </trkpt>
      <trkpt lat="44.20234" lon="0.58646">
        <ele>46</ele>
        <time>2026-02-22T13:35:12.188Z</time>
      </trkpt>
      <trkpt lat="44.20233" lon="0.58645">
        <ele>46</ele>
        <time>2026-02-22T13:35:13.188Z</time>
      </trkpt>
      <trkpt lat="44.20233" lon="0.58644">
        <ele>45</ele>
        <time>2026-02-22T13:35:14.188Z</time>
      </trkpt>
      <trkpt lat="44.20232" lon="0.58643">
        <ele>45</ele>
        <time>2026-02-22T13:35:15.188Z</time>
      </trkpt>
      <trkpt lat="44.20231" lon="0.58642">
        <ele>45</ele>
        <time>2026-02-22T13:35:16.188Z</time>
      </trkpt>
      <trkpt lat="44.2023" lon="0.58642">
        <ele>46</ele>
        <time>2026-02-22T13:35:17.188Z</time>
      </trkpt>
      <trkpt lat="44.20229" lon="0.58641">
        <ele>46</ele>
        <time>2026-02-22T13:35:18.188Z</time>
      </trkpt>
      <trkpt lat="44.20228" lon="0.58639">
        <ele>46</ele>
        <time>2026-02-22T13:35:19.188Z</time>
      </trkpt>
      <trkpt lat="44.20227" lon="0.58638">
        <ele>46</ele>
        <time>2026-02-22T13:35:20.188Z</time>
      </trkpt>
      <trkpt lat="44.20226" lon="0.58637">
        <ele>46</ele>
        <time>2026-02-22T13:35:21.188Z</time>
      </trkpt>
      <trkpt lat="44.20225" lon="0.58636">
        <ele>46</ele>
        <time>2026-02-22T13:35:22.188Z</time>
      </trkpt>
      <trkpt lat="44.20224" lon="0.58636">
        <ele>46</ele>
        <time>2026-02-22T13:35:23.188Z</time>
      </trkpt>
      <trkpt lat="44.20224" lon="0.58635">
        <ele>46</ele>
        <time>2026-02-22T13:35:24.189Z</time>
      </trkpt>
      <trkpt lat="44.20222" lon="0.58634">
        <ele>46</ele>
        <time>2026-02-22T13:35:25.188Z</time>
      </trkpt>
      <trkpt lat="44.20221" lon="0.58633">
        <ele>46</ele>
        <time>2026-02-22T13:35:26.188Z</time>
      </trkpt>
      <trkpt lat="44.2022" lon="0.58632">
        <ele>46</ele>
        <time>2026-02-22T13:35:27.188Z</time>
      </trkpt>
      <trkpt lat="44.20219" lon="0.58631">
        <ele>46</ele>
        <time>2026-02-22T13:35:28.188Z</time>
      </trkpt>
      <trkpt lat="44.20218" lon="0.5863">
        <ele>46</ele>
        <time>2026-02-22T13:35:29.188Z</time>
      </trkpt>
      <trkpt lat="44.20217" lon="0.5863">
        <ele>46</ele>
        <time>2026-02-22T13:35:30.188Z</time>
      </trkpt>
      <trkpt lat="44.20217" lon="0.58629">
        <ele>46</ele>
        <time>2026-02-22T13:35:31.188Z</time>
      </trkpt>
      <trkpt lat="44.20216" lon="0.58628">
        <ele>46</ele>
        <time>2026-02-22T13:35:32.188Z</time>
      </trkpt>
      <trkpt lat="44.20215" lon="0.58627">
        <ele>46</ele>
        <time>2026-02-22T13:35:33.188Z</time>
      </trkpt>
      <trkpt lat="44.20214" lon="0.58626">
        <ele>46</ele>
        <time>2026-02-22T13:35:34.188Z</time>
      </trkpt>
      <trkpt lat="44.20213" lon="0.58625">
        <ele>46</ele>
        <time>2026-02-22T13:35:35.188Z</time>
      </trkpt>
      <trkpt lat="44.20211" lon="0.58624">
        <ele>46</ele>
        <time>2026-02-22T13:35:36.188Z</time>
      </trkpt>
      <trkpt lat="44.2021" lon="0.58623">
        <ele>46</ele>
        <time>2026-02-22T13:35:37.188Z</time>
      </trkpt>
      <trkpt lat="44.20209" lon="0.58622">
        <ele>46</ele>
        <time>2026-02-22T13:35:38.189Z</time>
      </trkpt>
      <trkpt lat="44.20209" lon="0.58621">
        <ele>46</ele>
        <time>2026-02-22T13:35:39.188Z</time>
      </trkpt>
      <trkpt lat="44.20208" lon="0.5862">
        <ele>45</ele>
        <time>2026-02-22T13:35:40.189Z</time>
      </trkpt>
      <trkpt lat="44.20207" lon="0.58619">
        <ele>45</ele>
        <time>2026-02-22T13:35:41.188Z</time>
      </trkpt>
      <trkpt lat="44.20206" lon="0.58618">
        <ele>45</ele>
        <time>2026-02-22T13:35:42.188Z</time>
      </trkpt>
      <trkpt lat="44.20205" lon="0.58617">
        <ele>45</ele>
        <time>2026-02-22T13:35:43.188Z</time>
      </trkpt>
      <trkpt lat="44.20204" lon="0.58616">
        <ele>45</ele>
        <time>2026-02-22T13:35:44.188Z</time>
      </trkpt>
      <trkpt lat="44.20203" lon="0.58615">
        <ele>45</ele>
        <time>2026-02-22T13:35:45.188Z</time>
      </trkpt>
      <trkpt lat="44.20202" lon="0.58614">
        <ele>44</ele>
        <time>2026-02-22T13:35:46.189Z</time>
      </trkpt>
      <trkpt lat="44.20201" lon="0.58613">
        <ele>44</ele>
        <time>2026-02-22T13:35:47.188Z</time>
      </trkpt>
      <trkpt lat="44.202" lon="0.58612">
        <ele>44</ele>
        <time>2026-02-22T13:35:48.188Z</time>
      </trkpt>
      <trkpt lat="44.20199" lon="0.58611">
        <ele>43</ele>
        <time>2026-02-22T13:35:49.188Z</time>
      </trkpt>
      <trkpt lat="44.20198" lon="0.5861">
        <ele>43</ele>
        <time>2026-02-22T13:35:50.188Z</time>
      </trkpt>
      <trkpt lat="44.20197" lon="0.58609">
        <ele>43</ele>
        <time>2026-02-22T13:35:51.188Z</time>
      </trkpt>
      <trkpt lat="44.20196" lon="0.58607">
        <ele>44</ele>
        <time>2026-02-22T13:35:52.188Z</time>
      </trkpt>
      <trkpt lat="44.20195" lon="0.58606">
        <ele>44</ele>
        <time>2026-02-22T13:35:53.189Z</time>
      </trkpt>
      <trkpt lat="44.20194" lon="0.58605">
        <ele>44</ele>
        <time>2026-02-22T13:35:54.188Z</time>
      </trkpt>
      <trkpt lat="44.20193" lon="0.58604">
        <ele>44</ele>
        <time>2026-02-22T13:35:55.188Z</time>
      </trkpt>
      <trkpt lat="44.20192" lon="0.58603">
        <ele>44</ele>
        <time>2026-02-22T13:35:56.188Z</time>
      </trkpt>
      <trkpt lat="44.20191" lon="0.58602">
        <ele>44</ele>
        <time>2026-02-22T13:35:57.188Z</time>
      </trkpt>
      <trkpt lat="44.2019" lon="0.58601">
        <ele>44</ele>
        <time>2026-02-22T13:35:58.188Z</time>
      </trkpt>
      <trkpt lat="44.20189" lon="0.586">
        <ele>44</ele>
        <time>2026-02-22T13:35:59.188Z</time>
      </trkpt>
      <trkpt lat="44.20188" lon="0.58599">
        <ele>44</ele>
        <time>2026-02-22T13:36:00.189Z</time>
      </trkpt>
      <trkpt lat="44.20187" lon="0.58598">
        <ele>43</ele>
        <time>2026-02-22T13:36:01.188Z</time>
      </trkpt>
      <trkpt lat="44.20186" lon="0.58598">
        <ele>43</ele>
        <time>2026-02-22T13:36:02.188Z</time>
      </trkpt>
      <trkpt lat="44.20185" lon="0.58597">
        <ele>43</ele>
        <time>2026-02-22T13:36:03.188Z</time>
      </trkpt>
      <trkpt lat="44.20184" lon="0.58596">
        <ele>43</ele>
        <time>2026-02-22T13:36:04.188Z</time>
      </trkpt>
      <trkpt lat="44.20183" lon="0.58595">
        <ele>43</ele>
        <time>2026-02-22T13:36:05.188Z</time>
      </trkpt>
      <trkpt lat="44.20182" lon="0.58593">
        <ele>44</ele>
        <time>2026-02-22T13:36:06.189Z</time>
      </trkpt>
      <trkpt lat="44.20181" lon="0.58593">
        <ele>44</ele>
        <time>2026-02-22T13:36:07.188Z</time>
      </trkpt>
      <trkpt lat="44.2018" lon="0.58592">
        <ele>44</ele>
        <time>2026-02-22T13:36:08.188Z</time>
      </trkpt>
      <trkpt lat="44.2018" lon="0.58591">
        <ele>44</ele>
        <time>2026-02-22T13:36:09.188Z</time>
      </trkpt>
      <trkpt lat="44.20179" lon="0.5859">
        <ele>44</ele>
        <time>2026-02-22T13:36:10.188Z</time>
      </trkpt>
      <trkpt lat="44.20178" lon="0.58589">
        <ele>43</ele>
        <time>2026-02-22T13:36:11.188Z</time>
      </trkpt>
      <trkpt lat="44.20176" lon="0.58588">
        <ele>43</ele>
        <time>2026-02-22T13:36:12.188Z</time>
      </trkpt>
      <trkpt lat="44.20175" lon="0.58587">
        <ele>43</ele>
        <time>2026-02-22T13:36:13.188Z</time>
      </trkpt>
      <trkpt lat="44.20174" lon="0.58587">
        <ele>42</ele>
        <time>2026-02-22T13:36:14.188Z</time>
      </trkpt>
      <trkpt lat="44.20172" lon="0.58585">
        <ele>43</ele>
        <time>2026-02-22T13:36:15.188Z</time>
      </trkpt>
      <trkpt lat="44.20171" lon="0.58584">
        <ele>43</ele>
        <time>2026-02-22T13:36:16.188Z</time>
      </trkpt>
      <trkpt lat="44.2017" lon="0.58583">
        <ele>43</ele>
        <time>2026-02-22T13:36:17.188Z</time>
      </trkpt>
      <trkpt lat="44.20169" lon="0.58583">
        <ele>43</ele>
        <time>2026-02-22T13:36:18.188Z</time>
      </trkpt>
      <trkpt lat="44.20169" lon="0.58582">
        <ele>43</ele>
        <time>2026-02-22T13:36:19.188Z</time>
      </trkpt>
      <trkpt lat="44.20168" lon="0.58581">
        <ele>43</ele>
        <time>2026-02-22T13:36:20.188Z</time>
      </trkpt>
      <trkpt lat="44.20167" lon="0.5858">
        <ele>43</ele>
        <time>2026-02-22T13:36:21.188Z</time>
      </trkpt>
      <trkpt lat="44.20166" lon="0.5858">
        <ele>43</ele>
        <time>2026-02-22T13:36:22.188Z</time>
      </trkpt>
      <trkpt lat="44.20165" lon="0.58579">
        <ele>43</ele>
        <time>2026-02-22T13:36:23.188Z</time>
      </trkpt>
      <trkpt lat="44.20164" lon="0.58578">
        <ele>43</ele>
        <time>2026-02-22T13:36:24.188Z</time>
      </trkpt>
      <trkpt lat="44.20163" lon="0.58577">
        <ele>42</ele>
        <time>2026-02-22T13:36:25.188Z</time>
      </trkpt>
      <trkpt lat="44.20162" lon="0.58576">
        <ele>42</ele>
        <time>2026-02-22T13:36:26.188Z</time>
      </trkpt>
      <trkpt lat="44.20161" lon="0.58575">
        <ele>42</ele>
        <time>2026-02-22T13:36:27.188Z</time>
      </trkpt>
      <trkpt lat="44.2016" lon="0.58574">
        <ele>42</ele>
        <time>2026-02-22T13:36:28.188Z</time>
      </trkpt>
      <trkpt lat="44.20159" lon="0.58573">
        <ele>41</ele>
        <time>2026-02-22T13:36:29.188Z</time>
      </trkpt>
      <trkpt lat="44.20158" lon="0.58572">
        <ele>41</ele>
        <time>2026-02-22T13:36:30.188Z</time>
      </trkpt>
      <trkpt lat="44.20157" lon="0.58571">
        <ele>41</ele>
        <time>2026-02-22T13:36:31.188Z</time>
      </trkpt>
      <trkpt lat="44.20156" lon="0.5857">
        <ele>41</ele>
        <time>2026-02-22T13:36:32.189Z</time>
      </trkpt>
      <trkpt lat="44.20155" lon="0.58568">
        <ele>42</ele>
        <time>2026-02-22T13:36:33.188Z</time>
      </trkpt>
      <trkpt lat="44.20154" lon="0.58567">
        <ele>42</ele>
        <time>2026-02-22T13:36:34.188Z</time>
      </trkpt>
      <trkpt lat="44.20153" lon="0.58566">
        <ele>42</ele>
        <time>2026-02-22T13:36:35.188Z</time>
      </trkpt>
      <trkpt lat="44.20151" lon="0.58565">
        <ele>42</ele>
        <time>2026-02-22T13:36:36.189Z</time>
      </trkpt>
      <trkpt lat="44.2015" lon="0.58564">
        <ele>42</ele>
        <time>2026-02-22T13:36:37.189Z</time>
      </trkpt>
      <trkpt lat="44.20149" lon="0.58563">
        <ele>42</ele>
        <time>2026-02-22T13:36:38.189Z</time>
      </trkpt>
      <trkpt lat="44.20148" lon="0.58561">
        <ele>42</ele>
        <time>2026-02-22T13:36:39.188Z</time>
      </trkpt>
      <trkpt lat="44.20147" lon="0.58561">
        <ele>43</ele>
        <time>2026-02-22T13:36:40.188Z</time>
      </trkpt>
      <trkpt lat="44.20146" lon="0.5856">
        <ele>43</ele>
        <time>2026-02-22T13:36:41.188Z</time>
      </trkpt>
      <trkpt lat="44.20145" lon="0.58559">
        <ele>43</ele>
        <time>2026-02-22T13:36:42.188Z</time>
      </trkpt>
      <trkpt lat="44.20143" lon="0.58558">
        <ele>43</ele>
        <time>2026-02-22T13:36:43.188Z</time>
      </trkpt>
      <trkpt lat="44.20142" lon="0.58557">
        <ele>43</ele>
        <time>2026-02-22T13:36:44.188Z</time>
      </trkpt>
      <trkpt lat="44.20141" lon="0.58556">
        <ele>43</ele>
        <time>2026-02-22T13:36:45.188Z</time>
      </trkpt>
      <trkpt lat="44.2014" lon="0.58555">
        <ele>43</ele>
        <time>2026-02-22T13:36:46.188Z</time>
      </trkpt>
      <trkpt lat="44.20139" lon="0.58554">
        <ele>43</ele>
        <time>2026-02-22T13:36:47.189Z</time>
      </trkpt>
      <trkpt lat="44.20138" lon="0.58553">
        <ele>43</ele>
        <time>2026-02-22T13:36:48.188Z</time>
      </trkpt>
      <trkpt lat="44.20137" lon="0.58552">
        <ele>44</ele>
        <time>2026-02-22T13:36:49.188Z</time>
      </trkpt>
      <trkpt lat="44.20135" lon="0.58551">
        <ele>44</ele>
        <time>2026-02-22T13:36:50.188Z</time>
      </trkpt>
      <trkpt lat="44.20134" lon="0.5855">
        <ele>44</ele>
        <time>2026-02-22T13:36:51.188Z</time>
      </trkpt>
      <trkpt lat="44.20133" lon="0.58549">
        <ele>44</ele>
        <time>2026-02-22T13:36:52.188Z</time>
      </trkpt>
      <trkpt lat="44.20132" lon="0.58548">
        <ele>44</ele>
        <time>2026-02-22T13:36:53.188Z</time>
      </trkpt>
      <trkpt lat="44.20132" lon="0.58547">
        <ele>44</ele>
        <time>2026-02-22T13:36:54.188Z</time>
      </trkpt>
      <trkpt lat="44.20131" lon="0.58546">
        <ele>44</ele>
        <time>2026-02-22T13:36:55.188Z</time>
      </trkpt>
      <trkpt lat="44.2013" lon="0.58546">
        <ele>43</ele>
        <time>2026-02-22T13:36:56.188Z</time>
      </trkpt>
      <trkpt lat="44.20129" lon="0.58544">
        <ele>43</ele>
        <time>2026-02-22T13:36:57.188Z</time>
      </trkpt>
      <trkpt lat="44.20128" lon="0.58543">
        <ele>43</ele>
        <time>2026-02-22T13:36:58.188Z</time>
      </trkpt>
      <trkpt lat="44.20127" lon="0.58542">
        <ele>43</ele>
        <time>2026-02-22T13:36:59.188Z</time>
      </trkpt>
      <trkpt lat="44.20125" lon="0.58541">
        <ele>43</ele>
        <time>2026-02-22T13:37:00.189Z</time>
      </trkpt>
      <trkpt lat="44.20125" lon="0.58541">
        <ele>43</ele>
        <time>2026-02-22T13:37:01.188Z</time>
      </trkpt>
      <trkpt lat="44.20124" lon="0.5854">
        <ele>42</ele>
        <time>2026-02-22T13:37:02.189Z</time>
      </trkpt>
      <trkpt lat="44.20123" lon="0.58539">
        <ele>42</ele>
        <time>2026-02-22T13:37:03.188Z</time>
      </trkpt>
      <trkpt lat="44.20122" lon="0.58538">
        <ele>42</ele>
        <time>2026-02-22T13:37:04.188Z</time>
      </trkpt>
      <trkpt lat="44.20121" lon="0.58537">
        <ele>42</ele>
        <time>2026-02-22T13:37:05.188Z</time>
      </trkpt>
      <trkpt lat="44.20119" lon="0.58536">
        <ele>42</ele>
        <time>2026-02-22T13:37:06.188Z</time>
      </trkpt>
      <trkpt lat="44.20118" lon="0.58535">
        <ele>42</ele>
        <time>2026-02-22T13:37:07.188Z</time>
      </trkpt>
      <trkpt lat="44.20117" lon="0.58534">
        <ele>42</ele>
        <time>2026-02-22T13:37:08.188Z</time>
      </trkpt>
      <trkpt lat="44.20116" lon="0.58533">
        <ele>42</ele>
        <time>2026-02-22T13:37:09.188Z</time>
      </trkpt>
      <trkpt lat="44.20115" lon="0.58532">
        <ele>42</ele>
        <time>2026-02-22T13:37:10.188Z</time>
      </trkpt>
      <trkpt lat="44.20114" lon="0.58532">
        <ele>42</ele>
        <time>2026-02-22T13:37:11.188Z</time>
      </trkpt>
      <trkpt lat="44.20113" lon="0.58531">
        <ele>42</ele>
        <time>2026-02-22T13:37:12.188Z</time>
      </trkpt>
      <trkpt lat="44.20112" lon="0.5853">
        <ele>42</ele>
        <time>2026-02-22T13:37:13.189Z</time>
      </trkpt>
      <trkpt lat="44.20111" lon="0.58529">
        <ele>41</ele>
        <time>2026-02-22T13:37:14.188Z</time>
      </trkpt>
      <trkpt lat="44.2011" lon="0.58528">
        <ele>41</ele>
        <time>2026-02-22T13:37:15.189Z</time>
      </trkpt>
      <trkpt lat="44.20109" lon="0.58527">
        <ele>41</ele>
        <time>2026-02-22T13:37:16.188Z</time>
      </trkpt>
      <trkpt lat="44.20108" lon="0.58526">
        <ele>41</ele>
        <time>2026-02-22T13:37:17.188Z</time>
      </trkpt>
      <trkpt lat="44.20107" lon="0.58525">
        <ele>41</ele>
        <time>2026-02-22T13:37:18.188Z</time>
      </trkpt>
      <trkpt lat="44.20106" lon="0.58524">
        <ele>41</ele>
        <time>2026-02-22T13:37:19.188Z</time>
      </trkpt>
      <trkpt lat="44.20105" lon="0.58523">
        <ele>41</ele>
        <time>2026-02-22T13:37:20.188Z</time>
      </trkpt>
      <trkpt lat="44.20104" lon="0.58522">
        <ele>41</ele>
        <time>2026-02-22T13:37:21.188Z</time>
      </trkpt>
      <trkpt lat="44.20103" lon="0.58521">
        <ele>41</ele>
        <time>2026-02-22T13:37:22.188Z</time>
      </trkpt>
      <trkpt lat="44.20102" lon="0.58521">
        <ele>41</ele>
        <time>2026-02-22T13:37:23.188Z</time>
      </trkpt>
      <trkpt lat="44.20101" lon="0.5852">
        <ele>41</ele>
        <time>2026-02-22T13:37:24.188Z</time>
      </trkpt>
      <trkpt lat="44.201" lon="0.58519">
        <ele>41</ele>
        <time>2026-02-22T13:37:25.188Z</time>
      </trkpt>
      <trkpt lat="44.20099" lon="0.58518">
        <ele>41</ele>
        <time>2026-02-22T13:37:26.188Z</time>
      </trkpt>
      <trkpt lat="44.20098" lon="0.58517">
        <ele>41</ele>
        <time>2026-02-22T13:37:27.188Z</time>
      </trkpt>
      <trkpt lat="44.20097" lon="0.58516">
        <ele>41</ele>
        <time>2026-02-22T13:37:28.189Z</time>
      </trkpt>
      <trkpt lat="44.20095" lon="0.58515">
        <ele>41</ele>
        <time>2026-02-22T13:37:29.188Z</time>
      </trkpt>
      <trkpt lat="44.20095" lon="0.58514">
        <ele>41</ele>
        <time>2026-02-22T13:37:30.189Z</time>
      </trkpt>
      <trkpt lat="44.20094" lon="0.58513">
        <ele>40</ele>
        <time>2026-02-22T13:37:31.188Z</time>
      </trkpt>
      <trkpt lat="44.20093" lon="0.58512">
        <ele>40</ele>
        <time>2026-02-22T13:37:32.188Z</time>
      </trkpt>
      <trkpt lat="44.20092" lon="0.58512">
        <ele>40</ele>
        <time>2026-02-22T13:37:33.188Z</time>
      </trkpt>
      <trkpt lat="44.20091" lon="0.58511">
        <ele>40</ele>
        <time>2026-02-22T13:37:34.188Z</time>
      </trkpt>
      <trkpt lat="44.2009" lon="0.5851">
        <ele>40</ele>
        <time>2026-02-22T13:37:35.188Z</time>
      </trkpt>
      <trkpt lat="44.20089" lon="0.58509">
        <ele>40</ele>
        <time>2026-02-22T13:37:36.188Z</time>
      </trkpt>
      <trkpt lat="44.20088" lon="0.58508">
        <ele>40</ele>
        <time>2026-02-22T13:37:37.188Z</time>
      </trkpt>
      <trkpt lat="44.20087" lon="0.58506">
        <ele>40</ele>
        <time>2026-02-22T13:37:38.188Z</time>
      </trkpt>
      <trkpt lat="44.20086" lon="0.58506">
        <ele>40</ele>
        <time>2026-02-22T13:37:39.188Z</time>
      </trkpt>
      <trkpt lat="44.20084" lon="0.58505">
        <ele>40</ele>
        <time>2026-02-22T13:37:40.188Z</time>
      </trkpt>
      <trkpt lat="44.20083" lon="0.58504">
        <ele>40</ele>
        <time>2026-02-22T13:37:41.188Z</time>
      </trkpt>
      <trkpt lat="44.20083" lon="0.58504">
        <ele>40</ele>
        <time>2026-02-22T13:37:42.188Z</time>
      </trkpt>
      <trkpt lat="44.20082" lon="0.58503">
        <ele>40</ele>
        <time>2026-02-22T13:37:43.188Z</time>
      </trkpt>
      <trkpt lat="44.20081" lon="0.58502">
        <ele>40</ele>
        <time>2026-02-22T13:37:44.188Z</time>
      </trkpt>
      <trkpt lat="44.2008" lon="0.58501">
        <ele>40</ele>
        <time>2026-02-22T13:37:45.188Z</time>
      </trkpt>
      <trkpt lat="44.20078" lon="0.58499">
        <ele>40</ele>
        <time>2026-02-22T13:37:46.188Z</time>
      </trkpt>
      <trkpt lat="44.20077" lon="0.58498">
        <ele>40</ele>
        <time>2026-02-22T13:37:47.188Z</time>
      </trkpt>
      <trkpt lat="44.20076" lon="0.58497">
        <ele>40</ele>
        <time>2026-02-22T13:37:48.188Z</time>
      </trkpt>
      <trkpt lat="44.20075" lon="0.58497">
        <ele>40</ele>
        <time>2026-02-22T13:37:49.188Z</time>
      </trkpt>
      <trkpt lat="44.20074" lon="0.58496">
        <ele>40</ele>
        <time>2026-02-22T13:37:50.189Z</time>
      </trkpt>
      <trkpt lat="44.20073" lon="0.58495">
        <ele>40</ele>
        <time>2026-02-22T13:37:51.188Z</time>
      </trkpt>
      <trkpt lat="44.20072" lon="0.58495">
        <ele>40</ele>
        <time>2026-02-22T13:37:52.188Z</time>
      </trkpt>
      <trkpt lat="44.20071" lon="0.58494">
        <ele>41</ele>
        <time>2026-02-22T13:37:53.188Z</time>
      </trkpt>
      <trkpt lat="44.2007" lon="0.58492">
        <ele>41</ele>
        <time>2026-02-22T13:37:54.188Z</time>
      </trkpt>
      <trkpt lat="44.20069" lon="0.58491">
        <ele>41</ele>
        <time>2026-02-22T13:37:55.188Z</time>
      </trkpt>
      <trkpt lat="44.20068" lon="0.5849">
        <ele>41</ele>
        <time>2026-02-22T13:37:56.188Z</time>
      </trkpt>
      <trkpt lat="44.20067" lon="0.58489">
        <ele>41</ele>
        <time>2026-02-22T13:37:57.188Z</time>
      </trkpt>
      <trkpt lat="44.20065" lon="0.58488">
        <ele>41</ele>
        <time>2026-02-22T13:37:58.188Z</time>
      </trkpt>
      <trkpt lat="44.20064" lon="0.58487">
        <ele>41</ele>
        <time>2026-02-22T13:37:59.188Z</time>
      </trkpt>
      <trkpt lat="44.20063" lon="0.58486">
        <ele>41</ele>
        <time>2026-02-22T13:38:00.188Z</time>
      </trkpt>
      <trkpt lat="44.20062" lon="0.58485">
        <ele>41</ele>
        <time>2026-02-22T13:38:01.188Z</time>
      </trkpt>
      <trkpt lat="44.20061" lon="0.58485">
        <ele>41</ele>
        <time>2026-02-22T13:38:02.188Z</time>
      </trkpt>
      <trkpt lat="44.2006" lon="0.58484">
        <ele>41</ele>
        <time>2026-02-22T13:38:03.188Z</time>
      </trkpt>
      <trkpt lat="44.20059" lon="0.58483">
        <ele>41</ele>
        <time>2026-02-22T13:38:04.188Z</time>
      </trkpt>
      <trkpt lat="44.20058" lon="0.58481">
        <ele>42</ele>
        <time>2026-02-22T13:38:05.188Z</time>
      </trkpt>
      <trkpt lat="44.20057" lon="0.5848">
        <ele>42</ele>
        <time>2026-02-22T13:38:06.188Z</time>
      </trkpt>
      <trkpt lat="44.20056" lon="0.58479">
        <ele>42</ele>
        <time>2026-02-22T13:38:07.188Z</time>
      </trkpt>
      <trkpt lat="44.20055" lon="0.58478">
        <ele>42</ele>
        <time>2026-02-22T13:38:08.188Z</time>
      </trkpt>
      <trkpt lat="44.20054" lon="0.58477">
        <ele>42</ele>
        <time>2026-02-22T13:38:09.188Z</time>
      </trkpt>
      <trkpt lat="44.20053" lon="0.58476">
        <ele>42</ele>
        <time>2026-02-22T13:38:10.188Z</time>
      </trkpt>
      <trkpt lat="44.20052" lon="0.58475">
        <ele>41</ele>
        <time>2026-02-22T13:38:11.188Z</time>
      </trkpt>
      <trkpt lat="44.20051" lon="0.58475">
        <ele>41</ele>
        <time>2026-02-22T13:38:12.188Z</time>
      </trkpt>
      <trkpt lat="44.2005" lon="0.58474">
        <ele>41</ele>
        <time>2026-02-22T13:38:13.188Z</time>
      </trkpt>
      <trkpt lat="44.20049" lon="0.58473">
        <ele>41</ele>
        <time>2026-02-22T13:38:14.188Z</time>
      </trkpt>
      <trkpt lat="44.20048" lon="0.58471">
        <ele>41</ele>
        <time>2026-02-22T13:38:15.188Z</time>
      </trkpt>
      <trkpt lat="44.20046" lon="0.5847">
        <ele>41</ele>
        <time>2026-02-22T13:38:16.188Z</time>
      </trkpt>
      <trkpt lat="44.20045" lon="0.58469">
        <ele>42</ele>
        <time>2026-02-22T13:38:17.188Z</time>
      </trkpt>
      <trkpt lat="44.20044" lon="0.58468">
        <ele>42</ele>
        <time>2026-02-22T13:38:18.188Z</time>
      </trkpt>
      <trkpt lat="44.20043" lon="0.58467">
        <ele>42</ele>
        <time>2026-02-22T13:38:19.188Z</time>
      </trkpt>
      <trkpt lat="44.20042" lon="0.58466">
        <ele>42</ele>
        <time>2026-02-22T13:38:20.188Z</time>
      </trkpt>
      <trkpt lat="44.20041" lon="0.58466">
        <ele>42</ele>
        <time>2026-02-22T13:38:21.188Z</time>
      </trkpt>
      <trkpt lat="44.2004" lon="0.58465">
        <ele>42</ele>
        <time>2026-02-22T13:38:22.189Z</time>
      </trkpt>
      <trkpt lat="44.20039" lon="0.58464">
        <ele>42</ele>
        <time>2026-02-22T13:38:23.188Z</time>
      </trkpt>
      <trkpt lat="44.20038" lon="0.58463">
        <ele>41</ele>
        <time>2026-02-22T13:38:24.188Z</time>
      </trkpt>
      <trkpt lat="44.20037" lon="0.58462">
        <ele>41</ele>
        <time>2026-02-22T13:38:25.188Z</time>
      </trkpt>
      <trkpt lat="44.20036" lon="0.58461">
        <ele>41</ele>
        <time>2026-02-22T13:38:26.189Z</time>
      </trkpt>
      <trkpt lat="44.20034" lon="0.5846">
        <ele>41</ele>
        <time>2026-02-22T13:38:27.189Z</time>
      </trkpt>
      <trkpt lat="44.20034" lon="0.58459">
        <ele>42</ele>
        <time>2026-02-22T13:38:28.189Z</time>
      </trkpt>
      <trkpt lat="44.20033" lon="0.58458">
        <ele>42</ele>
        <time>2026-02-22T13:38:29.188Z</time>
      </trkpt>
      <trkpt lat="44.20032" lon="0.58457">
        <ele>42</ele>
        <time>2026-02-22T13:38:30.188Z</time>
      </trkpt>
      <trkpt lat="44.20031" lon="0.58456">
        <ele>42</ele>
        <time>2026-02-22T13:38:31.188Z</time>
      </trkpt>
      <trkpt lat="44.2003" lon="0.58455">
        <ele>42</ele>
        <time>2026-02-22T13:38:32.188Z</time>
      </trkpt>
      <trkpt lat="44.20029" lon="0.58454">
        <ele>42</ele>
        <time>2026-02-22T13:38:33.188Z</time>
      </trkpt>
      <trkpt lat="44.20027" lon="0.58453">
        <ele>42</ele>
        <time>2026-02-22T13:38:34.188Z</time>
      </trkpt>
      <trkpt lat="44.20026" lon="0.58452">
        <ele>42</ele>
        <time>2026-02-22T13:38:35.188Z</time>
      </trkpt>
      <trkpt lat="44.20025" lon="0.58451">
        <ele>42</ele>
        <time>2026-02-22T13:38:36.188Z</time>
      </trkpt>
      <trkpt lat="44.20024" lon="0.5845">
        <ele>42</ele>
        <time>2026-02-22T13:38:37.189Z</time>
      </trkpt>
      <trkpt lat="44.20023" lon="0.58449">
        <ele>42</ele>
        <time>2026-02-22T13:38:38.188Z</time>
      </trkpt>
      <trkpt lat="44.20022" lon="0.58448">
        <ele>42</ele>
        <time>2026-02-22T13:38:39.188Z</time>
      </trkpt>
      <trkpt lat="44.2002" lon="0.58447">
        <ele>43</ele>
        <time>2026-02-22T13:38:40.188Z</time>
      </trkpt>
      <trkpt lat="44.20019" lon="0.58447">
        <ele>43</ele>
        <time>2026-02-22T13:38:41.188Z</time>
      </trkpt>
      <trkpt lat="44.20018" lon="0.58446">
        <ele>43</ele>
        <time>2026-02-22T13:38:42.188Z</time>
      </trkpt>
      <trkpt lat="44.20017" lon="0.58445">
        <ele>43</ele>
        <time>2026-02-22T13:38:43.188Z</time>
      </trkpt>
      <trkpt lat="44.20016" lon="0.58444">
        <ele>43</ele>
        <time>2026-02-22T13:38:44.188Z</time>
      </trkpt>
      <trkpt lat="44.20015" lon="0.58443">
        <ele>43</ele>
        <time>2026-02-22T13:38:45.188Z</time>
      </trkpt>
      <trkpt lat="44.20014" lon="0.58442">
        <ele>43</ele>
        <time>2026-02-22T13:38:46.188Z</time>
      </trkpt>
      <trkpt lat="44.20012" lon="0.58441">
        <ele>43</ele>
        <time>2026-02-22T13:38:47.188Z</time>
      </trkpt>
      <trkpt lat="44.20012" lon="0.5844">
        <ele>43</ele>
        <time>2026-02-22T13:38:48.188Z</time>
      </trkpt>
      <trkpt lat="44.20011" lon="0.58439">
        <ele>43</ele>
        <time>2026-02-22T13:38:49.188Z</time>
      </trkpt>
      <trkpt lat="44.2001" lon="0.58438">
        <ele>44</ele>
        <time>2026-02-22T13:38:50.189Z</time>
      </trkpt>
      <trkpt lat="44.2001" lon="0.58438">
        <ele>44</ele>
        <time>2026-02-22T13:38:51.188Z</time>
      </trkpt>
      <trkpt lat="44.20009" lon="0.58437">
        <ele>44</ele>
        <time>2026-02-22T13:38:52.188Z</time>
      </trkpt>
      <trkpt lat="44.20007" lon="0.58437">
        <ele>44</ele>
        <time>2026-02-22T13:38:53.188Z</time>
      </trkpt>
      <trkpt lat="44.20007" lon="0.58436">
        <ele>45</ele>
        <time>2026-02-22T13:38:54.188Z</time>
      </trkpt>
      <trkpt lat="44.20006" lon="0.58436">
        <ele>45</ele>
        <time>2026-02-22T13:38:55.188Z</time>
      </trkpt>
      <trkpt lat="44.20005" lon="0.58436">
        <ele>45</ele>
        <time>2026-02-22T13:38:56.188Z</time>
      </trkpt>
      <trkpt lat="44.20004" lon="0.58436">
        <ele>45</ele>
        <time>2026-02-22T13:38:57.188Z</time>
      </trkpt>
      <trkpt lat="44.20003" lon="0.58436">
        <ele>46</ele>
        <time>2026-02-22T13:38:58.188Z</time>
      </trkpt>
      <trkpt lat="44.20003" lon="0.58436">
        <ele>46</ele>
        <time>2026-02-22T13:38:59.188Z</time>
      </trkpt>
      <trkpt lat="44.20002" lon="0.58437">
        <ele>46</ele>
        <time>2026-02-22T13:39:00.188Z</time>
      </trkpt>
      <trkpt lat="44.20002" lon="0.58438">
        <ele>46</ele>
        <time>2026-02-22T13:39:01.188Z</time>
      </trkpt>
      <trkpt lat="44.20001" lon="0.58439">
        <ele>46</ele>
        <time>2026-02-22T13:39:02.189Z</time>
      </trkpt>
      <trkpt lat="44.20001" lon="0.58439">
        <ele>46</ele>
        <time>2026-02-22T13:39:03.189Z</time>
      </trkpt>
      <trkpt lat="44.20001" lon="0.58439">
        <ele>46</ele>
        <time>2026-02-22T13:39:04.188Z</time>
      </trkpt>
      <trkpt lat="44.20001" lon="0.5844">
        <ele>47</ele>
        <time>2026-02-22T13:39:05.189Z</time>
      </trkpt>
      <trkpt lat="44.20001" lon="0.58441">
        <ele>47</ele>
        <time>2026-02-22T13:39:06.188Z</time>
      </trkpt>
      <trkpt lat="44.20001" lon="0.58442">
        <ele>47</ele>
        <time>2026-02-22T13:39:07.188Z</time>
      </trkpt>
      <trkpt lat="44.2" lon="0.58443">
        <ele>46</ele>
        <time>2026-02-22T13:39:08.188Z</time>
      </trkpt>
      <trkpt lat="44.2" lon="0.58444">
        <ele>46</ele>
        <time>2026-02-22T13:39:09.188Z</time>
      </trkpt>
      <trkpt lat="44.2" lon="0.58445">
        <ele>46</ele>
        <time>2026-02-22T13:39:10.188Z</time>
      </trkpt>
      <trkpt lat="44.19999" lon="0.58446">
        <ele>46</ele>
        <time>2026-02-22T13:39:11.188Z</time>
      </trkpt>
      <trkpt lat="44.19999" lon="0.58447">
        <ele>46</ele>
        <time>2026-02-22T13:39:12.188Z</time>
      </trkpt>
      <trkpt lat="44.19998" lon="0.58449">
        <ele>46</ele>
        <time>2026-02-22T13:39:13.188Z</time>
      </trkpt>
      <trkpt lat="44.19998" lon="0.5845">
        <ele>46</ele>
        <time>2026-02-22T13:39:14.188Z</time>
      </trkpt>
      <trkpt lat="44.19997" lon="0.58451">
        <ele>46</ele>
        <time>2026-02-22T13:39:15.188Z</time>
      </trkpt>
      <trkpt lat="44.19997" lon="0.58453">
        <ele>46</ele>
        <time>2026-02-22T13:39:16.188Z</time>
      </trkpt>
      <trkpt lat="44.19996" lon="0.58454">
        <ele>47</ele>
        <time>2026-02-22T13:39:17.188Z</time>
      </trkpt>
      <trkpt lat="44.19995" lon="0.58455">
        <ele>47</ele>
        <time>2026-02-22T13:39:18.189Z</time>
      </trkpt>
      <trkpt lat="44.19995" lon="0.58456">
        <ele>47</ele>
        <time>2026-02-22T13:39:19.188Z</time>
      </trkpt>
      <trkpt lat="44.19994" lon="0.58456">
        <ele>47</ele>
        <time>2026-02-22T13:39:20.188Z</time>
      </trkpt>
      <trkpt lat="44.19994" lon="0.58457">
        <ele>47</ele>
        <time>2026-02-22T13:39:21.188Z</time>
      </trkpt>
      <trkpt lat="44.19994" lon="0.58457">
        <ele>47</ele>
        <time>2026-02-22T13:39:22.188Z</time>
      </trkpt>
      <trkpt lat="44.19994" lon="0.58458">
        <ele>46</ele>
        <time>2026-02-22T13:39:23.188Z</time>
      </trkpt>
      <trkpt lat="44.19994" lon="0.58459">
        <ele>45</ele>
        <time>2026-02-22T13:39:24.188Z</time>
      </trkpt>
      <trkpt lat="44.19993" lon="0.58459">
        <ele>45</ele>
        <time>2026-02-22T13:39:25.188Z</time>
      </trkpt>
      <trkpt lat="44.19993" lon="0.58459">
        <ele>44</ele>
        <time>2026-02-22T13:39:26.188Z</time>
      </trkpt>
      <trkpt lat="44.19993" lon="0.58459">
        <ele>44</ele>
        <time>2026-02-22T13:39:27.188Z</time>
      </trkpt>
      <trkpt lat="44.19993" lon="0.58459">
        <ele>43</ele>
        <time>2026-02-22T13:39:28.188Z</time>
      </trkpt>
      <trkpt lat="44.19994" lon="0.58459">
        <ele>43</ele>
        <time>2026-02-22T13:39:29.188Z</time>
      </trkpt>
      <trkpt lat="44.19994" lon="0.58459">
        <ele>43</ele>
        <time>2026-02-22T13:39:30.189Z</time>
      </trkpt>
      <trkpt lat="44.19994" lon="0.58459">
        <ele>44</ele>
        <time>2026-02-22T13:39:31.189Z</time>
      </trkpt>
      <trkpt lat="44.19994" lon="0.58459">
        <ele>44</ele>
        <time>2026-02-22T13:39:32.188Z</time>
      </trkpt>
      <trkpt lat="44.19994" lon="0.58459">
        <ele>44</ele>
        <time>2026-02-22T13:39:33.188Z</time>
      </trkpt>
      <trkpt lat="44.19994" lon="0.58459">
        <ele>44</ele>
        <time>2026-02-22T13:39:34.188Z</time>
      </trkpt>
      <trkpt lat="44.19994" lon="0.58459">
        <ele>44</ele>
        <time>2026-02-22T13:39:35.188Z</time>
      </trkpt>
      <trkpt lat="44.19994" lon="0.58459">
        <ele>44</ele>
        <time>2026-02-22T13:39:36.188Z</time>
      </trkpt>
      <trkpt lat="44.19994" lon="0.58459">
        <ele>45</ele>
        <time>2026-02-22T13:39:37.188Z</time>
      </trkpt>
      <trkpt lat="44.19994" lon="0.58459">
        <ele>45</ele>
        <time>2026-02-22T13:39:38.189Z</time>
      </trkpt>
      <trkpt lat="44.19994" lon="0.58459">
        <ele>46</ele>
        <time>2026-02-22T13:39:39.188Z</time>
      </trkpt>
      <trkpt lat="44.19994" lon="0.58459">
        <ele>46</ele>
        <time>2026-02-22T13:39:40.188Z</time>
      </trkpt>
      <trkpt lat="44.19994" lon="0.58459">
        <ele>47</ele>
        <time>2026-02-22T13:39:41.188Z</time>
      </trkpt>
      <trkpt lat="44.19994" lon="0.58459">
        <ele>47</ele>
        <time>2026-02-22T13:39:42.188Z</time>
      </trkpt>
      <trkpt lat="44.19994" lon="0.58459">
        <ele>47</ele>
        <time>2026-02-22T13:39:43.188Z</time>
      </trkpt>
      <trkpt lat="44.19994" lon="0.58459">
        <ele>48</ele>
        <time>2026-02-22T13:39:44.189Z</time>
      </trkpt>
      <trkpt lat="44.19994" lon="0.58459">
        <ele>48</ele>
        <time>2026-02-22T13:39:45.188Z</time>
      </trkpt>
      <trkpt lat="44.19994" lon="0.58459">
        <ele>48</ele>
        <time>2026-02-22T13:39:46.188Z</time>
      </trkpt>
      <trkpt lat="44.19994" lon="0.58459">
        <ele>48</ele>
        <time>2026-02-22T13:39:47.188Z</time>
      </trkpt>
      <trkpt lat="44.19994" lon="0.58458">
        <ele>48</ele>
        <time>2026-02-22T13:39:48.188Z</time>
      </trkpt>
      <trkpt lat="44.19994" lon="0.58458">
        <ele>48</ele>
        <time>2026-02-22T13:39:49.188Z</time>
      </trkpt>
      <trkpt lat="44.19994" lon="0.58458">
        <ele>47</ele>
        <time>2026-02-22T13:39:50.188Z</time>
      </trkpt>
      <trkpt lat="44.19994" lon="0.58458">
        <ele>47</ele>
        <time>2026-02-22T13:39:51.188Z</time>
      </trkpt>
      <trkpt lat="44.19994" lon="0.58458">
        <ele>47</ele>
        <time>2026-02-22T13:39:52.188Z</time>
      </trkpt>
      <trkpt lat="44.19994" lon="0.58458">
        <ele>47</ele>
        <time>2026-02-22T13:39:53.188Z</time>
      </trkpt>
      <trkpt lat="44.19994" lon="0.58458">
        <ele>47</ele>
        <time>2026-02-22T13:39:54.188Z</time>
      </trkpt>
      <trkpt lat="44.19994" lon="0.58458">
        <ele>46</ele>
        <time>2026-02-22T13:39:55.188Z</time>
      </trkpt>
      <trkpt lat="44.19994" lon="0.58458">
        <ele>46</ele>
        <time>2026-02-22T13:39:56.188Z</time>
      </trkpt>
      <trkpt lat="44.19994" lon="0.58458">
        <ele>46</ele>
        <time>2026-02-22T13:39:57.188Z</time>
      </trkpt>
      <trkpt lat="44.19994" lon="0.58458">
        <ele>46</ele>
        <time>2026-02-22T13:39:58.188Z</time>
      </trkpt>
      <trkpt lat="44.19994" lon="0.58458">
        <ele>46</ele>
        <time>2026-02-22T13:39:59.188Z</time>
      </trkpt>
      <trkpt lat="44.19994" lon="0.58458">
        <ele>45</ele>
        <time>2026-02-22T13:40:00.188Z</time>
      </trkpt>
      <trkpt lat="44.19994" lon="0.58458">
        <ele>45</ele>
        <time>2026-02-22T13:40:01.188Z</time>
      </trkpt>
      <trkpt lat="44.19994" lon="0.58459">
        <ele>45</ele>
        <time>2026-02-22T13:40:02.188Z</time>
      </trkpt>
      <trkpt lat="44.19993" lon="0.5846">
        <ele>44</ele>
        <time>2026-02-22T13:40:03.188Z</time>
      </trkpt>
      <trkpt lat="44.19993" lon="0.58461">
        <ele>44</ele>
        <time>2026-02-22T13:40:04.188Z</time>
      </trkpt>
      <trkpt lat="44.19992" lon="0.58463">
        <ele>44</ele>
        <time>2026-02-22T13:40:05.188Z</time>
      </trkpt>
      <trkpt lat="44.19991" lon="0.58465">
        <ele>44</ele>
        <time>2026-02-22T13:40:06.188Z</time>
      </trkpt>
      <trkpt lat="44.1999" lon="0.58466">
        <ele>44</ele>
        <time>2026-02-22T13:40:07.188Z</time>
      </trkpt>
      <trkpt lat="44.1999" lon="0.58468">
        <ele>44</ele>
        <time>2026-02-22T13:40:08.188Z</time>
      </trkpt>
      <trkpt lat="44.19989" lon="0.58469">
        <ele>44</ele>
        <time>2026-02-22T13:40:09.188Z</time>
      </trkpt>
      <trkpt lat="44.19988" lon="0.58471">
        <ele>44</ele>
        <time>2026-02-22T13:40:10.189Z</time>
      </trkpt>
      <trkpt lat="44.19987" lon="0.58472">
        <ele>45</ele>
        <time>2026-02-22T13:40:11.188Z</time>
      </trkpt>
      <trkpt lat="44.19986" lon="0.58474">
        <ele>45</ele>
        <time>2026-02-22T13:40:12.188Z</time>
      </trkpt>
      <trkpt lat="44.19986" lon="0.58475">
        <ele>45</ele>
        <time>2026-02-22T13:40:13.188Z</time>
      </trkpt>
      <trkpt lat="44.19985" lon="0.58477">
        <ele>45</ele>
        <time>2026-02-22T13:40:14.189Z</time>
      </trkpt>
      <trkpt lat="44.19984" lon="0.58478">
        <ele>45</ele>
        <time>2026-02-22T13:40:15.188Z</time>
      </trkpt>
      <trkpt lat="44.19983" lon="0.58479">
        <ele>45</ele>
        <time>2026-02-22T13:40:16.189Z</time>
      </trkpt>
      <trkpt lat="44.19982" lon="0.58481">
        <ele>45</ele>
        <time>2026-02-22T13:40:17.188Z</time>
      </trkpt>
      <trkpt lat="44.19982" lon="0.58482">
        <ele>45</ele>
        <time>2026-02-22T13:40:18.188Z</time>
      </trkpt>
      <trkpt lat="44.19981" lon="0.58484">
        <ele>45</ele>
        <time>2026-02-22T13:40:19.188Z</time>
      </trkpt>
      <trkpt lat="44.1998" lon="0.58485">
        <ele>45</ele>
        <time>2026-02-22T13:40:20.188Z</time>
      </trkpt>
      <trkpt lat="44.19979" lon="0.58487">
        <ele>45</ele>
        <time>2026-02-22T13:40:21.188Z</time>
      </trkpt>
      <trkpt lat="44.19978" lon="0.58488">
        <ele>45</ele>
        <time>2026-02-22T13:40:22.188Z</time>
      </trkpt>
      <trkpt lat="44.19977" lon="0.5849">
        <ele>45</ele>
        <time>2026-02-22T13:40:23.188Z</time>
      </trkpt>
      <trkpt lat="44.19976" lon="0.58491">
        <ele>45</ele>
        <time>2026-02-22T13:40:24.188Z</time>
      </trkpt>
      <trkpt lat="44.19975" lon="0.58492">
        <ele>44</ele>
        <time>2026-02-22T13:40:25.189Z</time>
      </trkpt>
      <trkpt lat="44.19974" lon="0.58494">
        <ele>44</ele>
        <time>2026-02-22T13:40:26.188Z</time>
      </trkpt>
      <trkpt lat="44.19973" lon="0.58495">
        <ele>44</ele>
        <time>2026-02-22T13:40:27.188Z</time>
      </trkpt>
      <trkpt lat="44.19972" lon="0.58496">
        <ele>44</ele>
        <time>2026-02-22T13:40:28.188Z</time>
      </trkpt>
      <trkpt lat="44.19972" lon="0.58497">
        <ele>44</ele>
        <time>2026-02-22T13:40:29.188Z</time>
      </trkpt>
      <trkpt lat="44.19971" lon="0.58499">
        <ele>44</ele>
        <time>2026-02-22T13:40:30.188Z</time>
      </trkpt>
      <trkpt lat="44.1997" lon="0.585">
        <ele>44</ele>
        <time>2026-02-22T13:40:31.188Z</time>
      </trkpt>
      <trkpt lat="44.19969" lon="0.58502">
        <ele>44</ele>
        <time>2026-02-22T13:40:32.188Z</time>
      </trkpt>
      <trkpt lat="44.19968" lon="0.58504">
        <ele>44</ele>
        <time>2026-02-22T13:40:33.188Z</time>
      </trkpt>
      <trkpt lat="44.19967" lon="0.58506">
        <ele>44</ele>
        <time>2026-02-22T13:40:34.188Z</time>
      </trkpt>
      <trkpt lat="44.19966" lon="0.58507">
        <ele>44</ele>
        <time>2026-02-22T13:40:35.188Z</time>
      </trkpt>
      <trkpt lat="44.19966" lon="0.58508">
        <ele>44</ele>
        <time>2026-02-22T13:40:36.188Z</time>
      </trkpt>
      <trkpt lat="44.19965" lon="0.5851">
        <ele>44</ele>
        <time>2026-02-22T13:40:37.188Z</time>
      </trkpt>
      <trkpt lat="44.19965" lon="0.58511">
        <ele>44</ele>
        <time>2026-02-22T13:40:38.189Z</time>
      </trkpt>
      <trkpt lat="44.19964" lon="0.58512">
        <ele>44</ele>
        <time>2026-02-22T13:40:39.188Z</time>
      </trkpt>
      <trkpt lat="44.19963" lon="0.58514">
        <ele>44</ele>
        <time>2026-02-22T13:40:40.188Z</time>
      </trkpt>
      <trkpt lat="44.19962" lon="0.58515">
        <ele>44</ele>
        <time>2026-02-22T13:40:41.188Z</time>
      </trkpt>
      <trkpt lat="44.19962" lon="0.58517">
        <ele>45</ele>
        <time>2026-02-22T13:40:42.188Z</time>
      </trkpt>
      <trkpt lat="44.19961" lon="0.58518">
        <ele>45</ele>
        <time>2026-02-22T13:40:43.188Z</time>
      </trkpt>
      <trkpt lat="44.1996" lon="0.5852">
        <ele>45</ele>
        <time>2026-02-22T13:40:44.188Z</time>
      </trkpt>
      <trkpt lat="44.19959" lon="0.58522">
        <ele>45</ele>
        <time>2026-02-22T13:40:45.188Z</time>
      </trkpt>
      <trkpt lat="44.19958" lon="0.58523">
        <ele>45</ele>
        <time>2026-02-22T13:40:46.188Z</time>
      </trkpt>
      <trkpt lat="44.19958" lon="0.58524">
        <ele>45</ele>
        <time>2026-02-22T13:40:47.188Z</time>
      </trkpt>
      <trkpt lat="44.19957" lon="0.58526">
        <ele>45</ele>
        <time>2026-02-22T13:40:48.188Z</time>
      </trkpt>
      <trkpt lat="44.19957" lon="0.58527">
        <ele>44</ele>
        <time>2026-02-22T13:40:49.188Z</time>
      </trkpt>
      <trkpt lat="44.19956" lon="0.58529">
        <ele>45</ele>
        <time>2026-02-22T13:40:50.189Z</time>
      </trkpt>
      <trkpt lat="44.19955" lon="0.58531">
        <ele>45</ele>
        <time>2026-02-22T13:40:51.189Z</time>
      </trkpt>
      <trkpt lat="44.19955" lon="0.58533">
        <ele>45</ele>
        <time>2026-02-22T13:40:52.189Z</time>
      </trkpt>
      <trkpt lat="44.19954" lon="0.58534">
        <ele>45</ele>
        <time>2026-02-22T13:40:53.188Z</time>
      </trkpt>
      <trkpt lat="44.19953" lon="0.58535">
        <ele>45</ele>
        <time>2026-02-22T13:40:54.188Z</time>
      </trkpt>
      <trkpt lat="44.19952" lon="0.58537">
        <ele>46</ele>
        <time>2026-02-22T13:40:55.188Z</time>
      </trkpt>
      <trkpt lat="44.19952" lon="0.58538">
        <ele>46</ele>
        <time>2026-02-22T13:40:56.188Z</time>
      </trkpt>
      <trkpt lat="44.19951" lon="0.58539">
        <ele>45</ele>
        <time>2026-02-22T13:40:57.188Z</time>
      </trkpt>
      <trkpt lat="44.19951" lon="0.58541">
        <ele>45</ele>
        <time>2026-02-22T13:40:58.188Z</time>
      </trkpt>
      <trkpt lat="44.1995" lon="0.58542">
        <ele>46</ele>
        <time>2026-02-22T13:40:59.188Z</time>
      </trkpt>
      <trkpt lat="44.19949" lon="0.58544">
        <ele>45</ele>
        <time>2026-02-22T13:41:00.188Z</time>
      </trkpt>
      <trkpt lat="44.19948" lon="0.58546">
        <ele>46</ele>
        <time>2026-02-22T13:41:01.188Z</time>
      </trkpt>
      <trkpt lat="44.19948" lon="0.58548">
        <ele>46</ele>
        <time>2026-02-22T13:41:02.188Z</time>
      </trkpt>
      <trkpt lat="44.19947" lon="0.58549">
        <ele>45</ele>
        <time>2026-02-22T13:41:03.188Z</time>
      </trkpt>
      <trkpt lat="44.19946" lon="0.5855">
        <ele>45</ele>
        <time>2026-02-22T13:41:04.189Z</time>
      </trkpt>
      <trkpt lat="44.19946" lon="0.58551">
        <ele>45</ele>
        <time>2026-02-22T13:41:05.188Z</time>
      </trkpt>
      <trkpt lat="44.19945" lon="0.58552">
        <ele>45</ele>
        <time>2026-02-22T13:41:06.188Z</time>
      </trkpt>
      <trkpt lat="44.19945" lon="0.58553">
        <ele>45</ele>
        <time>2026-02-22T13:41:07.188Z</time>
      </trkpt>
      <trkpt lat="44.19944" lon="0.58554">
        <ele>45</ele>
        <time>2026-02-22T13:41:08.188Z</time>
      </trkpt>
      <trkpt lat="44.19943" lon="0.58556">
        <ele>45</ele>
        <time>2026-02-22T13:41:09.188Z</time>
      </trkpt>
      <trkpt lat="44.19943" lon="0.58557">
        <ele>45</ele>
        <time>2026-02-22T13:41:10.188Z</time>
      </trkpt>
      <trkpt lat="44.19942" lon="0.58558">
        <ele>45</ele>
        <time>2026-02-22T13:41:11.188Z</time>
      </trkpt>
      <trkpt lat="44.19941" lon="0.58559">
        <ele>45</ele>
        <time>2026-02-22T13:41:12.188Z</time>
      </trkpt>
      <trkpt lat="44.19941" lon="0.5856">
        <ele>45</ele>
        <time>2026-02-22T13:41:13.188Z</time>
      </trkpt>
      <trkpt lat="44.1994" lon="0.58561">
        <ele>44</ele>
        <time>2026-02-22T13:41:14.188Z</time>
      </trkpt>
      <trkpt lat="44.1994" lon="0.58562">
        <ele>44</ele>
        <time>2026-02-22T13:41:15.188Z</time>
      </trkpt>
      <trkpt lat="44.19939" lon="0.58564">
        <ele>44</ele>
        <time>2026-02-22T13:41:16.188Z</time>
      </trkpt>
      <trkpt lat="44.19938" lon="0.58565">
        <ele>44</ele>
        <time>2026-02-22T13:41:17.188Z</time>
      </trkpt>
      <trkpt lat="44.19937" lon="0.58567">
        <ele>44</ele>
        <time>2026-02-22T13:41:18.188Z</time>
      </trkpt>
      <trkpt lat="44.19937" lon="0.58568">
        <ele>44</ele>
        <time>2026-02-22T13:41:19.188Z</time>
      </trkpt>
      <trkpt lat="44.19936" lon="0.58569">
        <ele>44</ele>
        <time>2026-02-22T13:41:20.188Z</time>
      </trkpt>
      <trkpt lat="44.19936" lon="0.58571">
        <ele>44</ele>
        <time>2026-02-22T13:41:21.188Z</time>
      </trkpt>
      <trkpt lat="44.19935" lon="0.58572">
        <ele>44</ele>
        <time>2026-02-22T13:41:22.188Z</time>
      </trkpt>
      <trkpt lat="44.19934" lon="0.58573">
        <ele>44</ele>
        <time>2026-02-22T13:41:23.188Z</time>
      </trkpt>
      <trkpt lat="44.19934" lon="0.58574">
        <ele>44</ele>
        <time>2026-02-22T13:41:24.188Z</time>
      </trkpt>
      <trkpt lat="44.19933" lon="0.58575">
        <ele>44</ele>
        <time>2026-02-22T13:41:25.188Z</time>
      </trkpt>
      <trkpt lat="44.19933" lon="0.58576">
        <ele>44</ele>
        <time>2026-02-22T13:41:26.189Z</time>
      </trkpt>
      <trkpt lat="44.19933" lon="0.58577">
        <ele>44</ele>
        <time>2026-02-22T13:41:27.189Z</time>
      </trkpt>
      <trkpt lat="44.19932" lon="0.58578">
        <ele>44</ele>
        <time>2026-02-22T13:41:28.188Z</time>
      </trkpt>
      <trkpt lat="44.19932" lon="0.58579">
        <ele>44</ele>
        <time>2026-02-22T13:41:29.188Z</time>
      </trkpt>
      <trkpt lat="44.19931" lon="0.5858">
        <ele>44</ele>
        <time>2026-02-22T13:41:30.189Z</time>
      </trkpt>
      <trkpt lat="44.19931" lon="0.58581">
        <ele>44</ele>
        <time>2026-02-22T13:41:31.188Z</time>
      </trkpt>
      <trkpt lat="44.1993" lon="0.58582">
        <ele>45</ele>
        <time>2026-02-22T13:41:32.188Z</time>
      </trkpt>
      <trkpt lat="44.1993" lon="0.58583">
        <ele>45</ele>
        <time>2026-02-22T13:41:33.188Z</time>
      </trkpt>
      <trkpt lat="44.19929" lon="0.58585">
        <ele>45</ele>
        <time>2026-02-22T13:41:34.188Z</time>
      </trkpt>
      <trkpt lat="44.19929" lon="0.58586">
        <ele>45</ele>
        <time>2026-02-22T13:41:35.188Z</time>
      </trkpt>
      <trkpt lat="44.19928" lon="0.58588">
        <ele>45</ele>
        <time>2026-02-22T13:41:36.188Z</time>
      </trkpt>
      <trkpt lat="44.19927" lon="0.58589">
        <ele>45</ele>
        <time>2026-02-22T13:41:37.188Z</time>
      </trkpt>
      <trkpt lat="44.19927" lon="0.58591">
        <ele>45</ele>
        <time>2026-02-22T13:41:38.188Z</time>
      </trkpt>
      <trkpt lat="44.19926" lon="0.58592">
        <ele>45</ele>
        <time>2026-02-22T13:41:39.188Z</time>
      </trkpt>
      <trkpt lat="44.19926" lon="0.58593">
        <ele>45</ele>
        <time>2026-02-22T13:41:40.188Z</time>
      </trkpt>
      <trkpt lat="44.19925" lon="0.58594">
        <ele>45</ele>
        <time>2026-02-22T13:41:41.188Z</time>
      </trkpt>
      <trkpt lat="44.19924" lon="0.58596">
        <ele>45</ele>
        <time>2026-02-22T13:41:42.188Z</time>
      </trkpt>
      <trkpt lat="44.19924" lon="0.58597">
        <ele>45</ele>
        <time>2026-02-22T13:41:43.188Z</time>
      </trkpt>
      <trkpt lat="44.19923" lon="0.58599">
        <ele>45</ele>
        <time>2026-02-22T13:41:44.188Z</time>
      </trkpt>
      <trkpt lat="44.19922" lon="0.586">
        <ele>45</ele>
        <time>2026-02-22T13:41:45.188Z</time>
      </trkpt>
      <trkpt lat="44.19922" lon="0.58601">
        <ele>44</ele>
        <time>2026-02-22T13:41:46.188Z</time>
      </trkpt>
      <trkpt lat="44.19921" lon="0.58602">
        <ele>44</ele>
        <time>2026-02-22T13:41:47.188Z</time>
      </trkpt>
      <trkpt lat="44.19921" lon="0.58604">
        <ele>44</ele>
        <time>2026-02-22T13:41:48.188Z</time>
      </trkpt>
      <trkpt lat="44.1992" lon="0.58605">
        <ele>44</ele>
        <time>2026-02-22T13:41:49.188Z</time>
      </trkpt>
      <trkpt lat="44.19919" lon="0.58606">
        <ele>44</ele>
        <time>2026-02-22T13:41:50.188Z</time>
      </trkpt>
      <trkpt lat="44.19919" lon="0.58608">
        <ele>44</ele>
        <time>2026-02-22T13:41:51.188Z</time>
      </trkpt>
      <trkpt lat="44.19918" lon="0.5861">
        <ele>45</ele>
        <time>2026-02-22T13:41:52.188Z</time>
      </trkpt>
      <trkpt lat="44.19917" lon="0.58611">
        <ele>45</ele>
        <time>2026-02-22T13:41:53.188Z</time>
      </trkpt>
      <trkpt lat="44.19916" lon="0.58613">
        <ele>45</ele>
        <time>2026-02-22T13:41:54.188Z</time>
      </trkpt>
      <trkpt lat="44.19915" lon="0.58614">
        <ele>45</ele>
        <time>2026-02-22T13:41:55.188Z</time>
      </trkpt>
      <trkpt lat="44.19915" lon="0.58615">
        <ele>45</ele>
        <time>2026-02-22T13:41:56.189Z</time>
      </trkpt>
      <trkpt lat="44.19914" lon="0.58617">
        <ele>45</ele>
        <time>2026-02-22T13:41:57.188Z</time>
      </trkpt>
      <trkpt lat="44.19914" lon="0.58618">
        <ele>45</ele>
        <time>2026-02-22T13:41:58.188Z</time>
      </trkpt>
      <trkpt lat="44.19913" lon="0.5862">
        <ele>45</ele>
        <time>2026-02-22T13:41:59.188Z</time>
      </trkpt>
      <trkpt lat="44.19912" lon="0.58621">
        <ele>45</ele>
        <time>2026-02-22T13:42:00.188Z</time>
      </trkpt>
      <trkpt lat="44.19911" lon="0.58623">
        <ele>45</ele>
        <time>2026-02-22T13:42:01.188Z</time>
      </trkpt>
      <trkpt lat="44.1991" lon="0.58625">
        <ele>45</ele>
        <time>2026-02-22T13:42:02.189Z</time>
      </trkpt>
      <trkpt lat="44.1991" lon="0.58626">
        <ele>44</ele>
        <time>2026-02-22T13:42:03.189Z</time>
      </trkpt>
      <trkpt lat="44.19909" lon="0.58627">
        <ele>44</ele>
        <time>2026-02-22T13:42:04.188Z</time>
      </trkpt>
      <trkpt lat="44.19908" lon="0.58629">
        <ele>44</ele>
        <time>2026-02-22T13:42:05.188Z</time>
      </trkpt>
      <trkpt lat="44.19908" lon="0.5863">
        <ele>44</ele>
        <time>2026-02-22T13:42:06.188Z</time>
      </trkpt>
      <trkpt lat="44.19907" lon="0.58631">
        <ele>44</ele>
        <time>2026-02-22T13:42:07.188Z</time>
      </trkpt>
      <trkpt lat="44.19906" lon="0.58633">
        <ele>44</ele>
        <time>2026-02-22T13:42:08.188Z</time>
      </trkpt>
      <trkpt lat="44.19906" lon="0.58634">
        <ele>44</ele>
        <time>2026-02-22T13:42:09.188Z</time>
      </trkpt>
      <trkpt lat="44.19905" lon="0.58635">
        <ele>44</ele>
        <time>2026-02-22T13:42:10.188Z</time>
      </trkpt>
      <trkpt lat="44.19904" lon="0.58637">
        <ele>44</ele>
        <time>2026-02-22T13:42:11.188Z</time>
      </trkpt>
      <trkpt lat="44.19903" lon="0.58638">
        <ele>44</ele>
        <time>2026-02-22T13:42:12.188Z</time>
      </trkpt>
      <trkpt lat="44.19902" lon="0.58639">
        <ele>44</ele>
        <time>2026-02-22T13:42:13.188Z</time>
      </trkpt>
      <trkpt lat="44.19902" lon="0.58641">
        <ele>44</ele>
        <time>2026-02-22T13:42:14.188Z</time>
      </trkpt>
      <trkpt lat="44.19901" lon="0.58642">
        <ele>44</ele>
        <time>2026-02-22T13:42:15.188Z</time>
      </trkpt>
      <trkpt lat="44.199" lon="0.58644">
        <ele>44</ele>
        <time>2026-02-22T13:42:16.188Z</time>
      </trkpt>
      <trkpt lat="44.19899" lon="0.58645">
        <ele>44</ele>
        <time>2026-02-22T13:42:17.188Z</time>
      </trkpt>
      <trkpt lat="44.19898" lon="0.58646">
        <ele>44</ele>
        <time>2026-02-22T13:42:18.189Z</time>
      </trkpt>
      <trkpt lat="44.19897" lon="0.58648">
        <ele>44</ele>
        <time>2026-02-22T13:42:19.188Z</time>
      </trkpt>
      <trkpt lat="44.19896" lon="0.58649">
        <ele>44</ele>
        <time>2026-02-22T13:42:20.188Z</time>
      </trkpt>
      <trkpt lat="44.19895" lon="0.58651">
        <ele>44</ele>
        <time>2026-02-22T13:42:21.188Z</time>
      </trkpt>
      <trkpt lat="44.19894" lon="0.58652">
        <ele>44</ele>
        <time>2026-02-22T13:42:22.188Z</time>
      </trkpt>
      <trkpt lat="44.19893" lon="0.58653">
        <ele>45</ele>
        <time>2026-02-22T13:42:23.188Z</time>
      </trkpt>
      <trkpt lat="44.19893" lon="0.58654">
        <ele>45</ele>
        <time>2026-02-22T13:42:24.188Z</time>
      </trkpt>
      <trkpt lat="44.19892" lon="0.58656">
        <ele>45</ele>
        <time>2026-02-22T13:42:25.188Z</time>
      </trkpt>
      <trkpt lat="44.19891" lon="0.58657">
        <ele>45</ele>
        <time>2026-02-22T13:42:26.188Z</time>
      </trkpt>
      <trkpt lat="44.1989" lon="0.58658">
        <ele>45</ele>
        <time>2026-02-22T13:42:27.188Z</time>
      </trkpt>
      <trkpt lat="44.19889" lon="0.58659">
        <ele>45</ele>
        <time>2026-02-22T13:42:28.188Z</time>
      </trkpt>
      <trkpt lat="44.19888" lon="0.58661">
        <ele>45</ele>
        <time>2026-02-22T13:42:29.188Z</time>
      </trkpt>
      <trkpt lat="44.19887" lon="0.58662">
        <ele>45</ele>
        <time>2026-02-22T13:42:30.188Z</time>
      </trkpt>
      <trkpt lat="44.19887" lon="0.58664">
        <ele>45</ele>
        <time>2026-02-22T13:42:31.188Z</time>
      </trkpt>
      <trkpt lat="44.19886" lon="0.58664">
        <ele>45</ele>
        <time>2026-02-22T13:42:32.188Z</time>
      </trkpt>
      <trkpt lat="44.19885" lon="0.58665">
        <ele>44</ele>
        <time>2026-02-22T13:42:33.189Z</time>
      </trkpt>
      <trkpt lat="44.19884" lon="0.58666">
        <ele>44</ele>
        <time>2026-02-22T13:42:34.188Z</time>
      </trkpt>
      <trkpt lat="44.19883" lon="0.58667">
        <ele>44</ele>
        <time>2026-02-22T13:42:35.188Z</time>
      </trkpt>
      <trkpt lat="44.19882" lon="0.58668">
        <ele>44</ele>
        <time>2026-02-22T13:42:36.188Z</time>
      </trkpt>
      <trkpt lat="44.19881" lon="0.5867">
        <ele>44</ele>
        <time>2026-02-22T13:42:37.188Z</time>
      </trkpt>
      <trkpt lat="44.1988" lon="0.58671">
        <ele>44</ele>
        <time>2026-02-22T13:42:38.189Z</time>
      </trkpt>
      <trkpt lat="44.19879" lon="0.58672">
        <ele>44</ele>
        <time>2026-02-22T13:42:39.189Z</time>
      </trkpt>
      <trkpt lat="44.19878" lon="0.58673">
        <ele>44</ele>
        <time>2026-02-22T13:42:40.188Z</time>
      </trkpt>
      <trkpt lat="44.19877" lon="0.58674">
        <ele>44</ele>
        <time>2026-02-22T13:42:41.188Z</time>
      </trkpt>
      <trkpt lat="44.19876" lon="0.58675">
        <ele>44</ele>
        <time>2026-02-22T13:42:42.188Z</time>
      </trkpt>
      <trkpt lat="44.19875" lon="0.58675">
        <ele>44</ele>
        <time>2026-02-22T13:42:43.188Z</time>
      </trkpt>
      <trkpt lat="44.19874" lon="0.58677">
        <ele>44</ele>
        <time>2026-02-22T13:42:44.189Z</time>
      </trkpt>
      <trkpt lat="44.19873" lon="0.58678">
        <ele>44</ele>
        <time>2026-02-22T13:42:45.188Z</time>
      </trkpt>
      <trkpt lat="44.19872" lon="0.58679">
        <ele>43</ele>
        <time>2026-02-22T13:42:46.189Z</time>
      </trkpt>
      <trkpt lat="44.19871" lon="0.5868">
        <ele>43</ele>
        <time>2026-02-22T13:42:47.188Z</time>
      </trkpt>
      <trkpt lat="44.1987" lon="0.58681">
        <ele>44</ele>
        <time>2026-02-22T13:42:48.188Z</time>
      </trkpt>
      <trkpt lat="44.19869" lon="0.58682">
        <ele>44</ele>
        <time>2026-02-22T13:42:49.188Z</time>
      </trkpt>
      <trkpt lat="44.19868" lon="0.58683">
        <ele>44</ele>
        <time>2026-02-22T13:42:50.188Z</time>
      </trkpt>
      <trkpt lat="44.19867" lon="0.58684">
        <ele>44</ele>
        <time>2026-02-22T13:42:51.188Z</time>
      </trkpt>
      <trkpt lat="44.19866" lon="0.58685">
        <ele>43</ele>
        <time>2026-02-22T13:42:52.188Z</time>
      </trkpt>
      <trkpt lat="44.19865" lon="0.58686">
        <ele>43</ele>
        <time>2026-02-22T13:42:53.188Z</time>
      </trkpt>
      <trkpt lat="44.19864" lon="0.58687">
        <ele>43</ele>
        <time>2026-02-22T13:42:54.188Z</time>
      </trkpt>
      <trkpt lat="44.19863" lon="0.58688">
        <ele>43</ele>
        <time>2026-02-22T13:42:55.188Z</time>
      </trkpt>
      <trkpt lat="44.19862" lon="0.58689">
        <ele>43</ele>
        <time>2026-02-22T13:42:56.188Z</time>
      </trkpt>
      <trkpt lat="44.19861" lon="0.5869">
        <ele>44</ele>
        <time>2026-02-22T13:42:57.188Z</time>
      </trkpt>
      <trkpt lat="44.1986" lon="0.58691">
        <ele>44</ele>
        <time>2026-02-22T13:42:58.188Z</time>
      </trkpt>
      <trkpt lat="44.19859" lon="0.58692">
        <ele>44</ele>
        <time>2026-02-22T13:42:59.188Z</time>
      </trkpt>
      <trkpt lat="44.19859" lon="0.58694">
        <ele>44</ele>
        <time>2026-02-22T13:43:00.188Z</time>
      </trkpt>
      <trkpt lat="44.19858" lon="0.58695">
        <ele>45</ele>
        <time>2026-02-22T13:43:01.188Z</time>
      </trkpt>
      <trkpt lat="44.19857" lon="0.58696">
        <ele>45</ele>
        <time>2026-02-22T13:43:02.188Z</time>
      </trkpt>
      <trkpt lat="44.19856" lon="0.58697">
        <ele>45</ele>
        <time>2026-02-22T13:43:03.188Z</time>
      </trkpt>
      <trkpt lat="44.19855" lon="0.58699">
        <ele>45</ele>
        <time>2026-02-22T13:43:04.188Z</time>
      </trkpt>
      <trkpt lat="44.19854" lon="0.587">
        <ele>45</ele>
        <time>2026-02-22T13:43:05.188Z</time>
      </trkpt>
      <trkpt lat="44.19853" lon="0.58701">
        <ele>46</ele>
        <time>2026-02-22T13:43:06.188Z</time>
      </trkpt>
      <trkpt lat="44.19852" lon="0.58702">
        <ele>46</ele>
        <time>2026-02-22T13:43:07.188Z</time>
      </trkpt>
      <trkpt lat="44.19851" lon="0.58704">
        <ele>46</ele>
        <time>2026-02-22T13:43:08.188Z</time>
      </trkpt>
      <trkpt lat="44.1985" lon="0.58705">
        <ele>45</ele>
        <time>2026-02-22T13:43:09.188Z</time>
      </trkpt>
      <trkpt lat="44.19849" lon="0.58706">
        <ele>45</ele>
        <time>2026-02-22T13:43:10.189Z</time>
      </trkpt>
      <trkpt lat="44.19848" lon="0.58707">
        <ele>45</ele>
        <time>2026-02-22T13:43:11.188Z</time>
      </trkpt>
      <trkpt lat="44.19847" lon="0.58708">
        <ele>45</ele>
        <time>2026-02-22T13:43:12.188Z</time>
      </trkpt>
      <trkpt lat="44.19846" lon="0.58709">
        <ele>45</ele>
        <time>2026-02-22T13:43:13.188Z</time>
      </trkpt>
      <trkpt lat="44.19844" lon="0.58709">
        <ele>45</ele>
        <time>2026-02-22T13:43:14.189Z</time>
      </trkpt>
      <trkpt lat="44.19844" lon="0.5871">
        <ele>45</ele>
        <time>2026-02-22T13:43:15.188Z</time>
      </trkpt>
      <trkpt lat="44.19842" lon="0.58711">
        <ele>45</ele>
        <time>2026-02-22T13:43:16.188Z</time>
      </trkpt>
      <trkpt lat="44.19841" lon="0.58712">
        <ele>45</ele>
        <time>2026-02-22T13:43:17.188Z</time>
      </trkpt>
      <trkpt lat="44.1984" lon="0.58712">
        <ele>45</ele>
        <time>2026-02-22T13:43:18.188Z</time>
      </trkpt>
      <trkpt lat="44.19838" lon="0.58713">
        <ele>44</ele>
        <time>2026-02-22T13:43:19.188Z</time>
      </trkpt>
      <trkpt lat="44.19837" lon="0.58714">
        <ele>44</ele>
        <time>2026-02-22T13:43:20.188Z</time>
      </trkpt>
      <trkpt lat="44.19835" lon="0.58715">
        <ele>44</ele>
        <time>2026-02-22T13:43:21.188Z</time>
      </trkpt>
      <trkpt lat="44.19833" lon="0.58715">
        <ele>44</ele>
        <time>2026-02-22T13:43:22.188Z</time>
      </trkpt>
      <trkpt lat="44.19833" lon="0.58716">
        <ele>44</ele>
        <time>2026-02-22T13:43:23.188Z</time>
      </trkpt>
      <trkpt lat="44.19831" lon="0.58716">
        <ele>44</ele>
        <time>2026-02-22T13:43:24.188Z</time>
      </trkpt>
      <trkpt lat="44.1983" lon="0.58717">
        <ele>44</ele>
        <time>2026-02-22T13:43:25.188Z</time>
      </trkpt>
      <trkpt lat="44.19829" lon="0.58717">
        <ele>44</ele>
        <time>2026-02-22T13:43:26.188Z</time>
      </trkpt>
      <trkpt lat="44.19828" lon="0.58718">
        <ele>44</ele>
        <time>2026-02-22T13:43:27.188Z</time>
      </trkpt>
      <trkpt lat="44.19827" lon="0.58718">
        <ele>44</ele>
        <time>2026-02-22T13:43:28.188Z</time>
      </trkpt>
      <trkpt lat="44.19825" lon="0.58719">
        <ele>44</ele>
        <time>2026-02-22T13:43:29.188Z</time>
      </trkpt>
      <trkpt lat="44.19824" lon="0.58719">
        <ele>44</ele>
        <time>2026-02-22T13:43:30.188Z</time>
      </trkpt>
      <trkpt lat="44.19823" lon="0.5872">
        <ele>44</ele>
        <time>2026-02-22T13:43:31.188Z</time>
      </trkpt>
      <trkpt lat="44.19821" lon="0.58721">
        <ele>44</ele>
        <time>2026-02-22T13:43:32.188Z</time>
      </trkpt>
      <trkpt lat="44.1982" lon="0.58721">
        <ele>44</ele>
        <time>2026-02-22T13:43:33.188Z</time>
      </trkpt>
      <trkpt lat="44.19819" lon="0.58722">
        <ele>44</ele>
        <time>2026-02-22T13:43:34.188Z</time>
      </trkpt>
      <trkpt lat="44.19818" lon="0.58723">
        <ele>44</ele>
        <time>2026-02-22T13:43:35.188Z</time>
      </trkpt>
      <trkpt lat="44.19817" lon="0.58723">
        <ele>44</ele>
        <time>2026-02-22T13:43:36.189Z</time>
      </trkpt>
      <trkpt lat="44.19815" lon="0.58724">
        <ele>44</ele>
        <time>2026-02-22T13:43:37.188Z</time>
      </trkpt>
      <trkpt lat="44.19814" lon="0.58724">
        <ele>44</ele>
        <time>2026-02-22T13:43:38.188Z</time>
      </trkpt>
      <trkpt lat="44.19813" lon="0.58724">
        <ele>44</ele>
        <time>2026-02-22T13:43:39.188Z</time>
      </trkpt>
      <trkpt lat="44.19811" lon="0.58725">
        <ele>44</ele>
        <time>2026-02-22T13:43:40.188Z</time>
      </trkpt>
      <trkpt lat="44.1981" lon="0.58725">
        <ele>44</ele>
        <time>2026-02-22T13:43:41.188Z</time>
      </trkpt>
      <trkpt lat="44.19809" lon="0.58726">
        <ele>45</ele>
        <time>2026-02-22T13:43:42.188Z</time>
      </trkpt>
      <trkpt lat="44.19807" lon="0.58727">
        <ele>45</ele>
        <time>2026-02-22T13:43:43.188Z</time>
      </trkpt>
      <trkpt lat="44.19806" lon="0.58727">
        <ele>45</ele>
        <time>2026-02-22T13:43:44.188Z</time>
      </trkpt>
      <trkpt lat="44.19805" lon="0.58727">
        <ele>44</ele>
        <time>2026-02-22T13:43:45.188Z</time>
      </trkpt>
      <trkpt lat="44.19804" lon="0.58728">
        <ele>44</ele>
        <time>2026-02-22T13:43:46.188Z</time>
      </trkpt>
      <trkpt lat="44.19803" lon="0.58728">
        <ele>44</ele>
        <time>2026-02-22T13:43:47.188Z</time>
      </trkpt>
      <trkpt lat="44.19801" lon="0.58729">
        <ele>44</ele>
        <time>2026-02-22T13:43:48.188Z</time>
      </trkpt>
      <trkpt lat="44.198" lon="0.58729">
        <ele>44</ele>
        <time>2026-02-22T13:43:49.188Z</time>
      </trkpt>
      <trkpt lat="44.19799" lon="0.5873">
        <ele>45</ele>
        <time>2026-02-22T13:43:50.188Z</time>
      </trkpt>
      <trkpt lat="44.19798" lon="0.5873">
        <ele>45</ele>
        <time>2026-02-22T13:43:51.188Z</time>
      </trkpt>
      <trkpt lat="44.19797" lon="0.58731">
        <ele>45</ele>
        <time>2026-02-22T13:43:52.188Z</time>
      </trkpt>
      <trkpt lat="44.19795" lon="0.58731">
        <ele>44</ele>
        <time>2026-02-22T13:43:53.188Z</time>
      </trkpt>
      <trkpt lat="44.19794" lon="0.58732">
        <ele>44</ele>
        <time>2026-02-22T13:43:54.188Z</time>
      </trkpt>
      <trkpt lat="44.19793" lon="0.58732">
        <ele>44</ele>
        <time>2026-02-22T13:43:55.188Z</time>
      </trkpt>
      <trkpt lat="44.19792" lon="0.58733">
        <ele>44</ele>
        <time>2026-02-22T13:43:56.188Z</time>
      </trkpt>
      <trkpt lat="44.19791" lon="0.58733">
        <ele>45</ele>
        <time>2026-02-22T13:43:57.188Z</time>
      </trkpt>
      <trkpt lat="44.1979" lon="0.58733">
        <ele>45</ele>
        <time>2026-02-22T13:43:58.188Z</time>
      </trkpt>
      <trkpt lat="44.19788" lon="0.58734">
        <ele>45</ele>
        <time>2026-02-22T13:43:59.188Z</time>
      </trkpt>
      <trkpt lat="44.19787" lon="0.58734">
        <ele>45</ele>
        <time>2026-02-22T13:44:00.188Z</time>
      </trkpt>
      <trkpt lat="44.19786" lon="0.58734">
        <ele>45</ele>
        <time>2026-02-22T13:44:01.188Z</time>
      </trkpt>
      <trkpt lat="44.19785" lon="0.58735">
        <ele>45</ele>
        <time>2026-02-22T13:44:02.189Z</time>
      </trkpt>
      <trkpt lat="44.19783" lon="0.58735">
        <ele>45</ele>
        <time>2026-02-22T13:44:03.188Z</time>
      </trkpt>
      <trkpt lat="44.19782" lon="0.58736">
        <ele>45</ele>
        <time>2026-02-22T13:44:04.188Z</time>
      </trkpt>
      <trkpt lat="44.19781" lon="0.58736">
        <ele>45</ele>
        <time>2026-02-22T13:44:05.188Z</time>
      </trkpt>
      <trkpt lat="44.1978" lon="0.58737">
        <ele>45</ele>
        <time>2026-02-22T13:44:06.188Z</time>
      </trkpt>
      <trkpt lat="44.19779" lon="0.58737">
        <ele>45</ele>
        <time>2026-02-22T13:44:07.188Z</time>
      </trkpt>
      <trkpt lat="44.19778" lon="0.58738">
        <ele>45</ele>
        <time>2026-02-22T13:44:08.188Z</time>
      </trkpt>
      <trkpt lat="44.19777" lon="0.58738">
        <ele>45</ele>
        <time>2026-02-22T13:44:09.188Z</time>
      </trkpt>
      <trkpt lat="44.19776" lon="0.58738">
        <ele>45</ele>
        <time>2026-02-22T13:44:10.188Z</time>
      </trkpt>
      <trkpt lat="44.19774" lon="0.58739">
        <ele>45</ele>
        <time>2026-02-22T13:44:11.188Z</time>
      </trkpt>
      <trkpt lat="44.19773" lon="0.5874">
        <ele>45</ele>
        <time>2026-02-22T13:44:12.188Z</time>
      </trkpt>
      <trkpt lat="44.19772" lon="0.5874">
        <ele>45</ele>
        <time>2026-02-22T13:44:13.188Z</time>
      </trkpt>
      <trkpt lat="44.19771" lon="0.5874">
        <ele>45</ele>
        <time>2026-02-22T13:44:14.188Z</time>
      </trkpt>
      <trkpt lat="44.1977" lon="0.58741">
        <ele>45</ele>
        <time>2026-02-22T13:44:15.189Z</time>
      </trkpt>
      <trkpt lat="44.19769" lon="0.58741">
        <ele>45</ele>
        <time>2026-02-22T13:44:16.188Z</time>
      </trkpt>
      <trkpt lat="44.19768" lon="0.58741">
        <ele>45</ele>
        <time>2026-02-22T13:44:17.188Z</time>
      </trkpt>
      <trkpt lat="44.19766" lon="0.58741">
        <ele>45</ele>
        <time>2026-02-22T13:44:18.188Z</time>
      </trkpt>
      <trkpt lat="44.19765" lon="0.58741">
        <ele>44</ele>
        <time>2026-02-22T13:44:19.188Z</time>
      </trkpt>
      <trkpt lat="44.19764" lon="0.58742">
        <ele>44</ele>
        <time>2026-02-22T13:44:20.188Z</time>
      </trkpt>
      <trkpt lat="44.19763" lon="0.58742">
        <ele>44</ele>
        <time>2026-02-22T13:44:21.188Z</time>
      </trkpt>
      <trkpt lat="44.19762" lon="0.58742">
        <ele>44</ele>
        <time>2026-02-22T13:44:22.188Z</time>
      </trkpt>
      <trkpt lat="44.19761" lon="0.58743">
        <ele>44</ele>
        <time>2026-02-22T13:44:23.188Z</time>
      </trkpt>
      <trkpt lat="44.1976" lon="0.58743">
        <ele>44</ele>
        <time>2026-02-22T13:44:24.189Z</time>
      </trkpt>
      <trkpt lat="44.19759" lon="0.58744">
        <ele>44</ele>
        <time>2026-02-22T13:44:25.188Z</time>
      </trkpt>
      <trkpt lat="44.19758" lon="0.58744">
        <ele>44</ele>
        <time>2026-02-22T13:44:26.189Z</time>
      </trkpt>
      <trkpt lat="44.19757" lon="0.58745">
        <ele>44</ele>
        <time>2026-02-22T13:44:27.188Z</time>
      </trkpt>
      <trkpt lat="44.19757" lon="0.58745">
        <ele>44</ele>
        <time>2026-02-22T13:44:28.189Z</time>
      </trkpt>
      <trkpt lat="44.19756" lon="0.58745">
        <ele>44</ele>
        <time>2026-02-22T13:44:29.188Z</time>
      </trkpt>
      <trkpt lat="44.19755" lon="0.58746">
        <ele>44</ele>
        <time>2026-02-22T13:44:30.188Z</time>
      </trkpt>
      <trkpt lat="44.19755" lon="0.58746">
        <ele>44</ele>
        <time>2026-02-22T13:44:31.188Z</time>
      </trkpt>
      <trkpt lat="44.19755" lon="0.58747">
        <ele>44</ele>
        <time>2026-02-22T13:44:32.188Z</time>
      </trkpt>
      <trkpt lat="44.19754" lon="0.58749">
        <ele>44</ele>
        <time>2026-02-22T13:44:33.188Z</time>
      </trkpt>
      <trkpt lat="44.19754" lon="0.5875">
        <ele>44</ele>
        <time>2026-02-22T13:44:34.188Z</time>
      </trkpt>
      <trkpt lat="44.19754" lon="0.58751">
        <ele>44</ele>
        <time>2026-02-22T13:44:35.188Z</time>
      </trkpt>
      <trkpt lat="44.19754" lon="0.58752">
        <ele>45</ele>
        <time>2026-02-22T13:44:36.188Z</time>
      </trkpt>
      <trkpt lat="44.19754" lon="0.58753">
        <ele>45</ele>
        <time>2026-02-22T13:44:37.188Z</time>
      </trkpt>
      <trkpt lat="44.19754" lon="0.58754">
        <ele>45</ele>
        <time>2026-02-22T13:44:38.188Z</time>
      </trkpt>
      <trkpt lat="44.19755" lon="0.58756">
        <ele>45</ele>
        <time>2026-02-22T13:44:39.188Z</time>
      </trkpt>
      <trkpt lat="44.19755" lon="0.58757">
        <ele>45</ele>
        <time>2026-02-22T13:44:40.188Z</time>
      </trkpt>
      <trkpt lat="44.19756" lon="0.58758">
        <ele>46</ele>
        <time>2026-02-22T13:44:41.188Z</time>
      </trkpt>
      <trkpt lat="44.19756" lon="0.58759">
        <ele>46</ele>
        <time>2026-02-22T13:44:42.188Z</time>
      </trkpt>
      <trkpt lat="44.19757" lon="0.58761">
        <ele>46</ele>
        <time>2026-02-22T13:44:43.188Z</time>
      </trkpt>
      <trkpt lat="44.19756" lon="0.58762">
        <ele>46</ele>
        <time>2026-02-22T13:44:44.188Z</time>
      </trkpt>
      <trkpt lat="44.19756" lon="0.58763">
        <ele>46</ele>
        <time>2026-02-22T13:44:45.188Z</time>
      </trkpt>
      <trkpt lat="44.19756" lon="0.58764">
        <ele>46</ele>
        <time>2026-02-22T13:44:46.188Z</time>
      </trkpt>
      <trkpt lat="44.19756" lon="0.58765">
        <ele>47</ele>
        <time>2026-02-22T13:44:47.188Z</time>
      </trkpt>
      <trkpt lat="44.19756" lon="0.58766">
        <ele>47</ele>
        <time>2026-02-22T13:44:48.188Z</time>
      </trkpt>
      <trkpt lat="44.19756" lon="0.58767">
        <ele>47</ele>
        <time>2026-02-22T13:44:49.188Z</time>
      </trkpt>
      <trkpt lat="44.19755" lon="0.58768">
        <ele>47</ele>
        <time>2026-02-22T13:44:50.188Z</time>
      </trkpt>
      <trkpt lat="44.19754" lon="0.58769">
        <ele>47</ele>
        <time>2026-02-22T13:44:51.188Z</time>
      </trkpt>
      <trkpt lat="44.19754" lon="0.58769">
        <ele>47</ele>
        <time>2026-02-22T13:44:52.188Z</time>
      </trkpt>
      <trkpt lat="44.19753" lon="0.58769">
        <ele>47</ele>
        <time>2026-02-22T13:44:53.188Z</time>
      </trkpt>
      <trkpt lat="44.19752" lon="0.58769">
        <ele>46</ele>
        <time>2026-02-22T13:44:54.189Z</time>
      </trkpt>
      <trkpt lat="44.19751" lon="0.58768">
        <ele>46</ele>
        <time>2026-02-22T13:44:55.188Z</time>
      </trkpt>
      <trkpt lat="44.19751" lon="0.58768">
        <ele>46</ele>
        <time>2026-02-22T13:44:56.188Z</time>
      </trkpt>
      <trkpt lat="44.1975" lon="0.58767">
        <ele>46</ele>
        <time>2026-02-22T13:44:57.188Z</time>
      </trkpt>
      <trkpt lat="44.1975" lon="0.58766">
        <ele>46</ele>
        <time>2026-02-22T13:44:58.189Z</time>
      </trkpt>
      <trkpt lat="44.1975" lon="0.58765">
        <ele>46</ele>
        <time>2026-02-22T13:44:59.189Z</time>
      </trkpt>
      <trkpt lat="44.1975" lon="0.58765">
        <ele>46</ele>
        <time>2026-02-22T13:45:00.188Z</time>
      </trkpt>
      <trkpt lat="44.1975" lon="0.58765">
        <ele>46</ele>
        <time>2026-02-22T13:45:01.188Z</time>
      </trkpt>
      <trkpt lat="44.1975" lon="0.58765">
        <ele>47</ele>
        <time>2026-02-22T13:45:02.188Z</time>
      </trkpt>
      <trkpt lat="44.1975" lon="0.58765">
        <ele>47</ele>
        <time>2026-02-22T13:45:03.188Z</time>
      </trkpt>
      <trkpt lat="44.1975" lon="0.58765">
        <ele>47</ele>
        <time>2026-02-22T13:45:04.188Z</time>
      </trkpt>
      <trkpt lat="44.1975" lon="0.58765">
        <ele>47</ele>
        <time>2026-02-22T13:45:05.188Z</time>
      </trkpt>
      <trkpt lat="44.1975" lon="0.58765">
        <ele>47</ele>
        <time>2026-02-22T13:45:06.188Z</time>
      </trkpt>
      <trkpt lat="44.1975" lon="0.58765">
        <ele>47</ele>
        <time>2026-02-22T13:45:07.188Z</time>
      </trkpt>
      <trkpt lat="44.1975" lon="0.58765">
        <ele>47</ele>
        <time>2026-02-22T13:45:08.188Z</time>
      </trkpt>
      <trkpt lat="44.1975" lon="0.58765">
        <ele>46</ele>
        <time>2026-02-22T13:45:09.189Z</time>
      </trkpt>
      <trkpt lat="44.1975" lon="0.58765">
        <ele>46</ele>
        <time>2026-02-22T13:45:10.188Z</time>
      </trkpt>
      <trkpt lat="44.1975" lon="0.58765">
        <ele>46</ele>
        <time>2026-02-22T13:45:11.188Z</time>
      </trkpt>
      <trkpt lat="44.1975" lon="0.58765">
        <ele>46</ele>
        <time>2026-02-22T13:45:12.188Z</time>
      </trkpt>
      <trkpt lat="44.1975" lon="0.58765">
        <ele>46</ele>
        <time>2026-02-22T13:45:13.188Z</time>
      </trkpt>
      <trkpt lat="44.1975" lon="0.58765">
        <ele>46</ele>
        <time>2026-02-22T13:45:14.188Z</time>
      </trkpt>
      <trkpt lat="44.1975" lon="0.58765">
        <ele>45</ele>
        <time>2026-02-22T13:45:15.188Z</time>
      </trkpt>
      <trkpt lat="44.1975" lon="0.58765">
        <ele>45</ele>
        <time>2026-02-22T13:45:16.188Z</time>
      </trkpt>
      <trkpt lat="44.1975" lon="0.58765">
        <ele>45</ele>
        <time>2026-02-22T13:45:17.188Z</time>
      </trkpt>
      <trkpt lat="44.19749" lon="0.58765">
        <ele>45</ele>
        <time>2026-02-22T13:45:18.188Z</time>
      </trkpt>
      <trkpt lat="44.19749" lon="0.58765">
        <ele>45</ele>
        <time>2026-02-22T13:45:19.188Z</time>
      </trkpt>
      <trkpt lat="44.19749" lon="0.58765">
        <ele>45</ele>
        <time>2026-02-22T13:45:20.188Z</time>
      </trkpt>
      <trkpt lat="44.19749" lon="0.58766">
        <ele>45</ele>
        <time>2026-02-22T13:45:21.188Z</time>
      </trkpt>
      <trkpt lat="44.19749" lon="0.58766">
        <ele>44</ele>
        <time>2026-02-22T13:45:22.189Z</time>
      </trkpt>
      <trkpt lat="44.19749" lon="0.58766">
        <ele>44</ele>
        <time>2026-02-22T13:45:23.188Z</time>
      </trkpt>
      <trkpt lat="44.19749" lon="0.58766">
        <ele>44</ele>
        <time>2026-02-22T13:45:24.188Z</time>
      </trkpt>
      <trkpt lat="44.19749" lon="0.58766">
        <ele>44</ele>
        <time>2026-02-22T13:45:25.188Z</time>
      </trkpt>
      <trkpt lat="44.19749" lon="0.58766">
        <ele>44</ele>
        <time>2026-02-22T13:45:26.188Z</time>
      </trkpt>
      <trkpt lat="44.19749" lon="0.58766">
        <ele>45</ele>
        <time>2026-02-22T13:45:27.188Z</time>
      </trkpt>
      <trkpt lat="44.19749" lon="0.58766">
        <ele>45</ele>
        <time>2026-02-22T13:45:28.188Z</time>
      </trkpt>
      <trkpt lat="44.19749" lon="0.58766">
        <ele>46</ele>
        <time>2026-02-22T13:45:29.188Z</time>
      </trkpt>
      <trkpt lat="44.19749" lon="0.58766">
        <ele>46</ele>
        <time>2026-02-22T13:45:30.188Z</time>
      </trkpt>
      <trkpt lat="44.19749" lon="0.58766">
        <ele>47</ele>
        <time>2026-02-22T13:45:31.188Z</time>
      </trkpt>
      <trkpt lat="44.19749" lon="0.58766">
        <ele>47</ele>
        <time>2026-02-22T13:45:32.188Z</time>
      </trkpt>
      <trkpt lat="44.19749" lon="0.58766">
        <ele>47</ele>
        <time>2026-02-22T13:45:33.189Z</time>
      </trkpt>
      <trkpt lat="44.19749" lon="0.58766">
        <ele>47</ele>
        <time>2026-02-22T13:45:34.189Z</time>
      </trkpt>
      <trkpt lat="44.19749" lon="0.58766">
        <ele>47</ele>
        <time>2026-02-22T13:45:35.189Z</time>
      </trkpt>
      <trkpt lat="44.19749" lon="0.58766">
        <ele>47</ele>
        <time>2026-02-22T13:45:36.188Z</time>
      </trkpt>
      <trkpt lat="44.19749" lon="0.58766">
        <ele>47</ele>
        <time>2026-02-22T13:45:37.189Z</time>
      </trkpt>
      <trkpt lat="44.19749" lon="0.58766">
        <ele>47</ele>
        <time>2026-02-22T13:45:38.188Z</time>
      </trkpt>
      <trkpt lat="44.19749" lon="0.58766">
        <ele>47</ele>
        <time>2026-02-22T13:45:39.188Z</time>
      </trkpt>
      <trkpt lat="44.19749" lon="0.58766">
        <ele>48</ele>
        <time>2026-02-22T13:45:40.188Z</time>
      </trkpt>
      <trkpt lat="44.19749" lon="0.58766">
        <ele>48</ele>
        <time>2026-02-22T13:45:41.188Z</time>
      </trkpt>
      <trkpt lat="44.19749" lon="0.58766">
        <ele>48</ele>
        <time>2026-02-22T13:45:42.188Z</time>
      </trkpt>
      <trkpt lat="44.19749" lon="0.58766">
        <ele>49</ele>
        <time>2026-02-22T13:45:43.188Z</time>
      </trkpt>
      <trkpt lat="44.19749" lon="0.58766">
        <ele>49</ele>
        <time>2026-02-22T13:45:44.188Z</time>
      </trkpt>
      <trkpt lat="44.19749" lon="0.58766">
        <ele>49</ele>
        <time>2026-02-22T13:45:45.188Z</time>
      </trkpt>
      <trkpt lat="44.19749" lon="0.58766">
        <ele>49</ele>
        <time>2026-02-22T13:45:46.188Z</time>
      </trkpt>
      <trkpt lat="44.19749" lon="0.58766">
        <ele>49</ele>
        <time>2026-02-22T13:45:47.188Z</time>
      </trkpt>
      <trkpt lat="44.19749" lon="0.58766">
        <ele>49</ele>
        <time>2026-02-22T13:45:48.188Z</time>
      </trkpt>
      <trkpt lat="44.19749" lon="0.58766">
        <ele>49</ele>
        <time>2026-02-22T13:45:49.188Z</time>
      </trkpt>
      <trkpt lat="44.19749" lon="0.58766">
        <ele>49</ele>
        <time>2026-02-22T13:45:50.189Z</time>
      </trkpt>
      <trkpt lat="44.19749" lon="0.58766">
        <ele>50</ele>
        <time>2026-02-22T13:45:51.188Z</time>
      </trkpt>
      <trkpt lat="44.19749" lon="0.58766">
        <ele>50</ele>
        <time>2026-02-22T13:45:52.188Z</time>
      </trkpt>
      <trkpt lat="44.19749" lon="0.58766">
        <ele>50</ele>
        <time>2026-02-22T13:45:53.188Z</time>
      </trkpt>
      <trkpt lat="44.19749" lon="0.58766">
        <ele>50</ele>
        <time>2026-02-22T13:45:54.188Z</time>
      </trkpt>
      <trkpt lat="44.19749" lon="0.58766">
        <ele>51</ele>
        <time>2026-02-22T13:45:55.188Z</time>
      </trkpt>
      <trkpt lat="44.19749" lon="0.58766">
        <ele>51</ele>
        <time>2026-02-22T13:45:56.188Z</time>
      </trkpt>
      <trkpt lat="44.19749" lon="0.58766">
        <ele>51</ele>
        <time>2026-02-22T13:45:57.188Z</time>
      </trkpt>
      <trkpt lat="44.1975" lon="0.58766">
        <ele>51</ele>
        <time>2026-02-22T13:45:58.188Z</time>
      </trkpt>
      <trkpt lat="44.1975" lon="0.58766">
        <ele>51</ele>
        <time>2026-02-22T13:45:59.188Z</time>
      </trkpt>
      <trkpt lat="44.1975" lon="0.58766">
        <ele>51</ele>
        <time>2026-02-22T13:46:00.188Z</time>
      </trkpt>
      <trkpt lat="44.19749" lon="0.58766">
        <ele>51</ele>
        <time>2026-02-22T13:46:01.188Z</time>
      </trkpt>
      <trkpt lat="44.19749" lon="0.58766">
        <ele>51</ele>
        <time>2026-02-22T13:46:02.188Z</time>
      </trkpt>
      <trkpt lat="44.19749" lon="0.58766">
        <ele>52</ele>
        <time>2026-02-22T13:46:03.188Z</time>
      </trkpt>
      <trkpt lat="44.19749" lon="0.58766">
        <ele>52</ele>
        <time>2026-02-22T13:46:04.188Z</time>
      </trkpt>
      <trkpt lat="44.19749" lon="0.58766">
        <ele>52</ele>
        <time>2026-02-22T13:46:05.188Z</time>
      </trkpt>
      <trkpt lat="44.19749" lon="0.58766">
        <ele>52</ele>
        <time>2026-02-22T13:46:06.188Z</time>
      </trkpt>
      <trkpt lat="44.19749" lon="0.58766">
        <ele>51</ele>
        <time>2026-02-22T13:46:07.188Z</time>
      </trkpt>
      <trkpt lat="44.19749" lon="0.58766">
        <ele>51</ele>
        <time>2026-02-22T13:46:08.189Z</time>
      </trkpt>
      <trkpt lat="44.19749" lon="0.58766">
        <ele>50</ele>
        <time>2026-02-22T13:46:09.189Z</time>
      </trkpt>
      <trkpt lat="44.19749" lon="0.58766">
        <ele>50</ele>
        <time>2026-02-22T13:46:10.188Z</time>
      </trkpt>
      <trkpt lat="44.19749" lon="0.58766">
        <ele>49</ele>
        <time>2026-02-22T13:46:11.188Z</time>
      </trkpt>
      <trkpt lat="44.19749" lon="0.58766">
        <ele>49</ele>
        <time>2026-02-22T13:46:12.188Z</time>
      </trkpt>
      <trkpt lat="44.19749" lon="0.58766">
        <ele>48</ele>
        <time>2026-02-22T13:46:13.188Z</time>
      </trkpt>
      <trkpt lat="44.1975" lon="0.58766">
        <ele>48</ele>
        <time>2026-02-22T13:46:14.188Z</time>
      </trkpt>
      <trkpt lat="44.1975" lon="0.58766">
        <ele>48</ele>
        <time>2026-02-22T13:46:15.188Z</time>
      </trkpt>
      <trkpt lat="44.1975" lon="0.58766">
        <ele>48</ele>
        <time>2026-02-22T13:46:16.189Z</time>
      </trkpt>
      <trkpt lat="44.1975" lon="0.58766">
        <ele>47</ele>
        <time>2026-02-22T13:46:17.188Z</time>
      </trkpt>
      <trkpt lat="44.19751" lon="0.58766">
        <ele>47</ele>
        <time>2026-02-22T13:46:18.189Z</time>
      </trkpt>
      <trkpt lat="44.19751" lon="0.58766">
        <ele>47</ele>
        <time>2026-02-22T13:46:19.188Z</time>
      </trkpt>
      <trkpt lat="44.19751" lon="0.58766">
        <ele>46</ele>
        <time>2026-02-22T13:46:20.188Z</time>
      </trkpt>
      <trkpt lat="44.19751" lon="0.58766">
        <ele>46</ele>
        <time>2026-02-22T13:46:21.188Z</time>
      </trkpt>
      <trkpt lat="44.19751" lon="0.58766">
        <ele>46</ele>
        <time>2026-02-22T13:46:22.188Z</time>
      </trkpt>
      <trkpt lat="44.19751" lon="0.58766">
        <ele>46</ele>
        <time>2026-02-22T13:46:23.188Z</time>
      </trkpt>
      <trkpt lat="44.19751" lon="0.58766">
        <ele>46</ele>
        <time>2026-02-22T13:46:24.188Z</time>
      </trkpt>
      <trkpt lat="44.19751" lon="0.58766">
        <ele>47</ele>
        <time>2026-02-22T13:46:25.188Z</time>
      </trkpt>
      <trkpt lat="44.19752" lon="0.58766">
        <ele>47</ele>
        <time>2026-02-22T13:46:26.188Z</time>
      </trkpt>
      <trkpt lat="44.19752" lon="0.58766">
        <ele>47</ele>
        <time>2026-02-22T13:46:27.188Z</time>
      </trkpt>
      <trkpt lat="44.19752" lon="0.58767">
        <ele>47</ele>
        <time>2026-02-22T13:46:28.188Z</time>
      </trkpt>
      <trkpt lat="44.19752" lon="0.58767">
        <ele>47</ele>
        <time>2026-02-22T13:46:29.188Z</time>
      </trkpt>
      <trkpt lat="44.19752" lon="0.58767">
        <ele>47</ele>
        <time>2026-02-22T13:46:30.188Z</time>
      </trkpt>
      <trkpt lat="44.19752" lon="0.58767">
        <ele>46</ele>
        <time>2026-02-22T13:46:31.189Z</time>
      </trkpt>
      <trkpt lat="44.19752" lon="0.58767">
        <ele>46</ele>
        <time>2026-02-22T13:46:32.188Z</time>
      </trkpt>
      <trkpt lat="44.19752" lon="0.58767">
        <ele>46</ele>
        <time>2026-02-22T13:46:33.188Z</time>
      </trkpt>
      <trkpt lat="44.19752" lon="0.58767">
        <ele>46</ele>
        <time>2026-02-22T13:46:34.188Z</time>
      </trkpt>
      <trkpt lat="44.19752" lon="0.58767">
        <ele>46</ele>
        <time>2026-02-22T13:46:35.188Z</time>
      </trkpt>
      <trkpt lat="44.19752" lon="0.58767">
        <ele>47</ele>
        <time>2026-02-22T13:46:36.188Z</time>
      </trkpt>
      <trkpt lat="44.19752" lon="0.58767">
        <ele>47</ele>
        <time>2026-02-22T13:46:37.188Z</time>
      </trkpt>
      <trkpt lat="44.19752" lon="0.58767">
        <ele>47</ele>
        <time>2026-02-22T13:46:38.188Z</time>
      </trkpt>
      <trkpt lat="44.19752" lon="0.58767">
        <ele>47</ele>
        <time>2026-02-22T13:46:39.188Z</time>
      </trkpt>
      <trkpt lat="44.19752" lon="0.58767">
        <ele>47</ele>
        <time>2026-02-22T13:46:40.188Z</time>
      </trkpt>
      <trkpt lat="44.19752" lon="0.58768">
        <ele>47</ele>
        <time>2026-02-22T13:46:41.188Z</time>
      </trkpt>
      <trkpt lat="44.19752" lon="0.58768">
        <ele>48</ele>
        <time>2026-02-22T13:46:42.189Z</time>
      </trkpt>
      <trkpt lat="44.19752" lon="0.58768">
        <ele>48</ele>
        <time>2026-02-22T13:46:43.188Z</time>
      </trkpt>
      <trkpt lat="44.19752" lon="0.58768">
        <ele>48</ele>
        <time>2026-02-22T13:46:44.188Z</time>
      </trkpt>
      <trkpt lat="44.19752" lon="0.58768">
        <ele>49</ele>
        <time>2026-02-22T13:46:45.188Z</time>
      </trkpt>
      <trkpt lat="44.19752" lon="0.58768">
        <ele>49</ele>
        <time>2026-02-22T13:46:46.188Z</time>
      </trkpt>
      <trkpt lat="44.19752" lon="0.58768">
        <ele>50</ele>
        <time>2026-02-22T13:46:47.188Z</time>
      </trkpt>
      <trkpt lat="44.19752" lon="0.58768">
        <ele>50</ele>
        <time>2026-02-22T13:46:48.188Z</time>
      </trkpt>
      <trkpt lat="44.19752" lon="0.58768">
        <ele>50</ele>
        <time>2026-02-22T13:46:49.188Z</time>
      </trkpt>
      <trkpt lat="44.19752" lon="0.58768">
        <ele>50</ele>
        <time>2026-02-22T13:46:50.189Z</time>
      </trkpt>
      <trkpt lat="44.19752" lon="0.58768">
        <ele>51</ele>
        <time>2026-02-22T13:46:51.188Z</time>
      </trkpt>
      <trkpt lat="44.19753" lon="0.58768">
        <ele>51</ele>
        <time>2026-02-22T13:46:52.188Z</time>
      </trkpt>
      <trkpt lat="44.19753" lon="0.58768">
        <ele>51</ele>
        <time>2026-02-22T13:46:53.188Z</time>
      </trkpt>
      <trkpt lat="44.19753" lon="0.58768">
        <ele>51</ele>
        <time>2026-02-22T13:46:54.188Z</time>
      </trkpt>
      <trkpt lat="44.19753" lon="0.58768">
        <ele>52</ele>
        <time>2026-02-22T13:46:55.188Z</time>
      </trkpt>
      <trkpt lat="44.19753" lon="0.58768">
        <ele>52</ele>
        <time>2026-02-22T13:46:56.188Z</time>
      </trkpt>
      <trkpt lat="44.19753" lon="0.58768">
        <ele>53</ele>
        <time>2026-02-22T13:46:57.188Z</time>
      </trkpt>
      <trkpt lat="44.19752" lon="0.58768">
        <ele>53</ele>
        <time>2026-02-22T13:46:58.188Z</time>
      </trkpt>
      <trkpt lat="44.19752" lon="0.58768">
        <ele>52</ele>
        <time>2026-02-22T13:46:59.188Z</time>
      </trkpt>
      <trkpt lat="44.19752" lon="0.58768">
        <ele>52</ele>
        <time>2026-02-22T13:47:00.188Z</time>
      </trkpt>
      <trkpt lat="44.19752" lon="0.58768">
        <ele>51</ele>
        <time>2026-02-22T13:47:01.188Z</time>
      </trkpt>
      <trkpt lat="44.19752" lon="0.58768">
        <ele>51</ele>
        <time>2026-02-22T13:47:02.188Z</time>
      </trkpt>
      <trkpt lat="44.19752" lon="0.58768">
        <ele>50</ele>
        <time>2026-02-22T13:47:03.188Z</time>
      </trkpt>
      <trkpt lat="44.19752" lon="0.58768">
        <ele>49</ele>
        <time>2026-02-22T13:47:04.188Z</time>
      </trkpt>
      <trkpt lat="44.19752" lon="0.58768">
        <ele>49</ele>
        <time>2026-02-22T13:47:05.188Z</time>
      </trkpt>
      <trkpt lat="44.19752" lon="0.58769">
        <ele>48</ele>
        <time>2026-02-22T13:47:06.188Z</time>
      </trkpt>
      <trkpt lat="44.19752" lon="0.58769">
        <ele>47</ele>
        <time>2026-02-22T13:47:07.188Z</time>
      </trkpt>
      <trkpt lat="44.19752" lon="0.58769">
        <ele>46</ele>
        <time>2026-02-22T13:47:08.188Z</time>
      </trkpt>
      <trkpt lat="44.19752" lon="0.58769">
        <ele>45</ele>
        <time>2026-02-22T13:47:09.188Z</time>
      </trkpt>
      <trkpt lat="44.19752" lon="0.58769">
        <ele>45</ele>
        <time>2026-02-22T13:47:10.189Z</time>
      </trkpt>
      <trkpt lat="44.19752" lon="0.58769">
        <ele>45</ele>
        <time>2026-02-22T13:47:11.188Z</time>
      </trkpt>
      <trkpt lat="44.19752" lon="0.58769">
        <ele>44</ele>
        <time>2026-02-22T13:47:12.188Z</time>
      </trkpt>
      <trkpt lat="44.19752" lon="0.58769">
        <ele>44</ele>
        <time>2026-02-22T13:47:13.188Z</time>
      </trkpt>
      <trkpt lat="44.19753" lon="0.58769">
        <ele>43</ele>
        <time>2026-02-22T13:47:14.188Z</time>
      </trkpt>
      <trkpt lat="44.19753" lon="0.58769">
        <ele>43</ele>
        <time>2026-02-22T13:47:15.188Z</time>
      </trkpt>
      <trkpt lat="44.19753" lon="0.58769">
        <ele>42</ele>
        <time>2026-02-22T13:47:16.188Z</time>
      </trkpt>
      <trkpt lat="44.19753" lon="0.58769">
        <ele>42</ele>
        <time>2026-02-22T13:47:17.188Z</time>
      </trkpt>
      <trkpt lat="44.19753" lon="0.58769">
        <ele>42</ele>
        <time>2026-02-22T13:47:18.189Z</time>
      </trkpt>
      <trkpt lat="44.19753" lon="0.58769">
        <ele>42</ele>
        <time>2026-02-22T13:47:19.189Z</time>
      </trkpt>
      <trkpt lat="44.19753" lon="0.58769">
        <ele>42</ele>
        <time>2026-02-22T13:47:20.188Z</time>
      </trkpt>
      <trkpt lat="44.19753" lon="0.58769">
        <ele>42</ele>
        <time>2026-02-22T13:47:21.188Z</time>
      </trkpt>
      <trkpt lat="44.19753" lon="0.58769">
        <ele>42</ele>
        <time>2026-02-22T13:47:22.188Z</time>
      </trkpt>
      <trkpt lat="44.19753" lon="0.58769">
        <ele>42</ele>
        <time>2026-02-22T13:47:23.188Z</time>
      </trkpt>
      <trkpt lat="44.19753" lon="0.58769">
        <ele>42</ele>
        <time>2026-02-22T13:47:24.188Z</time>
      </trkpt>
      <trkpt lat="44.19753" lon="0.5877">
        <ele>43</ele>
        <time>2026-02-22T13:47:25.189Z</time>
      </trkpt>
      <trkpt lat="44.19752" lon="0.5877">
        <ele>43</ele>
        <time>2026-02-22T13:47:26.188Z</time>
      </trkpt>
      <trkpt lat="44.19752" lon="0.5877">
        <ele>43</ele>
        <time>2026-02-22T13:47:27.188Z</time>
      </trkpt>
      <trkpt lat="44.19751" lon="0.5877">
        <ele>44</ele>
        <time>2026-02-22T13:47:28.188Z</time>
      </trkpt>
      <trkpt lat="44.1975" lon="0.58769">
        <ele>44</ele>
        <time>2026-02-22T13:47:29.188Z</time>
      </trkpt>
      <trkpt lat="44.19749" lon="0.58768">
        <ele>44</ele>
        <time>2026-02-22T13:47:30.188Z</time>
      </trkpt>
      <trkpt lat="44.19749" lon="0.58768">
        <ele>44</ele>
        <time>2026-02-22T13:47:31.188Z</time>
      </trkpt>
      <trkpt lat="44.19748" lon="0.58768">
        <ele>44</ele>
        <time>2026-02-22T13:47:32.188Z</time>
      </trkpt>
      <trkpt lat="44.19748" lon="0.58767">
        <ele>44</ele>
        <time>2026-02-22T13:47:33.188Z</time>
      </trkpt>
      <trkpt lat="44.19748" lon="0.58767">
        <ele>44</ele>
        <time>2026-02-22T13:47:34.188Z</time>
      </trkpt>
      <trkpt lat="44.19748" lon="0.58767">
        <ele>44</ele>
        <time>2026-02-22T13:47:35.188Z</time>
      </trkpt>
      <trkpt lat="44.19748" lon="0.58767">
        <ele>44</ele>
        <time>2026-02-22T13:47:36.189Z</time>
      </trkpt>
      <trkpt lat="44.19748" lon="0.58767">
        <ele>44</ele>
        <time>2026-02-22T13:47:37.188Z</time>
      </trkpt>
      <trkpt lat="44.19748" lon="0.58767">
        <ele>45</ele>
        <time>2026-02-22T13:47:38.189Z</time>
      </trkpt>
      <trkpt lat="44.19748" lon="0.58767">
        <ele>45</ele>
        <time>2026-02-22T13:47:39.188Z</time>
      </trkpt>
      <trkpt lat="44.19748" lon="0.58768">
        <ele>45</ele>
        <time>2026-02-22T13:47:40.188Z</time>
      </trkpt>
      <trkpt lat="44.19747" lon="0.58768">
        <ele>45</ele>
        <time>2026-02-22T13:47:41.188Z</time>
      </trkpt>
      <trkpt lat="44.19747" lon="0.58768">
        <ele>45</ele>
        <time>2026-02-22T13:47:42.188Z</time>
      </trkpt>
      <trkpt lat="44.19746" lon="0.58767">
        <ele>45</ele>
        <time>2026-02-22T13:47:43.188Z</time>
      </trkpt>
      <trkpt lat="44.19745" lon="0.58767">
        <ele>45</ele>
        <time>2026-02-22T13:47:44.188Z</time>
      </trkpt>
      <trkpt lat="44.19744" lon="0.58767">
        <ele>46</ele>
        <time>2026-02-22T13:47:45.188Z</time>
      </trkpt>
      <trkpt lat="44.19743" lon="0.58767">
        <ele>46</ele>
        <time>2026-02-22T13:47:46.188Z</time>
      </trkpt>
      <trkpt lat="44.19742" lon="0.58766">
        <ele>46</ele>
        <time>2026-02-22T13:47:47.188Z</time>
      </trkpt>
      <trkpt lat="44.19742" lon="0.58766">
        <ele>46</ele>
        <time>2026-02-22T13:47:48.188Z</time>
      </trkpt>
      <trkpt lat="44.19741" lon="0.58766">
        <ele>46</ele>
        <time>2026-02-22T13:47:49.189Z</time>
      </trkpt>
      <trkpt lat="44.1974" lon="0.58766">
        <ele>46</ele>
        <time>2026-02-22T13:47:50.188Z</time>
      </trkpt>
      <trkpt lat="44.19739" lon="0.58766">
        <ele>46</ele>
        <time>2026-02-22T13:47:51.188Z</time>
      </trkpt>
      <trkpt lat="44.19739" lon="0.58766">
        <ele>46</ele>
        <time>2026-02-22T13:47:52.188Z</time>
      </trkpt>
      <trkpt lat="44.19738" lon="0.58765">
        <ele>45</ele>
        <time>2026-02-22T13:47:53.188Z</time>
      </trkpt>
      <trkpt lat="44.19737" lon="0.58765">
        <ele>46</ele>
        <time>2026-02-22T13:47:54.189Z</time>
      </trkpt>
      <trkpt lat="44.19736" lon="0.58765">
        <ele>46</ele>
        <time>2026-02-22T13:47:55.188Z</time>
      </trkpt>
      <trkpt lat="44.19736" lon="0.58766">
        <ele>46</ele>
        <time>2026-02-22T13:47:56.188Z</time>
      </trkpt>
      <trkpt lat="44.19735" lon="0.58766">
        <ele>46</ele>
        <time>2026-02-22T13:47:57.188Z</time>
      </trkpt>
      <trkpt lat="44.19733" lon="0.58766">
        <ele>46</ele>
        <time>2026-02-22T13:47:58.188Z</time>
      </trkpt>
      <trkpt lat="44.19732" lon="0.58767">
        <ele>47</ele>
        <time>2026-02-22T13:47:59.188Z</time>
      </trkpt>
      <trkpt lat="44.19731" lon="0.58766">
        <ele>47</ele>
        <time>2026-02-22T13:48:00.188Z</time>
      </trkpt>
      <trkpt lat="44.1973" lon="0.58767">
        <ele>47</ele>
        <time>2026-02-22T13:48:01.188Z</time>
      </trkpt>
      <trkpt lat="44.19729" lon="0.58767">
        <ele>47</ele>
        <time>2026-02-22T13:48:02.189Z</time>
      </trkpt>
      <trkpt lat="44.19727" lon="0.58767">
        <ele>47</ele>
        <time>2026-02-22T13:48:03.188Z</time>
      </trkpt>
      <trkpt lat="44.19726" lon="0.58766">
        <ele>47</ele>
        <time>2026-02-22T13:48:04.188Z</time>
      </trkpt>
      <trkpt lat="44.19725" lon="0.58766">
        <ele>47</ele>
        <time>2026-02-22T13:48:05.188Z</time>
      </trkpt>
      <trkpt lat="44.19724" lon="0.58767">
        <ele>48</ele>
        <time>2026-02-22T13:48:06.188Z</time>
      </trkpt>
      <trkpt lat="44.19723" lon="0.58767">
        <ele>48</ele>
        <time>2026-02-22T13:48:07.188Z</time>
      </trkpt>
      <trkpt lat="44.19723" lon="0.58767">
        <ele>48</ele>
        <time>2026-02-22T13:48:08.188Z</time>
      </trkpt>
      <trkpt lat="44.19722" lon="0.58766">
        <ele>48</ele>
        <time>2026-02-22T13:48:09.188Z</time>
      </trkpt>
      <trkpt lat="44.19721" lon="0.58766">
        <ele>48</ele>
        <time>2026-02-22T13:48:10.188Z</time>
      </trkpt>
      <trkpt lat="44.1972" lon="0.58766">
        <ele>48</ele>
        <time>2026-02-22T13:48:11.188Z</time>
      </trkpt>
      <trkpt lat="44.19719" lon="0.58766">
        <ele>48</ele>
        <time>2026-02-22T13:48:12.188Z</time>
      </trkpt>
      <trkpt lat="44.19718" lon="0.58766">
        <ele>48</ele>
        <time>2026-02-22T13:48:13.188Z</time>
      </trkpt>
      <trkpt lat="44.19716" lon="0.58766">
        <ele>48</ele>
        <time>2026-02-22T13:48:14.188Z</time>
      </trkpt>
      <trkpt lat="44.19715" lon="0.58766">
        <ele>48</ele>
        <time>2026-02-22T13:48:15.188Z</time>
      </trkpt>
      <trkpt lat="44.19714" lon="0.58767">
        <ele>48</ele>
        <time>2026-02-22T13:48:16.188Z</time>
      </trkpt>
      <trkpt lat="44.19714" lon="0.58767">
        <ele>47</ele>
        <time>2026-02-22T13:48:17.188Z</time>
      </trkpt>
      <trkpt lat="44.19713" lon="0.58768">
        <ele>47</ele>
        <time>2026-02-22T13:48:18.188Z</time>
      </trkpt>
      <trkpt lat="44.19712" lon="0.58769">
        <ele>48</ele>
        <time>2026-02-22T13:48:19.188Z</time>
      </trkpt>
      <trkpt lat="44.19711" lon="0.58769">
        <ele>48</ele>
        <time>2026-02-22T13:48:20.188Z</time>
      </trkpt>
      <trkpt lat="44.1971" lon="0.5877">
        <ele>48</ele>
        <time>2026-02-22T13:48:21.188Z</time>
      </trkpt>
      <trkpt lat="44.19708" lon="0.58771">
        <ele>48</ele>
        <time>2026-02-22T13:48:22.188Z</time>
      </trkpt>
      <trkpt lat="44.19707" lon="0.58771">
        <ele>49</ele>
        <time>2026-02-22T13:48:23.188Z</time>
      </trkpt>
      <trkpt lat="44.19706" lon="0.58772">
        <ele>49</ele>
        <time>2026-02-22T13:48:24.188Z</time>
      </trkpt>
      <trkpt lat="44.19706" lon="0.58772">
        <ele>49</ele>
        <time>2026-02-22T13:48:25.188Z</time>
      </trkpt>
      <trkpt lat="44.19704" lon="0.58773">
        <ele>48</ele>
        <time>2026-02-22T13:48:26.189Z</time>
      </trkpt>
      <trkpt lat="44.19703" lon="0.58774">
        <ele>48</ele>
        <time>2026-02-22T13:48:27.188Z</time>
      </trkpt>
      <trkpt lat="44.19702" lon="0.58774">
        <ele>48</ele>
        <time>2026-02-22T13:48:28.188Z</time>
      </trkpt>
      <trkpt lat="44.19701" lon="0.58775">
        <ele>48</ele>
        <time>2026-02-22T13:48:29.189Z</time>
      </trkpt>
      <trkpt lat="44.197" lon="0.58776">
        <ele>48</ele>
        <time>2026-02-22T13:48:30.188Z</time>
      </trkpt>
      <trkpt lat="44.19699" lon="0.58777">
        <ele>48</ele>
        <time>2026-02-22T13:48:31.188Z</time>
      </trkpt>
      <trkpt lat="44.19699" lon="0.58778">
        <ele>48</ele>
        <time>2026-02-22T13:48:32.188Z</time>
      </trkpt>
      <trkpt lat="44.19698" lon="0.58778">
        <ele>48</ele>
        <time>2026-02-22T13:48:33.188Z</time>
      </trkpt>
      <trkpt lat="44.19697" lon="0.58779">
        <ele>48</ele>
        <time>2026-02-22T13:48:34.188Z</time>
      </trkpt>
      <trkpt lat="44.19696" lon="0.5878">
        <ele>49</ele>
        <time>2026-02-22T13:48:35.188Z</time>
      </trkpt>
      <trkpt lat="44.19695" lon="0.5878">
        <ele>49</ele>
        <time>2026-02-22T13:48:36.188Z</time>
      </trkpt>
      <trkpt lat="44.19694" lon="0.58781">
        <ele>49</ele>
        <time>2026-02-22T13:48:37.188Z</time>
      </trkpt>
      <trkpt lat="44.19693" lon="0.58782">
        <ele>49</ele>
        <time>2026-02-22T13:48:38.188Z</time>
      </trkpt>
      <trkpt lat="44.19692" lon="0.58783">
        <ele>49</ele>
        <time>2026-02-22T13:48:39.188Z</time>
      </trkpt>
      <trkpt lat="44.19691" lon="0.58783">
        <ele>49</ele>
        <time>2026-02-22T13:48:40.188Z</time>
      </trkpt>
      <trkpt lat="44.1969" lon="0.58783">
        <ele>49</ele>
        <time>2026-02-22T13:48:41.188Z</time>
      </trkpt>
      <trkpt lat="44.19689" lon="0.58783">
        <ele>49</ele>
        <time>2026-02-22T13:48:42.188Z</time>
      </trkpt>
      <trkpt lat="44.19689" lon="0.58784">
        <ele>48</ele>
        <time>2026-02-22T13:48:43.188Z</time>
      </trkpt>
      <trkpt lat="44.19689" lon="0.58784">
        <ele>48</ele>
        <time>2026-02-22T13:48:44.188Z</time>
      </trkpt>
      <trkpt lat="44.19688" lon="0.58784">
        <ele>48</ele>
        <time>2026-02-22T13:48:45.188Z</time>
      </trkpt>
      <trkpt lat="44.19687" lon="0.58785">
        <ele>49</ele>
        <time>2026-02-22T13:48:46.188Z</time>
      </trkpt>
      <trkpt lat="44.19686" lon="0.58785">
        <ele>49</ele>
        <time>2026-02-22T13:48:47.188Z</time>
      </trkpt>
      <trkpt lat="44.19684" lon="0.58786">
        <ele>48</ele>
        <time>2026-02-22T13:48:48.188Z</time>
      </trkpt>
      <trkpt lat="44.19684" lon="0.58786">
        <ele>48</ele>
        <time>2026-02-22T13:48:49.188Z</time>
      </trkpt>
      <trkpt lat="44.19683" lon="0.58786">
        <ele>48</ele>
        <time>2026-02-22T13:48:50.188Z</time>
      </trkpt>
      <trkpt lat="44.19682" lon="0.58786">
        <ele>48</ele>
        <time>2026-02-22T13:48:51.188Z</time>
      </trkpt>
      <trkpt lat="44.19681" lon="0.58786">
        <ele>48</ele>
        <time>2026-02-22T13:48:52.189Z</time>
      </trkpt>
      <trkpt lat="44.19679" lon="0.58787">
        <ele>47</ele>
        <time>2026-02-22T13:48:53.188Z</time>
      </trkpt>
      <trkpt lat="44.19678" lon="0.58787">
        <ele>47</ele>
        <time>2026-02-22T13:48:54.188Z</time>
      </trkpt>
      <trkpt lat="44.19677" lon="0.58787">
        <ele>47</ele>
        <time>2026-02-22T13:48:55.188Z</time>
      </trkpt>
      <trkpt lat="44.19675" lon="0.58787">
        <ele>47</ele>
        <time>2026-02-22T13:48:56.188Z</time>
      </trkpt>
      <trkpt lat="44.19674" lon="0.58787">
        <ele>47</ele>
        <time>2026-02-22T13:48:57.188Z</time>
      </trkpt>
      <trkpt lat="44.19673" lon="0.58788">
        <ele>47</ele>
        <time>2026-02-22T13:48:58.188Z</time>
      </trkpt>
      <trkpt lat="44.19671" lon="0.58788">
        <ele>47</ele>
        <time>2026-02-22T13:48:59.188Z</time>
      </trkpt>
      <trkpt lat="44.1967" lon="0.58788">
        <ele>47</ele>
        <time>2026-02-22T13:49:00.188Z</time>
      </trkpt>
      <trkpt lat="44.19669" lon="0.58788">
        <ele>47</ele>
        <time>2026-02-22T13:49:01.188Z</time>
      </trkpt>
      <trkpt lat="44.19668" lon="0.58788">
        <ele>47</ele>
        <time>2026-02-22T13:49:02.188Z</time>
      </trkpt>
      <trkpt lat="44.19666" lon="0.58788">
        <ele>47</ele>
        <time>2026-02-22T13:49:03.188Z</time>
      </trkpt>
      <trkpt lat="44.19665" lon="0.58788">
        <ele>47</ele>
        <time>2026-02-22T13:49:04.189Z</time>
      </trkpt>
      <trkpt lat="44.19664" lon="0.58788">
        <ele>48</ele>
        <time>2026-02-22T13:49:05.188Z</time>
      </trkpt>
      <trkpt lat="44.19663" lon="0.58789">
        <ele>48</ele>
        <time>2026-02-22T13:49:06.188Z</time>
      </trkpt>
      <trkpt lat="44.19662" lon="0.58789">
        <ele>48</ele>
        <time>2026-02-22T13:49:07.188Z</time>
      </trkpt>
      <trkpt lat="44.1966" lon="0.5879">
        <ele>48</ele>
        <time>2026-02-22T13:49:08.188Z</time>
      </trkpt>
      <trkpt lat="44.19659" lon="0.5879">
        <ele>48</ele>
        <time>2026-02-22T13:49:09.188Z</time>
      </trkpt>
      <trkpt lat="44.19657" lon="0.58791">
        <ele>48</ele>
        <time>2026-02-22T13:49:10.188Z</time>
      </trkpt>
      <trkpt lat="44.19657" lon="0.58791">
        <ele>48</ele>
        <time>2026-02-22T13:49:11.188Z</time>
      </trkpt>
      <trkpt lat="44.19655" lon="0.58791">
        <ele>48</ele>
        <time>2026-02-22T13:49:12.188Z</time>
      </trkpt>
      <trkpt lat="44.19654" lon="0.58791">
        <ele>48</ele>
        <time>2026-02-22T13:49:13.188Z</time>
      </trkpt>
      <trkpt lat="44.19653" lon="0.58792">
        <ele>49</ele>
        <time>2026-02-22T13:49:14.188Z</time>
      </trkpt>
      <trkpt lat="44.19651" lon="0.58792">
        <ele>49</ele>
        <time>2026-02-22T13:49:15.188Z</time>
      </trkpt>
      <trkpt lat="44.19649" lon="0.58792">
        <ele>49</ele>
        <time>2026-02-22T13:49:16.188Z</time>
      </trkpt>
      <trkpt lat="44.19648" lon="0.58793">
        <ele>49</ele>
        <time>2026-02-22T13:49:17.188Z</time>
      </trkpt>
      <trkpt lat="44.19647" lon="0.58793">
        <ele>49</ele>
        <time>2026-02-22T13:49:18.189Z</time>
      </trkpt>
      <trkpt lat="44.19646" lon="0.58793">
        <ele>49</ele>
        <time>2026-02-22T13:49:19.188Z</time>
      </trkpt>
      <trkpt lat="44.19645" lon="0.58793">
        <ele>49</ele>
        <time>2026-02-22T13:49:20.188Z</time>
      </trkpt>
      <trkpt lat="44.19644" lon="0.58793">
        <ele>49</ele>
        <time>2026-02-22T13:49:21.188Z</time>
      </trkpt>
      <trkpt lat="44.19643" lon="0.58794">
        <ele>49</ele>
        <time>2026-02-22T13:49:22.188Z</time>
      </trkpt>
      <trkpt lat="44.19641" lon="0.58794">
        <ele>49</ele>
        <time>2026-02-22T13:49:23.188Z</time>
      </trkpt>
      <trkpt lat="44.19639" lon="0.58794">
        <ele>48</ele>
        <time>2026-02-22T13:49:24.188Z</time>
      </trkpt>
      <trkpt lat="44.19638" lon="0.58795">
        <ele>48</ele>
        <time>2026-02-22T13:49:25.188Z</time>
      </trkpt>
      <trkpt lat="44.19637" lon="0.58795">
        <ele>48</ele>
        <time>2026-02-22T13:49:26.188Z</time>
      </trkpt>
      <trkpt lat="44.19636" lon="0.58795">
        <ele>48</ele>
        <time>2026-02-22T13:49:27.188Z</time>
      </trkpt>
      <trkpt lat="44.19635" lon="0.58795">
        <ele>48</ele>
        <time>2026-02-22T13:49:28.188Z</time>
      </trkpt>
      <trkpt lat="44.19634" lon="0.58795">
        <ele>48</ele>
        <time>2026-02-22T13:49:29.188Z</time>
      </trkpt>
      <trkpt lat="44.19633" lon="0.58795">
        <ele>48</ele>
        <time>2026-02-22T13:49:30.188Z</time>
      </trkpt>
      <trkpt lat="44.19632" lon="0.58795">
        <ele>48</ele>
        <time>2026-02-22T13:49:31.188Z</time>
      </trkpt>
      <trkpt lat="44.19631" lon="0.58795">
        <ele>49</ele>
        <time>2026-02-22T13:49:32.188Z</time>
      </trkpt>
      <trkpt lat="44.1963" lon="0.58795">
        <ele>49</ele>
        <time>2026-02-22T13:49:33.188Z</time>
      </trkpt>
      <trkpt lat="44.19629" lon="0.58795">
        <ele>49</ele>
        <time>2026-02-22T13:49:34.188Z</time>
      </trkpt>
      <trkpt lat="44.19627" lon="0.58795">
        <ele>49</ele>
        <time>2026-02-22T13:49:35.188Z</time>
      </trkpt>
      <trkpt lat="44.19627" lon="0.58794">
        <ele>49</ele>
        <time>2026-02-22T13:49:36.188Z</time>
      </trkpt>
      <trkpt lat="44.19626" lon="0.58794">
        <ele>49</ele>
        <time>2026-02-22T13:49:37.188Z</time>
      </trkpt>
      <trkpt lat="44.19625" lon="0.58795">
        <ele>49</ele>
        <time>2026-02-22T13:49:38.188Z</time>
      </trkpt>
      <trkpt lat="44.19624" lon="0.58795">
        <ele>49</ele>
        <time>2026-02-22T13:49:39.188Z</time>
      </trkpt>
      <trkpt lat="44.19623" lon="0.58795">
        <ele>49</ele>
        <time>2026-02-22T13:49:40.189Z</time>
      </trkpt>
      <trkpt lat="44.19621" lon="0.58796">
        <ele>49</ele>
        <time>2026-02-22T13:49:41.188Z</time>
      </trkpt>
      <trkpt lat="44.1962" lon="0.58796">
        <ele>50</ele>
        <time>2026-02-22T13:49:42.188Z</time>
      </trkpt>
      <trkpt lat="44.19618" lon="0.58796">
        <ele>50</ele>
        <time>2026-02-22T13:49:43.188Z</time>
      </trkpt>
      <trkpt lat="44.19616" lon="0.58796">
        <ele>51</ele>
        <time>2026-02-22T13:49:44.189Z</time>
      </trkpt>
      <trkpt lat="44.19615" lon="0.58796">
        <ele>51</ele>
        <time>2026-02-22T13:49:45.188Z</time>
      </trkpt>
      <trkpt lat="44.19614" lon="0.58796">
        <ele>51</ele>
        <time>2026-02-22T13:49:46.188Z</time>
      </trkpt>
      <trkpt lat="44.19613" lon="0.58796">
        <ele>52</ele>
        <time>2026-02-22T13:49:47.188Z</time>
      </trkpt>
      <trkpt lat="44.19612" lon="0.58796">
        <ele>51</ele>
        <time>2026-02-22T13:49:48.188Z</time>
      </trkpt>
      <trkpt lat="44.19611" lon="0.58795">
        <ele>52</ele>
        <time>2026-02-22T13:49:49.188Z</time>
      </trkpt>
      <trkpt lat="44.1961" lon="0.58796">
        <ele>52</ele>
        <time>2026-02-22T13:49:50.188Z</time>
      </trkpt>
      <trkpt lat="44.19608" lon="0.58796">
        <ele>52</ele>
        <time>2026-02-22T13:49:51.188Z</time>
      </trkpt>
      <trkpt lat="44.19607" lon="0.58796">
        <ele>53</ele>
        <time>2026-02-22T13:49:52.188Z</time>
      </trkpt>
      <trkpt lat="44.19606" lon="0.58796">
        <ele>53</ele>
        <time>2026-02-22T13:49:53.188Z</time>
      </trkpt>
      <trkpt lat="44.19604" lon="0.58796">
        <ele>54</ele>
        <time>2026-02-22T13:49:54.188Z</time>
      </trkpt>
      <trkpt lat="44.19603" lon="0.58797">
        <ele>55</ele>
        <time>2026-02-22T13:49:55.188Z</time>
      </trkpt>
      <trkpt lat="44.19602" lon="0.58797">
        <ele>56</ele>
        <time>2026-02-22T13:49:56.188Z</time>
      </trkpt>
      <trkpt lat="44.196" lon="0.58797">
        <ele>56</ele>
        <time>2026-02-22T13:49:57.189Z</time>
      </trkpt>
      <trkpt lat="44.19598" lon="0.58799">
        <ele>57</ele>
        <time>2026-02-22T13:49:58.188Z</time>
      </trkpt>
      <trkpt lat="44.19597" lon="0.58799">
        <ele>57</ele>
        <time>2026-02-22T13:49:59.188Z</time>
      </trkpt>
      <trkpt lat="44.19596" lon="0.58799">
        <ele>58</ele>
        <time>2026-02-22T13:50:00.188Z</time>
      </trkpt>
      <trkpt lat="44.19595" lon="0.58799">
        <ele>58</ele>
        <time>2026-02-22T13:50:01.188Z</time>
      </trkpt>
      <trkpt lat="44.19594" lon="0.58799">
        <ele>58</ele>
        <time>2026-02-22T13:50:02.188Z</time>
      </trkpt>
      <trkpt lat="44.19593" lon="0.58799">
        <ele>58</ele>
        <time>2026-02-22T13:50:03.188Z</time>
      </trkpt>
      <trkpt lat="44.19592" lon="0.58799">
        <ele>57</ele>
        <time>2026-02-22T13:50:04.188Z</time>
      </trkpt>
      <trkpt lat="44.1959" lon="0.58799">
        <ele>58</ele>
        <time>2026-02-22T13:50:05.188Z</time>
      </trkpt>
      <trkpt lat="44.19588" lon="0.588">
        <ele>58</ele>
        <time>2026-02-22T13:50:06.188Z</time>
      </trkpt>
      <trkpt lat="44.19587" lon="0.588">
        <ele>58</ele>
        <time>2026-02-22T13:50:07.188Z</time>
      </trkpt>
      <trkpt lat="44.19586" lon="0.588">
        <ele>58</ele>
        <time>2026-02-22T13:50:08.188Z</time>
      </trkpt>
      <trkpt lat="44.19585" lon="0.588">
        <ele>58</ele>
        <time>2026-02-22T13:50:09.188Z</time>
      </trkpt>
      <trkpt lat="44.19584" lon="0.588">
        <ele>58</ele>
        <time>2026-02-22T13:50:10.188Z</time>
      </trkpt>
      <trkpt lat="44.19584" lon="0.588">
        <ele>57</ele>
        <time>2026-02-22T13:50:11.188Z</time>
      </trkpt>
      <trkpt lat="44.19582" lon="0.588">
        <ele>57</ele>
        <time>2026-02-22T13:50:12.188Z</time>
      </trkpt>
      <trkpt lat="44.19581" lon="0.588">
        <ele>57</ele>
        <time>2026-02-22T13:50:13.188Z</time>
      </trkpt>
      <trkpt lat="44.1958" lon="0.588">
        <ele>57</ele>
        <time>2026-02-22T13:50:14.189Z</time>
      </trkpt>
      <trkpt lat="44.19578" lon="0.588">
        <ele>57</ele>
        <time>2026-02-22T13:50:15.188Z</time>
      </trkpt>
      <trkpt lat="44.19577" lon="0.588">
        <ele>57</ele>
        <time>2026-02-22T13:50:16.189Z</time>
      </trkpt>
      <trkpt lat="44.19576" lon="0.588">
        <ele>56</ele>
        <time>2026-02-22T13:50:17.188Z</time>
      </trkpt>
      <trkpt lat="44.19575" lon="0.58801">
        <ele>56</ele>
        <time>2026-02-22T13:50:18.188Z</time>
      </trkpt>
      <trkpt lat="44.19574" lon="0.58801">
        <ele>56</ele>
        <time>2026-02-22T13:50:19.188Z</time>
      </trkpt>
      <trkpt lat="44.19573" lon="0.58801">
        <ele>56</ele>
        <time>2026-02-22T13:50:20.188Z</time>
      </trkpt>
      <trkpt lat="44.19571" lon="0.58802">
        <ele>56</ele>
        <time>2026-02-22T13:50:21.188Z</time>
      </trkpt>
      <trkpt lat="44.1957" lon="0.58802">
        <ele>56</ele>
        <time>2026-02-22T13:50:22.188Z</time>
      </trkpt>
      <trkpt lat="44.19568" lon="0.58802">
        <ele>56</ele>
        <time>2026-02-22T13:50:23.188Z</time>
      </trkpt>
      <trkpt lat="44.19567" lon="0.58802">
        <ele>56</ele>
        <time>2026-02-22T13:50:24.188Z</time>
      </trkpt>
      <trkpt lat="44.19566" lon="0.58802">
        <ele>56</ele>
        <time>2026-02-22T13:50:25.188Z</time>
      </trkpt>
      <trkpt lat="44.19564" lon="0.58802">
        <ele>55</ele>
        <time>2026-02-22T13:50:26.188Z</time>
      </trkpt>
      <trkpt lat="44.19563" lon="0.58803">
        <ele>55</ele>
        <time>2026-02-22T13:50:27.188Z</time>
      </trkpt>
      <trkpt lat="44.19562" lon="0.58803">
        <ele>55</ele>
        <time>2026-02-22T13:50:28.188Z</time>
      </trkpt>
      <trkpt lat="44.19561" lon="0.58803">
        <ele>55</ele>
        <time>2026-02-22T13:50:29.188Z</time>
      </trkpt>
      <trkpt lat="44.1956" lon="0.58803">
        <ele>55</ele>
        <time>2026-02-22T13:50:30.188Z</time>
      </trkpt>
      <trkpt lat="44.19559" lon="0.58803">
        <ele>55</ele>
        <time>2026-02-22T13:50:31.188Z</time>
      </trkpt>
      <trkpt lat="44.19558" lon="0.58803">
        <ele>56</ele>
        <time>2026-02-22T13:50:32.188Z</time>
      </trkpt>
      <trkpt lat="44.19557" lon="0.58803">
        <ele>56</ele>
        <time>2026-02-22T13:50:33.188Z</time>
      </trkpt>
      <trkpt lat="44.19556" lon="0.58803">
        <ele>56</ele>
        <time>2026-02-22T13:50:34.189Z</time>
      </trkpt>
      <trkpt lat="44.19554" lon="0.58803">
        <ele>56</ele>
        <time>2026-02-22T13:50:35.188Z</time>
      </trkpt>
      <trkpt lat="44.19553" lon="0.58803">
        <ele>57</ele>
        <time>2026-02-22T13:50:36.189Z</time>
      </trkpt>
      <trkpt lat="44.19552" lon="0.58803">
        <ele>57</ele>
        <time>2026-02-22T13:50:37.188Z</time>
      </trkpt>
      <trkpt lat="44.19551" lon="0.58804">
        <ele>57</ele>
        <time>2026-02-22T13:50:38.188Z</time>
      </trkpt>
      <trkpt lat="44.1955" lon="0.58805">
        <ele>57</ele>
        <time>2026-02-22T13:50:39.188Z</time>
      </trkpt>
      <trkpt lat="44.19548" lon="0.58805">
        <ele>58</ele>
        <time>2026-02-22T13:50:40.188Z</time>
      </trkpt>
      <trkpt lat="44.19547" lon="0.58805">
        <ele>58</ele>
        <time>2026-02-22T13:50:41.188Z</time>
      </trkpt>
      <trkpt lat="44.19546" lon="0.58805">
        <ele>58</ele>
        <time>2026-02-22T13:50:42.188Z</time>
      </trkpt>
      <trkpt lat="44.19546" lon="0.58805">
        <ele>58</ele>
        <time>2026-02-22T13:50:43.188Z</time>
      </trkpt>
      <trkpt lat="44.19544" lon="0.58806">
        <ele>58</ele>
        <time>2026-02-22T13:50:44.188Z</time>
      </trkpt>
      <trkpt lat="44.19543" lon="0.58806">
        <ele>58</ele>
        <time>2026-02-22T13:50:45.188Z</time>
      </trkpt>
      <trkpt lat="44.19543" lon="0.58806">
        <ele>58</ele>
        <time>2026-02-22T13:50:46.188Z</time>
      </trkpt>
      <trkpt lat="44.19542" lon="0.58806">
        <ele>58</ele>
        <time>2026-02-22T13:50:47.188Z</time>
      </trkpt>
      <trkpt lat="44.1954" lon="0.58806">
        <ele>59</ele>
        <time>2026-02-22T13:50:48.188Z</time>
      </trkpt>
      <trkpt lat="44.19539" lon="0.58807">
        <ele>59</ele>
        <time>2026-02-22T13:50:49.188Z</time>
      </trkpt>
      <trkpt lat="44.19538" lon="0.58807">
        <ele>59</ele>
        <time>2026-02-22T13:50:50.189Z</time>
      </trkpt>
      <trkpt lat="44.19537" lon="0.58808">
        <ele>59</ele>
        <time>2026-02-22T13:50:51.189Z</time>
      </trkpt>
      <trkpt lat="44.19536" lon="0.58808">
        <ele>59</ele>
        <time>2026-02-22T13:50:52.189Z</time>
      </trkpt>
      <trkpt lat="44.19534" lon="0.58808">
        <ele>59</ele>
        <time>2026-02-22T13:50:53.188Z</time>
      </trkpt>
      <trkpt lat="44.19532" lon="0.58809">
        <ele>59</ele>
        <time>2026-02-22T13:50:54.188Z</time>
      </trkpt>
      <trkpt lat="44.1953" lon="0.58809">
        <ele>59</ele>
        <time>2026-02-22T13:50:55.188Z</time>
      </trkpt>
      <trkpt lat="44.19528" lon="0.5881">
        <ele>58</ele>
        <time>2026-02-22T13:50:56.188Z</time>
      </trkpt>
      <trkpt lat="44.19527" lon="0.58811">
        <ele>58</ele>
        <time>2026-02-22T13:50:57.188Z</time>
      </trkpt>
      <trkpt lat="44.19526" lon="0.5881">
        <ele>57</ele>
        <time>2026-02-22T13:50:58.188Z</time>
      </trkpt>
      <trkpt lat="44.19525" lon="0.5881">
        <ele>57</ele>
        <time>2026-02-22T13:50:59.188Z</time>
      </trkpt>
      <trkpt lat="44.19523" lon="0.5881">
        <ele>56</ele>
        <time>2026-02-22T13:51:00.188Z</time>
      </trkpt>
      <trkpt lat="44.19522" lon="0.58811">
        <ele>56</ele>
        <time>2026-02-22T13:51:01.188Z</time>
      </trkpt>
      <trkpt lat="44.19521" lon="0.58811">
        <ele>57</ele>
        <time>2026-02-22T13:51:02.189Z</time>
      </trkpt>
      <trkpt lat="44.1952" lon="0.58811">
        <ele>57</ele>
        <time>2026-02-22T13:51:03.188Z</time>
      </trkpt>
      <trkpt lat="44.19519" lon="0.58811">
        <ele>56</ele>
        <time>2026-02-22T13:51:04.188Z</time>
      </trkpt>
      <trkpt lat="44.19517" lon="0.58811">
        <ele>56</ele>
        <time>2026-02-22T13:51:05.188Z</time>
      </trkpt>
      <trkpt lat="44.19516" lon="0.58811">
        <ele>56</ele>
        <time>2026-02-22T13:51:06.188Z</time>
      </trkpt>
      <trkpt lat="44.19514" lon="0.58811">
        <ele>57</ele>
        <time>2026-02-22T13:51:07.188Z</time>
      </trkpt>
      <trkpt lat="44.19513" lon="0.58811">
        <ele>57</ele>
        <time>2026-02-22T13:51:08.188Z</time>
      </trkpt>
      <trkpt lat="44.19512" lon="0.58811">
        <ele>56</ele>
        <time>2026-02-22T13:51:09.188Z</time>
      </trkpt>
      <trkpt lat="44.19511" lon="0.58811">
        <ele>56</ele>
        <time>2026-02-22T13:51:10.188Z</time>
      </trkpt>
      <trkpt lat="44.19509" lon="0.58812">
        <ele>56</ele>
        <time>2026-02-22T13:51:11.188Z</time>
      </trkpt>
      <trkpt lat="44.19508" lon="0.58812">
        <ele>55</ele>
        <time>2026-02-22T13:51:12.188Z</time>
      </trkpt>
      <trkpt lat="44.19507" lon="0.58811">
        <ele>55</ele>
        <time>2026-02-22T13:51:13.188Z</time>
      </trkpt>
      <trkpt lat="44.19506" lon="0.58811">
        <ele>55</ele>
        <time>2026-02-22T13:51:14.188Z</time>
      </trkpt>
      <trkpt lat="44.19504" lon="0.58811">
        <ele>55</ele>
        <time>2026-02-22T13:51:15.188Z</time>
      </trkpt>
      <trkpt lat="44.19503" lon="0.58812">
        <ele>54</ele>
        <time>2026-02-22T13:51:16.188Z</time>
      </trkpt>
      <trkpt lat="44.19502" lon="0.58811">
        <ele>54</ele>
        <time>2026-02-22T13:51:17.188Z</time>
      </trkpt>
      <trkpt lat="44.195" lon="0.58811">
        <ele>54</ele>
        <time>2026-02-22T13:51:18.188Z</time>
      </trkpt>
      <trkpt lat="44.19499" lon="0.58811">
        <ele>54</ele>
        <time>2026-02-22T13:51:19.188Z</time>
      </trkpt>
      <trkpt lat="44.19498" lon="0.58811">
        <ele>55</ele>
        <time>2026-02-22T13:51:20.188Z</time>
      </trkpt>
      <trkpt lat="44.19496" lon="0.58811">
        <ele>55</ele>
        <time>2026-02-22T13:51:21.188Z</time>
      </trkpt>
      <trkpt lat="44.19495" lon="0.58811">
        <ele>54</ele>
        <time>2026-02-22T13:51:22.188Z</time>
      </trkpt>
      <trkpt lat="44.19493" lon="0.58811">
        <ele>54</ele>
        <time>2026-02-22T13:51:23.188Z</time>
      </trkpt>
      <trkpt lat="44.19492" lon="0.58811">
        <ele>54</ele>
        <time>2026-02-22T13:51:24.188Z</time>
      </trkpt>
      <trkpt lat="44.19491" lon="0.58811">
        <ele>53</ele>
        <time>2026-02-22T13:51:25.188Z</time>
      </trkpt>
      <trkpt lat="44.19489" lon="0.58811">
        <ele>53</ele>
        <time>2026-02-22T13:51:26.189Z</time>
      </trkpt>
      <trkpt lat="44.19488" lon="0.5881">
        <ele>52</ele>
        <time>2026-02-22T13:51:27.188Z</time>
      </trkpt>
      <trkpt lat="44.19487" lon="0.58809">
        <ele>52</ele>
        <time>2026-02-22T13:51:28.188Z</time>
      </trkpt>
      <trkpt lat="44.19486" lon="0.58809">
        <ele>52</ele>
        <time>2026-02-22T13:51:29.188Z</time>
      </trkpt>
      <trkpt lat="44.19485" lon="0.58808">
        <ele>52</ele>
        <time>2026-02-22T13:51:30.189Z</time>
      </trkpt>
      <trkpt lat="44.19483" lon="0.58808">
        <ele>53</ele>
        <time>2026-02-22T13:51:31.188Z</time>
      </trkpt>
      <trkpt lat="44.19482" lon="0.58808">
        <ele>53</ele>
        <time>2026-02-22T13:51:32.188Z</time>
      </trkpt>
      <trkpt lat="44.19481" lon="0.58807">
        <ele>53</ele>
        <time>2026-02-22T13:51:33.188Z</time>
      </trkpt>
      <trkpt lat="44.19479" lon="0.58806">
        <ele>53</ele>
        <time>2026-02-22T13:51:34.188Z</time>
      </trkpt>
      <trkpt lat="44.19478" lon="0.58806">
        <ele>53</ele>
        <time>2026-02-22T13:51:35.188Z</time>
      </trkpt>
      <trkpt lat="44.19477" lon="0.58806">
        <ele>53</ele>
        <time>2026-02-22T13:51:36.188Z</time>
      </trkpt>
      <trkpt lat="44.19476" lon="0.58805">
        <ele>53</ele>
        <time>2026-02-22T13:51:37.188Z</time>
      </trkpt>
      <trkpt lat="44.19475" lon="0.58805">
        <ele>53</ele>
        <time>2026-02-22T13:51:38.188Z</time>
      </trkpt>
      <trkpt lat="44.19473" lon="0.58805">
        <ele>53</ele>
        <time>2026-02-22T13:51:39.188Z</time>
      </trkpt>
      <trkpt lat="44.19472" lon="0.58805">
        <ele>52</ele>
        <time>2026-02-22T13:51:40.188Z</time>
      </trkpt>
      <trkpt lat="44.19471" lon="0.58805">
        <ele>52</ele>
        <time>2026-02-22T13:51:41.188Z</time>
      </trkpt>
      <trkpt lat="44.19469" lon="0.58804">
        <ele>52</ele>
        <time>2026-02-22T13:51:42.188Z</time>
      </trkpt>
      <trkpt lat="44.19468" lon="0.58803">
        <ele>52</ele>
        <time>2026-02-22T13:51:43.188Z</time>
      </trkpt>
      <trkpt lat="44.19467" lon="0.58802">
        <ele>52</ele>
        <time>2026-02-22T13:51:44.188Z</time>
      </trkpt>
      <trkpt lat="44.19466" lon="0.58802">
        <ele>52</ele>
        <time>2026-02-22T13:51:45.188Z</time>
      </trkpt>
      <trkpt lat="44.19465" lon="0.58801">
        <ele>52</ele>
        <time>2026-02-22T13:51:46.188Z</time>
      </trkpt>
      <trkpt lat="44.19464" lon="0.58801">
        <ele>52</ele>
        <time>2026-02-22T13:51:47.188Z</time>
      </trkpt>
      <trkpt lat="44.19463" lon="0.58801">
        <ele>52</ele>
        <time>2026-02-22T13:51:48.188Z</time>
      </trkpt>
      <trkpt lat="44.19461" lon="0.58801">
        <ele>53</ele>
        <time>2026-02-22T13:51:49.188Z</time>
      </trkpt>
      <trkpt lat="44.1946" lon="0.58801">
        <ele>53</ele>
        <time>2026-02-22T13:51:50.188Z</time>
      </trkpt>
      <trkpt lat="44.19459" lon="0.588">
        <ele>54</ele>
        <time>2026-02-22T13:51:51.188Z</time>
      </trkpt>
      <trkpt lat="44.19458" lon="0.58799">
        <ele>54</ele>
        <time>2026-02-22T13:51:52.188Z</time>
      </trkpt>
      <trkpt lat="44.19457" lon="0.58799">
        <ele>55</ele>
        <time>2026-02-22T13:51:53.188Z</time>
      </trkpt>
      <trkpt lat="44.19455" lon="0.58799">
        <ele>56</ele>
        <time>2026-02-22T13:51:54.188Z</time>
      </trkpt>
      <trkpt lat="44.19454" lon="0.58799">
        <ele>56</ele>
        <time>2026-02-22T13:51:55.188Z</time>
      </trkpt>
      <trkpt lat="44.19453" lon="0.58799">
        <ele>56</ele>
        <time>2026-02-22T13:51:56.189Z</time>
      </trkpt>
      <trkpt lat="44.19452" lon="0.58799">
        <ele>56</ele>
        <time>2026-02-22T13:51:57.188Z</time>
      </trkpt>
      <trkpt lat="44.19451" lon="0.58799">
        <ele>56</ele>
        <time>2026-02-22T13:51:58.188Z</time>
      </trkpt>
      <trkpt lat="44.1945" lon="0.58799">
        <ele>56</ele>
        <time>2026-02-22T13:51:59.188Z</time>
      </trkpt>
      <trkpt lat="44.19448" lon="0.58799">
        <ele>56</ele>
        <time>2026-02-22T13:52:00.189Z</time>
      </trkpt>
      <trkpt lat="44.19447" lon="0.58799">
        <ele>56</ele>
        <time>2026-02-22T13:52:01.189Z</time>
      </trkpt>
      <trkpt lat="44.19445" lon="0.58799">
        <ele>56</ele>
        <time>2026-02-22T13:52:02.188Z</time>
      </trkpt>
      <trkpt lat="44.19444" lon="0.58798">
        <ele>56</ele>
        <time>2026-02-22T13:52:03.188Z</time>
      </trkpt>
      <trkpt lat="44.19443" lon="0.58798">
        <ele>56</ele>
        <time>2026-02-22T13:52:04.188Z</time>
      </trkpt>
      <trkpt lat="44.19442" lon="0.58798">
        <ele>56</ele>
        <time>2026-02-22T13:52:05.188Z</time>
      </trkpt>
      <trkpt lat="44.1944" lon="0.58798">
        <ele>55</ele>
        <time>2026-02-22T13:52:06.188Z</time>
      </trkpt>
      <trkpt lat="44.19439" lon="0.58798">
        <ele>55</ele>
        <time>2026-02-22T13:52:07.188Z</time>
      </trkpt>
      <trkpt lat="44.19438" lon="0.58798">
        <ele>55</ele>
        <time>2026-02-22T13:52:08.188Z</time>
      </trkpt>
      <trkpt lat="44.19437" lon="0.58798">
        <ele>55</ele>
        <time>2026-02-22T13:52:09.188Z</time>
      </trkpt>
      <trkpt lat="44.19435" lon="0.58798">
        <ele>55</ele>
        <time>2026-02-22T13:52:10.188Z</time>
      </trkpt>
      <trkpt lat="44.19434" lon="0.58798">
        <ele>55</ele>
        <time>2026-02-22T13:52:11.188Z</time>
      </trkpt>
      <trkpt lat="44.19432" lon="0.58798">
        <ele>56</ele>
        <time>2026-02-22T13:52:12.188Z</time>
      </trkpt>
      <trkpt lat="44.19431" lon="0.58798">
        <ele>56</ele>
        <time>2026-02-22T13:52:13.188Z</time>
      </trkpt>
      <trkpt lat="44.19429" lon="0.58798">
        <ele>56</ele>
        <time>2026-02-22T13:52:14.188Z</time>
      </trkpt>
      <trkpt lat="44.19428" lon="0.58797">
        <ele>56</ele>
        <time>2026-02-22T13:52:15.188Z</time>
      </trkpt>
      <trkpt lat="44.19427" lon="0.58797">
        <ele>56</ele>
        <time>2026-02-22T13:52:16.188Z</time>
      </trkpt>
      <trkpt lat="44.19426" lon="0.58797">
        <ele>55</ele>
        <time>2026-02-22T13:52:17.188Z</time>
      </trkpt>
      <trkpt lat="44.19425" lon="0.58797">
        <ele>55</ele>
        <time>2026-02-22T13:52:18.189Z</time>
      </trkpt>
      <trkpt lat="44.19423" lon="0.58798">
        <ele>55</ele>
        <time>2026-02-22T13:52:19.188Z</time>
      </trkpt>
      <trkpt lat="44.19422" lon="0.58798">
        <ele>55</ele>
        <time>2026-02-22T13:52:20.188Z</time>
      </trkpt>
      <trkpt lat="44.1942" lon="0.58798">
        <ele>54</ele>
        <time>2026-02-22T13:52:21.188Z</time>
      </trkpt>
      <trkpt lat="44.19419" lon="0.58798">
        <ele>54</ele>
        <time>2026-02-22T13:52:22.188Z</time>
      </trkpt>
      <trkpt lat="44.19418" lon="0.58799">
        <ele>54</ele>
        <time>2026-02-22T13:52:23.188Z</time>
      </trkpt>
      <trkpt lat="44.19416" lon="0.58799">
        <ele>54</ele>
        <time>2026-02-22T13:52:24.188Z</time>
      </trkpt>
      <trkpt lat="44.19415" lon="0.588">
        <ele>54</ele>
        <time>2026-02-22T13:52:25.188Z</time>
      </trkpt>
      <trkpt lat="44.19414" lon="0.588">
        <ele>54</ele>
        <time>2026-02-22T13:52:26.188Z</time>
      </trkpt>
      <trkpt lat="44.19413" lon="0.58801">
        <ele>55</ele>
        <time>2026-02-22T13:52:27.188Z</time>
      </trkpt>
      <trkpt lat="44.19412" lon="0.58801">
        <ele>55</ele>
        <time>2026-02-22T13:52:28.188Z</time>
      </trkpt>
      <trkpt lat="44.19411" lon="0.58802">
        <ele>55</ele>
        <time>2026-02-22T13:52:29.188Z</time>
      </trkpt>
      <trkpt lat="44.1941" lon="0.58802">
        <ele>54</ele>
        <time>2026-02-22T13:52:30.188Z</time>
      </trkpt>
      <trkpt lat="44.19409" lon="0.58803">
        <ele>54</ele>
        <time>2026-02-22T13:52:31.188Z</time>
      </trkpt>
      <trkpt lat="44.19407" lon="0.58804">
        <ele>54</ele>
        <time>2026-02-22T13:52:32.188Z</time>
      </trkpt>
      <trkpt lat="44.19406" lon="0.58804">
        <ele>54</ele>
        <time>2026-02-22T13:52:33.188Z</time>
      </trkpt>
      <trkpt lat="44.19405" lon="0.58805">
        <ele>54</ele>
        <time>2026-02-22T13:52:34.188Z</time>
      </trkpt>
      <trkpt lat="44.19403" lon="0.58806">
        <ele>54</ele>
        <time>2026-02-22T13:52:35.188Z</time>
      </trkpt>
      <trkpt lat="44.19402" lon="0.58806">
        <ele>54</ele>
        <time>2026-02-22T13:52:36.189Z</time>
      </trkpt>
      <trkpt lat="44.19401" lon="0.58807">
        <ele>54</ele>
        <time>2026-02-22T13:52:37.189Z</time>
      </trkpt>
      <trkpt lat="44.194" lon="0.58807">
        <ele>54</ele>
        <time>2026-02-22T13:52:38.188Z</time>
      </trkpt>
      <trkpt lat="44.19399" lon="0.58808">
        <ele>54</ele>
        <time>2026-02-22T13:52:39.188Z</time>
      </trkpt>
      <trkpt lat="44.19398" lon="0.58808">
        <ele>54</ele>
        <time>2026-02-22T13:52:40.188Z</time>
      </trkpt>
      <trkpt lat="44.19397" lon="0.58809">
        <ele>54</ele>
        <time>2026-02-22T13:52:41.188Z</time>
      </trkpt>
      <trkpt lat="44.19395" lon="0.58809">
        <ele>54</ele>
        <time>2026-02-22T13:52:42.188Z</time>
      </trkpt>
      <trkpt lat="44.19394" lon="0.5881">
        <ele>54</ele>
        <time>2026-02-22T13:52:43.188Z</time>
      </trkpt>
      <trkpt lat="44.19393" lon="0.58811">
        <ele>54</ele>
        <time>2026-02-22T13:52:44.189Z</time>
      </trkpt>
      <trkpt lat="44.19391" lon="0.58812">
        <ele>54</ele>
        <time>2026-02-22T13:52:45.188Z</time>
      </trkpt>
      <trkpt lat="44.1939" lon="0.58812">
        <ele>54</ele>
        <time>2026-02-22T13:52:46.188Z</time>
      </trkpt>
      <trkpt lat="44.19389" lon="0.58812">
        <ele>55</ele>
        <time>2026-02-22T13:52:47.188Z</time>
      </trkpt>
      <trkpt lat="44.19388" lon="0.58813">
        <ele>55</ele>
        <time>2026-02-22T13:52:48.189Z</time>
      </trkpt>
      <trkpt lat="44.19387" lon="0.58813">
        <ele>55</ele>
        <time>2026-02-22T13:52:49.188Z</time>
      </trkpt>
      <trkpt lat="44.19386" lon="0.58814">
        <ele>55</ele>
        <time>2026-02-22T13:52:50.188Z</time>
      </trkpt>
      <trkpt lat="44.19385" lon="0.58814">
        <ele>55</ele>
        <time>2026-02-22T13:52:51.188Z</time>
      </trkpt>
      <trkpt lat="44.19384" lon="0.58815">
        <ele>55</ele>
        <time>2026-02-22T13:52:52.188Z</time>
      </trkpt>
      <trkpt lat="44.19383" lon="0.58816">
        <ele>55</ele>
        <time>2026-02-22T13:52:53.188Z</time>
      </trkpt>
      <trkpt lat="44.19382" lon="0.58816">
        <ele>55</ele>
        <time>2026-02-22T13:52:54.188Z</time>
      </trkpt>
      <trkpt lat="44.19381" lon="0.58817">
        <ele>55</ele>
        <time>2026-02-22T13:52:55.188Z</time>
      </trkpt>
      <trkpt lat="44.19379" lon="0.58817">
        <ele>55</ele>
        <time>2026-02-22T13:52:56.188Z</time>
      </trkpt>
      <trkpt lat="44.19378" lon="0.58818">
        <ele>55</ele>
        <time>2026-02-22T13:52:57.188Z</time>
      </trkpt>
      <trkpt lat="44.19377" lon="0.58818">
        <ele>56</ele>
        <time>2026-02-22T13:52:58.188Z</time>
      </trkpt>
      <trkpt lat="44.19376" lon="0.58819">
        <ele>56</ele>
        <time>2026-02-22T13:52:59.188Z</time>
      </trkpt>
      <trkpt lat="44.19375" lon="0.58819">
        <ele>56</ele>
        <time>2026-02-22T13:53:00.188Z</time>
      </trkpt>
      <trkpt lat="44.19374" lon="0.5882">
        <ele>56</ele>
        <time>2026-02-22T13:53:01.188Z</time>
      </trkpt>
      <trkpt lat="44.19373" lon="0.5882">
        <ele>56</ele>
        <time>2026-02-22T13:53:02.188Z</time>
      </trkpt>
      <trkpt lat="44.19372" lon="0.58821">
        <ele>56</ele>
        <time>2026-02-22T13:53:03.188Z</time>
      </trkpt>
      <trkpt lat="44.19371" lon="0.58821">
        <ele>56</ele>
        <time>2026-02-22T13:53:04.188Z</time>
      </trkpt>
      <trkpt lat="44.1937" lon="0.58822">
        <ele>56</ele>
        <time>2026-02-22T13:53:05.188Z</time>
      </trkpt>
      <trkpt lat="44.19369" lon="0.58822">
        <ele>56</ele>
        <time>2026-02-22T13:53:06.188Z</time>
      </trkpt>
      <trkpt lat="44.19368" lon="0.58823">
        <ele>56</ele>
        <time>2026-02-22T13:53:07.188Z</time>
      </trkpt>
      <trkpt lat="44.19367" lon="0.58823">
        <ele>56</ele>
        <time>2026-02-22T13:53:08.188Z</time>
      </trkpt>
      <trkpt lat="44.19366" lon="0.58824">
        <ele>56</ele>
        <time>2026-02-22T13:53:09.189Z</time>
      </trkpt>
      <trkpt lat="44.19364" lon="0.58824">
        <ele>57</ele>
        <time>2026-02-22T13:53:10.188Z</time>
      </trkpt>
      <trkpt lat="44.19363" lon="0.58825">
        <ele>57</ele>
        <time>2026-02-22T13:53:11.188Z</time>
      </trkpt>
      <trkpt lat="44.19361" lon="0.58826">
        <ele>57</ele>
        <time>2026-02-22T13:53:12.189Z</time>
      </trkpt>
      <trkpt lat="44.1936" lon="0.58826">
        <ele>57</ele>
        <time>2026-02-22T13:53:13.188Z</time>
      </trkpt>
      <trkpt lat="44.19359" lon="0.58827">
        <ele>57</ele>
        <time>2026-02-22T13:53:14.188Z</time>
      </trkpt>
      <trkpt lat="44.19358" lon="0.58828">
        <ele>57</ele>
        <time>2026-02-22T13:53:15.188Z</time>
      </trkpt>
      <trkpt lat="44.19357" lon="0.58829">
        <ele>57</ele>
        <time>2026-02-22T13:53:16.188Z</time>
      </trkpt>
      <trkpt lat="44.19356" lon="0.5883">
        <ele>57</ele>
        <time>2026-02-22T13:53:17.188Z</time>
      </trkpt>
      <trkpt lat="44.19355" lon="0.58831">
        <ele>58</ele>
        <time>2026-02-22T13:53:18.188Z</time>
      </trkpt>
      <trkpt lat="44.19354" lon="0.58833">
        <ele>58</ele>
        <time>2026-02-22T13:53:19.188Z</time>
      </trkpt>
      <trkpt lat="44.19354" lon="0.58834">
        <ele>57</ele>
        <time>2026-02-22T13:53:20.188Z</time>
      </trkpt>
      <trkpt lat="44.19354" lon="0.58835">
        <ele>57</ele>
        <time>2026-02-22T13:53:21.188Z</time>
      </trkpt>
      <trkpt lat="44.19354" lon="0.58836">
        <ele>57</ele>
        <time>2026-02-22T13:53:22.188Z</time>
      </trkpt>
      <trkpt lat="44.19354" lon="0.58838">
        <ele>57</ele>
        <time>2026-02-22T13:53:23.188Z</time>
      </trkpt>
      <trkpt lat="44.19354" lon="0.58839">
        <ele>56</ele>
        <time>2026-02-22T13:53:24.188Z</time>
      </trkpt>
      <trkpt lat="44.19354" lon="0.5884">
        <ele>56</ele>
        <time>2026-02-22T13:53:25.188Z</time>
      </trkpt>
      <trkpt lat="44.19354" lon="0.58841">
        <ele>56</ele>
        <time>2026-02-22T13:53:26.188Z</time>
      </trkpt>
      <trkpt lat="44.19354" lon="0.58843">
        <ele>55</ele>
        <time>2026-02-22T13:53:27.188Z</time>
      </trkpt>
      <trkpt lat="44.19353" lon="0.58843">
        <ele>55</ele>
        <time>2026-02-22T13:53:28.188Z</time>
      </trkpt>
      <trkpt lat="44.19353" lon="0.58844">
        <ele>56</ele>
        <time>2026-02-22T13:53:29.188Z</time>
      </trkpt>
      <trkpt lat="44.19353" lon="0.58845">
        <ele>56</ele>
        <time>2026-02-22T13:53:30.188Z</time>
      </trkpt>
      <trkpt lat="44.19353" lon="0.58845">
        <ele>55</ele>
        <time>2026-02-22T13:53:31.188Z</time>
      </trkpt>
      <trkpt lat="44.19353" lon="0.58847">
        <ele>55</ele>
        <time>2026-02-22T13:53:32.188Z</time>
      </trkpt>
      <trkpt lat="44.19353" lon="0.58848">
        <ele>55</ele>
        <time>2026-02-22T13:53:33.188Z</time>
      </trkpt>
      <trkpt lat="44.19353" lon="0.58849">
        <ele>55</ele>
        <time>2026-02-22T13:53:34.188Z</time>
      </trkpt>
      <trkpt lat="44.19353" lon="0.58851">
        <ele>55</ele>
        <time>2026-02-22T13:53:35.188Z</time>
      </trkpt>
      <trkpt lat="44.19353" lon="0.58852">
        <ele>55</ele>
        <time>2026-02-22T13:53:36.189Z</time>
      </trkpt>
      <trkpt lat="44.19353" lon="0.58854">
        <ele>55</ele>
        <time>2026-02-22T13:53:37.188Z</time>
      </trkpt>
      <trkpt lat="44.19353" lon="0.58855">
        <ele>55</ele>
        <time>2026-02-22T13:53:38.188Z</time>
      </trkpt>
      <trkpt lat="44.19353" lon="0.58856">
        <ele>55</ele>
        <time>2026-02-22T13:53:39.188Z</time>
      </trkpt>
      <trkpt lat="44.19353" lon="0.58857">
        <ele>55</ele>
        <time>2026-02-22T13:53:40.188Z</time>
      </trkpt>
      <trkpt lat="44.19353" lon="0.58858">
        <ele>55</ele>
        <time>2026-02-22T13:53:41.188Z</time>
      </trkpt>
      <trkpt lat="44.19353" lon="0.5886">
        <ele>55</ele>
        <time>2026-02-22T13:53:42.188Z</time>
      </trkpt>
      <trkpt lat="44.19353" lon="0.58861">
        <ele>55</ele>
        <time>2026-02-22T13:53:43.188Z</time>
      </trkpt>
      <trkpt lat="44.19353" lon="0.58863">
        <ele>56</ele>
        <time>2026-02-22T13:53:44.188Z</time>
      </trkpt>
      <trkpt lat="44.19354" lon="0.58864">
        <ele>56</ele>
        <time>2026-02-22T13:53:45.188Z</time>
      </trkpt>
      <trkpt lat="44.19353" lon="0.58865">
        <ele>56</ele>
        <time>2026-02-22T13:53:46.188Z</time>
      </trkpt>
      <trkpt lat="44.19353" lon="0.58867">
        <ele>56</ele>
        <time>2026-02-22T13:53:47.188Z</time>
      </trkpt>
      <trkpt lat="44.19353" lon="0.58868">
        <ele>56</ele>
        <time>2026-02-22T13:53:48.189Z</time>
      </trkpt>
      <trkpt lat="44.19353" lon="0.5887">
        <ele>57</ele>
        <time>2026-02-22T13:53:49.188Z</time>
      </trkpt>
      <trkpt lat="44.19352" lon="0.58871">
        <ele>57</ele>
        <time>2026-02-22T13:53:50.188Z</time>
      </trkpt>
      <trkpt lat="44.19352" lon="0.58872">
        <ele>56</ele>
        <time>2026-02-22T13:53:51.188Z</time>
      </trkpt>
      <trkpt lat="44.19353" lon="0.58874">
        <ele>56</ele>
        <time>2026-02-22T13:53:52.188Z</time>
      </trkpt>
      <trkpt lat="44.19353" lon="0.58875">
        <ele>56</ele>
        <time>2026-02-22T13:53:53.188Z</time>
      </trkpt>
      <trkpt lat="44.19353" lon="0.58877">
        <ele>56</ele>
        <time>2026-02-22T13:53:54.188Z</time>
      </trkpt>
      <trkpt lat="44.19353" lon="0.58878">
        <ele>56</ele>
        <time>2026-02-22T13:53:55.188Z</time>
      </trkpt>
      <trkpt lat="44.19353" lon="0.5888">
        <ele>55</ele>
        <time>2026-02-22T13:53:56.188Z</time>
      </trkpt>
      <trkpt lat="44.19353" lon="0.58881">
        <ele>55</ele>
        <time>2026-02-22T13:53:57.188Z</time>
      </trkpt>
      <trkpt lat="44.19353" lon="0.58883">
        <ele>55</ele>
        <time>2026-02-22T13:53:58.188Z</time>
      </trkpt>
      <trkpt lat="44.19353" lon="0.58884">
        <ele>55</ele>
        <time>2026-02-22T13:53:59.188Z</time>
      </trkpt>
      <trkpt lat="44.19353" lon="0.58885">
        <ele>56</ele>
        <time>2026-02-22T13:54:00.188Z</time>
      </trkpt>
      <trkpt lat="44.19353" lon="0.58887">
        <ele>56</ele>
        <time>2026-02-22T13:54:01.188Z</time>
      </trkpt>
      <trkpt lat="44.19353" lon="0.58888">
        <ele>57</ele>
        <time>2026-02-22T13:54:02.189Z</time>
      </trkpt>
      <trkpt lat="44.19353" lon="0.5889">
        <ele>58</ele>
        <time>2026-02-22T13:54:03.188Z</time>
      </trkpt>
      <trkpt lat="44.19353" lon="0.58892">
        <ele>58</ele>
        <time>2026-02-22T13:54:04.188Z</time>
      </trkpt>
      <trkpt lat="44.19354" lon="0.58894">
        <ele>58</ele>
        <time>2026-02-22T13:54:05.188Z</time>
      </trkpt>
      <trkpt lat="44.19354" lon="0.58895">
        <ele>59</ele>
        <time>2026-02-22T13:54:06.188Z</time>
      </trkpt>
      <trkpt lat="44.19354" lon="0.58896">
        <ele>59</ele>
        <time>2026-02-22T13:54:07.188Z</time>
      </trkpt>
      <trkpt lat="44.19354" lon="0.58897">
        <ele>59</ele>
        <time>2026-02-22T13:54:08.188Z</time>
      </trkpt>
      <trkpt lat="44.19355" lon="0.58899">
        <ele>59</ele>
        <time>2026-02-22T13:54:09.188Z</time>
      </trkpt>
      <trkpt lat="44.19355" lon="0.589">
        <ele>59</ele>
        <time>2026-02-22T13:54:10.188Z</time>
      </trkpt>
      <trkpt lat="44.19355" lon="0.58902">
        <ele>59</ele>
        <time>2026-02-22T13:54:11.188Z</time>
      </trkpt>
      <trkpt lat="44.19355" lon="0.58903">
        <ele>59</ele>
        <time>2026-02-22T13:54:12.188Z</time>
      </trkpt>
      <trkpt lat="44.19355" lon="0.58905">
        <ele>60</ele>
        <time>2026-02-22T13:54:13.188Z</time>
      </trkpt>
      <trkpt lat="44.19355" lon="0.58906">
        <ele>60</ele>
        <time>2026-02-22T13:54:14.188Z</time>
      </trkpt>
      <trkpt lat="44.19355" lon="0.58908">
        <ele>60</ele>
        <time>2026-02-22T13:54:15.188Z</time>
      </trkpt>
      <trkpt lat="44.19355" lon="0.58909">
        <ele>60</ele>
        <time>2026-02-22T13:54:16.188Z</time>
      </trkpt>
      <trkpt lat="44.19355" lon="0.58911">
        <ele>60</ele>
        <time>2026-02-22T13:54:17.189Z</time>
      </trkpt>
      <trkpt lat="44.19355" lon="0.58913">
        <ele>59</ele>
        <time>2026-02-22T13:54:18.188Z</time>
      </trkpt>
      <trkpt lat="44.19355" lon="0.58915">
        <ele>59</ele>
        <time>2026-02-22T13:54:19.188Z</time>
      </trkpt>
      <trkpt lat="44.19355" lon="0.58917">
        <ele>59</ele>
        <time>2026-02-22T13:54:20.188Z</time>
      </trkpt>
      <trkpt lat="44.19355" lon="0.58919">
        <ele>59</ele>
        <time>2026-02-22T13:54:21.188Z</time>
      </trkpt>
      <trkpt lat="44.19354" lon="0.5892">
        <ele>59</ele>
        <time>2026-02-22T13:54:22.188Z</time>
      </trkpt>
      <trkpt lat="44.19354" lon="0.58921">
        <ele>59</ele>
        <time>2026-02-22T13:54:23.188Z</time>
      </trkpt>
      <trkpt lat="44.19354" lon="0.58922">
        <ele>59</ele>
        <time>2026-02-22T13:54:24.189Z</time>
      </trkpt>
      <trkpt lat="44.19354" lon="0.58924">
        <ele>59</ele>
        <time>2026-02-22T13:54:25.189Z</time>
      </trkpt>
      <trkpt lat="44.19354" lon="0.58926">
        <ele>59</ele>
        <time>2026-02-22T13:54:26.188Z</time>
      </trkpt>
      <trkpt lat="44.19354" lon="0.58928">
        <ele>59</ele>
        <time>2026-02-22T13:54:27.188Z</time>
      </trkpt>
      <trkpt lat="44.19354" lon="0.5893">
        <ele>59</ele>
        <time>2026-02-22T13:54:28.189Z</time>
      </trkpt>
      <trkpt lat="44.19355" lon="0.58932">
        <ele>59</ele>
        <time>2026-02-22T13:54:29.188Z</time>
      </trkpt>
      <trkpt lat="44.19355" lon="0.58935">
        <ele>59</ele>
        <time>2026-02-22T13:54:30.188Z</time>
      </trkpt>
      <trkpt lat="44.19355" lon="0.58937">
        <ele>58</ele>
        <time>2026-02-22T13:54:31.188Z</time>
      </trkpt>
      <trkpt lat="44.19355" lon="0.58938">
        <ele>58</ele>
        <time>2026-02-22T13:54:32.188Z</time>
      </trkpt>
      <trkpt lat="44.19356" lon="0.5894">
        <ele>57</ele>
        <time>2026-02-22T13:54:33.188Z</time>
      </trkpt>
      <trkpt lat="44.19356" lon="0.58941">
        <ele>57</ele>
        <time>2026-02-22T13:54:34.188Z</time>
      </trkpt>
      <trkpt lat="44.19356" lon="0.58942">
        <ele>56</ele>
        <time>2026-02-22T13:54:35.188Z</time>
      </trkpt>
      <trkpt lat="44.19357" lon="0.58944">
        <ele>56</ele>
        <time>2026-02-22T13:54:36.188Z</time>
      </trkpt>
      <trkpt lat="44.19357" lon="0.58945">
        <ele>56</ele>
        <time>2026-02-22T13:54:37.188Z</time>
      </trkpt>
      <trkpt lat="44.19356" lon="0.58946">
        <ele>56</ele>
        <time>2026-02-22T13:54:38.188Z</time>
      </trkpt>
      <trkpt lat="44.19356" lon="0.58948">
        <ele>56</ele>
        <time>2026-02-22T13:54:39.188Z</time>
      </trkpt>
      <trkpt lat="44.19356" lon="0.5895">
        <ele>56</ele>
        <time>2026-02-22T13:54:40.188Z</time>
      </trkpt>
      <trkpt lat="44.19356" lon="0.58952">
        <ele>56</ele>
        <time>2026-02-22T13:54:41.188Z</time>
      </trkpt>
      <trkpt lat="44.19356" lon="0.58953">
        <ele>56</ele>
        <time>2026-02-22T13:54:42.188Z</time>
      </trkpt>
      <trkpt lat="44.19356" lon="0.58955">
        <ele>56</ele>
        <time>2026-02-22T13:54:43.188Z</time>
      </trkpt>
      <trkpt lat="44.19356" lon="0.58956">
        <ele>56</ele>
        <time>2026-02-22T13:54:44.188Z</time>
      </trkpt>
      <trkpt lat="44.19356" lon="0.58958">
        <ele>56</ele>
        <time>2026-02-22T13:54:45.188Z</time>
      </trkpt>
      <trkpt lat="44.19356" lon="0.5896">
        <ele>57</ele>
        <time>2026-02-22T13:54:46.188Z</time>
      </trkpt>
      <trkpt lat="44.19355" lon="0.58961">
        <ele>57</ele>
        <time>2026-02-22T13:54:47.188Z</time>
      </trkpt>
      <trkpt lat="44.19355" lon="0.58963">
        <ele>57</ele>
        <time>2026-02-22T13:54:48.188Z</time>
      </trkpt>
      <trkpt lat="44.19355" lon="0.58965">
        <ele>58</ele>
        <time>2026-02-22T13:54:49.188Z</time>
      </trkpt>
      <trkpt lat="44.19355" lon="0.58966">
        <ele>58</ele>
        <time>2026-02-22T13:54:50.188Z</time>
      </trkpt>
      <trkpt lat="44.19355" lon="0.58967">
        <ele>58</ele>
        <time>2026-02-22T13:54:51.188Z</time>
      </trkpt>
      <trkpt lat="44.19355" lon="0.58969">
        <ele>58</ele>
        <time>2026-02-22T13:54:52.188Z</time>
      </trkpt>
      <trkpt lat="44.19355" lon="0.58971">
        <ele>58</ele>
        <time>2026-02-22T13:54:53.188Z</time>
      </trkpt>
      <trkpt lat="44.19355" lon="0.58972">
        <ele>58</ele>
        <time>2026-02-22T13:54:54.189Z</time>
      </trkpt>
      <trkpt lat="44.19355" lon="0.58974">
        <ele>58</ele>
        <time>2026-02-22T13:54:55.188Z</time>
      </trkpt>
      <trkpt lat="44.19355" lon="0.58976">
        <ele>58</ele>
        <time>2026-02-22T13:54:56.188Z</time>
      </trkpt>
      <trkpt lat="44.19355" lon="0.58977">
        <ele>58</ele>
        <time>2026-02-22T13:54:57.188Z</time>
      </trkpt>
      <trkpt lat="44.19355" lon="0.58979">
        <ele>57</ele>
        <time>2026-02-22T13:54:58.188Z</time>
      </trkpt>
      <trkpt lat="44.19355" lon="0.5898">
        <ele>57</ele>
        <time>2026-02-22T13:54:59.188Z</time>
      </trkpt>
      <trkpt lat="44.19355" lon="0.58982">
        <ele>57</ele>
        <time>2026-02-22T13:55:00.189Z</time>
      </trkpt>
      <trkpt lat="44.19355" lon="0.58984">
        <ele>57</ele>
        <time>2026-02-22T13:55:01.188Z</time>
      </trkpt>
      <trkpt lat="44.19355" lon="0.58985">
        <ele>57</ele>
        <time>2026-02-22T13:55:02.188Z</time>
      </trkpt>
      <trkpt lat="44.19355" lon="0.58987">
        <ele>57</ele>
        <time>2026-02-22T13:55:03.188Z</time>
      </trkpt>
      <trkpt lat="44.19354" lon="0.58989">
        <ele>57</ele>
        <time>2026-02-22T13:55:04.188Z</time>
      </trkpt>
      <trkpt lat="44.19354" lon="0.58991">
        <ele>57</ele>
        <time>2026-02-22T13:55:05.188Z</time>
      </trkpt>
      <trkpt lat="44.19354" lon="0.58992">
        <ele>58</ele>
        <time>2026-02-22T13:55:06.188Z</time>
      </trkpt>
      <trkpt lat="44.19354" lon="0.58994">
        <ele>58</ele>
        <time>2026-02-22T13:55:07.189Z</time>
      </trkpt>
      <trkpt lat="44.19355" lon="0.58996">
        <ele>58</ele>
        <time>2026-02-22T13:55:08.188Z</time>
      </trkpt>
      <trkpt lat="44.19355" lon="0.58998">
        <ele>58</ele>
        <time>2026-02-22T13:55:09.188Z</time>
      </trkpt>
      <trkpt lat="44.19355" lon="0.58999">
        <ele>57</ele>
        <time>2026-02-22T13:55:10.188Z</time>
      </trkpt>
      <trkpt lat="44.19355" lon="0.59001">
        <ele>57</ele>
        <time>2026-02-22T13:55:11.188Z</time>
      </trkpt>
      <trkpt lat="44.19355" lon="0.59002">
        <ele>57</ele>
        <time>2026-02-22T13:55:12.188Z</time>
      </trkpt>
      <trkpt lat="44.19356" lon="0.59004">
        <ele>57</ele>
        <time>2026-02-22T13:55:13.188Z</time>
      </trkpt>
      <trkpt lat="44.19355" lon="0.59006">
        <ele>57</ele>
        <time>2026-02-22T13:55:14.188Z</time>
      </trkpt>
      <trkpt lat="44.19355" lon="0.59008">
        <ele>57</ele>
        <time>2026-02-22T13:55:15.188Z</time>
      </trkpt>
      <trkpt lat="44.19355" lon="0.5901">
        <ele>58</ele>
        <time>2026-02-22T13:55:16.188Z</time>
      </trkpt>
      <trkpt lat="44.19355" lon="0.59011">
        <ele>58</ele>
        <time>2026-02-22T13:55:17.188Z</time>
      </trkpt>
      <trkpt lat="44.19354" lon="0.59013">
        <ele>58</ele>
        <time>2026-02-22T13:55:18.188Z</time>
      </trkpt>
      <trkpt lat="44.19354" lon="0.59014">
        <ele>59</ele>
        <time>2026-02-22T13:55:19.188Z</time>
      </trkpt>
      <trkpt lat="44.19354" lon="0.59016">
        <ele>59</ele>
        <time>2026-02-22T13:55:20.189Z</time>
      </trkpt>
      <trkpt lat="44.19355" lon="0.59017">
        <ele>59</ele>
        <time>2026-02-22T13:55:21.188Z</time>
      </trkpt>
      <trkpt lat="44.19355" lon="0.59018">
        <ele>58</ele>
        <time>2026-02-22T13:55:22.188Z</time>
      </trkpt>
      <trkpt lat="44.19354" lon="0.59018">
        <ele>58</ele>
        <time>2026-02-22T13:55:23.188Z</time>
      </trkpt>
      <trkpt lat="44.19354" lon="0.59019">
        <ele>58</ele>
        <time>2026-02-22T13:55:24.188Z</time>
      </trkpt>
      <trkpt lat="44.19354" lon="0.59019">
        <ele>58</ele>
        <time>2026-02-22T13:55:25.188Z</time>
      </trkpt>
      <trkpt lat="44.19354" lon="0.59019">
        <ele>58</ele>
        <time>2026-02-22T13:55:26.188Z</time>
      </trkpt>
      <trkpt lat="44.19354" lon="0.59019">
        <ele>59</ele>
        <time>2026-02-22T13:55:27.188Z</time>
      </trkpt>
      <trkpt lat="44.19354" lon="0.59019">
        <ele>59</ele>
        <time>2026-02-22T13:55:28.188Z</time>
      </trkpt>
      <trkpt lat="44.19353" lon="0.59019">
        <ele>59</ele>
        <time>2026-02-22T13:55:29.188Z</time>
      </trkpt>
      <trkpt lat="44.19353" lon="0.59019">
        <ele>59</ele>
        <time>2026-02-22T13:55:30.188Z</time>
      </trkpt>
      <trkpt lat="44.19353" lon="0.59019">
        <ele>59</ele>
        <time>2026-02-22T13:55:31.188Z</time>
      </trkpt>
      <trkpt lat="44.19353" lon="0.59019">
        <ele>59</ele>
        <time>2026-02-22T13:55:32.188Z</time>
      </trkpt>
      <trkpt lat="44.19353" lon="0.59019">
        <ele>59</ele>
        <time>2026-02-22T13:55:33.189Z</time>
      </trkpt>
      <trkpt lat="44.19353" lon="0.59019">
        <ele>59</ele>
        <time>2026-02-22T13:55:34.189Z</time>
      </trkpt>
      <trkpt lat="44.19353" lon="0.59019">
        <ele>59</ele>
        <time>2026-02-22T13:55:35.189Z</time>
      </trkpt>
      <trkpt lat="44.19353" lon="0.59019">
        <ele>59</ele>
        <time>2026-02-22T13:55:36.189Z</time>
      </trkpt>
      <trkpt lat="44.19353" lon="0.59019">
        <ele>59</ele>
        <time>2026-02-22T13:55:37.188Z</time>
      </trkpt>
      <trkpt lat="44.19353" lon="0.59019">
        <ele>59</ele>
        <time>2026-02-22T13:55:38.188Z</time>
      </trkpt>
      <trkpt lat="44.19353" lon="0.59019">
        <ele>60</ele>
        <time>2026-02-22T13:55:39.188Z</time>
      </trkpt>
      <trkpt lat="44.19353" lon="0.59019">
        <ele>60</ele>
        <time>2026-02-22T13:55:40.188Z</time>
      </trkpt>
      <trkpt lat="44.19354" lon="0.59019">
        <ele>60</ele>
        <time>2026-02-22T13:55:41.188Z</time>
      </trkpt>
      <trkpt lat="44.19354" lon="0.59019">
        <ele>60</ele>
        <time>2026-02-22T13:55:42.188Z</time>
      </trkpt>
      <trkpt lat="44.19353" lon="0.59019">
        <ele>60</ele>
        <time>2026-02-22T13:55:43.188Z</time>
      </trkpt>
      <trkpt lat="44.19353" lon="0.59019">
        <ele>59</ele>
        <time>2026-02-22T13:55:44.189Z</time>
      </trkpt>
      <trkpt lat="44.19353" lon="0.59018">
        <ele>59</ele>
        <time>2026-02-22T13:55:45.188Z</time>
      </trkpt>
      <trkpt lat="44.19353" lon="0.59018">
        <ele>59</ele>
        <time>2026-02-22T13:55:46.188Z</time>
      </trkpt>
      <trkpt lat="44.19353" lon="0.59018">
        <ele>59</ele>
        <time>2026-02-22T13:55:47.188Z</time>
      </trkpt>
      <trkpt lat="44.19354" lon="0.59018">
        <ele>59</ele>
        <time>2026-02-22T13:55:48.188Z</time>
      </trkpt>
      <trkpt lat="44.19354" lon="0.59018">
        <ele>59</ele>
        <time>2026-02-22T13:55:49.188Z</time>
      </trkpt>
      <trkpt lat="44.19353" lon="0.59018">
        <ele>59</ele>
        <time>2026-02-22T13:55:50.188Z</time>
      </trkpt>
      <trkpt lat="44.19354" lon="0.59018">
        <ele>59</ele>
        <time>2026-02-22T13:55:51.188Z</time>
      </trkpt>
      <trkpt lat="44.19354" lon="0.59018">
        <ele>59</ele>
        <time>2026-02-22T13:55:52.188Z</time>
      </trkpt>
      <trkpt lat="44.19353" lon="0.59018">
        <ele>58</ele>
        <time>2026-02-22T13:55:53.188Z</time>
      </trkpt>
      <trkpt lat="44.19354" lon="0.59018">
        <ele>58</ele>
        <time>2026-02-22T13:55:54.188Z</time>
      </trkpt>
      <trkpt lat="44.19354" lon="0.59018">
        <ele>58</ele>
        <time>2026-02-22T13:55:55.188Z</time>
      </trkpt>
      <trkpt lat="44.19354" lon="0.59018">
        <ele>57</ele>
        <time>2026-02-22T13:55:56.188Z</time>
      </trkpt>
      <trkpt lat="44.19354" lon="0.59018">
        <ele>57</ele>
        <time>2026-02-22T13:55:57.189Z</time>
      </trkpt>
      <trkpt lat="44.19354" lon="0.59018">
        <ele>58</ele>
        <time>2026-02-22T13:55:58.188Z</time>
      </trkpt>
      <trkpt lat="44.19354" lon="0.59018">
        <ele>58</ele>
        <time>2026-02-22T13:55:59.188Z</time>
      </trkpt>
      <trkpt lat="44.19354" lon="0.59018">
        <ele>58</ele>
        <time>2026-02-22T13:56:00.188Z</time>
      </trkpt>
      <trkpt lat="44.19354" lon="0.59018">
        <ele>58</ele>
        <time>2026-02-22T13:56:01.188Z</time>
      </trkpt>
      <trkpt lat="44.19354" lon="0.59018">
        <ele>58</ele>
        <time>2026-02-22T13:56:02.188Z</time>
      </trkpt>
      <trkpt lat="44.19354" lon="0.59018">
        <ele>58</ele>
        <time>2026-02-22T13:56:03.188Z</time>
      </trkpt>
      <trkpt lat="44.19354" lon="0.59018">
        <ele>58</ele>
        <time>2026-02-22T13:56:04.188Z</time>
      </trkpt>
      <trkpt lat="44.19354" lon="0.59018">
        <ele>58</ele>
        <time>2026-02-22T13:56:05.188Z</time>
      </trkpt>
      <trkpt lat="44.19354" lon="0.59018">
        <ele>58</ele>
        <time>2026-02-22T13:56:06.188Z</time>
      </trkpt>
      <trkpt lat="44.19354" lon="0.59018">
        <ele>58</ele>
        <time>2026-02-22T13:56:07.188Z</time>
      </trkpt>
      <trkpt lat="44.19354" lon="0.59018">
        <ele>58</ele>
        <time>2026-02-22T13:56:08.189Z</time>
      </trkpt>
      <trkpt lat="44.19354" lon="0.59018">
        <ele>58</ele>
        <time>2026-02-22T13:56:09.188Z</time>
      </trkpt>
      <trkpt lat="44.19354" lon="0.59018">
        <ele>59</ele>
        <time>2026-02-22T13:56:10.188Z</time>
      </trkpt>
      <trkpt lat="44.19354" lon="0.59018">
        <ele>59</ele>
        <time>2026-02-22T13:56:11.188Z</time>
      </trkpt>
      <trkpt lat="44.19354" lon="0.59018">
        <ele>59</ele>
        <time>2026-02-22T13:56:12.188Z</time>
      </trkpt>
      <trkpt lat="44.19354" lon="0.59018">
        <ele>59</ele>
        <time>2026-02-22T13:56:13.188Z</time>
      </trkpt>
      <trkpt lat="44.19354" lon="0.59018">
        <ele>59</ele>
        <time>2026-02-22T13:56:14.188Z</time>
      </trkpt>
      <trkpt lat="44.19354" lon="0.59018">
        <ele>59</ele>
        <time>2026-02-22T13:56:15.188Z</time>
      </trkpt>
      <trkpt lat="44.19354" lon="0.59018">
        <ele>59</ele>
        <time>2026-02-22T13:56:16.188Z</time>
      </trkpt>
      <trkpt lat="44.19354" lon="0.59018">
        <ele>59</ele>
        <time>2026-02-22T13:56:17.188Z</time>
      </trkpt>
      <trkpt lat="44.19354" lon="0.59018">
        <ele>59</ele>
        <time>2026-02-22T13:56:18.188Z</time>
      </trkpt>
      <trkpt lat="44.19354" lon="0.59018">
        <ele>59</ele>
        <time>2026-02-22T13:56:19.188Z</time>
      </trkpt>
      <trkpt lat="44.19354" lon="0.59018">
        <ele>59</ele>
        <time>2026-02-22T13:56:20.188Z</time>
      </trkpt>
      <trkpt lat="44.19355" lon="0.59018">
        <ele>59</ele>
        <time>2026-02-22T13:56:21.188Z</time>
      </trkpt>
      <trkpt lat="44.19355" lon="0.59018">
        <ele>59</ele>
        <time>2026-02-22T13:56:22.188Z</time>
      </trkpt>
      <trkpt lat="44.19355" lon="0.59018">
        <ele>59</ele>
        <time>2026-02-22T13:56:23.188Z</time>
      </trkpt>
      <trkpt lat="44.19355" lon="0.59018">
        <ele>59</ele>
        <time>2026-02-22T13:56:24.188Z</time>
      </trkpt>
      <trkpt lat="44.19355" lon="0.59018">
        <ele>59</ele>
        <time>2026-02-22T13:56:25.188Z</time>
      </trkpt>
      <trkpt lat="44.19355" lon="0.59018">
        <ele>59</ele>
        <time>2026-02-22T13:56:26.188Z</time>
      </trkpt>
      <trkpt lat="44.19355" lon="0.59018">
        <ele>59</ele>
        <time>2026-02-22T13:56:27.188Z</time>
      </trkpt>
      <trkpt lat="44.19355" lon="0.59018">
        <ele>59</ele>
        <time>2026-02-22T13:56:28.188Z</time>
      </trkpt>
      <trkpt lat="44.19355" lon="0.59018">
        <ele>58</ele>
        <time>2026-02-22T13:56:29.188Z</time>
      </trkpt>
      <trkpt lat="44.19355" lon="0.59018">
        <ele>58</ele>
        <time>2026-02-22T13:56:30.188Z</time>
      </trkpt>
      <trkpt lat="44.19355" lon="0.59018">
        <ele>58</ele>
        <time>2026-02-22T13:56:31.188Z</time>
      </trkpt>
      <trkpt lat="44.19355" lon="0.59018">
        <ele>57</ele>
        <time>2026-02-22T13:56:32.188Z</time>
      </trkpt>
      <trkpt lat="44.19355" lon="0.59018">
        <ele>57</ele>
        <time>2026-02-22T13:56:33.188Z</time>
      </trkpt>
      <trkpt lat="44.19355" lon="0.59018">
        <ele>56</ele>
        <time>2026-02-22T13:56:34.189Z</time>
      </trkpt>
      <trkpt lat="44.19355" lon="0.59018">
        <ele>55</ele>
        <time>2026-02-22T13:56:35.188Z</time>
      </trkpt>
      <trkpt lat="44.19355" lon="0.59018">
        <ele>54</ele>
        <time>2026-02-22T13:56:36.188Z</time>
      </trkpt>
      <trkpt lat="44.19355" lon="0.59018">
        <ele>53</ele>
        <time>2026-02-22T13:56:37.188Z</time>
      </trkpt>
      <trkpt lat="44.19355" lon="0.59018">
        <ele>53</ele>
        <time>2026-02-22T13:56:38.188Z</time>
      </trkpt>
      <trkpt lat="44.19355" lon="0.59018">
        <ele>53</ele>
        <time>2026-02-22T13:56:39.188Z</time>
      </trkpt>
      <trkpt lat="44.19355" lon="0.59018">
        <ele>53</ele>
        <time>2026-02-22T13:56:40.188Z</time>
      </trkpt>
      <trkpt lat="44.19355" lon="0.59018">
        <ele>54</ele>
        <time>2026-02-22T13:56:41.188Z</time>
      </trkpt>
      <trkpt lat="44.19355" lon="0.59018">
        <ele>54</ele>
        <time>2026-02-22T13:56:42.188Z</time>
      </trkpt>
      <trkpt lat="44.19355" lon="0.59018">
        <ele>54</ele>
        <time>2026-02-22T13:56:43.188Z</time>
      </trkpt>
      <trkpt lat="44.19355" lon="0.59018">
        <ele>54</ele>
        <time>2026-02-22T13:56:44.188Z</time>
      </trkpt>
      <trkpt lat="44.19355" lon="0.59018">
        <ele>54</ele>
        <time>2026-02-22T13:56:45.188Z</time>
      </trkpt>
      <trkpt lat="44.19355" lon="0.59018">
        <ele>54</ele>
        <time>2026-02-22T13:56:46.189Z</time>
      </trkpt>
      <trkpt lat="44.19355" lon="0.59018">
        <ele>54</ele>
        <time>2026-02-22T13:56:47.188Z</time>
      </trkpt>
      <trkpt lat="44.19355" lon="0.59018">
        <ele>53</ele>
        <time>2026-02-22T13:56:48.188Z</time>
      </trkpt>
      <trkpt lat="44.19356" lon="0.59018">
        <ele>53</ele>
        <time>2026-02-22T13:56:49.189Z</time>
      </trkpt>
      <trkpt lat="44.19356" lon="0.59018">
        <ele>53</ele>
        <time>2026-02-22T13:56:50.188Z</time>
      </trkpt>
      <trkpt lat="44.19356" lon="0.59018">
        <ele>53</ele>
        <time>2026-02-22T13:56:51.188Z</time>
      </trkpt>
      <trkpt lat="44.19356" lon="0.59018">
        <ele>54</ele>
        <time>2026-02-22T13:56:52.188Z</time>
      </trkpt>
      <trkpt lat="44.19356" lon="0.59018">
        <ele>53</ele>
        <time>2026-02-22T13:56:53.188Z</time>
      </trkpt>
      <trkpt lat="44.19356" lon="0.59018">
        <ele>54</ele>
        <time>2026-02-22T13:56:54.188Z</time>
      </trkpt>
      <trkpt lat="44.19356" lon="0.59018">
        <ele>54</ele>
        <time>2026-02-22T13:56:55.188Z</time>
      </trkpt>
      <trkpt lat="44.19356" lon="0.59018">
        <ele>54</ele>
        <time>2026-02-22T13:56:56.188Z</time>
      </trkpt>
      <trkpt lat="44.19356" lon="0.59018">
        <ele>54</ele>
        <time>2026-02-22T13:56:57.188Z</time>
      </trkpt>
      <trkpt lat="44.19356" lon="0.59018">
        <ele>54</ele>
        <time>2026-02-22T13:56:58.188Z</time>
      </trkpt>
      <trkpt lat="44.19356" lon="0.59018">
        <ele>54</ele>
        <time>2026-02-22T13:56:59.188Z</time>
      </trkpt>
      <trkpt lat="44.19356" lon="0.59018">
        <ele>54</ele>
        <time>2026-02-22T13:57:00.189Z</time>
      </trkpt>
      <trkpt lat="44.19356" lon="0.59018">
        <ele>54</ele>
        <time>2026-02-22T13:57:01.188Z</time>
      </trkpt>
      <trkpt lat="44.19355" lon="0.59018">
        <ele>54</ele>
        <time>2026-02-22T13:57:02.188Z</time>
      </trkpt>
      <trkpt lat="44.19354" lon="0.59019">
        <ele>54</ele>
        <time>2026-02-22T13:57:03.188Z</time>
      </trkpt>
      <trkpt lat="44.19353" lon="0.59018">
        <ele>54</ele>
        <time>2026-02-22T13:57:04.188Z</time>
      </trkpt>
      <trkpt lat="44.19352" lon="0.59018">
        <ele>54</ele>
        <time>2026-02-22T13:57:05.188Z</time>
      </trkpt>
      <trkpt lat="44.19352" lon="0.59017">
        <ele>54</ele>
        <time>2026-02-22T13:57:06.188Z</time>
      </trkpt>
      <trkpt lat="44.19351" lon="0.59016">
        <ele>54</ele>
        <time>2026-02-22T13:57:07.188Z</time>
      </trkpt>
      <trkpt lat="44.1935" lon="0.59015">
        <ele>54</ele>
        <time>2026-02-22T13:57:08.188Z</time>
      </trkpt>
      <trkpt lat="44.1935" lon="0.59015">
        <ele>54</ele>
        <time>2026-02-22T13:57:09.188Z</time>
      </trkpt>
      <trkpt lat="44.1935" lon="0.59015">
        <ele>54</ele>
        <time>2026-02-22T13:57:10.188Z</time>
      </trkpt>
      <trkpt lat="44.1935" lon="0.59015">
        <ele>54</ele>
        <time>2026-02-22T13:57:11.188Z</time>
      </trkpt>
      <trkpt lat="44.1935" lon="0.59015">
        <ele>54</ele>
        <time>2026-02-22T13:57:12.188Z</time>
      </trkpt>
      <trkpt lat="44.1935" lon="0.59015">
        <ele>54</ele>
        <time>2026-02-22T13:57:13.188Z</time>
      </trkpt>
      <trkpt lat="44.1935" lon="0.59015">
        <ele>55</ele>
        <time>2026-02-22T13:57:14.188Z</time>
      </trkpt>
      <trkpt lat="44.1935" lon="0.59015">
        <ele>55</ele>
        <time>2026-02-22T13:57:15.188Z</time>
      </trkpt>
      <trkpt lat="44.1935" lon="0.59015">
        <ele>56</ele>
        <time>2026-02-22T13:57:16.188Z</time>
      </trkpt>
      <trkpt lat="44.1935" lon="0.59015">
        <ele>57</ele>
        <time>2026-02-22T13:57:17.188Z</time>
      </trkpt>
      <trkpt lat="44.1935" lon="0.59014">
        <ele>57</ele>
        <time>2026-02-22T13:57:18.188Z</time>
      </trkpt>
      <trkpt lat="44.1935" lon="0.59014">
        <ele>58</ele>
        <time>2026-02-22T13:57:19.188Z</time>
      </trkpt>
      <trkpt lat="44.1935" lon="0.59014">
        <ele>58</ele>
        <time>2026-02-22T13:57:20.188Z</time>
      </trkpt>
      <trkpt lat="44.1935" lon="0.59014">
        <ele>58</ele>
        <time>2026-02-22T13:57:21.188Z</time>
      </trkpt>
      <trkpt lat="44.1935" lon="0.59014">
        <ele>58</ele>
        <time>2026-02-22T13:57:22.188Z</time>
      </trkpt>
      <trkpt lat="44.19349" lon="0.59015">
        <ele>58</ele>
        <time>2026-02-22T13:57:23.188Z</time>
      </trkpt>
      <trkpt lat="44.19349" lon="0.59015">
        <ele>58</ele>
        <time>2026-02-22T13:57:24.188Z</time>
      </trkpt>
      <trkpt lat="44.19349" lon="0.59016">
        <ele>58</ele>
        <time>2026-02-22T13:57:25.188Z</time>
      </trkpt>
      <trkpt lat="44.19348" lon="0.59017">
        <ele>58</ele>
        <time>2026-02-22T13:57:26.188Z</time>
      </trkpt>
      <trkpt lat="44.19348" lon="0.59018">
        <ele>58</ele>
        <time>2026-02-22T13:57:27.188Z</time>
      </trkpt>
      <trkpt lat="44.19348" lon="0.5902">
        <ele>58</ele>
        <time>2026-02-22T13:57:28.188Z</time>
      </trkpt>
      <trkpt lat="44.19347" lon="0.59021">
        <ele>59</ele>
        <time>2026-02-22T13:57:29.188Z</time>
      </trkpt>
      <trkpt lat="44.19347" lon="0.59021">
        <ele>59</ele>
        <time>2026-02-22T13:57:30.188Z</time>
      </trkpt>
      <trkpt lat="44.19347" lon="0.59022">
        <ele>59</ele>
        <time>2026-02-22T13:57:31.188Z</time>
      </trkpt>
      <trkpt lat="44.19347" lon="0.59023">
        <ele>59</ele>
        <time>2026-02-22T13:57:32.188Z</time>
      </trkpt>
      <trkpt lat="44.19346" lon="0.59024">
        <ele>59</ele>
        <time>2026-02-22T13:57:33.188Z</time>
      </trkpt>
      <trkpt lat="44.19346" lon="0.59026">
        <ele>58</ele>
        <time>2026-02-22T13:57:34.188Z</time>
      </trkpt>
      <trkpt lat="44.19346" lon="0.59027">
        <ele>58</ele>
        <time>2026-02-22T13:57:35.188Z</time>
      </trkpt>
      <trkpt lat="44.19345" lon="0.5903">
        <ele>58</ele>
        <time>2026-02-22T13:57:36.188Z</time>
      </trkpt>
      <trkpt lat="44.19344" lon="0.59032">
        <ele>58</ele>
        <time>2026-02-22T13:57:37.188Z</time>
      </trkpt>
      <trkpt lat="44.19343" lon="0.59033">
        <ele>58</ele>
        <time>2026-02-22T13:57:38.188Z</time>
      </trkpt>
      <trkpt lat="44.19343" lon="0.59035">
        <ele>58</ele>
        <time>2026-02-22T13:57:39.188Z</time>
      </trkpt>
      <trkpt lat="44.19342" lon="0.59036">
        <ele>57</ele>
        <time>2026-02-22T13:57:40.189Z</time>
      </trkpt>
      <trkpt lat="44.19341" lon="0.59037">
        <ele>57</ele>
        <time>2026-02-22T13:57:41.188Z</time>
      </trkpt>
      <trkpt lat="44.1934" lon="0.59038">
        <ele>57</ele>
        <time>2026-02-22T13:57:42.188Z</time>
      </trkpt>
      <trkpt lat="44.19339" lon="0.59039">
        <ele>57</ele>
        <time>2026-02-22T13:57:43.189Z</time>
      </trkpt>
      <trkpt lat="44.19338" lon="0.5904">
        <ele>57</ele>
        <time>2026-02-22T13:57:44.188Z</time>
      </trkpt>
      <trkpt lat="44.19336" lon="0.5904">
        <ele>57</ele>
        <time>2026-02-22T13:57:45.188Z</time>
      </trkpt>
      <trkpt lat="44.19335" lon="0.59041">
        <ele>57</ele>
        <time>2026-02-22T13:57:46.188Z</time>
      </trkpt>
      <trkpt lat="44.19334" lon="0.59041">
        <ele>57</ele>
        <time>2026-02-22T13:57:47.188Z</time>
      </trkpt>
      <trkpt lat="44.19332" lon="0.59041">
        <ele>57</ele>
        <time>2026-02-22T13:57:48.188Z</time>
      </trkpt>
      <trkpt lat="44.19331" lon="0.59041">
        <ele>57</ele>
        <time>2026-02-22T13:57:49.188Z</time>
      </trkpt>
      <trkpt lat="44.1933" lon="0.59041">
        <ele>58</ele>
        <time>2026-02-22T13:57:50.188Z</time>
      </trkpt>
      <trkpt lat="44.19328" lon="0.59042">
        <ele>58</ele>
        <time>2026-02-22T13:57:51.188Z</time>
      </trkpt>
      <trkpt lat="44.19327" lon="0.59042">
        <ele>58</ele>
        <time>2026-02-22T13:57:52.188Z</time>
      </trkpt>
      <trkpt lat="44.19325" lon="0.59042">
        <ele>58</ele>
        <time>2026-02-22T13:57:53.188Z</time>
      </trkpt>
      <trkpt lat="44.19324" lon="0.59043">
        <ele>59</ele>
        <time>2026-02-22T13:57:54.188Z</time>
      </trkpt>
      <trkpt lat="44.19323" lon="0.59043">
        <ele>59</ele>
        <time>2026-02-22T13:57:55.188Z</time>
      </trkpt>
      <trkpt lat="44.19321" lon="0.59044">
        <ele>59</ele>
        <time>2026-02-22T13:57:56.189Z</time>
      </trkpt>
      <trkpt lat="44.1932" lon="0.59043">
        <ele>59</ele>
        <time>2026-02-22T13:57:57.188Z</time>
      </trkpt>
      <trkpt lat="44.19319" lon="0.59043">
        <ele>59</ele>
        <time>2026-02-22T13:57:58.189Z</time>
      </trkpt>
      <trkpt lat="44.19318" lon="0.59043">
        <ele>59</ele>
        <time>2026-02-22T13:57:59.188Z</time>
      </trkpt>
      <trkpt lat="44.19317" lon="0.59043">
        <ele>58</ele>
        <time>2026-02-22T13:58:00.188Z</time>
      </trkpt>
      <trkpt lat="44.19316" lon="0.59043">
        <ele>58</ele>
        <time>2026-02-22T13:58:01.188Z</time>
      </trkpt>
      <trkpt lat="44.19314" lon="0.59044">
        <ele>58</ele>
        <time>2026-02-22T13:58:02.188Z</time>
      </trkpt>
      <trkpt lat="44.19313" lon="0.59045">
        <ele>58</ele>
        <time>2026-02-22T13:58:03.188Z</time>
      </trkpt>
      <trkpt lat="44.19312" lon="0.59045">
        <ele>58</ele>
        <time>2026-02-22T13:58:04.188Z</time>
      </trkpt>
      <trkpt lat="44.19311" lon="0.59045">
        <ele>58</ele>
        <time>2026-02-22T13:58:05.188Z</time>
      </trkpt>
      <trkpt lat="44.1931" lon="0.59046">
        <ele>58</ele>
        <time>2026-02-22T13:58:06.188Z</time>
      </trkpt>
      <trkpt lat="44.19309" lon="0.59046">
        <ele>58</ele>
        <time>2026-02-22T13:58:07.188Z</time>
      </trkpt>
      <trkpt lat="44.19308" lon="0.59047">
        <ele>58</ele>
        <time>2026-02-22T13:58:08.188Z</time>
      </trkpt>
      <trkpt lat="44.19306" lon="0.59047">
        <ele>58</ele>
        <time>2026-02-22T13:58:09.188Z</time>
      </trkpt>
      <trkpt lat="44.19305" lon="0.59048">
        <ele>59</ele>
        <time>2026-02-22T13:58:10.188Z</time>
      </trkpt>
      <trkpt lat="44.19304" lon="0.59048">
        <ele>59</ele>
        <time>2026-02-22T13:58:11.188Z</time>
      </trkpt>
      <trkpt lat="44.19303" lon="0.59049">
        <ele>59</ele>
        <time>2026-02-22T13:58:12.188Z</time>
      </trkpt>
      <trkpt lat="44.19302" lon="0.5905">
        <ele>59</ele>
        <time>2026-02-22T13:58:13.188Z</time>
      </trkpt>
      <trkpt lat="44.19301" lon="0.59051">
        <ele>60</ele>
        <time>2026-02-22T13:58:14.188Z</time>
      </trkpt>
      <trkpt lat="44.193" lon="0.59052">
        <ele>60</ele>
        <time>2026-02-22T13:58:15.188Z</time>
      </trkpt>
      <trkpt lat="44.19298" lon="0.59053">
        <ele>60</ele>
        <time>2026-02-22T13:58:16.188Z</time>
      </trkpt>
      <trkpt lat="44.19297" lon="0.59053">
        <ele>60</ele>
        <time>2026-02-22T13:58:17.188Z</time>
      </trkpt>
      <trkpt lat="44.19296" lon="0.59054">
        <ele>61</ele>
        <time>2026-02-22T13:58:18.188Z</time>
      </trkpt>
      <trkpt lat="44.19295" lon="0.59055">
        <ele>61</ele>
        <time>2026-02-22T13:58:19.188Z</time>
      </trkpt>
      <trkpt lat="44.19294" lon="0.59056">
        <ele>61</ele>
        <time>2026-02-22T13:58:20.188Z</time>
      </trkpt>
      <trkpt lat="44.19293" lon="0.59056">
        <ele>61</ele>
        <time>2026-02-22T13:58:21.188Z</time>
      </trkpt>
      <trkpt lat="44.19291" lon="0.59057">
        <ele>61</ele>
        <time>2026-02-22T13:58:22.188Z</time>
      </trkpt>
      <trkpt lat="44.1929" lon="0.59057">
        <ele>61</ele>
        <time>2026-02-22T13:58:23.188Z</time>
      </trkpt>
      <trkpt lat="44.19289" lon="0.59058">
        <ele>61</ele>
        <time>2026-02-22T13:58:24.189Z</time>
      </trkpt>
      <trkpt lat="44.19288" lon="0.59058">
        <ele>61</ele>
        <time>2026-02-22T13:58:25.188Z</time>
      </trkpt>
      <trkpt lat="44.19287" lon="0.59058">
        <ele>61</ele>
        <time>2026-02-22T13:58:26.188Z</time>
      </trkpt>
      <trkpt lat="44.19286" lon="0.59058">
        <ele>61</ele>
        <time>2026-02-22T13:58:27.188Z</time>
      </trkpt>
      <trkpt lat="44.19285" lon="0.59058">
        <ele>61</ele>
        <time>2026-02-22T13:58:28.188Z</time>
      </trkpt>
      <trkpt lat="44.19284" lon="0.59058">
        <ele>61</ele>
        <time>2026-02-22T13:58:29.188Z</time>
      </trkpt>
      <trkpt lat="44.19282" lon="0.59059">
        <ele>61</ele>
        <time>2026-02-22T13:58:30.188Z</time>
      </trkpt>
      <trkpt lat="44.19281" lon="0.59059">
        <ele>61</ele>
        <time>2026-02-22T13:58:31.188Z</time>
      </trkpt>
      <trkpt lat="44.1928" lon="0.59059">
        <ele>61</ele>
        <time>2026-02-22T13:58:32.189Z</time>
      </trkpt>
      <trkpt lat="44.19278" lon="0.59059">
        <ele>61</ele>
        <time>2026-02-22T13:58:33.189Z</time>
      </trkpt>
      <trkpt lat="44.19277" lon="0.59059">
        <ele>61</ele>
        <time>2026-02-22T13:58:34.189Z</time>
      </trkpt>
      <trkpt lat="44.19276" lon="0.59059">
        <ele>61</ele>
        <time>2026-02-22T13:58:35.188Z</time>
      </trkpt>
      <trkpt lat="44.19274" lon="0.59059">
        <ele>61</ele>
        <time>2026-02-22T13:58:36.188Z</time>
      </trkpt>
      <trkpt lat="44.19273" lon="0.59058">
        <ele>60</ele>
        <time>2026-02-22T13:58:37.188Z</time>
      </trkpt>
      <trkpt lat="44.19271" lon="0.59058">
        <ele>61</ele>
        <time>2026-02-22T13:58:38.188Z</time>
      </trkpt>
      <trkpt lat="44.1927" lon="0.59058">
        <ele>61</ele>
        <time>2026-02-22T13:58:39.188Z</time>
      </trkpt>
      <trkpt lat="44.19269" lon="0.59058">
        <ele>61</ele>
        <time>2026-02-22T13:58:40.188Z</time>
      </trkpt>
      <trkpt lat="44.19268" lon="0.59057">
        <ele>60</ele>
        <time>2026-02-22T13:58:41.189Z</time>
      </trkpt>
      <trkpt lat="44.19267" lon="0.59056">
        <ele>60</ele>
        <time>2026-02-22T13:58:42.188Z</time>
      </trkpt>
      <trkpt lat="44.19266" lon="0.59056">
        <ele>60</ele>
        <time>2026-02-22T13:58:43.188Z</time>
      </trkpt>
      <trkpt lat="44.19265" lon="0.59055">
        <ele>60</ele>
        <time>2026-02-22T13:58:44.188Z</time>
      </trkpt>
      <trkpt lat="44.19264" lon="0.59054">
        <ele>60</ele>
        <time>2026-02-22T13:58:45.188Z</time>
      </trkpt>
      <trkpt lat="44.19262" lon="0.59054">
        <ele>60</ele>
        <time>2026-02-22T13:58:46.188Z</time>
      </trkpt>
      <trkpt lat="44.19261" lon="0.59052">
        <ele>60</ele>
        <time>2026-02-22T13:58:47.188Z</time>
      </trkpt>
      <trkpt lat="44.1926" lon="0.59051">
        <ele>59</ele>
        <time>2026-02-22T13:58:48.188Z</time>
      </trkpt>
      <trkpt lat="44.19259" lon="0.5905">
        <ele>59</ele>
        <time>2026-02-22T13:58:49.188Z</time>
      </trkpt>
      <trkpt lat="44.19258" lon="0.59048">
        <ele>60</ele>
        <time>2026-02-22T13:58:50.188Z</time>
      </trkpt>
      <trkpt lat="44.19257" lon="0.59047">
        <ele>60</ele>
        <time>2026-02-22T13:58:51.188Z</time>
      </trkpt>
      <trkpt lat="44.19257" lon="0.59047">
        <ele>60</ele>
        <time>2026-02-22T13:58:52.188Z</time>
      </trkpt>
      <trkpt lat="44.19257" lon="0.59047">
        <ele>60</ele>
        <time>2026-02-22T13:58:53.188Z</time>
      </trkpt>
      <trkpt lat="44.19257" lon="0.59048">
        <ele>60</ele>
        <time>2026-02-22T13:58:54.188Z</time>
      </trkpt>
      <trkpt lat="44.19257" lon="0.59048">
        <ele>60</ele>
        <time>2026-02-22T13:58:55.188Z</time>
      </trkpt>
      <trkpt lat="44.19258" lon="0.59049">
        <ele>60</ele>
        <time>2026-02-22T13:58:56.189Z</time>
      </trkpt>
      <trkpt lat="44.19258" lon="0.59051">
        <ele>60</ele>
        <time>2026-02-22T13:58:57.188Z</time>
      </trkpt>
      <trkpt lat="44.19259" lon="0.59053">
        <ele>60</ele>
        <time>2026-02-22T13:58:58.188Z</time>
      </trkpt>
      <trkpt lat="44.19259" lon="0.59055">
        <ele>60</ele>
        <time>2026-02-22T13:58:59.188Z</time>
      </trkpt>
      <trkpt lat="44.1926" lon="0.59056">
        <ele>60</ele>
        <time>2026-02-22T13:59:00.188Z</time>
      </trkpt>
      <trkpt lat="44.19259" lon="0.59057">
        <ele>60</ele>
        <time>2026-02-22T13:59:01.188Z</time>
      </trkpt>
      <trkpt lat="44.19259" lon="0.59058">
        <ele>60</ele>
        <time>2026-02-22T13:59:02.188Z</time>
      </trkpt>
      <trkpt lat="44.19258" lon="0.59059">
        <ele>60</ele>
        <time>2026-02-22T13:59:03.188Z</time>
      </trkpt>
      <trkpt lat="44.19257" lon="0.5906">
        <ele>60</ele>
        <time>2026-02-22T13:59:04.188Z</time>
      </trkpt>
      <trkpt lat="44.19257" lon="0.5906">
        <ele>60</ele>
        <time>2026-02-22T13:59:05.188Z</time>
      </trkpt>
      <trkpt lat="44.19255" lon="0.59061">
        <ele>60</ele>
        <time>2026-02-22T13:59:06.188Z</time>
      </trkpt>
      <trkpt lat="44.19254" lon="0.59062">
        <ele>60</ele>
        <time>2026-02-22T13:59:07.188Z</time>
      </trkpt>
      <trkpt lat="44.19254" lon="0.59063">
        <ele>61</ele>
        <time>2026-02-22T13:59:08.188Z</time>
      </trkpt>
      <trkpt lat="44.19253" lon="0.59063">
        <ele>60</ele>
        <time>2026-02-22T13:59:09.189Z</time>
      </trkpt>
      <trkpt lat="44.19252" lon="0.59065">
        <ele>60</ele>
        <time>2026-02-22T13:59:10.189Z</time>
      </trkpt>
      <trkpt lat="44.19251" lon="0.59066">
        <ele>60</ele>
        <time>2026-02-22T13:59:11.188Z</time>
      </trkpt>
      <trkpt lat="44.1925" lon="0.59067">
        <ele>60</ele>
        <time>2026-02-22T13:59:12.188Z</time>
      </trkpt>
      <trkpt lat="44.19249" lon="0.59068">
        <ele>59</ele>
        <time>2026-02-22T13:59:13.188Z</time>
      </trkpt>
      <trkpt lat="44.19248" lon="0.59069">
        <ele>59</ele>
        <time>2026-02-22T13:59:14.188Z</time>
      </trkpt>
      <trkpt lat="44.19247" lon="0.5907">
        <ele>59</ele>
        <time>2026-02-22T13:59:15.188Z</time>
      </trkpt>
      <trkpt lat="44.19246" lon="0.59071">
        <ele>59</ele>
        <time>2026-02-22T13:59:16.188Z</time>
      </trkpt>
      <trkpt lat="44.19245" lon="0.59072">
        <ele>59</ele>
        <time>2026-02-22T13:59:17.188Z</time>
      </trkpt>
      <trkpt lat="44.19245" lon="0.59073">
        <ele>59</ele>
        <time>2026-02-22T13:59:18.188Z</time>
      </trkpt>
      <trkpt lat="44.19244" lon="0.59074">
        <ele>59</ele>
        <time>2026-02-22T13:59:19.188Z</time>
      </trkpt>
      <trkpt lat="44.19243" lon="0.59074">
        <ele>59</ele>
        <time>2026-02-22T13:59:20.188Z</time>
      </trkpt>
      <trkpt lat="44.19242" lon="0.59074">
        <ele>59</ele>
        <time>2026-02-22T13:59:21.188Z</time>
      </trkpt>
      <trkpt lat="44.19242" lon="0.59075">
        <ele>59</ele>
        <time>2026-02-22T13:59:22.188Z</time>
      </trkpt>
      <trkpt lat="44.19241" lon="0.59075">
        <ele>58</ele>
        <time>2026-02-22T13:59:23.188Z</time>
      </trkpt>
      <trkpt lat="44.1924" lon="0.59075">
        <ele>58</ele>
        <time>2026-02-22T13:59:24.188Z</time>
      </trkpt>
      <trkpt lat="44.19239" lon="0.59075">
        <ele>58</ele>
        <time>2026-02-22T13:59:25.188Z</time>
      </trkpt>
      <trkpt lat="44.19238" lon="0.59076">
        <ele>58</ele>
        <time>2026-02-22T13:59:26.189Z</time>
      </trkpt>
      <trkpt lat="44.19237" lon="0.59076">
        <ele>58</ele>
        <time>2026-02-22T13:59:27.188Z</time>
      </trkpt>
      <trkpt lat="44.19236" lon="0.59076">
        <ele>58</ele>
        <time>2026-02-22T13:59:28.188Z</time>
      </trkpt>
      <trkpt lat="44.19235" lon="0.59076">
        <ele>57</ele>
        <time>2026-02-22T13:59:29.188Z</time>
      </trkpt>
      <trkpt lat="44.19233" lon="0.59077">
        <ele>57</ele>
        <time>2026-02-22T13:59:30.188Z</time>
      </trkpt>
      <trkpt lat="44.19232" lon="0.59077">
        <ele>57</ele>
        <time>2026-02-22T13:59:31.188Z</time>
      </trkpt>
      <trkpt lat="44.19231" lon="0.59077">
        <ele>57</ele>
        <time>2026-02-22T13:59:32.188Z</time>
      </trkpt>
      <trkpt lat="44.1923" lon="0.59078">
        <ele>57</ele>
        <time>2026-02-22T13:59:33.188Z</time>
      </trkpt>
      <trkpt lat="44.19229" lon="0.59078">
        <ele>57</ele>
        <time>2026-02-22T13:59:34.188Z</time>
      </trkpt>
      <trkpt lat="44.19228" lon="0.59078">
        <ele>57</ele>
        <time>2026-02-22T13:59:35.188Z</time>
      </trkpt>
      <trkpt lat="44.19227" lon="0.59078">
        <ele>57</ele>
        <time>2026-02-22T13:59:36.188Z</time>
      </trkpt>
      <trkpt lat="44.19226" lon="0.59079">
        <ele>57</ele>
        <time>2026-02-22T13:59:37.188Z</time>
      </trkpt>
      <trkpt lat="44.19224" lon="0.59079">
        <ele>57</ele>
        <time>2026-02-22T13:59:38.188Z</time>
      </trkpt>
      <trkpt lat="44.19223" lon="0.59079">
        <ele>57</ele>
        <time>2026-02-22T13:59:39.188Z</time>
      </trkpt>
      <trkpt lat="44.19222" lon="0.5908">
        <ele>57</ele>
        <time>2026-02-22T13:59:40.188Z</time>
      </trkpt>
      <trkpt lat="44.19221" lon="0.5908">
        <ele>58</ele>
        <time>2026-02-22T13:59:41.188Z</time>
      </trkpt>
      <trkpt lat="44.1922" lon="0.59079">
        <ele>58</ele>
        <time>2026-02-22T13:59:42.188Z</time>
      </trkpt>
      <trkpt lat="44.19219" lon="0.5908">
        <ele>58</ele>
        <time>2026-02-22T13:59:43.189Z</time>
      </trkpt>
      <trkpt lat="44.19218" lon="0.5908">
        <ele>58</ele>
        <time>2026-02-22T13:59:44.189Z</time>
      </trkpt>
      <trkpt lat="44.19216" lon="0.5908">
        <ele>58</ele>
        <time>2026-02-22T13:59:45.188Z</time>
      </trkpt>
      <trkpt lat="44.19215" lon="0.5908">
        <ele>58</ele>
        <time>2026-02-22T13:59:46.189Z</time>
      </trkpt>
      <trkpt lat="44.19214" lon="0.5908">
        <ele>58</ele>
        <time>2026-02-22T13:59:47.188Z</time>
      </trkpt>
      <trkpt lat="44.19213" lon="0.59081">
        <ele>58</ele>
        <time>2026-02-22T13:59:48.188Z</time>
      </trkpt>
      <trkpt lat="44.19211" lon="0.59081">
        <ele>58</ele>
        <time>2026-02-22T13:59:49.188Z</time>
      </trkpt>
      <trkpt lat="44.1921" lon="0.59081">
        <ele>58</ele>
        <time>2026-02-22T13:59:50.188Z</time>
      </trkpt>
      <trkpt lat="44.19209" lon="0.59081">
        <ele>58</ele>
        <time>2026-02-22T13:59:51.188Z</time>
      </trkpt>
      <trkpt lat="44.19208" lon="0.59081">
        <ele>57</ele>
        <time>2026-02-22T13:59:52.188Z</time>
      </trkpt>
      <trkpt lat="44.19207" lon="0.5908">
        <ele>57</ele>
        <time>2026-02-22T13:59:53.188Z</time>
      </trkpt>
      <trkpt lat="44.19206" lon="0.59079">
        <ele>57</ele>
        <time>2026-02-22T13:59:54.188Z</time>
      </trkpt>
      <trkpt lat="44.19205" lon="0.59078">
        <ele>57</ele>
        <time>2026-02-22T13:59:55.188Z</time>
      </trkpt>
      <trkpt lat="44.19204" lon="0.59076">
        <ele>57</ele>
        <time>2026-02-22T13:59:56.188Z</time>
      </trkpt>
      <trkpt lat="44.19203" lon="0.59075">
        <ele>57</ele>
        <time>2026-02-22T13:59:57.188Z</time>
      </trkpt>
      <trkpt lat="44.19202" lon="0.59073">
        <ele>57</ele>
        <time>2026-02-22T13:59:58.188Z</time>
      </trkpt>
      <trkpt lat="44.19201" lon="0.59072">
        <ele>57</ele>
        <time>2026-02-22T13:59:59.188Z</time>
      </trkpt>
      <trkpt lat="44.19201" lon="0.59071">
        <ele>57</ele>
        <time>2026-02-22T14:00:00.188Z</time>
      </trkpt>
      <trkpt lat="44.192" lon="0.59069">
        <ele>57</ele>
        <time>2026-02-22T14:00:01.188Z</time>
      </trkpt>
      <trkpt lat="44.19199" lon="0.59068">
        <ele>57</ele>
        <time>2026-02-22T14:00:02.188Z</time>
      </trkpt>
      <trkpt lat="44.19198" lon="0.59067">
        <ele>57</ele>
        <time>2026-02-22T14:00:03.188Z</time>
      </trkpt>
      <trkpt lat="44.19198" lon="0.59066">
        <ele>57</ele>
        <time>2026-02-22T14:00:04.188Z</time>
      </trkpt>
      <trkpt lat="44.19197" lon="0.59064">
        <ele>57</ele>
        <time>2026-02-22T14:00:05.188Z</time>
      </trkpt>
      <trkpt lat="44.19196" lon="0.59063">
        <ele>57</ele>
        <time>2026-02-22T14:00:06.188Z</time>
      </trkpt>
      <trkpt lat="44.19195" lon="0.59062">
        <ele>57</ele>
        <time>2026-02-22T14:00:07.188Z</time>
      </trkpt>
      <trkpt lat="44.19194" lon="0.5906">
        <ele>57</ele>
        <time>2026-02-22T14:00:08.188Z</time>
      </trkpt>
      <trkpt lat="44.19194" lon="0.59059">
        <ele>57</ele>
        <time>2026-02-22T14:00:09.188Z</time>
      </trkpt>
      <trkpt lat="44.19193" lon="0.59058">
        <ele>57</ele>
        <time>2026-02-22T14:00:10.188Z</time>
      </trkpt>
      <trkpt lat="44.19193" lon="0.59056">
        <ele>57</ele>
        <time>2026-02-22T14:00:11.188Z</time>
      </trkpt>
      <trkpt lat="44.19192" lon="0.59055">
        <ele>57</ele>
        <time>2026-02-22T14:00:12.188Z</time>
      </trkpt>
      <trkpt lat="44.19191" lon="0.59053">
        <ele>57</ele>
        <time>2026-02-22T14:00:13.189Z</time>
      </trkpt>
      <trkpt lat="44.19191" lon="0.59052">
        <ele>57</ele>
        <time>2026-02-22T14:00:14.188Z</time>
      </trkpt>
      <trkpt lat="44.19191" lon="0.59051">
        <ele>57</ele>
        <time>2026-02-22T14:00:15.188Z</time>
      </trkpt>
      <trkpt lat="44.19191" lon="0.59051">
        <ele>57</ele>
        <time>2026-02-22T14:00:16.188Z</time>
      </trkpt>
      <trkpt lat="44.19191" lon="0.59051">
        <ele>57</ele>
        <time>2026-02-22T14:00:17.188Z</time>
      </trkpt>
      <trkpt lat="44.19191" lon="0.5905">
        <ele>58</ele>
        <time>2026-02-22T14:00:18.188Z</time>
      </trkpt>
      <trkpt lat="44.19191" lon="0.5905">
        <ele>58</ele>
        <time>2026-02-22T14:00:19.188Z</time>
      </trkpt>
      <trkpt lat="44.19191" lon="0.5905">
        <ele>58</ele>
        <time>2026-02-22T14:00:20.189Z</time>
      </trkpt>
      <trkpt lat="44.19192" lon="0.5905">
        <ele>58</ele>
        <time>2026-02-22T14:00:21.188Z</time>
      </trkpt>
      <trkpt lat="44.19192" lon="0.5905">
        <ele>59</ele>
        <time>2026-02-22T14:00:22.188Z</time>
      </trkpt>
      <trkpt lat="44.19192" lon="0.59049">
        <ele>59</ele>
        <time>2026-02-22T14:00:23.188Z</time>
      </trkpt>
      <trkpt lat="44.19192" lon="0.59049">
        <ele>59</ele>
        <time>2026-02-22T14:00:24.188Z</time>
      </trkpt>
      <trkpt lat="44.19192" lon="0.59049">
        <ele>59</ele>
        <time>2026-02-22T14:00:25.188Z</time>
      </trkpt>
      <trkpt lat="44.19192" lon="0.59049">
        <ele>59</ele>
        <time>2026-02-22T14:00:26.188Z</time>
      </trkpt>
      <trkpt lat="44.19192" lon="0.59049">
        <ele>59</ele>
        <time>2026-02-22T14:00:27.188Z</time>
      </trkpt>
      <trkpt lat="44.19192" lon="0.59049">
        <ele>59</ele>
        <time>2026-02-22T14:00:28.188Z</time>
      </trkpt>
      <trkpt lat="44.19192" lon="0.59049">
        <ele>59</ele>
        <time>2026-02-22T14:00:29.188Z</time>
      </trkpt>
      <trkpt lat="44.19192" lon="0.59049">
        <ele>59</ele>
        <time>2026-02-22T14:00:30.188Z</time>
      </trkpt>
      <trkpt lat="44.19192" lon="0.59049">
        <ele>59</ele>
        <time>2026-02-22T14:00:31.188Z</time>
      </trkpt>
      <trkpt lat="44.19192" lon="0.59049">
        <ele>59</ele>
        <time>2026-02-22T14:00:32.188Z</time>
      </trkpt>
      <trkpt lat="44.19192" lon="0.59049">
        <ele>58</ele>
        <time>2026-02-22T14:00:33.188Z</time>
      </trkpt>
      <trkpt lat="44.19192" lon="0.5905">
        <ele>58</ele>
        <time>2026-02-22T14:00:34.188Z</time>
      </trkpt>
      <trkpt lat="44.19192" lon="0.5905">
        <ele>58</ele>
        <time>2026-02-22T14:00:35.188Z</time>
      </trkpt>
      <trkpt lat="44.19192" lon="0.59049">
        <ele>58</ele>
        <time>2026-02-22T14:00:36.188Z</time>
      </trkpt>
      <trkpt lat="44.19192" lon="0.5905">
        <ele>58</ele>
        <time>2026-02-22T14:00:37.188Z</time>
      </trkpt>
      <trkpt lat="44.19191" lon="0.5905">
        <ele>58</ele>
        <time>2026-02-22T14:00:38.188Z</time>
      </trkpt>
      <trkpt lat="44.19191" lon="0.5905">
        <ele>58</ele>
        <time>2026-02-22T14:00:39.188Z</time>
      </trkpt>
      <trkpt lat="44.19192" lon="0.5905">
        <ele>58</ele>
        <time>2026-02-22T14:00:40.188Z</time>
      </trkpt>
      <trkpt lat="44.19191" lon="0.5905">
        <ele>58</ele>
        <time>2026-02-22T14:00:41.188Z</time>
      </trkpt>
      <trkpt lat="44.19191" lon="0.5905">
        <ele>58</ele>
        <time>2026-02-22T14:00:42.188Z</time>
      </trkpt>
      <trkpt lat="44.19191" lon="0.5905">
        <ele>58</ele>
        <time>2026-02-22T14:00:43.188Z</time>
      </trkpt>
      <trkpt lat="44.19191" lon="0.5905">
        <ele>57</ele>
        <time>2026-02-22T14:00:44.188Z</time>
      </trkpt>
      <trkpt lat="44.19191" lon="0.5905">
        <ele>57</ele>
        <time>2026-02-22T14:00:45.188Z</time>
      </trkpt>
      <trkpt lat="44.19191" lon="0.5905">
        <ele>57</ele>
        <time>2026-02-22T14:00:46.188Z</time>
      </trkpt>
      <trkpt lat="44.19191" lon="0.5905">
        <ele>57</ele>
        <time>2026-02-22T14:00:47.188Z</time>
      </trkpt>
      <trkpt lat="44.19191" lon="0.5905">
        <ele>57</ele>
        <time>2026-02-22T14:00:48.188Z</time>
      </trkpt>
      <trkpt lat="44.19191" lon="0.5905">
        <ele>57</ele>
        <time>2026-02-22T14:00:49.188Z</time>
      </trkpt>
      <trkpt lat="44.19191" lon="0.59051">
        <ele>57</ele>
        <time>2026-02-22T14:00:50.188Z</time>
      </trkpt>
      <trkpt lat="44.1919" lon="0.59051">
        <ele>57</ele>
        <time>2026-02-22T14:00:51.188Z</time>
      </trkpt>
      <trkpt lat="44.1919" lon="0.59051">
        <ele>58</ele>
        <time>2026-02-22T14:00:52.188Z</time>
      </trkpt>
      <trkpt lat="44.1919" lon="0.59051">
        <ele>58</ele>
        <time>2026-02-22T14:00:53.188Z</time>
      </trkpt>
      <trkpt lat="44.1919" lon="0.59051">
        <ele>58</ele>
        <time>2026-02-22T14:00:54.188Z</time>
      </trkpt>
      <trkpt lat="44.19189" lon="0.59052">
        <ele>58</ele>
        <time>2026-02-22T14:00:55.188Z</time>
      </trkpt>
      <trkpt lat="44.19189" lon="0.59052">
        <ele>58</ele>
        <time>2026-02-22T14:00:56.189Z</time>
      </trkpt>
      <trkpt lat="44.19189" lon="0.59053">
        <ele>58</ele>
        <time>2026-02-22T14:00:57.189Z</time>
      </trkpt>
      <trkpt lat="44.19189" lon="0.59053">
        <ele>58</ele>
        <time>2026-02-22T14:00:58.188Z</time>
      </trkpt>
      <trkpt lat="44.19189" lon="0.59053">
        <ele>58</ele>
        <time>2026-02-22T14:00:59.188Z</time>
      </trkpt>
      <trkpt lat="44.19189" lon="0.59053">
        <ele>58</ele>
        <time>2026-02-22T14:01:00.188Z</time>
      </trkpt>
      <trkpt lat="44.19188" lon="0.59054">
        <ele>58</ele>
        <time>2026-02-22T14:01:01.188Z</time>
      </trkpt>
      <trkpt lat="44.19187" lon="0.59054">
        <ele>59</ele>
        <time>2026-02-22T14:01:02.188Z</time>
      </trkpt>
      <trkpt lat="44.19186" lon="0.59055">
        <ele>58</ele>
        <time>2026-02-22T14:01:03.188Z</time>
      </trkpt>
      <trkpt lat="44.19185" lon="0.59056">
        <ele>58</ele>
        <time>2026-02-22T14:01:04.188Z</time>
      </trkpt>
      <trkpt lat="44.19184" lon="0.59057">
        <ele>58</ele>
        <time>2026-02-22T14:01:05.188Z</time>
      </trkpt>
      <trkpt lat="44.19183" lon="0.59058">
        <ele>58</ele>
        <time>2026-02-22T14:01:06.188Z</time>
      </trkpt>
      <trkpt lat="44.19182" lon="0.59058">
        <ele>58</ele>
        <time>2026-02-22T14:01:07.188Z</time>
      </trkpt>
      <trkpt lat="44.19181" lon="0.59059">
        <ele>58</ele>
        <time>2026-02-22T14:01:08.188Z</time>
      </trkpt>
      <trkpt lat="44.1918" lon="0.5906">
        <ele>57</ele>
        <time>2026-02-22T14:01:09.188Z</time>
      </trkpt>
      <trkpt lat="44.19179" lon="0.59061">
        <ele>57</ele>
        <time>2026-02-22T14:01:10.188Z</time>
      </trkpt>
      <trkpt lat="44.19178" lon="0.59061">
        <ele>57</ele>
        <time>2026-02-22T14:01:11.188Z</time>
      </trkpt>
      <trkpt lat="44.19177" lon="0.59062">
        <ele>57</ele>
        <time>2026-02-22T14:01:12.188Z</time>
      </trkpt>
      <trkpt lat="44.19176" lon="0.59062">
        <ele>57</ele>
        <time>2026-02-22T14:01:13.188Z</time>
      </trkpt>
      <trkpt lat="44.19175" lon="0.59062">
        <ele>57</ele>
        <time>2026-02-22T14:01:14.188Z</time>
      </trkpt>
      <trkpt lat="44.19174" lon="0.59063">
        <ele>57</ele>
        <time>2026-02-22T14:01:15.189Z</time>
      </trkpt>
      <trkpt lat="44.19173" lon="0.59064">
        <ele>57</ele>
        <time>2026-02-22T14:01:16.188Z</time>
      </trkpt>
      <trkpt lat="44.19172" lon="0.59064">
        <ele>56</ele>
        <time>2026-02-22T14:01:17.188Z</time>
      </trkpt>
      <trkpt lat="44.19171" lon="0.59064">
        <ele>56</ele>
        <time>2026-02-22T14:01:18.188Z</time>
      </trkpt>
      <trkpt lat="44.1917" lon="0.59065">
        <ele>56</ele>
        <time>2026-02-22T14:01:19.188Z</time>
      </trkpt>
      <trkpt lat="44.1917" lon="0.59065">
        <ele>57</ele>
        <time>2026-02-22T14:01:20.188Z</time>
      </trkpt>
      <trkpt lat="44.19169" lon="0.59066">
        <ele>57</ele>
        <time>2026-02-22T14:01:21.188Z</time>
      </trkpt>
      <trkpt lat="44.19169" lon="0.59066">
        <ele>57</ele>
        <time>2026-02-22T14:01:22.188Z</time>
      </trkpt>
      <trkpt lat="44.19168" lon="0.59066">
        <ele>57</ele>
        <time>2026-02-22T14:01:23.188Z</time>
      </trkpt>
      <trkpt lat="44.19168" lon="0.59066">
        <ele>57</ele>
        <time>2026-02-22T14:01:24.188Z</time>
      </trkpt>
      <trkpt lat="44.19168" lon="0.59066">
        <ele>57</ele>
        <time>2026-02-22T14:01:25.188Z</time>
      </trkpt>
      <trkpt lat="44.19168" lon="0.59066">
        <ele>57</ele>
        <time>2026-02-22T14:01:26.188Z</time>
      </trkpt>
      <trkpt lat="44.19168" lon="0.59066">
        <ele>57</ele>
        <time>2026-02-22T14:01:27.188Z</time>
      </trkpt>
      <trkpt lat="44.19167" lon="0.59067">
        <ele>58</ele>
        <time>2026-02-22T14:01:28.188Z</time>
      </trkpt>
      <trkpt lat="44.19167" lon="0.59067">
        <ele>58</ele>
        <time>2026-02-22T14:01:29.188Z</time>
      </trkpt>
      <trkpt lat="44.19166" lon="0.59068">
        <ele>58</ele>
        <time>2026-02-22T14:01:30.189Z</time>
      </trkpt>
      <trkpt lat="44.19166" lon="0.59068">
        <ele>58</ele>
        <time>2026-02-22T14:01:31.188Z</time>
      </trkpt>
      <trkpt lat="44.19166" lon="0.59068">
        <ele>58</ele>
        <time>2026-02-22T14:01:32.189Z</time>
      </trkpt>
      <trkpt lat="44.19165" lon="0.59069">
        <ele>58</ele>
        <time>2026-02-22T14:01:33.189Z</time>
      </trkpt>
      <trkpt lat="44.19165" lon="0.59069">
        <ele>58</ele>
        <time>2026-02-22T14:01:34.189Z</time>
      </trkpt>
      <trkpt lat="44.19164" lon="0.59071">
        <ele>58</ele>
        <time>2026-02-22T14:01:35.188Z</time>
      </trkpt>
      <trkpt lat="44.19163" lon="0.59072">
        <ele>59</ele>
        <time>2026-02-22T14:01:36.188Z</time>
      </trkpt>
      <trkpt lat="44.19162" lon="0.59073">
        <ele>59</ele>
        <time>2026-02-22T14:01:37.188Z</time>
      </trkpt>
      <trkpt lat="44.19161" lon="0.59074">
        <ele>59</ele>
        <time>2026-02-22T14:01:38.188Z</time>
      </trkpt>
      <trkpt lat="44.19161" lon="0.59075">
        <ele>58</ele>
        <time>2026-02-22T14:01:39.188Z</time>
      </trkpt>
      <trkpt lat="44.1916" lon="0.59076">
        <ele>58</ele>
        <time>2026-02-22T14:01:40.188Z</time>
      </trkpt>
      <trkpt lat="44.19159" lon="0.59077">
        <ele>58</ele>
        <time>2026-02-22T14:01:41.188Z</time>
      </trkpt>
      <trkpt lat="44.19158" lon="0.59078">
        <ele>58</ele>
        <time>2026-02-22T14:01:42.188Z</time>
      </trkpt>
      <trkpt lat="44.19157" lon="0.59079">
        <ele>58</ele>
        <time>2026-02-22T14:01:43.188Z</time>
      </trkpt>
      <trkpt lat="44.19156" lon="0.5908">
        <ele>58</ele>
        <time>2026-02-22T14:01:44.188Z</time>
      </trkpt>
      <trkpt lat="44.19155" lon="0.59081">
        <ele>58</ele>
        <time>2026-02-22T14:01:45.188Z</time>
      </trkpt>
      <trkpt lat="44.19154" lon="0.59082">
        <ele>58</ele>
        <time>2026-02-22T14:01:46.188Z</time>
      </trkpt>
      <trkpt lat="44.19153" lon="0.59083">
        <ele>58</ele>
        <time>2026-02-22T14:01:47.188Z</time>
      </trkpt>
      <trkpt lat="44.19152" lon="0.59084">
        <ele>57</ele>
        <time>2026-02-22T14:01:48.188Z</time>
      </trkpt>
      <trkpt lat="44.19151" lon="0.59085">
        <ele>57</ele>
        <time>2026-02-22T14:01:49.188Z</time>
      </trkpt>
      <trkpt lat="44.1915" lon="0.59085">
        <ele>57</ele>
        <time>2026-02-22T14:01:50.188Z</time>
      </trkpt>
      <trkpt lat="44.19149" lon="0.59086">
        <ele>57</ele>
        <time>2026-02-22T14:01:51.188Z</time>
      </trkpt>
      <trkpt lat="44.19148" lon="0.59088">
        <ele>57</ele>
        <time>2026-02-22T14:01:52.188Z</time>
      </trkpt>
      <trkpt lat="44.19147" lon="0.59089">
        <ele>57</ele>
        <time>2026-02-22T14:01:53.188Z</time>
      </trkpt>
      <trkpt lat="44.19146" lon="0.5909">
        <ele>57</ele>
        <time>2026-02-22T14:01:54.188Z</time>
      </trkpt>
      <trkpt lat="44.19144" lon="0.59091">
        <ele>57</ele>
        <time>2026-02-22T14:01:55.188Z</time>
      </trkpt>
      <trkpt lat="44.19144" lon="0.59091">
        <ele>57</ele>
        <time>2026-02-22T14:01:56.188Z</time>
      </trkpt>
      <trkpt lat="44.19142" lon="0.59092">
        <ele>56</ele>
        <time>2026-02-22T14:01:57.188Z</time>
      </trkpt>
      <trkpt lat="44.19141" lon="0.59092">
        <ele>56</ele>
        <time>2026-02-22T14:01:58.188Z</time>
      </trkpt>
      <trkpt lat="44.1914" lon="0.59093">
        <ele>56</ele>
        <time>2026-02-22T14:01:59.188Z</time>
      </trkpt>
      <trkpt lat="44.19139" lon="0.59094">
        <ele>56</ele>
        <time>2026-02-22T14:02:00.188Z</time>
      </trkpt>
      <trkpt lat="44.19137" lon="0.59094">
        <ele>56</ele>
        <time>2026-02-22T14:02:01.188Z</time>
      </trkpt>
      <trkpt lat="44.19136" lon="0.59095">
        <ele>56</ele>
        <time>2026-02-22T14:02:02.188Z</time>
      </trkpt>
      <trkpt lat="44.19135" lon="0.59095">
        <ele>56</ele>
        <time>2026-02-22T14:02:03.188Z</time>
      </trkpt>
      <trkpt lat="44.19134" lon="0.59096">
        <ele>56</ele>
        <time>2026-02-22T14:02:04.188Z</time>
      </trkpt>
      <trkpt lat="44.19133" lon="0.59096">
        <ele>56</ele>
        <time>2026-02-22T14:02:05.188Z</time>
      </trkpt>
      <trkpt lat="44.19132" lon="0.59097">
        <ele>56</ele>
        <time>2026-02-22T14:02:06.188Z</time>
      </trkpt>
      <trkpt lat="44.19131" lon="0.59098">
        <ele>56</ele>
        <time>2026-02-22T14:02:07.188Z</time>
      </trkpt>
      <trkpt lat="44.1913" lon="0.59099">
        <ele>56</ele>
        <time>2026-02-22T14:02:08.189Z</time>
      </trkpt>
      <trkpt lat="44.19129" lon="0.591">
        <ele>56</ele>
        <time>2026-02-22T14:02:09.188Z</time>
      </trkpt>
      <trkpt lat="44.19128" lon="0.59101">
        <ele>57</ele>
        <time>2026-02-22T14:02:10.188Z</time>
      </trkpt>
      <trkpt lat="44.19127" lon="0.59103">
        <ele>57</ele>
        <time>2026-02-22T14:02:11.188Z</time>
      </trkpt>
      <trkpt lat="44.19126" lon="0.59104">
        <ele>57</ele>
        <time>2026-02-22T14:02:12.188Z</time>
      </trkpt>
      <trkpt lat="44.19126" lon="0.59106">
        <ele>57</ele>
        <time>2026-02-22T14:02:13.188Z</time>
      </trkpt>
      <trkpt lat="44.19125" lon="0.59107">
        <ele>57</ele>
        <time>2026-02-22T14:02:14.188Z</time>
      </trkpt>
      <trkpt lat="44.19124" lon="0.59108">
        <ele>57</ele>
        <time>2026-02-22T14:02:15.188Z</time>
      </trkpt>
      <trkpt lat="44.19123" lon="0.59109">
        <ele>57</ele>
        <time>2026-02-22T14:02:16.188Z</time>
      </trkpt>
      <trkpt lat="44.19123" lon="0.5911">
        <ele>57</ele>
        <time>2026-02-22T14:02:17.188Z</time>
      </trkpt>
      <trkpt lat="44.19122" lon="0.59111">
        <ele>57</ele>
        <time>2026-02-22T14:02:18.188Z</time>
      </trkpt>
      <trkpt lat="44.19121" lon="0.59112">
        <ele>57</ele>
        <time>2026-02-22T14:02:19.188Z</time>
      </trkpt>
      <trkpt lat="44.19121" lon="0.59113">
        <ele>57</ele>
        <time>2026-02-22T14:02:20.188Z</time>
      </trkpt>
      <trkpt lat="44.1912" lon="0.59115">
        <ele>57</ele>
        <time>2026-02-22T14:02:21.188Z</time>
      </trkpt>
      <trkpt lat="44.19119" lon="0.59116">
        <ele>57</ele>
        <time>2026-02-22T14:02:22.189Z</time>
      </trkpt>
      <trkpt lat="44.19119" lon="0.59116">
        <ele>57</ele>
        <time>2026-02-22T14:02:23.188Z</time>
      </trkpt>
      <trkpt lat="44.19118" lon="0.59116">
        <ele>58</ele>
        <time>2026-02-22T14:02:24.189Z</time>
      </trkpt>
      <trkpt lat="44.19119" lon="0.59117">
        <ele>57</ele>
        <time>2026-02-22T14:02:25.188Z</time>
      </trkpt>
      <trkpt lat="44.19118" lon="0.59118">
        <ele>57</ele>
        <time>2026-02-22T14:02:26.188Z</time>
      </trkpt>
      <trkpt lat="44.19118" lon="0.59119">
        <ele>57</ele>
        <time>2026-02-22T14:02:27.188Z</time>
      </trkpt>
      <trkpt lat="44.19117" lon="0.5912">
        <ele>57</ele>
        <time>2026-02-22T14:02:28.188Z</time>
      </trkpt>
      <trkpt lat="44.19117" lon="0.59121">
        <ele>58</ele>
        <time>2026-02-22T14:02:29.188Z</time>
      </trkpt>
      <trkpt lat="44.19116" lon="0.59122">
        <ele>58</ele>
        <time>2026-02-22T14:02:30.188Z</time>
      </trkpt>
      <trkpt lat="44.19115" lon="0.59122">
        <ele>58</ele>
        <time>2026-02-22T14:02:31.188Z</time>
      </trkpt>
      <trkpt lat="44.19114" lon="0.59123">
        <ele>58</ele>
        <time>2026-02-22T14:02:32.188Z</time>
      </trkpt>
      <trkpt lat="44.19114" lon="0.59123">
        <ele>58</ele>
        <time>2026-02-22T14:02:33.188Z</time>
      </trkpt>
      <trkpt lat="44.19113" lon="0.59124">
        <ele>58</ele>
        <time>2026-02-22T14:02:34.188Z</time>
      </trkpt>
      <trkpt lat="44.19113" lon="0.59124">
        <ele>58</ele>
        <time>2026-02-22T14:02:35.188Z</time>
      </trkpt>
      <trkpt lat="44.19112" lon="0.59125">
        <ele>58</ele>
        <time>2026-02-22T14:02:36.188Z</time>
      </trkpt>
      <trkpt lat="44.19112" lon="0.59126">
        <ele>58</ele>
        <time>2026-02-22T14:02:37.189Z</time>
      </trkpt>
      <trkpt lat="44.19112" lon="0.59126">
        <ele>58</ele>
        <time>2026-02-22T14:02:38.188Z</time>
      </trkpt>
      <trkpt lat="44.19112" lon="0.59127">
        <ele>57</ele>
        <time>2026-02-22T14:02:39.188Z</time>
      </trkpt>
      <trkpt lat="44.19112" lon="0.59129">
        <ele>58</ele>
        <time>2026-02-22T14:02:40.188Z</time>
      </trkpt>
      <trkpt lat="44.19112" lon="0.5913">
        <ele>58</ele>
        <time>2026-02-22T14:02:41.188Z</time>
      </trkpt>
      <trkpt lat="44.19111" lon="0.59131">
        <ele>58</ele>
        <time>2026-02-22T14:02:42.188Z</time>
      </trkpt>
      <trkpt lat="44.19111" lon="0.59133">
        <ele>58</ele>
        <time>2026-02-22T14:02:43.188Z</time>
      </trkpt>
      <trkpt lat="44.1911" lon="0.59134">
        <ele>58</ele>
        <time>2026-02-22T14:02:44.188Z</time>
      </trkpt>
      <trkpt lat="44.1911" lon="0.59135">
        <ele>58</ele>
        <time>2026-02-22T14:02:45.188Z</time>
      </trkpt>
      <trkpt lat="44.19109" lon="0.59137">
        <ele>58</ele>
        <time>2026-02-22T14:02:46.189Z</time>
      </trkpt>
      <trkpt lat="44.19109" lon="0.59138">
        <ele>58</ele>
        <time>2026-02-22T14:02:47.188Z</time>
      </trkpt>
      <trkpt lat="44.19108" lon="0.59139">
        <ele>58</ele>
        <time>2026-02-22T14:02:48.188Z</time>
      </trkpt>
      <trkpt lat="44.19108" lon="0.59141">
        <ele>58</ele>
        <time>2026-02-22T14:02:49.188Z</time>
      </trkpt>
      <trkpt lat="44.19107" lon="0.59142">
        <ele>58</ele>
        <time>2026-02-22T14:02:50.188Z</time>
      </trkpt>
      <trkpt lat="44.19106" lon="0.59144">
        <ele>58</ele>
        <time>2026-02-22T14:02:51.188Z</time>
      </trkpt>
      <trkpt lat="44.19105" lon="0.59145">
        <ele>58</ele>
        <time>2026-02-22T14:02:52.189Z</time>
      </trkpt>
      <trkpt lat="44.19104" lon="0.59146">
        <ele>58</ele>
        <time>2026-02-22T14:02:53.188Z</time>
      </trkpt>
      <trkpt lat="44.19103" lon="0.59148">
        <ele>58</ele>
        <time>2026-02-22T14:02:54.188Z</time>
      </trkpt>
      <trkpt lat="44.19102" lon="0.59149">
        <ele>59</ele>
        <time>2026-02-22T14:02:55.188Z</time>
      </trkpt>
      <trkpt lat="44.19101" lon="0.5915">
        <ele>58</ele>
        <time>2026-02-22T14:02:56.188Z</time>
      </trkpt>
      <trkpt lat="44.191" lon="0.59151">
        <ele>58</ele>
        <time>2026-02-22T14:02:57.188Z</time>
      </trkpt>
      <trkpt lat="44.19099" lon="0.59151">
        <ele>58</ele>
        <time>2026-02-22T14:02:58.188Z</time>
      </trkpt>
      <trkpt lat="44.19098" lon="0.59152">
        <ele>58</ele>
        <time>2026-02-22T14:02:59.188Z</time>
      </trkpt>
      <trkpt lat="44.19097" lon="0.59153">
        <ele>58</ele>
        <time>2026-02-22T14:03:00.188Z</time>
      </trkpt>
      <trkpt lat="44.19095" lon="0.59154">
        <ele>58</ele>
        <time>2026-02-22T14:03:01.188Z</time>
      </trkpt>
      <trkpt lat="44.19094" lon="0.59155">
        <ele>58</ele>
        <time>2026-02-22T14:03:02.188Z</time>
      </trkpt>
      <trkpt lat="44.19093" lon="0.59155">
        <ele>57</ele>
        <time>2026-02-22T14:03:03.188Z</time>
      </trkpt>
      <trkpt lat="44.19092" lon="0.59156">
        <ele>57</ele>
        <time>2026-02-22T14:03:04.188Z</time>
      </trkpt>
      <trkpt lat="44.19091" lon="0.59156">
        <ele>56</ele>
        <time>2026-02-22T14:03:05.188Z</time>
      </trkpt>
      <trkpt lat="44.1909" lon="0.59156">
        <ele>56</ele>
        <time>2026-02-22T14:03:06.188Z</time>
      </trkpt>
      <trkpt lat="44.19089" lon="0.59157">
        <ele>55</ele>
        <time>2026-02-22T14:03:07.188Z</time>
      </trkpt>
      <trkpt lat="44.19088" lon="0.59158">
        <ele>55</ele>
        <time>2026-02-22T14:03:08.188Z</time>
      </trkpt>
      <trkpt lat="44.19088" lon="0.59158">
        <ele>55</ele>
        <time>2026-02-22T14:03:09.188Z</time>
      </trkpt>
      <trkpt lat="44.19087" lon="0.59159">
        <ele>55</ele>
        <time>2026-02-22T14:03:10.188Z</time>
      </trkpt>
      <trkpt lat="44.19086" lon="0.5916">
        <ele>55</ele>
        <time>2026-02-22T14:03:11.188Z</time>
      </trkpt>
      <trkpt lat="44.19085" lon="0.59161">
        <ele>55</ele>
        <time>2026-02-22T14:03:12.188Z</time>
      </trkpt>
      <trkpt lat="44.19084" lon="0.59161">
        <ele>55</ele>
        <time>2026-02-22T14:03:13.188Z</time>
      </trkpt>
      <trkpt lat="44.19083" lon="0.59162">
        <ele>55</ele>
        <time>2026-02-22T14:03:14.188Z</time>
      </trkpt>
      <trkpt lat="44.19083" lon="0.59163">
        <ele>55</ele>
        <time>2026-02-22T14:03:15.188Z</time>
      </trkpt>
      <trkpt lat="44.19082" lon="0.59164">
        <ele>56</ele>
        <time>2026-02-22T14:03:16.188Z</time>
      </trkpt>
      <trkpt lat="44.19081" lon="0.59165">
        <ele>56</ele>
        <time>2026-02-22T14:03:17.188Z</time>
      </trkpt>
      <trkpt lat="44.1908" lon="0.59166">
        <ele>56</ele>
        <time>2026-02-22T14:03:18.188Z</time>
      </trkpt>
      <trkpt lat="44.19079" lon="0.59167">
        <ele>57</ele>
        <time>2026-02-22T14:03:19.188Z</time>
      </trkpt>
      <trkpt lat="44.19079" lon="0.59168">
        <ele>57</ele>
        <time>2026-02-22T14:03:20.189Z</time>
      </trkpt>
      <trkpt lat="44.19078" lon="0.59169">
        <ele>58</ele>
        <time>2026-02-22T14:03:21.188Z</time>
      </trkpt>
      <trkpt lat="44.19077" lon="0.5917">
        <ele>58</ele>
        <time>2026-02-22T14:03:22.188Z</time>
      </trkpt>
      <trkpt lat="44.19076" lon="0.59171">
        <ele>58</ele>
        <time>2026-02-22T14:03:23.189Z</time>
      </trkpt>
      <trkpt lat="44.19075" lon="0.59172">
        <ele>59</ele>
        <time>2026-02-22T14:03:24.188Z</time>
      </trkpt>
      <trkpt lat="44.19074" lon="0.59173">
        <ele>59</ele>
        <time>2026-02-22T14:03:25.188Z</time>
      </trkpt>
      <trkpt lat="44.19072" lon="0.59173">
        <ele>59</ele>
        <time>2026-02-22T14:03:26.188Z</time>
      </trkpt>
      <trkpt lat="44.19071" lon="0.59174">
        <ele>60</ele>
        <time>2026-02-22T14:03:27.188Z</time>
      </trkpt>
      <trkpt lat="44.1907" lon="0.59174">
        <ele>60</ele>
        <time>2026-02-22T14:03:28.188Z</time>
      </trkpt>
      <trkpt lat="44.1907" lon="0.59175">
        <ele>60</ele>
        <time>2026-02-22T14:03:29.188Z</time>
      </trkpt>
      <trkpt lat="44.19069" lon="0.59175">
        <ele>60</ele>
        <time>2026-02-22T14:03:30.188Z</time>
      </trkpt>
      <trkpt lat="44.19069" lon="0.59176">
        <ele>60</ele>
        <time>2026-02-22T14:03:31.188Z</time>
      </trkpt>
      <trkpt lat="44.19068" lon="0.59177">
        <ele>60</ele>
        <time>2026-02-22T14:03:32.188Z</time>
      </trkpt>
      <trkpt lat="44.19068" lon="0.59178">
        <ele>60</ele>
        <time>2026-02-22T14:03:33.188Z</time>
      </trkpt>
      <trkpt lat="44.19067" lon="0.59179">
        <ele>60</ele>
        <time>2026-02-22T14:03:34.189Z</time>
      </trkpt>
      <trkpt lat="44.19067" lon="0.59179">
        <ele>60</ele>
        <time>2026-02-22T14:03:35.188Z</time>
      </trkpt>
      <trkpt lat="44.19067" lon="0.59179">
        <ele>60</ele>
        <time>2026-02-22T14:03:36.188Z</time>
      </trkpt>
      <trkpt lat="44.19067" lon="0.59179">
        <ele>60</ele>
        <time>2026-02-22T14:03:37.188Z</time>
      </trkpt>
      <trkpt lat="44.19067" lon="0.59179">
        <ele>60</ele>
        <time>2026-02-22T14:03:38.188Z</time>
      </trkpt>
      <trkpt lat="44.19067" lon="0.5918">
        <ele>59</ele>
        <time>2026-02-22T14:03:39.188Z</time>
      </trkpt>
      <trkpt lat="44.19067" lon="0.5918">
        <ele>59</ele>
        <time>2026-02-22T14:03:40.188Z</time>
      </trkpt>
      <trkpt lat="44.19067" lon="0.5918">
        <ele>59</ele>
        <time>2026-02-22T14:03:41.188Z</time>
      </trkpt>
      <trkpt lat="44.19067" lon="0.59179">
        <ele>59</ele>
        <time>2026-02-22T14:03:42.188Z</time>
      </trkpt>
      <trkpt lat="44.19067" lon="0.59179">
        <ele>59</ele>
        <time>2026-02-22T14:03:43.188Z</time>
      </trkpt>
      <trkpt lat="44.19067" lon="0.59179">
        <ele>58</ele>
        <time>2026-02-22T14:03:44.188Z</time>
      </trkpt>
      <trkpt lat="44.19067" lon="0.59179">
        <ele>58</ele>
        <time>2026-02-22T14:03:45.188Z</time>
      </trkpt>
      <trkpt lat="44.19067" lon="0.5918">
        <ele>57</ele>
        <time>2026-02-22T14:03:46.188Z</time>
      </trkpt>
      <trkpt lat="44.19067" lon="0.5918">
        <ele>57</ele>
        <time>2026-02-22T14:03:47.188Z</time>
      </trkpt>
      <trkpt lat="44.19067" lon="0.5918">
        <ele>57</ele>
        <time>2026-02-22T14:03:48.188Z</time>
      </trkpt>
      <trkpt lat="44.19067" lon="0.5918">
        <ele>56</ele>
        <time>2026-02-22T14:03:49.188Z</time>
      </trkpt>
      <trkpt lat="44.19067" lon="0.5918">
        <ele>56</ele>
        <time>2026-02-22T14:03:50.188Z</time>
      </trkpt>
      <trkpt lat="44.19067" lon="0.5918">
        <ele>56</ele>
        <time>2026-02-22T14:03:51.188Z</time>
      </trkpt>
      <trkpt lat="44.19067" lon="0.5918">
        <ele>56</ele>
        <time>2026-02-22T14:03:52.189Z</time>
      </trkpt>
      <trkpt lat="44.19067" lon="0.5918">
        <ele>56</ele>
        <time>2026-02-22T14:03:53.188Z</time>
      </trkpt>
      <trkpt lat="44.19067" lon="0.5918">
        <ele>56</ele>
        <time>2026-02-22T14:03:54.188Z</time>
      </trkpt>
      <trkpt lat="44.19067" lon="0.5918">
        <ele>56</ele>
        <time>2026-02-22T14:03:55.188Z</time>
      </trkpt>
      <trkpt lat="44.19067" lon="0.5918">
        <ele>56</ele>
        <time>2026-02-22T14:03:56.188Z</time>
      </trkpt>
      <trkpt lat="44.19067" lon="0.59181">
        <ele>56</ele>
        <time>2026-02-22T14:03:57.188Z</time>
      </trkpt>
      <trkpt lat="44.19067" lon="0.5918">
        <ele>56</ele>
        <time>2026-02-22T14:03:58.189Z</time>
      </trkpt>
      <trkpt lat="44.19067" lon="0.5918">
        <ele>56</ele>
        <time>2026-02-22T14:03:59.188Z</time>
      </trkpt>
      <trkpt lat="44.19067" lon="0.5918">
        <ele>57</ele>
        <time>2026-02-22T14:04:00.188Z</time>
      </trkpt>
      <trkpt lat="44.19067" lon="0.59181">
        <ele>57</ele>
        <time>2026-02-22T14:04:01.188Z</time>
      </trkpt>
      <trkpt lat="44.19067" lon="0.59181">
        <ele>57</ele>
        <time>2026-02-22T14:04:02.188Z</time>
      </trkpt>
      <trkpt lat="44.19067" lon="0.59181">
        <ele>57</ele>
        <time>2026-02-22T14:04:03.188Z</time>
      </trkpt>
      <trkpt lat="44.19067" lon="0.59181">
        <ele>57</ele>
        <time>2026-02-22T14:04:04.188Z</time>
      </trkpt>
      <trkpt lat="44.19067" lon="0.59181">
        <ele>57</ele>
        <time>2026-02-22T14:04:05.188Z</time>
      </trkpt>
      <trkpt lat="44.19067" lon="0.59181">
        <ele>57</ele>
        <time>2026-02-22T14:04:06.188Z</time>
      </trkpt>
      <trkpt lat="44.19067" lon="0.59181">
        <ele>57</ele>
        <time>2026-02-22T14:04:07.188Z</time>
      </trkpt>
      <trkpt lat="44.19066" lon="0.59182">
        <ele>57</ele>
        <time>2026-02-22T14:04:08.188Z</time>
      </trkpt>
      <trkpt lat="44.19066" lon="0.59183">
        <ele>58</ele>
        <time>2026-02-22T14:04:09.189Z</time>
      </trkpt>
      <trkpt lat="44.19065" lon="0.59184">
        <ele>59</ele>
        <time>2026-02-22T14:04:10.188Z</time>
      </trkpt>
      <trkpt lat="44.19064" lon="0.59185">
        <ele>59</ele>
        <time>2026-02-22T14:04:11.188Z</time>
      </trkpt>
      <trkpt lat="44.19064" lon="0.59186">
        <ele>60</ele>
        <time>2026-02-22T14:04:12.188Z</time>
      </trkpt>
      <trkpt lat="44.19063" lon="0.59187">
        <ele>61</ele>
        <time>2026-02-22T14:04:13.188Z</time>
      </trkpt>
      <trkpt lat="44.19062" lon="0.59188">
        <ele>62</ele>
        <time>2026-02-22T14:04:14.188Z</time>
      </trkpt>
      <trkpt lat="44.19061" lon="0.59188">
        <ele>62</ele>
        <time>2026-02-22T14:04:15.188Z</time>
      </trkpt>
      <trkpt lat="44.1906" lon="0.5919">
        <ele>62</ele>
        <time>2026-02-22T14:04:16.188Z</time>
      </trkpt>
      <trkpt lat="44.19059" lon="0.59191">
        <ele>62</ele>
        <time>2026-02-22T14:04:17.188Z</time>
      </trkpt>
      <trkpt lat="44.19058" lon="0.59191">
        <ele>63</ele>
        <time>2026-02-22T14:04:18.188Z</time>
      </trkpt>
      <trkpt lat="44.19057" lon="0.59192">
        <ele>63</ele>
        <time>2026-02-22T14:04:19.188Z</time>
      </trkpt>
      <trkpt lat="44.19056" lon="0.59193">
        <ele>64</ele>
        <time>2026-02-22T14:04:20.188Z</time>
      </trkpt>
      <trkpt lat="44.19055" lon="0.59194">
        <ele>64</ele>
        <time>2026-02-22T14:04:21.188Z</time>
      </trkpt>
      <trkpt lat="44.19055" lon="0.59195">
        <ele>64</ele>
        <time>2026-02-22T14:04:22.188Z</time>
      </trkpt>
      <trkpt lat="44.19054" lon="0.59197">
        <ele>63</ele>
        <time>2026-02-22T14:04:23.188Z</time>
      </trkpt>
      <trkpt lat="44.19053" lon="0.59198">
        <ele>63</ele>
        <time>2026-02-22T14:04:24.189Z</time>
      </trkpt>
      <trkpt lat="44.19052" lon="0.59199">
        <ele>63</ele>
        <time>2026-02-22T14:04:25.188Z</time>
      </trkpt>
      <trkpt lat="44.1905" lon="0.592">
        <ele>63</ele>
        <time>2026-02-22T14:04:26.188Z</time>
      </trkpt>
      <trkpt lat="44.1905" lon="0.59201">
        <ele>63</ele>
        <time>2026-02-22T14:04:27.188Z</time>
      </trkpt>
      <trkpt lat="44.19049" lon="0.59202">
        <ele>63</ele>
        <time>2026-02-22T14:04:28.188Z</time>
      </trkpt>
      <trkpt lat="44.19048" lon="0.59202">
        <ele>63</ele>
        <time>2026-02-22T14:04:29.188Z</time>
      </trkpt>
      <trkpt lat="44.19047" lon="0.59203">
        <ele>63</ele>
        <time>2026-02-22T14:04:30.188Z</time>
      </trkpt>
      <trkpt lat="44.19046" lon="0.59203">
        <ele>63</ele>
        <time>2026-02-22T14:04:31.188Z</time>
      </trkpt>
      <trkpt lat="44.19044" lon="0.59204">
        <ele>63</ele>
        <time>2026-02-22T14:04:32.188Z</time>
      </trkpt>
      <trkpt lat="44.19043" lon="0.59205">
        <ele>64</ele>
        <time>2026-02-22T14:04:33.188Z</time>
      </trkpt>
      <trkpt lat="44.19042" lon="0.59206">
        <ele>64</ele>
        <time>2026-02-22T14:04:34.189Z</time>
      </trkpt>
      <trkpt lat="44.19041" lon="0.59207">
        <ele>64</ele>
        <time>2026-02-22T14:04:35.188Z</time>
      </trkpt>
      <trkpt lat="44.1904" lon="0.59208">
        <ele>64</ele>
        <time>2026-02-22T14:04:36.188Z</time>
      </trkpt>
      <trkpt lat="44.19039" lon="0.59209">
        <ele>64</ele>
        <time>2026-02-22T14:04:37.188Z</time>
      </trkpt>
      <trkpt lat="44.19038" lon="0.5921">
        <ele>64</ele>
        <time>2026-02-22T14:04:38.188Z</time>
      </trkpt>
      <trkpt lat="44.19037" lon="0.59211">
        <ele>64</ele>
        <time>2026-02-22T14:04:39.188Z</time>
      </trkpt>
      <trkpt lat="44.19036" lon="0.59212">
        <ele>64</ele>
        <time>2026-02-22T14:04:40.188Z</time>
      </trkpt>
      <trkpt lat="44.19035" lon="0.59213">
        <ele>64</ele>
        <time>2026-02-22T14:04:41.188Z</time>
      </trkpt>
      <trkpt lat="44.19034" lon="0.59214">
        <ele>64</ele>
        <time>2026-02-22T14:04:42.188Z</time>
      </trkpt>
      <trkpt lat="44.19034" lon="0.59215">
        <ele>64</ele>
        <time>2026-02-22T14:04:43.188Z</time>
      </trkpt>
      <trkpt lat="44.19033" lon="0.59216">
        <ele>64</ele>
        <time>2026-02-22T14:04:44.188Z</time>
      </trkpt>
      <trkpt lat="44.19032" lon="0.59218">
        <ele>64</ele>
        <time>2026-02-22T14:04:45.188Z</time>
      </trkpt>
      <trkpt lat="44.19031" lon="0.59219">
        <ele>64</ele>
        <time>2026-02-22T14:04:46.188Z</time>
      </trkpt>
      <trkpt lat="44.1903" lon="0.5922">
        <ele>64</ele>
        <time>2026-02-22T14:04:47.188Z</time>
      </trkpt>
      <trkpt lat="44.19029" lon="0.59221">
        <ele>64</ele>
        <time>2026-02-22T14:04:48.188Z</time>
      </trkpt>
      <trkpt lat="44.19029" lon="0.59222">
        <ele>64</ele>
        <time>2026-02-22T14:04:49.188Z</time>
      </trkpt>
      <trkpt lat="44.19028" lon="0.59223">
        <ele>63</ele>
        <time>2026-02-22T14:04:50.188Z</time>
      </trkpt>
      <trkpt lat="44.19027" lon="0.59225">
        <ele>63</ele>
        <time>2026-02-22T14:04:51.188Z</time>
      </trkpt>
      <trkpt lat="44.19027" lon="0.59226">
        <ele>62</ele>
        <time>2026-02-22T14:04:52.188Z</time>
      </trkpt>
      <trkpt lat="44.19026" lon="0.59228">
        <ele>61</ele>
        <time>2026-02-22T14:04:53.188Z</time>
      </trkpt>
      <trkpt lat="44.19026" lon="0.59229">
        <ele>61</ele>
        <time>2026-02-22T14:04:54.189Z</time>
      </trkpt>
      <trkpt lat="44.19025" lon="0.59231">
        <ele>61</ele>
        <time>2026-02-22T14:04:55.188Z</time>
      </trkpt>
      <trkpt lat="44.19025" lon="0.59232">
        <ele>61</ele>
        <time>2026-02-22T14:04:56.188Z</time>
      </trkpt>
      <trkpt lat="44.19024" lon="0.59233">
        <ele>61</ele>
        <time>2026-02-22T14:04:57.188Z</time>
      </trkpt>
      <trkpt lat="44.19024" lon="0.59235">
        <ele>61</ele>
        <time>2026-02-22T14:04:58.188Z</time>
      </trkpt>
      <trkpt lat="44.19023" lon="0.59237">
        <ele>61</ele>
        <time>2026-02-22T14:04:59.188Z</time>
      </trkpt>
      <trkpt lat="44.19022" lon="0.59238">
        <ele>61</ele>
        <time>2026-02-22T14:05:00.188Z</time>
      </trkpt>
      <trkpt lat="44.19021" lon="0.5924">
        <ele>61</ele>
        <time>2026-02-22T14:05:01.188Z</time>
      </trkpt>
      <trkpt lat="44.1902" lon="0.59241">
        <ele>61</ele>
        <time>2026-02-22T14:05:02.188Z</time>
      </trkpt>
      <trkpt lat="44.1902" lon="0.59242">
        <ele>61</ele>
        <time>2026-02-22T14:05:03.188Z</time>
      </trkpt>
      <trkpt lat="44.19019" lon="0.59243">
        <ele>61</ele>
        <time>2026-02-22T14:05:04.188Z</time>
      </trkpt>
      <trkpt lat="44.19019" lon="0.59244">
        <ele>61</ele>
        <time>2026-02-22T14:05:05.188Z</time>
      </trkpt>
      <trkpt lat="44.19018" lon="0.59246">
        <ele>61</ele>
        <time>2026-02-22T14:05:06.188Z</time>
      </trkpt>
      <trkpt lat="44.19017" lon="0.59247">
        <ele>61</ele>
        <time>2026-02-22T14:05:07.188Z</time>
      </trkpt>
      <trkpt lat="44.19017" lon="0.59248">
        <ele>61</ele>
        <time>2026-02-22T14:05:08.189Z</time>
      </trkpt>
      <trkpt lat="44.19016" lon="0.5925">
        <ele>61</ele>
        <time>2026-02-22T14:05:09.189Z</time>
      </trkpt>
      <trkpt lat="44.19015" lon="0.59251">
        <ele>61</ele>
        <time>2026-02-22T14:05:10.189Z</time>
      </trkpt>
      <trkpt lat="44.19014" lon="0.59252">
        <ele>60</ele>
        <time>2026-02-22T14:05:11.189Z</time>
      </trkpt>
      <trkpt lat="44.19014" lon="0.59254">
        <ele>61</ele>
        <time>2026-02-22T14:05:12.188Z</time>
      </trkpt>
      <trkpt lat="44.19013" lon="0.59254">
        <ele>61</ele>
        <time>2026-02-22T14:05:13.188Z</time>
      </trkpt>
      <trkpt lat="44.19012" lon="0.59256">
        <ele>61</ele>
        <time>2026-02-22T14:05:14.188Z</time>
      </trkpt>
      <trkpt lat="44.19011" lon="0.59257">
        <ele>61</ele>
        <time>2026-02-22T14:05:15.188Z</time>
      </trkpt>
      <trkpt lat="44.1901" lon="0.59258">
        <ele>61</ele>
        <time>2026-02-22T14:05:16.188Z</time>
      </trkpt>
      <trkpt lat="44.19009" lon="0.5926">
        <ele>62</ele>
        <time>2026-02-22T14:05:17.188Z</time>
      </trkpt>
      <trkpt lat="44.19008" lon="0.59261">
        <ele>62</ele>
        <time>2026-02-22T14:05:18.188Z</time>
      </trkpt>
      <trkpt lat="44.19007" lon="0.59262">
        <ele>62</ele>
        <time>2026-02-22T14:05:19.188Z</time>
      </trkpt>
      <trkpt lat="44.19006" lon="0.59263">
        <ele>62</ele>
        <time>2026-02-22T14:05:20.188Z</time>
      </trkpt>
      <trkpt lat="44.19005" lon="0.59263">
        <ele>63</ele>
        <time>2026-02-22T14:05:21.188Z</time>
      </trkpt>
      <trkpt lat="44.19004" lon="0.59264">
        <ele>63</ele>
        <time>2026-02-22T14:05:22.188Z</time>
      </trkpt>
      <trkpt lat="44.19003" lon="0.59265">
        <ele>63</ele>
        <time>2026-02-22T14:05:23.188Z</time>
      </trkpt>
      <trkpt lat="44.19002" lon="0.59266">
        <ele>63</ele>
        <time>2026-02-22T14:05:24.189Z</time>
      </trkpt>
      <trkpt lat="44.19001" lon="0.59267">
        <ele>63</ele>
        <time>2026-02-22T14:05:25.188Z</time>
      </trkpt>
      <trkpt lat="44.19" lon="0.59267">
        <ele>63</ele>
        <time>2026-02-22T14:05:26.188Z</time>
      </trkpt>
      <trkpt lat="44.18999" lon="0.59268">
        <ele>63</ele>
        <time>2026-02-22T14:05:27.188Z</time>
      </trkpt>
      <trkpt lat="44.18998" lon="0.59269">
        <ele>62</ele>
        <time>2026-02-22T14:05:28.188Z</time>
      </trkpt>
      <trkpt lat="44.18997" lon="0.5927">
        <ele>62</ele>
        <time>2026-02-22T14:05:29.188Z</time>
      </trkpt>
      <trkpt lat="44.18996" lon="0.59271">
        <ele>62</ele>
        <time>2026-02-22T14:05:30.188Z</time>
      </trkpt>
      <trkpt lat="44.18995" lon="0.59272">
        <ele>63</ele>
        <time>2026-02-22T14:05:31.188Z</time>
      </trkpt>
      <trkpt lat="44.18994" lon="0.59273">
        <ele>63</ele>
        <time>2026-02-22T14:05:32.188Z</time>
      </trkpt>
      <trkpt lat="44.18993" lon="0.59274">
        <ele>63</ele>
        <time>2026-02-22T14:05:33.188Z</time>
      </trkpt>
      <trkpt lat="44.18992" lon="0.59275">
        <ele>63</ele>
        <time>2026-02-22T14:05:34.188Z</time>
      </trkpt>
      <trkpt lat="44.18991" lon="0.59276">
        <ele>62</ele>
        <time>2026-02-22T14:05:35.188Z</time>
      </trkpt>
      <trkpt lat="44.1899" lon="0.59277">
        <ele>62</ele>
        <time>2026-02-22T14:05:36.188Z</time>
      </trkpt>
      <trkpt lat="44.18988" lon="0.59278">
        <ele>62</ele>
        <time>2026-02-22T14:05:37.188Z</time>
      </trkpt>
      <trkpt lat="44.18987" lon="0.59279">
        <ele>62</ele>
        <time>2026-02-22T14:05:38.188Z</time>
      </trkpt>
      <trkpt lat="44.18986" lon="0.5928">
        <ele>62</ele>
        <time>2026-02-22T14:05:39.188Z</time>
      </trkpt>
      <trkpt lat="44.18985" lon="0.59281">
        <ele>62</ele>
        <time>2026-02-22T14:05:40.188Z</time>
      </trkpt>
      <trkpt lat="44.18985" lon="0.59282">
        <ele>62</ele>
        <time>2026-02-22T14:05:41.188Z</time>
      </trkpt>
      <trkpt lat="44.18984" lon="0.59283">
        <ele>62</ele>
        <time>2026-02-22T14:05:42.188Z</time>
      </trkpt>
      <trkpt lat="44.18983" lon="0.59284">
        <ele>62</ele>
        <time>2026-02-22T14:05:43.188Z</time>
      </trkpt>
      <trkpt lat="44.18982" lon="0.59285">
        <ele>62</ele>
        <time>2026-02-22T14:05:44.189Z</time>
      </trkpt>
      <trkpt lat="44.18981" lon="0.59287">
        <ele>62</ele>
        <time>2026-02-22T14:05:45.188Z</time>
      </trkpt>
      <trkpt lat="44.18981" lon="0.59288">
        <ele>61</ele>
        <time>2026-02-22T14:05:46.188Z</time>
      </trkpt>
      <trkpt lat="44.1898" lon="0.59289">
        <ele>61</ele>
        <time>2026-02-22T14:05:47.188Z</time>
      </trkpt>
      <trkpt lat="44.18979" lon="0.59291">
        <ele>61</ele>
        <time>2026-02-22T14:05:48.188Z</time>
      </trkpt>
      <trkpt lat="44.18978" lon="0.59292">
        <ele>61</ele>
        <time>2026-02-22T14:05:49.188Z</time>
      </trkpt>
      <trkpt lat="44.18978" lon="0.59294">
        <ele>61</ele>
        <time>2026-02-22T14:05:50.188Z</time>
      </trkpt>
      <trkpt lat="44.18977" lon="0.59295">
        <ele>61</ele>
        <time>2026-02-22T14:05:51.188Z</time>
      </trkpt>
      <trkpt lat="44.18977" lon="0.59297">
        <ele>61</ele>
        <time>2026-02-22T14:05:52.188Z</time>
      </trkpt>
      <trkpt lat="44.18976" lon="0.59298">
        <ele>61</ele>
        <time>2026-02-22T14:05:53.188Z</time>
      </trkpt>
      <trkpt lat="44.18975" lon="0.593">
        <ele>61</ele>
        <time>2026-02-22T14:05:54.189Z</time>
      </trkpt>
      <trkpt lat="44.18974" lon="0.59301">
        <ele>61</ele>
        <time>2026-02-22T14:05:55.188Z</time>
      </trkpt>
      <trkpt lat="44.18974" lon="0.59303">
        <ele>61</ele>
        <time>2026-02-22T14:05:56.188Z</time>
      </trkpt>
      <trkpt lat="44.18973" lon="0.59304">
        <ele>61</ele>
        <time>2026-02-22T14:05:57.188Z</time>
      </trkpt>
      <trkpt lat="44.18972" lon="0.59306">
        <ele>61</ele>
        <time>2026-02-22T14:05:58.188Z</time>
      </trkpt>
      <trkpt lat="44.18972" lon="0.59307">
        <ele>62</ele>
        <time>2026-02-22T14:05:59.188Z</time>
      </trkpt>
      <trkpt lat="44.18971" lon="0.59308">
        <ele>62</ele>
        <time>2026-02-22T14:06:00.188Z</time>
      </trkpt>
      <trkpt lat="44.1897" lon="0.59309">
        <ele>62</ele>
        <time>2026-02-22T14:06:01.188Z</time>
      </trkpt>
      <trkpt lat="44.18969" lon="0.5931">
        <ele>62</ele>
        <time>2026-02-22T14:06:02.188Z</time>
      </trkpt>
      <trkpt lat="44.18968" lon="0.59312">
        <ele>62</ele>
        <time>2026-02-22T14:06:03.188Z</time>
      </trkpt>
      <trkpt lat="44.18967" lon="0.59313">
        <ele>62</ele>
        <time>2026-02-22T14:06:04.188Z</time>
      </trkpt>
      <trkpt lat="44.18965" lon="0.59315">
        <ele>62</ele>
        <time>2026-02-22T14:06:05.188Z</time>
      </trkpt>
      <trkpt lat="44.18964" lon="0.59316">
        <ele>62</ele>
        <time>2026-02-22T14:06:06.188Z</time>
      </trkpt>
      <trkpt lat="44.18964" lon="0.59317">
        <ele>61</ele>
        <time>2026-02-22T14:06:07.188Z</time>
      </trkpt>
      <trkpt lat="44.18963" lon="0.59318">
        <ele>61</ele>
        <time>2026-02-22T14:06:08.188Z</time>
      </trkpt>
      <trkpt lat="44.18962" lon="0.59318">
        <ele>61</ele>
        <time>2026-02-22T14:06:09.188Z</time>
      </trkpt>
      <trkpt lat="44.18962" lon="0.59319">
        <ele>61</ele>
        <time>2026-02-22T14:06:10.188Z</time>
      </trkpt>
      <trkpt lat="44.18961" lon="0.59319">
        <ele>61</ele>
        <time>2026-02-22T14:06:11.188Z</time>
      </trkpt>
      <trkpt lat="44.18961" lon="0.59319">
        <ele>61</ele>
        <time>2026-02-22T14:06:12.188Z</time>
      </trkpt>
      <trkpt lat="44.18961" lon="0.59319">
        <ele>61</ele>
        <time>2026-02-22T14:06:13.188Z</time>
      </trkpt>
      <trkpt lat="44.18961" lon="0.59319">
        <ele>60</ele>
        <time>2026-02-22T14:06:14.188Z</time>
      </trkpt>
      <trkpt lat="44.18961" lon="0.5932">
        <ele>60</ele>
        <time>2026-02-22T14:06:15.188Z</time>
      </trkpt>
      <trkpt lat="44.18961" lon="0.5932">
        <ele>60</ele>
        <time>2026-02-22T14:06:16.188Z</time>
      </trkpt>
      <trkpt lat="44.1896" lon="0.59321">
        <ele>61</ele>
        <time>2026-02-22T14:06:17.188Z</time>
      </trkpt>
      <trkpt lat="44.18959" lon="0.59321">
        <ele>61</ele>
        <time>2026-02-22T14:06:18.188Z</time>
      </trkpt>
      <trkpt lat="44.18959" lon="0.59321">
        <ele>60</ele>
        <time>2026-02-22T14:06:19.188Z</time>
      </trkpt>
      <trkpt lat="44.18958" lon="0.59322">
        <ele>60</ele>
        <time>2026-02-22T14:06:20.189Z</time>
      </trkpt>
      <trkpt lat="44.18957" lon="0.59323">
        <ele>60</ele>
        <time>2026-02-22T14:06:21.188Z</time>
      </trkpt>
      <trkpt lat="44.18956" lon="0.59323">
        <ele>60</ele>
        <time>2026-02-22T14:06:22.188Z</time>
      </trkpt>
      <trkpt lat="44.18955" lon="0.59324">
        <ele>60</ele>
        <time>2026-02-22T14:06:23.188Z</time>
      </trkpt>
      <trkpt lat="44.18954" lon="0.59325">
        <ele>59</ele>
        <time>2026-02-22T14:06:24.189Z</time>
      </trkpt>
      <trkpt lat="44.18953" lon="0.59325">
        <ele>59</ele>
        <time>2026-02-22T14:06:25.188Z</time>
      </trkpt>
      <trkpt lat="44.18952" lon="0.59326">
        <ele>59</ele>
        <time>2026-02-22T14:06:26.188Z</time>
      </trkpt>
      <trkpt lat="44.18951" lon="0.59327">
        <ele>59</ele>
        <time>2026-02-22T14:06:27.188Z</time>
      </trkpt>
      <trkpt lat="44.1895" lon="0.59328">
        <ele>59</ele>
        <time>2026-02-22T14:06:28.188Z</time>
      </trkpt>
      <trkpt lat="44.18948" lon="0.59328">
        <ele>59</ele>
        <time>2026-02-22T14:06:29.188Z</time>
      </trkpt>
      <trkpt lat="44.18947" lon="0.59329">
        <ele>59</ele>
        <time>2026-02-22T14:06:30.188Z</time>
      </trkpt>
      <trkpt lat="44.18947" lon="0.5933">
        <ele>58</ele>
        <time>2026-02-22T14:06:31.188Z</time>
      </trkpt>
      <trkpt lat="44.18946" lon="0.59331">
        <ele>58</ele>
        <time>2026-02-22T14:06:32.188Z</time>
      </trkpt>
      <trkpt lat="44.18945" lon="0.59332">
        <ele>58</ele>
        <time>2026-02-22T14:06:33.188Z</time>
      </trkpt>
      <trkpt lat="44.18944" lon="0.59333">
        <ele>58</ele>
        <time>2026-02-22T14:06:34.188Z</time>
      </trkpt>
      <trkpt lat="44.18943" lon="0.59334">
        <ele>58</ele>
        <time>2026-02-22T14:06:35.188Z</time>
      </trkpt>
      <trkpt lat="44.18943" lon="0.59335">
        <ele>58</ele>
        <time>2026-02-22T14:06:36.188Z</time>
      </trkpt>
      <trkpt lat="44.18941" lon="0.59336">
        <ele>58</ele>
        <time>2026-02-22T14:06:37.188Z</time>
      </trkpt>
      <trkpt lat="44.18941" lon="0.59338">
        <ele>58</ele>
        <time>2026-02-22T14:06:38.188Z</time>
      </trkpt>
      <trkpt lat="44.1894" lon="0.59339">
        <ele>59</ele>
        <time>2026-02-22T14:06:39.188Z</time>
      </trkpt>
      <trkpt lat="44.18939" lon="0.5934">
        <ele>59</ele>
        <time>2026-02-22T14:06:40.188Z</time>
      </trkpt>
      <trkpt lat="44.18938" lon="0.59342">
        <ele>59</ele>
        <time>2026-02-22T14:06:41.188Z</time>
      </trkpt>
      <trkpt lat="44.18938" lon="0.59343">
        <ele>59</ele>
        <time>2026-02-22T14:06:42.188Z</time>
      </trkpt>
      <trkpt lat="44.18937" lon="0.59344">
        <ele>60</ele>
        <time>2026-02-22T14:06:43.188Z</time>
      </trkpt>
      <trkpt lat="44.18936" lon="0.59346">
        <ele>60</ele>
        <time>2026-02-22T14:06:44.188Z</time>
      </trkpt>
      <trkpt lat="44.18935" lon="0.59347">
        <ele>60</ele>
        <time>2026-02-22T14:06:45.188Z</time>
      </trkpt>
      <trkpt lat="44.18934" lon="0.59348">
        <ele>60</ele>
        <time>2026-02-22T14:06:46.188Z</time>
      </trkpt>
      <trkpt lat="44.18933" lon="0.5935">
        <ele>60</ele>
        <time>2026-02-22T14:06:47.188Z</time>
      </trkpt>
      <trkpt lat="44.18932" lon="0.59351">
        <ele>60</ele>
        <time>2026-02-22T14:06:48.188Z</time>
      </trkpt>
      <trkpt lat="44.18931" lon="0.59352">
        <ele>60</ele>
        <time>2026-02-22T14:06:49.188Z</time>
      </trkpt>
      <trkpt lat="44.1893" lon="0.59352">
        <ele>60</ele>
        <time>2026-02-22T14:06:50.188Z</time>
      </trkpt>
      <trkpt lat="44.18929" lon="0.59354">
        <ele>60</ele>
        <time>2026-02-22T14:06:51.188Z</time>
      </trkpt>
      <trkpt lat="44.18928" lon="0.59354">
        <ele>61</ele>
        <time>2026-02-22T14:06:52.189Z</time>
      </trkpt>
      <trkpt lat="44.18927" lon="0.59356">
        <ele>61</ele>
        <time>2026-02-22T14:06:53.188Z</time>
      </trkpt>
      <trkpt lat="44.18926" lon="0.59357">
        <ele>61</ele>
        <time>2026-02-22T14:06:54.188Z</time>
      </trkpt>
      <trkpt lat="44.18925" lon="0.59358">
        <ele>61</ele>
        <time>2026-02-22T14:06:55.188Z</time>
      </trkpt>
      <trkpt lat="44.18924" lon="0.59358">
        <ele>61</ele>
        <time>2026-02-22T14:06:56.189Z</time>
      </trkpt>
      <trkpt lat="44.18923" lon="0.59359">
        <ele>61</ele>
        <time>2026-02-22T14:06:57.188Z</time>
      </trkpt>
      <trkpt lat="44.18923" lon="0.5936">
        <ele>61</ele>
        <time>2026-02-22T14:06:58.188Z</time>
      </trkpt>
      <trkpt lat="44.18922" lon="0.59361">
        <ele>61</ele>
        <time>2026-02-22T14:06:59.188Z</time>
      </trkpt>
      <trkpt lat="44.18921" lon="0.59362">
        <ele>61</ele>
        <time>2026-02-22T14:07:00.188Z</time>
      </trkpt>
      <trkpt lat="44.1892" lon="0.59364">
        <ele>61</ele>
        <time>2026-02-22T14:07:01.188Z</time>
      </trkpt>
      <trkpt lat="44.18919" lon="0.59364">
        <ele>61</ele>
        <time>2026-02-22T14:07:02.188Z</time>
      </trkpt>
      <trkpt lat="44.18918" lon="0.59366">
        <ele>61</ele>
        <time>2026-02-22T14:07:03.188Z</time>
      </trkpt>
      <trkpt lat="44.18918" lon="0.59367">
        <ele>61</ele>
        <time>2026-02-22T14:07:04.188Z</time>
      </trkpt>
      <trkpt lat="44.18917" lon="0.59368">
        <ele>61</ele>
        <time>2026-02-22T14:07:05.188Z</time>
      </trkpt>
      <trkpt lat="44.18916" lon="0.5937">
        <ele>61</ele>
        <time>2026-02-22T14:07:06.188Z</time>
      </trkpt>
      <trkpt lat="44.18916" lon="0.59371">
        <ele>61</ele>
        <time>2026-02-22T14:07:07.188Z</time>
      </trkpt>
      <trkpt lat="44.18915" lon="0.59373">
        <ele>62</ele>
        <time>2026-02-22T14:07:08.188Z</time>
      </trkpt>
      <trkpt lat="44.18914" lon="0.59374">
        <ele>62</ele>
        <time>2026-02-22T14:07:09.188Z</time>
      </trkpt>
      <trkpt lat="44.18914" lon="0.59375">
        <ele>62</ele>
        <time>2026-02-22T14:07:10.188Z</time>
      </trkpt>
      <trkpt lat="44.18913" lon="0.59376">
        <ele>62</ele>
        <time>2026-02-22T14:07:11.188Z</time>
      </trkpt>
      <trkpt lat="44.18913" lon="0.59377">
        <ele>62</ele>
        <time>2026-02-22T14:07:12.188Z</time>
      </trkpt>
      <trkpt lat="44.18912" lon="0.59379">
        <ele>62</ele>
        <time>2026-02-22T14:07:13.188Z</time>
      </trkpt>
      <trkpt lat="44.18911" lon="0.5938">
        <ele>62</ele>
        <time>2026-02-22T14:07:14.188Z</time>
      </trkpt>
      <trkpt lat="44.1891" lon="0.59381">
        <ele>62</ele>
        <time>2026-02-22T14:07:15.188Z</time>
      </trkpt>
      <trkpt lat="44.18909" lon="0.59382">
        <ele>62</ele>
        <time>2026-02-22T14:07:16.188Z</time>
      </trkpt>
      <trkpt lat="44.18908" lon="0.59382">
        <ele>62</ele>
        <time>2026-02-22T14:07:17.188Z</time>
      </trkpt>
      <trkpt lat="44.18908" lon="0.59382">
        <ele>62</ele>
        <time>2026-02-22T14:07:18.188Z</time>
      </trkpt>
      <trkpt lat="44.18907" lon="0.59382">
        <ele>61</ele>
        <time>2026-02-22T14:07:19.188Z</time>
      </trkpt>
      <trkpt lat="44.18907" lon="0.59382">
        <ele>61</ele>
        <time>2026-02-22T14:07:20.189Z</time>
      </trkpt>
      <trkpt lat="44.18907" lon="0.59382">
        <ele>60</ele>
        <time>2026-02-22T14:07:21.188Z</time>
      </trkpt>
      <trkpt lat="44.18907" lon="0.59382">
        <ele>60</ele>
        <time>2026-02-22T14:07:22.188Z</time>
      </trkpt>
      <trkpt lat="44.18907" lon="0.59382">
        <ele>60</ele>
        <time>2026-02-22T14:07:23.188Z</time>
      </trkpt>
      <trkpt lat="44.18907" lon="0.59382">
        <ele>60</ele>
        <time>2026-02-22T14:07:24.188Z</time>
      </trkpt>
      <trkpt lat="44.18908" lon="0.59383">
        <ele>59</ele>
        <time>2026-02-22T14:07:25.188Z</time>
      </trkpt>
      <trkpt lat="44.18908" lon="0.59384">
        <ele>59</ele>
        <time>2026-02-22T14:07:26.188Z</time>
      </trkpt>
      <trkpt lat="44.18908" lon="0.59385">
        <ele>59</ele>
        <time>2026-02-22T14:07:27.188Z</time>
      </trkpt>
      <trkpt lat="44.18907" lon="0.59386">
        <ele>60</ele>
        <time>2026-02-22T14:07:28.188Z</time>
      </trkpt>
      <trkpt lat="44.18907" lon="0.59388">
        <ele>60</ele>
        <time>2026-02-22T14:07:29.188Z</time>
      </trkpt>
      <trkpt lat="44.18906" lon="0.59389">
        <ele>60</ele>
        <time>2026-02-22T14:07:30.189Z</time>
      </trkpt>
      <trkpt lat="44.18906" lon="0.5939">
        <ele>60</ele>
        <time>2026-02-22T14:07:31.189Z</time>
      </trkpt>
      <trkpt lat="44.18905" lon="0.59391">
        <ele>60</ele>
        <time>2026-02-22T14:07:32.188Z</time>
      </trkpt>
      <trkpt lat="44.18904" lon="0.59392">
        <ele>61</ele>
        <time>2026-02-22T14:07:33.188Z</time>
      </trkpt>
      <trkpt lat="44.18903" lon="0.59393">
        <ele>60</ele>
        <time>2026-02-22T14:07:34.188Z</time>
      </trkpt>
      <trkpt lat="44.18902" lon="0.59394">
        <ele>61</ele>
        <time>2026-02-22T14:07:35.188Z</time>
      </trkpt>
      <trkpt lat="44.18901" lon="0.59396">
        <ele>61</ele>
        <time>2026-02-22T14:07:36.188Z</time>
      </trkpt>
      <trkpt lat="44.18899" lon="0.59397">
        <ele>61</ele>
        <time>2026-02-22T14:07:37.188Z</time>
      </trkpt>
      <trkpt lat="44.18898" lon="0.59398">
        <ele>61</ele>
        <time>2026-02-22T14:07:38.188Z</time>
      </trkpt>
      <trkpt lat="44.18897" lon="0.594">
        <ele>62</ele>
        <time>2026-02-22T14:07:39.188Z</time>
      </trkpt>
      <trkpt lat="44.18896" lon="0.59401">
        <ele>62</ele>
        <time>2026-02-22T14:07:40.188Z</time>
      </trkpt>
      <trkpt lat="44.18894" lon="0.59402">
        <ele>62</ele>
        <time>2026-02-22T14:07:41.188Z</time>
      </trkpt>
      <trkpt lat="44.18893" lon="0.59404">
        <ele>62</ele>
        <time>2026-02-22T14:07:42.188Z</time>
      </trkpt>
      <trkpt lat="44.18892" lon="0.59405">
        <ele>62</ele>
        <time>2026-02-22T14:07:43.188Z</time>
      </trkpt>
      <trkpt lat="44.18891" lon="0.59407">
        <ele>62</ele>
        <time>2026-02-22T14:07:44.188Z</time>
      </trkpt>
      <trkpt lat="44.1889" lon="0.59408">
        <ele>62</ele>
        <time>2026-02-22T14:07:45.188Z</time>
      </trkpt>
      <trkpt lat="44.18889" lon="0.5941">
        <ele>63</ele>
        <time>2026-02-22T14:07:46.188Z</time>
      </trkpt>
      <trkpt lat="44.18888" lon="0.59411">
        <ele>63</ele>
        <time>2026-02-22T14:07:47.188Z</time>
      </trkpt>
      <trkpt lat="44.18887" lon="0.59412">
        <ele>63</ele>
        <time>2026-02-22T14:07:48.188Z</time>
      </trkpt>
      <trkpt lat="44.18886" lon="0.59413">
        <ele>63</ele>
        <time>2026-02-22T14:07:49.188Z</time>
      </trkpt>
      <trkpt lat="44.18885" lon="0.59414">
        <ele>63</ele>
        <time>2026-02-22T14:07:50.189Z</time>
      </trkpt>
      <trkpt lat="44.18884" lon="0.59416">
        <ele>63</ele>
        <time>2026-02-22T14:07:51.188Z</time>
      </trkpt>
      <trkpt lat="44.18884" lon="0.59418">
        <ele>63</ele>
        <time>2026-02-22T14:07:52.188Z</time>
      </trkpt>
      <trkpt lat="44.18883" lon="0.59419">
        <ele>63</ele>
        <time>2026-02-22T14:07:53.188Z</time>
      </trkpt>
      <trkpt lat="44.18882" lon="0.59421">
        <ele>64</ele>
        <time>2026-02-22T14:07:54.188Z</time>
      </trkpt>
      <trkpt lat="44.18881" lon="0.59423">
        <ele>64</ele>
        <time>2026-02-22T14:07:55.188Z</time>
      </trkpt>
      <trkpt lat="44.1888" lon="0.59424">
        <ele>64</ele>
        <time>2026-02-22T14:07:56.188Z</time>
      </trkpt>
      <trkpt lat="44.18879" lon="0.59426">
        <ele>64</ele>
        <time>2026-02-22T14:07:57.188Z</time>
      </trkpt>
      <trkpt lat="44.18878" lon="0.59427">
        <ele>63</ele>
        <time>2026-02-22T14:07:58.188Z</time>
      </trkpt>
      <trkpt lat="44.18877" lon="0.59429">
        <ele>63</ele>
        <time>2026-02-22T14:07:59.188Z</time>
      </trkpt>
      <trkpt lat="44.18876" lon="0.5943">
        <ele>62</ele>
        <time>2026-02-22T14:08:00.188Z</time>
      </trkpt>
      <trkpt lat="44.18876" lon="0.59431">
        <ele>62</ele>
        <time>2026-02-22T14:08:01.188Z</time>
      </trkpt>
      <trkpt lat="44.18875" lon="0.59433">
        <ele>61</ele>
        <time>2026-02-22T14:08:02.188Z</time>
      </trkpt>
      <trkpt lat="44.18874" lon="0.59434">
        <ele>61</ele>
        <time>2026-02-22T14:08:03.188Z</time>
      </trkpt>
      <trkpt lat="44.18873" lon="0.59435">
        <ele>60</ele>
        <time>2026-02-22T14:08:04.188Z</time>
      </trkpt>
      <trkpt lat="44.18872" lon="0.59436">
        <ele>59</ele>
        <time>2026-02-22T14:08:05.188Z</time>
      </trkpt>
      <trkpt lat="44.18871" lon="0.59437">
        <ele>59</ele>
        <time>2026-02-22T14:08:06.189Z</time>
      </trkpt>
      <trkpt lat="44.1887" lon="0.59438">
        <ele>58</ele>
        <time>2026-02-22T14:08:07.188Z</time>
      </trkpt>
      <trkpt lat="44.18869" lon="0.59439">
        <ele>58</ele>
        <time>2026-02-22T14:08:08.188Z</time>
      </trkpt>
      <trkpt lat="44.18868" lon="0.5944">
        <ele>58</ele>
        <time>2026-02-22T14:08:09.188Z</time>
      </trkpt>
      <trkpt lat="44.18867" lon="0.59442">
        <ele>58</ele>
        <time>2026-02-22T14:08:10.188Z</time>
      </trkpt>
      <trkpt lat="44.18866" lon="0.59443">
        <ele>57</ele>
        <time>2026-02-22T14:08:11.188Z</time>
      </trkpt>
      <trkpt lat="44.18865" lon="0.59445">
        <ele>57</ele>
        <time>2026-02-22T14:08:12.188Z</time>
      </trkpt>
      <trkpt lat="44.18864" lon="0.59446">
        <ele>57</ele>
        <time>2026-02-22T14:08:13.188Z</time>
      </trkpt>
      <trkpt lat="44.18863" lon="0.59447">
        <ele>57</ele>
        <time>2026-02-22T14:08:14.188Z</time>
      </trkpt>
      <trkpt lat="44.18862" lon="0.59448">
        <ele>57</ele>
        <time>2026-02-22T14:08:15.188Z</time>
      </trkpt>
      <trkpt lat="44.18861" lon="0.59449">
        <ele>57</ele>
        <time>2026-02-22T14:08:16.189Z</time>
      </trkpt>
      <trkpt lat="44.18861" lon="0.5945">
        <ele>57</ele>
        <time>2026-02-22T14:08:17.188Z</time>
      </trkpt>
      <trkpt lat="44.1886" lon="0.5945">
        <ele>57</ele>
        <time>2026-02-22T14:08:18.189Z</time>
      </trkpt>
      <trkpt lat="44.18859" lon="0.59452">
        <ele>57</ele>
        <time>2026-02-22T14:08:19.188Z</time>
      </trkpt>
      <trkpt lat="44.18859" lon="0.59453">
        <ele>57</ele>
        <time>2026-02-22T14:08:20.188Z</time>
      </trkpt>
      <trkpt lat="44.18858" lon="0.59453">
        <ele>58</ele>
        <time>2026-02-22T14:08:21.188Z</time>
      </trkpt>
      <trkpt lat="44.18859" lon="0.59454">
        <ele>58</ele>
        <time>2026-02-22T14:08:22.188Z</time>
      </trkpt>
      <trkpt lat="44.18859" lon="0.59455">
        <ele>58</ele>
        <time>2026-02-22T14:08:23.188Z</time>
      </trkpt>
      <trkpt lat="44.18859" lon="0.59456">
        <ele>58</ele>
        <time>2026-02-22T14:08:24.188Z</time>
      </trkpt>
      <trkpt lat="44.18859" lon="0.59456">
        <ele>59</ele>
        <time>2026-02-22T14:08:25.188Z</time>
      </trkpt>
      <trkpt lat="44.18859" lon="0.59458">
        <ele>59</ele>
        <time>2026-02-22T14:08:26.188Z</time>
      </trkpt>
      <trkpt lat="44.18859" lon="0.59459">
        <ele>59</ele>
        <time>2026-02-22T14:08:27.188Z</time>
      </trkpt>
      <trkpt lat="44.18858" lon="0.5946">
        <ele>59</ele>
        <time>2026-02-22T14:08:28.188Z</time>
      </trkpt>
      <trkpt lat="44.18858" lon="0.59461">
        <ele>60</ele>
        <time>2026-02-22T14:08:29.188Z</time>
      </trkpt>
      <trkpt lat="44.18857" lon="0.59461">
        <ele>60</ele>
        <time>2026-02-22T14:08:30.188Z</time>
      </trkpt>
      <trkpt lat="44.18857" lon="0.59461">
        <ele>60</ele>
        <time>2026-02-22T14:08:31.188Z</time>
      </trkpt>
      <trkpt lat="44.18857" lon="0.59461">
        <ele>61</ele>
        <time>2026-02-22T14:08:32.188Z</time>
      </trkpt>
      <trkpt lat="44.18857" lon="0.59462">
        <ele>61</ele>
        <time>2026-02-22T14:08:33.188Z</time>
      </trkpt>
      <trkpt lat="44.18858" lon="0.59463">
        <ele>61</ele>
        <time>2026-02-22T14:08:34.188Z</time>
      </trkpt>
      <trkpt lat="44.18859" lon="0.59465">
        <ele>62</ele>
        <time>2026-02-22T14:08:35.188Z</time>
      </trkpt>
      <trkpt lat="44.18859" lon="0.59466">
        <ele>62</ele>
        <time>2026-02-22T14:08:36.188Z</time>
      </trkpt>
      <trkpt lat="44.18858" lon="0.59469">
        <ele>62</ele>
        <time>2026-02-22T14:08:37.188Z</time>
      </trkpt>
      <trkpt lat="44.18857" lon="0.5947">
        <ele>62</ele>
        <time>2026-02-22T14:08:38.188Z</time>
      </trkpt>
      <trkpt lat="44.18857" lon="0.59472">
        <ele>62</ele>
        <time>2026-02-22T14:08:39.188Z</time>
      </trkpt>
      <trkpt lat="44.18856" lon="0.59473">
        <ele>61</ele>
        <time>2026-02-22T14:08:40.189Z</time>
      </trkpt>
      <trkpt lat="44.18856" lon="0.59474">
        <ele>61</ele>
        <time>2026-02-22T14:08:41.189Z</time>
      </trkpt>
      <trkpt lat="44.18855" lon="0.59476">
        <ele>60</ele>
        <time>2026-02-22T14:08:42.188Z</time>
      </trkpt>
      <trkpt lat="44.18855" lon="0.59477">
        <ele>60</ele>
        <time>2026-02-22T14:08:43.188Z</time>
      </trkpt>
      <trkpt lat="44.18854" lon="0.59478">
        <ele>59</ele>
        <time>2026-02-22T14:08:44.188Z</time>
      </trkpt>
      <trkpt lat="44.18853" lon="0.59479">
        <ele>58</ele>
        <time>2026-02-22T14:08:45.188Z</time>
      </trkpt>
      <trkpt lat="44.18852" lon="0.5948">
        <ele>58</ele>
        <time>2026-02-22T14:08:46.189Z</time>
      </trkpt>
      <trkpt lat="44.18852" lon="0.59481">
        <ele>58</ele>
        <time>2026-02-22T14:08:47.188Z</time>
      </trkpt>
      <trkpt lat="44.18852" lon="0.59482">
        <ele>58</ele>
        <time>2026-02-22T14:08:48.188Z</time>
      </trkpt>
      <trkpt lat="44.18851" lon="0.59482">
        <ele>58</ele>
        <time>2026-02-22T14:08:49.188Z</time>
      </trkpt>
      <trkpt lat="44.1885" lon="0.59483">
        <ele>58</ele>
        <time>2026-02-22T14:08:50.188Z</time>
      </trkpt>
      <trkpt lat="44.1885" lon="0.59483">
        <ele>58</ele>
        <time>2026-02-22T14:08:51.188Z</time>
      </trkpt>
      <trkpt lat="44.1885" lon="0.59483">
        <ele>58</ele>
        <time>2026-02-22T14:08:52.188Z</time>
      </trkpt>
      <trkpt lat="44.18849" lon="0.59484">
        <ele>58</ele>
        <time>2026-02-22T14:08:53.188Z</time>
      </trkpt>
      <trkpt lat="44.18849" lon="0.59484">
        <ele>58</ele>
        <time>2026-02-22T14:08:54.188Z</time>
      </trkpt>
      <trkpt lat="44.18849" lon="0.59484">
        <ele>58</ele>
        <time>2026-02-22T14:08:55.188Z</time>
      </trkpt>
      <trkpt lat="44.18849" lon="0.59484">
        <ele>58</ele>
        <time>2026-02-22T14:08:56.189Z</time>
      </trkpt>
      <trkpt lat="44.18849" lon="0.59484">
        <ele>58</ele>
        <time>2026-02-22T14:08:57.188Z</time>
      </trkpt>
      <trkpt lat="44.18848" lon="0.59484">
        <ele>58</ele>
        <time>2026-02-22T14:08:58.188Z</time>
      </trkpt>
      <trkpt lat="44.18848" lon="0.59484">
        <ele>59</ele>
        <time>2026-02-22T14:08:59.188Z</time>
      </trkpt>
      <trkpt lat="44.18848" lon="0.59484">
        <ele>59</ele>
        <time>2026-02-22T14:09:00.188Z</time>
      </trkpt>
      <trkpt lat="44.18848" lon="0.59484">
        <ele>59</ele>
        <time>2026-02-22T14:09:01.189Z</time>
      </trkpt>
      <trkpt lat="44.18848" lon="0.59485">
        <ele>59</ele>
        <time>2026-02-22T14:09:02.188Z</time>
      </trkpt>
      <trkpt lat="44.18847" lon="0.59485">
        <ele>59</ele>
        <time>2026-02-22T14:09:03.188Z</time>
      </trkpt>
      <trkpt lat="44.18847" lon="0.59485">
        <ele>59</ele>
        <time>2026-02-22T14:09:04.188Z</time>
      </trkpt>
      <trkpt lat="44.18847" lon="0.59485">
        <ele>58</ele>
        <time>2026-02-22T14:09:05.188Z</time>
      </trkpt>
      <trkpt lat="44.18847" lon="0.59485">
        <ele>58</ele>
        <time>2026-02-22T14:09:06.188Z</time>
      </trkpt>
      <trkpt lat="44.18846" lon="0.59485">
        <ele>58</ele>
        <time>2026-02-22T14:09:07.188Z</time>
      </trkpt>
      <trkpt lat="44.18846" lon="0.59484">
        <ele>57</ele>
        <time>2026-02-22T14:09:08.188Z</time>
      </trkpt>
      <trkpt lat="44.18845" lon="0.59484">
        <ele>57</ele>
        <time>2026-02-22T14:09:09.188Z</time>
      </trkpt>
      <trkpt lat="44.18845" lon="0.59483">
        <ele>57</ele>
        <time>2026-02-22T14:09:10.188Z</time>
      </trkpt>
      <trkpt lat="44.18845" lon="0.59483">
        <ele>57</ele>
        <time>2026-02-22T14:09:11.188Z</time>
      </trkpt>
      <trkpt lat="44.18845" lon="0.59483">
        <ele>57</ele>
        <time>2026-02-22T14:09:12.189Z</time>
      </trkpt>
      <trkpt lat="44.18845" lon="0.59483">
        <ele>57</ele>
        <time>2026-02-22T14:09:13.188Z</time>
      </trkpt>
      <trkpt lat="44.18845" lon="0.59483">
        <ele>57</ele>
        <time>2026-02-22T14:09:14.188Z</time>
      </trkpt>
      <trkpt lat="44.18845" lon="0.59483">
        <ele>57</ele>
        <time>2026-02-22T14:09:15.188Z</time>
      </trkpt>
      <trkpt lat="44.18845" lon="0.59483">
        <ele>57</ele>
        <time>2026-02-22T14:09:16.189Z</time>
      </trkpt>
      <trkpt lat="44.18845" lon="0.59483">
        <ele>57</ele>
        <time>2026-02-22T14:09:17.188Z</time>
      </trkpt>
      <trkpt lat="44.18845" lon="0.59483">
        <ele>56</ele>
        <time>2026-02-22T14:09:18.188Z</time>
      </trkpt>
      <trkpt lat="44.18845" lon="0.59484">
        <ele>56</ele>
        <time>2026-02-22T14:09:19.188Z</time>
      </trkpt>
      <trkpt lat="44.18845" lon="0.59484">
        <ele>56</ele>
        <time>2026-02-22T14:09:20.188Z</time>
      </trkpt>
      <trkpt lat="44.18845" lon="0.59484">
        <ele>56</ele>
        <time>2026-02-22T14:09:21.188Z</time>
      </trkpt>
      <trkpt lat="44.18846" lon="0.59484">
        <ele>56</ele>
        <time>2026-02-22T14:09:22.188Z</time>
      </trkpt>
      <trkpt lat="44.18846" lon="0.59484">
        <ele>57</ele>
        <time>2026-02-22T14:09:23.188Z</time>
      </trkpt>
      <trkpt lat="44.18846" lon="0.59484">
        <ele>57</ele>
        <time>2026-02-22T14:09:24.188Z</time>
      </trkpt>
      <trkpt lat="44.18846" lon="0.59484">
        <ele>57</ele>
        <time>2026-02-22T14:09:25.188Z</time>
      </trkpt>
      <trkpt lat="44.18846" lon="0.59484">
        <ele>57</ele>
        <time>2026-02-22T14:09:26.188Z</time>
      </trkpt>
      <trkpt lat="44.18846" lon="0.59484">
        <ele>56</ele>
        <time>2026-02-22T14:09:27.188Z</time>
      </trkpt>
      <trkpt lat="44.18846" lon="0.59484">
        <ele>56</ele>
        <time>2026-02-22T14:09:28.188Z</time>
      </trkpt>
      <trkpt lat="44.18846" lon="0.59484">
        <ele>56</ele>
        <time>2026-02-22T14:09:29.188Z</time>
      </trkpt>
      <trkpt lat="44.18846" lon="0.59484">
        <ele>55</ele>
        <time>2026-02-22T14:09:30.188Z</time>
      </trkpt>
      <trkpt lat="44.18846" lon="0.59484">
        <ele>55</ele>
        <time>2026-02-22T14:09:31.188Z</time>
      </trkpt>
      <trkpt lat="44.18846" lon="0.59484">
        <ele>55</ele>
        <time>2026-02-22T14:09:32.188Z</time>
      </trkpt>
      <trkpt lat="44.18846" lon="0.59484">
        <ele>55</ele>
        <time>2026-02-22T14:09:33.188Z</time>
      </trkpt>
      <trkpt lat="44.18846" lon="0.59484">
        <ele>54</ele>
        <time>2026-02-22T14:09:34.188Z</time>
      </trkpt>
      <trkpt lat="44.18846" lon="0.59484">
        <ele>54</ele>
        <time>2026-02-22T14:09:35.188Z</time>
      </trkpt>
      <trkpt lat="44.18846" lon="0.59484">
        <ele>54</ele>
        <time>2026-02-22T14:09:36.188Z</time>
      </trkpt>
      <trkpt lat="44.18846" lon="0.59484">
        <ele>55</ele>
        <time>2026-02-22T14:09:37.188Z</time>
      </trkpt>
      <trkpt lat="44.18846" lon="0.59484">
        <ele>55</ele>
        <time>2026-02-22T14:09:38.188Z</time>
      </trkpt>
      <trkpt lat="44.18846" lon="0.59484">
        <ele>56</ele>
        <time>2026-02-22T14:09:39.188Z</time>
      </trkpt>
      <trkpt lat="44.18846" lon="0.59484">
        <ele>56</ele>
        <time>2026-02-22T14:09:40.189Z</time>
      </trkpt>
      <trkpt lat="44.18846" lon="0.59484">
        <ele>56</ele>
        <time>2026-02-22T14:09:41.188Z</time>
      </trkpt>
      <trkpt lat="44.18846" lon="0.59484">
        <ele>57</ele>
        <time>2026-02-22T14:09:42.189Z</time>
      </trkpt>
      <trkpt lat="44.18846" lon="0.59484">
        <ele>56</ele>
        <time>2026-02-22T14:09:43.188Z</time>
      </trkpt>
      <trkpt lat="44.18846" lon="0.59484">
        <ele>57</ele>
        <time>2026-02-22T14:09:44.188Z</time>
      </trkpt>
      <trkpt lat="44.18846" lon="0.59484">
        <ele>57</ele>
        <time>2026-02-22T14:09:45.188Z</time>
      </trkpt>
      <trkpt lat="44.18846" lon="0.59484">
        <ele>57</ele>
        <time>2026-02-22T14:09:46.188Z</time>
      </trkpt>
      <trkpt lat="44.18846" lon="0.59484">
        <ele>57</ele>
        <time>2026-02-22T14:09:47.188Z</time>
      </trkpt>
      <trkpt lat="44.18846" lon="0.59484">
        <ele>57</ele>
        <time>2026-02-22T14:09:48.188Z</time>
      </trkpt>
      <trkpt lat="44.18846" lon="0.59484">
        <ele>57</ele>
        <time>2026-02-22T14:09:49.188Z</time>
      </trkpt>
      <trkpt lat="44.18846" lon="0.59484">
        <ele>57</ele>
        <time>2026-02-22T14:09:50.188Z</time>
      </trkpt>
      <trkpt lat="44.18846" lon="0.59484">
        <ele>57</ele>
        <time>2026-02-22T14:09:51.188Z</time>
      </trkpt>
      <trkpt lat="44.18846" lon="0.59484">
        <ele>57</ele>
        <time>2026-02-22T14:09:52.189Z</time>
      </trkpt>
      <trkpt lat="44.18846" lon="0.59484">
        <ele>57</ele>
        <time>2026-02-22T14:09:53.188Z</time>
      </trkpt>
      <trkpt lat="44.18846" lon="0.59484">
        <ele>57</ele>
        <time>2026-02-22T14:09:54.188Z</time>
      </trkpt>
      <trkpt lat="44.18846" lon="0.59484">
        <ele>57</ele>
        <time>2026-02-22T14:09:55.188Z</time>
      </trkpt>
      <trkpt lat="44.18846" lon="0.59484">
        <ele>57</ele>
        <time>2026-02-22T14:09:56.188Z</time>
      </trkpt>
      <trkpt lat="44.18846" lon="0.59483">
        <ele>57</ele>
        <time>2026-02-22T14:09:57.189Z</time>
      </trkpt>
      <trkpt lat="44.18846" lon="0.59483">
        <ele>57</ele>
        <time>2026-02-22T14:09:58.188Z</time>
      </trkpt>
      <trkpt lat="44.18846" lon="0.59483">
        <ele>58</ele>
        <time>2026-02-22T14:09:59.188Z</time>
      </trkpt>
      <trkpt lat="44.18847" lon="0.59483">
        <ele>58</ele>
        <time>2026-02-22T14:10:00.188Z</time>
      </trkpt>
      <trkpt lat="44.18847" lon="0.59483">
        <ele>58</ele>
        <time>2026-02-22T14:10:01.188Z</time>
      </trkpt>
      <trkpt lat="44.18847" lon="0.59483">
        <ele>58</ele>
        <time>2026-02-22T14:10:02.188Z</time>
      </trkpt>
      <trkpt lat="44.18847" lon="0.59483">
        <ele>58</ele>
        <time>2026-02-22T14:10:03.188Z</time>
      </trkpt>
      <trkpt lat="44.18847" lon="0.59483">
        <ele>59</ele>
        <time>2026-02-22T14:10:04.188Z</time>
      </trkpt>
      <trkpt lat="44.18847" lon="0.59483">
        <ele>59</ele>
        <time>2026-02-22T14:10:05.188Z</time>
      </trkpt>
      <trkpt lat="44.18846" lon="0.59483">
        <ele>59</ele>
        <time>2026-02-22T14:10:06.188Z</time>
      </trkpt>
      <trkpt lat="44.18846" lon="0.59483">
        <ele>58</ele>
        <time>2026-02-22T14:10:07.188Z</time>
      </trkpt>
      <trkpt lat="44.18846" lon="0.59483">
        <ele>58</ele>
        <time>2026-02-22T14:10:08.188Z</time>
      </trkpt>
      <trkpt lat="44.18846" lon="0.59483">
        <ele>58</ele>
        <time>2026-02-22T14:10:09.188Z</time>
      </trkpt>
      <trkpt lat="44.18846" lon="0.59483">
        <ele>58</ele>
        <time>2026-02-22T14:10:10.189Z</time>
      </trkpt>
      <trkpt lat="44.18846" lon="0.59483">
        <ele>58</ele>
        <time>2026-02-22T14:10:11.188Z</time>
      </trkpt>
      <trkpt lat="44.18847" lon="0.59483">
        <ele>57</ele>
        <time>2026-02-22T14:10:12.188Z</time>
      </trkpt>
      <trkpt lat="44.18847" lon="0.59484">
        <ele>57</ele>
        <time>2026-02-22T14:10:13.188Z</time>
      </trkpt>
      <trkpt lat="44.18847" lon="0.59484">
        <ele>57</ele>
        <time>2026-02-22T14:10:14.189Z</time>
      </trkpt>
      <trkpt lat="44.18847" lon="0.59484">
        <ele>57</ele>
        <time>2026-02-22T14:10:15.188Z</time>
      </trkpt>
      <trkpt lat="44.18847" lon="0.59484">
        <ele>56</ele>
        <time>2026-02-22T14:10:16.188Z</time>
      </trkpt>
      <trkpt lat="44.18847" lon="0.59484">
        <ele>56</ele>
        <time>2026-02-22T14:10:17.188Z</time>
      </trkpt>
      <trkpt lat="44.18847" lon="0.59484">
        <ele>56</ele>
        <time>2026-02-22T14:10:18.188Z</time>
      </trkpt>
      <trkpt lat="44.18847" lon="0.59484">
        <ele>57</ele>
        <time>2026-02-22T14:10:19.188Z</time>
      </trkpt>
      <trkpt lat="44.18847" lon="0.59484">
        <ele>57</ele>
        <time>2026-02-22T14:10:20.188Z</time>
      </trkpt>
      <trkpt lat="44.18847" lon="0.59484">
        <ele>57</ele>
        <time>2026-02-22T14:10:21.188Z</time>
      </trkpt>
      <trkpt lat="44.18847" lon="0.59484">
        <ele>57</ele>
        <time>2026-02-22T14:10:22.188Z</time>
      </trkpt>
      <trkpt lat="44.18847" lon="0.59484">
        <ele>57</ele>
        <time>2026-02-22T14:10:23.188Z</time>
      </trkpt>
      <trkpt lat="44.18847" lon="0.59484">
        <ele>57</ele>
        <time>2026-02-22T14:10:24.188Z</time>
      </trkpt>
      <trkpt lat="44.18847" lon="0.59484">
        <ele>57</ele>
        <time>2026-02-22T14:10:25.189Z</time>
      </trkpt>
      <trkpt lat="44.18847" lon="0.59484">
        <ele>57</ele>
        <time>2026-02-22T14:10:26.188Z</time>
      </trkpt>
      <trkpt lat="44.18847" lon="0.59484">
        <ele>58</ele>
        <time>2026-02-22T14:10:27.188Z</time>
      </trkpt>
      <trkpt lat="44.18847" lon="0.59484">
        <ele>58</ele>
        <time>2026-02-22T14:10:28.188Z</time>
      </trkpt>
      <trkpt lat="44.18847" lon="0.59484">
        <ele>58</ele>
        <time>2026-02-22T14:10:29.188Z</time>
      </trkpt>
      <trkpt lat="44.18848" lon="0.59484">
        <ele>58</ele>
        <time>2026-02-22T14:10:30.188Z</time>
      </trkpt>
      <trkpt lat="44.18848" lon="0.59483">
        <ele>59</ele>
        <time>2026-02-22T14:10:31.188Z</time>
      </trkpt>
      <trkpt lat="44.18848" lon="0.59483">
        <ele>59</ele>
        <time>2026-02-22T14:10:32.188Z</time>
      </trkpt>
      <trkpt lat="44.18849" lon="0.59482">
        <ele>58</ele>
        <time>2026-02-22T14:10:33.188Z</time>
      </trkpt>
      <trkpt lat="44.18849" lon="0.59482">
        <ele>58</ele>
        <time>2026-02-22T14:10:34.188Z</time>
      </trkpt>
      <trkpt lat="44.1885" lon="0.59481">
        <ele>59</ele>
        <time>2026-02-22T14:10:35.188Z</time>
      </trkpt>
      <trkpt lat="44.1885" lon="0.59481">
        <ele>59</ele>
        <time>2026-02-22T14:10:36.188Z</time>
      </trkpt>
      <trkpt lat="44.1885" lon="0.59481">
        <ele>59</ele>
        <time>2026-02-22T14:10:37.188Z</time>
      </trkpt>
      <trkpt lat="44.1885" lon="0.5948">
        <ele>60</ele>
        <time>2026-02-22T14:10:38.189Z</time>
      </trkpt>
      <trkpt lat="44.18851" lon="0.5948">
        <ele>60</ele>
        <time>2026-02-22T14:10:39.188Z</time>
      </trkpt>
      <trkpt lat="44.18851" lon="0.5948">
        <ele>60</ele>
        <time>2026-02-22T14:10:40.188Z</time>
      </trkpt>
      <trkpt lat="44.18851" lon="0.5948">
        <ele>60</ele>
        <time>2026-02-22T14:10:41.188Z</time>
      </trkpt>
      <trkpt lat="44.18851" lon="0.59479">
        <ele>61</ele>
        <time>2026-02-22T14:10:42.188Z</time>
      </trkpt>
      <trkpt lat="44.18851" lon="0.5948">
        <ele>61</ele>
        <time>2026-02-22T14:10:43.188Z</time>
      </trkpt>
      <trkpt lat="44.18851" lon="0.5948">
        <ele>61</ele>
        <time>2026-02-22T14:10:44.188Z</time>
      </trkpt>
      <trkpt lat="44.18851" lon="0.5948">
        <ele>61</ele>
        <time>2026-02-22T14:10:45.188Z</time>
      </trkpt>
      <trkpt lat="44.18851" lon="0.5948">
        <ele>61</ele>
        <time>2026-02-22T14:10:46.188Z</time>
      </trkpt>
      <trkpt lat="44.18851" lon="0.5948">
        <ele>61</ele>
        <time>2026-02-22T14:10:47.188Z</time>
      </trkpt>
      <trkpt lat="44.18852" lon="0.5948">
        <ele>61</ele>
        <time>2026-02-22T14:10:48.188Z</time>
      </trkpt>
      <trkpt lat="44.18852" lon="0.5948">
        <ele>61</ele>
        <time>2026-02-22T14:10:49.188Z</time>
      </trkpt>
      <trkpt lat="44.18852" lon="0.5948">
        <ele>61</ele>
        <time>2026-02-22T14:10:50.188Z</time>
      </trkpt>
      <trkpt lat="44.18851" lon="0.5948">
        <ele>61</ele>
        <time>2026-02-22T14:10:51.188Z</time>
      </trkpt>
      <trkpt lat="44.18851" lon="0.5948">
        <ele>62</ele>
        <time>2026-02-22T14:10:52.188Z</time>
      </trkpt>
      <trkpt lat="44.18851" lon="0.5948">
        <ele>62</ele>
        <time>2026-02-22T14:10:53.189Z</time>
      </trkpt>
      <trkpt lat="44.18851" lon="0.5948">
        <ele>62</ele>
        <time>2026-02-22T14:10:54.188Z</time>
      </trkpt>
      <trkpt lat="44.18851" lon="0.59479">
        <ele>62</ele>
        <time>2026-02-22T14:10:55.188Z</time>
      </trkpt>
      <trkpt lat="44.18851" lon="0.59479">
        <ele>62</ele>
        <time>2026-02-22T14:10:56.188Z</time>
      </trkpt>
      <trkpt lat="44.18851" lon="0.59479">
        <ele>61</ele>
        <time>2026-02-22T14:10:57.188Z</time>
      </trkpt>
      <trkpt lat="44.18851" lon="0.59479">
        <ele>61</ele>
        <time>2026-02-22T14:10:58.188Z</time>
      </trkpt>
      <trkpt lat="44.18851" lon="0.59479">
        <ele>61</ele>
        <time>2026-02-22T14:10:59.188Z</time>
      </trkpt>
      <trkpt lat="44.18851" lon="0.59479">
        <ele>61</ele>
        <time>2026-02-22T14:11:00.188Z</time>
      </trkpt>
      <trkpt lat="44.18851" lon="0.59479">
        <ele>61</ele>
        <time>2026-02-22T14:11:01.188Z</time>
      </trkpt>
      <trkpt lat="44.18851" lon="0.59479">
        <ele>61</ele>
        <time>2026-02-22T14:11:02.189Z</time>
      </trkpt>
      <trkpt lat="44.18851" lon="0.59479">
        <ele>61</ele>
        <time>2026-02-22T14:11:03.188Z</time>
      </trkpt>
      <trkpt lat="44.18851" lon="0.59479">
        <ele>61</ele>
        <time>2026-02-22T14:11:04.188Z</time>
      </trkpt>
      <trkpt lat="44.18851" lon="0.59479">
        <ele>60</ele>
        <time>2026-02-22T14:11:05.188Z</time>
      </trkpt>
      <trkpt lat="44.18851" lon="0.59479">
        <ele>60</ele>
        <time>2026-02-22T14:11:06.188Z</time>
      </trkpt>
      <trkpt lat="44.18851" lon="0.59479">
        <ele>59</ele>
        <time>2026-02-22T14:11:07.188Z</time>
      </trkpt>
      <trkpt lat="44.18851" lon="0.5948">
        <ele>59</ele>
        <time>2026-02-22T14:11:08.189Z</time>
      </trkpt>
      <trkpt lat="44.18851" lon="0.59481">
        <ele>59</ele>
        <time>2026-02-22T14:11:09.188Z</time>
      </trkpt>
      <trkpt lat="44.1885" lon="0.59481">
        <ele>59</ele>
        <time>2026-02-22T14:11:10.188Z</time>
      </trkpt>
      <trkpt lat="44.18849" lon="0.59482">
        <ele>59</ele>
        <time>2026-02-22T14:11:11.188Z</time>
      </trkpt>
      <trkpt lat="44.18849" lon="0.59483">
        <ele>58</ele>
        <time>2026-02-22T14:11:12.188Z</time>
      </trkpt>
      <trkpt lat="44.18848" lon="0.59485">
        <ele>58</ele>
        <time>2026-02-22T14:11:13.188Z</time>
      </trkpt>
      <trkpt lat="44.18847" lon="0.59486">
        <ele>57</ele>
        <time>2026-02-22T14:11:14.188Z</time>
      </trkpt>
      <trkpt lat="44.18845" lon="0.59487">
        <ele>57</ele>
        <time>2026-02-22T14:11:15.188Z</time>
      </trkpt>
      <trkpt lat="44.18845" lon="0.59488">
        <ele>57</ele>
        <time>2026-02-22T14:11:16.189Z</time>
      </trkpt>
      <trkpt lat="44.18844" lon="0.5949">
        <ele>57</ele>
        <time>2026-02-22T14:11:17.188Z</time>
      </trkpt>
      <trkpt lat="44.18843" lon="0.59491">
        <ele>57</ele>
        <time>2026-02-22T14:11:18.188Z</time>
      </trkpt>
      <trkpt lat="44.18842" lon="0.59493">
        <ele>58</ele>
        <time>2026-02-22T14:11:19.188Z</time>
      </trkpt>
      <trkpt lat="44.18841" lon="0.59493">
        <ele>58</ele>
        <time>2026-02-22T14:11:20.188Z</time>
      </trkpt>
      <trkpt lat="44.1884" lon="0.59495">
        <ele>58</ele>
        <time>2026-02-22T14:11:21.188Z</time>
      </trkpt>
      <trkpt lat="44.18839" lon="0.59496">
        <ele>57</ele>
        <time>2026-02-22T14:11:22.188Z</time>
      </trkpt>
      <trkpt lat="44.18838" lon="0.59497">
        <ele>57</ele>
        <time>2026-02-22T14:11:23.188Z</time>
      </trkpt>
      <trkpt lat="44.18838" lon="0.59498">
        <ele>57</ele>
        <time>2026-02-22T14:11:24.188Z</time>
      </trkpt>
      <trkpt lat="44.18837" lon="0.59499">
        <ele>57</ele>
        <time>2026-02-22T14:11:25.188Z</time>
      </trkpt>
      <trkpt lat="44.18836" lon="0.595">
        <ele>56</ele>
        <time>2026-02-22T14:11:26.188Z</time>
      </trkpt>
      <trkpt lat="44.18835" lon="0.59501">
        <ele>55</ele>
        <time>2026-02-22T14:11:27.188Z</time>
      </trkpt>
      <trkpt lat="44.18834" lon="0.59503">
        <ele>55</ele>
        <time>2026-02-22T14:11:28.188Z</time>
      </trkpt>
      <trkpt lat="44.18833" lon="0.59504">
        <ele>55</ele>
        <time>2026-02-22T14:11:29.188Z</time>
      </trkpt>
      <trkpt lat="44.18832" lon="0.59505">
        <ele>56</ele>
        <time>2026-02-22T14:11:30.188Z</time>
      </trkpt>
      <trkpt lat="44.18831" lon="0.59506">
        <ele>56</ele>
        <time>2026-02-22T14:11:31.188Z</time>
      </trkpt>
      <trkpt lat="44.18829" lon="0.59507">
        <ele>56</ele>
        <time>2026-02-22T14:11:32.188Z</time>
      </trkpt>
      <trkpt lat="44.18829" lon="0.59507">
        <ele>56</ele>
        <time>2026-02-22T14:11:33.188Z</time>
      </trkpt>
      <trkpt lat="44.18827" lon="0.59508">
        <ele>56</ele>
        <time>2026-02-22T14:11:34.188Z</time>
      </trkpt>
      <trkpt lat="44.18827" lon="0.59508">
        <ele>56</ele>
        <time>2026-02-22T14:11:35.188Z</time>
      </trkpt>
      <trkpt lat="44.18826" lon="0.59508">
        <ele>56</ele>
        <time>2026-02-22T14:11:36.188Z</time>
      </trkpt>
      <trkpt lat="44.18826" lon="0.59508">
        <ele>56</ele>
        <time>2026-02-22T14:11:37.188Z</time>
      </trkpt>
      <trkpt lat="44.18826" lon="0.59508">
        <ele>56</ele>
        <time>2026-02-22T14:11:38.189Z</time>
      </trkpt>
      <trkpt lat="44.18825" lon="0.59509">
        <ele>56</ele>
        <time>2026-02-22T14:11:39.189Z</time>
      </trkpt>
      <trkpt lat="44.18825" lon="0.59509">
        <ele>56</ele>
        <time>2026-02-22T14:11:40.188Z</time>
      </trkpt>
      <trkpt lat="44.18824" lon="0.59509">
        <ele>56</ele>
        <time>2026-02-22T14:11:41.188Z</time>
      </trkpt>
      <trkpt lat="44.18823" lon="0.5951">
        <ele>57</ele>
        <time>2026-02-22T14:11:42.188Z</time>
      </trkpt>
      <trkpt lat="44.18822" lon="0.59511">
        <ele>57</ele>
        <time>2026-02-22T14:11:43.188Z</time>
      </trkpt>
      <trkpt lat="44.18821" lon="0.59511">
        <ele>57</ele>
        <time>2026-02-22T14:11:44.188Z</time>
      </trkpt>
      <trkpt lat="44.1882" lon="0.59511">
        <ele>57</ele>
        <time>2026-02-22T14:11:45.188Z</time>
      </trkpt>
      <trkpt lat="44.18819" lon="0.59511">
        <ele>57</ele>
        <time>2026-02-22T14:11:46.188Z</time>
      </trkpt>
      <trkpt lat="44.18818" lon="0.59512">
        <ele>57</ele>
        <time>2026-02-22T14:11:47.188Z</time>
      </trkpt>
      <trkpt lat="44.18817" lon="0.59512">
        <ele>57</ele>
        <time>2026-02-22T14:11:48.188Z</time>
      </trkpt>
      <trkpt lat="44.18816" lon="0.59513">
        <ele>57</ele>
        <time>2026-02-22T14:11:49.188Z</time>
      </trkpt>
      <trkpt lat="44.18815" lon="0.59513">
        <ele>57</ele>
        <time>2026-02-22T14:11:50.188Z</time>
      </trkpt>
      <trkpt lat="44.18814" lon="0.59514">
        <ele>58</ele>
        <time>2026-02-22T14:11:51.188Z</time>
      </trkpt>
      <trkpt lat="44.18812" lon="0.59515">
        <ele>58</ele>
        <time>2026-02-22T14:11:52.188Z</time>
      </trkpt>
      <trkpt lat="44.18811" lon="0.59515">
        <ele>58</ele>
        <time>2026-02-22T14:11:53.188Z</time>
      </trkpt>
      <trkpt lat="44.1881" lon="0.59516">
        <ele>58</ele>
        <time>2026-02-22T14:11:54.188Z</time>
      </trkpt>
      <trkpt lat="44.18808" lon="0.59517">
        <ele>58</ele>
        <time>2026-02-22T14:11:55.189Z</time>
      </trkpt>
      <trkpt lat="44.18807" lon="0.59518">
        <ele>58</ele>
        <time>2026-02-22T14:11:56.188Z</time>
      </trkpt>
      <trkpt lat="44.18805" lon="0.59519">
        <ele>59</ele>
        <time>2026-02-22T14:11:57.188Z</time>
      </trkpt>
      <trkpt lat="44.18804" lon="0.5952">
        <ele>59</ele>
        <time>2026-02-22T14:11:58.188Z</time>
      </trkpt>
      <trkpt lat="44.18803" lon="0.59521">
        <ele>58</ele>
        <time>2026-02-22T14:11:59.188Z</time>
      </trkpt>
      <trkpt lat="44.18802" lon="0.59522">
        <ele>58</ele>
        <time>2026-02-22T14:12:00.188Z</time>
      </trkpt>
      <trkpt lat="44.18801" lon="0.59522">
        <ele>58</ele>
        <time>2026-02-22T14:12:01.188Z</time>
      </trkpt>
      <trkpt lat="44.188" lon="0.59523">
        <ele>58</ele>
        <time>2026-02-22T14:12:02.188Z</time>
      </trkpt>
      <trkpt lat="44.18799" lon="0.59523">
        <ele>59</ele>
        <time>2026-02-22T14:12:03.188Z</time>
      </trkpt>
      <trkpt lat="44.18798" lon="0.59524">
        <ele>59</ele>
        <time>2026-02-22T14:12:04.188Z</time>
      </trkpt>
      <trkpt lat="44.18797" lon="0.59525">
        <ele>58</ele>
        <time>2026-02-22T14:12:05.188Z</time>
      </trkpt>
      <trkpt lat="44.18796" lon="0.59525">
        <ele>58</ele>
        <time>2026-02-22T14:12:06.188Z</time>
      </trkpt>
      <trkpt lat="44.18795" lon="0.59526">
        <ele>58</ele>
        <time>2026-02-22T14:12:07.188Z</time>
      </trkpt>
      <trkpt lat="44.18794" lon="0.59526">
        <ele>58</ele>
        <time>2026-02-22T14:12:08.188Z</time>
      </trkpt>
      <trkpt lat="44.18793" lon="0.59527">
        <ele>59</ele>
        <time>2026-02-22T14:12:09.189Z</time>
      </trkpt>
      <trkpt lat="44.18792" lon="0.59528">
        <ele>59</ele>
        <time>2026-02-22T14:12:10.188Z</time>
      </trkpt>
      <trkpt lat="44.18791" lon="0.59528">
        <ele>60</ele>
        <time>2026-02-22T14:12:11.188Z</time>
      </trkpt>
      <trkpt lat="44.1879" lon="0.59529">
        <ele>60</ele>
        <time>2026-02-22T14:12:12.188Z</time>
      </trkpt>
      <trkpt lat="44.18789" lon="0.59529">
        <ele>60</ele>
        <time>2026-02-22T14:12:13.188Z</time>
      </trkpt>
      <trkpt lat="44.18788" lon="0.5953">
        <ele>60</ele>
        <time>2026-02-22T14:12:14.188Z</time>
      </trkpt>
      <trkpt lat="44.18787" lon="0.59531">
        <ele>60</ele>
        <time>2026-02-22T14:12:15.188Z</time>
      </trkpt>
      <trkpt lat="44.18786" lon="0.59532">
        <ele>60</ele>
        <time>2026-02-22T14:12:16.189Z</time>
      </trkpt>
      <trkpt lat="44.18785" lon="0.59533">
        <ele>60</ele>
        <time>2026-02-22T14:12:17.189Z</time>
      </trkpt>
      <trkpt lat="44.18784" lon="0.59533">
        <ele>60</ele>
        <time>2026-02-22T14:12:18.188Z</time>
      </trkpt>
      <trkpt lat="44.18783" lon="0.59534">
        <ele>60</ele>
        <time>2026-02-22T14:12:19.188Z</time>
      </trkpt>
      <trkpt lat="44.18782" lon="0.59534">
        <ele>60</ele>
        <time>2026-02-22T14:12:20.188Z</time>
      </trkpt>
      <trkpt lat="44.18781" lon="0.59534">
        <ele>60</ele>
        <time>2026-02-22T14:12:21.188Z</time>
      </trkpt>
      <trkpt lat="44.1878" lon="0.59535">
        <ele>60</ele>
        <time>2026-02-22T14:12:22.189Z</time>
      </trkpt>
      <trkpt lat="44.18779" lon="0.59535">
        <ele>60</ele>
        <time>2026-02-22T14:12:23.188Z</time>
      </trkpt>
      <trkpt lat="44.18777" lon="0.59536">
        <ele>60</ele>
        <time>2026-02-22T14:12:24.189Z</time>
      </trkpt>
      <trkpt lat="44.18776" lon="0.59537">
        <ele>60</ele>
        <time>2026-02-22T14:12:25.188Z</time>
      </trkpt>
      <trkpt lat="44.18775" lon="0.59538">
        <ele>61</ele>
        <time>2026-02-22T14:12:26.188Z</time>
      </trkpt>
      <trkpt lat="44.18774" lon="0.59538">
        <ele>61</ele>
        <time>2026-02-22T14:12:27.188Z</time>
      </trkpt>
      <trkpt lat="44.18773" lon="0.59538">
        <ele>61</ele>
        <time>2026-02-22T14:12:28.188Z</time>
      </trkpt>
      <trkpt lat="44.18771" lon="0.59539">
        <ele>61</ele>
        <time>2026-02-22T14:12:29.188Z</time>
      </trkpt>
      <trkpt lat="44.1877" lon="0.59539">
        <ele>61</ele>
        <time>2026-02-22T14:12:30.188Z</time>
      </trkpt>
      <trkpt lat="44.18769" lon="0.5954">
        <ele>62</ele>
        <time>2026-02-22T14:12:31.188Z</time>
      </trkpt>
      <trkpt lat="44.18768" lon="0.5954">
        <ele>62</ele>
        <time>2026-02-22T14:12:32.188Z</time>
      </trkpt>
      <trkpt lat="44.18766" lon="0.59541">
        <ele>62</ele>
        <time>2026-02-22T14:12:33.188Z</time>
      </trkpt>
      <trkpt lat="44.18766" lon="0.59542">
        <ele>62</ele>
        <time>2026-02-22T14:12:34.188Z</time>
      </trkpt>
      <trkpt lat="44.18765" lon="0.59542">
        <ele>62</ele>
        <time>2026-02-22T14:12:35.188Z</time>
      </trkpt>
      <trkpt lat="44.18764" lon="0.59543">
        <ele>62</ele>
        <time>2026-02-22T14:12:36.188Z</time>
      </trkpt>
      <trkpt lat="44.18763" lon="0.59543">
        <ele>62</ele>
        <time>2026-02-22T14:12:37.188Z</time>
      </trkpt>
      <trkpt lat="44.18762" lon="0.59544">
        <ele>62</ele>
        <time>2026-02-22T14:12:38.188Z</time>
      </trkpt>
      <trkpt lat="44.18761" lon="0.59544">
        <ele>62</ele>
        <time>2026-02-22T14:12:39.188Z</time>
      </trkpt>
      <trkpt lat="44.1876" lon="0.59544">
        <ele>62</ele>
        <time>2026-02-22T14:12:40.188Z</time>
      </trkpt>
      <trkpt lat="44.18758" lon="0.59545">
        <ele>62</ele>
        <time>2026-02-22T14:12:41.188Z</time>
      </trkpt>
      <trkpt lat="44.18757" lon="0.59545">
        <ele>62</ele>
        <time>2026-02-22T14:12:42.188Z</time>
      </trkpt>
      <trkpt lat="44.18756" lon="0.59545">
        <ele>62</ele>
        <time>2026-02-22T14:12:43.188Z</time>
      </trkpt>
      <trkpt lat="44.18755" lon="0.59545">
        <ele>62</ele>
        <time>2026-02-22T14:12:44.188Z</time>
      </trkpt>
      <trkpt lat="44.18753" lon="0.59545">
        <ele>62</ele>
        <time>2026-02-22T14:12:45.188Z</time>
      </trkpt>
      <trkpt lat="44.18752" lon="0.59545">
        <ele>62</ele>
        <time>2026-02-22T14:12:46.188Z</time>
      </trkpt>
      <trkpt lat="44.18751" lon="0.59545">
        <ele>62</ele>
        <time>2026-02-22T14:12:47.188Z</time>
      </trkpt>
      <trkpt lat="44.18749" lon="0.59545">
        <ele>62</ele>
        <time>2026-02-22T14:12:48.188Z</time>
      </trkpt>
      <trkpt lat="44.18748" lon="0.59545">
        <ele>61</ele>
        <time>2026-02-22T14:12:49.188Z</time>
      </trkpt>
      <trkpt lat="44.18747" lon="0.59545">
        <ele>62</ele>
        <time>2026-02-22T14:12:50.189Z</time>
      </trkpt>
      <trkpt lat="44.18745" lon="0.59545">
        <ele>61</ele>
        <time>2026-02-22T14:12:51.188Z</time>
      </trkpt>
      <trkpt lat="44.18745" lon="0.59544">
        <ele>61</ele>
        <time>2026-02-22T14:12:52.188Z</time>
      </trkpt>
      <trkpt lat="44.18743" lon="0.59544">
        <ele>61</ele>
        <time>2026-02-22T14:12:53.188Z</time>
      </trkpt>
      <trkpt lat="44.18742" lon="0.59544">
        <ele>61</ele>
        <time>2026-02-22T14:12:54.188Z</time>
      </trkpt>
      <trkpt lat="44.18741" lon="0.59544">
        <ele>61</ele>
        <time>2026-02-22T14:12:55.188Z</time>
      </trkpt>
      <trkpt lat="44.1874" lon="0.59543">
        <ele>61</ele>
        <time>2026-02-22T14:12:56.188Z</time>
      </trkpt>
      <trkpt lat="44.18739" lon="0.59543">
        <ele>61</ele>
        <time>2026-02-22T14:12:57.188Z</time>
      </trkpt>
      <trkpt lat="44.18738" lon="0.59542">
        <ele>60</ele>
        <time>2026-02-22T14:12:58.188Z</time>
      </trkpt>
      <trkpt lat="44.18737" lon="0.59541">
        <ele>60</ele>
        <time>2026-02-22T14:12:59.188Z</time>
      </trkpt>
      <trkpt lat="44.18735" lon="0.59541">
        <ele>60</ele>
        <time>2026-02-22T14:13:00.188Z</time>
      </trkpt>
      <trkpt lat="44.18734" lon="0.5954">
        <ele>60</ele>
        <time>2026-02-22T14:13:01.188Z</time>
      </trkpt>
      <trkpt lat="44.18733" lon="0.5954">
        <ele>60</ele>
        <time>2026-02-22T14:13:02.188Z</time>
      </trkpt>
      <trkpt lat="44.18732" lon="0.59539">
        <ele>60</ele>
        <time>2026-02-22T14:13:03.188Z</time>
      </trkpt>
      <trkpt lat="44.18731" lon="0.59539">
        <ele>60</ele>
        <time>2026-02-22T14:13:04.188Z</time>
      </trkpt>
      <trkpt lat="44.1873" lon="0.59538">
        <ele>60</ele>
        <time>2026-02-22T14:13:05.188Z</time>
      </trkpt>
      <trkpt lat="44.18729" lon="0.59537">
        <ele>60</ele>
        <time>2026-02-22T14:13:06.188Z</time>
      </trkpt>
      <trkpt lat="44.18728" lon="0.59535">
        <ele>60</ele>
        <time>2026-02-22T14:13:07.188Z</time>
      </trkpt>
      <trkpt lat="44.18727" lon="0.59534">
        <ele>60</ele>
        <time>2026-02-22T14:13:08.188Z</time>
      </trkpt>
      <trkpt lat="44.18726" lon="0.59533">
        <ele>60</ele>
        <time>2026-02-22T14:13:09.189Z</time>
      </trkpt>
      <trkpt lat="44.18725" lon="0.59533">
        <ele>60</ele>
        <time>2026-02-22T14:13:10.188Z</time>
      </trkpt>
      <trkpt lat="44.18724" lon="0.59532">
        <ele>60</ele>
        <time>2026-02-22T14:13:11.188Z</time>
      </trkpt>
      <trkpt lat="44.18723" lon="0.59531">
        <ele>60</ele>
        <time>2026-02-22T14:13:12.188Z</time>
      </trkpt>
      <trkpt lat="44.18722" lon="0.5953">
        <ele>60</ele>
        <time>2026-02-22T14:13:13.188Z</time>
      </trkpt>
      <trkpt lat="44.18721" lon="0.5953">
        <ele>60</ele>
        <time>2026-02-22T14:13:14.188Z</time>
      </trkpt>
      <trkpt lat="44.1872" lon="0.5953">
        <ele>60</ele>
        <time>2026-02-22T14:13:15.188Z</time>
      </trkpt>
      <trkpt lat="44.18719" lon="0.59529">
        <ele>60</ele>
        <time>2026-02-22T14:13:16.188Z</time>
      </trkpt>
      <trkpt lat="44.18717" lon="0.59529">
        <ele>61</ele>
        <time>2026-02-22T14:13:17.188Z</time>
      </trkpt>
      <trkpt lat="44.18716" lon="0.59529">
        <ele>62</ele>
        <time>2026-02-22T14:13:18.188Z</time>
      </trkpt>
      <trkpt lat="44.18715" lon="0.59529">
        <ele>62</ele>
        <time>2026-02-22T14:13:19.188Z</time>
      </trkpt>
      <trkpt lat="44.18714" lon="0.59529">
        <ele>62</ele>
        <time>2026-02-22T14:13:20.188Z</time>
      </trkpt>
      <trkpt lat="44.18713" lon="0.59528">
        <ele>62</ele>
        <time>2026-02-22T14:13:21.188Z</time>
      </trkpt>
      <trkpt lat="44.18712" lon="0.59528">
        <ele>63</ele>
        <time>2026-02-22T14:13:22.188Z</time>
      </trkpt>
      <trkpt lat="44.18711" lon="0.59528">
        <ele>63</ele>
        <time>2026-02-22T14:13:23.188Z</time>
      </trkpt>
      <trkpt lat="44.1871" lon="0.59528">
        <ele>63</ele>
        <time>2026-02-22T14:13:24.188Z</time>
      </trkpt>
      <trkpt lat="44.18709" lon="0.59528">
        <ele>63</ele>
        <time>2026-02-22T14:13:25.188Z</time>
      </trkpt>
      <trkpt lat="44.18709" lon="0.59527">
        <ele>63</ele>
        <time>2026-02-22T14:13:26.189Z</time>
      </trkpt>
      <trkpt lat="44.18708" lon="0.59527">
        <ele>63</ele>
        <time>2026-02-22T14:13:27.188Z</time>
      </trkpt>
      <trkpt lat="44.18708" lon="0.59527">
        <ele>62</ele>
        <time>2026-02-22T14:13:28.189Z</time>
      </trkpt>
      <trkpt lat="44.18707" lon="0.59528">
        <ele>62</ele>
        <time>2026-02-22T14:13:29.188Z</time>
      </trkpt>
      <trkpt lat="44.18706" lon="0.59528">
        <ele>62</ele>
        <time>2026-02-22T14:13:30.188Z</time>
      </trkpt>
      <trkpt lat="44.18706" lon="0.59529">
        <ele>61</ele>
        <time>2026-02-22T14:13:31.188Z</time>
      </trkpt>
      <trkpt lat="44.18704" lon="0.5953">
        <ele>61</ele>
        <time>2026-02-22T14:13:32.188Z</time>
      </trkpt>
      <trkpt lat="44.18703" lon="0.5953">
        <ele>61</ele>
        <time>2026-02-22T14:13:33.188Z</time>
      </trkpt>
      <trkpt lat="44.18702" lon="0.59531">
        <ele>60</ele>
        <time>2026-02-22T14:13:34.188Z</time>
      </trkpt>
      <trkpt lat="44.18701" lon="0.59532">
        <ele>60</ele>
        <time>2026-02-22T14:13:35.188Z</time>
      </trkpt>
      <trkpt lat="44.187" lon="0.59532">
        <ele>60</ele>
        <time>2026-02-22T14:13:36.188Z</time>
      </trkpt>
      <trkpt lat="44.18699" lon="0.59533">
        <ele>60</ele>
        <time>2026-02-22T14:13:37.188Z</time>
      </trkpt>
      <trkpt lat="44.18698" lon="0.59533">
        <ele>60</ele>
        <time>2026-02-22T14:13:38.188Z</time>
      </trkpt>
      <trkpt lat="44.18697" lon="0.59534">
        <ele>60</ele>
        <time>2026-02-22T14:13:39.188Z</time>
      </trkpt>
      <trkpt lat="44.18696" lon="0.59535">
        <ele>60</ele>
        <time>2026-02-22T14:13:40.188Z</time>
      </trkpt>
      <trkpt lat="44.18695" lon="0.59536">
        <ele>61</ele>
        <time>2026-02-22T14:13:41.189Z</time>
      </trkpt>
      <trkpt lat="44.18694" lon="0.59538">
        <ele>61</ele>
        <time>2026-02-22T14:13:42.188Z</time>
      </trkpt>
      <trkpt lat="44.18692" lon="0.59539">
        <ele>61</ele>
        <time>2026-02-22T14:13:43.188Z</time>
      </trkpt>
      <trkpt lat="44.18691" lon="0.59539">
        <ele>61</ele>
        <time>2026-02-22T14:13:44.188Z</time>
      </trkpt>
      <trkpt lat="44.1869" lon="0.5954">
        <ele>61</ele>
        <time>2026-02-22T14:13:45.188Z</time>
      </trkpt>
      <trkpt lat="44.18689" lon="0.59541">
        <ele>61</ele>
        <time>2026-02-22T14:13:46.188Z</time>
      </trkpt>
      <trkpt lat="44.18688" lon="0.59541">
        <ele>61</ele>
        <time>2026-02-22T14:13:47.188Z</time>
      </trkpt>
      <trkpt lat="44.18687" lon="0.59542">
        <ele>61</ele>
        <time>2026-02-22T14:13:48.188Z</time>
      </trkpt>
      <trkpt lat="44.18686" lon="0.59542">
        <ele>61</ele>
        <time>2026-02-22T14:13:49.188Z</time>
      </trkpt>
      <trkpt lat="44.18685" lon="0.59542">
        <ele>61</ele>
        <time>2026-02-22T14:13:50.188Z</time>
      </trkpt>
      <trkpt lat="44.18682" lon="0.59543">
        <ele>61</ele>
        <time>2026-02-22T14:13:51.188Z</time>
      </trkpt>
      <trkpt lat="44.1868" lon="0.59543">
        <ele>61</ele>
        <time>2026-02-22T14:13:52.188Z</time>
      </trkpt>
      <trkpt lat="44.18678" lon="0.59542">
        <ele>61</ele>
        <time>2026-02-22T14:13:53.188Z</time>
      </trkpt>
      <trkpt lat="44.18677" lon="0.59542">
        <ele>62</ele>
        <time>2026-02-22T14:13:54.188Z</time>
      </trkpt>
      <trkpt lat="44.18675" lon="0.59542">
        <ele>62</ele>
        <time>2026-02-22T14:13:55.188Z</time>
      </trkpt>
      <trkpt lat="44.18675" lon="0.59541">
        <ele>63</ele>
        <time>2026-02-22T14:13:56.189Z</time>
      </trkpt>
      <trkpt lat="44.18674" lon="0.5954">
        <ele>63</ele>
        <time>2026-02-22T14:13:57.188Z</time>
      </trkpt>
      <trkpt lat="44.18673" lon="0.5954">
        <ele>63</ele>
        <time>2026-02-22T14:13:58.188Z</time>
      </trkpt>
      <trkpt lat="44.18672" lon="0.59539">
        <ele>63</ele>
        <time>2026-02-22T14:13:59.188Z</time>
      </trkpt>
      <trkpt lat="44.18671" lon="0.59539">
        <ele>63</ele>
        <time>2026-02-22T14:14:00.188Z</time>
      </trkpt>
      <trkpt lat="44.18669" lon="0.59538">
        <ele>63</ele>
        <time>2026-02-22T14:14:01.188Z</time>
      </trkpt>
      <trkpt lat="44.18668" lon="0.59538">
        <ele>64</ele>
        <time>2026-02-22T14:14:02.188Z</time>
      </trkpt>
      <trkpt lat="44.18666" lon="0.59538">
        <ele>64</ele>
        <time>2026-02-22T14:14:03.188Z</time>
      </trkpt>
      <trkpt lat="44.18665" lon="0.59538">
        <ele>64</ele>
        <time>2026-02-22T14:14:04.189Z</time>
      </trkpt>
      <trkpt lat="44.18664" lon="0.59538">
        <ele>64</ele>
        <time>2026-02-22T14:14:05.188Z</time>
      </trkpt>
      <trkpt lat="44.18663" lon="0.59537">
        <ele>65</ele>
        <time>2026-02-22T14:14:06.188Z</time>
      </trkpt>
      <trkpt lat="44.18662" lon="0.59538">
        <ele>65</ele>
        <time>2026-02-22T14:14:07.188Z</time>
      </trkpt>
      <trkpt lat="44.18661" lon="0.59538">
        <ele>64</ele>
        <time>2026-02-22T14:14:08.188Z</time>
      </trkpt>
      <trkpt lat="44.1866" lon="0.59539">
        <ele>64</ele>
        <time>2026-02-22T14:14:09.188Z</time>
      </trkpt>
      <trkpt lat="44.18659" lon="0.5954">
        <ele>64</ele>
        <time>2026-02-22T14:14:10.188Z</time>
      </trkpt>
      <trkpt lat="44.18657" lon="0.5954">
        <ele>64</ele>
        <time>2026-02-22T14:14:11.188Z</time>
      </trkpt>
      <trkpt lat="44.18656" lon="0.59541">
        <ele>65</ele>
        <time>2026-02-22T14:14:12.188Z</time>
      </trkpt>
      <trkpt lat="44.18655" lon="0.59542">
        <ele>65</ele>
        <time>2026-02-22T14:14:13.188Z</time>
      </trkpt>
      <trkpt lat="44.18654" lon="0.59543">
        <ele>64</ele>
        <time>2026-02-22T14:14:14.188Z</time>
      </trkpt>
      <trkpt lat="44.18653" lon="0.59543">
        <ele>64</ele>
        <time>2026-02-22T14:14:15.188Z</time>
      </trkpt>
      <trkpt lat="44.18652" lon="0.59544">
        <ele>64</ele>
        <time>2026-02-22T14:14:16.188Z</time>
      </trkpt>
      <trkpt lat="44.18651" lon="0.59544">
        <ele>64</ele>
        <time>2026-02-22T14:14:17.188Z</time>
      </trkpt>
      <trkpt lat="44.1865" lon="0.59545">
        <ele>64</ele>
        <time>2026-02-22T14:14:18.188Z</time>
      </trkpt>
      <trkpt lat="44.18648" lon="0.59545">
        <ele>64</ele>
        <time>2026-02-22T14:14:19.188Z</time>
      </trkpt>
      <trkpt lat="44.18647" lon="0.59545">
        <ele>64</ele>
        <time>2026-02-22T14:14:20.188Z</time>
      </trkpt>
      <trkpt lat="44.18646" lon="0.59545">
        <ele>64</ele>
        <time>2026-02-22T14:14:21.188Z</time>
      </trkpt>
      <trkpt lat="44.18645" lon="0.59545">
        <ele>64</ele>
        <time>2026-02-22T14:14:22.188Z</time>
      </trkpt>
      <trkpt lat="44.18644" lon="0.59545">
        <ele>63</ele>
        <time>2026-02-22T14:14:23.188Z</time>
      </trkpt>
      <trkpt lat="44.18642" lon="0.59545">
        <ele>63</ele>
        <time>2026-02-22T14:14:24.188Z</time>
      </trkpt>
      <trkpt lat="44.18641" lon="0.59545">
        <ele>63</ele>
        <time>2026-02-22T14:14:25.188Z</time>
      </trkpt>
      <trkpt lat="44.18639" lon="0.59545">
        <ele>63</ele>
        <time>2026-02-22T14:14:26.189Z</time>
      </trkpt>
      <trkpt lat="44.18638" lon="0.59545">
        <ele>63</ele>
        <time>2026-02-22T14:14:27.188Z</time>
      </trkpt>
      <trkpt lat="44.18637" lon="0.59545">
        <ele>62</ele>
        <time>2026-02-22T14:14:28.189Z</time>
      </trkpt>
      <trkpt lat="44.18636" lon="0.59545">
        <ele>62</ele>
        <time>2026-02-22T14:14:29.188Z</time>
      </trkpt>
      <trkpt lat="44.18634" lon="0.59545">
        <ele>62</ele>
        <time>2026-02-22T14:14:30.188Z</time>
      </trkpt>
      <trkpt lat="44.18634" lon="0.59544">
        <ele>62</ele>
        <time>2026-02-22T14:14:31.188Z</time>
      </trkpt>
      <trkpt lat="44.18632" lon="0.59544">
        <ele>62</ele>
        <time>2026-02-22T14:14:32.188Z</time>
      </trkpt>
      <trkpt lat="44.18631" lon="0.59544">
        <ele>62</ele>
        <time>2026-02-22T14:14:33.188Z</time>
      </trkpt>
      <trkpt lat="44.1863" lon="0.59543">
        <ele>61</ele>
        <time>2026-02-22T14:14:34.188Z</time>
      </trkpt>
      <trkpt lat="44.18629" lon="0.59543">
        <ele>61</ele>
        <time>2026-02-22T14:14:35.188Z</time>
      </trkpt>
      <trkpt lat="44.18628" lon="0.59542">
        <ele>61</ele>
        <time>2026-02-22T14:14:36.188Z</time>
      </trkpt>
      <trkpt lat="44.18627" lon="0.59542">
        <ele>61</ele>
        <time>2026-02-22T14:14:37.188Z</time>
      </trkpt>
      <trkpt lat="44.18626" lon="0.59541">
        <ele>61</ele>
        <time>2026-02-22T14:14:38.188Z</time>
      </trkpt>
      <trkpt lat="44.18625" lon="0.59541">
        <ele>60</ele>
        <time>2026-02-22T14:14:39.188Z</time>
      </trkpt>
      <trkpt lat="44.18624" lon="0.5954">
        <ele>60</ele>
        <time>2026-02-22T14:14:40.189Z</time>
      </trkpt>
      <trkpt lat="44.18624" lon="0.5954">
        <ele>60</ele>
        <time>2026-02-22T14:14:41.189Z</time>
      </trkpt>
      <trkpt lat="44.18623" lon="0.5954">
        <ele>60</ele>
        <time>2026-02-22T14:14:42.188Z</time>
      </trkpt>
      <trkpt lat="44.18623" lon="0.5954">
        <ele>60</ele>
        <time>2026-02-22T14:14:43.188Z</time>
      </trkpt>
      <trkpt lat="44.18622" lon="0.5954">
        <ele>61</ele>
        <time>2026-02-22T14:14:44.188Z</time>
      </trkpt>
      <trkpt lat="44.18621" lon="0.59539">
        <ele>61</ele>
        <time>2026-02-22T14:14:45.189Z</time>
      </trkpt>
      <trkpt lat="44.1862" lon="0.59539">
        <ele>61</ele>
        <time>2026-02-22T14:14:46.188Z</time>
      </trkpt>
      <trkpt lat="44.18619" lon="0.59539">
        <ele>61</ele>
        <time>2026-02-22T14:14:47.188Z</time>
      </trkpt>
      <trkpt lat="44.18619" lon="0.59539">
        <ele>61</ele>
        <time>2026-02-22T14:14:48.188Z</time>
      </trkpt>
      <trkpt lat="44.18618" lon="0.59539">
        <ele>61</ele>
        <time>2026-02-22T14:14:49.188Z</time>
      </trkpt>
      <trkpt lat="44.18617" lon="0.59539">
        <ele>61</ele>
        <time>2026-02-22T14:14:50.188Z</time>
      </trkpt>
      <trkpt lat="44.18616" lon="0.59539">
        <ele>61</ele>
        <time>2026-02-22T14:14:51.188Z</time>
      </trkpt>
      <trkpt lat="44.18615" lon="0.59538">
        <ele>61</ele>
        <time>2026-02-22T14:14:52.188Z</time>
      </trkpt>
      <trkpt lat="44.18614" lon="0.59538">
        <ele>60</ele>
        <time>2026-02-22T14:14:53.188Z</time>
      </trkpt>
      <trkpt lat="44.18613" lon="0.59538">
        <ele>60</ele>
        <time>2026-02-22T14:14:54.188Z</time>
      </trkpt>
      <trkpt lat="44.18612" lon="0.59538">
        <ele>60</ele>
        <time>2026-02-22T14:14:55.188Z</time>
      </trkpt>
      <trkpt lat="44.18611" lon="0.59538">
        <ele>60</ele>
        <time>2026-02-22T14:14:56.188Z</time>
      </trkpt>
      <trkpt lat="44.1861" lon="0.59538">
        <ele>60</ele>
        <time>2026-02-22T14:14:57.188Z</time>
      </trkpt>
      <trkpt lat="44.18609" lon="0.59538">
        <ele>61</ele>
        <time>2026-02-22T14:14:58.189Z</time>
      </trkpt>
      <trkpt lat="44.18608" lon="0.59539">
        <ele>61</ele>
        <time>2026-02-22T14:14:59.188Z</time>
      </trkpt>
      <trkpt lat="44.18607" lon="0.59539">
        <ele>61</ele>
        <time>2026-02-22T14:15:00.189Z</time>
      </trkpt>
      <trkpt lat="44.18606" lon="0.59539">
        <ele>61</ele>
        <time>2026-02-22T14:15:01.188Z</time>
      </trkpt>
      <trkpt lat="44.18605" lon="0.59539">
        <ele>61</ele>
        <time>2026-02-22T14:15:02.188Z</time>
      </trkpt>
      <trkpt lat="44.18603" lon="0.5954">
        <ele>61</ele>
        <time>2026-02-22T14:15:03.188Z</time>
      </trkpt>
      <trkpt lat="44.18602" lon="0.5954">
        <ele>61</ele>
        <time>2026-02-22T14:15:04.188Z</time>
      </trkpt>
      <trkpt lat="44.18601" lon="0.5954">
        <ele>61</ele>
        <time>2026-02-22T14:15:05.188Z</time>
      </trkpt>
      <trkpt lat="44.186" lon="0.5954">
        <ele>61</ele>
        <time>2026-02-22T14:15:06.188Z</time>
      </trkpt>
      <trkpt lat="44.18599" lon="0.59541">
        <ele>61</ele>
        <time>2026-02-22T14:15:07.188Z</time>
      </trkpt>
      <trkpt lat="44.18598" lon="0.59541">
        <ele>60</ele>
        <time>2026-02-22T14:15:08.188Z</time>
      </trkpt>
      <trkpt lat="44.18597" lon="0.59542">
        <ele>60</ele>
        <time>2026-02-22T14:15:09.188Z</time>
      </trkpt>
      <trkpt lat="44.18596" lon="0.59542">
        <ele>60</ele>
        <time>2026-02-22T14:15:10.188Z</time>
      </trkpt>
      <trkpt lat="44.18595" lon="0.59543">
        <ele>60</ele>
        <time>2026-02-22T14:15:11.188Z</time>
      </trkpt>
      <trkpt lat="44.18594" lon="0.59544">
        <ele>60</ele>
        <time>2026-02-22T14:15:12.188Z</time>
      </trkpt>
      <trkpt lat="44.18593" lon="0.59545">
        <ele>60</ele>
        <time>2026-02-22T14:15:13.188Z</time>
      </trkpt>
      <trkpt lat="44.18592" lon="0.59545">
        <ele>60</ele>
        <time>2026-02-22T14:15:14.188Z</time>
      </trkpt>
      <trkpt lat="44.18592" lon="0.59546">
        <ele>61</ele>
        <time>2026-02-22T14:15:15.188Z</time>
      </trkpt>
      <trkpt lat="44.18591" lon="0.59547">
        <ele>61</ele>
        <time>2026-02-22T14:15:16.189Z</time>
      </trkpt>
      <trkpt lat="44.1859" lon="0.59548">
        <ele>61</ele>
        <time>2026-02-22T14:15:17.188Z</time>
      </trkpt>
      <trkpt lat="44.18589" lon="0.59549">
        <ele>61</ele>
        <time>2026-02-22T14:15:18.188Z</time>
      </trkpt>
      <trkpt lat="44.18587" lon="0.5955">
        <ele>61</ele>
        <time>2026-02-22T14:15:19.188Z</time>
      </trkpt>
      <trkpt lat="44.18586" lon="0.5955">
        <ele>61</ele>
        <time>2026-02-22T14:15:20.188Z</time>
      </trkpt>
      <trkpt lat="44.18586" lon="0.59551">
        <ele>61</ele>
        <time>2026-02-22T14:15:21.188Z</time>
      </trkpt>
      <trkpt lat="44.18585" lon="0.59551">
        <ele>61</ele>
        <time>2026-02-22T14:15:22.188Z</time>
      </trkpt>
      <trkpt lat="44.18584" lon="0.59552">
        <ele>60</ele>
        <time>2026-02-22T14:15:23.188Z</time>
      </trkpt>
      <trkpt lat="44.18583" lon="0.59552">
        <ele>60</ele>
        <time>2026-02-22T14:15:24.188Z</time>
      </trkpt>
      <trkpt lat="44.18582" lon="0.59552">
        <ele>60</ele>
        <time>2026-02-22T14:15:25.188Z</time>
      </trkpt>
      <trkpt lat="44.1858" lon="0.59552">
        <ele>60</ele>
        <time>2026-02-22T14:15:26.188Z</time>
      </trkpt>
      <trkpt lat="44.18579" lon="0.59553">
        <ele>60</ele>
        <time>2026-02-22T14:15:27.188Z</time>
      </trkpt>
      <trkpt lat="44.18578" lon="0.59553">
        <ele>60</ele>
        <time>2026-02-22T14:15:28.188Z</time>
      </trkpt>
      <trkpt lat="44.18577" lon="0.59553">
        <ele>60</ele>
        <time>2026-02-22T14:15:29.188Z</time>
      </trkpt>
      <trkpt lat="44.18576" lon="0.59553">
        <ele>60</ele>
        <time>2026-02-22T14:15:30.189Z</time>
      </trkpt>
      <trkpt lat="44.18575" lon="0.59553">
        <ele>60</ele>
        <time>2026-02-22T14:15:31.188Z</time>
      </trkpt>
      <trkpt lat="44.18574" lon="0.59553">
        <ele>60</ele>
        <time>2026-02-22T14:15:32.188Z</time>
      </trkpt>
      <trkpt lat="44.18573" lon="0.59553">
        <ele>60</ele>
        <time>2026-02-22T14:15:33.188Z</time>
      </trkpt>
      <trkpt lat="44.18571" lon="0.59552">
        <ele>60</ele>
        <time>2026-02-22T14:15:34.188Z</time>
      </trkpt>
      <trkpt lat="44.18571" lon="0.59552">
        <ele>60</ele>
        <time>2026-02-22T14:15:35.188Z</time>
      </trkpt>
      <trkpt lat="44.18569" lon="0.59552">
        <ele>60</ele>
        <time>2026-02-22T14:15:36.188Z</time>
      </trkpt>
      <trkpt lat="44.18569" lon="0.59552">
        <ele>60</ele>
        <time>2026-02-22T14:15:37.188Z</time>
      </trkpt>
      <trkpt lat="44.18568" lon="0.59552">
        <ele>60</ele>
        <time>2026-02-22T14:15:38.188Z</time>
      </trkpt>
      <trkpt lat="44.18567" lon="0.59551">
        <ele>60</ele>
        <time>2026-02-22T14:15:39.188Z</time>
      </trkpt>
      <trkpt lat="44.18565" lon="0.59551">
        <ele>60</ele>
        <time>2026-02-22T14:15:40.188Z</time>
      </trkpt>
      <trkpt lat="44.18564" lon="0.59551">
        <ele>60</ele>
        <time>2026-02-22T14:15:41.188Z</time>
      </trkpt>
      <trkpt lat="44.18563" lon="0.59551">
        <ele>59</ele>
        <time>2026-02-22T14:15:42.188Z</time>
      </trkpt>
      <trkpt lat="44.18562" lon="0.5955">
        <ele>59</ele>
        <time>2026-02-22T14:15:43.188Z</time>
      </trkpt>
      <trkpt lat="44.18561" lon="0.5955">
        <ele>59</ele>
        <time>2026-02-22T14:15:44.188Z</time>
      </trkpt>
      <trkpt lat="44.1856" lon="0.59549">
        <ele>59</ele>
        <time>2026-02-22T14:15:45.188Z</time>
      </trkpt>
      <trkpt lat="44.18559" lon="0.59549">
        <ele>59</ele>
        <time>2026-02-22T14:15:46.188Z</time>
      </trkpt>
      <trkpt lat="44.18558" lon="0.59549">
        <ele>59</ele>
        <time>2026-02-22T14:15:47.189Z</time>
      </trkpt>
      <trkpt lat="44.18557" lon="0.59549">
        <ele>59</ele>
        <time>2026-02-22T14:15:48.188Z</time>
      </trkpt>
      <trkpt lat="44.18556" lon="0.59549">
        <ele>59</ele>
        <time>2026-02-22T14:15:49.188Z</time>
      </trkpt>
      <trkpt lat="44.18555" lon="0.59549">
        <ele>58</ele>
        <time>2026-02-22T14:15:50.188Z</time>
      </trkpt>
      <trkpt lat="44.18555" lon="0.59549">
        <ele>58</ele>
        <time>2026-02-22T14:15:51.188Z</time>
      </trkpt>
      <trkpt lat="44.18555" lon="0.59549">
        <ele>58</ele>
        <time>2026-02-22T14:15:52.189Z</time>
      </trkpt>
      <trkpt lat="44.18555" lon="0.59549">
        <ele>58</ele>
        <time>2026-02-22T14:15:53.188Z</time>
      </trkpt>
      <trkpt lat="44.18555" lon="0.59549">
        <ele>58</ele>
        <time>2026-02-22T14:15:54.189Z</time>
      </trkpt>
      <trkpt lat="44.18555" lon="0.59549">
        <ele>58</ele>
        <time>2026-02-22T14:15:55.188Z</time>
      </trkpt>
      <trkpt lat="44.18555" lon="0.59549">
        <ele>58</ele>
        <time>2026-02-22T14:15:56.188Z</time>
      </trkpt>
      <trkpt lat="44.18555" lon="0.59549">
        <ele>57</ele>
        <time>2026-02-22T14:15:57.188Z</time>
      </trkpt>
      <trkpt lat="44.18555" lon="0.59549">
        <ele>57</ele>
        <time>2026-02-22T14:15:58.188Z</time>
      </trkpt>
      <trkpt lat="44.18555" lon="0.59549">
        <ele>57</ele>
        <time>2026-02-22T14:15:59.188Z</time>
      </trkpt>
      <trkpt lat="44.18555" lon="0.59549">
        <ele>58</ele>
        <time>2026-02-22T14:16:00.189Z</time>
      </trkpt>
      <trkpt lat="44.18555" lon="0.59549">
        <ele>58</ele>
        <time>2026-02-22T14:16:01.188Z</time>
      </trkpt>
      <trkpt lat="44.18554" lon="0.59549">
        <ele>58</ele>
        <time>2026-02-22T14:16:02.189Z</time>
      </trkpt>
      <trkpt lat="44.18554" lon="0.59549">
        <ele>58</ele>
        <time>2026-02-22T14:16:03.188Z</time>
      </trkpt>
      <trkpt lat="44.18554" lon="0.59549">
        <ele>58</ele>
        <time>2026-02-22T14:16:04.188Z</time>
      </trkpt>
      <trkpt lat="44.18554" lon="0.59548">
        <ele>58</ele>
        <time>2026-02-22T14:16:05.188Z</time>
      </trkpt>
      <trkpt lat="44.18554" lon="0.59548">
        <ele>58</ele>
        <time>2026-02-22T14:16:06.188Z</time>
      </trkpt>
      <trkpt lat="44.18554" lon="0.59548">
        <ele>58</ele>
        <time>2026-02-22T14:16:07.188Z</time>
      </trkpt>
      <trkpt lat="44.18554" lon="0.59548">
        <ele>58</ele>
        <time>2026-02-22T14:16:08.188Z</time>
      </trkpt>
      <trkpt lat="44.18554" lon="0.59548">
        <ele>58</ele>
        <time>2026-02-22T14:16:09.188Z</time>
      </trkpt>
      <trkpt lat="44.18554" lon="0.59548">
        <ele>58</ele>
        <time>2026-02-22T14:16:10.188Z</time>
      </trkpt>
      <trkpt lat="44.18554" lon="0.59548">
        <ele>59</ele>
        <time>2026-02-22T14:16:11.188Z</time>
      </trkpt>
      <trkpt lat="44.18554" lon="0.59548">
        <ele>59</ele>
        <time>2026-02-22T14:16:12.188Z</time>
      </trkpt>
      <trkpt lat="44.18554" lon="0.59548">
        <ele>60</ele>
        <time>2026-02-22T14:16:13.188Z</time>
      </trkpt>
      <trkpt lat="44.18554" lon="0.59549">
        <ele>60</ele>
        <time>2026-02-22T14:16:14.188Z</time>
      </trkpt>
      <trkpt lat="44.18554" lon="0.59549">
        <ele>60</ele>
        <time>2026-02-22T14:16:15.188Z</time>
      </trkpt>
      <trkpt lat="44.18554" lon="0.59549">
        <ele>60</ele>
        <time>2026-02-22T14:16:16.188Z</time>
      </trkpt>
      <trkpt lat="44.18555" lon="0.59549">
        <ele>60</ele>
        <time>2026-02-22T14:16:17.188Z</time>
      </trkpt>
      <trkpt lat="44.18555" lon="0.59549">
        <ele>60</ele>
        <time>2026-02-22T14:16:18.188Z</time>
      </trkpt>
      <trkpt lat="44.18555" lon="0.59549">
        <ele>60</ele>
        <time>2026-02-22T14:16:19.188Z</time>
      </trkpt>
      <trkpt lat="44.18555" lon="0.59549">
        <ele>60</ele>
        <time>2026-02-22T14:16:20.188Z</time>
      </trkpt>
      <trkpt lat="44.18555" lon="0.59549">
        <ele>60</ele>
        <time>2026-02-22T14:16:21.188Z</time>
      </trkpt>
      <trkpt lat="44.18555" lon="0.59549">
        <ele>60</ele>
        <time>2026-02-22T14:16:22.188Z</time>
      </trkpt>
      <trkpt lat="44.18555" lon="0.59549">
        <ele>59</ele>
        <time>2026-02-22T14:16:23.188Z</time>
      </trkpt>
      <trkpt lat="44.18555" lon="0.59549">
        <ele>59</ele>
        <time>2026-02-22T14:16:24.188Z</time>
      </trkpt>
      <trkpt lat="44.18555" lon="0.59549">
        <ele>59</ele>
        <time>2026-02-22T14:16:25.188Z</time>
      </trkpt>
      <trkpt lat="44.18555" lon="0.59549">
        <ele>59</ele>
        <time>2026-02-22T14:16:26.188Z</time>
      </trkpt>
      <trkpt lat="44.18555" lon="0.59549">
        <ele>59</ele>
        <time>2026-02-22T14:16:27.188Z</time>
      </trkpt>
      <trkpt lat="44.18555" lon="0.59549">
        <ele>59</ele>
        <time>2026-02-22T14:16:28.188Z</time>
      </trkpt>
      <trkpt lat="44.18555" lon="0.59549">
        <ele>59</ele>
        <time>2026-02-22T14:16:29.188Z</time>
      </trkpt>
      <trkpt lat="44.18555" lon="0.5955">
        <ele>59</ele>
        <time>2026-02-22T14:16:30.188Z</time>
      </trkpt>
      <trkpt lat="44.18554" lon="0.59551">
        <ele>58</ele>
        <time>2026-02-22T14:16:31.188Z</time>
      </trkpt>
      <trkpt lat="44.18554" lon="0.59552">
        <ele>58</ele>
        <time>2026-02-22T14:16:32.188Z</time>
      </trkpt>
      <trkpt lat="44.18553" lon="0.59553">
        <ele>58</ele>
        <time>2026-02-22T14:16:33.188Z</time>
      </trkpt>
      <trkpt lat="44.18553" lon="0.59553">
        <ele>58</ele>
        <time>2026-02-22T14:16:34.188Z</time>
      </trkpt>
      <trkpt lat="44.18552" lon="0.59553">
        <ele>58</ele>
        <time>2026-02-22T14:16:35.188Z</time>
      </trkpt>
      <trkpt lat="44.18551" lon="0.59554">
        <ele>58</ele>
        <time>2026-02-22T14:16:36.188Z</time>
      </trkpt>
      <trkpt lat="44.1855" lon="0.59554">
        <ele>58</ele>
        <time>2026-02-22T14:16:37.188Z</time>
      </trkpt>
      <trkpt lat="44.18549" lon="0.59555">
        <ele>59</ele>
        <time>2026-02-22T14:16:38.188Z</time>
      </trkpt>
      <trkpt lat="44.18548" lon="0.59555">
        <ele>59</ele>
        <time>2026-02-22T14:16:39.188Z</time>
      </trkpt>
      <trkpt lat="44.18547" lon="0.59556">
        <ele>59</ele>
        <time>2026-02-22T14:16:40.188Z</time>
      </trkpt>
      <trkpt lat="44.18546" lon="0.59557">
        <ele>59</ele>
        <time>2026-02-22T14:16:41.188Z</time>
      </trkpt>
      <trkpt lat="44.18545" lon="0.59557">
        <ele>60</ele>
        <time>2026-02-22T14:16:42.188Z</time>
      </trkpt>
      <trkpt lat="44.18544" lon="0.59558">
        <ele>60</ele>
        <time>2026-02-22T14:16:43.188Z</time>
      </trkpt>
      <trkpt lat="44.18543" lon="0.59559">
        <ele>60</ele>
        <time>2026-02-22T14:16:44.188Z</time>
      </trkpt>
      <trkpt lat="44.18541" lon="0.5956">
        <ele>60</ele>
        <time>2026-02-22T14:16:45.188Z</time>
      </trkpt>
      <trkpt lat="44.1854" lon="0.59561">
        <ele>61</ele>
        <time>2026-02-22T14:16:46.188Z</time>
      </trkpt>
      <trkpt lat="44.18539" lon="0.59561">
        <ele>61</ele>
        <time>2026-02-22T14:16:47.188Z</time>
      </trkpt>
      <trkpt lat="44.18539" lon="0.59562">
        <ele>61</ele>
        <time>2026-02-22T14:16:48.188Z</time>
      </trkpt>
      <trkpt lat="44.18537" lon="0.59563">
        <ele>60</ele>
        <time>2026-02-22T14:16:49.188Z</time>
      </trkpt>
      <trkpt lat="44.18536" lon="0.59564">
        <ele>60</ele>
        <time>2026-02-22T14:16:50.188Z</time>
      </trkpt>
      <trkpt lat="44.18535" lon="0.59566">
        <ele>60</ele>
        <time>2026-02-22T14:16:51.188Z</time>
      </trkpt>
      <trkpt lat="44.18534" lon="0.59567">
        <ele>60</ele>
        <time>2026-02-22T14:16:52.188Z</time>
      </trkpt>
      <trkpt lat="44.18533" lon="0.59568">
        <ele>60</ele>
        <time>2026-02-22T14:16:53.188Z</time>
      </trkpt>
      <trkpt lat="44.18532" lon="0.59569">
        <ele>60</ele>
        <time>2026-02-22T14:16:54.188Z</time>
      </trkpt>
      <trkpt lat="44.1853" lon="0.59571">
        <ele>60</ele>
        <time>2026-02-22T14:16:55.188Z</time>
      </trkpt>
      <trkpt lat="44.18529" lon="0.59572">
        <ele>61</ele>
        <time>2026-02-22T14:16:56.189Z</time>
      </trkpt>
      <trkpt lat="44.18528" lon="0.59573">
        <ele>61</ele>
        <time>2026-02-22T14:16:57.188Z</time>
      </trkpt>
      <trkpt lat="44.18527" lon="0.59574">
        <ele>60</ele>
        <time>2026-02-22T14:16:58.188Z</time>
      </trkpt>
      <trkpt lat="44.18526" lon="0.59575">
        <ele>60</ele>
        <time>2026-02-22T14:16:59.188Z</time>
      </trkpt>
      <trkpt lat="44.18525" lon="0.59576">
        <ele>60</ele>
        <time>2026-02-22T14:17:00.188Z</time>
      </trkpt>
      <trkpt lat="44.18524" lon="0.59577">
        <ele>59</ele>
        <time>2026-02-22T14:17:01.188Z</time>
      </trkpt>
      <trkpt lat="44.18523" lon="0.59578">
        <ele>59</ele>
        <time>2026-02-22T14:17:02.188Z</time>
      </trkpt>
      <trkpt lat="44.18522" lon="0.59579">
        <ele>59</ele>
        <time>2026-02-22T14:17:03.188Z</time>
      </trkpt>
      <trkpt lat="44.18521" lon="0.59581">
        <ele>59</ele>
        <time>2026-02-22T14:17:04.188Z</time>
      </trkpt>
      <trkpt lat="44.1852" lon="0.59582">
        <ele>59</ele>
        <time>2026-02-22T14:17:05.188Z</time>
      </trkpt>
      <trkpt lat="44.18518" lon="0.59583">
        <ele>58</ele>
        <time>2026-02-22T14:17:06.189Z</time>
      </trkpt>
      <trkpt lat="44.18517" lon="0.59584">
        <ele>58</ele>
        <time>2026-02-22T14:17:07.188Z</time>
      </trkpt>
      <trkpt lat="44.18516" lon="0.59585">
        <ele>58</ele>
        <time>2026-02-22T14:17:08.188Z</time>
      </trkpt>
      <trkpt lat="44.18515" lon="0.59587">
        <ele>58</ele>
        <time>2026-02-22T14:17:09.188Z</time>
      </trkpt>
      <trkpt lat="44.18513" lon="0.59588">
        <ele>58</ele>
        <time>2026-02-22T14:17:10.188Z</time>
      </trkpt>
      <trkpt lat="44.18512" lon="0.59588">
        <ele>59</ele>
        <time>2026-02-22T14:17:11.188Z</time>
      </trkpt>
      <trkpt lat="44.18511" lon="0.59589">
        <ele>59</ele>
        <time>2026-02-22T14:17:12.188Z</time>
      </trkpt>
      <trkpt lat="44.1851" lon="0.59589">
        <ele>58</ele>
        <time>2026-02-22T14:17:13.188Z</time>
      </trkpt>
      <trkpt lat="44.18508" lon="0.59589">
        <ele>58</ele>
        <time>2026-02-22T14:17:14.188Z</time>
      </trkpt>
      <trkpt lat="44.18507" lon="0.59589">
        <ele>58</ele>
        <time>2026-02-22T14:17:15.188Z</time>
      </trkpt>
      <trkpt lat="44.18506" lon="0.59589">
        <ele>58</ele>
        <time>2026-02-22T14:17:16.188Z</time>
      </trkpt>
      <trkpt lat="44.18505" lon="0.59589">
        <ele>58</ele>
        <time>2026-02-22T14:17:17.188Z</time>
      </trkpt>
      <trkpt lat="44.18503" lon="0.5959">
        <ele>58</ele>
        <time>2026-02-22T14:17:18.188Z</time>
      </trkpt>
      <trkpt lat="44.18502" lon="0.5959">
        <ele>58</ele>
        <time>2026-02-22T14:17:19.188Z</time>
      </trkpt>
      <trkpt lat="44.18501" lon="0.5959">
        <ele>58</ele>
        <time>2026-02-22T14:17:20.188Z</time>
      </trkpt>
      <trkpt lat="44.185" lon="0.59591">
        <ele>58</ele>
        <time>2026-02-22T14:17:21.188Z</time>
      </trkpt>
      <trkpt lat="44.18499" lon="0.59591">
        <ele>58</ele>
        <time>2026-02-22T14:17:22.188Z</time>
      </trkpt>
      <trkpt lat="44.18498" lon="0.59591">
        <ele>58</ele>
        <time>2026-02-22T14:17:23.188Z</time>
      </trkpt>
      <trkpt lat="44.18497" lon="0.59592">
        <ele>58</ele>
        <time>2026-02-22T14:17:24.188Z</time>
      </trkpt>
      <trkpt lat="44.18496" lon="0.59592">
        <ele>58</ele>
        <time>2026-02-22T14:17:25.188Z</time>
      </trkpt>
      <trkpt lat="44.18495" lon="0.59592">
        <ele>58</ele>
        <time>2026-02-22T14:17:26.189Z</time>
      </trkpt>
      <trkpt lat="44.18494" lon="0.59593">
        <ele>58</ele>
        <time>2026-02-22T14:17:27.188Z</time>
      </trkpt>
      <trkpt lat="44.18493" lon="0.59593">
        <ele>58</ele>
        <time>2026-02-22T14:17:28.188Z</time>
      </trkpt>
      <trkpt lat="44.18492" lon="0.59593">
        <ele>58</ele>
        <time>2026-02-22T14:17:29.188Z</time>
      </trkpt>
      <trkpt lat="44.18491" lon="0.59594">
        <ele>58</ele>
        <time>2026-02-22T14:17:30.189Z</time>
      </trkpt>
      <trkpt lat="44.1849" lon="0.59594">
        <ele>58</ele>
        <time>2026-02-22T14:17:31.188Z</time>
      </trkpt>
      <trkpt lat="44.18489" lon="0.59595">
        <ele>58</ele>
        <time>2026-02-22T14:17:32.188Z</time>
      </trkpt>
      <trkpt lat="44.18488" lon="0.59596">
        <ele>58</ele>
        <time>2026-02-22T14:17:33.188Z</time>
      </trkpt>
      <trkpt lat="44.18488" lon="0.59596">
        <ele>58</ele>
        <time>2026-02-22T14:17:34.188Z</time>
      </trkpt>
      <trkpt lat="44.18487" lon="0.59597">
        <ele>58</ele>
        <time>2026-02-22T14:17:35.188Z</time>
      </trkpt>
      <trkpt lat="44.18486" lon="0.59597">
        <ele>58</ele>
        <time>2026-02-22T14:17:36.188Z</time>
      </trkpt>
      <trkpt lat="44.18485" lon="0.59598">
        <ele>58</ele>
        <time>2026-02-22T14:17:37.188Z</time>
      </trkpt>
      <trkpt lat="44.18484" lon="0.59599">
        <ele>58</ele>
        <time>2026-02-22T14:17:38.188Z</time>
      </trkpt>
      <trkpt lat="44.18483" lon="0.596">
        <ele>58</ele>
        <time>2026-02-22T14:17:39.188Z</time>
      </trkpt>
      <trkpt lat="44.18483" lon="0.59601">
        <ele>58</ele>
        <time>2026-02-22T14:17:40.189Z</time>
      </trkpt>
      <trkpt lat="44.18482" lon="0.59602">
        <ele>58</ele>
        <time>2026-02-22T14:17:41.189Z</time>
      </trkpt>
      <trkpt lat="44.18481" lon="0.59603">
        <ele>58</ele>
        <time>2026-02-22T14:17:42.189Z</time>
      </trkpt>
      <trkpt lat="44.1848" lon="0.59604">
        <ele>59</ele>
        <time>2026-02-22T14:17:43.188Z</time>
      </trkpt>
      <trkpt lat="44.18479" lon="0.59606">
        <ele>59</ele>
        <time>2026-02-22T14:17:44.188Z</time>
      </trkpt>
      <trkpt lat="44.18478" lon="0.59607">
        <ele>58</ele>
        <time>2026-02-22T14:17:45.188Z</time>
      </trkpt>
      <trkpt lat="44.18477" lon="0.59608">
        <ele>58</ele>
        <time>2026-02-22T14:17:46.188Z</time>
      </trkpt>
      <trkpt lat="44.18477" lon="0.5961">
        <ele>58</ele>
        <time>2026-02-22T14:17:47.188Z</time>
      </trkpt>
      <trkpt lat="44.18476" lon="0.59611">
        <ele>58</ele>
        <time>2026-02-22T14:17:48.188Z</time>
      </trkpt>
      <trkpt lat="44.18475" lon="0.59612">
        <ele>58</ele>
        <time>2026-02-22T14:17:49.188Z</time>
      </trkpt>
      <trkpt lat="44.18474" lon="0.59613">
        <ele>59</ele>
        <time>2026-02-22T14:17:50.188Z</time>
      </trkpt>
      <trkpt lat="44.18473" lon="0.59614">
        <ele>59</ele>
        <time>2026-02-22T14:17:51.188Z</time>
      </trkpt>
      <trkpt lat="44.18472" lon="0.59615">
        <ele>58</ele>
        <time>2026-02-22T14:17:52.188Z</time>
      </trkpt>
      <trkpt lat="44.18471" lon="0.59616">
        <ele>58</ele>
        <time>2026-02-22T14:17:53.188Z</time>
      </trkpt>
      <trkpt lat="44.1847" lon="0.59617">
        <ele>58</ele>
        <time>2026-02-22T14:17:54.188Z</time>
      </trkpt>
      <trkpt lat="44.18469" lon="0.59619">
        <ele>59</ele>
        <time>2026-02-22T14:17:55.188Z</time>
      </trkpt>
      <trkpt lat="44.18468" lon="0.5962">
        <ele>59</ele>
        <time>2026-02-22T14:17:56.189Z</time>
      </trkpt>
      <trkpt lat="44.18468" lon="0.59622">
        <ele>59</ele>
        <time>2026-02-22T14:17:57.188Z</time>
      </trkpt>
      <trkpt lat="44.18467" lon="0.59624">
        <ele>59</ele>
        <time>2026-02-22T14:17:58.189Z</time>
      </trkpt>
      <trkpt lat="44.18466" lon="0.59626">
        <ele>59</ele>
        <time>2026-02-22T14:17:59.188Z</time>
      </trkpt>
      <trkpt lat="44.18465" lon="0.59628">
        <ele>59</ele>
        <time>2026-02-22T14:18:00.188Z</time>
      </trkpt>
      <trkpt lat="44.18465" lon="0.5963">
        <ele>60</ele>
        <time>2026-02-22T14:18:01.188Z</time>
      </trkpt>
      <trkpt lat="44.18464" lon="0.59631">
        <ele>60</ele>
        <time>2026-02-22T14:18:02.188Z</time>
      </trkpt>
      <trkpt lat="44.18463" lon="0.59633">
        <ele>60</ele>
        <time>2026-02-22T14:18:03.188Z</time>
      </trkpt>
      <trkpt lat="44.18463" lon="0.59634">
        <ele>60</ele>
        <time>2026-02-22T14:18:04.188Z</time>
      </trkpt>
      <trkpt lat="44.18462" lon="0.59636">
        <ele>60</ele>
        <time>2026-02-22T14:18:05.188Z</time>
      </trkpt>
      <trkpt lat="44.18461" lon="0.59637">
        <ele>60</ele>
        <time>2026-02-22T14:18:06.188Z</time>
      </trkpt>
      <trkpt lat="44.1846" lon="0.59639">
        <ele>60</ele>
        <time>2026-02-22T14:18:07.188Z</time>
      </trkpt>
      <trkpt lat="44.1846" lon="0.5964">
        <ele>60</ele>
        <time>2026-02-22T14:18:08.188Z</time>
      </trkpt>
      <trkpt lat="44.18459" lon="0.59642">
        <ele>61</ele>
        <time>2026-02-22T14:18:09.188Z</time>
      </trkpt>
      <trkpt lat="44.18458" lon="0.59643">
        <ele>61</ele>
        <time>2026-02-22T14:18:10.188Z</time>
      </trkpt>
      <trkpt lat="44.18457" lon="0.59644">
        <ele>61</ele>
        <time>2026-02-22T14:18:11.188Z</time>
      </trkpt>
      <trkpt lat="44.18456" lon="0.59646">
        <ele>61</ele>
        <time>2026-02-22T14:18:12.188Z</time>
      </trkpt>
      <trkpt lat="44.18455" lon="0.59647">
        <ele>61</ele>
        <time>2026-02-22T14:18:13.189Z</time>
      </trkpt>
      <trkpt lat="44.18454" lon="0.59649">
        <ele>61</ele>
        <time>2026-02-22T14:18:14.188Z</time>
      </trkpt>
      <trkpt lat="44.18453" lon="0.5965">
        <ele>62</ele>
        <time>2026-02-22T14:18:15.188Z</time>
      </trkpt>
      <trkpt lat="44.18452" lon="0.59651">
        <ele>61</ele>
        <time>2026-02-22T14:18:16.189Z</time>
      </trkpt>
      <trkpt lat="44.18451" lon="0.59652">
        <ele>61</ele>
        <time>2026-02-22T14:18:17.188Z</time>
      </trkpt>
      <trkpt lat="44.18449" lon="0.59653">
        <ele>61</ele>
        <time>2026-02-22T14:18:18.189Z</time>
      </trkpt>
      <trkpt lat="44.18448" lon="0.59654">
        <ele>61</ele>
        <time>2026-02-22T14:18:19.188Z</time>
      </trkpt>
      <trkpt lat="44.18447" lon="0.59655">
        <ele>60</ele>
        <time>2026-02-22T14:18:20.188Z</time>
      </trkpt>
      <trkpt lat="44.18446" lon="0.59656">
        <ele>60</ele>
        <time>2026-02-22T14:18:21.188Z</time>
      </trkpt>
      <trkpt lat="44.18445" lon="0.59657">
        <ele>60</ele>
        <time>2026-02-22T14:18:22.188Z</time>
      </trkpt>
      <trkpt lat="44.18444" lon="0.59658">
        <ele>60</ele>
        <time>2026-02-22T14:18:23.188Z</time>
      </trkpt>
      <trkpt lat="44.18443" lon="0.59659">
        <ele>60</ele>
        <time>2026-02-22T14:18:24.188Z</time>
      </trkpt>
      <trkpt lat="44.18442" lon="0.5966">
        <ele>60</ele>
        <time>2026-02-22T14:18:25.188Z</time>
      </trkpt>
      <trkpt lat="44.18441" lon="0.59661">
        <ele>60</ele>
        <time>2026-02-22T14:18:26.188Z</time>
      </trkpt>
      <trkpt lat="44.18439" lon="0.59662">
        <ele>60</ele>
        <time>2026-02-22T14:18:27.188Z</time>
      </trkpt>
      <trkpt lat="44.18438" lon="0.59663">
        <ele>60</ele>
        <time>2026-02-22T14:18:28.189Z</time>
      </trkpt>
      <trkpt lat="44.18436" lon="0.59664">
        <ele>61</ele>
        <time>2026-02-22T14:18:29.188Z</time>
      </trkpt>
      <trkpt lat="44.18435" lon="0.59665">
        <ele>61</ele>
        <time>2026-02-22T14:18:30.188Z</time>
      </trkpt>
      <trkpt lat="44.18433" lon="0.59667">
        <ele>61</ele>
        <time>2026-02-22T14:18:31.188Z</time>
      </trkpt>
      <trkpt lat="44.18432" lon="0.59668">
        <ele>61</ele>
        <time>2026-02-22T14:18:32.188Z</time>
      </trkpt>
      <trkpt lat="44.18431" lon="0.59669">
        <ele>62</ele>
        <time>2026-02-22T14:18:33.188Z</time>
      </trkpt>
      <trkpt lat="44.1843" lon="0.59671">
        <ele>61</ele>
        <time>2026-02-22T14:18:34.188Z</time>
      </trkpt>
      <trkpt lat="44.1843" lon="0.59672">
        <ele>61</ele>
        <time>2026-02-22T14:18:35.188Z</time>
      </trkpt>
      <trkpt lat="44.18429" lon="0.59673">
        <ele>61</ele>
        <time>2026-02-22T14:18:36.188Z</time>
      </trkpt>
      <trkpt lat="44.18428" lon="0.59674">
        <ele>61</ele>
        <time>2026-02-22T14:18:37.188Z</time>
      </trkpt>
      <trkpt lat="44.18427" lon="0.59675">
        <ele>61</ele>
        <time>2026-02-22T14:18:38.188Z</time>
      </trkpt>
      <trkpt lat="44.18426" lon="0.59676">
        <ele>61</ele>
        <time>2026-02-22T14:18:39.188Z</time>
      </trkpt>
      <trkpt lat="44.18425" lon="0.59677">
        <ele>61</ele>
        <time>2026-02-22T14:18:40.188Z</time>
      </trkpt>
      <trkpt lat="44.18424" lon="0.59679">
        <ele>61</ele>
        <time>2026-02-22T14:18:41.188Z</time>
      </trkpt>
      <trkpt lat="44.18423" lon="0.5968">
        <ele>62</ele>
        <time>2026-02-22T14:18:42.188Z</time>
      </trkpt>
      <trkpt lat="44.18422" lon="0.59682">
        <ele>62</ele>
        <time>2026-02-22T14:18:43.189Z</time>
      </trkpt>
      <trkpt lat="44.18421" lon="0.59683">
        <ele>62</ele>
        <time>2026-02-22T14:18:44.188Z</time>
      </trkpt>
      <trkpt lat="44.1842" lon="0.59685">
        <ele>62</ele>
        <time>2026-02-22T14:18:45.188Z</time>
      </trkpt>
      <trkpt lat="44.18419" lon="0.59686">
        <ele>62</ele>
        <time>2026-02-22T14:18:46.188Z</time>
      </trkpt>
      <trkpt lat="44.18419" lon="0.59688">
        <ele>62</ele>
        <time>2026-02-22T14:18:47.188Z</time>
      </trkpt>
      <trkpt lat="44.18418" lon="0.59689">
        <ele>62</ele>
        <time>2026-02-22T14:18:48.188Z</time>
      </trkpt>
      <trkpt lat="44.18418" lon="0.5969">
        <ele>61</ele>
        <time>2026-02-22T14:18:49.188Z</time>
      </trkpt>
      <trkpt lat="44.18417" lon="0.59692">
        <ele>61</ele>
        <time>2026-02-22T14:18:50.188Z</time>
      </trkpt>
      <trkpt lat="44.18416" lon="0.59693">
        <ele>61</ele>
        <time>2026-02-22T14:18:51.188Z</time>
      </trkpt>
      <trkpt lat="44.18416" lon="0.59695">
        <ele>61</ele>
        <time>2026-02-22T14:18:52.189Z</time>
      </trkpt>
      <trkpt lat="44.18415" lon="0.59697">
        <ele>61</ele>
        <time>2026-02-22T14:18:53.189Z</time>
      </trkpt>
      <trkpt lat="44.18415" lon="0.59698">
        <ele>62</ele>
        <time>2026-02-22T14:18:54.188Z</time>
      </trkpt>
      <trkpt lat="44.18414" lon="0.597">
        <ele>62</ele>
        <time>2026-02-22T14:18:55.188Z</time>
      </trkpt>
      <trkpt lat="44.18414" lon="0.59702">
        <ele>62</ele>
        <time>2026-02-22T14:18:56.189Z</time>
      </trkpt>
      <trkpt lat="44.18414" lon="0.59703">
        <ele>62</ele>
        <time>2026-02-22T14:18:57.188Z</time>
      </trkpt>
      <trkpt lat="44.18413" lon="0.59705">
        <ele>62</ele>
        <time>2026-02-22T14:18:58.188Z</time>
      </trkpt>
      <trkpt lat="44.18413" lon="0.59706">
        <ele>61</ele>
        <time>2026-02-22T14:18:59.188Z</time>
      </trkpt>
      <trkpt lat="44.18413" lon="0.59708">
        <ele>61</ele>
        <time>2026-02-22T14:19:00.188Z</time>
      </trkpt>
      <trkpt lat="44.18412" lon="0.5971">
        <ele>61</ele>
        <time>2026-02-22T14:19:01.188Z</time>
      </trkpt>
      <trkpt lat="44.18412" lon="0.59712">
        <ele>61</ele>
        <time>2026-02-22T14:19:02.188Z</time>
      </trkpt>
      <trkpt lat="44.18411" lon="0.59714">
        <ele>61</ele>
        <time>2026-02-22T14:19:03.188Z</time>
      </trkpt>
      <trkpt lat="44.18411" lon="0.59716">
        <ele>60</ele>
        <time>2026-02-22T14:19:04.188Z</time>
      </trkpt>
      <trkpt lat="44.1841" lon="0.59717">
        <ele>60</ele>
        <time>2026-02-22T14:19:05.188Z</time>
      </trkpt>
      <trkpt lat="44.1841" lon="0.59719">
        <ele>60</ele>
        <time>2026-02-22T14:19:06.188Z</time>
      </trkpt>
      <trkpt lat="44.18409" lon="0.59721">
        <ele>60</ele>
        <time>2026-02-22T14:19:07.188Z</time>
      </trkpt>
      <trkpt lat="44.18409" lon="0.59723">
        <ele>60</ele>
        <time>2026-02-22T14:19:08.188Z</time>
      </trkpt>
      <trkpt lat="44.18409" lon="0.59725">
        <ele>60</ele>
        <time>2026-02-22T14:19:09.188Z</time>
      </trkpt>
      <trkpt lat="44.18409" lon="0.59726">
        <ele>60</ele>
        <time>2026-02-22T14:19:10.188Z</time>
      </trkpt>
      <trkpt lat="44.18408" lon="0.59728">
        <ele>60</ele>
        <time>2026-02-22T14:19:11.188Z</time>
      </trkpt>
      <trkpt lat="44.18408" lon="0.5973">
        <ele>60</ele>
        <time>2026-02-22T14:19:12.188Z</time>
      </trkpt>
      <trkpt lat="44.18408" lon="0.59732">
        <ele>60</ele>
        <time>2026-02-22T14:19:13.188Z</time>
      </trkpt>
      <trkpt lat="44.18407" lon="0.59734">
        <ele>60</ele>
        <time>2026-02-22T14:19:14.188Z</time>
      </trkpt>
      <trkpt lat="44.18406" lon="0.59736">
        <ele>60</ele>
        <time>2026-02-22T14:19:15.188Z</time>
      </trkpt>
      <trkpt lat="44.18406" lon="0.59737">
        <ele>60</ele>
        <time>2026-02-22T14:19:16.188Z</time>
      </trkpt>
      <trkpt lat="44.18405" lon="0.59739">
        <ele>60</ele>
        <time>2026-02-22T14:19:17.188Z</time>
      </trkpt>
      <trkpt lat="44.18404" lon="0.5974">
        <ele>60</ele>
        <time>2026-02-22T14:19:18.188Z</time>
      </trkpt>
      <trkpt lat="44.18404" lon="0.59741">
        <ele>60</ele>
        <time>2026-02-22T14:19:19.188Z</time>
      </trkpt>
      <trkpt lat="44.18402" lon="0.59743">
        <ele>59</ele>
        <time>2026-02-22T14:19:20.188Z</time>
      </trkpt>
      <trkpt lat="44.18401" lon="0.59745">
        <ele>59</ele>
        <time>2026-02-22T14:19:21.188Z</time>
      </trkpt>
      <trkpt lat="44.184" lon="0.59747">
        <ele>59</ele>
        <time>2026-02-22T14:19:22.188Z</time>
      </trkpt>
      <trkpt lat="44.18399" lon="0.59748">
        <ele>60</ele>
        <time>2026-02-22T14:19:23.188Z</time>
      </trkpt>
      <trkpt lat="44.18398" lon="0.5975">
        <ele>60</ele>
        <time>2026-02-22T14:19:24.189Z</time>
      </trkpt>
      <trkpt lat="44.18397" lon="0.59751">
        <ele>60</ele>
        <time>2026-02-22T14:19:25.188Z</time>
      </trkpt>
      <trkpt lat="44.18396" lon="0.59753">
        <ele>60</ele>
        <time>2026-02-22T14:19:26.189Z</time>
      </trkpt>
      <trkpt lat="44.18395" lon="0.59754">
        <ele>60</ele>
        <time>2026-02-22T14:19:27.188Z</time>
      </trkpt>
      <trkpt lat="44.18394" lon="0.59755">
        <ele>60</ele>
        <time>2026-02-22T14:19:28.189Z</time>
      </trkpt>
      <trkpt lat="44.18394" lon="0.59756">
        <ele>60</ele>
        <time>2026-02-22T14:19:29.189Z</time>
      </trkpt>
      <trkpt lat="44.18393" lon="0.59757">
        <ele>60</ele>
        <time>2026-02-22T14:19:30.188Z</time>
      </trkpt>
      <trkpt lat="44.18393" lon="0.59758">
        <ele>60</ele>
        <time>2026-02-22T14:19:31.188Z</time>
      </trkpt>
      <trkpt lat="44.18392" lon="0.59759">
        <ele>59</ele>
        <time>2026-02-22T14:19:32.188Z</time>
      </trkpt>
      <trkpt lat="44.18392" lon="0.59759">
        <ele>59</ele>
        <time>2026-02-22T14:19:33.188Z</time>
      </trkpt>
      <trkpt lat="44.18391" lon="0.5976">
        <ele>59</ele>
        <time>2026-02-22T14:19:34.188Z</time>
      </trkpt>
      <trkpt lat="44.18391" lon="0.5976">
        <ele>59</ele>
        <time>2026-02-22T14:19:35.188Z</time>
      </trkpt>
      <trkpt lat="44.18391" lon="0.59761">
        <ele>58</ele>
        <time>2026-02-22T14:19:36.188Z</time>
      </trkpt>
      <trkpt lat="44.18391" lon="0.59761">
        <ele>58</ele>
        <time>2026-02-22T14:19:37.188Z</time>
      </trkpt>
      <trkpt lat="44.18391" lon="0.59761">
        <ele>57</ele>
        <time>2026-02-22T14:19:38.188Z</time>
      </trkpt>
      <trkpt lat="44.18391" lon="0.59762">
        <ele>57</ele>
        <time>2026-02-22T14:19:39.188Z</time>
      </trkpt>
      <trkpt lat="44.1839" lon="0.59762">
        <ele>56</ele>
        <time>2026-02-22T14:19:40.188Z</time>
      </trkpt>
      <trkpt lat="44.1839" lon="0.59762">
        <ele>56</ele>
        <time>2026-02-22T14:19:41.189Z</time>
      </trkpt>
      <trkpt lat="44.1839" lon="0.59762">
        <ele>56</ele>
        <time>2026-02-22T14:19:42.188Z</time>
      </trkpt>
      <trkpt lat="44.1839" lon="0.59762">
        <ele>57</ele>
        <time>2026-02-22T14:19:43.188Z</time>
      </trkpt>
      <trkpt lat="44.1839" lon="0.59762">
        <ele>57</ele>
        <time>2026-02-22T14:19:44.188Z</time>
      </trkpt>
      <trkpt lat="44.1839" lon="0.59763">
        <ele>57</ele>
        <time>2026-02-22T14:19:45.188Z</time>
      </trkpt>
      <trkpt lat="44.1839" lon="0.59763">
        <ele>57</ele>
        <time>2026-02-22T14:19:46.188Z</time>
      </trkpt>
      <trkpt lat="44.1839" lon="0.59764">
        <ele>58</ele>
        <time>2026-02-22T14:19:47.188Z</time>
      </trkpt>
      <trkpt lat="44.1839" lon="0.59764">
        <ele>58</ele>
        <time>2026-02-22T14:19:48.188Z</time>
      </trkpt>
      <trkpt lat="44.18389" lon="0.59765">
        <ele>58</ele>
        <time>2026-02-22T14:19:49.188Z</time>
      </trkpt>
      <trkpt lat="44.18389" lon="0.59765">
        <ele>58</ele>
        <time>2026-02-22T14:19:50.188Z</time>
      </trkpt>
      <trkpt lat="44.18389" lon="0.59765">
        <ele>59</ele>
        <time>2026-02-22T14:19:51.188Z</time>
      </trkpt>
      <trkpt lat="44.18389" lon="0.59765">
        <ele>59</ele>
        <time>2026-02-22T14:19:52.188Z</time>
      </trkpt>
      <trkpt lat="44.18389" lon="0.59765">
        <ele>59</ele>
        <time>2026-02-22T14:19:53.188Z</time>
      </trkpt>
      <trkpt lat="44.18389" lon="0.59766">
        <ele>60</ele>
        <time>2026-02-22T14:19:54.189Z</time>
      </trkpt>
      <trkpt lat="44.18389" lon="0.59766">
        <ele>60</ele>
        <time>2026-02-22T14:19:55.188Z</time>
      </trkpt>
      <trkpt lat="44.18389" lon="0.59766">
        <ele>61</ele>
        <time>2026-02-22T14:19:56.188Z</time>
      </trkpt>
      <trkpt lat="44.18389" lon="0.59766">
        <ele>62</ele>
        <time>2026-02-22T14:19:57.188Z</time>
      </trkpt>
      <trkpt lat="44.18389" lon="0.59766">
        <ele>62</ele>
        <time>2026-02-22T14:19:58.188Z</time>
      </trkpt>
      <trkpt lat="44.18389" lon="0.59766">
        <ele>62</ele>
        <time>2026-02-22T14:19:59.188Z</time>
      </trkpt>
      <trkpt lat="44.18389" lon="0.59766">
        <ele>63</ele>
        <time>2026-02-22T14:20:00.188Z</time>
      </trkpt>
      <trkpt lat="44.18389" lon="0.59766">
        <ele>63</ele>
        <time>2026-02-22T14:20:01.188Z</time>
      </trkpt>
      <trkpt lat="44.18388" lon="0.59766">
        <ele>63</ele>
        <time>2026-02-22T14:20:02.188Z</time>
      </trkpt>
      <trkpt lat="44.18388" lon="0.59766">
        <ele>63</ele>
        <time>2026-02-22T14:20:03.188Z</time>
      </trkpt>
      <trkpt lat="44.18388" lon="0.59767">
        <ele>62</ele>
        <time>2026-02-22T14:20:04.188Z</time>
      </trkpt>
      <trkpt lat="44.18388" lon="0.59767">
        <ele>61</ele>
        <time>2026-02-22T14:20:05.188Z</time>
      </trkpt>
      <trkpt lat="44.18388" lon="0.59767">
        <ele>61</ele>
        <time>2026-02-22T14:20:06.188Z</time>
      </trkpt>
      <trkpt lat="44.18389" lon="0.59767">
        <ele>61</ele>
        <time>2026-02-22T14:20:07.188Z</time>
      </trkpt>
      <trkpt lat="44.18389" lon="0.59767">
        <ele>60</ele>
        <time>2026-02-22T14:20:08.188Z</time>
      </trkpt>
      <trkpt lat="44.18389" lon="0.59767">
        <ele>60</ele>
        <time>2026-02-22T14:20:09.188Z</time>
      </trkpt>
      <trkpt lat="44.18388" lon="0.59767">
        <ele>60</ele>
        <time>2026-02-22T14:20:10.188Z</time>
      </trkpt>
      <trkpt lat="44.18388" lon="0.59767">
        <ele>60</ele>
        <time>2026-02-22T14:20:11.188Z</time>
      </trkpt>
      <trkpt lat="44.18388" lon="0.59767">
        <ele>60</ele>
        <time>2026-02-22T14:20:12.188Z</time>
      </trkpt>
      <trkpt lat="44.18388" lon="0.59767">
        <ele>60</ele>
        <time>2026-02-22T14:20:13.188Z</time>
      </trkpt>
      <trkpt lat="44.18388" lon="0.59767">
        <ele>59</ele>
        <time>2026-02-22T14:20:14.188Z</time>
      </trkpt>
      <trkpt lat="44.18388" lon="0.59767">
        <ele>59</ele>
        <time>2026-02-22T14:20:15.188Z</time>
      </trkpt>
      <trkpt lat="44.18388" lon="0.59767">
        <ele>59</ele>
        <time>2026-02-22T14:20:16.188Z</time>
      </trkpt>
      <trkpt lat="44.18388" lon="0.59767">
        <ele>59</ele>
        <time>2026-02-22T14:20:17.188Z</time>
      </trkpt>
      <trkpt lat="44.18388" lon="0.59767">
        <ele>59</ele>
        <time>2026-02-22T14:20:18.188Z</time>
      </trkpt>
      <trkpt lat="44.18387" lon="0.59767">
        <ele>60</ele>
        <time>2026-02-22T14:20:19.188Z</time>
      </trkpt>
      <trkpt lat="44.18387" lon="0.59767">
        <ele>60</ele>
        <time>2026-02-22T14:20:20.188Z</time>
      </trkpt>
      <trkpt lat="44.18387" lon="0.59767">
        <ele>60</ele>
        <time>2026-02-22T14:20:21.188Z</time>
      </trkpt>
      <trkpt lat="44.18387" lon="0.59767">
        <ele>60</ele>
        <time>2026-02-22T14:20:22.189Z</time>
      </trkpt>
      <trkpt lat="44.18387" lon="0.59767">
        <ele>60</ele>
        <time>2026-02-22T14:20:23.188Z</time>
      </trkpt>
      <trkpt lat="44.18387" lon="0.59767">
        <ele>60</ele>
        <time>2026-02-22T14:20:24.188Z</time>
      </trkpt>
      <trkpt lat="44.18387" lon="0.59767">
        <ele>60</ele>
        <time>2026-02-22T14:20:25.188Z</time>
      </trkpt>
      <trkpt lat="44.18387" lon="0.59767">
        <ele>60</ele>
        <time>2026-02-22T14:20:26.188Z</time>
      </trkpt>
      <trkpt lat="44.18387" lon="0.59767">
        <ele>60</ele>
        <time>2026-02-22T14:20:27.188Z</time>
      </trkpt>
      <trkpt lat="44.18387" lon="0.59767">
        <ele>60</ele>
        <time>2026-02-22T14:20:28.188Z</time>
      </trkpt>
      <trkpt lat="44.18387" lon="0.59766">
        <ele>60</ele>
        <time>2026-02-22T14:20:29.188Z</time>
      </trkpt>
      <trkpt lat="44.18387" lon="0.59766">
        <ele>60</ele>
        <time>2026-02-22T14:20:30.188Z</time>
      </trkpt>
      <trkpt lat="44.18387" lon="0.59766">
        <ele>60</ele>
        <time>2026-02-22T14:20:31.188Z</time>
      </trkpt>
      <trkpt lat="44.18386" lon="0.59766">
        <ele>60</ele>
        <time>2026-02-22T14:20:32.188Z</time>
      </trkpt>
      <trkpt lat="44.18386" lon="0.59766">
        <ele>60</ele>
        <time>2026-02-22T14:20:33.188Z</time>
      </trkpt>
      <trkpt lat="44.18386" lon="0.59766">
        <ele>59</ele>
        <time>2026-02-22T14:20:34.188Z</time>
      </trkpt>
      <trkpt lat="44.18386" lon="0.59766">
        <ele>59</ele>
        <time>2026-02-22T14:20:35.188Z</time>
      </trkpt>
      <trkpt lat="44.18386" lon="0.59766">
        <ele>59</ele>
        <time>2026-02-22T14:20:36.188Z</time>
      </trkpt>
      <trkpt lat="44.18385" lon="0.59765">
        <ele>59</ele>
        <time>2026-02-22T14:20:37.188Z</time>
      </trkpt>
      <trkpt lat="44.18385" lon="0.59765">
        <ele>59</ele>
        <time>2026-02-22T14:20:38.188Z</time>
      </trkpt>
      <trkpt lat="44.18385" lon="0.59765">
        <ele>59</ele>
        <time>2026-02-22T14:20:39.188Z</time>
      </trkpt>
      <trkpt lat="44.18385" lon="0.59765">
        <ele>59</ele>
        <time>2026-02-22T14:20:40.189Z</time>
      </trkpt>
      <trkpt lat="44.18385" lon="0.59764">
        <ele>59</ele>
        <time>2026-02-22T14:20:41.189Z</time>
      </trkpt>
      <trkpt lat="44.18385" lon="0.59764">
        <ele>59</ele>
        <time>2026-02-22T14:20:42.188Z</time>
      </trkpt>
      <trkpt lat="44.18385" lon="0.59764">
        <ele>59</ele>
        <time>2026-02-22T14:20:43.188Z</time>
      </trkpt>
      <trkpt lat="44.18385" lon="0.59765">
        <ele>59</ele>
        <time>2026-02-22T14:20:44.188Z</time>
      </trkpt>
      <trkpt lat="44.18385" lon="0.59765">
        <ele>59</ele>
        <time>2026-02-22T14:20:45.188Z</time>
      </trkpt>
      <trkpt lat="44.18385" lon="0.59766">
        <ele>59</ele>
        <time>2026-02-22T14:20:46.188Z</time>
      </trkpt>
      <trkpt lat="44.18385" lon="0.59766">
        <ele>60</ele>
        <time>2026-02-22T14:20:47.188Z</time>
      </trkpt>
      <trkpt lat="44.18385" lon="0.59767">
        <ele>60</ele>
        <time>2026-02-22T14:20:48.188Z</time>
      </trkpt>
      <trkpt lat="44.18385" lon="0.59768">
        <ele>59</ele>
        <time>2026-02-22T14:20:49.188Z</time>
      </trkpt>
      <trkpt lat="44.18385" lon="0.59769">
        <ele>59</ele>
        <time>2026-02-22T14:20:50.188Z</time>
      </trkpt>
      <trkpt lat="44.18385" lon="0.59771">
        <ele>59</ele>
        <time>2026-02-22T14:20:51.188Z</time>
      </trkpt>
      <trkpt lat="44.18385" lon="0.59772">
        <ele>58</ele>
        <time>2026-02-22T14:20:52.188Z</time>
      </trkpt>
      <trkpt lat="44.18385" lon="0.59774">
        <ele>58</ele>
        <time>2026-02-22T14:20:53.188Z</time>
      </trkpt>
      <trkpt lat="44.18385" lon="0.59775">
        <ele>58</ele>
        <time>2026-02-22T14:20:54.188Z</time>
      </trkpt>
      <trkpt lat="44.18385" lon="0.59777">
        <ele>58</ele>
        <time>2026-02-22T14:20:55.188Z</time>
      </trkpt>
      <trkpt lat="44.18385" lon="0.59779">
        <ele>58</ele>
        <time>2026-02-22T14:20:56.188Z</time>
      </trkpt>
      <trkpt lat="44.18385" lon="0.5978">
        <ele>58</ele>
        <time>2026-02-22T14:20:57.188Z</time>
      </trkpt>
      <trkpt lat="44.18384" lon="0.59782">
        <ele>58</ele>
        <time>2026-02-22T14:20:58.188Z</time>
      </trkpt>
      <trkpt lat="44.18384" lon="0.59783">
        <ele>58</ele>
        <time>2026-02-22T14:20:59.188Z</time>
      </trkpt>
      <trkpt lat="44.18383" lon="0.59784">
        <ele>58</ele>
        <time>2026-02-22T14:21:00.188Z</time>
      </trkpt>
      <trkpt lat="44.18382" lon="0.59785">
        <ele>58</ele>
        <time>2026-02-22T14:21:01.188Z</time>
      </trkpt>
      <trkpt lat="44.18381" lon="0.59785">
        <ele>58</ele>
        <time>2026-02-22T14:21:02.188Z</time>
      </trkpt>
      <trkpt lat="44.1838" lon="0.59785">
        <ele>59</ele>
        <time>2026-02-22T14:21:03.188Z</time>
      </trkpt>
      <trkpt lat="44.1838" lon="0.59785">
        <ele>58</ele>
        <time>2026-02-22T14:21:04.188Z</time>
      </trkpt>
      <trkpt lat="44.1838" lon="0.59785">
        <ele>58</ele>
        <time>2026-02-22T14:21:05.188Z</time>
      </trkpt>
      <trkpt lat="44.1838" lon="0.59786">
        <ele>58</ele>
        <time>2026-02-22T14:21:06.188Z</time>
      </trkpt>
      <trkpt lat="44.18379" lon="0.59787">
        <ele>57</ele>
        <time>2026-02-22T14:21:07.188Z</time>
      </trkpt>
      <trkpt lat="44.18379" lon="0.59788">
        <ele>57</ele>
        <time>2026-02-22T14:21:08.188Z</time>
      </trkpt>
      <trkpt lat="44.18378" lon="0.59789">
        <ele>57</ele>
        <time>2026-02-22T14:21:09.188Z</time>
      </trkpt>
      <trkpt lat="44.18377" lon="0.59791">
        <ele>57</ele>
        <time>2026-02-22T14:21:10.188Z</time>
      </trkpt>
      <trkpt lat="44.18377" lon="0.59792">
        <ele>57</ele>
        <time>2026-02-22T14:21:11.188Z</time>
      </trkpt>
      <trkpt lat="44.18376" lon="0.59793">
        <ele>57</ele>
        <time>2026-02-22T14:21:12.188Z</time>
      </trkpt>
      <trkpt lat="44.18376" lon="0.59794">
        <ele>57</ele>
        <time>2026-02-22T14:21:13.188Z</time>
      </trkpt>
      <trkpt lat="44.18375" lon="0.59795">
        <ele>56</ele>
        <time>2026-02-22T14:21:14.188Z</time>
      </trkpt>
      <trkpt lat="44.18375" lon="0.59796">
        <ele>57</ele>
        <time>2026-02-22T14:21:15.188Z</time>
      </trkpt>
      <trkpt lat="44.18374" lon="0.59797">
        <ele>57</ele>
        <time>2026-02-22T14:21:16.188Z</time>
      </trkpt>
      <trkpt lat="44.18374" lon="0.59798">
        <ele>57</ele>
        <time>2026-02-22T14:21:17.188Z</time>
      </trkpt>
      <trkpt lat="44.18373" lon="0.59799">
        <ele>57</ele>
        <time>2026-02-22T14:21:18.188Z</time>
      </trkpt>
      <trkpt lat="44.18373" lon="0.59801">
        <ele>57</ele>
        <time>2026-02-22T14:21:19.188Z</time>
      </trkpt>
      <trkpt lat="44.18372" lon="0.59802">
        <ele>58</ele>
        <time>2026-02-22T14:21:20.189Z</time>
      </trkpt>
      <trkpt lat="44.18372" lon="0.59803">
        <ele>58</ele>
        <time>2026-02-22T14:21:21.188Z</time>
      </trkpt>
      <trkpt lat="44.18371" lon="0.59804">
        <ele>59</ele>
        <time>2026-02-22T14:21:22.189Z</time>
      </trkpt>
      <trkpt lat="44.18371" lon="0.59806">
        <ele>59</ele>
        <time>2026-02-22T14:21:23.188Z</time>
      </trkpt>
      <trkpt lat="44.18371" lon="0.59807">
        <ele>60</ele>
        <time>2026-02-22T14:21:24.188Z</time>
      </trkpt>
      <trkpt lat="44.1837" lon="0.59809">
        <ele>60</ele>
        <time>2026-02-22T14:21:25.188Z</time>
      </trkpt>
      <trkpt lat="44.1837" lon="0.5981">
        <ele>61</ele>
        <time>2026-02-22T14:21:26.188Z</time>
      </trkpt>
      <trkpt lat="44.18369" lon="0.59812">
        <ele>61</ele>
        <time>2026-02-22T14:21:27.188Z</time>
      </trkpt>
      <trkpt lat="44.18369" lon="0.59813">
        <ele>61</ele>
        <time>2026-02-22T14:21:28.188Z</time>
      </trkpt>
      <trkpt lat="44.18368" lon="0.59814">
        <ele>61</ele>
        <time>2026-02-22T14:21:29.188Z</time>
      </trkpt>
      <trkpt lat="44.18367" lon="0.59815">
        <ele>61</ele>
        <time>2026-02-22T14:21:30.188Z</time>
      </trkpt>
      <trkpt lat="44.18367" lon="0.59817">
        <ele>62</ele>
        <time>2026-02-22T14:21:31.188Z</time>
      </trkpt>
      <trkpt lat="44.18366" lon="0.59818">
        <ele>62</ele>
        <time>2026-02-22T14:21:32.188Z</time>
      </trkpt>
      <trkpt lat="44.18366" lon="0.59819">
        <ele>62</ele>
        <time>2026-02-22T14:21:33.188Z</time>
      </trkpt>
      <trkpt lat="44.18365" lon="0.59821">
        <ele>62</ele>
        <time>2026-02-22T14:21:34.188Z</time>
      </trkpt>
      <trkpt lat="44.18364" lon="0.59822">
        <ele>62</ele>
        <time>2026-02-22T14:21:35.188Z</time>
      </trkpt>
      <trkpt lat="44.18364" lon="0.59823">
        <ele>62</ele>
        <time>2026-02-22T14:21:36.188Z</time>
      </trkpt>
      <trkpt lat="44.18363" lon="0.59825">
        <ele>61</ele>
        <time>2026-02-22T14:21:37.188Z</time>
      </trkpt>
      <trkpt lat="44.18362" lon="0.59827">
        <ele>61</ele>
        <time>2026-02-22T14:21:38.188Z</time>
      </trkpt>
      <trkpt lat="44.18362" lon="0.59828">
        <ele>61</ele>
        <time>2026-02-22T14:21:39.188Z</time>
      </trkpt>
      <trkpt lat="44.18361" lon="0.5983">
        <ele>60</ele>
        <time>2026-02-22T14:21:40.188Z</time>
      </trkpt>
      <trkpt lat="44.18361" lon="0.59831">
        <ele>60</ele>
        <time>2026-02-22T14:21:41.188Z</time>
      </trkpt>
      <trkpt lat="44.1836" lon="0.59832">
        <ele>60</ele>
        <time>2026-02-22T14:21:42.188Z</time>
      </trkpt>
      <trkpt lat="44.18359" lon="0.59834">
        <ele>60</ele>
        <time>2026-02-22T14:21:43.188Z</time>
      </trkpt>
      <trkpt lat="44.18359" lon="0.59835">
        <ele>60</ele>
        <time>2026-02-22T14:21:44.188Z</time>
      </trkpt>
      <trkpt lat="44.18359" lon="0.59837">
        <ele>61</ele>
        <time>2026-02-22T14:21:45.188Z</time>
      </trkpt>
      <trkpt lat="44.18359" lon="0.59838">
        <ele>61</ele>
        <time>2026-02-22T14:21:46.188Z</time>
      </trkpt>
      <trkpt lat="44.18358" lon="0.59839">
        <ele>61</ele>
        <time>2026-02-22T14:21:47.188Z</time>
      </trkpt>
      <trkpt lat="44.18358" lon="0.5984">
        <ele>61</ele>
        <time>2026-02-22T14:21:48.188Z</time>
      </trkpt>
      <trkpt lat="44.18358" lon="0.59842">
        <ele>61</ele>
        <time>2026-02-22T14:21:49.188Z</time>
      </trkpt>
      <trkpt lat="44.18358" lon="0.59843">
        <ele>61</ele>
        <time>2026-02-22T14:21:50.189Z</time>
      </trkpt>
      <trkpt lat="44.18358" lon="0.59844">
        <ele>61</ele>
        <time>2026-02-22T14:21:51.188Z</time>
      </trkpt>
      <trkpt lat="44.18358" lon="0.59846">
        <ele>61</ele>
        <time>2026-02-22T14:21:52.189Z</time>
      </trkpt>
      <trkpt lat="44.18357" lon="0.59848">
        <ele>62</ele>
        <time>2026-02-22T14:21:53.188Z</time>
      </trkpt>
      <trkpt lat="44.18357" lon="0.5985">
        <ele>62</ele>
        <time>2026-02-22T14:21:54.188Z</time>
      </trkpt>
      <trkpt lat="44.18356" lon="0.59851">
        <ele>62</ele>
        <time>2026-02-22T14:21:55.188Z</time>
      </trkpt>
      <trkpt lat="44.18356" lon="0.59853">
        <ele>62</ele>
        <time>2026-02-22T14:21:56.188Z</time>
      </trkpt>
      <trkpt lat="44.18355" lon="0.59855">
        <ele>62</ele>
        <time>2026-02-22T14:21:57.188Z</time>
      </trkpt>
      <trkpt lat="44.18355" lon="0.59856">
        <ele>62</ele>
        <time>2026-02-22T14:21:58.188Z</time>
      </trkpt>
      <trkpt lat="44.18354" lon="0.59857">
        <ele>62</ele>
        <time>2026-02-22T14:21:59.188Z</time>
      </trkpt>
      <trkpt lat="44.18353" lon="0.59859">
        <ele>62</ele>
        <time>2026-02-22T14:22:00.188Z</time>
      </trkpt>
      <trkpt lat="44.18352" lon="0.59861">
        <ele>62</ele>
        <time>2026-02-22T14:22:01.188Z</time>
      </trkpt>
      <trkpt lat="44.18351" lon="0.59862">
        <ele>61</ele>
        <time>2026-02-22T14:22:02.188Z</time>
      </trkpt>
      <trkpt lat="44.1835" lon="0.59864">
        <ele>61</ele>
        <time>2026-02-22T14:22:03.188Z</time>
      </trkpt>
      <trkpt lat="44.1835" lon="0.59866">
        <ele>60</ele>
        <time>2026-02-22T14:22:04.188Z</time>
      </trkpt>
      <trkpt lat="44.18349" lon="0.59867">
        <ele>60</ele>
        <time>2026-02-22T14:22:05.188Z</time>
      </trkpt>
      <trkpt lat="44.18348" lon="0.59868">
        <ele>60</ele>
        <time>2026-02-22T14:22:06.188Z</time>
      </trkpt>
      <trkpt lat="44.18347" lon="0.59869">
        <ele>61</ele>
        <time>2026-02-22T14:22:07.189Z</time>
      </trkpt>
      <trkpt lat="44.18346" lon="0.5987">
        <ele>61</ele>
        <time>2026-02-22T14:22:08.188Z</time>
      </trkpt>
      <trkpt lat="44.18345" lon="0.59871">
        <ele>61</ele>
        <time>2026-02-22T14:22:09.188Z</time>
      </trkpt>
      <trkpt lat="44.18344" lon="0.59871">
        <ele>61</ele>
        <time>2026-02-22T14:22:10.188Z</time>
      </trkpt>
      <trkpt lat="44.18342" lon="0.59872">
        <ele>61</ele>
        <time>2026-02-22T14:22:11.188Z</time>
      </trkpt>
      <trkpt lat="44.18341" lon="0.59873">
        <ele>61</ele>
        <time>2026-02-22T14:22:12.188Z</time>
      </trkpt>
      <trkpt lat="44.1834" lon="0.59874">
        <ele>61</ele>
        <time>2026-02-22T14:22:13.188Z</time>
      </trkpt>
      <trkpt lat="44.18339" lon="0.59875">
        <ele>61</ele>
        <time>2026-02-22T14:22:14.188Z</time>
      </trkpt>
      <trkpt lat="44.18339" lon="0.59876">
        <ele>61</ele>
        <time>2026-02-22T14:22:15.188Z</time>
      </trkpt>
      <trkpt lat="44.18338" lon="0.59877">
        <ele>60</ele>
        <time>2026-02-22T14:22:16.188Z</time>
      </trkpt>
      <trkpt lat="44.18337" lon="0.59879">
        <ele>60</ele>
        <time>2026-02-22T14:22:17.188Z</time>
      </trkpt>
      <trkpt lat="44.18336" lon="0.5988">
        <ele>60</ele>
        <time>2026-02-22T14:22:18.188Z</time>
      </trkpt>
      <trkpt lat="44.18335" lon="0.59881">
        <ele>60</ele>
        <time>2026-02-22T14:22:19.188Z</time>
      </trkpt>
      <trkpt lat="44.18334" lon="0.59882">
        <ele>60</ele>
        <time>2026-02-22T14:22:20.189Z</time>
      </trkpt>
      <trkpt lat="44.18333" lon="0.59883">
        <ele>60</ele>
        <time>2026-02-22T14:22:21.188Z</time>
      </trkpt>
      <trkpt lat="44.18332" lon="0.59884">
        <ele>60</ele>
        <time>2026-02-22T14:22:22.188Z</time>
      </trkpt>
      <trkpt lat="44.18332" lon="0.59885">
        <ele>60</ele>
        <time>2026-02-22T14:22:23.188Z</time>
      </trkpt>
      <trkpt lat="44.18331" lon="0.59886">
        <ele>60</ele>
        <time>2026-02-22T14:22:24.188Z</time>
      </trkpt>
      <trkpt lat="44.1833" lon="0.59887">
        <ele>60</ele>
        <time>2026-02-22T14:22:25.188Z</time>
      </trkpt>
      <trkpt lat="44.1833" lon="0.59888">
        <ele>60</ele>
        <time>2026-02-22T14:22:26.188Z</time>
      </trkpt>
      <trkpt lat="44.18329" lon="0.5989">
        <ele>60</ele>
        <time>2026-02-22T14:22:27.188Z</time>
      </trkpt>
      <trkpt lat="44.18329" lon="0.59892">
        <ele>60</ele>
        <time>2026-02-22T14:22:28.189Z</time>
      </trkpt>
      <trkpt lat="44.18328" lon="0.59893">
        <ele>60</ele>
        <time>2026-02-22T14:22:29.188Z</time>
      </trkpt>
      <trkpt lat="44.18327" lon="0.59894">
        <ele>60</ele>
        <time>2026-02-22T14:22:30.188Z</time>
      </trkpt>
      <trkpt lat="44.18327" lon="0.59896">
        <ele>60</ele>
        <time>2026-02-22T14:22:31.188Z</time>
      </trkpt>
      <trkpt lat="44.18326" lon="0.59897">
        <ele>60</ele>
        <time>2026-02-22T14:22:32.188Z</time>
      </trkpt>
      <trkpt lat="44.18325" lon="0.59899">
        <ele>60</ele>
        <time>2026-02-22T14:22:33.188Z</time>
      </trkpt>
      <trkpt lat="44.18325" lon="0.599">
        <ele>60</ele>
        <time>2026-02-22T14:22:34.188Z</time>
      </trkpt>
      <trkpt lat="44.18324" lon="0.59902">
        <ele>60</ele>
        <time>2026-02-22T14:22:35.188Z</time>
      </trkpt>
      <trkpt lat="44.18323" lon="0.59904">
        <ele>60</ele>
        <time>2026-02-22T14:22:36.188Z</time>
      </trkpt>
      <trkpt lat="44.18323" lon="0.59905">
        <ele>60</ele>
        <time>2026-02-22T14:22:37.188Z</time>
      </trkpt>
      <trkpt lat="44.18322" lon="0.59907">
        <ele>60</ele>
        <time>2026-02-22T14:22:38.188Z</time>
      </trkpt>
      <trkpt lat="44.18321" lon="0.59908">
        <ele>60</ele>
        <time>2026-02-22T14:22:39.188Z</time>
      </trkpt>
      <trkpt lat="44.18321" lon="0.5991">
        <ele>60</ele>
        <time>2026-02-22T14:22:40.188Z</time>
      </trkpt>
      <trkpt lat="44.1832" lon="0.59911">
        <ele>60</ele>
        <time>2026-02-22T14:22:41.188Z</time>
      </trkpt>
      <trkpt lat="44.1832" lon="0.59913">
        <ele>60</ele>
        <time>2026-02-22T14:22:42.188Z</time>
      </trkpt>
      <trkpt lat="44.1832" lon="0.59914">
        <ele>60</ele>
        <time>2026-02-22T14:22:43.188Z</time>
      </trkpt>
      <trkpt lat="44.18319" lon="0.59916">
        <ele>60</ele>
        <time>2026-02-22T14:22:44.188Z</time>
      </trkpt>
      <trkpt lat="44.18319" lon="0.59918">
        <ele>60</ele>
        <time>2026-02-22T14:22:45.188Z</time>
      </trkpt>
      <trkpt lat="44.18319" lon="0.59919">
        <ele>60</ele>
        <time>2026-02-22T14:22:46.188Z</time>
      </trkpt>
      <trkpt lat="44.18318" lon="0.59921">
        <ele>60</ele>
        <time>2026-02-22T14:22:47.188Z</time>
      </trkpt>
      <trkpt lat="44.18318" lon="0.59923">
        <ele>60</ele>
        <time>2026-02-22T14:22:48.188Z</time>
      </trkpt>
      <trkpt lat="44.18318" lon="0.59924">
        <ele>61</ele>
        <time>2026-02-22T14:22:49.188Z</time>
      </trkpt>
      <trkpt lat="44.18317" lon="0.59926">
        <ele>61</ele>
        <time>2026-02-22T14:22:50.189Z</time>
      </trkpt>
      <trkpt lat="44.18317" lon="0.59927">
        <ele>62</ele>
        <time>2026-02-22T14:22:51.188Z</time>
      </trkpt>
      <trkpt lat="44.18317" lon="0.59929">
        <ele>62</ele>
        <time>2026-02-22T14:22:52.188Z</time>
      </trkpt>
      <trkpt lat="44.18316" lon="0.5993">
        <ele>62</ele>
        <time>2026-02-22T14:22:53.188Z</time>
      </trkpt>
      <trkpt lat="44.18315" lon="0.59932">
        <ele>62</ele>
        <time>2026-02-22T14:22:54.188Z</time>
      </trkpt>
      <trkpt lat="44.18314" lon="0.59934">
        <ele>62</ele>
        <time>2026-02-22T14:22:55.188Z</time>
      </trkpt>
      <trkpt lat="44.18313" lon="0.59935">
        <ele>62</ele>
        <time>2026-02-22T14:22:56.188Z</time>
      </trkpt>
      <trkpt lat="44.18312" lon="0.59937">
        <ele>62</ele>
        <time>2026-02-22T14:22:57.188Z</time>
      </trkpt>
      <trkpt lat="44.18311" lon="0.59938">
        <ele>62</ele>
        <time>2026-02-22T14:22:58.188Z</time>
      </trkpt>
      <trkpt lat="44.1831" lon="0.59939">
        <ele>62</ele>
        <time>2026-02-22T14:22:59.188Z</time>
      </trkpt>
      <trkpt lat="44.18309" lon="0.59941">
        <ele>63</ele>
        <time>2026-02-22T14:23:00.188Z</time>
      </trkpt>
      <trkpt lat="44.18309" lon="0.59942">
        <ele>63</ele>
        <time>2026-02-22T14:23:01.188Z</time>
      </trkpt>
      <trkpt lat="44.18308" lon="0.59943">
        <ele>64</ele>
        <time>2026-02-22T14:23:02.188Z</time>
      </trkpt>
      <trkpt lat="44.18307" lon="0.59944">
        <ele>64</ele>
        <time>2026-02-22T14:23:03.188Z</time>
      </trkpt>
      <trkpt lat="44.18306" lon="0.59946">
        <ele>64</ele>
        <time>2026-02-22T14:23:04.189Z</time>
      </trkpt>
      <trkpt lat="44.18305" lon="0.59947">
        <ele>65</ele>
        <time>2026-02-22T14:23:05.189Z</time>
      </trkpt>
      <trkpt lat="44.18304" lon="0.59949">
        <ele>65</ele>
        <time>2026-02-22T14:23:06.188Z</time>
      </trkpt>
      <trkpt lat="44.18303" lon="0.5995">
        <ele>65</ele>
        <time>2026-02-22T14:23:07.188Z</time>
      </trkpt>
      <trkpt lat="44.18302" lon="0.59951">
        <ele>65</ele>
        <time>2026-02-22T14:23:08.188Z</time>
      </trkpt>
      <trkpt lat="44.18301" lon="0.59952">
        <ele>66</ele>
        <time>2026-02-22T14:23:09.188Z</time>
      </trkpt>
      <trkpt lat="44.183" lon="0.59953">
        <ele>66</ele>
        <time>2026-02-22T14:23:10.188Z</time>
      </trkpt>
      <trkpt lat="44.18299" lon="0.59954">
        <ele>66</ele>
        <time>2026-02-22T14:23:11.188Z</time>
      </trkpt>
      <trkpt lat="44.18298" lon="0.59955">
        <ele>66</ele>
        <time>2026-02-22T14:23:12.188Z</time>
      </trkpt>
      <trkpt lat="44.18298" lon="0.59956">
        <ele>66</ele>
        <time>2026-02-22T14:23:13.188Z</time>
      </trkpt>
      <trkpt lat="44.18297" lon="0.59958">
        <ele>66</ele>
        <time>2026-02-22T14:23:14.188Z</time>
      </trkpt>
      <trkpt lat="44.18296" lon="0.59959">
        <ele>65</ele>
        <time>2026-02-22T14:23:15.188Z</time>
      </trkpt>
      <trkpt lat="44.18296" lon="0.59961">
        <ele>65</ele>
        <time>2026-02-22T14:23:16.188Z</time>
      </trkpt>
      <trkpt lat="44.18295" lon="0.59962">
        <ele>65</ele>
        <time>2026-02-22T14:23:17.188Z</time>
      </trkpt>
      <trkpt lat="44.18294" lon="0.59964">
        <ele>64</ele>
        <time>2026-02-22T14:23:18.188Z</time>
      </trkpt>
      <trkpt lat="44.18294" lon="0.59965">
        <ele>64</ele>
        <time>2026-02-22T14:23:19.188Z</time>
      </trkpt>
      <trkpt lat="44.18294" lon="0.59967">
        <ele>63</ele>
        <time>2026-02-22T14:23:20.189Z</time>
      </trkpt>
      <trkpt lat="44.18293" lon="0.59968">
        <ele>63</ele>
        <time>2026-02-22T14:23:21.188Z</time>
      </trkpt>
      <trkpt lat="44.18292" lon="0.59969">
        <ele>63</ele>
        <time>2026-02-22T14:23:22.188Z</time>
      </trkpt>
      <trkpt lat="44.18292" lon="0.59971">
        <ele>63</ele>
        <time>2026-02-22T14:23:23.188Z</time>
      </trkpt>
      <trkpt lat="44.18291" lon="0.59972">
        <ele>63</ele>
        <time>2026-02-22T14:23:24.188Z</time>
      </trkpt>
      <trkpt lat="44.1829" lon="0.59974">
        <ele>62</ele>
        <time>2026-02-22T14:23:25.188Z</time>
      </trkpt>
      <trkpt lat="44.1829" lon="0.59976">
        <ele>62</ele>
        <time>2026-02-22T14:23:26.188Z</time>
      </trkpt>
      <trkpt lat="44.18289" lon="0.59977">
        <ele>61</ele>
        <time>2026-02-22T14:23:27.188Z</time>
      </trkpt>
      <trkpt lat="44.18289" lon="0.59979">
        <ele>61</ele>
        <time>2026-02-22T14:23:28.188Z</time>
      </trkpt>
      <trkpt lat="44.18288" lon="0.5998">
        <ele>60</ele>
        <time>2026-02-22T14:23:29.188Z</time>
      </trkpt>
      <trkpt lat="44.18288" lon="0.59982">
        <ele>60</ele>
        <time>2026-02-22T14:23:30.188Z</time>
      </trkpt>
      <trkpt lat="44.18287" lon="0.59983">
        <ele>60</ele>
        <time>2026-02-22T14:23:31.188Z</time>
      </trkpt>
      <trkpt lat="44.18287" lon="0.59985">
        <ele>61</ele>
        <time>2026-02-22T14:23:32.188Z</time>
      </trkpt>
      <trkpt lat="44.18286" lon="0.59986">
        <ele>61</ele>
        <time>2026-02-22T14:23:33.188Z</time>
      </trkpt>
      <trkpt lat="44.18286" lon="0.59988">
        <ele>61</ele>
        <time>2026-02-22T14:23:34.188Z</time>
      </trkpt>
      <trkpt lat="44.18285" lon="0.5999">
        <ele>61</ele>
        <time>2026-02-22T14:23:35.188Z</time>
      </trkpt>
      <trkpt lat="44.18285" lon="0.59991">
        <ele>61</ele>
        <time>2026-02-22T14:23:36.188Z</time>
      </trkpt>
      <trkpt lat="44.18284" lon="0.59993">
        <ele>61</ele>
        <time>2026-02-22T14:23:37.188Z</time>
      </trkpt>
      <trkpt lat="44.18283" lon="0.59994">
        <ele>61</ele>
        <time>2026-02-22T14:23:38.188Z</time>
      </trkpt>
      <trkpt lat="44.18283" lon="0.59995">
        <ele>60</ele>
        <time>2026-02-22T14:23:39.189Z</time>
      </trkpt>
      <trkpt lat="44.18281" lon="0.59996">
        <ele>60</ele>
        <time>2026-02-22T14:23:40.188Z</time>
      </trkpt>
      <trkpt lat="44.1828" lon="0.59997">
        <ele>61</ele>
        <time>2026-02-22T14:23:41.188Z</time>
      </trkpt>
      <trkpt lat="44.18279" lon="0.59998">
        <ele>61</ele>
        <time>2026-02-22T14:23:42.188Z</time>
      </trkpt>
      <trkpt lat="44.18277" lon="0.59999">
        <ele>61</ele>
        <time>2026-02-22T14:23:43.188Z</time>
      </trkpt>
      <trkpt lat="44.18276" lon="0.59999">
        <ele>60</ele>
        <time>2026-02-22T14:23:44.188Z</time>
      </trkpt>
      <trkpt lat="44.18275" lon="0.6">
        <ele>61</ele>
        <time>2026-02-22T14:23:45.188Z</time>
      </trkpt>
      <trkpt lat="44.18274" lon="0.60001">
        <ele>61</ele>
        <time>2026-02-22T14:23:46.188Z</time>
      </trkpt>
      <trkpt lat="44.18273" lon="0.60002">
        <ele>61</ele>
        <time>2026-02-22T14:23:47.188Z</time>
      </trkpt>
      <trkpt lat="44.18272" lon="0.60002">
        <ele>62</ele>
        <time>2026-02-22T14:23:48.189Z</time>
      </trkpt>
      <trkpt lat="44.1827" lon="0.60002">
        <ele>62</ele>
        <time>2026-02-22T14:23:49.188Z</time>
      </trkpt>
      <trkpt lat="44.18269" lon="0.60003">
        <ele>63</ele>
        <time>2026-02-22T14:23:50.188Z</time>
      </trkpt>
      <trkpt lat="44.18268" lon="0.60003">
        <ele>63</ele>
        <time>2026-02-22T14:23:51.188Z</time>
      </trkpt>
      <trkpt lat="44.18266" lon="0.60004">
        <ele>64</ele>
        <time>2026-02-22T14:23:52.188Z</time>
      </trkpt>
      <trkpt lat="44.18265" lon="0.60005">
        <ele>64</ele>
        <time>2026-02-22T14:23:53.188Z</time>
      </trkpt>
      <trkpt lat="44.18264" lon="0.60006">
        <ele>64</ele>
        <time>2026-02-22T14:23:54.188Z</time>
      </trkpt>
      <trkpt lat="44.18263" lon="0.60006">
        <ele>63</ele>
        <time>2026-02-22T14:23:55.188Z</time>
      </trkpt>
      <trkpt lat="44.18263" lon="0.60007">
        <ele>63</ele>
        <time>2026-02-22T14:23:56.188Z</time>
      </trkpt>
      <trkpt lat="44.18262" lon="0.60007">
        <ele>63</ele>
        <time>2026-02-22T14:23:57.188Z</time>
      </trkpt>
      <trkpt lat="44.18261" lon="0.60009">
        <ele>63</ele>
        <time>2026-02-22T14:23:58.188Z</time>
      </trkpt>
      <trkpt lat="44.18261" lon="0.60011">
        <ele>63</ele>
        <time>2026-02-22T14:23:59.188Z</time>
      </trkpt>
      <trkpt lat="44.1826" lon="0.60012">
        <ele>62</ele>
        <time>2026-02-22T14:24:00.188Z</time>
      </trkpt>
      <trkpt lat="44.1826" lon="0.60014">
        <ele>62</ele>
        <time>2026-02-22T14:24:01.188Z</time>
      </trkpt>
      <trkpt lat="44.18259" lon="0.60015">
        <ele>62</ele>
        <time>2026-02-22T14:24:02.188Z</time>
      </trkpt>
      <trkpt lat="44.18259" lon="0.60017">
        <ele>62</ele>
        <time>2026-02-22T14:24:03.188Z</time>
      </trkpt>
      <trkpt lat="44.18258" lon="0.60018">
        <ele>62</ele>
        <time>2026-02-22T14:24:04.188Z</time>
      </trkpt>
      <trkpt lat="44.18258" lon="0.60019">
        <ele>62</ele>
        <time>2026-02-22T14:24:05.188Z</time>
      </trkpt>
      <trkpt lat="44.18257" lon="0.60021">
        <ele>61</ele>
        <time>2026-02-22T14:24:06.188Z</time>
      </trkpt>
      <trkpt lat="44.18256" lon="0.60022">
        <ele>61</ele>
        <time>2026-02-22T14:24:07.188Z</time>
      </trkpt>
      <trkpt lat="44.18256" lon="0.60024">
        <ele>62</ele>
        <time>2026-02-22T14:24:08.188Z</time>
      </trkpt>
      <trkpt lat="44.18256" lon="0.60026">
        <ele>62</ele>
        <time>2026-02-22T14:24:09.188Z</time>
      </trkpt>
      <trkpt lat="44.18255" lon="0.60027">
        <ele>62</ele>
        <time>2026-02-22T14:24:10.188Z</time>
      </trkpt>
      <trkpt lat="44.18255" lon="0.60028">
        <ele>62</ele>
        <time>2026-02-22T14:24:11.188Z</time>
      </trkpt>
      <trkpt lat="44.18254" lon="0.60029">
        <ele>61</ele>
        <time>2026-02-22T14:24:12.188Z</time>
      </trkpt>
      <trkpt lat="44.18253" lon="0.60031">
        <ele>61</ele>
        <time>2026-02-22T14:24:13.188Z</time>
      </trkpt>
      <trkpt lat="44.18252" lon="0.60032">
        <ele>61</ele>
        <time>2026-02-22T14:24:14.189Z</time>
      </trkpt>
      <trkpt lat="44.18251" lon="0.60033">
        <ele>60</ele>
        <time>2026-02-22T14:24:15.189Z</time>
      </trkpt>
      <trkpt lat="44.18251" lon="0.60034">
        <ele>60</ele>
        <time>2026-02-22T14:24:16.188Z</time>
      </trkpt>
      <trkpt lat="44.1825" lon="0.60035">
        <ele>60</ele>
        <time>2026-02-22T14:24:17.188Z</time>
      </trkpt>
      <trkpt lat="44.18249" lon="0.60036">
        <ele>60</ele>
        <time>2026-02-22T14:24:18.189Z</time>
      </trkpt>
      <trkpt lat="44.18248" lon="0.60037">
        <ele>60</ele>
        <time>2026-02-22T14:24:19.188Z</time>
      </trkpt>
      <trkpt lat="44.18247" lon="0.60038">
        <ele>60</ele>
        <time>2026-02-22T14:24:20.188Z</time>
      </trkpt>
      <trkpt lat="44.18247" lon="0.60039">
        <ele>59</ele>
        <time>2026-02-22T14:24:21.188Z</time>
      </trkpt>
      <trkpt lat="44.18246" lon="0.6004">
        <ele>59</ele>
        <time>2026-02-22T14:24:22.188Z</time>
      </trkpt>
      <trkpt lat="44.18245" lon="0.60042">
        <ele>59</ele>
        <time>2026-02-22T14:24:23.188Z</time>
      </trkpt>
      <trkpt lat="44.18245" lon="0.60044">
        <ele>59</ele>
        <time>2026-02-22T14:24:24.188Z</time>
      </trkpt>
      <trkpt lat="44.18244" lon="0.60046">
        <ele>60</ele>
        <time>2026-02-22T14:24:25.188Z</time>
      </trkpt>
      <trkpt lat="44.18244" lon="0.60047">
        <ele>60</ele>
        <time>2026-02-22T14:24:26.188Z</time>
      </trkpt>
      <trkpt lat="44.18243" lon="0.60049">
        <ele>61</ele>
        <time>2026-02-22T14:24:27.188Z</time>
      </trkpt>
      <trkpt lat="44.18243" lon="0.60051">
        <ele>61</ele>
        <time>2026-02-22T14:24:28.188Z</time>
      </trkpt>
      <trkpt lat="44.18242" lon="0.60052">
        <ele>61</ele>
        <time>2026-02-22T14:24:29.188Z</time>
      </trkpt>
      <trkpt lat="44.18242" lon="0.60053">
        <ele>61</ele>
        <time>2026-02-22T14:24:30.188Z</time>
      </trkpt>
      <trkpt lat="44.18241" lon="0.60055">
        <ele>61</ele>
        <time>2026-02-22T14:24:31.188Z</time>
      </trkpt>
      <trkpt lat="44.1824" lon="0.60056">
        <ele>62</ele>
        <time>2026-02-22T14:24:32.188Z</time>
      </trkpt>
      <trkpt lat="44.1824" lon="0.60058">
        <ele>62</ele>
        <time>2026-02-22T14:24:33.189Z</time>
      </trkpt>
      <trkpt lat="44.18239" lon="0.60059">
        <ele>62</ele>
        <time>2026-02-22T14:24:34.188Z</time>
      </trkpt>
      <trkpt lat="44.18238" lon="0.6006">
        <ele>63</ele>
        <time>2026-02-22T14:24:35.188Z</time>
      </trkpt>
      <trkpt lat="44.18237" lon="0.60062">
        <ele>63</ele>
        <time>2026-02-22T14:24:36.188Z</time>
      </trkpt>
      <trkpt lat="44.18237" lon="0.60063">
        <ele>63</ele>
        <time>2026-02-22T14:24:37.188Z</time>
      </trkpt>
      <trkpt lat="44.18236" lon="0.60064">
        <ele>63</ele>
        <time>2026-02-22T14:24:38.188Z</time>
      </trkpt>
      <trkpt lat="44.18235" lon="0.60066">
        <ele>63</ele>
        <time>2026-02-22T14:24:39.188Z</time>
      </trkpt>
      <trkpt lat="44.18235" lon="0.60067">
        <ele>63</ele>
        <time>2026-02-22T14:24:40.188Z</time>
      </trkpt>
      <trkpt lat="44.18234" lon="0.60068">
        <ele>64</ele>
        <time>2026-02-22T14:24:41.188Z</time>
      </trkpt>
      <trkpt lat="44.18233" lon="0.60069">
        <ele>64</ele>
        <time>2026-02-22T14:24:42.188Z</time>
      </trkpt>
      <trkpt lat="44.18233" lon="0.6007">
        <ele>64</ele>
        <time>2026-02-22T14:24:43.188Z</time>
      </trkpt>
      <trkpt lat="44.18232" lon="0.60071">
        <ele>64</ele>
        <time>2026-02-22T14:24:44.188Z</time>
      </trkpt>
      <trkpt lat="44.18232" lon="0.60071">
        <ele>64</ele>
        <time>2026-02-22T14:24:45.188Z</time>
      </trkpt>
      <trkpt lat="44.18232" lon="0.60072">
        <ele>64</ele>
        <time>2026-02-22T14:24:46.188Z</time>
      </trkpt>
      <trkpt lat="44.18232" lon="0.60073">
        <ele>64</ele>
        <time>2026-02-22T14:24:47.188Z</time>
      </trkpt>
      <trkpt lat="44.18232" lon="0.60074">
        <ele>64</ele>
        <time>2026-02-22T14:24:48.188Z</time>
      </trkpt>
      <trkpt lat="44.18232" lon="0.60076">
        <ele>64</ele>
        <time>2026-02-22T14:24:49.188Z</time>
      </trkpt>
      <trkpt lat="44.18231" lon="0.60077">
        <ele>64</ele>
        <time>2026-02-22T14:24:50.189Z</time>
      </trkpt>
      <trkpt lat="44.18231" lon="0.60079">
        <ele>64</ele>
        <time>2026-02-22T14:24:51.188Z</time>
      </trkpt>
      <trkpt lat="44.18231" lon="0.6008">
        <ele>63</ele>
        <time>2026-02-22T14:24:52.188Z</time>
      </trkpt>
      <trkpt lat="44.1823" lon="0.60082">
        <ele>63</ele>
        <time>2026-02-22T14:24:53.188Z</time>
      </trkpt>
      <trkpt lat="44.1823" lon="0.60083">
        <ele>63</ele>
        <time>2026-02-22T14:24:54.188Z</time>
      </trkpt>
      <trkpt lat="44.1823" lon="0.60084">
        <ele>62</ele>
        <time>2026-02-22T14:24:55.188Z</time>
      </trkpt>
      <trkpt lat="44.18229" lon="0.60086">
        <ele>62</ele>
        <time>2026-02-22T14:24:56.188Z</time>
      </trkpt>
      <trkpt lat="44.18229" lon="0.60087">
        <ele>62</ele>
        <time>2026-02-22T14:24:57.188Z</time>
      </trkpt>
      <trkpt lat="44.18228" lon="0.60088">
        <ele>62</ele>
        <time>2026-02-22T14:24:58.188Z</time>
      </trkpt>
      <trkpt lat="44.18227" lon="0.60089">
        <ele>62</ele>
        <time>2026-02-22T14:24:59.188Z</time>
      </trkpt>
      <trkpt lat="44.18226" lon="0.6009">
        <ele>61</ele>
        <time>2026-02-22T14:25:00.188Z</time>
      </trkpt>
      <trkpt lat="44.18226" lon="0.60091">
        <ele>61</ele>
        <time>2026-02-22T14:25:01.188Z</time>
      </trkpt>
      <trkpt lat="44.18225" lon="0.60092">
        <ele>61</ele>
        <time>2026-02-22T14:25:02.188Z</time>
      </trkpt>
      <trkpt lat="44.18225" lon="0.60092">
        <ele>61</ele>
        <time>2026-02-22T14:25:03.189Z</time>
      </trkpt>
      <trkpt lat="44.18225" lon="0.60093">
        <ele>61</ele>
        <time>2026-02-22T14:25:04.188Z</time>
      </trkpt>
      <trkpt lat="44.18225" lon="0.60094">
        <ele>61</ele>
        <time>2026-02-22T14:25:05.188Z</time>
      </trkpt>
      <trkpt lat="44.18224" lon="0.60095">
        <ele>61</ele>
        <time>2026-02-22T14:25:06.188Z</time>
      </trkpt>
      <trkpt lat="44.18223" lon="0.60095">
        <ele>61</ele>
        <time>2026-02-22T14:25:07.188Z</time>
      </trkpt>
      <trkpt lat="44.18223" lon="0.60096">
        <ele>61</ele>
        <time>2026-02-22T14:25:08.188Z</time>
      </trkpt>
      <trkpt lat="44.18222" lon="0.60097">
        <ele>61</ele>
        <time>2026-02-22T14:25:09.188Z</time>
      </trkpt>
      <trkpt lat="44.18222" lon="0.60097">
        <ele>61</ele>
        <time>2026-02-22T14:25:10.188Z</time>
      </trkpt>
      <trkpt lat="44.18222" lon="0.60098">
        <ele>61</ele>
        <time>2026-02-22T14:25:11.188Z</time>
      </trkpt>
      <trkpt lat="44.18221" lon="0.60098">
        <ele>61</ele>
        <time>2026-02-22T14:25:12.188Z</time>
      </trkpt>
      <trkpt lat="44.18221" lon="0.60099">
        <ele>61</ele>
        <time>2026-02-22T14:25:13.188Z</time>
      </trkpt>
      <trkpt lat="44.18221" lon="0.60099">
        <ele>60</ele>
        <time>2026-02-22T14:25:14.188Z</time>
      </trkpt>
      <trkpt lat="44.18221" lon="0.601">
        <ele>60</ele>
        <time>2026-02-22T14:25:15.188Z</time>
      </trkpt>
      <trkpt lat="44.18221" lon="0.60102">
        <ele>60</ele>
        <time>2026-02-22T14:25:16.189Z</time>
      </trkpt>
      <trkpt lat="44.18221" lon="0.60103">
        <ele>60</ele>
        <time>2026-02-22T14:25:17.188Z</time>
      </trkpt>
      <trkpt lat="44.18221" lon="0.60105">
        <ele>60</ele>
        <time>2026-02-22T14:25:18.188Z</time>
      </trkpt>
      <trkpt lat="44.18221" lon="0.60107">
        <ele>60</ele>
        <time>2026-02-22T14:25:19.188Z</time>
      </trkpt>
      <trkpt lat="44.18221" lon="0.60108">
        <ele>60</ele>
        <time>2026-02-22T14:25:20.188Z</time>
      </trkpt>
      <trkpt lat="44.18221" lon="0.6011">
        <ele>60</ele>
        <time>2026-02-22T14:25:21.188Z</time>
      </trkpt>
      <trkpt lat="44.18221" lon="0.60111">
        <ele>60</ele>
        <time>2026-02-22T14:25:22.188Z</time>
      </trkpt>
      <trkpt lat="44.18221" lon="0.60112">
        <ele>60</ele>
        <time>2026-02-22T14:25:23.188Z</time>
      </trkpt>
      <trkpt lat="44.18221" lon="0.60113">
        <ele>60</ele>
        <time>2026-02-22T14:25:24.188Z</time>
      </trkpt>
      <trkpt lat="44.18221" lon="0.60114">
        <ele>60</ele>
        <time>2026-02-22T14:25:25.188Z</time>
      </trkpt>
      <trkpt lat="44.18221" lon="0.60115">
        <ele>59</ele>
        <time>2026-02-22T14:25:26.189Z</time>
      </trkpt>
      <trkpt lat="44.18221" lon="0.60115">
        <ele>59</ele>
        <time>2026-02-22T14:25:27.188Z</time>
      </trkpt>
      <trkpt lat="44.18221" lon="0.60115">
        <ele>59</ele>
        <time>2026-02-22T14:25:28.188Z</time>
      </trkpt>
      <trkpt lat="44.18221" lon="0.60115">
        <ele>59</ele>
        <time>2026-02-22T14:25:29.188Z</time>
      </trkpt>
      <trkpt lat="44.18221" lon="0.60115">
        <ele>59</ele>
        <time>2026-02-22T14:25:30.188Z</time>
      </trkpt>
      <trkpt lat="44.18221" lon="0.60116">
        <ele>59</ele>
        <time>2026-02-22T14:25:31.189Z</time>
      </trkpt>
      <trkpt lat="44.18222" lon="0.60116">
        <ele>59</ele>
        <time>2026-02-22T14:25:32.188Z</time>
      </trkpt>
      <trkpt lat="44.18222" lon="0.60116">
        <ele>59</ele>
        <time>2026-02-22T14:25:33.188Z</time>
      </trkpt>
      <trkpt lat="44.18222" lon="0.60116">
        <ele>59</ele>
        <time>2026-02-22T14:25:34.188Z</time>
      </trkpt>
      <trkpt lat="44.18222" lon="0.60116">
        <ele>59</ele>
        <time>2026-02-22T14:25:35.188Z</time>
      </trkpt>
      <trkpt lat="44.18222" lon="0.60116">
        <ele>59</ele>
        <time>2026-02-22T14:25:36.188Z</time>
      </trkpt>
      <trkpt lat="44.18222" lon="0.60116">
        <ele>59</ele>
        <time>2026-02-22T14:25:37.188Z</time>
      </trkpt>
      <trkpt lat="44.18222" lon="0.60116">
        <ele>59</ele>
        <time>2026-02-22T14:25:38.188Z</time>
      </trkpt>
      <trkpt lat="44.18222" lon="0.60116">
        <ele>59</ele>
        <time>2026-02-22T14:25:39.188Z</time>
      </trkpt>
      <trkpt lat="44.18222" lon="0.60116">
        <ele>60</ele>
        <time>2026-02-22T14:25:40.188Z</time>
      </trkpt>
      <trkpt lat="44.18222" lon="0.60117">
        <ele>60</ele>
        <time>2026-02-22T14:25:41.188Z</time>
      </trkpt>
      <trkpt lat="44.18222" lon="0.60117">
        <ele>60</ele>
        <time>2026-02-22T14:25:42.188Z</time>
      </trkpt>
      <trkpt lat="44.18222" lon="0.60117">
        <ele>61</ele>
        <time>2026-02-22T14:25:43.188Z</time>
      </trkpt>
      <trkpt lat="44.18222" lon="0.60117">
        <ele>61</ele>
        <time>2026-02-22T14:25:44.189Z</time>
      </trkpt>
      <trkpt lat="44.18222" lon="0.60117">
        <ele>61</ele>
        <time>2026-02-22T14:25:45.188Z</time>
      </trkpt>
      <trkpt lat="44.18222" lon="0.60117">
        <ele>61</ele>
        <time>2026-02-22T14:25:46.188Z</time>
      </trkpt>
      <trkpt lat="44.18222" lon="0.60117">
        <ele>61</ele>
        <time>2026-02-22T14:25:47.188Z</time>
      </trkpt>
      <trkpt lat="44.18222" lon="0.60117">
        <ele>61</ele>
        <time>2026-02-22T14:25:48.188Z</time>
      </trkpt>
      <trkpt lat="44.18222" lon="0.60117">
        <ele>61</ele>
        <time>2026-02-22T14:25:49.188Z</time>
      </trkpt>
      <trkpt lat="44.18222" lon="0.60117">
        <ele>60</ele>
        <time>2026-02-22T14:25:50.188Z</time>
      </trkpt>
      <trkpt lat="44.18222" lon="0.60117">
        <ele>60</ele>
        <time>2026-02-22T14:25:51.188Z</time>
      </trkpt>
      <trkpt lat="44.18222" lon="0.60117">
        <ele>60</ele>
        <time>2026-02-22T14:25:52.188Z</time>
      </trkpt>
      <trkpt lat="44.18222" lon="0.60117">
        <ele>60</ele>
        <time>2026-02-22T14:25:53.188Z</time>
      </trkpt>
      <trkpt lat="44.18222" lon="0.60118">
        <ele>59</ele>
        <time>2026-02-22T14:25:54.188Z</time>
      </trkpt>
      <trkpt lat="44.18222" lon="0.60118">
        <ele>59</ele>
        <time>2026-02-22T14:25:55.188Z</time>
      </trkpt>
      <trkpt lat="44.18222" lon="0.60118">
        <ele>59</ele>
        <time>2026-02-22T14:25:56.188Z</time>
      </trkpt>
      <trkpt lat="44.18221" lon="0.60118">
        <ele>59</ele>
        <time>2026-02-22T14:25:57.188Z</time>
      </trkpt>
      <trkpt lat="44.18221" lon="0.60118">
        <ele>58</ele>
        <time>2026-02-22T14:25:58.188Z</time>
      </trkpt>
      <trkpt lat="44.18221" lon="0.60118">
        <ele>58</ele>
        <time>2026-02-22T14:25:59.189Z</time>
      </trkpt>
      <trkpt lat="44.18221" lon="0.60119">
        <ele>58</ele>
        <time>2026-02-22T14:26:00.188Z</time>
      </trkpt>
      <trkpt lat="44.18221" lon="0.60119">
        <ele>57</ele>
        <time>2026-02-22T14:26:01.188Z</time>
      </trkpt>
      <trkpt lat="44.18221" lon="0.60118">
        <ele>57</ele>
        <time>2026-02-22T14:26:02.188Z</time>
      </trkpt>
      <trkpt lat="44.18221" lon="0.60118">
        <ele>57</ele>
        <time>2026-02-22T14:26:03.188Z</time>
      </trkpt>
      <trkpt lat="44.18221" lon="0.60118">
        <ele>58</ele>
        <time>2026-02-22T14:26:04.188Z</time>
      </trkpt>
      <trkpt lat="44.18221" lon="0.60118">
        <ele>58</ele>
        <time>2026-02-22T14:26:05.188Z</time>
      </trkpt>
      <trkpt lat="44.18221" lon="0.60118">
        <ele>58</ele>
        <time>2026-02-22T14:26:06.188Z</time>
      </trkpt>
      <trkpt lat="44.18221" lon="0.60118">
        <ele>59</ele>
        <time>2026-02-22T14:26:07.188Z</time>
      </trkpt>
      <trkpt lat="44.18222" lon="0.60119">
        <ele>59</ele>
        <time>2026-02-22T14:26:08.188Z</time>
      </trkpt>
      <trkpt lat="44.18222" lon="0.60119">
        <ele>60</ele>
        <time>2026-02-22T14:26:09.188Z</time>
      </trkpt>
      <trkpt lat="44.18222" lon="0.60119">
        <ele>60</ele>
        <time>2026-02-22T14:26:10.188Z</time>
      </trkpt>
      <trkpt lat="44.18222" lon="0.60119">
        <ele>60</ele>
        <time>2026-02-22T14:26:11.188Z</time>
      </trkpt>
      <trkpt lat="44.18222" lon="0.60119">
        <ele>61</ele>
        <time>2026-02-22T14:26:12.189Z</time>
      </trkpt>
      <trkpt lat="44.18222" lon="0.60119">
        <ele>61</ele>
        <time>2026-02-22T14:26:13.188Z</time>
      </trkpt>
      <trkpt lat="44.18222" lon="0.60119">
        <ele>61</ele>
        <time>2026-02-22T14:26:14.189Z</time>
      </trkpt>
      <trkpt lat="44.18222" lon="0.60119">
        <ele>61</ele>
        <time>2026-02-22T14:26:15.188Z</time>
      </trkpt>
      <trkpt lat="44.18222" lon="0.60119">
        <ele>61</ele>
        <time>2026-02-22T14:26:16.188Z</time>
      </trkpt>
      <trkpt lat="44.18222" lon="0.60118">
        <ele>61</ele>
        <time>2026-02-22T14:26:17.188Z</time>
      </trkpt>
      <trkpt lat="44.18222" lon="0.60118">
        <ele>61</ele>
        <time>2026-02-22T14:26:18.188Z</time>
      </trkpt>
      <trkpt lat="44.18222" lon="0.60118">
        <ele>61</ele>
        <time>2026-02-22T14:26:19.188Z</time>
      </trkpt>
      <trkpt lat="44.18222" lon="0.60117">
        <ele>61</ele>
        <time>2026-02-22T14:26:20.188Z</time>
      </trkpt>
      <trkpt lat="44.18223" lon="0.60117">
        <ele>61</ele>
        <time>2026-02-22T14:26:21.188Z</time>
      </trkpt>
      <trkpt lat="44.18223" lon="0.60117">
        <ele>61</ele>
        <time>2026-02-22T14:26:22.188Z</time>
      </trkpt>
      <trkpt lat="44.18223" lon="0.60117">
        <ele>61</ele>
        <time>2026-02-22T14:26:23.188Z</time>
      </trkpt>
      <trkpt lat="44.18223" lon="0.60117">
        <ele>61</ele>
        <time>2026-02-22T14:26:24.188Z</time>
      </trkpt>
      <trkpt lat="44.18223" lon="0.60116">
        <ele>61</ele>
        <time>2026-02-22T14:26:25.188Z</time>
      </trkpt>
      <trkpt lat="44.18223" lon="0.60116">
        <ele>62</ele>
        <time>2026-02-22T14:26:26.188Z</time>
      </trkpt>
      <trkpt lat="44.18223" lon="0.60116">
        <ele>62</ele>
        <time>2026-02-22T14:26:27.189Z</time>
      </trkpt>
      <trkpt lat="44.18223" lon="0.60116">
        <ele>62</ele>
        <time>2026-02-22T14:26:28.188Z</time>
      </trkpt>
      <trkpt lat="44.18223" lon="0.60116">
        <ele>62</ele>
        <time>2026-02-22T14:26:29.188Z</time>
      </trkpt>
      <trkpt lat="44.18223" lon="0.60116">
        <ele>62</ele>
        <time>2026-02-22T14:26:30.188Z</time>
      </trkpt>
      <trkpt lat="44.18223" lon="0.60116">
        <ele>62</ele>
        <time>2026-02-22T14:26:31.188Z</time>
      </trkpt>
      <trkpt lat="44.18223" lon="0.60116">
        <ele>61</ele>
        <time>2026-02-22T14:26:32.188Z</time>
      </trkpt>
      <trkpt lat="44.18223" lon="0.60116">
        <ele>61</ele>
        <time>2026-02-22T14:26:33.188Z</time>
      </trkpt>
      <trkpt lat="44.18223" lon="0.60116">
        <ele>61</ele>
        <time>2026-02-22T14:26:34.188Z</time>
      </trkpt>
      <trkpt lat="44.18223" lon="0.60116">
        <ele>61</ele>
        <time>2026-02-22T14:26:35.188Z</time>
      </trkpt>
      <trkpt lat="44.18223" lon="0.60116">
        <ele>61</ele>
        <time>2026-02-22T14:26:36.189Z</time>
      </trkpt>
      <trkpt lat="44.18223" lon="0.60116">
        <ele>60</ele>
        <time>2026-02-22T14:26:37.188Z</time>
      </trkpt>
      <trkpt lat="44.18223" lon="0.60116">
        <ele>60</ele>
        <time>2026-02-22T14:26:38.188Z</time>
      </trkpt>
      <trkpt lat="44.18223" lon="0.60115">
        <ele>60</ele>
        <time>2026-02-22T14:26:39.188Z</time>
      </trkpt>
      <trkpt lat="44.18223" lon="0.60115">
        <ele>60</ele>
        <time>2026-02-22T14:26:40.189Z</time>
      </trkpt>
      <trkpt lat="44.18223" lon="0.60115">
        <ele>60</ele>
        <time>2026-02-22T14:26:41.188Z</time>
      </trkpt>
      <trkpt lat="44.18223" lon="0.60115">
        <ele>60</ele>
        <time>2026-02-22T14:26:42.188Z</time>
      </trkpt>
      <trkpt lat="44.18223" lon="0.60115">
        <ele>59</ele>
        <time>2026-02-22T14:26:43.188Z</time>
      </trkpt>
      <trkpt lat="44.18223" lon="0.60115">
        <ele>59</ele>
        <time>2026-02-22T14:26:44.188Z</time>
      </trkpt>
      <trkpt lat="44.18223" lon="0.60115">
        <ele>59</ele>
        <time>2026-02-22T14:26:45.188Z</time>
      </trkpt>
      <trkpt lat="44.18224" lon="0.60116">
        <ele>59</ele>
        <time>2026-02-22T14:26:46.188Z</time>
      </trkpt>
      <trkpt lat="44.18224" lon="0.60116">
        <ele>58</ele>
        <time>2026-02-22T14:26:47.188Z</time>
      </trkpt>
      <trkpt lat="44.18224" lon="0.60116">
        <ele>58</ele>
        <time>2026-02-22T14:26:48.188Z</time>
      </trkpt>
      <trkpt lat="44.18224" lon="0.60115">
        <ele>58</ele>
        <time>2026-02-22T14:26:49.188Z</time>
      </trkpt>
      <trkpt lat="44.18223" lon="0.60115">
        <ele>58</ele>
        <time>2026-02-22T14:26:50.188Z</time>
      </trkpt>
      <trkpt lat="44.18223" lon="0.60115">
        <ele>58</ele>
        <time>2026-02-22T14:26:51.188Z</time>
      </trkpt>
      <trkpt lat="44.18223" lon="0.60115">
        <ele>58</ele>
        <time>2026-02-22T14:26:52.188Z</time>
      </trkpt>
      <trkpt lat="44.18223" lon="0.60115">
        <ele>58</ele>
        <time>2026-02-22T14:26:53.188Z</time>
      </trkpt>
      <trkpt lat="44.18223" lon="0.60115">
        <ele>58</ele>
        <time>2026-02-22T14:26:54.188Z</time>
      </trkpt>
      <trkpt lat="44.18223" lon="0.60115">
        <ele>58</ele>
        <time>2026-02-22T14:26:55.188Z</time>
      </trkpt>
      <trkpt lat="44.18223" lon="0.60115">
        <ele>58</ele>
        <time>2026-02-22T14:26:56.188Z</time>
      </trkpt>
      <trkpt lat="44.18223" lon="0.60115">
        <ele>59</ele>
        <time>2026-02-22T14:26:57.188Z</time>
      </trkpt>
      <trkpt lat="44.18223" lon="0.60115">
        <ele>59</ele>
        <time>2026-02-22T14:26:58.188Z</time>
      </trkpt>
      <trkpt lat="44.18223" lon="0.60115">
        <ele>59</ele>
        <time>2026-02-22T14:26:59.188Z</time>
      </trkpt>
      <trkpt lat="44.18223" lon="0.60115">
        <ele>59</ele>
        <time>2026-02-22T14:27:00.188Z</time>
      </trkpt>
      <trkpt lat="44.18223" lon="0.60115">
        <ele>59</ele>
        <time>2026-02-22T14:27:01.188Z</time>
      </trkpt>
      <trkpt lat="44.18223" lon="0.60115">
        <ele>59</ele>
        <time>2026-02-22T14:27:02.188Z</time>
      </trkpt>
      <trkpt lat="44.18223" lon="0.60115">
        <ele>59</ele>
        <time>2026-02-22T14:27:03.188Z</time>
      </trkpt>
      <trkpt lat="44.18223" lon="0.60116">
        <ele>59</ele>
        <time>2026-02-22T14:27:04.188Z</time>
      </trkpt>
      <trkpt lat="44.18223" lon="0.60116">
        <ele>59</ele>
        <time>2026-02-22T14:27:05.188Z</time>
      </trkpt>
      <trkpt lat="44.18223" lon="0.60116">
        <ele>59</ele>
        <time>2026-02-22T14:27:06.188Z</time>
      </trkpt>
      <trkpt lat="44.18223" lon="0.60116">
        <ele>59</ele>
        <time>2026-02-22T14:27:07.188Z</time>
      </trkpt>
      <trkpt lat="44.18223" lon="0.60116">
        <ele>59</ele>
        <time>2026-02-22T14:27:08.188Z</time>
      </trkpt>
      <trkpt lat="44.18223" lon="0.60116">
        <ele>58</ele>
        <time>2026-02-22T14:27:09.188Z</time>
      </trkpt>
      <trkpt lat="44.18223" lon="0.60116">
        <ele>58</ele>
        <time>2026-02-22T14:27:10.188Z</time>
      </trkpt>
      <trkpt lat="44.18223" lon="0.60116">
        <ele>58</ele>
        <time>2026-02-22T14:27:11.188Z</time>
      </trkpt>
      <trkpt lat="44.18223" lon="0.60116">
        <ele>58</ele>
        <time>2026-02-22T14:27:12.188Z</time>
      </trkpt>
      <trkpt lat="44.18223" lon="0.60117">
        <ele>59</ele>
        <time>2026-02-22T14:27:13.188Z</time>
      </trkpt>
      <trkpt lat="44.18223" lon="0.60117">
        <ele>59</ele>
        <time>2026-02-22T14:27:14.189Z</time>
      </trkpt>
      <trkpt lat="44.18223" lon="0.60117">
        <ele>59</ele>
        <time>2026-02-22T14:27:15.188Z</time>
      </trkpt>
      <trkpt lat="44.18222" lon="0.60118">
        <ele>59</ele>
        <time>2026-02-22T14:27:16.188Z</time>
      </trkpt>
      <trkpt lat="44.18222" lon="0.60118">
        <ele>59</ele>
        <time>2026-02-22T14:27:17.188Z</time>
      </trkpt>
      <trkpt lat="44.18222" lon="0.60118">
        <ele>59</ele>
        <time>2026-02-22T14:27:18.188Z</time>
      </trkpt>
      <trkpt lat="44.18222" lon="0.60118">
        <ele>59</ele>
        <time>2026-02-22T14:27:19.188Z</time>
      </trkpt>
      <trkpt lat="44.18222" lon="0.60117">
        <ele>60</ele>
        <time>2026-02-22T14:27:20.188Z</time>
      </trkpt>
      <trkpt lat="44.18222" lon="0.60117">
        <ele>60</ele>
        <time>2026-02-22T14:27:21.188Z</time>
      </trkpt>
      <trkpt lat="44.18222" lon="0.60117">
        <ele>60</ele>
        <time>2026-02-22T14:27:22.188Z</time>
      </trkpt>
      <trkpt lat="44.18222" lon="0.60117">
        <ele>60</ele>
        <time>2026-02-22T14:27:23.188Z</time>
      </trkpt>
      <trkpt lat="44.18222" lon="0.60117">
        <ele>60</ele>
        <time>2026-02-22T14:27:24.188Z</time>
      </trkpt>
      <trkpt lat="44.18221" lon="0.60117">
        <ele>60</ele>
        <time>2026-02-22T14:27:25.189Z</time>
      </trkpt>
      <trkpt lat="44.18221" lon="0.60117">
        <ele>60</ele>
        <time>2026-02-22T14:27:26.188Z</time>
      </trkpt>
      <trkpt lat="44.18221" lon="0.60117">
        <ele>60</ele>
        <time>2026-02-22T14:27:27.188Z</time>
      </trkpt>
      <trkpt lat="44.18221" lon="0.60117">
        <ele>59</ele>
        <time>2026-02-22T14:27:28.188Z</time>
      </trkpt>
      <trkpt lat="44.18221" lon="0.60117">
        <ele>59</ele>
        <time>2026-02-22T14:27:29.188Z</time>
      </trkpt>
      <trkpt lat="44.18221" lon="0.60117">
        <ele>59</ele>
        <time>2026-02-22T14:27:30.188Z</time>
      </trkpt>
      <trkpt lat="44.18221" lon="0.60117">
        <ele>59</ele>
        <time>2026-02-22T14:27:31.188Z</time>
      </trkpt>
      <trkpt lat="44.18221" lon="0.60117">
        <ele>59</ele>
        <time>2026-02-22T14:27:32.188Z</time>
      </trkpt>
      <trkpt lat="44.18221" lon="0.60117">
        <ele>59</ele>
        <time>2026-02-22T14:27:33.188Z</time>
      </trkpt>
      <trkpt lat="44.18221" lon="0.60117">
        <ele>59</ele>
        <time>2026-02-22T14:27:34.188Z</time>
      </trkpt>
      <trkpt lat="44.18221" lon="0.60117">
        <ele>59</ele>
        <time>2026-02-22T14:27:35.188Z</time>
      </trkpt>
      <trkpt lat="44.18221" lon="0.60117">
        <ele>59</ele>
        <time>2026-02-22T14:27:36.188Z</time>
      </trkpt>
      <trkpt lat="44.18221" lon="0.60117">
        <ele>59</ele>
        <time>2026-02-22T14:27:37.188Z</time>
      </trkpt>
      <trkpt lat="44.18221" lon="0.60117">
        <ele>58</ele>
        <time>2026-02-22T14:27:38.189Z</time>
      </trkpt>
      <trkpt lat="44.18221" lon="0.60117">
        <ele>58</ele>
        <time>2026-02-22T14:27:39.188Z</time>
      </trkpt>
      <trkpt lat="44.18221" lon="0.60117">
        <ele>57</ele>
        <time>2026-02-22T14:27:40.189Z</time>
      </trkpt>
      <trkpt lat="44.18221" lon="0.60117">
        <ele>57</ele>
        <time>2026-02-22T14:27:41.188Z</time>
      </trkpt>
      <trkpt lat="44.18222" lon="0.60117">
        <ele>57</ele>
        <time>2026-02-22T14:27:42.188Z</time>
      </trkpt>
      <trkpt lat="44.18222" lon="0.60117">
        <ele>57</ele>
        <time>2026-02-22T14:27:43.188Z</time>
      </trkpt>
      <trkpt lat="44.18222" lon="0.60117">
        <ele>57</ele>
        <time>2026-02-22T14:27:44.188Z</time>
      </trkpt>
      <trkpt lat="44.18222" lon="0.60117">
        <ele>58</ele>
        <time>2026-02-22T14:27:45.188Z</time>
      </trkpt>
      <trkpt lat="44.18222" lon="0.60117">
        <ele>58</ele>
        <time>2026-02-22T14:27:46.188Z</time>
      </trkpt>
      <trkpt lat="44.18222" lon="0.60116">
        <ele>58</ele>
        <time>2026-02-22T14:27:47.188Z</time>
      </trkpt>
      <trkpt lat="44.18222" lon="0.60116">
        <ele>58</ele>
        <time>2026-02-22T14:27:48.188Z</time>
      </trkpt>
      <trkpt lat="44.18222" lon="0.60116">
        <ele>58</ele>
        <time>2026-02-22T14:27:49.188Z</time>
      </trkpt>
      <trkpt lat="44.18222" lon="0.60116">
        <ele>58</ele>
        <time>2026-02-22T14:27:50.189Z</time>
      </trkpt>
      <trkpt lat="44.18222" lon="0.60116">
        <ele>58</ele>
        <time>2026-02-22T14:27:51.188Z</time>
      </trkpt>
      <trkpt lat="44.18222" lon="0.60116">
        <ele>58</ele>
        <time>2026-02-22T14:27:52.188Z</time>
      </trkpt>
      <trkpt lat="44.18222" lon="0.60116">
        <ele>58</ele>
        <time>2026-02-22T14:27:53.188Z</time>
      </trkpt>
      <trkpt lat="44.18222" lon="0.60116">
        <ele>58</ele>
        <time>2026-02-22T14:27:54.188Z</time>
      </trkpt>
      <trkpt lat="44.18222" lon="0.60116">
        <ele>58</ele>
        <time>2026-02-22T14:27:55.189Z</time>
      </trkpt>
      <trkpt lat="44.18222" lon="0.60116">
        <ele>57</ele>
        <time>2026-02-22T14:27:56.188Z</time>
      </trkpt>
      <trkpt lat="44.18222" lon="0.60116">
        <ele>57</ele>
        <time>2026-02-22T14:27:57.188Z</time>
      </trkpt>
      <trkpt lat="44.18222" lon="0.60116">
        <ele>57</ele>
        <time>2026-02-22T14:27:58.188Z</time>
      </trkpt>
      <trkpt lat="44.18222" lon="0.60115">
        <ele>58</ele>
        <time>2026-02-22T14:27:59.188Z</time>
      </trkpt>
      <trkpt lat="44.18222" lon="0.60115">
        <ele>58</ele>
        <time>2026-02-22T14:28:00.188Z</time>
      </trkpt>
      <trkpt lat="44.18222" lon="0.60115">
        <ele>59</ele>
        <time>2026-02-22T14:28:01.188Z</time>
      </trkpt>
      <trkpt lat="44.18222" lon="0.60115">
        <ele>59</ele>
        <time>2026-02-22T14:28:02.188Z</time>
      </trkpt>
      <trkpt lat="44.18222" lon="0.60115">
        <ele>60</ele>
        <time>2026-02-22T14:28:03.188Z</time>
      </trkpt>
      <trkpt lat="44.18222" lon="0.60115">
        <ele>60</ele>
        <time>2026-02-22T14:28:04.188Z</time>
      </trkpt>
      <trkpt lat="44.18222" lon="0.60115">
        <ele>60</ele>
        <time>2026-02-22T14:28:05.188Z</time>
      </trkpt>
      <trkpt lat="44.18222" lon="0.60115">
        <ele>60</ele>
        <time>2026-02-22T14:28:06.188Z</time>
      </trkpt>
      <trkpt lat="44.18222" lon="0.60115">
        <ele>59</ele>
        <time>2026-02-22T14:28:07.188Z</time>
      </trkpt>
      <trkpt lat="44.18222" lon="0.60115">
        <ele>59</ele>
        <time>2026-02-22T14:28:08.189Z</time>
      </trkpt>
      <trkpt lat="44.18222" lon="0.60115">
        <ele>60</ele>
        <time>2026-02-22T14:28:09.188Z</time>
      </trkpt>
      <trkpt lat="44.18222" lon="0.60116">
        <ele>60</ele>
        <time>2026-02-22T14:28:10.189Z</time>
      </trkpt>
      <trkpt lat="44.18222" lon="0.60116">
        <ele>60</ele>
        <time>2026-02-22T14:28:11.188Z</time>
      </trkpt>
      <trkpt lat="44.18221" lon="0.60116">
        <ele>60</ele>
        <time>2026-02-22T14:28:12.188Z</time>
      </trkpt>
      <trkpt lat="44.18221" lon="0.60117">
        <ele>60</ele>
        <time>2026-02-22T14:28:13.188Z</time>
      </trkpt>
      <trkpt lat="44.18221" lon="0.60118">
        <ele>60</ele>
        <time>2026-02-22T14:28:14.188Z</time>
      </trkpt>
      <trkpt lat="44.18221" lon="0.6012">
        <ele>60</ele>
        <time>2026-02-22T14:28:15.188Z</time>
      </trkpt>
      <trkpt lat="44.1822" lon="0.60121">
        <ele>60</ele>
        <time>2026-02-22T14:28:16.188Z</time>
      </trkpt>
      <trkpt lat="44.1822" lon="0.60122">
        <ele>60</ele>
        <time>2026-02-22T14:28:17.188Z</time>
      </trkpt>
      <trkpt lat="44.1822" lon="0.60124">
        <ele>60</ele>
        <time>2026-02-22T14:28:18.188Z</time>
      </trkpt>
      <trkpt lat="44.1822" lon="0.60125">
        <ele>60</ele>
        <time>2026-02-22T14:28:19.188Z</time>
      </trkpt>
      <trkpt lat="44.18219" lon="0.60127">
        <ele>60</ele>
        <time>2026-02-22T14:28:20.188Z</time>
      </trkpt>
      <trkpt lat="44.18219" lon="0.60129">
        <ele>60</ele>
        <time>2026-02-22T14:28:21.188Z</time>
      </trkpt>
      <trkpt lat="44.18218" lon="0.6013">
        <ele>61</ele>
        <time>2026-02-22T14:28:22.188Z</time>
      </trkpt>
      <trkpt lat="44.18217" lon="0.60132">
        <ele>61</ele>
        <time>2026-02-22T14:28:23.188Z</time>
      </trkpt>
      <trkpt lat="44.18216" lon="0.60134">
        <ele>62</ele>
        <time>2026-02-22T14:28:24.188Z</time>
      </trkpt>
      <trkpt lat="44.18215" lon="0.60135">
        <ele>62</ele>
        <time>2026-02-22T14:28:25.188Z</time>
      </trkpt>
      <trkpt lat="44.18214" lon="0.60137">
        <ele>62</ele>
        <time>2026-02-22T14:28:26.188Z</time>
      </trkpt>
      <trkpt lat="44.18214" lon="0.60138">
        <ele>62</ele>
        <time>2026-02-22T14:28:27.188Z</time>
      </trkpt>
      <trkpt lat="44.18213" lon="0.60139">
        <ele>62</ele>
        <time>2026-02-22T14:28:28.188Z</time>
      </trkpt>
      <trkpt lat="44.18212" lon="0.6014">
        <ele>63</ele>
        <time>2026-02-22T14:28:29.189Z</time>
      </trkpt>
      <trkpt lat="44.1821" lon="0.60141">
        <ele>63</ele>
        <time>2026-02-22T14:28:30.188Z</time>
      </trkpt>
      <trkpt lat="44.18209" lon="0.60142">
        <ele>63</ele>
        <time>2026-02-22T14:28:31.188Z</time>
      </trkpt>
      <trkpt lat="44.18208" lon="0.60142">
        <ele>63</ele>
        <time>2026-02-22T14:28:32.188Z</time>
      </trkpt>
      <trkpt lat="44.18207" lon="0.60143">
        <ele>63</ele>
        <time>2026-02-22T14:28:33.188Z</time>
      </trkpt>
      <trkpt lat="44.18206" lon="0.60144">
        <ele>63</ele>
        <time>2026-02-22T14:28:34.188Z</time>
      </trkpt>
      <trkpt lat="44.18205" lon="0.60144">
        <ele>63</ele>
        <time>2026-02-22T14:28:35.188Z</time>
      </trkpt>
      <trkpt lat="44.18204" lon="0.60143">
        <ele>63</ele>
        <time>2026-02-22T14:28:36.188Z</time>
      </trkpt>
      <trkpt lat="44.18202" lon="0.60143">
        <ele>63</ele>
        <time>2026-02-22T14:28:37.188Z</time>
      </trkpt>
      <trkpt lat="44.18201" lon="0.60143">
        <ele>62</ele>
        <time>2026-02-22T14:28:38.188Z</time>
      </trkpt>
      <trkpt lat="44.182" lon="0.60144">
        <ele>62</ele>
        <time>2026-02-22T14:28:39.188Z</time>
      </trkpt>
      <trkpt lat="44.182" lon="0.60145">
        <ele>63</ele>
        <time>2026-02-22T14:28:40.188Z</time>
      </trkpt>
      <trkpt lat="44.18199" lon="0.60146">
        <ele>63</ele>
        <time>2026-02-22T14:28:41.188Z</time>
      </trkpt>
      <trkpt lat="44.18198" lon="0.60147">
        <ele>63</ele>
        <time>2026-02-22T14:28:42.188Z</time>
      </trkpt>
      <trkpt lat="44.18197" lon="0.60148">
        <ele>63</ele>
        <time>2026-02-22T14:28:43.188Z</time>
      </trkpt>
      <trkpt lat="44.18196" lon="0.60149">
        <ele>64</ele>
        <time>2026-02-22T14:28:44.188Z</time>
      </trkpt>
      <trkpt lat="44.18195" lon="0.60149">
        <ele>64</ele>
        <time>2026-02-22T14:28:45.188Z</time>
      </trkpt>
      <trkpt lat="44.18195" lon="0.60151">
        <ele>64</ele>
        <time>2026-02-22T14:28:46.188Z</time>
      </trkpt>
      <trkpt lat="44.18194" lon="0.60152">
        <ele>64</ele>
        <time>2026-02-22T14:28:47.188Z</time>
      </trkpt>
      <trkpt lat="44.18193" lon="0.60153">
        <ele>64</ele>
        <time>2026-02-22T14:28:48.188Z</time>
      </trkpt>
      <trkpt lat="44.18193" lon="0.60155">
        <ele>64</ele>
        <time>2026-02-22T14:28:49.188Z</time>
      </trkpt>
      <trkpt lat="44.18192" lon="0.60157">
        <ele>64</ele>
        <time>2026-02-22T14:28:50.188Z</time>
      </trkpt>
      <trkpt lat="44.18192" lon="0.60158">
        <ele>64</ele>
        <time>2026-02-22T14:28:51.188Z</time>
      </trkpt>
      <trkpt lat="44.18192" lon="0.6016">
        <ele>63</ele>
        <time>2026-02-22T14:28:52.188Z</time>
      </trkpt>
      <trkpt lat="44.18191" lon="0.60162">
        <ele>64</ele>
        <time>2026-02-22T14:28:53.188Z</time>
      </trkpt>
      <trkpt lat="44.18191" lon="0.60162">
        <ele>64</ele>
        <time>2026-02-22T14:28:54.188Z</time>
      </trkpt>
      <trkpt lat="44.1819" lon="0.60164">
        <ele>64</ele>
        <time>2026-02-22T14:28:55.188Z</time>
      </trkpt>
      <trkpt lat="44.1819" lon="0.60165">
        <ele>64</ele>
        <time>2026-02-22T14:28:56.188Z</time>
      </trkpt>
      <trkpt lat="44.18189" lon="0.60166">
        <ele>64</ele>
        <time>2026-02-22T14:28:57.188Z</time>
      </trkpt>
      <trkpt lat="44.18189" lon="0.60168">
        <ele>64</ele>
        <time>2026-02-22T14:28:58.188Z</time>
      </trkpt>
      <trkpt lat="44.18188" lon="0.60169">
        <ele>64</ele>
        <time>2026-02-22T14:28:59.188Z</time>
      </trkpt>
      <trkpt lat="44.18188" lon="0.6017">
        <ele>64</ele>
        <time>2026-02-22T14:29:00.188Z</time>
      </trkpt>
      <trkpt lat="44.18187" lon="0.60171">
        <ele>63</ele>
        <time>2026-02-22T14:29:01.188Z</time>
      </trkpt>
      <trkpt lat="44.18187" lon="0.60173">
        <ele>63</ele>
        <time>2026-02-22T14:29:02.188Z</time>
      </trkpt>
      <trkpt lat="44.18186" lon="0.60175">
        <ele>63</ele>
        <time>2026-02-22T14:29:03.188Z</time>
      </trkpt>
      <trkpt lat="44.18186" lon="0.60176">
        <ele>63</ele>
        <time>2026-02-22T14:29:04.189Z</time>
      </trkpt>
      <trkpt lat="44.18185" lon="0.60177">
        <ele>63</ele>
        <time>2026-02-22T14:29:05.188Z</time>
      </trkpt>
      <trkpt lat="44.18184" lon="0.60179">
        <ele>64</ele>
        <time>2026-02-22T14:29:06.189Z</time>
      </trkpt>
      <trkpt lat="44.18184" lon="0.6018">
        <ele>64</ele>
        <time>2026-02-22T14:29:07.188Z</time>
      </trkpt>
      <trkpt lat="44.18183" lon="0.60182">
        <ele>64</ele>
        <time>2026-02-22T14:29:08.188Z</time>
      </trkpt>
      <trkpt lat="44.18183" lon="0.60183">
        <ele>64</ele>
        <time>2026-02-22T14:29:09.188Z</time>
      </trkpt>
      <trkpt lat="44.18182" lon="0.60185">
        <ele>63</ele>
        <time>2026-02-22T14:29:10.188Z</time>
      </trkpt>
      <trkpt lat="44.18181" lon="0.60187">
        <ele>63</ele>
        <time>2026-02-22T14:29:11.188Z</time>
      </trkpt>
      <trkpt lat="44.18181" lon="0.60189">
        <ele>63</ele>
        <time>2026-02-22T14:29:12.189Z</time>
      </trkpt>
      <trkpt lat="44.1818" lon="0.60191">
        <ele>63</ele>
        <time>2026-02-22T14:29:13.188Z</time>
      </trkpt>
      <trkpt lat="44.1818" lon="0.60192">
        <ele>63</ele>
        <time>2026-02-22T14:29:14.188Z</time>
      </trkpt>
      <trkpt lat="44.1818" lon="0.60194">
        <ele>63</ele>
        <time>2026-02-22T14:29:15.188Z</time>
      </trkpt>
      <trkpt lat="44.1818" lon="0.60195">
        <ele>63</ele>
        <time>2026-02-22T14:29:16.188Z</time>
      </trkpt>
      <trkpt lat="44.18179" lon="0.60196">
        <ele>63</ele>
        <time>2026-02-22T14:29:17.188Z</time>
      </trkpt>
      <trkpt lat="44.18179" lon="0.60198">
        <ele>63</ele>
        <time>2026-02-22T14:29:18.188Z</time>
      </trkpt>
      <trkpt lat="44.18178" lon="0.602">
        <ele>63</ele>
        <time>2026-02-22T14:29:19.188Z</time>
      </trkpt>
      <trkpt lat="44.18178" lon="0.60202">
        <ele>63</ele>
        <time>2026-02-22T14:29:20.188Z</time>
      </trkpt>
      <trkpt lat="44.18177" lon="0.60204">
        <ele>64</ele>
        <time>2026-02-22T14:29:21.188Z</time>
      </trkpt>
      <trkpt lat="44.18177" lon="0.60206">
        <ele>64</ele>
        <time>2026-02-22T14:29:22.188Z</time>
      </trkpt>
      <trkpt lat="44.18176" lon="0.60208">
        <ele>64</ele>
        <time>2026-02-22T14:29:23.188Z</time>
      </trkpt>
      <trkpt lat="44.18176" lon="0.6021">
        <ele>64</ele>
        <time>2026-02-22T14:29:24.188Z</time>
      </trkpt>
      <trkpt lat="44.18175" lon="0.60211">
        <ele>64</ele>
        <time>2026-02-22T14:29:25.188Z</time>
      </trkpt>
      <trkpt lat="44.18174" lon="0.60213">
        <ele>64</ele>
        <time>2026-02-22T14:29:26.188Z</time>
      </trkpt>
      <trkpt lat="44.18173" lon="0.60214">
        <ele>64</ele>
        <time>2026-02-22T14:29:27.188Z</time>
      </trkpt>
      <trkpt lat="44.18172" lon="0.60216">
        <ele>64</ele>
        <time>2026-02-22T14:29:28.188Z</time>
      </trkpt>
      <trkpt lat="44.18171" lon="0.60217">
        <ele>64</ele>
        <time>2026-02-22T14:29:29.188Z</time>
      </trkpt>
      <trkpt lat="44.1817" lon="0.60219">
        <ele>65</ele>
        <time>2026-02-22T14:29:30.188Z</time>
      </trkpt>
      <trkpt lat="44.18169" lon="0.6022">
        <ele>65</ele>
        <time>2026-02-22T14:29:31.188Z</time>
      </trkpt>
      <trkpt lat="44.18168" lon="0.60221">
        <ele>65</ele>
        <time>2026-02-22T14:29:32.188Z</time>
      </trkpt>
      <trkpt lat="44.18167" lon="0.60222">
        <ele>65</ele>
        <time>2026-02-22T14:29:33.188Z</time>
      </trkpt>
      <trkpt lat="44.18166" lon="0.60223">
        <ele>65</ele>
        <time>2026-02-22T14:29:34.188Z</time>
      </trkpt>
      <trkpt lat="44.18165" lon="0.60224">
        <ele>65</ele>
        <time>2026-02-22T14:29:35.188Z</time>
      </trkpt>
      <trkpt lat="44.18165" lon="0.60226">
        <ele>65</ele>
        <time>2026-02-22T14:29:36.188Z</time>
      </trkpt>
      <trkpt lat="44.18164" lon="0.60227">
        <ele>65</ele>
        <time>2026-02-22T14:29:37.188Z</time>
      </trkpt>
      <trkpt lat="44.18163" lon="0.60228">
        <ele>65</ele>
        <time>2026-02-22T14:29:38.188Z</time>
      </trkpt>
      <trkpt lat="44.18162" lon="0.60229">
        <ele>65</ele>
        <time>2026-02-22T14:29:39.188Z</time>
      </trkpt>
      <trkpt lat="44.18161" lon="0.6023">
        <ele>65</ele>
        <time>2026-02-22T14:29:40.188Z</time>
      </trkpt>
      <trkpt lat="44.18161" lon="0.60231">
        <ele>65</ele>
        <time>2026-02-22T14:29:41.188Z</time>
      </trkpt>
      <trkpt lat="44.18161" lon="0.60233">
        <ele>66</ele>
        <time>2026-02-22T14:29:42.189Z</time>
      </trkpt>
      <trkpt lat="44.1816" lon="0.60234">
        <ele>66</ele>
        <time>2026-02-22T14:29:43.189Z</time>
      </trkpt>
      <trkpt lat="44.1816" lon="0.60235">
        <ele>66</ele>
        <time>2026-02-22T14:29:44.189Z</time>
      </trkpt>
      <trkpt lat="44.18159" lon="0.60236">
        <ele>66</ele>
        <time>2026-02-22T14:29:45.188Z</time>
      </trkpt>
      <trkpt lat="44.18158" lon="0.60238">
        <ele>66</ele>
        <time>2026-02-22T14:29:46.188Z</time>
      </trkpt>
      <trkpt lat="44.18157" lon="0.60239">
        <ele>65</ele>
        <time>2026-02-22T14:29:47.188Z</time>
      </trkpt>
      <trkpt lat="44.18156" lon="0.6024">
        <ele>65</ele>
        <time>2026-02-22T14:29:48.188Z</time>
      </trkpt>
      <trkpt lat="44.18156" lon="0.60241">
        <ele>64</ele>
        <time>2026-02-22T14:29:49.188Z</time>
      </trkpt>
      <trkpt lat="44.18155" lon="0.60242">
        <ele>64</ele>
        <time>2026-02-22T14:29:50.188Z</time>
      </trkpt>
      <trkpt lat="44.18155" lon="0.60244">
        <ele>63</ele>
        <time>2026-02-22T14:29:51.188Z</time>
      </trkpt>
      <trkpt lat="44.18155" lon="0.60246">
        <ele>62</ele>
        <time>2026-02-22T14:29:52.188Z</time>
      </trkpt>
      <trkpt lat="44.18154" lon="0.60247">
        <ele>62</ele>
        <time>2026-02-22T14:29:53.188Z</time>
      </trkpt>
      <trkpt lat="44.18154" lon="0.60249">
        <ele>62</ele>
        <time>2026-02-22T14:29:54.188Z</time>
      </trkpt>
      <trkpt lat="44.18153" lon="0.60251">
        <ele>61</ele>
        <time>2026-02-22T14:29:55.188Z</time>
      </trkpt>
      <trkpt lat="44.18152" lon="0.60253">
        <ele>62</ele>
        <time>2026-02-22T14:29:56.188Z</time>
      </trkpt>
      <trkpt lat="44.18151" lon="0.60254">
        <ele>61</ele>
        <time>2026-02-22T14:29:57.188Z</time>
      </trkpt>
      <trkpt lat="44.1815" lon="0.60255">
        <ele>61</ele>
        <time>2026-02-22T14:29:58.188Z</time>
      </trkpt>
      <trkpt lat="44.1815" lon="0.60256">
        <ele>61</ele>
        <time>2026-02-22T14:29:59.189Z</time>
      </trkpt>
      <trkpt lat="44.18149" lon="0.60258">
        <ele>60</ele>
        <time>2026-02-22T14:30:00.188Z</time>
      </trkpt>
      <trkpt lat="44.18148" lon="0.60259">
        <ele>60</ele>
        <time>2026-02-22T14:30:01.188Z</time>
      </trkpt>
      <trkpt lat="44.18147" lon="0.60261">
        <ele>60</ele>
        <time>2026-02-22T14:30:02.188Z</time>
      </trkpt>
      <trkpt lat="44.18146" lon="0.60262">
        <ele>60</ele>
        <time>2026-02-22T14:30:03.188Z</time>
      </trkpt>
      <trkpt lat="44.18145" lon="0.60264">
        <ele>60</ele>
        <time>2026-02-22T14:30:04.188Z</time>
      </trkpt>
      <trkpt lat="44.18145" lon="0.60265">
        <ele>60</ele>
        <time>2026-02-22T14:30:05.188Z</time>
      </trkpt>
      <trkpt lat="44.18144" lon="0.60267">
        <ele>60</ele>
        <time>2026-02-22T14:30:06.188Z</time>
      </trkpt>
      <trkpt lat="44.18143" lon="0.60268">
        <ele>60</ele>
        <time>2026-02-22T14:30:07.188Z</time>
      </trkpt>
      <trkpt lat="44.18142" lon="0.6027">
        <ele>60</ele>
        <time>2026-02-22T14:30:08.188Z</time>
      </trkpt>
      <trkpt lat="44.18142" lon="0.60272">
        <ele>60</ele>
        <time>2026-02-22T14:30:09.188Z</time>
      </trkpt>
      <trkpt lat="44.18141" lon="0.60273">
        <ele>61</ele>
        <time>2026-02-22T14:30:10.188Z</time>
      </trkpt>
      <trkpt lat="44.18141" lon="0.60274">
        <ele>60</ele>
        <time>2026-02-22T14:30:11.188Z</time>
      </trkpt>
      <trkpt lat="44.1814" lon="0.60276">
        <ele>60</ele>
        <time>2026-02-22T14:30:12.188Z</time>
      </trkpt>
      <trkpt lat="44.1814" lon="0.60277">
        <ele>60</ele>
        <time>2026-02-22T14:30:13.188Z</time>
      </trkpt>
      <trkpt lat="44.1814" lon="0.60278">
        <ele>60</ele>
        <time>2026-02-22T14:30:14.189Z</time>
      </trkpt>
      <trkpt lat="44.18139" lon="0.60279">
        <ele>60</ele>
        <time>2026-02-22T14:30:15.188Z</time>
      </trkpt>
      <trkpt lat="44.18138" lon="0.6028">
        <ele>60</ele>
        <time>2026-02-22T14:30:16.188Z</time>
      </trkpt>
      <trkpt lat="44.18137" lon="0.60281">
        <ele>60</ele>
        <time>2026-02-22T14:30:17.188Z</time>
      </trkpt>
      <trkpt lat="44.18137" lon="0.60282">
        <ele>60</ele>
        <time>2026-02-22T14:30:18.188Z</time>
      </trkpt>
      <trkpt lat="44.18136" lon="0.60284">
        <ele>60</ele>
        <time>2026-02-22T14:30:19.188Z</time>
      </trkpt>
      <trkpt lat="44.18135" lon="0.60286">
        <ele>60</ele>
        <time>2026-02-22T14:30:20.189Z</time>
      </trkpt>
      <trkpt lat="44.18134" lon="0.60287">
        <ele>61</ele>
        <time>2026-02-22T14:30:21.189Z</time>
      </trkpt>
      <trkpt lat="44.18133" lon="0.60289">
        <ele>61</ele>
        <time>2026-02-22T14:30:22.188Z</time>
      </trkpt>
      <trkpt lat="44.18132" lon="0.60291">
        <ele>61</ele>
        <time>2026-02-22T14:30:23.188Z</time>
      </trkpt>
      <trkpt lat="44.18131" lon="0.60293">
        <ele>61</ele>
        <time>2026-02-22T14:30:24.188Z</time>
      </trkpt>
      <trkpt lat="44.1813" lon="0.60295">
        <ele>61</ele>
        <time>2026-02-22T14:30:25.188Z</time>
      </trkpt>
      <trkpt lat="44.1813" lon="0.60296">
        <ele>61</ele>
        <time>2026-02-22T14:30:26.188Z</time>
      </trkpt>
      <trkpt lat="44.18129" lon="0.60297">
        <ele>62</ele>
        <time>2026-02-22T14:30:27.188Z</time>
      </trkpt>
      <trkpt lat="44.18128" lon="0.60299">
        <ele>62</ele>
        <time>2026-02-22T14:30:28.188Z</time>
      </trkpt>
      <trkpt lat="44.18128" lon="0.603">
        <ele>63</ele>
        <time>2026-02-22T14:30:29.188Z</time>
      </trkpt>
      <trkpt lat="44.18127" lon="0.60302">
        <ele>64</ele>
        <time>2026-02-22T14:30:30.188Z</time>
      </trkpt>
      <trkpt lat="44.18127" lon="0.60303">
        <ele>64</ele>
        <time>2026-02-22T14:30:31.189Z</time>
      </trkpt>
      <trkpt lat="44.18126" lon="0.60305">
        <ele>65</ele>
        <time>2026-02-22T14:30:32.188Z</time>
      </trkpt>
      <trkpt lat="44.18125" lon="0.60307">
        <ele>66</ele>
        <time>2026-02-22T14:30:33.188Z</time>
      </trkpt>
      <trkpt lat="44.18124" lon="0.60309">
        <ele>66</ele>
        <time>2026-02-22T14:30:34.188Z</time>
      </trkpt>
      <trkpt lat="44.18124" lon="0.6031">
        <ele>66</ele>
        <time>2026-02-22T14:30:35.188Z</time>
      </trkpt>
      <trkpt lat="44.18123" lon="0.60312">
        <ele>66</ele>
        <time>2026-02-22T14:30:36.188Z</time>
      </trkpt>
      <trkpt lat="44.18122" lon="0.60313">
        <ele>66</ele>
        <time>2026-02-22T14:30:37.188Z</time>
      </trkpt>
      <trkpt lat="44.18121" lon="0.60314">
        <ele>66</ele>
        <time>2026-02-22T14:30:38.188Z</time>
      </trkpt>
      <trkpt lat="44.1812" lon="0.60316">
        <ele>66</ele>
        <time>2026-02-22T14:30:39.188Z</time>
      </trkpt>
      <trkpt lat="44.1812" lon="0.60317">
        <ele>65</ele>
        <time>2026-02-22T14:30:40.188Z</time>
      </trkpt>
      <trkpt lat="44.18119" lon="0.60319">
        <ele>65</ele>
        <time>2026-02-22T14:30:41.188Z</time>
      </trkpt>
      <trkpt lat="44.18118" lon="0.6032">
        <ele>65</ele>
        <time>2026-02-22T14:30:42.188Z</time>
      </trkpt>
      <trkpt lat="44.18117" lon="0.60321">
        <ele>65</ele>
        <time>2026-02-22T14:30:43.188Z</time>
      </trkpt>
      <trkpt lat="44.18116" lon="0.60323">
        <ele>64</ele>
        <time>2026-02-22T14:30:44.188Z</time>
      </trkpt>
      <trkpt lat="44.18115" lon="0.60325">
        <ele>64</ele>
        <time>2026-02-22T14:30:45.188Z</time>
      </trkpt>
      <trkpt lat="44.18115" lon="0.60326">
        <ele>64</ele>
        <time>2026-02-22T14:30:46.189Z</time>
      </trkpt>
      <trkpt lat="44.18114" lon="0.60328">
        <ele>64</ele>
        <time>2026-02-22T14:30:47.188Z</time>
      </trkpt>
      <trkpt lat="44.18113" lon="0.60329">
        <ele>63</ele>
        <time>2026-02-22T14:30:48.188Z</time>
      </trkpt>
      <trkpt lat="44.18113" lon="0.6033">
        <ele>63</ele>
        <time>2026-02-22T14:30:49.188Z</time>
      </trkpt>
      <trkpt lat="44.18112" lon="0.60332">
        <ele>63</ele>
        <time>2026-02-22T14:30:50.188Z</time>
      </trkpt>
      <trkpt lat="44.18111" lon="0.60333">
        <ele>63</ele>
        <time>2026-02-22T14:30:51.188Z</time>
      </trkpt>
      <trkpt lat="44.18111" lon="0.60335">
        <ele>63</ele>
        <time>2026-02-22T14:30:52.188Z</time>
      </trkpt>
      <trkpt lat="44.1811" lon="0.60337">
        <ele>63</ele>
        <time>2026-02-22T14:30:53.188Z</time>
      </trkpt>
      <trkpt lat="44.1811" lon="0.60338">
        <ele>63</ele>
        <time>2026-02-22T14:30:54.188Z</time>
      </trkpt>
      <trkpt lat="44.18109" lon="0.6034">
        <ele>63</ele>
        <time>2026-02-22T14:30:55.188Z</time>
      </trkpt>
      <trkpt lat="44.18109" lon="0.60341">
        <ele>63</ele>
        <time>2026-02-22T14:30:56.189Z</time>
      </trkpt>
      <trkpt lat="44.18108" lon="0.60342">
        <ele>63</ele>
        <time>2026-02-22T14:30:57.189Z</time>
      </trkpt>
      <trkpt lat="44.18107" lon="0.60344">
        <ele>63</ele>
        <time>2026-02-22T14:30:58.189Z</time>
      </trkpt>
      <trkpt lat="44.18106" lon="0.60345">
        <ele>63</ele>
        <time>2026-02-22T14:30:59.188Z</time>
      </trkpt>
      <trkpt lat="44.18105" lon="0.60346">
        <ele>62</ele>
        <time>2026-02-22T14:31:00.188Z</time>
      </trkpt>
      <trkpt lat="44.18105" lon="0.60348">
        <ele>62</ele>
        <time>2026-02-22T14:31:01.188Z</time>
      </trkpt>
      <trkpt lat="44.18104" lon="0.6035">
        <ele>62</ele>
        <time>2026-02-22T14:31:02.188Z</time>
      </trkpt>
      <trkpt lat="44.18103" lon="0.60351">
        <ele>62</ele>
        <time>2026-02-22T14:31:03.189Z</time>
      </trkpt>
      <trkpt lat="44.18102" lon="0.60353">
        <ele>62</ele>
        <time>2026-02-22T14:31:04.188Z</time>
      </trkpt>
      <trkpt lat="44.18101" lon="0.60354">
        <ele>63</ele>
        <time>2026-02-22T14:31:05.188Z</time>
      </trkpt>
      <trkpt lat="44.18101" lon="0.60355">
        <ele>62</ele>
        <time>2026-02-22T14:31:06.188Z</time>
      </trkpt>
      <trkpt lat="44.181" lon="0.60357">
        <ele>62</ele>
        <time>2026-02-22T14:31:07.188Z</time>
      </trkpt>
      <trkpt lat="44.181" lon="0.60358">
        <ele>63</ele>
        <time>2026-02-22T14:31:08.188Z</time>
      </trkpt>
      <trkpt lat="44.18099" lon="0.6036">
        <ele>63</ele>
        <time>2026-02-22T14:31:09.188Z</time>
      </trkpt>
      <trkpt lat="44.18098" lon="0.60361">
        <ele>63</ele>
        <time>2026-02-22T14:31:10.188Z</time>
      </trkpt>
      <trkpt lat="44.18097" lon="0.60363">
        <ele>63</ele>
        <time>2026-02-22T14:31:11.188Z</time>
      </trkpt>
      <trkpt lat="44.18097" lon="0.60364">
        <ele>64</ele>
        <time>2026-02-22T14:31:12.188Z</time>
      </trkpt>
      <trkpt lat="44.18096" lon="0.60366">
        <ele>64</ele>
        <time>2026-02-22T14:31:13.188Z</time>
      </trkpt>
      <trkpt lat="44.18096" lon="0.60367">
        <ele>64</ele>
        <time>2026-02-22T14:31:14.188Z</time>
      </trkpt>
      <trkpt lat="44.18095" lon="0.60368">
        <ele>64</ele>
        <time>2026-02-22T14:31:15.188Z</time>
      </trkpt>
      <trkpt lat="44.18095" lon="0.6037">
        <ele>64</ele>
        <time>2026-02-22T14:31:16.189Z</time>
      </trkpt>
      <trkpt lat="44.18094" lon="0.60371">
        <ele>64</ele>
        <time>2026-02-22T14:31:17.188Z</time>
      </trkpt>
      <trkpt lat="44.18094" lon="0.60373">
        <ele>64</ele>
        <time>2026-02-22T14:31:18.189Z</time>
      </trkpt>
      <trkpt lat="44.18093" lon="0.60375">
        <ele>64</ele>
        <time>2026-02-22T14:31:19.188Z</time>
      </trkpt>
      <trkpt lat="44.18092" lon="0.60377">
        <ele>64</ele>
        <time>2026-02-22T14:31:20.188Z</time>
      </trkpt>
      <trkpt lat="44.18092" lon="0.60378">
        <ele>64</ele>
        <time>2026-02-22T14:31:21.188Z</time>
      </trkpt>
      <trkpt lat="44.18091" lon="0.6038">
        <ele>63</ele>
        <time>2026-02-22T14:31:22.188Z</time>
      </trkpt>
      <trkpt lat="44.1809" lon="0.60381">
        <ele>63</ele>
        <time>2026-02-22T14:31:23.188Z</time>
      </trkpt>
      <trkpt lat="44.18089" lon="0.60383">
        <ele>63</ele>
        <time>2026-02-22T14:31:24.188Z</time>
      </trkpt>
      <trkpt lat="44.18089" lon="0.60384">
        <ele>63</ele>
        <time>2026-02-22T14:31:25.188Z</time>
      </trkpt>
      <trkpt lat="44.18088" lon="0.60385">
        <ele>63</ele>
        <time>2026-02-22T14:31:26.188Z</time>
      </trkpt>
      <trkpt lat="44.18088" lon="0.60386">
        <ele>62</ele>
        <time>2026-02-22T14:31:27.188Z</time>
      </trkpt>
      <trkpt lat="44.18087" lon="0.60388">
        <ele>62</ele>
        <time>2026-02-22T14:31:28.188Z</time>
      </trkpt>
      <trkpt lat="44.18087" lon="0.60389">
        <ele>62</ele>
        <time>2026-02-22T14:31:29.188Z</time>
      </trkpt>
      <trkpt lat="44.18086" lon="0.60391">
        <ele>62</ele>
        <time>2026-02-22T14:31:30.188Z</time>
      </trkpt>
      <trkpt lat="44.18085" lon="0.60392">
        <ele>62</ele>
        <time>2026-02-22T14:31:31.188Z</time>
      </trkpt>
      <trkpt lat="44.18084" lon="0.60393">
        <ele>62</ele>
        <time>2026-02-22T14:31:32.189Z</time>
      </trkpt>
      <trkpt lat="44.18084" lon="0.60394">
        <ele>62</ele>
        <time>2026-02-22T14:31:33.189Z</time>
      </trkpt>
      <trkpt lat="44.18084" lon="0.60395">
        <ele>62</ele>
        <time>2026-02-22T14:31:34.188Z</time>
      </trkpt>
      <trkpt lat="44.18083" lon="0.60396">
        <ele>62</ele>
        <time>2026-02-22T14:31:35.188Z</time>
      </trkpt>
      <trkpt lat="44.18082" lon="0.60398">
        <ele>62</ele>
        <time>2026-02-22T14:31:36.188Z</time>
      </trkpt>
      <trkpt lat="44.18082" lon="0.60399">
        <ele>63</ele>
        <time>2026-02-22T14:31:37.188Z</time>
      </trkpt>
      <trkpt lat="44.18081" lon="0.60401">
        <ele>62</ele>
        <time>2026-02-22T14:31:38.188Z</time>
      </trkpt>
      <trkpt lat="44.1808" lon="0.60402">
        <ele>62</ele>
        <time>2026-02-22T14:31:39.188Z</time>
      </trkpt>
      <trkpt lat="44.18079" lon="0.60404">
        <ele>62</ele>
        <time>2026-02-22T14:31:40.188Z</time>
      </trkpt>
      <trkpt lat="44.18078" lon="0.60405">
        <ele>62</ele>
        <time>2026-02-22T14:31:41.188Z</time>
      </trkpt>
      <trkpt lat="44.18078" lon="0.60407">
        <ele>62</ele>
        <time>2026-02-22T14:31:42.188Z</time>
      </trkpt>
      <trkpt lat="44.18077" lon="0.60408">
        <ele>62</ele>
        <time>2026-02-22T14:31:43.188Z</time>
      </trkpt>
      <trkpt lat="44.18076" lon="0.60409">
        <ele>62</ele>
        <time>2026-02-22T14:31:44.188Z</time>
      </trkpt>
      <trkpt lat="44.18075" lon="0.60411">
        <ele>62</ele>
        <time>2026-02-22T14:31:45.188Z</time>
      </trkpt>
      <trkpt lat="44.18075" lon="0.60412">
        <ele>62</ele>
        <time>2026-02-22T14:31:46.188Z</time>
      </trkpt>
      <trkpt lat="44.18074" lon="0.60414">
        <ele>62</ele>
        <time>2026-02-22T14:31:47.188Z</time>
      </trkpt>
      <trkpt lat="44.18073" lon="0.60415">
        <ele>62</ele>
        <time>2026-02-22T14:31:48.189Z</time>
      </trkpt>
      <trkpt lat="44.18073" lon="0.60417">
        <ele>63</ele>
        <time>2026-02-22T14:31:49.188Z</time>
      </trkpt>
      <trkpt lat="44.18072" lon="0.60419">
        <ele>63</ele>
        <time>2026-02-22T14:31:50.188Z</time>
      </trkpt>
      <trkpt lat="44.18072" lon="0.6042">
        <ele>63</ele>
        <time>2026-02-22T14:31:51.188Z</time>
      </trkpt>
      <trkpt lat="44.18072" lon="0.60422">
        <ele>63</ele>
        <time>2026-02-22T14:31:52.188Z</time>
      </trkpt>
      <trkpt lat="44.18072" lon="0.60423">
        <ele>63</ele>
        <time>2026-02-22T14:31:53.188Z</time>
      </trkpt>
      <trkpt lat="44.18071" lon="0.60425">
        <ele>63</ele>
        <time>2026-02-22T14:31:54.188Z</time>
      </trkpt>
      <trkpt lat="44.18071" lon="0.60427">
        <ele>63</ele>
        <time>2026-02-22T14:31:55.188Z</time>
      </trkpt>
      <trkpt lat="44.18071" lon="0.60428">
        <ele>63</ele>
        <time>2026-02-22T14:31:56.188Z</time>
      </trkpt>
      <trkpt lat="44.18072" lon="0.6043">
        <ele>63</ele>
        <time>2026-02-22T14:31:57.188Z</time>
      </trkpt>
      <trkpt lat="44.18072" lon="0.60431">
        <ele>63</ele>
        <time>2026-02-22T14:31:58.188Z</time>
      </trkpt>
      <trkpt lat="44.18072" lon="0.60433">
        <ele>63</ele>
        <time>2026-02-22T14:31:59.188Z</time>
      </trkpt>
      <trkpt lat="44.18072" lon="0.60435">
        <ele>63</ele>
        <time>2026-02-22T14:32:00.188Z</time>
      </trkpt>
      <trkpt lat="44.18072" lon="0.60436">
        <ele>64</ele>
        <time>2026-02-22T14:32:01.188Z</time>
      </trkpt>
      <trkpt lat="44.18072" lon="0.60437">
        <ele>64</ele>
        <time>2026-02-22T14:32:02.188Z</time>
      </trkpt>
      <trkpt lat="44.18072" lon="0.60439">
        <ele>63</ele>
        <time>2026-02-22T14:32:03.188Z</time>
      </trkpt>
      <trkpt lat="44.18073" lon="0.60441">
        <ele>63</ele>
        <time>2026-02-22T14:32:04.188Z</time>
      </trkpt>
      <trkpt lat="44.18073" lon="0.60442">
        <ele>63</ele>
        <time>2026-02-22T14:32:05.188Z</time>
      </trkpt>
      <trkpt lat="44.18074" lon="0.60444">
        <ele>62</ele>
        <time>2026-02-22T14:32:06.188Z</time>
      </trkpt>
      <trkpt lat="44.18074" lon="0.60445">
        <ele>62</ele>
        <time>2026-02-22T14:32:07.188Z</time>
      </trkpt>
      <trkpt lat="44.18075" lon="0.60446">
        <ele>62</ele>
        <time>2026-02-22T14:32:08.189Z</time>
      </trkpt>
      <trkpt lat="44.18076" lon="0.60448">
        <ele>61</ele>
        <time>2026-02-22T14:32:09.188Z</time>
      </trkpt>
      <trkpt lat="44.18076" lon="0.60449">
        <ele>61</ele>
        <time>2026-02-22T14:32:10.188Z</time>
      </trkpt>
      <trkpt lat="44.18076" lon="0.60449">
        <ele>61</ele>
        <time>2026-02-22T14:32:11.188Z</time>
      </trkpt>
      <trkpt lat="44.18076" lon="0.6045">
        <ele>60</ele>
        <time>2026-02-22T14:32:12.188Z</time>
      </trkpt>
      <trkpt lat="44.18076" lon="0.6045">
        <ele>60</ele>
        <time>2026-02-22T14:32:13.188Z</time>
      </trkpt>
      <trkpt lat="44.18076" lon="0.6045">
        <ele>60</ele>
        <time>2026-02-22T14:32:14.188Z</time>
      </trkpt>
      <trkpt lat="44.18076" lon="0.6045">
        <ele>60</ele>
        <time>2026-02-22T14:32:15.188Z</time>
      </trkpt>
      <trkpt lat="44.18076" lon="0.6045">
        <ele>60</ele>
        <time>2026-02-22T14:32:16.188Z</time>
      </trkpt>
      <trkpt lat="44.18076" lon="0.6045">
        <ele>59</ele>
        <time>2026-02-22T14:32:17.188Z</time>
      </trkpt>
      <trkpt lat="44.18076" lon="0.6045">
        <ele>59</ele>
        <time>2026-02-22T14:32:18.188Z</time>
      </trkpt>
      <trkpt lat="44.18077" lon="0.6045">
        <ele>59</ele>
        <time>2026-02-22T14:32:19.188Z</time>
      </trkpt>
      <trkpt lat="44.18077" lon="0.6045">
        <ele>59</ele>
        <time>2026-02-22T14:32:20.188Z</time>
      </trkpt>
      <trkpt lat="44.18077" lon="0.6045">
        <ele>59</ele>
        <time>2026-02-22T14:32:21.188Z</time>
      </trkpt>
      <trkpt lat="44.18077" lon="0.6045">
        <ele>59</ele>
        <time>2026-02-22T14:32:22.188Z</time>
      </trkpt>
      <trkpt lat="44.18077" lon="0.6045">
        <ele>59</ele>
        <time>2026-02-22T14:32:23.188Z</time>
      </trkpt>
      <trkpt lat="44.18077" lon="0.6045">
        <ele>59</ele>
        <time>2026-02-22T14:32:24.188Z</time>
      </trkpt>
      <trkpt lat="44.18077" lon="0.6045">
        <ele>59</ele>
        <time>2026-02-22T14:32:25.188Z</time>
      </trkpt>
      <trkpt lat="44.18077" lon="0.6045">
        <ele>59</ele>
        <time>2026-02-22T14:32:26.188Z</time>
      </trkpt>
      <trkpt lat="44.18077" lon="0.60451">
        <ele>59</ele>
        <time>2026-02-22T14:32:27.188Z</time>
      </trkpt>
      <trkpt lat="44.18077" lon="0.60451">
        <ele>59</ele>
        <time>2026-02-22T14:32:28.188Z</time>
      </trkpt>
      <trkpt lat="44.18077" lon="0.60451">
        <ele>59</ele>
        <time>2026-02-22T14:32:29.188Z</time>
      </trkpt>
      <trkpt lat="44.18077" lon="0.60451">
        <ele>59</ele>
        <time>2026-02-22T14:32:30.188Z</time>
      </trkpt>
      <trkpt lat="44.18077" lon="0.60451">
        <ele>59</ele>
        <time>2026-02-22T14:32:31.188Z</time>
      </trkpt>
      <trkpt lat="44.18077" lon="0.60451">
        <ele>59</ele>
        <time>2026-02-22T14:32:32.188Z</time>
      </trkpt>
      <trkpt lat="44.18077" lon="0.60452">
        <ele>60</ele>
        <time>2026-02-22T14:32:33.188Z</time>
      </trkpt>
      <trkpt lat="44.18077" lon="0.60452">
        <ele>60</ele>
        <time>2026-02-22T14:32:34.188Z</time>
      </trkpt>
      <trkpt lat="44.18077" lon="0.60452">
        <ele>60</ele>
        <time>2026-02-22T14:32:35.188Z</time>
      </trkpt>
      <trkpt lat="44.18077" lon="0.60452">
        <ele>60</ele>
        <time>2026-02-22T14:32:36.188Z</time>
      </trkpt>
      <trkpt lat="44.18077" lon="0.60452">
        <ele>61</ele>
        <time>2026-02-22T14:32:37.189Z</time>
      </trkpt>
      <trkpt lat="44.18077" lon="0.60452">
        <ele>61</ele>
        <time>2026-02-22T14:32:38.188Z</time>
      </trkpt>
      <trkpt lat="44.18077" lon="0.60452">
        <ele>61</ele>
        <time>2026-02-22T14:32:39.188Z</time>
      </trkpt>
      <trkpt lat="44.18077" lon="0.60452">
        <ele>62</ele>
        <time>2026-02-22T14:32:40.189Z</time>
      </trkpt>
      <trkpt lat="44.18077" lon="0.60452">
        <ele>62</ele>
        <time>2026-02-22T14:32:41.188Z</time>
      </trkpt>
      <trkpt lat="44.18077" lon="0.60452">
        <ele>62</ele>
        <time>2026-02-22T14:32:42.188Z</time>
      </trkpt>
      <trkpt lat="44.18077" lon="0.60452">
        <ele>63</ele>
        <time>2026-02-22T14:32:43.188Z</time>
      </trkpt>
      <trkpt lat="44.18077" lon="0.60452">
        <ele>63</ele>
        <time>2026-02-22T14:32:44.189Z</time>
      </trkpt>
      <trkpt lat="44.18077" lon="0.60452">
        <ele>63</ele>
        <time>2026-02-22T14:32:45.188Z</time>
      </trkpt>
      <trkpt lat="44.18077" lon="0.60452">
        <ele>63</ele>
        <time>2026-02-22T14:32:46.188Z</time>
      </trkpt>
      <trkpt lat="44.18077" lon="0.60452">
        <ele>63</ele>
        <time>2026-02-22T14:32:47.188Z</time>
      </trkpt>
      <trkpt lat="44.18077" lon="0.60452">
        <ele>63</ele>
        <time>2026-02-22T14:32:48.188Z</time>
      </trkpt>
      <trkpt lat="44.18077" lon="0.60453">
        <ele>63</ele>
        <time>2026-02-22T14:32:49.188Z</time>
      </trkpt>
      <trkpt lat="44.18077" lon="0.60453">
        <ele>63</ele>
        <time>2026-02-22T14:32:50.188Z</time>
      </trkpt>
      <trkpt lat="44.18077" lon="0.60452">
        <ele>62</ele>
        <time>2026-02-22T14:32:51.188Z</time>
      </trkpt>
      <trkpt lat="44.18077" lon="0.60452">
        <ele>62</ele>
        <time>2026-02-22T14:32:52.189Z</time>
      </trkpt>
      <trkpt lat="44.18077" lon="0.60452">
        <ele>62</ele>
        <time>2026-02-22T14:32:53.188Z</time>
      </trkpt>
      <trkpt lat="44.18077" lon="0.60452">
        <ele>62</ele>
        <time>2026-02-22T14:32:54.188Z</time>
      </trkpt>
      <trkpt lat="44.18077" lon="0.60452">
        <ele>62</ele>
        <time>2026-02-22T14:32:55.188Z</time>
      </trkpt>
      <trkpt lat="44.18077" lon="0.60452">
        <ele>62</ele>
        <time>2026-02-22T14:32:56.188Z</time>
      </trkpt>
      <trkpt lat="44.18077" lon="0.60452">
        <ele>62</ele>
        <time>2026-02-22T14:32:57.188Z</time>
      </trkpt>
      <trkpt lat="44.18077" lon="0.60452">
        <ele>62</ele>
        <time>2026-02-22T14:32:58.188Z</time>
      </trkpt>
      <trkpt lat="44.18077" lon="0.60452">
        <ele>62</ele>
        <time>2026-02-22T14:32:59.188Z</time>
      </trkpt>
      <trkpt lat="44.18076" lon="0.60452">
        <ele>62</ele>
        <time>2026-02-22T14:33:00.188Z</time>
      </trkpt>
      <trkpt lat="44.18076" lon="0.60451">
        <ele>62</ele>
        <time>2026-02-22T14:33:01.188Z</time>
      </trkpt>
      <trkpt lat="44.18076" lon="0.60451">
        <ele>62</ele>
        <time>2026-02-22T14:33:02.188Z</time>
      </trkpt>
      <trkpt lat="44.18076" lon="0.60451">
        <ele>62</ele>
        <time>2026-02-22T14:33:03.188Z</time>
      </trkpt>
      <trkpt lat="44.18075" lon="0.60452">
        <ele>62</ele>
        <time>2026-02-22T14:33:04.188Z</time>
      </trkpt>
      <trkpt lat="44.18074" lon="0.60453">
        <ele>62</ele>
        <time>2026-02-22T14:33:05.188Z</time>
      </trkpt>
      <trkpt lat="44.18074" lon="0.60454">
        <ele>63</ele>
        <time>2026-02-22T14:33:06.188Z</time>
      </trkpt>
      <trkpt lat="44.18073" lon="0.60455">
        <ele>63</ele>
        <time>2026-02-22T14:33:07.189Z</time>
      </trkpt>
      <trkpt lat="44.18073" lon="0.60456">
        <ele>63</ele>
        <time>2026-02-22T14:33:08.188Z</time>
      </trkpt>
      <trkpt lat="44.18072" lon="0.60457">
        <ele>63</ele>
        <time>2026-02-22T14:33:09.188Z</time>
      </trkpt>
      <trkpt lat="44.18072" lon="0.60459">
        <ele>64</ele>
        <time>2026-02-22T14:33:10.188Z</time>
      </trkpt>
      <trkpt lat="44.18072" lon="0.60459">
        <ele>64</ele>
        <time>2026-02-22T14:33:11.188Z</time>
      </trkpt>
      <trkpt lat="44.18072" lon="0.6046">
        <ele>64</ele>
        <time>2026-02-22T14:33:12.188Z</time>
      </trkpt>
      <trkpt lat="44.18072" lon="0.6046">
        <ele>64</ele>
        <time>2026-02-22T14:33:13.188Z</time>
      </trkpt>
      <trkpt lat="44.18072" lon="0.60461">
        <ele>64</ele>
        <time>2026-02-22T14:33:14.188Z</time>
      </trkpt>
      <trkpt lat="44.18073" lon="0.60461">
        <ele>64</ele>
        <time>2026-02-22T14:33:15.188Z</time>
      </trkpt>
      <trkpt lat="44.18073" lon="0.60462">
        <ele>64</ele>
        <time>2026-02-22T14:33:16.188Z</time>
      </trkpt>
      <trkpt lat="44.18073" lon="0.60463">
        <ele>64</ele>
        <time>2026-02-22T14:33:17.188Z</time>
      </trkpt>
      <trkpt lat="44.18074" lon="0.60464">
        <ele>64</ele>
        <time>2026-02-22T14:33:18.188Z</time>
      </trkpt>
      <trkpt lat="44.18074" lon="0.60466">
        <ele>64</ele>
        <time>2026-02-22T14:33:19.188Z</time>
      </trkpt>
      <trkpt lat="44.18075" lon="0.60468">
        <ele>63</ele>
        <time>2026-02-22T14:33:20.189Z</time>
      </trkpt>
      <trkpt lat="44.18075" lon="0.60469">
        <ele>64</ele>
        <time>2026-02-22T14:33:21.188Z</time>
      </trkpt>
      <trkpt lat="44.18075" lon="0.60471">
        <ele>64</ele>
        <time>2026-02-22T14:33:22.188Z</time>
      </trkpt>
      <trkpt lat="44.18074" lon="0.60473">
        <ele>64</ele>
        <time>2026-02-22T14:33:23.188Z</time>
      </trkpt>
      <trkpt lat="44.18074" lon="0.60475">
        <ele>64</ele>
        <time>2026-02-22T14:33:24.188Z</time>
      </trkpt>
      <trkpt lat="44.18074" lon="0.60477">
        <ele>64</ele>
        <time>2026-02-22T14:33:25.188Z</time>
      </trkpt>
      <trkpt lat="44.18073" lon="0.60478">
        <ele>64</ele>
        <time>2026-02-22T14:33:26.188Z</time>
      </trkpt>
      <trkpt lat="44.18073" lon="0.60479">
        <ele>64</ele>
        <time>2026-02-22T14:33:27.188Z</time>
      </trkpt>
      <trkpt lat="44.18072" lon="0.6048">
        <ele>63</ele>
        <time>2026-02-22T14:33:28.188Z</time>
      </trkpt>
      <trkpt lat="44.18071" lon="0.60481">
        <ele>63</ele>
        <time>2026-02-22T14:33:29.188Z</time>
      </trkpt>
      <trkpt lat="44.1807" lon="0.60482">
        <ele>63</ele>
        <time>2026-02-22T14:33:30.188Z</time>
      </trkpt>
      <trkpt lat="44.18069" lon="0.60483">
        <ele>62</ele>
        <time>2026-02-22T14:33:31.188Z</time>
      </trkpt>
      <trkpt lat="44.18069" lon="0.60485">
        <ele>62</ele>
        <time>2026-02-22T14:33:32.188Z</time>
      </trkpt>
      <trkpt lat="44.18069" lon="0.60485">
        <ele>62</ele>
        <time>2026-02-22T14:33:33.188Z</time>
      </trkpt>
      <trkpt lat="44.18069" lon="0.60486">
        <ele>62</ele>
        <time>2026-02-22T14:33:34.188Z</time>
      </trkpt>
      <trkpt lat="44.18069" lon="0.60487">
        <ele>61</ele>
        <time>2026-02-22T14:33:35.188Z</time>
      </trkpt>
      <trkpt lat="44.1807" lon="0.60488">
        <ele>61</ele>
        <time>2026-02-22T14:33:36.188Z</time>
      </trkpt>
      <trkpt lat="44.1807" lon="0.6049">
        <ele>61</ele>
        <time>2026-02-22T14:33:37.188Z</time>
      </trkpt>
      <trkpt lat="44.1807" lon="0.60491">
        <ele>61</ele>
        <time>2026-02-22T14:33:38.188Z</time>
      </trkpt>
      <trkpt lat="44.1807" lon="0.60493">
        <ele>61</ele>
        <time>2026-02-22T14:33:39.188Z</time>
      </trkpt>
      <trkpt lat="44.1807" lon="0.60494">
        <ele>61</ele>
        <time>2026-02-22T14:33:40.188Z</time>
      </trkpt>
      <trkpt lat="44.1807" lon="0.60496">
        <ele>61</ele>
        <time>2026-02-22T14:33:41.188Z</time>
      </trkpt>
      <trkpt lat="44.1807" lon="0.60497">
        <ele>61</ele>
        <time>2026-02-22T14:33:42.188Z</time>
      </trkpt>
      <trkpt lat="44.1807" lon="0.60498">
        <ele>61</ele>
        <time>2026-02-22T14:33:43.188Z</time>
      </trkpt>
      <trkpt lat="44.1807" lon="0.60499">
        <ele>61</ele>
        <time>2026-02-22T14:33:44.188Z</time>
      </trkpt>
      <trkpt lat="44.1807" lon="0.605">
        <ele>61</ele>
        <time>2026-02-22T14:33:45.188Z</time>
      </trkpt>
      <trkpt lat="44.1807" lon="0.60502">
        <ele>61</ele>
        <time>2026-02-22T14:33:46.188Z</time>
      </trkpt>
      <trkpt lat="44.1807" lon="0.60503">
        <ele>61</ele>
        <time>2026-02-22T14:33:47.188Z</time>
      </trkpt>
      <trkpt lat="44.18071" lon="0.60504">
        <ele>61</ele>
        <time>2026-02-22T14:33:48.188Z</time>
      </trkpt>
      <trkpt lat="44.18071" lon="0.60506">
        <ele>61</ele>
        <time>2026-02-22T14:33:49.188Z</time>
      </trkpt>
      <trkpt lat="44.18071" lon="0.60508">
        <ele>61</ele>
        <time>2026-02-22T14:33:50.188Z</time>
      </trkpt>
      <trkpt lat="44.18071" lon="0.60509">
        <ele>61</ele>
        <time>2026-02-22T14:33:51.188Z</time>
      </trkpt>
      <trkpt lat="44.18071" lon="0.6051">
        <ele>61</ele>
        <time>2026-02-22T14:33:52.189Z</time>
      </trkpt>
      <trkpt lat="44.18071" lon="0.60512">
        <ele>61</ele>
        <time>2026-02-22T14:33:53.188Z</time>
      </trkpt>
      <trkpt lat="44.18071" lon="0.60513">
        <ele>61</ele>
        <time>2026-02-22T14:33:54.188Z</time>
      </trkpt>
      <trkpt lat="44.18071" lon="0.60514">
        <ele>61</ele>
        <time>2026-02-22T14:33:55.188Z</time>
      </trkpt>
      <trkpt lat="44.18071" lon="0.60516">
        <ele>61</ele>
        <time>2026-02-22T14:33:56.188Z</time>
      </trkpt>
      <trkpt lat="44.18071" lon="0.60517">
        <ele>61</ele>
        <time>2026-02-22T14:33:57.188Z</time>
      </trkpt>
      <trkpt lat="44.1807" lon="0.60519">
        <ele>61</ele>
        <time>2026-02-22T14:33:58.189Z</time>
      </trkpt>
      <trkpt lat="44.1807" lon="0.6052">
        <ele>61</ele>
        <time>2026-02-22T14:33:59.188Z</time>
      </trkpt>
      <trkpt lat="44.18069" lon="0.60521">
        <ele>61</ele>
        <time>2026-02-22T14:34:00.188Z</time>
      </trkpt>
      <trkpt lat="44.18069" lon="0.60522">
        <ele>60</ele>
        <time>2026-02-22T14:34:01.188Z</time>
      </trkpt>
      <trkpt lat="44.18069" lon="0.60524">
        <ele>60</ele>
        <time>2026-02-22T14:34:02.188Z</time>
      </trkpt>
      <trkpt lat="44.18069" lon="0.60526">
        <ele>60</ele>
        <time>2026-02-22T14:34:03.188Z</time>
      </trkpt>
      <trkpt lat="44.18068" lon="0.60527">
        <ele>61</ele>
        <time>2026-02-22T14:34:04.188Z</time>
      </trkpt>
      <trkpt lat="44.18067" lon="0.60527">
        <ele>61</ele>
        <time>2026-02-22T14:34:05.188Z</time>
      </trkpt>
      <trkpt lat="44.18066" lon="0.60528">
        <ele>61</ele>
        <time>2026-02-22T14:34:06.188Z</time>
      </trkpt>
      <trkpt lat="44.18065" lon="0.60528">
        <ele>60</ele>
        <time>2026-02-22T14:34:07.189Z</time>
      </trkpt>
      <trkpt lat="44.18064" lon="0.60529">
        <ele>60</ele>
        <time>2026-02-22T14:34:08.188Z</time>
      </trkpt>
      <trkpt lat="44.18063" lon="0.60529">
        <ele>60</ele>
        <time>2026-02-22T14:34:09.188Z</time>
      </trkpt>
      <trkpt lat="44.18062" lon="0.6053">
        <ele>60</ele>
        <time>2026-02-22T14:34:10.188Z</time>
      </trkpt>
      <trkpt lat="44.1806" lon="0.6053">
        <ele>60</ele>
        <time>2026-02-22T14:34:11.188Z</time>
      </trkpt>
      <trkpt lat="44.18059" lon="0.6053">
        <ele>60</ele>
        <time>2026-02-22T14:34:12.188Z</time>
      </trkpt>
      <trkpt lat="44.18058" lon="0.60531">
        <ele>60</ele>
        <time>2026-02-22T14:34:13.188Z</time>
      </trkpt>
      <trkpt lat="44.18057" lon="0.60532">
        <ele>60</ele>
        <time>2026-02-22T14:34:14.188Z</time>
      </trkpt>
      <trkpt lat="44.18056" lon="0.60533">
        <ele>60</ele>
        <time>2026-02-22T14:34:15.188Z</time>
      </trkpt>
      <trkpt lat="44.18055" lon="0.60534">
        <ele>60</ele>
        <time>2026-02-22T14:34:16.188Z</time>
      </trkpt>
      <trkpt lat="44.18054" lon="0.60534">
        <ele>60</ele>
        <time>2026-02-22T14:34:17.188Z</time>
      </trkpt>
      <trkpt lat="44.18053" lon="0.60535">
        <ele>60</ele>
        <time>2026-02-22T14:34:18.188Z</time>
      </trkpt>
      <trkpt lat="44.18052" lon="0.60535">
        <ele>59</ele>
        <time>2026-02-22T14:34:19.188Z</time>
      </trkpt>
      <trkpt lat="44.18051" lon="0.60536">
        <ele>59</ele>
        <time>2026-02-22T14:34:20.188Z</time>
      </trkpt>
      <trkpt lat="44.18049" lon="0.60536">
        <ele>58</ele>
        <time>2026-02-22T14:34:21.188Z</time>
      </trkpt>
      <trkpt lat="44.18048" lon="0.60537">
        <ele>58</ele>
        <time>2026-02-22T14:34:22.188Z</time>
      </trkpt>
      <trkpt lat="44.18046" lon="0.60537">
        <ele>58</ele>
        <time>2026-02-22T14:34:23.188Z</time>
      </trkpt>
      <trkpt lat="44.18045" lon="0.60538">
        <ele>58</ele>
        <time>2026-02-22T14:34:24.188Z</time>
      </trkpt>
      <trkpt lat="44.18044" lon="0.60539">
        <ele>58</ele>
        <time>2026-02-22T14:34:25.188Z</time>
      </trkpt>
      <trkpt lat="44.18043" lon="0.60539">
        <ele>59</ele>
        <time>2026-02-22T14:34:26.188Z</time>
      </trkpt>
      <trkpt lat="44.18042" lon="0.6054">
        <ele>59</ele>
        <time>2026-02-22T14:34:27.188Z</time>
      </trkpt>
      <trkpt lat="44.18041" lon="0.60541">
        <ele>60</ele>
        <time>2026-02-22T14:34:28.188Z</time>
      </trkpt>
      <trkpt lat="44.1804" lon="0.60542">
        <ele>60</ele>
        <time>2026-02-22T14:34:29.188Z</time>
      </trkpt>
      <trkpt lat="44.18038" lon="0.60543">
        <ele>60</ele>
        <time>2026-02-22T14:34:30.188Z</time>
      </trkpt>
      <trkpt lat="44.18037" lon="0.60544">
        <ele>60</ele>
        <time>2026-02-22T14:34:31.188Z</time>
      </trkpt>
      <trkpt lat="44.18037" lon="0.60545">
        <ele>61</ele>
        <time>2026-02-22T14:34:32.188Z</time>
      </trkpt>
      <trkpt lat="44.18037" lon="0.60546">
        <ele>61</ele>
        <time>2026-02-22T14:34:33.188Z</time>
      </trkpt>
      <trkpt lat="44.18036" lon="0.60548">
        <ele>61</ele>
        <time>2026-02-22T14:34:34.189Z</time>
      </trkpt>
      <trkpt lat="44.18036" lon="0.60549">
        <ele>61</ele>
        <time>2026-02-22T14:34:35.188Z</time>
      </trkpt>
      <trkpt lat="44.18035" lon="0.60551">
        <ele>62</ele>
        <time>2026-02-22T14:34:36.188Z</time>
      </trkpt>
      <trkpt lat="44.18035" lon="0.60553">
        <ele>62</ele>
        <time>2026-02-22T14:34:37.189Z</time>
      </trkpt>
      <trkpt lat="44.18034" lon="0.60555">
        <ele>62</ele>
        <time>2026-02-22T14:34:38.188Z</time>
      </trkpt>
      <trkpt lat="44.18034" lon="0.60557">
        <ele>62</ele>
        <time>2026-02-22T14:34:39.188Z</time>
      </trkpt>
      <trkpt lat="44.18034" lon="0.60559">
        <ele>62</ele>
        <time>2026-02-22T14:34:40.188Z</time>
      </trkpt>
      <trkpt lat="44.18034" lon="0.60561">
        <ele>62</ele>
        <time>2026-02-22T14:34:41.188Z</time>
      </trkpt>
      <trkpt lat="44.18033" lon="0.60563">
        <ele>62</ele>
        <time>2026-02-22T14:34:42.188Z</time>
      </trkpt>
      <trkpt lat="44.18033" lon="0.60565">
        <ele>62</ele>
        <time>2026-02-22T14:34:43.188Z</time>
      </trkpt>
      <trkpt lat="44.18033" lon="0.60566">
        <ele>62</ele>
        <time>2026-02-22T14:34:44.188Z</time>
      </trkpt>
      <trkpt lat="44.18032" lon="0.60567">
        <ele>61</ele>
        <time>2026-02-22T14:34:45.188Z</time>
      </trkpt>
      <trkpt lat="44.18032" lon="0.60568">
        <ele>61</ele>
        <time>2026-02-22T14:34:46.188Z</time>
      </trkpt>
      <trkpt lat="44.18032" lon="0.6057">
        <ele>61</ele>
        <time>2026-02-22T14:34:47.188Z</time>
      </trkpt>
      <trkpt lat="44.18032" lon="0.60572">
        <ele>61</ele>
        <time>2026-02-22T14:34:48.188Z</time>
      </trkpt>
      <trkpt lat="44.18032" lon="0.60574">
        <ele>62</ele>
        <time>2026-02-22T14:34:49.188Z</time>
      </trkpt>
      <trkpt lat="44.18032" lon="0.60576">
        <ele>62</ele>
        <time>2026-02-22T14:34:50.188Z</time>
      </trkpt>
      <trkpt lat="44.18031" lon="0.60577">
        <ele>62</ele>
        <time>2026-02-22T14:34:51.188Z</time>
      </trkpt>
      <trkpt lat="44.18031" lon="0.60578">
        <ele>62</ele>
        <time>2026-02-22T14:34:52.189Z</time>
      </trkpt>
      <trkpt lat="44.18031" lon="0.6058">
        <ele>62</ele>
        <time>2026-02-22T14:34:53.188Z</time>
      </trkpt>
      <trkpt lat="44.18031" lon="0.60581">
        <ele>62</ele>
        <time>2026-02-22T14:34:54.189Z</time>
      </trkpt>
      <trkpt lat="44.18031" lon="0.60583">
        <ele>62</ele>
        <time>2026-02-22T14:34:55.188Z</time>
      </trkpt>
      <trkpt lat="44.18031" lon="0.60584">
        <ele>62</ele>
        <time>2026-02-22T14:34:56.188Z</time>
      </trkpt>
      <trkpt lat="44.18032" lon="0.60586">
        <ele>62</ele>
        <time>2026-02-22T14:34:57.188Z</time>
      </trkpt>
      <trkpt lat="44.18032" lon="0.60587">
        <ele>62</ele>
        <time>2026-02-22T14:34:58.188Z</time>
      </trkpt>
      <trkpt lat="44.18032" lon="0.60588">
        <ele>62</ele>
        <time>2026-02-22T14:34:59.188Z</time>
      </trkpt>
      <trkpt lat="44.18033" lon="0.6059">
        <ele>62</ele>
        <time>2026-02-22T14:35:00.188Z</time>
      </trkpt>
      <trkpt lat="44.18033" lon="0.60591">
        <ele>61</ele>
        <time>2026-02-22T14:35:01.188Z</time>
      </trkpt>
      <trkpt lat="44.18034" lon="0.60593">
        <ele>61</ele>
        <time>2026-02-22T14:35:02.188Z</time>
      </trkpt>
      <trkpt lat="44.18035" lon="0.60594">
        <ele>62</ele>
        <time>2026-02-22T14:35:03.188Z</time>
      </trkpt>
      <trkpt lat="44.18036" lon="0.60595">
        <ele>62</ele>
        <time>2026-02-22T14:35:04.188Z</time>
      </trkpt>
      <trkpt lat="44.18036" lon="0.60596">
        <ele>62</ele>
        <time>2026-02-22T14:35:05.188Z</time>
      </trkpt>
      <trkpt lat="44.18037" lon="0.60596">
        <ele>62</ele>
        <time>2026-02-22T14:35:06.188Z</time>
      </trkpt>
      <trkpt lat="44.18038" lon="0.60597">
        <ele>63</ele>
        <time>2026-02-22T14:35:07.188Z</time>
      </trkpt>
      <trkpt lat="44.18038" lon="0.60598">
        <ele>63</ele>
        <time>2026-02-22T14:35:08.188Z</time>
      </trkpt>
      <trkpt lat="44.18039" lon="0.60599">
        <ele>64</ele>
        <time>2026-02-22T14:35:09.188Z</time>
      </trkpt>
      <trkpt lat="44.1804" lon="0.60599">
        <ele>64</ele>
        <time>2026-02-22T14:35:10.189Z</time>
      </trkpt>
      <trkpt lat="44.18041" lon="0.606">
        <ele>65</ele>
        <time>2026-02-22T14:35:11.188Z</time>
      </trkpt>
      <trkpt lat="44.18042" lon="0.606">
        <ele>65</ele>
        <time>2026-02-22T14:35:12.188Z</time>
      </trkpt>
      <trkpt lat="44.18043" lon="0.60601">
        <ele>65</ele>
        <time>2026-02-22T14:35:13.188Z</time>
      </trkpt>
      <trkpt lat="44.18043" lon="0.60602">
        <ele>66</ele>
        <time>2026-02-22T14:35:14.188Z</time>
      </trkpt>
      <trkpt lat="44.18044" lon="0.60602">
        <ele>66</ele>
        <time>2026-02-22T14:35:15.188Z</time>
      </trkpt>
      <trkpt lat="44.18046" lon="0.60603">
        <ele>66</ele>
        <time>2026-02-22T14:35:16.188Z</time>
      </trkpt>
      <trkpt lat="44.18047" lon="0.60604">
        <ele>66</ele>
        <time>2026-02-22T14:35:17.188Z</time>
      </trkpt>
      <trkpt lat="44.18048" lon="0.60605">
        <ele>67</ele>
        <time>2026-02-22T14:35:18.188Z</time>
      </trkpt>
      <trkpt lat="44.18049" lon="0.60606">
        <ele>67</ele>
        <time>2026-02-22T14:35:19.188Z</time>
      </trkpt>
      <trkpt lat="44.1805" lon="0.60606">
        <ele>67</ele>
        <time>2026-02-22T14:35:20.188Z</time>
      </trkpt>
      <trkpt lat="44.18051" lon="0.60606">
        <ele>66</ele>
        <time>2026-02-22T14:35:21.188Z</time>
      </trkpt>
      <trkpt lat="44.18053" lon="0.60607">
        <ele>66</ele>
        <time>2026-02-22T14:35:22.188Z</time>
      </trkpt>
      <trkpt lat="44.18055" lon="0.60608">
        <ele>66</ele>
        <time>2026-02-22T14:35:23.188Z</time>
      </trkpt>
      <trkpt lat="44.18055" lon="0.60609">
        <ele>67</ele>
        <time>2026-02-22T14:35:24.189Z</time>
      </trkpt>
      <trkpt lat="44.18056" lon="0.6061">
        <ele>67</ele>
        <time>2026-02-22T14:35:25.188Z</time>
      </trkpt>
      <trkpt lat="44.18057" lon="0.6061">
        <ele>67</ele>
        <time>2026-02-22T14:35:26.188Z</time>
      </trkpt>
      <trkpt lat="44.18058" lon="0.60611">
        <ele>68</ele>
        <time>2026-02-22T14:35:27.188Z</time>
      </trkpt>
      <trkpt lat="44.18059" lon="0.60612">
        <ele>68</ele>
        <time>2026-02-22T14:35:28.188Z</time>
      </trkpt>
      <trkpt lat="44.1806" lon="0.60613">
        <ele>68</ele>
        <time>2026-02-22T14:35:29.188Z</time>
      </trkpt>
      <trkpt lat="44.18061" lon="0.60614">
        <ele>68</ele>
        <time>2026-02-22T14:35:30.188Z</time>
      </trkpt>
      <trkpt lat="44.18062" lon="0.60615">
        <ele>68</ele>
        <time>2026-02-22T14:35:31.188Z</time>
      </trkpt>
      <trkpt lat="44.18063" lon="0.60615">
        <ele>68</ele>
        <time>2026-02-22T14:35:32.188Z</time>
      </trkpt>
      <trkpt lat="44.18064" lon="0.60616">
        <ele>68</ele>
        <time>2026-02-22T14:35:33.188Z</time>
      </trkpt>
      <trkpt lat="44.18066" lon="0.60617">
        <ele>68</ele>
        <time>2026-02-22T14:35:34.188Z</time>
      </trkpt>
      <trkpt lat="44.18067" lon="0.60618">
        <ele>69</ele>
        <time>2026-02-22T14:35:35.188Z</time>
      </trkpt>
      <trkpt lat="44.18068" lon="0.60619">
        <ele>69</ele>
        <time>2026-02-22T14:35:36.188Z</time>
      </trkpt>
      <trkpt lat="44.18069" lon="0.6062">
        <ele>69</ele>
        <time>2026-02-22T14:35:37.188Z</time>
      </trkpt>
      <trkpt lat="44.18069" lon="0.6062">
        <ele>69</ele>
        <time>2026-02-22T14:35:38.188Z</time>
      </trkpt>
      <trkpt lat="44.18071" lon="0.60621">
        <ele>70</ele>
        <time>2026-02-22T14:35:39.189Z</time>
      </trkpt>
      <trkpt lat="44.18072" lon="0.60622">
        <ele>70</ele>
        <time>2026-02-22T14:35:40.188Z</time>
      </trkpt>
      <trkpt lat="44.18073" lon="0.60622">
        <ele>70</ele>
        <time>2026-02-22T14:35:41.188Z</time>
      </trkpt>
      <trkpt lat="44.18074" lon="0.60623">
        <ele>71</ele>
        <time>2026-02-22T14:35:42.188Z</time>
      </trkpt>
      <trkpt lat="44.18075" lon="0.60623">
        <ele>70</ele>
        <time>2026-02-22T14:35:43.188Z</time>
      </trkpt>
      <trkpt lat="44.18076" lon="0.60624">
        <ele>70</ele>
        <time>2026-02-22T14:35:44.189Z</time>
      </trkpt>
      <trkpt lat="44.18077" lon="0.60624">
        <ele>70</ele>
        <time>2026-02-22T14:35:45.188Z</time>
      </trkpt>
      <trkpt lat="44.18079" lon="0.60625">
        <ele>70</ele>
        <time>2026-02-22T14:35:46.189Z</time>
      </trkpt>
      <trkpt lat="44.1808" lon="0.60625">
        <ele>70</ele>
        <time>2026-02-22T14:35:47.188Z</time>
      </trkpt>
      <trkpt lat="44.18081" lon="0.60625">
        <ele>69</ele>
        <time>2026-02-22T14:35:48.188Z</time>
      </trkpt>
      <trkpt lat="44.18083" lon="0.60626">
        <ele>69</ele>
        <time>2026-02-22T14:35:49.188Z</time>
      </trkpt>
      <trkpt lat="44.18084" lon="0.60627">
        <ele>68</ele>
        <time>2026-02-22T14:35:50.188Z</time>
      </trkpt>
      <trkpt lat="44.18085" lon="0.60627">
        <ele>67</ele>
        <time>2026-02-22T14:35:51.188Z</time>
      </trkpt>
      <trkpt lat="44.18086" lon="0.60627">
        <ele>67</ele>
        <time>2026-02-22T14:35:52.188Z</time>
      </trkpt>
      <trkpt lat="44.18087" lon="0.60628">
        <ele>66</ele>
        <time>2026-02-22T14:35:53.188Z</time>
      </trkpt>
      <trkpt lat="44.18088" lon="0.60629">
        <ele>65</ele>
        <time>2026-02-22T14:35:54.189Z</time>
      </trkpt>
      <trkpt lat="44.18089" lon="0.60629">
        <ele>65</ele>
        <time>2026-02-22T14:35:55.188Z</time>
      </trkpt>
      <trkpt lat="44.1809" lon="0.6063">
        <ele>65</ele>
        <time>2026-02-22T14:35:56.188Z</time>
      </trkpt>
      <trkpt lat="44.18091" lon="0.60631">
        <ele>65</ele>
        <time>2026-02-22T14:35:57.188Z</time>
      </trkpt>
      <trkpt lat="44.18092" lon="0.60631">
        <ele>65</ele>
        <time>2026-02-22T14:35:58.188Z</time>
      </trkpt>
      <trkpt lat="44.18092" lon="0.60632">
        <ele>65</ele>
        <time>2026-02-22T14:35:59.188Z</time>
      </trkpt>
      <trkpt lat="44.18093" lon="0.60633">
        <ele>65</ele>
        <time>2026-02-22T14:36:00.188Z</time>
      </trkpt>
      <trkpt lat="44.18093" lon="0.60633">
        <ele>64</ele>
        <time>2026-02-22T14:36:01.188Z</time>
      </trkpt>
      <trkpt lat="44.18093" lon="0.60634">
        <ele>64</ele>
        <time>2026-02-22T14:36:02.188Z</time>
      </trkpt>
      <trkpt lat="44.18094" lon="0.60634">
        <ele>64</ele>
        <time>2026-02-22T14:36:03.188Z</time>
      </trkpt>
      <trkpt lat="44.18094" lon="0.60635">
        <ele>63</ele>
        <time>2026-02-22T14:36:04.188Z</time>
      </trkpt>
      <trkpt lat="44.18094" lon="0.60636">
        <ele>63</ele>
        <time>2026-02-22T14:36:05.188Z</time>
      </trkpt>
      <trkpt lat="44.18095" lon="0.60638">
        <ele>62</ele>
        <time>2026-02-22T14:36:06.188Z</time>
      </trkpt>
      <trkpt lat="44.18097" lon="0.60639">
        <ele>61</ele>
        <time>2026-02-22T14:36:07.188Z</time>
      </trkpt>
      <trkpt lat="44.18098" lon="0.60639">
        <ele>60</ele>
        <time>2026-02-22T14:36:08.188Z</time>
      </trkpt>
      <trkpt lat="44.181" lon="0.6064">
        <ele>60</ele>
        <time>2026-02-22T14:36:09.189Z</time>
      </trkpt>
      <trkpt lat="44.18101" lon="0.60641">
        <ele>60</ele>
        <time>2026-02-22T14:36:10.188Z</time>
      </trkpt>
      <trkpt lat="44.18102" lon="0.60642">
        <ele>61</ele>
        <time>2026-02-22T14:36:11.188Z</time>
      </trkpt>
      <trkpt lat="44.18102" lon="0.60644">
        <ele>61</ele>
        <time>2026-02-22T14:36:12.188Z</time>
      </trkpt>
      <trkpt lat="44.18101" lon="0.60646">
        <ele>62</ele>
        <time>2026-02-22T14:36:13.188Z</time>
      </trkpt>
      <trkpt lat="44.18101" lon="0.60647">
        <ele>62</ele>
        <time>2026-02-22T14:36:14.188Z</time>
      </trkpt>
      <trkpt lat="44.181" lon="0.60648">
        <ele>63</ele>
        <time>2026-02-22T14:36:15.188Z</time>
      </trkpt>
      <trkpt lat="44.18099" lon="0.60649">
        <ele>63</ele>
        <time>2026-02-22T14:36:16.188Z</time>
      </trkpt>
      <trkpt lat="44.18098" lon="0.60651">
        <ele>63</ele>
        <time>2026-02-22T14:36:17.188Z</time>
      </trkpt>
      <trkpt lat="44.18097" lon="0.60652">
        <ele>64</ele>
        <time>2026-02-22T14:36:18.188Z</time>
      </trkpt>
      <trkpt lat="44.18096" lon="0.60654">
        <ele>64</ele>
        <time>2026-02-22T14:36:19.188Z</time>
      </trkpt>
      <trkpt lat="44.18095" lon="0.60655">
        <ele>63</ele>
        <time>2026-02-22T14:36:20.188Z</time>
      </trkpt>
      <trkpt lat="44.18094" lon="0.60656">
        <ele>63</ele>
        <time>2026-02-22T14:36:21.188Z</time>
      </trkpt>
      <trkpt lat="44.18093" lon="0.60658">
        <ele>63</ele>
        <time>2026-02-22T14:36:22.188Z</time>
      </trkpt>
      <trkpt lat="44.18092" lon="0.60659">
        <ele>63</ele>
        <time>2026-02-22T14:36:23.188Z</time>
      </trkpt>
      <trkpt lat="44.18091" lon="0.6066">
        <ele>63</ele>
        <time>2026-02-22T14:36:24.189Z</time>
      </trkpt>
      <trkpt lat="44.1809" lon="0.60661">
        <ele>63</ele>
        <time>2026-02-22T14:36:25.188Z</time>
      </trkpt>
      <trkpt lat="44.18089" lon="0.60662">
        <ele>63</ele>
        <time>2026-02-22T14:36:26.188Z</time>
      </trkpt>
      <trkpt lat="44.18088" lon="0.60664">
        <ele>63</ele>
        <time>2026-02-22T14:36:27.188Z</time>
      </trkpt>
      <trkpt lat="44.18087" lon="0.60666">
        <ele>63</ele>
        <time>2026-02-22T14:36:28.188Z</time>
      </trkpt>
      <trkpt lat="44.18087" lon="0.60667">
        <ele>63</ele>
        <time>2026-02-22T14:36:29.188Z</time>
      </trkpt>
      <trkpt lat="44.18086" lon="0.60669">
        <ele>63</ele>
        <time>2026-02-22T14:36:30.188Z</time>
      </trkpt>
      <trkpt lat="44.18085" lon="0.6067">
        <ele>63</ele>
        <time>2026-02-22T14:36:31.188Z</time>
      </trkpt>
      <trkpt lat="44.18084" lon="0.60672">
        <ele>62</ele>
        <time>2026-02-22T14:36:32.188Z</time>
      </trkpt>
      <trkpt lat="44.18084" lon="0.60673">
        <ele>62</ele>
        <time>2026-02-22T14:36:33.188Z</time>
      </trkpt>
      <trkpt lat="44.18083" lon="0.60674">
        <ele>62</ele>
        <time>2026-02-22T14:36:34.188Z</time>
      </trkpt>
      <trkpt lat="44.18082" lon="0.60675">
        <ele>62</ele>
        <time>2026-02-22T14:36:35.188Z</time>
      </trkpt>
      <trkpt lat="44.18082" lon="0.60677">
        <ele>62</ele>
        <time>2026-02-22T14:36:36.188Z</time>
      </trkpt>
      <trkpt lat="44.18081" lon="0.60678">
        <ele>62</ele>
        <time>2026-02-22T14:36:37.188Z</time>
      </trkpt>
      <trkpt lat="44.1808" lon="0.60679">
        <ele>61</ele>
        <time>2026-02-22T14:36:38.188Z</time>
      </trkpt>
      <trkpt lat="44.18079" lon="0.60681">
        <ele>61</ele>
        <time>2026-02-22T14:36:39.188Z</time>
      </trkpt>
      <trkpt lat="44.18078" lon="0.60683">
        <ele>61</ele>
        <time>2026-02-22T14:36:40.188Z</time>
      </trkpt>
      <trkpt lat="44.18078" lon="0.60684">
        <ele>60</ele>
        <time>2026-02-22T14:36:41.188Z</time>
      </trkpt>
      <trkpt lat="44.18077" lon="0.60685">
        <ele>60</ele>
        <time>2026-02-22T14:36:42.188Z</time>
      </trkpt>
      <trkpt lat="44.18076" lon="0.60686">
        <ele>60</ele>
        <time>2026-02-22T14:36:43.188Z</time>
      </trkpt>
      <trkpt lat="44.18075" lon="0.60688">
        <ele>60</ele>
        <time>2026-02-22T14:36:44.188Z</time>
      </trkpt>
      <trkpt lat="44.18075" lon="0.60689">
        <ele>59</ele>
        <time>2026-02-22T14:36:45.188Z</time>
      </trkpt>
      <trkpt lat="44.18074" lon="0.60691">
        <ele>59</ele>
        <time>2026-02-22T14:36:46.188Z</time>
      </trkpt>
      <trkpt lat="44.18073" lon="0.60692">
        <ele>59</ele>
        <time>2026-02-22T14:36:47.188Z</time>
      </trkpt>
      <trkpt lat="44.18072" lon="0.60694">
        <ele>59</ele>
        <time>2026-02-22T14:36:48.188Z</time>
      </trkpt>
      <trkpt lat="44.18072" lon="0.60695">
        <ele>59</ele>
        <time>2026-02-22T14:36:49.188Z</time>
      </trkpt>
      <trkpt lat="44.18071" lon="0.60697">
        <ele>59</ele>
        <time>2026-02-22T14:36:50.189Z</time>
      </trkpt>
      <trkpt lat="44.18071" lon="0.60698">
        <ele>59</ele>
        <time>2026-02-22T14:36:51.188Z</time>
      </trkpt>
      <trkpt lat="44.1807" lon="0.60699">
        <ele>59</ele>
        <time>2026-02-22T14:36:52.188Z</time>
      </trkpt>
      <trkpt lat="44.1807" lon="0.607">
        <ele>59</ele>
        <time>2026-02-22T14:36:53.188Z</time>
      </trkpt>
      <trkpt lat="44.1807" lon="0.60701">
        <ele>60</ele>
        <time>2026-02-22T14:36:54.188Z</time>
      </trkpt>
      <trkpt lat="44.1807" lon="0.60702">
        <ele>60</ele>
        <time>2026-02-22T14:36:55.188Z</time>
      </trkpt>
      <trkpt lat="44.18069" lon="0.60703">
        <ele>61</ele>
        <time>2026-02-22T14:36:56.188Z</time>
      </trkpt>
      <trkpt lat="44.18069" lon="0.60704">
        <ele>61</ele>
        <time>2026-02-22T14:36:57.188Z</time>
      </trkpt>
      <trkpt lat="44.18068" lon="0.60705">
        <ele>61</ele>
        <time>2026-02-22T14:36:58.189Z</time>
      </trkpt>
      <trkpt lat="44.18067" lon="0.60707">
        <ele>62</ele>
        <time>2026-02-22T14:36:59.188Z</time>
      </trkpt>
      <trkpt lat="44.18066" lon="0.60708">
        <ele>62</ele>
        <time>2026-02-22T14:37:00.188Z</time>
      </trkpt>
      <trkpt lat="44.18066" lon="0.6071">
        <ele>62</ele>
        <time>2026-02-22T14:37:01.188Z</time>
      </trkpt>
      <trkpt lat="44.18065" lon="0.60711">
        <ele>62</ele>
        <time>2026-02-22T14:37:02.188Z</time>
      </trkpt>
      <trkpt lat="44.18064" lon="0.60712">
        <ele>62</ele>
        <time>2026-02-22T14:37:03.188Z</time>
      </trkpt>
      <trkpt lat="44.18063" lon="0.60713">
        <ele>62</ele>
        <time>2026-02-22T14:37:04.188Z</time>
      </trkpt>
      <trkpt lat="44.18063" lon="0.60715">
        <ele>62</ele>
        <time>2026-02-22T14:37:05.189Z</time>
      </trkpt>
      <trkpt lat="44.18062" lon="0.60716">
        <ele>62</ele>
        <time>2026-02-22T14:37:06.188Z</time>
      </trkpt>
      <trkpt lat="44.18062" lon="0.60718">
        <ele>61</ele>
        <time>2026-02-22T14:37:07.188Z</time>
      </trkpt>
      <trkpt lat="44.18061" lon="0.6072">
        <ele>61</ele>
        <time>2026-02-22T14:37:08.188Z</time>
      </trkpt>
      <trkpt lat="44.18061" lon="0.60722">
        <ele>61</ele>
        <time>2026-02-22T14:37:09.188Z</time>
      </trkpt>
      <trkpt lat="44.1806" lon="0.60724">
        <ele>60</ele>
        <time>2026-02-22T14:37:10.188Z</time>
      </trkpt>
      <trkpt lat="44.1806" lon="0.60725">
        <ele>60</ele>
        <time>2026-02-22T14:37:11.188Z</time>
      </trkpt>
      <trkpt lat="44.18059" lon="0.60727">
        <ele>60</ele>
        <time>2026-02-22T14:37:12.188Z</time>
      </trkpt>
      <trkpt lat="44.18059" lon="0.60729">
        <ele>60</ele>
        <time>2026-02-22T14:37:13.188Z</time>
      </trkpt>
      <trkpt lat="44.18059" lon="0.6073">
        <ele>60</ele>
        <time>2026-02-22T14:37:14.188Z</time>
      </trkpt>
      <trkpt lat="44.18058" lon="0.60732">
        <ele>59</ele>
        <time>2026-02-22T14:37:15.188Z</time>
      </trkpt>
      <trkpt lat="44.18057" lon="0.60733">
        <ele>59</ele>
        <time>2026-02-22T14:37:16.189Z</time>
      </trkpt>
      <trkpt lat="44.18056" lon="0.60735">
        <ele>59</ele>
        <time>2026-02-22T14:37:17.188Z</time>
      </trkpt>
      <trkpt lat="44.18055" lon="0.60736">
        <ele>59</ele>
        <time>2026-02-22T14:37:18.188Z</time>
      </trkpt>
      <trkpt lat="44.18055" lon="0.60738">
        <ele>59</ele>
        <time>2026-02-22T14:37:19.188Z</time>
      </trkpt>
      <trkpt lat="44.18054" lon="0.6074">
        <ele>59</ele>
        <time>2026-02-22T14:37:20.188Z</time>
      </trkpt>
      <trkpt lat="44.18053" lon="0.60741">
        <ele>59</ele>
        <time>2026-02-22T14:37:21.188Z</time>
      </trkpt>
      <trkpt lat="44.18053" lon="0.60742">
        <ele>59</ele>
        <time>2026-02-22T14:37:22.188Z</time>
      </trkpt>
      <trkpt lat="44.18052" lon="0.60744">
        <ele>58</ele>
        <time>2026-02-22T14:37:23.188Z</time>
      </trkpt>
      <trkpt lat="44.18051" lon="0.60746">
        <ele>58</ele>
        <time>2026-02-22T14:37:24.188Z</time>
      </trkpt>
      <trkpt lat="44.18051" lon="0.60747">
        <ele>58</ele>
        <time>2026-02-22T14:37:25.188Z</time>
      </trkpt>
      <trkpt lat="44.18051" lon="0.60749">
        <ele>58</ele>
        <time>2026-02-22T14:37:26.188Z</time>
      </trkpt>
      <trkpt lat="44.18051" lon="0.6075">
        <ele>58</ele>
        <time>2026-02-22T14:37:27.188Z</time>
      </trkpt>
      <trkpt lat="44.18052" lon="0.60751">
        <ele>59</ele>
        <time>2026-02-22T14:37:28.188Z</time>
      </trkpt>
      <trkpt lat="44.18052" lon="0.60751">
        <ele>59</ele>
        <time>2026-02-22T14:37:29.188Z</time>
      </trkpt>
      <trkpt lat="44.18053" lon="0.60751">
        <ele>59</ele>
        <time>2026-02-22T14:37:30.188Z</time>
      </trkpt>
      <trkpt lat="44.18054" lon="0.60752">
        <ele>59</ele>
        <time>2026-02-22T14:37:31.188Z</time>
      </trkpt>
      <trkpt lat="44.18055" lon="0.60752">
        <ele>59</ele>
        <time>2026-02-22T14:37:32.188Z</time>
      </trkpt>
      <trkpt lat="44.18056" lon="0.60751">
        <ele>59</ele>
        <time>2026-02-22T14:37:33.188Z</time>
      </trkpt>
      <trkpt lat="44.18057" lon="0.60751">
        <ele>59</ele>
        <time>2026-02-22T14:37:34.188Z</time>
      </trkpt>
      <trkpt lat="44.18058" lon="0.60751">
        <ele>60</ele>
        <time>2026-02-22T14:37:35.188Z</time>
      </trkpt>
      <trkpt lat="44.18059" lon="0.60751">
        <ele>60</ele>
        <time>2026-02-22T14:37:36.188Z</time>
      </trkpt>
      <trkpt lat="44.18061" lon="0.60751">
        <ele>60</ele>
        <time>2026-02-22T14:37:37.188Z</time>
      </trkpt>
      <trkpt lat="44.18061" lon="0.60751">
        <ele>60</ele>
        <time>2026-02-22T14:37:38.188Z</time>
      </trkpt>
      <trkpt lat="44.18063" lon="0.6075">
        <ele>60</ele>
        <time>2026-02-22T14:37:39.188Z</time>
      </trkpt>
      <trkpt lat="44.18064" lon="0.6075">
        <ele>60</ele>
        <time>2026-02-22T14:37:40.188Z</time>
      </trkpt>
      <trkpt lat="44.18065" lon="0.6075">
        <ele>61</ele>
        <time>2026-02-22T14:37:41.188Z</time>
      </trkpt>
      <trkpt lat="44.18066" lon="0.6075">
        <ele>61</ele>
        <time>2026-02-22T14:37:42.188Z</time>
      </trkpt>
      <trkpt lat="44.18067" lon="0.6075">
        <ele>61</ele>
        <time>2026-02-22T14:37:43.188Z</time>
      </trkpt>
      <trkpt lat="44.18068" lon="0.60749">
        <ele>62</ele>
        <time>2026-02-22T14:37:44.189Z</time>
      </trkpt>
      <trkpt lat="44.1807" lon="0.60749">
        <ele>61</ele>
        <time>2026-02-22T14:37:45.188Z</time>
      </trkpt>
      <trkpt lat="44.18071" lon="0.60749">
        <ele>61</ele>
        <time>2026-02-22T14:37:46.188Z</time>
      </trkpt>
      <trkpt lat="44.18072" lon="0.60748">
        <ele>61</ele>
        <time>2026-02-22T14:37:47.188Z</time>
      </trkpt>
      <trkpt lat="44.18073" lon="0.60748">
        <ele>61</ele>
        <time>2026-02-22T14:37:48.188Z</time>
      </trkpt>
      <trkpt lat="44.18074" lon="0.60748">
        <ele>61</ele>
        <time>2026-02-22T14:37:49.188Z</time>
      </trkpt>
      <trkpt lat="44.18076" lon="0.60748">
        <ele>61</ele>
        <time>2026-02-22T14:37:50.188Z</time>
      </trkpt>
      <trkpt lat="44.18077" lon="0.60748">
        <ele>61</ele>
        <time>2026-02-22T14:37:51.188Z</time>
      </trkpt>
      <trkpt lat="44.18078" lon="0.60748">
        <ele>62</ele>
        <time>2026-02-22T14:37:52.188Z</time>
      </trkpt>
      <trkpt lat="44.18079" lon="0.60748">
        <ele>62</ele>
        <time>2026-02-22T14:37:53.188Z</time>
      </trkpt>
      <trkpt lat="44.1808" lon="0.60748">
        <ele>62</ele>
        <time>2026-02-22T14:37:54.188Z</time>
      </trkpt>
      <trkpt lat="44.18082" lon="0.60748">
        <ele>62</ele>
        <time>2026-02-22T14:37:55.188Z</time>
      </trkpt>
      <trkpt lat="44.18083" lon="0.60747">
        <ele>62</ele>
        <time>2026-02-22T14:37:56.188Z</time>
      </trkpt>
      <trkpt lat="44.18084" lon="0.60747">
        <ele>62</ele>
        <time>2026-02-22T14:37:57.189Z</time>
      </trkpt>
      <trkpt lat="44.18085" lon="0.60747">
        <ele>62</ele>
        <time>2026-02-22T14:37:58.188Z</time>
      </trkpt>
      <trkpt lat="44.18086" lon="0.60747">
        <ele>61</ele>
        <time>2026-02-22T14:37:59.188Z</time>
      </trkpt>
      <trkpt lat="44.18088" lon="0.60746">
        <ele>61</ele>
        <time>2026-02-22T14:38:00.188Z</time>
      </trkpt>
      <trkpt lat="44.18089" lon="0.60746">
        <ele>61</ele>
        <time>2026-02-22T14:38:01.188Z</time>
      </trkpt>
      <trkpt lat="44.1809" lon="0.60746">
        <ele>61</ele>
        <time>2026-02-22T14:38:02.188Z</time>
      </trkpt>
      <trkpt lat="44.18091" lon="0.60745">
        <ele>61</ele>
        <time>2026-02-22T14:38:03.188Z</time>
      </trkpt>
      <trkpt lat="44.18092" lon="0.60745">
        <ele>61</ele>
        <time>2026-02-22T14:38:04.188Z</time>
      </trkpt>
      <trkpt lat="44.18093" lon="0.60745">
        <ele>61</ele>
        <time>2026-02-22T14:38:05.188Z</time>
      </trkpt>
      <trkpt lat="44.18094" lon="0.60744">
        <ele>61</ele>
        <time>2026-02-22T14:38:06.188Z</time>
      </trkpt>
      <trkpt lat="44.18095" lon="0.60744">
        <ele>61</ele>
        <time>2026-02-22T14:38:07.188Z</time>
      </trkpt>
      <trkpt lat="44.18096" lon="0.60744">
        <ele>61</ele>
        <time>2026-02-22T14:38:08.189Z</time>
      </trkpt>
      <trkpt lat="44.18097" lon="0.60744">
        <ele>61</ele>
        <time>2026-02-22T14:38:09.188Z</time>
      </trkpt>
      <trkpt lat="44.18098" lon="0.60744">
        <ele>61</ele>
        <time>2026-02-22T14:38:10.188Z</time>
      </trkpt>
      <trkpt lat="44.18099" lon="0.60744">
        <ele>61</ele>
        <time>2026-02-22T14:38:11.188Z</time>
      </trkpt>
      <trkpt lat="44.181" lon="0.60745">
        <ele>61</ele>
        <time>2026-02-22T14:38:12.189Z</time>
      </trkpt>
      <trkpt lat="44.18101" lon="0.60745">
        <ele>62</ele>
        <time>2026-02-22T14:38:13.188Z</time>
      </trkpt>
      <trkpt lat="44.18102" lon="0.60745">
        <ele>62</ele>
        <time>2026-02-22T14:38:14.188Z</time>
      </trkpt>
      <trkpt lat="44.18103" lon="0.60746">
        <ele>62</ele>
        <time>2026-02-22T14:38:15.188Z</time>
      </trkpt>
      <trkpt lat="44.18104" lon="0.60746">
        <ele>62</ele>
        <time>2026-02-22T14:38:16.188Z</time>
      </trkpt>
      <trkpt lat="44.18105" lon="0.60746">
        <ele>63</ele>
        <time>2026-02-22T14:38:17.188Z</time>
      </trkpt>
      <trkpt lat="44.18106" lon="0.60745">
        <ele>63</ele>
        <time>2026-02-22T14:38:18.188Z</time>
      </trkpt>
      <trkpt lat="44.18107" lon="0.60746">
        <ele>63</ele>
        <time>2026-02-22T14:38:19.188Z</time>
      </trkpt>
      <trkpt lat="44.18108" lon="0.60746">
        <ele>63</ele>
        <time>2026-02-22T14:38:20.188Z</time>
      </trkpt>
      <trkpt lat="44.18109" lon="0.60746">
        <ele>63</ele>
        <time>2026-02-22T14:38:21.188Z</time>
      </trkpt>
      <trkpt lat="44.1811" lon="0.60747">
        <ele>63</ele>
        <time>2026-02-22T14:38:22.188Z</time>
      </trkpt>
      <trkpt lat="44.18111" lon="0.60747">
        <ele>63</ele>
        <time>2026-02-22T14:38:23.188Z</time>
      </trkpt>
      <trkpt lat="44.18111" lon="0.60747">
        <ele>63</ele>
        <time>2026-02-22T14:38:24.188Z</time>
      </trkpt>
      <trkpt lat="44.18112" lon="0.60747">
        <ele>63</ele>
        <time>2026-02-22T14:38:25.188Z</time>
      </trkpt>
      <trkpt lat="44.18112" lon="0.60747">
        <ele>63</ele>
        <time>2026-02-22T14:38:26.188Z</time>
      </trkpt>
      <trkpt lat="44.18113" lon="0.60747">
        <ele>63</ele>
        <time>2026-02-22T14:38:27.188Z</time>
      </trkpt>
      <trkpt lat="44.18114" lon="0.60747">
        <ele>63</ele>
        <time>2026-02-22T14:38:28.188Z</time>
      </trkpt>
      <trkpt lat="44.18114" lon="0.60747">
        <ele>63</ele>
        <time>2026-02-22T14:38:29.188Z</time>
      </trkpt>
      <trkpt lat="44.18114" lon="0.60747">
        <ele>64</ele>
        <time>2026-02-22T14:38:30.188Z</time>
      </trkpt>
      <trkpt lat="44.18115" lon="0.60747">
        <ele>64</ele>
        <time>2026-02-22T14:38:31.188Z</time>
      </trkpt>
      <trkpt lat="44.18115" lon="0.60747">
        <ele>65</ele>
        <time>2026-02-22T14:38:32.188Z</time>
      </trkpt>
      <trkpt lat="44.18115" lon="0.60747">
        <ele>65</ele>
        <time>2026-02-22T14:38:33.188Z</time>
      </trkpt>
      <trkpt lat="44.18116" lon="0.60747">
        <ele>65</ele>
        <time>2026-02-22T14:38:34.188Z</time>
      </trkpt>
      <trkpt lat="44.18116" lon="0.60747">
        <ele>65</ele>
        <time>2026-02-22T14:38:35.188Z</time>
      </trkpt>
      <trkpt lat="44.18116" lon="0.60747">
        <ele>65</ele>
        <time>2026-02-22T14:38:36.188Z</time>
      </trkpt>
      <trkpt lat="44.18117" lon="0.60747">
        <ele>65</ele>
        <time>2026-02-22T14:38:37.188Z</time>
      </trkpt>
      <trkpt lat="44.18117" lon="0.60747">
        <ele>65</ele>
        <time>2026-02-22T14:38:38.188Z</time>
      </trkpt>
      <trkpt lat="44.18118" lon="0.60747">
        <ele>65</ele>
        <time>2026-02-22T14:38:39.188Z</time>
      </trkpt>
      <trkpt lat="44.18118" lon="0.60747">
        <ele>65</ele>
        <time>2026-02-22T14:38:40.189Z</time>
      </trkpt>
      <trkpt lat="44.18118" lon="0.60747">
        <ele>64</ele>
        <time>2026-02-22T14:38:41.188Z</time>
      </trkpt>
      <trkpt lat="44.18119" lon="0.60748">
        <ele>64</ele>
        <time>2026-02-22T14:38:42.188Z</time>
      </trkpt>
      <trkpt lat="44.18119" lon="0.60748">
        <ele>64</ele>
        <time>2026-02-22T14:38:43.188Z</time>
      </trkpt>
      <trkpt lat="44.18119" lon="0.60748">
        <ele>64</ele>
        <time>2026-02-22T14:38:44.188Z</time>
      </trkpt>
      <trkpt lat="44.18119" lon="0.60748">
        <ele>64</ele>
        <time>2026-02-22T14:38:45.188Z</time>
      </trkpt>
      <trkpt lat="44.18119" lon="0.60748">
        <ele>64</ele>
        <time>2026-02-22T14:38:46.189Z</time>
      </trkpt>
      <trkpt lat="44.18119" lon="0.60748">
        <ele>63</ele>
        <time>2026-02-22T14:38:47.188Z</time>
      </trkpt>
      <trkpt lat="44.18119" lon="0.60748">
        <ele>63</ele>
        <time>2026-02-22T14:38:48.188Z</time>
      </trkpt>
      <trkpt lat="44.18119" lon="0.60748">
        <ele>63</ele>
        <time>2026-02-22T14:38:49.188Z</time>
      </trkpt>
      <trkpt lat="44.18119" lon="0.60748">
        <ele>63</ele>
        <time>2026-02-22T14:38:50.188Z</time>
      </trkpt>
      <trkpt lat="44.18119" lon="0.60748">
        <ele>62</ele>
        <time>2026-02-22T14:38:51.188Z</time>
      </trkpt>
      <trkpt lat="44.18119" lon="0.60748">
        <ele>63</ele>
        <time>2026-02-22T14:38:52.188Z</time>
      </trkpt>
      <trkpt lat="44.18119" lon="0.60748">
        <ele>63</ele>
        <time>2026-02-22T14:38:53.188Z</time>
      </trkpt>
      <trkpt lat="44.18119" lon="0.60748">
        <ele>63</ele>
        <time>2026-02-22T14:38:54.188Z</time>
      </trkpt>
      <trkpt lat="44.18119" lon="0.60748">
        <ele>63</ele>
        <time>2026-02-22T14:38:55.189Z</time>
      </trkpt>
      <trkpt lat="44.18119" lon="0.60748">
        <ele>64</ele>
        <time>2026-02-22T14:38:56.188Z</time>
      </trkpt>
      <trkpt lat="44.18119" lon="0.60748">
        <ele>64</ele>
        <time>2026-02-22T14:38:57.188Z</time>
      </trkpt>
      <trkpt lat="44.18119" lon="0.60748">
        <ele>64</ele>
        <time>2026-02-22T14:38:58.188Z</time>
      </trkpt>
      <trkpt lat="44.18119" lon="0.60748">
        <ele>65</ele>
        <time>2026-02-22T14:38:59.188Z</time>
      </trkpt>
      <trkpt lat="44.18119" lon="0.60748">
        <ele>66</ele>
        <time>2026-02-22T14:39:00.188Z</time>
      </trkpt>
      <trkpt lat="44.18119" lon="0.60748">
        <ele>66</ele>
        <time>2026-02-22T14:39:01.188Z</time>
      </trkpt>
      <trkpt lat="44.18119" lon="0.60748">
        <ele>66</ele>
        <time>2026-02-22T14:39:02.188Z</time>
      </trkpt>
      <trkpt lat="44.18119" lon="0.60748">
        <ele>67</ele>
        <time>2026-02-22T14:39:03.188Z</time>
      </trkpt>
      <trkpt lat="44.18118" lon="0.60748">
        <ele>67</ele>
        <time>2026-02-22T14:39:04.188Z</time>
      </trkpt>
      <trkpt lat="44.18118" lon="0.60748">
        <ele>67</ele>
        <time>2026-02-22T14:39:05.188Z</time>
      </trkpt>
      <trkpt lat="44.18119" lon="0.60748">
        <ele>67</ele>
        <time>2026-02-22T14:39:06.188Z</time>
      </trkpt>
      <trkpt lat="44.18119" lon="0.60748">
        <ele>68</ele>
        <time>2026-02-22T14:39:07.188Z</time>
      </trkpt>
      <trkpt lat="44.18119" lon="0.60748">
        <ele>68</ele>
        <time>2026-02-22T14:39:08.189Z</time>
      </trkpt>
      <trkpt lat="44.18119" lon="0.60748">
        <ele>68</ele>
        <time>2026-02-22T14:39:09.188Z</time>
      </trkpt>
      <trkpt lat="44.18119" lon="0.60748">
        <ele>69</ele>
        <time>2026-02-22T14:39:10.189Z</time>
      </trkpt>
      <trkpt lat="44.18119" lon="0.60748">
        <ele>69</ele>
        <time>2026-02-22T14:39:11.188Z</time>
      </trkpt>
      <trkpt lat="44.18119" lon="0.60748">
        <ele>69</ele>
        <time>2026-02-22T14:39:12.188Z</time>
      </trkpt>
      <trkpt lat="44.18119" lon="0.60748">
        <ele>69</ele>
        <time>2026-02-22T14:39:13.188Z</time>
      </trkpt>
      <trkpt lat="44.18119" lon="0.60748">
        <ele>69</ele>
        <time>2026-02-22T14:39:14.188Z</time>
      </trkpt>
      <trkpt lat="44.18119" lon="0.60748">
        <ele>69</ele>
        <time>2026-02-22T14:39:15.188Z</time>
      </trkpt>
      <trkpt lat="44.18119" lon="0.60748">
        <ele>69</ele>
        <time>2026-02-22T14:39:16.188Z</time>
      </trkpt>
      <trkpt lat="44.18118" lon="0.60748">
        <ele>70</ele>
        <time>2026-02-22T14:39:17.188Z</time>
      </trkpt>
      <trkpt lat="44.18118" lon="0.60748">
        <ele>70</ele>
        <time>2026-02-22T14:39:18.188Z</time>
      </trkpt>
      <trkpt lat="44.18118" lon="0.60749">
        <ele>70</ele>
        <time>2026-02-22T14:39:19.188Z</time>
      </trkpt>
      <trkpt lat="44.18117" lon="0.60749">
        <ele>70</ele>
        <time>2026-02-22T14:39:20.189Z</time>
      </trkpt>
      <trkpt lat="44.18116" lon="0.60749">
        <ele>69</ele>
        <time>2026-02-22T14:39:21.189Z</time>
      </trkpt>
      <trkpt lat="44.18116" lon="0.60749">
        <ele>69</ele>
        <time>2026-02-22T14:39:22.188Z</time>
      </trkpt>
      <trkpt lat="44.18115" lon="0.60749">
        <ele>68</ele>
        <time>2026-02-22T14:39:23.188Z</time>
      </trkpt>
      <trkpt lat="44.18115" lon="0.60749">
        <ele>68</ele>
        <time>2026-02-22T14:39:24.188Z</time>
      </trkpt>
      <trkpt lat="44.18115" lon="0.60749">
        <ele>68</ele>
        <time>2026-02-22T14:39:25.188Z</time>
      </trkpt>
      <trkpt lat="44.18115" lon="0.60749">
        <ele>67</ele>
        <time>2026-02-22T14:39:26.188Z</time>
      </trkpt>
      <trkpt lat="44.18115" lon="0.60749">
        <ele>67</ele>
        <time>2026-02-22T14:39:27.188Z</time>
      </trkpt>
      <trkpt lat="44.18115" lon="0.60749">
        <ele>68</ele>
        <time>2026-02-22T14:39:28.188Z</time>
      </trkpt>
      <trkpt lat="44.18115" lon="0.60749">
        <ele>68</ele>
        <time>2026-02-22T14:39:29.188Z</time>
      </trkpt>
      <trkpt lat="44.18115" lon="0.60749">
        <ele>68</ele>
        <time>2026-02-22T14:39:30.188Z</time>
      </trkpt>
      <trkpt lat="44.18115" lon="0.60749">
        <ele>67</ele>
        <time>2026-02-22T14:39:31.188Z</time>
      </trkpt>
      <trkpt lat="44.18115" lon="0.60749">
        <ele>67</ele>
        <time>2026-02-22T14:39:32.188Z</time>
      </trkpt>
      <trkpt lat="44.18115" lon="0.60749">
        <ele>66</ele>
        <time>2026-02-22T14:39:33.188Z</time>
      </trkpt>
      <trkpt lat="44.18115" lon="0.60749">
        <ele>66</ele>
        <time>2026-02-22T14:39:34.188Z</time>
      </trkpt>
      <trkpt lat="44.18115" lon="0.60749">
        <ele>66</ele>
        <time>2026-02-22T14:39:35.188Z</time>
      </trkpt>
      <trkpt lat="44.18115" lon="0.60749">
        <ele>66</ele>
        <time>2026-02-22T14:39:36.188Z</time>
      </trkpt>
      <trkpt lat="44.18115" lon="0.60749">
        <ele>66</ele>
        <time>2026-02-22T14:39:37.188Z</time>
      </trkpt>
      <trkpt lat="44.18115" lon="0.60749">
        <ele>65</ele>
        <time>2026-02-22T14:39:38.189Z</time>
      </trkpt>
      <trkpt lat="44.18115" lon="0.60749">
        <ele>65</ele>
        <time>2026-02-22T14:39:39.188Z</time>
      </trkpt>
      <trkpt lat="44.18115" lon="0.60749">
        <ele>64</ele>
        <time>2026-02-22T14:39:40.188Z</time>
      </trkpt>
      <trkpt lat="44.18115" lon="0.60749">
        <ele>64</ele>
        <time>2026-02-22T14:39:41.188Z</time>
      </trkpt>
      <trkpt lat="44.18115" lon="0.6075">
        <ele>63</ele>
        <time>2026-02-22T14:39:42.188Z</time>
      </trkpt>
      <trkpt lat="44.18115" lon="0.6075">
        <ele>63</ele>
        <time>2026-02-22T14:39:43.188Z</time>
      </trkpt>
      <trkpt lat="44.18115" lon="0.6075">
        <ele>63</ele>
        <time>2026-02-22T14:39:44.188Z</time>
      </trkpt>
      <trkpt lat="44.18115" lon="0.6075">
        <ele>63</ele>
        <time>2026-02-22T14:39:45.188Z</time>
      </trkpt>
      <trkpt lat="44.18115" lon="0.6075">
        <ele>63</ele>
        <time>2026-02-22T14:39:46.188Z</time>
      </trkpt>
      <trkpt lat="44.18115" lon="0.6075">
        <ele>63</ele>
        <time>2026-02-22T14:39:47.188Z</time>
      </trkpt>
      <trkpt lat="44.18115" lon="0.6075">
        <ele>63</ele>
        <time>2026-02-22T14:39:48.188Z</time>
      </trkpt>
      <trkpt lat="44.18115" lon="0.6075">
        <ele>63</ele>
        <time>2026-02-22T14:39:49.188Z</time>
      </trkpt>
      <trkpt lat="44.18116" lon="0.6075">
        <ele>63</ele>
        <time>2026-02-22T14:39:50.188Z</time>
      </trkpt>
      <trkpt lat="44.18116" lon="0.6075">
        <ele>63</ele>
        <time>2026-02-22T14:39:51.188Z</time>
      </trkpt>
      <trkpt lat="44.18116" lon="0.6075">
        <ele>63</ele>
        <time>2026-02-22T14:39:52.188Z</time>
      </trkpt>
      <trkpt lat="44.18116" lon="0.6075">
        <ele>63</ele>
        <time>2026-02-22T14:39:53.188Z</time>
      </trkpt>
      <trkpt lat="44.18116" lon="0.6075">
        <ele>63</ele>
        <time>2026-02-22T14:39:54.188Z</time>
      </trkpt>
      <trkpt lat="44.18116" lon="0.6075">
        <ele>62</ele>
        <time>2026-02-22T14:39:55.188Z</time>
      </trkpt>
      <trkpt lat="44.18117" lon="0.60751">
        <ele>62</ele>
        <time>2026-02-22T14:39:56.188Z</time>
      </trkpt>
      <trkpt lat="44.18117" lon="0.60751">
        <ele>61</ele>
        <time>2026-02-22T14:39:57.189Z</time>
      </trkpt>
      <trkpt lat="44.18117" lon="0.60751">
        <ele>61</ele>
        <time>2026-02-22T14:39:58.188Z</time>
      </trkpt>
      <trkpt lat="44.18117" lon="0.60751">
        <ele>61</ele>
        <time>2026-02-22T14:39:59.188Z</time>
      </trkpt>
      <trkpt lat="44.18117" lon="0.60751">
        <ele>60</ele>
        <time>2026-02-22T14:40:00.188Z</time>
      </trkpt>
      <trkpt lat="44.18117" lon="0.60751">
        <ele>60</ele>
        <time>2026-02-22T14:40:01.188Z</time>
      </trkpt>
      <trkpt lat="44.18117" lon="0.60751">
        <ele>60</ele>
        <time>2026-02-22T14:40:02.188Z</time>
      </trkpt>
      <trkpt lat="44.18117" lon="0.60751">
        <ele>60</ele>
        <time>2026-02-22T14:40:03.188Z</time>
      </trkpt>
      <trkpt lat="44.18117" lon="0.60751">
        <ele>60</ele>
        <time>2026-02-22T14:40:04.188Z</time>
      </trkpt>
      <trkpt lat="44.18117" lon="0.60751">
        <ele>61</ele>
        <time>2026-02-22T14:40:05.188Z</time>
      </trkpt>
      <trkpt lat="44.18117" lon="0.60751">
        <ele>61</ele>
        <time>2026-02-22T14:40:06.188Z</time>
      </trkpt>
      <trkpt lat="44.18117" lon="0.60751">
        <ele>61</ele>
        <time>2026-02-22T14:40:07.188Z</time>
      </trkpt>
      <trkpt lat="44.18117" lon="0.60751">
        <ele>61</ele>
        <time>2026-02-22T14:40:08.189Z</time>
      </trkpt>
      <trkpt lat="44.18117" lon="0.60751">
        <ele>61</ele>
        <time>2026-02-22T14:40:09.188Z</time>
      </trkpt>
      <trkpt lat="44.18117" lon="0.60751">
        <ele>61</ele>
        <time>2026-02-22T14:40:10.188Z</time>
      </trkpt>
      <trkpt lat="44.18117" lon="0.60751">
        <ele>61</ele>
        <time>2026-02-22T14:40:11.189Z</time>
      </trkpt>
      <trkpt lat="44.18117" lon="0.60751">
        <ele>62</ele>
        <time>2026-02-22T14:40:12.188Z</time>
      </trkpt>
      <trkpt lat="44.18117" lon="0.60751">
        <ele>62</ele>
        <time>2026-02-22T14:40:13.188Z</time>
      </trkpt>
      <trkpt lat="44.18117" lon="0.60751">
        <ele>63</ele>
        <time>2026-02-22T14:40:14.188Z</time>
      </trkpt>
      <trkpt lat="44.18117" lon="0.60751">
        <ele>63</ele>
        <time>2026-02-22T14:40:15.188Z</time>
      </trkpt>
      <trkpt lat="44.18117" lon="0.60751">
        <ele>64</ele>
        <time>2026-02-22T14:40:16.188Z</time>
      </trkpt>
      <trkpt lat="44.18117" lon="0.60751">
        <ele>64</ele>
        <time>2026-02-22T14:40:17.189Z</time>
      </trkpt>
      <trkpt lat="44.18117" lon="0.60751">
        <ele>65</ele>
        <time>2026-02-22T14:40:18.188Z</time>
      </trkpt>
      <trkpt lat="44.18117" lon="0.60751">
        <ele>65</ele>
        <time>2026-02-22T14:40:19.188Z</time>
      </trkpt>
      <trkpt lat="44.18117" lon="0.60751">
        <ele>65</ele>
        <time>2026-02-22T14:40:20.188Z</time>
      </trkpt>
      <trkpt lat="44.18117" lon="0.60752">
        <ele>65</ele>
        <time>2026-02-22T14:40:21.188Z</time>
      </trkpt>
      <trkpt lat="44.18117" lon="0.60752">
        <ele>65</ele>
        <time>2026-02-22T14:40:22.188Z</time>
      </trkpt>
      <trkpt lat="44.18117" lon="0.60752">
        <ele>66</ele>
        <time>2026-02-22T14:40:23.189Z</time>
      </trkpt>
      <trkpt lat="44.18117" lon="0.60752">
        <ele>66</ele>
        <time>2026-02-22T14:40:24.188Z</time>
      </trkpt>
      <trkpt lat="44.18117" lon="0.60752">
        <ele>66</ele>
        <time>2026-02-22T14:40:25.188Z</time>
      </trkpt>
      <trkpt lat="44.18117" lon="0.60752">
        <ele>67</ele>
        <time>2026-02-22T14:40:26.188Z</time>
      </trkpt>
      <trkpt lat="44.18117" lon="0.60752">
        <ele>67</ele>
        <time>2026-02-22T14:40:27.188Z</time>
      </trkpt>
      <trkpt lat="44.18117" lon="0.60751">
        <ele>67</ele>
        <time>2026-02-22T14:40:28.188Z</time>
      </trkpt>
      <trkpt lat="44.18117" lon="0.60751">
        <ele>68</ele>
        <time>2026-02-22T14:40:29.188Z</time>
      </trkpt>
      <trkpt lat="44.18117" lon="0.60751">
        <ele>68</ele>
        <time>2026-02-22T14:40:30.188Z</time>
      </trkpt>
      <trkpt lat="44.18117" lon="0.60751">
        <ele>68</ele>
        <time>2026-02-22T14:40:31.188Z</time>
      </trkpt>
      <trkpt lat="44.18117" lon="0.60751">
        <ele>67</ele>
        <time>2026-02-22T14:40:32.189Z</time>
      </trkpt>
      <trkpt lat="44.18117" lon="0.60751">
        <ele>67</ele>
        <time>2026-02-22T14:40:33.188Z</time>
      </trkpt>
      <trkpt lat="44.18117" lon="0.60751">
        <ele>67</ele>
        <time>2026-02-22T14:40:34.189Z</time>
      </trkpt>
      <trkpt lat="44.18117" lon="0.60751">
        <ele>67</ele>
        <time>2026-02-22T14:40:35.188Z</time>
      </trkpt>
      <trkpt lat="44.18117" lon="0.60751">
        <ele>67</ele>
        <time>2026-02-22T14:40:36.189Z</time>
      </trkpt>
      <trkpt lat="44.18117" lon="0.60752">
        <ele>67</ele>
        <time>2026-02-22T14:40:37.188Z</time>
      </trkpt>
      <trkpt lat="44.18117" lon="0.60752">
        <ele>67</ele>
        <time>2026-02-22T14:40:38.188Z</time>
      </trkpt>
      <trkpt lat="44.18117" lon="0.60752">
        <ele>67</ele>
        <time>2026-02-22T14:40:39.188Z</time>
      </trkpt>
      <trkpt lat="44.18117" lon="0.60752">
        <ele>67</ele>
        <time>2026-02-22T14:40:40.188Z</time>
      </trkpt>
      <trkpt lat="44.18117" lon="0.60752">
        <ele>67</ele>
        <time>2026-02-22T14:40:41.188Z</time>
      </trkpt>
      <trkpt lat="44.18117" lon="0.60752">
        <ele>66</ele>
        <time>2026-02-22T14:40:42.188Z</time>
      </trkpt>
      <trkpt lat="44.18117" lon="0.60752">
        <ele>66</ele>
        <time>2026-02-22T14:40:43.188Z</time>
      </trkpt>
      <trkpt lat="44.18117" lon="0.60752">
        <ele>66</ele>
        <time>2026-02-22T14:40:44.188Z</time>
      </trkpt>
      <trkpt lat="44.18116" lon="0.60752">
        <ele>66</ele>
        <time>2026-02-22T14:40:45.188Z</time>
      </trkpt>
      <trkpt lat="44.18116" lon="0.60752">
        <ele>66</ele>
        <time>2026-02-22T14:40:46.188Z</time>
      </trkpt>
      <trkpt lat="44.18116" lon="0.60752">
        <ele>65</ele>
        <time>2026-02-22T14:40:47.188Z</time>
      </trkpt>
      <trkpt lat="44.18116" lon="0.60752">
        <ele>65</ele>
        <time>2026-02-22T14:40:48.188Z</time>
      </trkpt>
      <trkpt lat="44.18115" lon="0.60752">
        <ele>65</ele>
        <time>2026-02-22T14:40:49.188Z</time>
      </trkpt>
      <trkpt lat="44.18115" lon="0.60752">
        <ele>64</ele>
        <time>2026-02-22T14:40:50.188Z</time>
      </trkpt>
      <trkpt lat="44.18115" lon="0.60752">
        <ele>64</ele>
        <time>2026-02-22T14:40:51.188Z</time>
      </trkpt>
      <trkpt lat="44.18115" lon="0.60752">
        <ele>64</ele>
        <time>2026-02-22T14:40:52.188Z</time>
      </trkpt>
      <trkpt lat="44.18115" lon="0.60752">
        <ele>64</ele>
        <time>2026-02-22T14:40:53.188Z</time>
      </trkpt>
      <trkpt lat="44.18115" lon="0.60752">
        <ele>64</ele>
        <time>2026-02-22T14:40:54.188Z</time>
      </trkpt>
      <trkpt lat="44.18115" lon="0.60752">
        <ele>64</ele>
        <time>2026-02-22T14:40:55.188Z</time>
      </trkpt>
      <trkpt lat="44.18115" lon="0.60752">
        <ele>64</ele>
        <time>2026-02-22T14:40:56.188Z</time>
      </trkpt>
      <trkpt lat="44.18115" lon="0.60752">
        <ele>64</ele>
        <time>2026-02-22T14:40:57.188Z</time>
      </trkpt>
      <trkpt lat="44.18115" lon="0.60752">
        <ele>63</ele>
        <time>2026-02-22T14:40:58.188Z</time>
      </trkpt>
      <trkpt lat="44.18115" lon="0.60752">
        <ele>63</ele>
        <time>2026-02-22T14:40:59.188Z</time>
      </trkpt>
      <trkpt lat="44.18115" lon="0.60752">
        <ele>63</ele>
        <time>2026-02-22T14:41:00.189Z</time>
      </trkpt>
      <trkpt lat="44.18115" lon="0.60752">
        <ele>63</ele>
        <time>2026-02-22T14:41:01.188Z</time>
      </trkpt>
      <trkpt lat="44.18115" lon="0.60752">
        <ele>63</ele>
        <time>2026-02-22T14:41:02.188Z</time>
      </trkpt>
      <trkpt lat="44.18115" lon="0.60752">
        <ele>63</ele>
        <time>2026-02-22T14:41:03.188Z</time>
      </trkpt>
      <trkpt lat="44.18115" lon="0.60752">
        <ele>63</ele>
        <time>2026-02-22T14:41:04.188Z</time>
      </trkpt>
      <trkpt lat="44.18115" lon="0.60752">
        <ele>63</ele>
        <time>2026-02-22T14:41:05.188Z</time>
      </trkpt>
      <trkpt lat="44.18115" lon="0.60752">
        <ele>63</ele>
        <time>2026-02-22T14:41:06.188Z</time>
      </trkpt>
      <trkpt lat="44.18115" lon="0.60752">
        <ele>63</ele>
        <time>2026-02-22T14:41:07.188Z</time>
      </trkpt>
      <trkpt lat="44.18115" lon="0.60752">
        <ele>63</ele>
        <time>2026-02-22T14:41:08.188Z</time>
      </trkpt>
      <trkpt lat="44.18116" lon="0.60752">
        <ele>62</ele>
        <time>2026-02-22T14:41:09.188Z</time>
      </trkpt>
      <trkpt lat="44.18117" lon="0.60751">
        <ele>62</ele>
        <time>2026-02-22T14:41:10.188Z</time>
      </trkpt>
      <trkpt lat="44.18117" lon="0.60751">
        <ele>61</ele>
        <time>2026-02-22T14:41:11.188Z</time>
      </trkpt>
      <trkpt lat="44.18118" lon="0.60751">
        <ele>61</ele>
        <time>2026-02-22T14:41:12.188Z</time>
      </trkpt>
      <trkpt lat="44.18119" lon="0.60751">
        <ele>61</ele>
        <time>2026-02-22T14:41:13.188Z</time>
      </trkpt>
      <trkpt lat="44.1812" lon="0.60751">
        <ele>60</ele>
        <time>2026-02-22T14:41:14.188Z</time>
      </trkpt>
      <trkpt lat="44.1812" lon="0.6075">
        <ele>60</ele>
        <time>2026-02-22T14:41:15.189Z</time>
      </trkpt>
      <trkpt lat="44.18121" lon="0.6075">
        <ele>60</ele>
        <time>2026-02-22T14:41:16.188Z</time>
      </trkpt>
      <trkpt lat="44.18122" lon="0.60749">
        <ele>60</ele>
        <time>2026-02-22T14:41:17.188Z</time>
      </trkpt>
      <trkpt lat="44.18123" lon="0.60749">
        <ele>60</ele>
        <time>2026-02-22T14:41:18.188Z</time>
      </trkpt>
      <trkpt lat="44.18123" lon="0.60749">
        <ele>60</ele>
        <time>2026-02-22T14:41:19.188Z</time>
      </trkpt>
      <trkpt lat="44.18122" lon="0.60749">
        <ele>61</ele>
        <time>2026-02-22T14:41:20.188Z</time>
      </trkpt>
      <trkpt lat="44.18122" lon="0.60748">
        <ele>61</ele>
        <time>2026-02-22T14:41:21.188Z</time>
      </trkpt>
      <trkpt lat="44.18121" lon="0.60747">
        <ele>61</ele>
        <time>2026-02-22T14:41:22.188Z</time>
      </trkpt>
      <trkpt lat="44.18121" lon="0.60747">
        <ele>61</ele>
        <time>2026-02-22T14:41:23.188Z</time>
      </trkpt>
      <trkpt lat="44.18121" lon="0.60747">
        <ele>61</ele>
        <time>2026-02-22T14:41:24.188Z</time>
      </trkpt>
      <trkpt lat="44.18121" lon="0.60747">
        <ele>61</ele>
        <time>2026-02-22T14:41:25.188Z</time>
      </trkpt>
      <trkpt lat="44.18121" lon="0.60747">
        <ele>61</ele>
        <time>2026-02-22T14:41:26.188Z</time>
      </trkpt>
      <trkpt lat="44.18121" lon="0.60747">
        <ele>60</ele>
        <time>2026-02-22T14:41:27.188Z</time>
      </trkpt>
      <trkpt lat="44.18121" lon="0.60747">
        <ele>60</ele>
        <time>2026-02-22T14:41:28.189Z</time>
      </trkpt>
      <trkpt lat="44.18121" lon="0.60747">
        <ele>61</ele>
        <time>2026-02-22T14:41:29.188Z</time>
      </trkpt>
      <trkpt lat="44.18121" lon="0.60747">
        <ele>61</ele>
        <time>2026-02-22T14:41:30.188Z</time>
      </trkpt>
      <trkpt lat="44.18121" lon="0.60747">
        <ele>61</ele>
        <time>2026-02-22T14:41:31.188Z</time>
      </trkpt>
      <trkpt lat="44.18121" lon="0.60747">
        <ele>61</ele>
        <time>2026-02-22T14:41:32.188Z</time>
      </trkpt>
      <trkpt lat="44.18121" lon="0.60747">
        <ele>61</ele>
        <time>2026-02-22T14:41:33.188Z</time>
      </trkpt>
      <trkpt lat="44.18121" lon="0.60747">
        <ele>62</ele>
        <time>2026-02-22T14:41:34.188Z</time>
      </trkpt>
      <trkpt lat="44.18121" lon="0.60746">
        <ele>62</ele>
        <time>2026-02-22T14:41:35.188Z</time>
      </trkpt>
      <trkpt lat="44.18121" lon="0.60746">
        <ele>62</ele>
        <time>2026-02-22T14:41:36.188Z</time>
      </trkpt>
      <trkpt lat="44.18122" lon="0.60746">
        <ele>62</ele>
        <time>2026-02-22T14:41:37.188Z</time>
      </trkpt>
      <trkpt lat="44.18122" lon="0.60747">
        <ele>62</ele>
        <time>2026-02-22T14:41:38.188Z</time>
      </trkpt>
      <trkpt lat="44.18123" lon="0.60747">
        <ele>62</ele>
        <time>2026-02-22T14:41:39.188Z</time>
      </trkpt>
      <trkpt lat="44.18124" lon="0.60748">
        <ele>62</ele>
        <time>2026-02-22T14:41:40.188Z</time>
      </trkpt>
      <trkpt lat="44.18125" lon="0.60747">
        <ele>63</ele>
        <time>2026-02-22T14:41:41.188Z</time>
      </trkpt>
      <trkpt lat="44.18126" lon="0.60747">
        <ele>63</ele>
        <time>2026-02-22T14:41:42.188Z</time>
      </trkpt>
      <trkpt lat="44.18127" lon="0.60747">
        <ele>63</ele>
        <time>2026-02-22T14:41:43.188Z</time>
      </trkpt>
      <trkpt lat="44.18128" lon="0.60746">
        <ele>64</ele>
        <time>2026-02-22T14:41:44.188Z</time>
      </trkpt>
      <trkpt lat="44.18129" lon="0.60745">
        <ele>64</ele>
        <time>2026-02-22T14:41:45.189Z</time>
      </trkpt>
      <trkpt lat="44.18131" lon="0.60745">
        <ele>64</ele>
        <time>2026-02-22T14:41:46.188Z</time>
      </trkpt>
      <trkpt lat="44.18132" lon="0.60744">
        <ele>65</ele>
        <time>2026-02-22T14:41:47.188Z</time>
      </trkpt>
      <trkpt lat="44.18133" lon="0.60744">
        <ele>65</ele>
        <time>2026-02-22T14:41:48.188Z</time>
      </trkpt>
      <trkpt lat="44.18135" lon="0.60745">
        <ele>65</ele>
        <time>2026-02-22T14:41:49.188Z</time>
      </trkpt>
      <trkpt lat="44.18137" lon="0.60745">
        <ele>65</ele>
        <time>2026-02-22T14:41:50.188Z</time>
      </trkpt>
      <trkpt lat="44.18138" lon="0.60744">
        <ele>65</ele>
        <time>2026-02-22T14:41:51.188Z</time>
      </trkpt>
      <trkpt lat="44.1814" lon="0.60744">
        <ele>65</ele>
        <time>2026-02-22T14:41:52.188Z</time>
      </trkpt>
      <trkpt lat="44.18141" lon="0.60744">
        <ele>65</ele>
        <time>2026-02-22T14:41:53.188Z</time>
      </trkpt>
      <trkpt lat="44.18143" lon="0.60744">
        <ele>65</ele>
        <time>2026-02-22T14:41:54.188Z</time>
      </trkpt>
      <trkpt lat="44.18143" lon="0.60744">
        <ele>65</ele>
        <time>2026-02-22T14:41:55.188Z</time>
      </trkpt>
      <trkpt lat="44.18144" lon="0.60744">
        <ele>66</ele>
        <time>2026-02-22T14:41:56.189Z</time>
      </trkpt>
      <trkpt lat="44.18146" lon="0.60744">
        <ele>66</ele>
        <time>2026-02-22T14:41:57.188Z</time>
      </trkpt>
      <trkpt lat="44.18147" lon="0.60744">
        <ele>66</ele>
        <time>2026-02-22T14:41:58.189Z</time>
      </trkpt>
      <trkpt lat="44.18148" lon="0.60744">
        <ele>66</ele>
        <time>2026-02-22T14:41:59.188Z</time>
      </trkpt>
      <trkpt lat="44.18149" lon="0.60744">
        <ele>66</ele>
        <time>2026-02-22T14:42:00.188Z</time>
      </trkpt>
      <trkpt lat="44.18151" lon="0.60743">
        <ele>67</ele>
        <time>2026-02-22T14:42:01.188Z</time>
      </trkpt>
      <trkpt lat="44.18152" lon="0.60743">
        <ele>67</ele>
        <time>2026-02-22T14:42:02.188Z</time>
      </trkpt>
      <trkpt lat="44.18154" lon="0.60743">
        <ele>68</ele>
        <time>2026-02-22T14:42:03.188Z</time>
      </trkpt>
      <trkpt lat="44.18154" lon="0.60742">
        <ele>68</ele>
        <time>2026-02-22T14:42:04.188Z</time>
      </trkpt>
      <trkpt lat="44.18155" lon="0.60741">
        <ele>68</ele>
        <time>2026-02-22T14:42:05.188Z</time>
      </trkpt>
      <trkpt lat="44.18156" lon="0.60741">
        <ele>68</ele>
        <time>2026-02-22T14:42:06.188Z</time>
      </trkpt>
      <trkpt lat="44.18158" lon="0.60742">
        <ele>69</ele>
        <time>2026-02-22T14:42:07.189Z</time>
      </trkpt>
      <trkpt lat="44.18159" lon="0.60742">
        <ele>69</ele>
        <time>2026-02-22T14:42:08.188Z</time>
      </trkpt>
      <trkpt lat="44.1816" lon="0.60742">
        <ele>69</ele>
        <time>2026-02-22T14:42:09.188Z</time>
      </trkpt>
      <trkpt lat="44.18161" lon="0.60742">
        <ele>69</ele>
        <time>2026-02-22T14:42:10.188Z</time>
      </trkpt>
      <trkpt lat="44.18162" lon="0.60743">
        <ele>70</ele>
        <time>2026-02-22T14:42:11.188Z</time>
      </trkpt>
      <trkpt lat="44.18163" lon="0.60743">
        <ele>70</ele>
        <time>2026-02-22T14:42:12.188Z</time>
      </trkpt>
      <trkpt lat="44.18164" lon="0.60742">
        <ele>69</ele>
        <time>2026-02-22T14:42:13.188Z</time>
      </trkpt>
      <trkpt lat="44.18165" lon="0.60741">
        <ele>69</ele>
        <time>2026-02-22T14:42:14.188Z</time>
      </trkpt>
      <trkpt lat="44.18167" lon="0.60739">
        <ele>68</ele>
        <time>2026-02-22T14:42:15.188Z</time>
      </trkpt>
      <trkpt lat="44.18168" lon="0.60738">
        <ele>68</ele>
        <time>2026-02-22T14:42:16.188Z</time>
      </trkpt>
      <trkpt lat="44.18168" lon="0.60736">
        <ele>67</ele>
        <time>2026-02-22T14:42:17.188Z</time>
      </trkpt>
      <trkpt lat="44.18169" lon="0.60735">
        <ele>67</ele>
        <time>2026-02-22T14:42:18.189Z</time>
      </trkpt>
      <trkpt lat="44.18169" lon="0.60734">
        <ele>67</ele>
        <time>2026-02-22T14:42:19.188Z</time>
      </trkpt>
      <trkpt lat="44.18169" lon="0.60732">
        <ele>67</ele>
        <time>2026-02-22T14:42:20.188Z</time>
      </trkpt>
      <trkpt lat="44.1817" lon="0.60731">
        <ele>67</ele>
        <time>2026-02-22T14:42:21.189Z</time>
      </trkpt>
      <trkpt lat="44.1817" lon="0.60729">
        <ele>67</ele>
        <time>2026-02-22T14:42:22.188Z</time>
      </trkpt>
      <trkpt lat="44.1817" lon="0.60728">
        <ele>66</ele>
        <time>2026-02-22T14:42:23.188Z</time>
      </trkpt>
      <trkpt lat="44.1817" lon="0.60726">
        <ele>66</ele>
        <time>2026-02-22T14:42:24.188Z</time>
      </trkpt>
      <trkpt lat="44.1817" lon="0.60724">
        <ele>66</ele>
        <time>2026-02-22T14:42:25.188Z</time>
      </trkpt>
      <trkpt lat="44.18169" lon="0.60722">
        <ele>66</ele>
        <time>2026-02-22T14:42:26.188Z</time>
      </trkpt>
      <trkpt lat="44.18169" lon="0.6072">
        <ele>66</ele>
        <time>2026-02-22T14:42:27.188Z</time>
      </trkpt>
      <trkpt lat="44.18169" lon="0.60718">
        <ele>66</ele>
        <time>2026-02-22T14:42:28.188Z</time>
      </trkpt>
      <trkpt lat="44.18169" lon="0.60716">
        <ele>66</ele>
        <time>2026-02-22T14:42:29.188Z</time>
      </trkpt>
      <trkpt lat="44.18168" lon="0.60714">
        <ele>66</ele>
        <time>2026-02-22T14:42:30.188Z</time>
      </trkpt>
      <trkpt lat="44.18168" lon="0.60713">
        <ele>66</ele>
        <time>2026-02-22T14:42:31.188Z</time>
      </trkpt>
      <trkpt lat="44.18168" lon="0.60711">
        <ele>66</ele>
        <time>2026-02-22T14:42:32.188Z</time>
      </trkpt>
      <trkpt lat="44.18168" lon="0.60709">
        <ele>66</ele>
        <time>2026-02-22T14:42:33.189Z</time>
      </trkpt>
      <trkpt lat="44.18168" lon="0.60708">
        <ele>66</ele>
        <time>2026-02-22T14:42:34.188Z</time>
      </trkpt>
      <trkpt lat="44.18168" lon="0.60706">
        <ele>65</ele>
        <time>2026-02-22T14:42:35.188Z</time>
      </trkpt>
      <trkpt lat="44.18168" lon="0.60705">
        <ele>65</ele>
        <time>2026-02-22T14:42:36.188Z</time>
      </trkpt>
      <trkpt lat="44.18168" lon="0.60703">
        <ele>65</ele>
        <time>2026-02-22T14:42:37.188Z</time>
      </trkpt>
      <trkpt lat="44.18169" lon="0.60702">
        <ele>65</ele>
        <time>2026-02-22T14:42:38.188Z</time>
      </trkpt>
      <trkpt lat="44.18169" lon="0.607">
        <ele>64</ele>
        <time>2026-02-22T14:42:39.188Z</time>
      </trkpt>
      <trkpt lat="44.18168" lon="0.60698">
        <ele>64</ele>
        <time>2026-02-22T14:42:40.188Z</time>
      </trkpt>
      <trkpt lat="44.18168" lon="0.60696">
        <ele>63</ele>
        <time>2026-02-22T14:42:41.188Z</time>
      </trkpt>
      <trkpt lat="44.18168" lon="0.60694">
        <ele>63</ele>
        <time>2026-02-22T14:42:42.188Z</time>
      </trkpt>
      <trkpt lat="44.18168" lon="0.60692">
        <ele>63</ele>
        <time>2026-02-22T14:42:43.188Z</time>
      </trkpt>
      <trkpt lat="44.18168" lon="0.6069">
        <ele>62</ele>
        <time>2026-02-22T14:42:44.189Z</time>
      </trkpt>
      <trkpt lat="44.18168" lon="0.60688">
        <ele>62</ele>
        <time>2026-02-22T14:42:45.188Z</time>
      </trkpt>
      <trkpt lat="44.18168" lon="0.60686">
        <ele>62</ele>
        <time>2026-02-22T14:42:46.188Z</time>
      </trkpt>
      <trkpt lat="44.18168" lon="0.60685">
        <ele>61</ele>
        <time>2026-02-22T14:42:47.188Z</time>
      </trkpt>
      <trkpt lat="44.18168" lon="0.60684">
        <ele>61</ele>
        <time>2026-02-22T14:42:48.188Z</time>
      </trkpt>
      <trkpt lat="44.18169" lon="0.60682">
        <ele>61</ele>
        <time>2026-02-22T14:42:49.188Z</time>
      </trkpt>
      <trkpt lat="44.18169" lon="0.6068">
        <ele>61</ele>
        <time>2026-02-22T14:42:50.188Z</time>
      </trkpt>
      <trkpt lat="44.18169" lon="0.60678">
        <ele>61</ele>
        <time>2026-02-22T14:42:51.188Z</time>
      </trkpt>
      <trkpt lat="44.18169" lon="0.60677">
        <ele>60</ele>
        <time>2026-02-22T14:42:52.188Z</time>
      </trkpt>
      <trkpt lat="44.18169" lon="0.60676">
        <ele>60</ele>
        <time>2026-02-22T14:42:53.188Z</time>
      </trkpt>
      <trkpt lat="44.18169" lon="0.60674">
        <ele>60</ele>
        <time>2026-02-22T14:42:54.188Z</time>
      </trkpt>
      <trkpt lat="44.18169" lon="0.60673">
        <ele>60</ele>
        <time>2026-02-22T14:42:55.188Z</time>
      </trkpt>
      <trkpt lat="44.18169" lon="0.60671">
        <ele>60</ele>
        <time>2026-02-22T14:42:56.189Z</time>
      </trkpt>
      <trkpt lat="44.1817" lon="0.60669">
        <ele>61</ele>
        <time>2026-02-22T14:42:57.189Z</time>
      </trkpt>
      <trkpt lat="44.1817" lon="0.60667">
        <ele>61</ele>
        <time>2026-02-22T14:42:58.189Z</time>
      </trkpt>
      <trkpt lat="44.1817" lon="0.60665">
        <ele>61</ele>
        <time>2026-02-22T14:42:59.189Z</time>
      </trkpt>
      <trkpt lat="44.18171" lon="0.60664">
        <ele>61</ele>
        <time>2026-02-22T14:43:00.188Z</time>
      </trkpt>
      <trkpt lat="44.18171" lon="0.60662">
        <ele>61</ele>
        <time>2026-02-22T14:43:01.188Z</time>
      </trkpt>
      <trkpt lat="44.18172" lon="0.6066">
        <ele>61</ele>
        <time>2026-02-22T14:43:02.188Z</time>
      </trkpt>
      <trkpt lat="44.18172" lon="0.60659">
        <ele>61</ele>
        <time>2026-02-22T14:43:03.188Z</time>
      </trkpt>
      <trkpt lat="44.18172" lon="0.60657">
        <ele>61</ele>
        <time>2026-02-22T14:43:04.188Z</time>
      </trkpt>
      <trkpt lat="44.18172" lon="0.60655">
        <ele>61</ele>
        <time>2026-02-22T14:43:05.188Z</time>
      </trkpt>
      <trkpt lat="44.18171" lon="0.60653">
        <ele>61</ele>
        <time>2026-02-22T14:43:06.188Z</time>
      </trkpt>
      <trkpt lat="44.18171" lon="0.60652">
        <ele>61</ele>
        <time>2026-02-22T14:43:07.188Z</time>
      </trkpt>
      <trkpt lat="44.18171" lon="0.6065">
        <ele>61</ele>
        <time>2026-02-22T14:43:08.188Z</time>
      </trkpt>
      <trkpt lat="44.18171" lon="0.60647">
        <ele>61</ele>
        <time>2026-02-22T14:43:09.188Z</time>
      </trkpt>
      <trkpt lat="44.18171" lon="0.60645">
        <ele>61</ele>
        <time>2026-02-22T14:43:10.189Z</time>
      </trkpt>
      <trkpt lat="44.18171" lon="0.60643">
        <ele>61</ele>
        <time>2026-02-22T14:43:11.188Z</time>
      </trkpt>
      <trkpt lat="44.18171" lon="0.60642">
        <ele>61</ele>
        <time>2026-02-22T14:43:12.188Z</time>
      </trkpt>
      <trkpt lat="44.1817" lon="0.6064">
        <ele>61</ele>
        <time>2026-02-22T14:43:13.188Z</time>
      </trkpt>
      <trkpt lat="44.1817" lon="0.60638">
        <ele>61</ele>
        <time>2026-02-22T14:43:14.188Z</time>
      </trkpt>
      <trkpt lat="44.1817" lon="0.60637">
        <ele>61</ele>
        <time>2026-02-22T14:43:15.188Z</time>
      </trkpt>
      <trkpt lat="44.18171" lon="0.60635">
        <ele>61</ele>
        <time>2026-02-22T14:43:16.188Z</time>
      </trkpt>
      <trkpt lat="44.18171" lon="0.60634">
        <ele>61</ele>
        <time>2026-02-22T14:43:17.188Z</time>
      </trkpt>
      <trkpt lat="44.18171" lon="0.60632">
        <ele>61</ele>
        <time>2026-02-22T14:43:18.188Z</time>
      </trkpt>
      <trkpt lat="44.18171" lon="0.60631">
        <ele>61</ele>
        <time>2026-02-22T14:43:19.188Z</time>
      </trkpt>
      <trkpt lat="44.18171" lon="0.60629">
        <ele>60</ele>
        <time>2026-02-22T14:43:20.188Z</time>
      </trkpt>
      <trkpt lat="44.18171" lon="0.60628">
        <ele>60</ele>
        <time>2026-02-22T14:43:21.188Z</time>
      </trkpt>
      <trkpt lat="44.18172" lon="0.60627">
        <ele>60</ele>
        <time>2026-02-22T14:43:22.188Z</time>
      </trkpt>
      <trkpt lat="44.18172" lon="0.60625">
        <ele>60</ele>
        <time>2026-02-22T14:43:23.188Z</time>
      </trkpt>
      <trkpt lat="44.18173" lon="0.60625">
        <ele>60</ele>
        <time>2026-02-22T14:43:24.188Z</time>
      </trkpt>
      <trkpt lat="44.18174" lon="0.60624">
        <ele>61</ele>
        <time>2026-02-22T14:43:25.188Z</time>
      </trkpt>
      <trkpt lat="44.18175" lon="0.60623">
        <ele>61</ele>
        <time>2026-02-22T14:43:26.188Z</time>
      </trkpt>
      <trkpt lat="44.18176" lon="0.60622">
        <ele>61</ele>
        <time>2026-02-22T14:43:27.188Z</time>
      </trkpt>
      <trkpt lat="44.18177" lon="0.60621">
        <ele>61</ele>
        <time>2026-02-22T14:43:28.188Z</time>
      </trkpt>
      <trkpt lat="44.18178" lon="0.60621">
        <ele>61</ele>
        <time>2026-02-22T14:43:29.188Z</time>
      </trkpt>
      <trkpt lat="44.18179" lon="0.6062">
        <ele>61</ele>
        <time>2026-02-22T14:43:30.188Z</time>
      </trkpt>
      <trkpt lat="44.1818" lon="0.60619">
        <ele>60</ele>
        <time>2026-02-22T14:43:31.188Z</time>
      </trkpt>
      <trkpt lat="44.18181" lon="0.60617">
        <ele>60</ele>
        <time>2026-02-22T14:43:32.188Z</time>
      </trkpt>
      <trkpt lat="44.18182" lon="0.60616">
        <ele>60</ele>
        <time>2026-02-22T14:43:33.188Z</time>
      </trkpt>
      <trkpt lat="44.18182" lon="0.60615">
        <ele>60</ele>
        <time>2026-02-22T14:43:34.188Z</time>
      </trkpt>
      <trkpt lat="44.18183" lon="0.60613">
        <ele>61</ele>
        <time>2026-02-22T14:43:35.189Z</time>
      </trkpt>
      <trkpt lat="44.18184" lon="0.60612">
        <ele>61</ele>
        <time>2026-02-22T14:43:36.189Z</time>
      </trkpt>
      <trkpt lat="44.18184" lon="0.60611">
        <ele>61</ele>
        <time>2026-02-22T14:43:37.188Z</time>
      </trkpt>
      <trkpt lat="44.18185" lon="0.6061">
        <ele>61</ele>
        <time>2026-02-22T14:43:38.188Z</time>
      </trkpt>
      <trkpt lat="44.18186" lon="0.60609">
        <ele>62</ele>
        <time>2026-02-22T14:43:39.188Z</time>
      </trkpt>
      <trkpt lat="44.18187" lon="0.60608">
        <ele>62</ele>
        <time>2026-02-22T14:43:40.188Z</time>
      </trkpt>
      <trkpt lat="44.18188" lon="0.60607">
        <ele>62</ele>
        <time>2026-02-22T14:43:41.188Z</time>
      </trkpt>
      <trkpt lat="44.1819" lon="0.60606">
        <ele>62</ele>
        <time>2026-02-22T14:43:42.188Z</time>
      </trkpt>
      <trkpt lat="44.18191" lon="0.60605">
        <ele>61</ele>
        <time>2026-02-22T14:43:43.188Z</time>
      </trkpt>
      <trkpt lat="44.18192" lon="0.60604">
        <ele>61</ele>
        <time>2026-02-22T14:43:44.188Z</time>
      </trkpt>
      <trkpt lat="44.18193" lon="0.60604">
        <ele>61</ele>
        <time>2026-02-22T14:43:45.188Z</time>
      </trkpt>
      <trkpt lat="44.18194" lon="0.60604">
        <ele>62</ele>
        <time>2026-02-22T14:43:46.188Z</time>
      </trkpt>
      <trkpt lat="44.18195" lon="0.60603">
        <ele>62</ele>
        <time>2026-02-22T14:43:47.188Z</time>
      </trkpt>
      <trkpt lat="44.18196" lon="0.60603">
        <ele>62</ele>
        <time>2026-02-22T14:43:48.188Z</time>
      </trkpt>
      <trkpt lat="44.18197" lon="0.60602">
        <ele>61</ele>
        <time>2026-02-22T14:43:49.188Z</time>
      </trkpt>
      <trkpt lat="44.18199" lon="0.60602">
        <ele>61</ele>
        <time>2026-02-22T14:43:50.188Z</time>
      </trkpt>
      <trkpt lat="44.182" lon="0.60602">
        <ele>61</ele>
        <time>2026-02-22T14:43:51.188Z</time>
      </trkpt>
      <trkpt lat="44.18201" lon="0.60601">
        <ele>61</ele>
        <time>2026-02-22T14:43:52.188Z</time>
      </trkpt>
      <trkpt lat="44.18202" lon="0.60601">
        <ele>60</ele>
        <time>2026-02-22T14:43:53.188Z</time>
      </trkpt>
      <trkpt lat="44.18204" lon="0.60601">
        <ele>60</ele>
        <time>2026-02-22T14:43:54.188Z</time>
      </trkpt>
      <trkpt lat="44.18205" lon="0.60601">
        <ele>60</ele>
        <time>2026-02-22T14:43:55.188Z</time>
      </trkpt>
      <trkpt lat="44.18206" lon="0.606">
        <ele>60</ele>
        <time>2026-02-22T14:43:56.188Z</time>
      </trkpt>
      <trkpt lat="44.18207" lon="0.606">
        <ele>60</ele>
        <time>2026-02-22T14:43:57.188Z</time>
      </trkpt>
      <trkpt lat="44.18208" lon="0.60599">
        <ele>61</ele>
        <time>2026-02-22T14:43:58.188Z</time>
      </trkpt>
      <trkpt lat="44.18209" lon="0.60599">
        <ele>61</ele>
        <time>2026-02-22T14:43:59.188Z</time>
      </trkpt>
      <trkpt lat="44.1821" lon="0.60599">
        <ele>61</ele>
        <time>2026-02-22T14:44:00.188Z</time>
      </trkpt>
      <trkpt lat="44.18212" lon="0.60599">
        <ele>61</ele>
        <time>2026-02-22T14:44:01.188Z</time>
      </trkpt>
      <trkpt lat="44.18213" lon="0.60599">
        <ele>61</ele>
        <time>2026-02-22T14:44:02.189Z</time>
      </trkpt>
      <trkpt lat="44.18214" lon="0.60599">
        <ele>61</ele>
        <time>2026-02-22T14:44:03.188Z</time>
      </trkpt>
      <trkpt lat="44.18215" lon="0.60599">
        <ele>61</ele>
        <time>2026-02-22T14:44:04.188Z</time>
      </trkpt>
      <trkpt lat="44.18217" lon="0.60599">
        <ele>61</ele>
        <time>2026-02-22T14:44:05.188Z</time>
      </trkpt>
      <trkpt lat="44.18218" lon="0.60598">
        <ele>62</ele>
        <time>2026-02-22T14:44:06.188Z</time>
      </trkpt>
      <trkpt lat="44.18219" lon="0.60598">
        <ele>62</ele>
        <time>2026-02-22T14:44:07.188Z</time>
      </trkpt>
      <trkpt lat="44.18221" lon="0.60597">
        <ele>62</ele>
        <time>2026-02-22T14:44:08.189Z</time>
      </trkpt>
      <trkpt lat="44.18222" lon="0.60598">
        <ele>62</ele>
        <time>2026-02-22T14:44:09.188Z</time>
      </trkpt>
      <trkpt lat="44.18224" lon="0.60598">
        <ele>62</ele>
        <time>2026-02-22T14:44:10.188Z</time>
      </trkpt>
      <trkpt lat="44.18225" lon="0.60598">
        <ele>62</ele>
        <time>2026-02-22T14:44:11.188Z</time>
      </trkpt>
      <trkpt lat="44.18226" lon="0.60597">
        <ele>62</ele>
        <time>2026-02-22T14:44:12.188Z</time>
      </trkpt>
      <trkpt lat="44.18228" lon="0.60597">
        <ele>62</ele>
        <time>2026-02-22T14:44:13.188Z</time>
      </trkpt>
      <trkpt lat="44.18229" lon="0.60597">
        <ele>62</ele>
        <time>2026-02-22T14:44:14.188Z</time>
      </trkpt>
      <trkpt lat="44.1823" lon="0.60597">
        <ele>62</ele>
        <time>2026-02-22T14:44:15.188Z</time>
      </trkpt>
      <trkpt lat="44.18231" lon="0.60596">
        <ele>62</ele>
        <time>2026-02-22T14:44:16.188Z</time>
      </trkpt>
      <trkpt lat="44.18232" lon="0.60596">
        <ele>63</ele>
        <time>2026-02-22T14:44:17.189Z</time>
      </trkpt>
      <trkpt lat="44.18233" lon="0.60596">
        <ele>63</ele>
        <time>2026-02-22T14:44:18.188Z</time>
      </trkpt>
      <trkpt lat="44.18235" lon="0.60595">
        <ele>63</ele>
        <time>2026-02-22T14:44:19.188Z</time>
      </trkpt>
      <trkpt lat="44.18236" lon="0.60595">
        <ele>63</ele>
        <time>2026-02-22T14:44:20.188Z</time>
      </trkpt>
      <trkpt lat="44.18237" lon="0.60595">
        <ele>63</ele>
        <time>2026-02-22T14:44:21.188Z</time>
      </trkpt>
      <trkpt lat="44.18238" lon="0.60594">
        <ele>63</ele>
        <time>2026-02-22T14:44:22.188Z</time>
      </trkpt>
      <trkpt lat="44.18239" lon="0.60594">
        <ele>63</ele>
        <time>2026-02-22T14:44:23.188Z</time>
      </trkpt>
      <trkpt lat="44.18241" lon="0.60594">
        <ele>63</ele>
        <time>2026-02-22T14:44:24.188Z</time>
      </trkpt>
      <trkpt lat="44.18242" lon="0.60593">
        <ele>63</ele>
        <time>2026-02-22T14:44:25.188Z</time>
      </trkpt>
      <trkpt lat="44.18243" lon="0.60593">
        <ele>63</ele>
        <time>2026-02-22T14:44:26.188Z</time>
      </trkpt>
      <trkpt lat="44.18244" lon="0.60593">
        <ele>63</ele>
        <time>2026-02-22T14:44:27.188Z</time>
      </trkpt>
      <trkpt lat="44.18245" lon="0.60593">
        <ele>63</ele>
        <time>2026-02-22T14:44:28.188Z</time>
      </trkpt>
      <trkpt lat="44.18247" lon="0.60593">
        <ele>63</ele>
        <time>2026-02-22T14:44:29.188Z</time>
      </trkpt>
      <trkpt lat="44.18248" lon="0.60592">
        <ele>63</ele>
        <time>2026-02-22T14:44:30.189Z</time>
      </trkpt>
      <trkpt lat="44.18249" lon="0.60592">
        <ele>63</ele>
        <time>2026-02-22T14:44:31.188Z</time>
      </trkpt>
      <trkpt lat="44.1825" lon="0.60591">
        <ele>63</ele>
        <time>2026-02-22T14:44:32.188Z</time>
      </trkpt>
      <trkpt lat="44.18251" lon="0.60591">
        <ele>63</ele>
        <time>2026-02-22T14:44:33.188Z</time>
      </trkpt>
      <trkpt lat="44.18252" lon="0.60591">
        <ele>63</ele>
        <time>2026-02-22T14:44:34.188Z</time>
      </trkpt>
      <trkpt lat="44.18252" lon="0.6059">
        <ele>63</ele>
        <time>2026-02-22T14:44:35.188Z</time>
      </trkpt>
      <trkpt lat="44.18253" lon="0.6059">
        <ele>63</ele>
        <time>2026-02-22T14:44:36.188Z</time>
      </trkpt>
      <trkpt lat="44.18254" lon="0.6059">
        <ele>63</ele>
        <time>2026-02-22T14:44:37.188Z</time>
      </trkpt>
      <trkpt lat="44.18255" lon="0.6059">
        <ele>64</ele>
        <time>2026-02-22T14:44:38.188Z</time>
      </trkpt>
      <trkpt lat="44.18256" lon="0.60589">
        <ele>64</ele>
        <time>2026-02-22T14:44:39.188Z</time>
      </trkpt>
      <trkpt lat="44.18256" lon="0.60588">
        <ele>64</ele>
        <time>2026-02-22T14:44:40.188Z</time>
      </trkpt>
      <trkpt lat="44.18257" lon="0.60588">
        <ele>64</ele>
        <time>2026-02-22T14:44:41.188Z</time>
      </trkpt>
      <trkpt lat="44.18259" lon="0.60588">
        <ele>63</ele>
        <time>2026-02-22T14:44:42.188Z</time>
      </trkpt>
      <trkpt lat="44.1826" lon="0.60587">
        <ele>63</ele>
        <time>2026-02-22T14:44:43.188Z</time>
      </trkpt>
      <trkpt lat="44.18261" lon="0.60587">
        <ele>63</ele>
        <time>2026-02-22T14:44:44.189Z</time>
      </trkpt>
      <trkpt lat="44.18263" lon="0.60587">
        <ele>63</ele>
        <time>2026-02-22T14:44:45.189Z</time>
      </trkpt>
      <trkpt lat="44.18264" lon="0.60587">
        <ele>63</ele>
        <time>2026-02-22T14:44:46.188Z</time>
      </trkpt>
      <trkpt lat="44.18265" lon="0.60586">
        <ele>63</ele>
        <time>2026-02-22T14:44:47.188Z</time>
      </trkpt>
      <trkpt lat="44.18266" lon="0.60585">
        <ele>63</ele>
        <time>2026-02-22T14:44:48.188Z</time>
      </trkpt>
      <trkpt lat="44.18268" lon="0.60585">
        <ele>63</ele>
        <time>2026-02-22T14:44:49.188Z</time>
      </trkpt>
      <trkpt lat="44.18269" lon="0.60584">
        <ele>63</ele>
        <time>2026-02-22T14:44:50.188Z</time>
      </trkpt>
      <trkpt lat="44.1827" lon="0.60584">
        <ele>63</ele>
        <time>2026-02-22T14:44:51.188Z</time>
      </trkpt>
      <trkpt lat="44.18271" lon="0.60584">
        <ele>63</ele>
        <time>2026-02-22T14:44:52.188Z</time>
      </trkpt>
      <trkpt lat="44.18272" lon="0.60583">
        <ele>62</ele>
        <time>2026-02-22T14:44:53.188Z</time>
      </trkpt>
      <trkpt lat="44.18273" lon="0.60582">
        <ele>62</ele>
        <time>2026-02-22T14:44:54.188Z</time>
      </trkpt>
      <trkpt lat="44.18274" lon="0.60582">
        <ele>62</ele>
        <time>2026-02-22T14:44:55.188Z</time>
      </trkpt>
      <trkpt lat="44.18276" lon="0.60581">
        <ele>62</ele>
        <time>2026-02-22T14:44:56.189Z</time>
      </trkpt>
      <trkpt lat="44.18277" lon="0.60581">
        <ele>62</ele>
        <time>2026-02-22T14:44:57.188Z</time>
      </trkpt>
      <trkpt lat="44.18278" lon="0.6058">
        <ele>62</ele>
        <time>2026-02-22T14:44:58.188Z</time>
      </trkpt>
      <trkpt lat="44.1828" lon="0.60579">
        <ele>62</ele>
        <time>2026-02-22T14:44:59.188Z</time>
      </trkpt>
      <trkpt lat="44.18281" lon="0.60579">
        <ele>62</ele>
        <time>2026-02-22T14:45:00.188Z</time>
      </trkpt>
      <trkpt lat="44.18282" lon="0.60578">
        <ele>63</ele>
        <time>2026-02-22T14:45:01.188Z</time>
      </trkpt>
      <trkpt lat="44.18283" lon="0.60578">
        <ele>63</ele>
        <time>2026-02-22T14:45:02.188Z</time>
      </trkpt>
      <trkpt lat="44.18284" lon="0.60577">
        <ele>63</ele>
        <time>2026-02-22T14:45:03.188Z</time>
      </trkpt>
      <trkpt lat="44.18286" lon="0.60577">
        <ele>63</ele>
        <time>2026-02-22T14:45:04.188Z</time>
      </trkpt>
      <trkpt lat="44.18287" lon="0.60576">
        <ele>62</ele>
        <time>2026-02-22T14:45:05.188Z</time>
      </trkpt>
      <trkpt lat="44.18288" lon="0.60576">
        <ele>62</ele>
        <time>2026-02-22T14:45:06.188Z</time>
      </trkpt>
      <trkpt lat="44.1829" lon="0.60575">
        <ele>62</ele>
        <time>2026-02-22T14:45:07.188Z</time>
      </trkpt>
      <trkpt lat="44.18291" lon="0.60574">
        <ele>62</ele>
        <time>2026-02-22T14:45:08.188Z</time>
      </trkpt>
      <trkpt lat="44.18293" lon="0.60574">
        <ele>62</ele>
        <time>2026-02-22T14:45:09.188Z</time>
      </trkpt>
      <trkpt lat="44.18294" lon="0.60573">
        <ele>62</ele>
        <time>2026-02-22T14:45:10.188Z</time>
      </trkpt>
      <trkpt lat="44.18296" lon="0.60573">
        <ele>62</ele>
        <time>2026-02-22T14:45:11.188Z</time>
      </trkpt>
      <trkpt lat="44.18297" lon="0.60572">
        <ele>62</ele>
        <time>2026-02-22T14:45:12.188Z</time>
      </trkpt>
      <trkpt lat="44.18298" lon="0.60572">
        <ele>62</ele>
        <time>2026-02-22T14:45:13.188Z</time>
      </trkpt>
      <trkpt lat="44.18299" lon="0.60572">
        <ele>63</ele>
        <time>2026-02-22T14:45:14.188Z</time>
      </trkpt>
      <trkpt lat="44.183" lon="0.60572">
        <ele>63</ele>
        <time>2026-02-22T14:45:15.188Z</time>
      </trkpt>
      <trkpt lat="44.18301" lon="0.60571">
        <ele>63</ele>
        <time>2026-02-22T14:45:16.188Z</time>
      </trkpt>
      <trkpt lat="44.18302" lon="0.60571">
        <ele>63</ele>
        <time>2026-02-22T14:45:17.188Z</time>
      </trkpt>
      <trkpt lat="44.18303" lon="0.60571">
        <ele>63</ele>
        <time>2026-02-22T14:45:18.188Z</time>
      </trkpt>
      <trkpt lat="44.18304" lon="0.6057">
        <ele>62</ele>
        <time>2026-02-22T14:45:19.188Z</time>
      </trkpt>
      <trkpt lat="44.18306" lon="0.6057">
        <ele>62</ele>
        <time>2026-02-22T14:45:20.188Z</time>
      </trkpt>
      <trkpt lat="44.18307" lon="0.60569">
        <ele>62</ele>
        <time>2026-02-22T14:45:21.189Z</time>
      </trkpt>
      <trkpt lat="44.18308" lon="0.60568">
        <ele>62</ele>
        <time>2026-02-22T14:45:22.188Z</time>
      </trkpt>
      <trkpt lat="44.18309" lon="0.60567">
        <ele>62</ele>
        <time>2026-02-22T14:45:23.188Z</time>
      </trkpt>
      <trkpt lat="44.1831" lon="0.60567">
        <ele>62</ele>
        <time>2026-02-22T14:45:24.188Z</time>
      </trkpt>
      <trkpt lat="44.18311" lon="0.60566">
        <ele>62</ele>
        <time>2026-02-22T14:45:25.188Z</time>
      </trkpt>
      <trkpt lat="44.18312" lon="0.60565">
        <ele>62</ele>
        <time>2026-02-22T14:45:26.188Z</time>
      </trkpt>
      <trkpt lat="44.18313" lon="0.60565">
        <ele>61</ele>
        <time>2026-02-22T14:45:27.188Z</time>
      </trkpt>
      <trkpt lat="44.18314" lon="0.60564">
        <ele>61</ele>
        <time>2026-02-22T14:45:28.188Z</time>
      </trkpt>
      <trkpt lat="44.18315" lon="0.60563">
        <ele>61</ele>
        <time>2026-02-22T14:45:29.188Z</time>
      </trkpt>
      <trkpt lat="44.18317" lon="0.60563">
        <ele>61</ele>
        <time>2026-02-22T14:45:30.188Z</time>
      </trkpt>
      <trkpt lat="44.18318" lon="0.60562">
        <ele>61</ele>
        <time>2026-02-22T14:45:31.188Z</time>
      </trkpt>
      <trkpt lat="44.18319" lon="0.60561">
        <ele>61</ele>
        <time>2026-02-22T14:45:32.188Z</time>
      </trkpt>
      <trkpt lat="44.1832" lon="0.6056">
        <ele>61</ele>
        <time>2026-02-22T14:45:33.188Z</time>
      </trkpt>
      <trkpt lat="44.18321" lon="0.60559">
        <ele>61</ele>
        <time>2026-02-22T14:45:34.188Z</time>
      </trkpt>
      <trkpt lat="44.18322" lon="0.60559">
        <ele>61</ele>
        <time>2026-02-22T14:45:35.188Z</time>
      </trkpt>
      <trkpt lat="44.18323" lon="0.60558">
        <ele>61</ele>
        <time>2026-02-22T14:45:36.188Z</time>
      </trkpt>
      <trkpt lat="44.18324" lon="0.60557">
        <ele>61</ele>
        <time>2026-02-22T14:45:37.188Z</time>
      </trkpt>
      <trkpt lat="44.18325" lon="0.60556">
        <ele>61</ele>
        <time>2026-02-22T14:45:38.188Z</time>
      </trkpt>
      <trkpt lat="44.18327" lon="0.60555">
        <ele>61</ele>
        <time>2026-02-22T14:45:39.188Z</time>
      </trkpt>
      <trkpt lat="44.18328" lon="0.60554">
        <ele>61</ele>
        <time>2026-02-22T14:45:40.188Z</time>
      </trkpt>
      <trkpt lat="44.18329" lon="0.60553">
        <ele>61</ele>
        <time>2026-02-22T14:45:41.188Z</time>
      </trkpt>
      <trkpt lat="44.1833" lon="0.60551">
        <ele>61</ele>
        <time>2026-02-22T14:45:42.188Z</time>
      </trkpt>
      <trkpt lat="44.18331" lon="0.6055">
        <ele>60</ele>
        <time>2026-02-22T14:45:43.188Z</time>
      </trkpt>
      <trkpt lat="44.18332" lon="0.60549">
        <ele>61</ele>
        <time>2026-02-22T14:45:44.188Z</time>
      </trkpt>
      <trkpt lat="44.18333" lon="0.60548">
        <ele>61</ele>
        <time>2026-02-22T14:45:45.188Z</time>
      </trkpt>
      <trkpt lat="44.18334" lon="0.60547">
        <ele>61</ele>
        <time>2026-02-22T14:45:46.188Z</time>
      </trkpt>
      <trkpt lat="44.18335" lon="0.60547">
        <ele>60</ele>
        <time>2026-02-22T14:45:47.188Z</time>
      </trkpt>
      <trkpt lat="44.18336" lon="0.60546">
        <ele>60</ele>
        <time>2026-02-22T14:45:48.188Z</time>
      </trkpt>
      <trkpt lat="44.18337" lon="0.60544">
        <ele>60</ele>
        <time>2026-02-22T14:45:49.188Z</time>
      </trkpt>
      <trkpt lat="44.18338" lon="0.60543">
        <ele>60</ele>
        <time>2026-02-22T14:45:50.188Z</time>
      </trkpt>
      <trkpt lat="44.18339" lon="0.60542">
        <ele>60</ele>
        <time>2026-02-22T14:45:51.188Z</time>
      </trkpt>
      <trkpt lat="44.18341" lon="0.60541">
        <ele>60</ele>
        <time>2026-02-22T14:45:52.188Z</time>
      </trkpt>
      <trkpt lat="44.18342" lon="0.6054">
        <ele>60</ele>
        <time>2026-02-22T14:45:53.188Z</time>
      </trkpt>
      <trkpt lat="44.18343" lon="0.60539">
        <ele>59</ele>
        <time>2026-02-22T14:45:54.188Z</time>
      </trkpt>
      <trkpt lat="44.18344" lon="0.60538">
        <ele>59</ele>
        <time>2026-02-22T14:45:55.188Z</time>
      </trkpt>
      <trkpt lat="44.18345" lon="0.60537">
        <ele>59</ele>
        <time>2026-02-22T14:45:56.188Z</time>
      </trkpt>
      <trkpt lat="44.18346" lon="0.60536">
        <ele>59</ele>
        <time>2026-02-22T14:45:57.189Z</time>
      </trkpt>
      <trkpt lat="44.18347" lon="0.60535">
        <ele>59</ele>
        <time>2026-02-22T14:45:58.189Z</time>
      </trkpt>
      <trkpt lat="44.18348" lon="0.60534">
        <ele>59</ele>
        <time>2026-02-22T14:45:59.188Z</time>
      </trkpt>
      <trkpt lat="44.18349" lon="0.60533">
        <ele>59</ele>
        <time>2026-02-22T14:46:00.188Z</time>
      </trkpt>
      <trkpt lat="44.1835" lon="0.60532">
        <ele>59</ele>
        <time>2026-02-22T14:46:01.188Z</time>
      </trkpt>
      <trkpt lat="44.18351" lon="0.60532">
        <ele>59</ele>
        <time>2026-02-22T14:46:02.188Z</time>
      </trkpt>
      <trkpt lat="44.18353" lon="0.60531">
        <ele>59</ele>
        <time>2026-02-22T14:46:03.188Z</time>
      </trkpt>
      <trkpt lat="44.18354" lon="0.6053">
        <ele>59</ele>
        <time>2026-02-22T14:46:04.188Z</time>
      </trkpt>
      <trkpt lat="44.18355" lon="0.60529">
        <ele>59</ele>
        <time>2026-02-22T14:46:05.188Z</time>
      </trkpt>
      <trkpt lat="44.18356" lon="0.60528">
        <ele>59</ele>
        <time>2026-02-22T14:46:06.188Z</time>
      </trkpt>
      <trkpt lat="44.18357" lon="0.60528">
        <ele>59</ele>
        <time>2026-02-22T14:46:07.188Z</time>
      </trkpt>
      <trkpt lat="44.18358" lon="0.60527">
        <ele>59</ele>
        <time>2026-02-22T14:46:08.188Z</time>
      </trkpt>
      <trkpt lat="44.18359" lon="0.60525">
        <ele>59</ele>
        <time>2026-02-22T14:46:09.188Z</time>
      </trkpt>
      <trkpt lat="44.1836" lon="0.60524">
        <ele>59</ele>
        <time>2026-02-22T14:46:10.188Z</time>
      </trkpt>
      <trkpt lat="44.18361" lon="0.60523">
        <ele>59</ele>
        <time>2026-02-22T14:46:11.188Z</time>
      </trkpt>
      <trkpt lat="44.18362" lon="0.60521">
        <ele>59</ele>
        <time>2026-02-22T14:46:12.188Z</time>
      </trkpt>
      <trkpt lat="44.18363" lon="0.6052">
        <ele>59</ele>
        <time>2026-02-22T14:46:13.188Z</time>
      </trkpt>
      <trkpt lat="44.18364" lon="0.60519">
        <ele>59</ele>
        <time>2026-02-22T14:46:14.188Z</time>
      </trkpt>
      <trkpt lat="44.18365" lon="0.60518">
        <ele>59</ele>
        <time>2026-02-22T14:46:15.188Z</time>
      </trkpt>
      <trkpt lat="44.18366" lon="0.60517">
        <ele>59</ele>
        <time>2026-02-22T14:46:16.189Z</time>
      </trkpt>
      <trkpt lat="44.18367" lon="0.60516">
        <ele>59</ele>
        <time>2026-02-22T14:46:17.188Z</time>
      </trkpt>
      <trkpt lat="44.18367" lon="0.60515">
        <ele>59</ele>
        <time>2026-02-22T14:46:18.188Z</time>
      </trkpt>
      <trkpt lat="44.18368" lon="0.60514">
        <ele>59</ele>
        <time>2026-02-22T14:46:19.188Z</time>
      </trkpt>
      <trkpt lat="44.18369" lon="0.60513">
        <ele>59</ele>
        <time>2026-02-22T14:46:20.188Z</time>
      </trkpt>
      <trkpt lat="44.18371" lon="0.60512">
        <ele>60</ele>
        <time>2026-02-22T14:46:21.188Z</time>
      </trkpt>
      <trkpt lat="44.18372" lon="0.60511">
        <ele>60</ele>
        <time>2026-02-22T14:46:22.188Z</time>
      </trkpt>
      <trkpt lat="44.18372" lon="0.6051">
        <ele>60</ele>
        <time>2026-02-22T14:46:23.188Z</time>
      </trkpt>
      <trkpt lat="44.18373" lon="0.60508">
        <ele>60</ele>
        <time>2026-02-22T14:46:24.188Z</time>
      </trkpt>
      <trkpt lat="44.18374" lon="0.60507">
        <ele>60</ele>
        <time>2026-02-22T14:46:25.188Z</time>
      </trkpt>
      <trkpt lat="44.18375" lon="0.60506">
        <ele>60</ele>
        <time>2026-02-22T14:46:26.188Z</time>
      </trkpt>
      <trkpt lat="44.18376" lon="0.60505">
        <ele>60</ele>
        <time>2026-02-22T14:46:27.188Z</time>
      </trkpt>
      <trkpt lat="44.18377" lon="0.60504">
        <ele>60</ele>
        <time>2026-02-22T14:46:28.188Z</time>
      </trkpt>
      <trkpt lat="44.18378" lon="0.60503">
        <ele>60</ele>
        <time>2026-02-22T14:46:29.188Z</time>
      </trkpt>
      <trkpt lat="44.18379" lon="0.60502">
        <ele>60</ele>
        <time>2026-02-22T14:46:30.188Z</time>
      </trkpt>
      <trkpt lat="44.18381" lon="0.60501">
        <ele>59</ele>
        <time>2026-02-22T14:46:31.188Z</time>
      </trkpt>
      <trkpt lat="44.18382" lon="0.605">
        <ele>59</ele>
        <time>2026-02-22T14:46:32.188Z</time>
      </trkpt>
      <trkpt lat="44.18383" lon="0.60499">
        <ele>59</ele>
        <time>2026-02-22T14:46:33.188Z</time>
      </trkpt>
      <trkpt lat="44.18384" lon="0.60498">
        <ele>59</ele>
        <time>2026-02-22T14:46:34.189Z</time>
      </trkpt>
      <trkpt lat="44.18385" lon="0.60497">
        <ele>59</ele>
        <time>2026-02-22T14:46:35.188Z</time>
      </trkpt>
      <trkpt lat="44.18386" lon="0.60496">
        <ele>58</ele>
        <time>2026-02-22T14:46:36.188Z</time>
      </trkpt>
      <trkpt lat="44.18386" lon="0.60495">
        <ele>58</ele>
        <time>2026-02-22T14:46:37.188Z</time>
      </trkpt>
      <trkpt lat="44.18387" lon="0.60493">
        <ele>58</ele>
        <time>2026-02-22T14:46:38.188Z</time>
      </trkpt>
      <trkpt lat="44.18389" lon="0.60492">
        <ele>58</ele>
        <time>2026-02-22T14:46:39.188Z</time>
      </trkpt>
      <trkpt lat="44.1839" lon="0.60491">
        <ele>58</ele>
        <time>2026-02-22T14:46:40.188Z</time>
      </trkpt>
      <trkpt lat="44.18391" lon="0.6049">
        <ele>58</ele>
        <time>2026-02-22T14:46:41.188Z</time>
      </trkpt>
      <trkpt lat="44.18392" lon="0.60489">
        <ele>58</ele>
        <time>2026-02-22T14:46:42.188Z</time>
      </trkpt>
      <trkpt lat="44.18393" lon="0.60488">
        <ele>59</ele>
        <time>2026-02-22T14:46:43.188Z</time>
      </trkpt>
      <trkpt lat="44.18394" lon="0.60488">
        <ele>59</ele>
        <time>2026-02-22T14:46:44.189Z</time>
      </trkpt>
      <trkpt lat="44.18394" lon="0.60487">
        <ele>59</ele>
        <time>2026-02-22T14:46:45.188Z</time>
      </trkpt>
      <trkpt lat="44.18395" lon="0.60486">
        <ele>59</ele>
        <time>2026-02-22T14:46:46.189Z</time>
      </trkpt>
      <trkpt lat="44.18396" lon="0.60485">
        <ele>58</ele>
        <time>2026-02-22T14:46:47.188Z</time>
      </trkpt>
      <trkpt lat="44.18397" lon="0.60483">
        <ele>59</ele>
        <time>2026-02-22T14:46:48.188Z</time>
      </trkpt>
      <trkpt lat="44.18399" lon="0.60482">
        <ele>59</ele>
        <time>2026-02-22T14:46:49.188Z</time>
      </trkpt>
      <trkpt lat="44.184" lon="0.60481">
        <ele>59</ele>
        <time>2026-02-22T14:46:50.188Z</time>
      </trkpt>
      <trkpt lat="44.18401" lon="0.6048">
        <ele>59</ele>
        <time>2026-02-22T14:46:51.188Z</time>
      </trkpt>
      <trkpt lat="44.18402" lon="0.60479">
        <ele>59</ele>
        <time>2026-02-22T14:46:52.188Z</time>
      </trkpt>
      <trkpt lat="44.18403" lon="0.60478">
        <ele>59</ele>
        <time>2026-02-22T14:46:53.188Z</time>
      </trkpt>
      <trkpt lat="44.18404" lon="0.60477">
        <ele>59</ele>
        <time>2026-02-22T14:46:54.188Z</time>
      </trkpt>
      <trkpt lat="44.18405" lon="0.60476">
        <ele>59</ele>
        <time>2026-02-22T14:46:55.188Z</time>
      </trkpt>
      <trkpt lat="44.18406" lon="0.60475">
        <ele>59</ele>
        <time>2026-02-22T14:46:56.188Z</time>
      </trkpt>
      <trkpt lat="44.18407" lon="0.60475">
        <ele>59</ele>
        <time>2026-02-22T14:46:57.188Z</time>
      </trkpt>
      <trkpt lat="44.18408" lon="0.60474">
        <ele>59</ele>
        <time>2026-02-22T14:46:58.188Z</time>
      </trkpt>
      <trkpt lat="44.18409" lon="0.60473">
        <ele>59</ele>
        <time>2026-02-22T14:46:59.188Z</time>
      </trkpt>
      <trkpt lat="44.1841" lon="0.60472">
        <ele>59</ele>
        <time>2026-02-22T14:47:00.188Z</time>
      </trkpt>
      <trkpt lat="44.18411" lon="0.60471">
        <ele>59</ele>
        <time>2026-02-22T14:47:01.188Z</time>
      </trkpt>
      <trkpt lat="44.18412" lon="0.6047">
        <ele>59</ele>
        <time>2026-02-22T14:47:02.188Z</time>
      </trkpt>
      <trkpt lat="44.18413" lon="0.60469">
        <ele>59</ele>
        <time>2026-02-22T14:47:03.188Z</time>
      </trkpt>
      <trkpt lat="44.18414" lon="0.60468">
        <ele>59</ele>
        <time>2026-02-22T14:47:04.188Z</time>
      </trkpt>
      <trkpt lat="44.18415" lon="0.60467">
        <ele>59</ele>
        <time>2026-02-22T14:47:05.188Z</time>
      </trkpt>
      <trkpt lat="44.18416" lon="0.60466">
        <ele>59</ele>
        <time>2026-02-22T14:47:06.188Z</time>
      </trkpt>
      <trkpt lat="44.18417" lon="0.60465">
        <ele>59</ele>
        <time>2026-02-22T14:47:07.188Z</time>
      </trkpt>
      <trkpt lat="44.18418" lon="0.60464">
        <ele>59</ele>
        <time>2026-02-22T14:47:08.188Z</time>
      </trkpt>
      <trkpt lat="44.18419" lon="0.60463">
        <ele>59</ele>
        <time>2026-02-22T14:47:09.188Z</time>
      </trkpt>
      <trkpt lat="44.1842" lon="0.60462">
        <ele>59</ele>
        <time>2026-02-22T14:47:10.188Z</time>
      </trkpt>
      <trkpt lat="44.18421" lon="0.60461">
        <ele>59</ele>
        <time>2026-02-22T14:47:11.189Z</time>
      </trkpt>
      <trkpt lat="44.18422" lon="0.60461">
        <ele>59</ele>
        <time>2026-02-22T14:47:12.189Z</time>
      </trkpt>
      <trkpt lat="44.18423" lon="0.6046">
        <ele>59</ele>
        <time>2026-02-22T14:47:13.188Z</time>
      </trkpt>
      <trkpt lat="44.18424" lon="0.60459">
        <ele>59</ele>
        <time>2026-02-22T14:47:14.188Z</time>
      </trkpt>
      <trkpt lat="44.18426" lon="0.60458">
        <ele>59</ele>
        <time>2026-02-22T14:47:15.188Z</time>
      </trkpt>
      <trkpt lat="44.18427" lon="0.60457">
        <ele>59</ele>
        <time>2026-02-22T14:47:16.188Z</time>
      </trkpt>
      <trkpt lat="44.18428" lon="0.60456">
        <ele>59</ele>
        <time>2026-02-22T14:47:17.188Z</time>
      </trkpt>
      <trkpt lat="44.18429" lon="0.60455">
        <ele>59</ele>
        <time>2026-02-22T14:47:18.188Z</time>
      </trkpt>
      <trkpt lat="44.18431" lon="0.60455">
        <ele>59</ele>
        <time>2026-02-22T14:47:19.188Z</time>
      </trkpt>
      <trkpt lat="44.18432" lon="0.60454">
        <ele>58</ele>
        <time>2026-02-22T14:47:20.188Z</time>
      </trkpt>
      <trkpt lat="44.18433" lon="0.60452">
        <ele>59</ele>
        <time>2026-02-22T14:47:21.188Z</time>
      </trkpt>
      <trkpt lat="44.18434" lon="0.60451">
        <ele>59</ele>
        <time>2026-02-22T14:47:22.188Z</time>
      </trkpt>
      <trkpt lat="44.18435" lon="0.6045">
        <ele>59</ele>
        <time>2026-02-22T14:47:23.188Z</time>
      </trkpt>
      <trkpt lat="44.18436" lon="0.60449">
        <ele>59</ele>
        <time>2026-02-22T14:47:24.188Z</time>
      </trkpt>
      <trkpt lat="44.18437" lon="0.60449">
        <ele>59</ele>
        <time>2026-02-22T14:47:25.188Z</time>
      </trkpt>
      <trkpt lat="44.18437" lon="0.60448">
        <ele>59</ele>
        <time>2026-02-22T14:47:26.188Z</time>
      </trkpt>
      <trkpt lat="44.18438" lon="0.60448">
        <ele>59</ele>
        <time>2026-02-22T14:47:27.188Z</time>
      </trkpt>
      <trkpt lat="44.1844" lon="0.60447">
        <ele>59</ele>
        <time>2026-02-22T14:47:28.188Z</time>
      </trkpt>
      <trkpt lat="44.18441" lon="0.60446">
        <ele>59</ele>
        <time>2026-02-22T14:47:29.188Z</time>
      </trkpt>
      <trkpt lat="44.18442" lon="0.60445">
        <ele>59</ele>
        <time>2026-02-22T14:47:30.188Z</time>
      </trkpt>
      <trkpt lat="44.18443" lon="0.60445">
        <ele>59</ele>
        <time>2026-02-22T14:47:31.188Z</time>
      </trkpt>
      <trkpt lat="44.18444" lon="0.60444">
        <ele>59</ele>
        <time>2026-02-22T14:47:32.188Z</time>
      </trkpt>
      <trkpt lat="44.18445" lon="0.60443">
        <ele>59</ele>
        <time>2026-02-22T14:47:33.188Z</time>
      </trkpt>
      <trkpt lat="44.18446" lon="0.60442">
        <ele>59</ele>
        <time>2026-02-22T14:47:34.188Z</time>
      </trkpt>
      <trkpt lat="44.18447" lon="0.60441">
        <ele>59</ele>
        <time>2026-02-22T14:47:35.188Z</time>
      </trkpt>
      <trkpt lat="44.18448" lon="0.6044">
        <ele>59</ele>
        <time>2026-02-22T14:47:36.188Z</time>
      </trkpt>
      <trkpt lat="44.18449" lon="0.60439">
        <ele>59</ele>
        <time>2026-02-22T14:47:37.188Z</time>
      </trkpt>
      <trkpt lat="44.1845" lon="0.60438">
        <ele>59</ele>
        <time>2026-02-22T14:47:38.189Z</time>
      </trkpt>
      <trkpt lat="44.18451" lon="0.60438">
        <ele>59</ele>
        <time>2026-02-22T14:47:39.188Z</time>
      </trkpt>
      <trkpt lat="44.18452" lon="0.60437">
        <ele>59</ele>
        <time>2026-02-22T14:47:40.188Z</time>
      </trkpt>
      <trkpt lat="44.18453" lon="0.60437">
        <ele>59</ele>
        <time>2026-02-22T14:47:41.188Z</time>
      </trkpt>
      <trkpt lat="44.18454" lon="0.60436">
        <ele>59</ele>
        <time>2026-02-22T14:47:42.188Z</time>
      </trkpt>
      <trkpt lat="44.18455" lon="0.60436">
        <ele>59</ele>
        <time>2026-02-22T14:47:43.188Z</time>
      </trkpt>
      <trkpt lat="44.18457" lon="0.60435">
        <ele>59</ele>
        <time>2026-02-22T14:47:44.188Z</time>
      </trkpt>
      <trkpt lat="44.18458" lon="0.60435">
        <ele>59</ele>
        <time>2026-02-22T14:47:45.188Z</time>
      </trkpt>
      <trkpt lat="44.18459" lon="0.60434">
        <ele>59</ele>
        <time>2026-02-22T14:47:46.189Z</time>
      </trkpt>
      <trkpt lat="44.1846" lon="0.60434">
        <ele>59</ele>
        <time>2026-02-22T14:47:47.189Z</time>
      </trkpt>
      <trkpt lat="44.18461" lon="0.60433">
        <ele>59</ele>
        <time>2026-02-22T14:47:48.189Z</time>
      </trkpt>
      <trkpt lat="44.18462" lon="0.60433">
        <ele>59</ele>
        <time>2026-02-22T14:47:49.188Z</time>
      </trkpt>
      <trkpt lat="44.18463" lon="0.60432">
        <ele>59</ele>
        <time>2026-02-22T14:47:50.188Z</time>
      </trkpt>
      <trkpt lat="44.18465" lon="0.60431">
        <ele>59</ele>
        <time>2026-02-22T14:47:51.188Z</time>
      </trkpt>
      <trkpt lat="44.18466" lon="0.60431">
        <ele>59</ele>
        <time>2026-02-22T14:47:52.188Z</time>
      </trkpt>
      <trkpt lat="44.18467" lon="0.6043">
        <ele>59</ele>
        <time>2026-02-22T14:47:53.189Z</time>
      </trkpt>
      <trkpt lat="44.18468" lon="0.60429">
        <ele>59</ele>
        <time>2026-02-22T14:47:54.188Z</time>
      </trkpt>
      <trkpt lat="44.18469" lon="0.60429">
        <ele>59</ele>
        <time>2026-02-22T14:47:55.188Z</time>
      </trkpt>
      <trkpt lat="44.18471" lon="0.60428">
        <ele>59</ele>
        <time>2026-02-22T14:47:56.188Z</time>
      </trkpt>
      <trkpt lat="44.18472" lon="0.60427">
        <ele>59</ele>
        <time>2026-02-22T14:47:57.188Z</time>
      </trkpt>
      <trkpt lat="44.18473" lon="0.60426">
        <ele>59</ele>
        <time>2026-02-22T14:47:58.188Z</time>
      </trkpt>
      <trkpt lat="44.18474" lon="0.60425">
        <ele>59</ele>
        <time>2026-02-22T14:47:59.188Z</time>
      </trkpt>
      <trkpt lat="44.18475" lon="0.60425">
        <ele>59</ele>
        <time>2026-02-22T14:48:00.188Z</time>
      </trkpt>
      <trkpt lat="44.18477" lon="0.60424">
        <ele>59</ele>
        <time>2026-02-22T14:48:01.188Z</time>
      </trkpt>
      <trkpt lat="44.18478" lon="0.60424">
        <ele>59</ele>
        <time>2026-02-22T14:48:02.188Z</time>
      </trkpt>
      <trkpt lat="44.18479" lon="0.60423">
        <ele>59</ele>
        <time>2026-02-22T14:48:03.188Z</time>
      </trkpt>
      <trkpt lat="44.1848" lon="0.60422">
        <ele>58</ele>
        <time>2026-02-22T14:48:04.188Z</time>
      </trkpt>
      <trkpt lat="44.18481" lon="0.60422">
        <ele>58</ele>
        <time>2026-02-22T14:48:05.188Z</time>
      </trkpt>
      <trkpt lat="44.18482" lon="0.60421">
        <ele>58</ele>
        <time>2026-02-22T14:48:06.189Z</time>
      </trkpt>
      <trkpt lat="44.18484" lon="0.6042">
        <ele>58</ele>
        <time>2026-02-22T14:48:07.188Z</time>
      </trkpt>
      <trkpt lat="44.18485" lon="0.60419">
        <ele>59</ele>
        <time>2026-02-22T14:48:08.188Z</time>
      </trkpt>
      <trkpt lat="44.18486" lon="0.60418">
        <ele>59</ele>
        <time>2026-02-22T14:48:09.188Z</time>
      </trkpt>
      <trkpt lat="44.18487" lon="0.60417">
        <ele>59</ele>
        <time>2026-02-22T14:48:10.188Z</time>
      </trkpt>
      <trkpt lat="44.18488" lon="0.60416">
        <ele>59</ele>
        <time>2026-02-22T14:48:11.188Z</time>
      </trkpt>
      <trkpt lat="44.18489" lon="0.60416">
        <ele>59</ele>
        <time>2026-02-22T14:48:12.188Z</time>
      </trkpt>
      <trkpt lat="44.1849" lon="0.60415">
        <ele>58</ele>
        <time>2026-02-22T14:48:13.188Z</time>
      </trkpt>
      <trkpt lat="44.18491" lon="0.60414">
        <ele>58</ele>
        <time>2026-02-22T14:48:14.188Z</time>
      </trkpt>
      <trkpt lat="44.18492" lon="0.60413">
        <ele>58</ele>
        <time>2026-02-22T14:48:15.188Z</time>
      </trkpt>
      <trkpt lat="44.18493" lon="0.60412">
        <ele>58</ele>
        <time>2026-02-22T14:48:16.188Z</time>
      </trkpt>
      <trkpt lat="44.18495" lon="0.60412">
        <ele>58</ele>
        <time>2026-02-22T14:48:17.188Z</time>
      </trkpt>
      <trkpt lat="44.18496" lon="0.60411">
        <ele>58</ele>
        <time>2026-02-22T14:48:18.188Z</time>
      </trkpt>
      <trkpt lat="44.18496" lon="0.60411">
        <ele>58</ele>
        <time>2026-02-22T14:48:19.188Z</time>
      </trkpt>
      <trkpt lat="44.18497" lon="0.6041">
        <ele>58</ele>
        <time>2026-02-22T14:48:20.188Z</time>
      </trkpt>
      <trkpt lat="44.18498" lon="0.60409">
        <ele>59</ele>
        <time>2026-02-22T14:48:21.188Z</time>
      </trkpt>
      <trkpt lat="44.18499" lon="0.60408">
        <ele>59</ele>
        <time>2026-02-22T14:48:22.188Z</time>
      </trkpt>
      <trkpt lat="44.185" lon="0.60407">
        <ele>59</ele>
        <time>2026-02-22T14:48:23.188Z</time>
      </trkpt>
      <trkpt lat="44.18502" lon="0.60406">
        <ele>59</ele>
        <time>2026-02-22T14:48:24.189Z</time>
      </trkpt>
      <trkpt lat="44.18503" lon="0.60405">
        <ele>59</ele>
        <time>2026-02-22T14:48:25.189Z</time>
      </trkpt>
      <trkpt lat="44.18504" lon="0.60405">
        <ele>59</ele>
        <time>2026-02-22T14:48:26.188Z</time>
      </trkpt>
      <trkpt lat="44.18505" lon="0.60404">
        <ele>59</ele>
        <time>2026-02-22T14:48:27.188Z</time>
      </trkpt>
      <trkpt lat="44.18506" lon="0.60403">
        <ele>59</ele>
        <time>2026-02-22T14:48:28.188Z</time>
      </trkpt>
      <trkpt lat="44.18506" lon="0.60401">
        <ele>59</ele>
        <time>2026-02-22T14:48:29.188Z</time>
      </trkpt>
      <trkpt lat="44.18507" lon="0.604">
        <ele>59</ele>
        <time>2026-02-22T14:48:30.188Z</time>
      </trkpt>
      <trkpt lat="44.18508" lon="0.604">
        <ele>59</ele>
        <time>2026-02-22T14:48:31.188Z</time>
      </trkpt>
      <trkpt lat="44.18509" lon="0.604">
        <ele>59</ele>
        <time>2026-02-22T14:48:32.188Z</time>
      </trkpt>
      <trkpt lat="44.18509" lon="0.604">
        <ele>59</ele>
        <time>2026-02-22T14:48:33.188Z</time>
      </trkpt>
      <trkpt lat="44.18509" lon="0.60399">
        <ele>58</ele>
        <time>2026-02-22T14:48:34.189Z</time>
      </trkpt>
      <trkpt lat="44.1851" lon="0.60399">
        <ele>58</ele>
        <time>2026-02-22T14:48:35.188Z</time>
      </trkpt>
      <trkpt lat="44.18511" lon="0.60398">
        <ele>58</ele>
        <time>2026-02-22T14:48:36.188Z</time>
      </trkpt>
      <trkpt lat="44.18512" lon="0.60397">
        <ele>58</ele>
        <time>2026-02-22T14:48:37.188Z</time>
      </trkpt>
      <trkpt lat="44.18513" lon="0.60397">
        <ele>58</ele>
        <time>2026-02-22T14:48:38.188Z</time>
      </trkpt>
      <trkpt lat="44.18513" lon="0.60396">
        <ele>58</ele>
        <time>2026-02-22T14:48:39.188Z</time>
      </trkpt>
      <trkpt lat="44.18514" lon="0.60395">
        <ele>58</ele>
        <time>2026-02-22T14:48:40.188Z</time>
      </trkpt>
      <trkpt lat="44.18516" lon="0.60395">
        <ele>58</ele>
        <time>2026-02-22T14:48:41.188Z</time>
      </trkpt>
      <trkpt lat="44.18517" lon="0.60395">
        <ele>59</ele>
        <time>2026-02-22T14:48:42.188Z</time>
      </trkpt>
      <trkpt lat="44.18518" lon="0.60396">
        <ele>59</ele>
        <time>2026-02-22T14:48:43.188Z</time>
      </trkpt>
      <trkpt lat="44.1852" lon="0.60397">
        <ele>59</ele>
        <time>2026-02-22T14:48:44.188Z</time>
      </trkpt>
      <trkpt lat="44.18521" lon="0.60399">
        <ele>59</ele>
        <time>2026-02-22T14:48:45.188Z</time>
      </trkpt>
      <trkpt lat="44.18522" lon="0.604">
        <ele>59</ele>
        <time>2026-02-22T14:48:46.188Z</time>
      </trkpt>
      <trkpt lat="44.18523" lon="0.60402">
        <ele>59</ele>
        <time>2026-02-22T14:48:47.188Z</time>
      </trkpt>
      <trkpt lat="44.18524" lon="0.60404">
        <ele>59</ele>
        <time>2026-02-22T14:48:48.188Z</time>
      </trkpt>
      <trkpt lat="44.18525" lon="0.60407">
        <ele>60</ele>
        <time>2026-02-22T14:48:49.189Z</time>
      </trkpt>
      <trkpt lat="44.18526" lon="0.60409">
        <ele>60</ele>
        <time>2026-02-22T14:48:50.188Z</time>
      </trkpt>
      <trkpt lat="44.18526" lon="0.60411">
        <ele>61</ele>
        <time>2026-02-22T14:48:51.188Z</time>
      </trkpt>
      <trkpt lat="44.18528" lon="0.60413">
        <ele>62</ele>
        <time>2026-02-22T14:48:52.188Z</time>
      </trkpt>
      <trkpt lat="44.18529" lon="0.60415">
        <ele>62</ele>
        <time>2026-02-22T14:48:53.188Z</time>
      </trkpt>
      <trkpt lat="44.18529" lon="0.60417">
        <ele>62</ele>
        <time>2026-02-22T14:48:54.188Z</time>
      </trkpt>
      <trkpt lat="44.1853" lon="0.60419">
        <ele>62</ele>
        <time>2026-02-22T14:48:55.188Z</time>
      </trkpt>
      <trkpt lat="44.18531" lon="0.60421">
        <ele>62</ele>
        <time>2026-02-22T14:48:56.188Z</time>
      </trkpt>
      <trkpt lat="44.18531" lon="0.60423">
        <ele>63</ele>
        <time>2026-02-22T14:48:57.188Z</time>
      </trkpt>
      <trkpt lat="44.18531" lon="0.60424">
        <ele>62</ele>
        <time>2026-02-22T14:48:58.188Z</time>
      </trkpt>
      <trkpt lat="44.18532" lon="0.60426">
        <ele>62</ele>
        <time>2026-02-22T14:48:59.188Z</time>
      </trkpt>
      <trkpt lat="44.18532" lon="0.60427">
        <ele>62</ele>
        <time>2026-02-22T14:49:00.189Z</time>
      </trkpt>
      <trkpt lat="44.18532" lon="0.60429">
        <ele>62</ele>
        <time>2026-02-22T14:49:01.189Z</time>
      </trkpt>
      <trkpt lat="44.18532" lon="0.60431">
        <ele>62</ele>
        <time>2026-02-22T14:49:02.188Z</time>
      </trkpt>
      <trkpt lat="44.18533" lon="0.60432">
        <ele>62</ele>
        <time>2026-02-22T14:49:03.188Z</time>
      </trkpt>
      <trkpt lat="44.18534" lon="0.60434">
        <ele>61</ele>
        <time>2026-02-22T14:49:04.189Z</time>
      </trkpt>
      <trkpt lat="44.18534" lon="0.60436">
        <ele>61</ele>
        <time>2026-02-22T14:49:05.188Z</time>
      </trkpt>
      <trkpt lat="44.18535" lon="0.60438">
        <ele>61</ele>
        <time>2026-02-22T14:49:06.188Z</time>
      </trkpt>
      <trkpt lat="44.18536" lon="0.60439">
        <ele>61</ele>
        <time>2026-02-22T14:49:07.188Z</time>
      </trkpt>
      <trkpt lat="44.18536" lon="0.60441">
        <ele>60</ele>
        <time>2026-02-22T14:49:08.188Z</time>
      </trkpt>
      <trkpt lat="44.18537" lon="0.60442">
        <ele>60</ele>
        <time>2026-02-22T14:49:09.188Z</time>
      </trkpt>
      <trkpt lat="44.18537" lon="0.60444">
        <ele>60</ele>
        <time>2026-02-22T14:49:10.188Z</time>
      </trkpt>
      <trkpt lat="44.18538" lon="0.60445">
        <ele>60</ele>
        <time>2026-02-22T14:49:11.188Z</time>
      </trkpt>
      <trkpt lat="44.18538" lon="0.60447">
        <ele>60</ele>
        <time>2026-02-22T14:49:12.188Z</time>
      </trkpt>
      <trkpt lat="44.18539" lon="0.60449">
        <ele>60</ele>
        <time>2026-02-22T14:49:13.188Z</time>
      </trkpt>
      <trkpt lat="44.18539" lon="0.6045">
        <ele>60</ele>
        <time>2026-02-22T14:49:14.188Z</time>
      </trkpt>
      <trkpt lat="44.1854" lon="0.60452">
        <ele>59</ele>
        <time>2026-02-22T14:49:15.188Z</time>
      </trkpt>
      <trkpt lat="44.18541" lon="0.60454">
        <ele>59</ele>
        <time>2026-02-22T14:49:16.188Z</time>
      </trkpt>
      <trkpt lat="44.18542" lon="0.60455">
        <ele>59</ele>
        <time>2026-02-22T14:49:17.188Z</time>
      </trkpt>
      <trkpt lat="44.18543" lon="0.60457">
        <ele>58</ele>
        <time>2026-02-22T14:49:18.188Z</time>
      </trkpt>
      <trkpt lat="44.18543" lon="0.60459">
        <ele>58</ele>
        <time>2026-02-22T14:49:19.189Z</time>
      </trkpt>
      <trkpt lat="44.18544" lon="0.6046">
        <ele>58</ele>
        <time>2026-02-22T14:49:20.188Z</time>
      </trkpt>
      <trkpt lat="44.18544" lon="0.60461">
        <ele>57</ele>
        <time>2026-02-22T14:49:21.188Z</time>
      </trkpt>
      <trkpt lat="44.18545" lon="0.60463">
        <ele>57</ele>
        <time>2026-02-22T14:49:22.188Z</time>
      </trkpt>
      <trkpt lat="44.18545" lon="0.60464">
        <ele>57</ele>
        <time>2026-02-22T14:49:23.188Z</time>
      </trkpt>
      <trkpt lat="44.18546" lon="0.60466">
        <ele>57</ele>
        <time>2026-02-22T14:49:24.188Z</time>
      </trkpt>
      <trkpt lat="44.18547" lon="0.60467">
        <ele>57</ele>
        <time>2026-02-22T14:49:25.188Z</time>
      </trkpt>
      <trkpt lat="44.18547" lon="0.60469">
        <ele>56</ele>
        <time>2026-02-22T14:49:26.188Z</time>
      </trkpt>
      <trkpt lat="44.18548" lon="0.6047">
        <ele>55</ele>
        <time>2026-02-22T14:49:27.188Z</time>
      </trkpt>
      <trkpt lat="44.18549" lon="0.60471">
        <ele>55</ele>
        <time>2026-02-22T14:49:28.188Z</time>
      </trkpt>
      <trkpt lat="44.1855" lon="0.60473">
        <ele>55</ele>
        <time>2026-02-22T14:49:29.188Z</time>
      </trkpt>
      <trkpt lat="44.18551" lon="0.60474">
        <ele>55</ele>
        <time>2026-02-22T14:49:30.189Z</time>
      </trkpt>
      <trkpt lat="44.18552" lon="0.60475">
        <ele>55</ele>
        <time>2026-02-22T14:49:31.188Z</time>
      </trkpt>
      <trkpt lat="44.18553" lon="0.60477">
        <ele>55</ele>
        <time>2026-02-22T14:49:32.189Z</time>
      </trkpt>
      <trkpt lat="44.18553" lon="0.60478">
        <ele>54</ele>
        <time>2026-02-22T14:49:33.188Z</time>
      </trkpt>
      <trkpt lat="44.18554" lon="0.60479">
        <ele>54</ele>
        <time>2026-02-22T14:49:34.188Z</time>
      </trkpt>
      <trkpt lat="44.18555" lon="0.6048">
        <ele>54</ele>
        <time>2026-02-22T14:49:35.188Z</time>
      </trkpt>
      <trkpt lat="44.18556" lon="0.60481">
        <ele>54</ele>
        <time>2026-02-22T14:49:36.188Z</time>
      </trkpt>
      <trkpt lat="44.18557" lon="0.60483">
        <ele>54</ele>
        <time>2026-02-22T14:49:37.188Z</time>
      </trkpt>
      <trkpt lat="44.18558" lon="0.60484">
        <ele>53</ele>
        <time>2026-02-22T14:49:38.189Z</time>
      </trkpt>
      <trkpt lat="44.18559" lon="0.60485">
        <ele>54</ele>
        <time>2026-02-22T14:49:39.188Z</time>
      </trkpt>
      <trkpt lat="44.1856" lon="0.60486">
        <ele>54</ele>
        <time>2026-02-22T14:49:40.188Z</time>
      </trkpt>
      <trkpt lat="44.18561" lon="0.60488">
        <ele>54</ele>
        <time>2026-02-22T14:49:41.188Z</time>
      </trkpt>
      <trkpt lat="44.18562" lon="0.60489">
        <ele>54</ele>
        <time>2026-02-22T14:49:42.188Z</time>
      </trkpt>
      <trkpt lat="44.18562" lon="0.6049">
        <ele>54</ele>
        <time>2026-02-22T14:49:43.188Z</time>
      </trkpt>
      <trkpt lat="44.18563" lon="0.60491">
        <ele>54</ele>
        <time>2026-02-22T14:49:44.188Z</time>
      </trkpt>
      <trkpt lat="44.18564" lon="0.60492">
        <ele>54</ele>
        <time>2026-02-22T14:49:45.188Z</time>
      </trkpt>
      <trkpt lat="44.18565" lon="0.60492">
        <ele>53</ele>
        <time>2026-02-22T14:49:46.188Z</time>
      </trkpt>
      <trkpt lat="44.18567" lon="0.60493">
        <ele>53</ele>
        <time>2026-02-22T14:49:47.189Z</time>
      </trkpt>
      <trkpt lat="44.18568" lon="0.60493">
        <ele>53</ele>
        <time>2026-02-22T14:49:48.188Z</time>
      </trkpt>
      <trkpt lat="44.18569" lon="0.60494">
        <ele>53</ele>
        <time>2026-02-22T14:49:49.188Z</time>
      </trkpt>
      <trkpt lat="44.1857" lon="0.60495">
        <ele>53</ele>
        <time>2026-02-22T14:49:50.188Z</time>
      </trkpt>
      <trkpt lat="44.18572" lon="0.60495">
        <ele>53</ele>
        <time>2026-02-22T14:49:51.188Z</time>
      </trkpt>
      <trkpt lat="44.18573" lon="0.60496">
        <ele>53</ele>
        <time>2026-02-22T14:49:52.188Z</time>
      </trkpt>
      <trkpt lat="44.18574" lon="0.60497">
        <ele>53</ele>
        <time>2026-02-22T14:49:53.188Z</time>
      </trkpt>
      <trkpt lat="44.18575" lon="0.60497">
        <ele>53</ele>
        <time>2026-02-22T14:49:54.188Z</time>
      </trkpt>
      <trkpt lat="44.18575" lon="0.60498">
        <ele>52</ele>
        <time>2026-02-22T14:49:55.188Z</time>
      </trkpt>
      <trkpt lat="44.18576" lon="0.60498">
        <ele>52</ele>
        <time>2026-02-22T14:49:56.188Z</time>
      </trkpt>
      <trkpt lat="44.18578" lon="0.60498">
        <ele>53</ele>
        <time>2026-02-22T14:49:57.188Z</time>
      </trkpt>
      <trkpt lat="44.18579" lon="0.60499">
        <ele>53</ele>
        <time>2026-02-22T14:49:58.188Z</time>
      </trkpt>
      <trkpt lat="44.1858" lon="0.60499">
        <ele>53</ele>
        <time>2026-02-22T14:49:59.188Z</time>
      </trkpt>
      <trkpt lat="44.18581" lon="0.60499">
        <ele>53</ele>
        <time>2026-02-22T14:50:00.189Z</time>
      </trkpt>
      <trkpt lat="44.18582" lon="0.605">
        <ele>53</ele>
        <time>2026-02-22T14:50:01.188Z</time>
      </trkpt>
      <trkpt lat="44.18584" lon="0.605">
        <ele>53</ele>
        <time>2026-02-22T14:50:02.188Z</time>
      </trkpt>
      <trkpt lat="44.18585" lon="0.60501">
        <ele>53</ele>
        <time>2026-02-22T14:50:03.188Z</time>
      </trkpt>
      <trkpt lat="44.18586" lon="0.60501">
        <ele>53</ele>
        <time>2026-02-22T14:50:04.188Z</time>
      </trkpt>
      <trkpt lat="44.18587" lon="0.60502">
        <ele>53</ele>
        <time>2026-02-22T14:50:05.188Z</time>
      </trkpt>
      <trkpt lat="44.18588" lon="0.60503">
        <ele>53</ele>
        <time>2026-02-22T14:50:06.188Z</time>
      </trkpt>
      <trkpt lat="44.18589" lon="0.60504">
        <ele>53</ele>
        <time>2026-02-22T14:50:07.188Z</time>
      </trkpt>
      <trkpt lat="44.1859" lon="0.60505">
        <ele>52</ele>
        <time>2026-02-22T14:50:08.188Z</time>
      </trkpt>
      <trkpt lat="44.18591" lon="0.60505">
        <ele>52</ele>
        <time>2026-02-22T14:50:09.188Z</time>
      </trkpt>
      <trkpt lat="44.18591" lon="0.60506">
        <ele>52</ele>
        <time>2026-02-22T14:50:10.188Z</time>
      </trkpt>
      <trkpt lat="44.18592" lon="0.60506">
        <ele>51</ele>
        <time>2026-02-22T14:50:11.188Z</time>
      </trkpt>
      <trkpt lat="44.18592" lon="0.60507">
        <ele>51</ele>
        <time>2026-02-22T14:50:12.188Z</time>
      </trkpt>
      <trkpt lat="44.18592" lon="0.60507">
        <ele>51</ele>
        <time>2026-02-22T14:50:13.188Z</time>
      </trkpt>
      <trkpt lat="44.18593" lon="0.60507">
        <ele>50</ele>
        <time>2026-02-22T14:50:14.189Z</time>
      </trkpt>
      <trkpt lat="44.18594" lon="0.60507">
        <ele>50</ele>
        <time>2026-02-22T14:50:15.188Z</time>
      </trkpt>
      <trkpt lat="44.18595" lon="0.60507">
        <ele>50</ele>
        <time>2026-02-22T14:50:16.188Z</time>
      </trkpt>
      <trkpt lat="44.18596" lon="0.60508">
        <ele>50</ele>
        <time>2026-02-22T14:50:17.188Z</time>
      </trkpt>
      <trkpt lat="44.18597" lon="0.60508">
        <ele>50</ele>
        <time>2026-02-22T14:50:18.188Z</time>
      </trkpt>
      <trkpt lat="44.18598" lon="0.60508">
        <ele>50</ele>
        <time>2026-02-22T14:50:19.188Z</time>
      </trkpt>
      <trkpt lat="44.18599" lon="0.60509">
        <ele>50</ele>
        <time>2026-02-22T14:50:20.188Z</time>
      </trkpt>
      <trkpt lat="44.186" lon="0.6051">
        <ele>50</ele>
        <time>2026-02-22T14:50:21.188Z</time>
      </trkpt>
      <trkpt lat="44.186" lon="0.60511">
        <ele>49</ele>
        <time>2026-02-22T14:50:22.188Z</time>
      </trkpt>
      <trkpt lat="44.186" lon="0.60511">
        <ele>49</ele>
        <time>2026-02-22T14:50:23.188Z</time>
      </trkpt>
      <trkpt lat="44.18601" lon="0.60512">
        <ele>49</ele>
        <time>2026-02-22T14:50:24.188Z</time>
      </trkpt>
      <trkpt lat="44.18601" lon="0.60512">
        <ele>49</ele>
        <time>2026-02-22T14:50:25.188Z</time>
      </trkpt>
      <trkpt lat="44.18602" lon="0.60513">
        <ele>49</ele>
        <time>2026-02-22T14:50:26.188Z</time>
      </trkpt>
      <trkpt lat="44.18602" lon="0.60514">
        <ele>49</ele>
        <time>2026-02-22T14:50:27.188Z</time>
      </trkpt>
      <trkpt lat="44.18603" lon="0.60515">
        <ele>49</ele>
        <time>2026-02-22T14:50:28.189Z</time>
      </trkpt>
      <trkpt lat="44.18604" lon="0.60516">
        <ele>49</ele>
        <time>2026-02-22T14:50:29.188Z</time>
      </trkpt>
      <trkpt lat="44.18605" lon="0.60517">
        <ele>50</ele>
        <time>2026-02-22T14:50:30.188Z</time>
      </trkpt>
      <trkpt lat="44.18606" lon="0.60518">
        <ele>50</ele>
        <time>2026-02-22T14:50:31.188Z</time>
      </trkpt>
      <trkpt lat="44.18607" lon="0.60519">
        <ele>50</ele>
        <time>2026-02-22T14:50:32.188Z</time>
      </trkpt>
      <trkpt lat="44.18608" lon="0.60521">
        <ele>50</ele>
        <time>2026-02-22T14:50:33.188Z</time>
      </trkpt>
      <trkpt lat="44.18609" lon="0.60522">
        <ele>50</ele>
        <time>2026-02-22T14:50:34.188Z</time>
      </trkpt>
      <trkpt lat="44.1861" lon="0.60523">
        <ele>50</ele>
        <time>2026-02-22T14:50:35.188Z</time>
      </trkpt>
      <trkpt lat="44.1861" lon="0.60524">
        <ele>50</ele>
        <time>2026-02-22T14:50:36.188Z</time>
      </trkpt>
      <trkpt lat="44.18611" lon="0.60526">
        <ele>50</ele>
        <time>2026-02-22T14:50:37.188Z</time>
      </trkpt>
      <trkpt lat="44.18612" lon="0.60527">
        <ele>50</ele>
        <time>2026-02-22T14:50:38.188Z</time>
      </trkpt>
      <trkpt lat="44.18613" lon="0.60528">
        <ele>50</ele>
        <time>2026-02-22T14:50:39.188Z</time>
      </trkpt>
      <trkpt lat="44.18614" lon="0.6053">
        <ele>50</ele>
        <time>2026-02-22T14:50:40.189Z</time>
      </trkpt>
      <trkpt lat="44.18614" lon="0.60531">
        <ele>50</ele>
        <time>2026-02-22T14:50:41.188Z</time>
      </trkpt>
      <trkpt lat="44.18615" lon="0.60533">
        <ele>50</ele>
        <time>2026-02-22T14:50:42.188Z</time>
      </trkpt>
      <trkpt lat="44.18616" lon="0.60534">
        <ele>50</ele>
        <time>2026-02-22T14:50:43.188Z</time>
      </trkpt>
      <trkpt lat="44.18617" lon="0.60536">
        <ele>50</ele>
        <time>2026-02-22T14:50:44.188Z</time>
      </trkpt>
      <trkpt lat="44.18618" lon="0.60537">
        <ele>50</ele>
        <time>2026-02-22T14:50:45.188Z</time>
      </trkpt>
      <trkpt lat="44.18618" lon="0.60539">
        <ele>51</ele>
        <time>2026-02-22T14:50:46.188Z</time>
      </trkpt>
      <trkpt lat="44.18619" lon="0.6054">
        <ele>51</ele>
        <time>2026-02-22T14:50:47.188Z</time>
      </trkpt>
      <trkpt lat="44.18619" lon="0.60542">
        <ele>51</ele>
        <time>2026-02-22T14:50:48.188Z</time>
      </trkpt>
      <trkpt lat="44.1862" lon="0.60544">
        <ele>51</ele>
        <time>2026-02-22T14:50:49.188Z</time>
      </trkpt>
      <trkpt lat="44.1862" lon="0.60545">
        <ele>51</ele>
        <time>2026-02-22T14:50:50.189Z</time>
      </trkpt>
      <trkpt lat="44.18621" lon="0.60547">
        <ele>50</ele>
        <time>2026-02-22T14:50:51.189Z</time>
      </trkpt>
      <trkpt lat="44.18621" lon="0.60549">
        <ele>50</ele>
        <time>2026-02-22T14:50:52.188Z</time>
      </trkpt>
      <trkpt lat="44.18622" lon="0.6055">
        <ele>51</ele>
        <time>2026-02-22T14:50:53.188Z</time>
      </trkpt>
      <trkpt lat="44.18622" lon="0.60552">
        <ele>51</ele>
        <time>2026-02-22T14:50:54.188Z</time>
      </trkpt>
      <trkpt lat="44.18623" lon="0.60553">
        <ele>51</ele>
        <time>2026-02-22T14:50:55.188Z</time>
      </trkpt>
      <trkpt lat="44.18623" lon="0.60555">
        <ele>51</ele>
        <time>2026-02-22T14:50:56.188Z</time>
      </trkpt>
      <trkpt lat="44.18624" lon="0.60556">
        <ele>51</ele>
        <time>2026-02-22T14:50:57.188Z</time>
      </trkpt>
      <trkpt lat="44.18624" lon="0.60558">
        <ele>51</ele>
        <time>2026-02-22T14:50:58.189Z</time>
      </trkpt>
      <trkpt lat="44.18625" lon="0.6056">
        <ele>51</ele>
        <time>2026-02-22T14:50:59.188Z</time>
      </trkpt>
      <trkpt lat="44.18625" lon="0.60561">
        <ele>51</ele>
        <time>2026-02-22T14:51:00.189Z</time>
      </trkpt>
      <trkpt lat="44.18625" lon="0.60563">
        <ele>51</ele>
        <time>2026-02-22T14:51:01.188Z</time>
      </trkpt>
      <trkpt lat="44.18626" lon="0.60564">
        <ele>51</ele>
        <time>2026-02-22T14:51:02.188Z</time>
      </trkpt>
      <trkpt lat="44.18626" lon="0.60566">
        <ele>51</ele>
        <time>2026-02-22T14:51:03.188Z</time>
      </trkpt>
      <trkpt lat="44.18627" lon="0.60567">
        <ele>51</ele>
        <time>2026-02-22T14:51:04.188Z</time>
      </trkpt>
      <trkpt lat="44.18628" lon="0.60568">
        <ele>51</ele>
        <time>2026-02-22T14:51:05.188Z</time>
      </trkpt>
      <trkpt lat="44.18628" lon="0.6057">
        <ele>51</ele>
        <time>2026-02-22T14:51:06.188Z</time>
      </trkpt>
      <trkpt lat="44.18629" lon="0.60572">
        <ele>51</ele>
        <time>2026-02-22T14:51:07.188Z</time>
      </trkpt>
      <trkpt lat="44.1863" lon="0.60573">
        <ele>51</ele>
        <time>2026-02-22T14:51:08.188Z</time>
      </trkpt>
      <trkpt lat="44.1863" lon="0.60575">
        <ele>51</ele>
        <time>2026-02-22T14:51:09.188Z</time>
      </trkpt>
      <trkpt lat="44.1863" lon="0.60577">
        <ele>51</ele>
        <time>2026-02-22T14:51:10.188Z</time>
      </trkpt>
      <trkpt lat="44.1863" lon="0.60579">
        <ele>51</ele>
        <time>2026-02-22T14:51:11.188Z</time>
      </trkpt>
      <trkpt lat="44.18631" lon="0.6058">
        <ele>51</ele>
        <time>2026-02-22T14:51:12.188Z</time>
      </trkpt>
      <trkpt lat="44.18631" lon="0.60582">
        <ele>51</ele>
        <time>2026-02-22T14:51:13.188Z</time>
      </trkpt>
      <trkpt lat="44.18631" lon="0.60584">
        <ele>51</ele>
        <time>2026-02-22T14:51:14.188Z</time>
      </trkpt>
      <trkpt lat="44.18632" lon="0.60585">
        <ele>51</ele>
        <time>2026-02-22T14:51:15.188Z</time>
      </trkpt>
      <trkpt lat="44.18632" lon="0.60587">
        <ele>50</ele>
        <time>2026-02-22T14:51:16.188Z</time>
      </trkpt>
      <trkpt lat="44.18633" lon="0.60588">
        <ele>50</ele>
        <time>2026-02-22T14:51:17.188Z</time>
      </trkpt>
      <trkpt lat="44.18633" lon="0.6059">
        <ele>50</ele>
        <time>2026-02-22T14:51:18.188Z</time>
      </trkpt>
      <trkpt lat="44.18633" lon="0.60592">
        <ele>50</ele>
        <time>2026-02-22T14:51:19.188Z</time>
      </trkpt>
      <trkpt lat="44.18634" lon="0.60594">
        <ele>50</ele>
        <time>2026-02-22T14:51:20.188Z</time>
      </trkpt>
      <trkpt lat="44.18634" lon="0.60596">
        <ele>50</ele>
        <time>2026-02-22T14:51:21.188Z</time>
      </trkpt>
      <trkpt lat="44.18634" lon="0.60597">
        <ele>50</ele>
        <time>2026-02-22T14:51:22.188Z</time>
      </trkpt>
      <trkpt lat="44.18635" lon="0.60599">
        <ele>50</ele>
        <time>2026-02-22T14:51:23.188Z</time>
      </trkpt>
      <trkpt lat="44.18635" lon="0.606">
        <ele>50</ele>
        <time>2026-02-22T14:51:24.188Z</time>
      </trkpt>
      <trkpt lat="44.18635" lon="0.60602">
        <ele>49</ele>
        <time>2026-02-22T14:51:25.188Z</time>
      </trkpt>
      <trkpt lat="44.18635" lon="0.60603">
        <ele>49</ele>
        <time>2026-02-22T14:51:26.189Z</time>
      </trkpt>
      <trkpt lat="44.18636" lon="0.60605">
        <ele>49</ele>
        <time>2026-02-22T14:51:27.189Z</time>
      </trkpt>
      <trkpt lat="44.18636" lon="0.60607">
        <ele>49</ele>
        <time>2026-02-22T14:51:28.188Z</time>
      </trkpt>
      <trkpt lat="44.18636" lon="0.60609">
        <ele>50</ele>
        <time>2026-02-22T14:51:29.188Z</time>
      </trkpt>
      <trkpt lat="44.18637" lon="0.6061">
        <ele>49</ele>
        <time>2026-02-22T14:51:30.189Z</time>
      </trkpt>
      <trkpt lat="44.18637" lon="0.60612">
        <ele>49</ele>
        <time>2026-02-22T14:51:31.188Z</time>
      </trkpt>
      <trkpt lat="44.18638" lon="0.60614">
        <ele>49</ele>
        <time>2026-02-22T14:51:32.188Z</time>
      </trkpt>
      <trkpt lat="44.18638" lon="0.60615">
        <ele>49</ele>
        <time>2026-02-22T14:51:33.188Z</time>
      </trkpt>
      <trkpt lat="44.18638" lon="0.60617">
        <ele>48</ele>
        <time>2026-02-22T14:51:34.188Z</time>
      </trkpt>
      <trkpt lat="44.18639" lon="0.60618">
        <ele>48</ele>
        <time>2026-02-22T14:51:35.188Z</time>
      </trkpt>
      <trkpt lat="44.18639" lon="0.6062">
        <ele>48</ele>
        <time>2026-02-22T14:51:36.188Z</time>
      </trkpt>
      <trkpt lat="44.18639" lon="0.60622">
        <ele>48</ele>
        <time>2026-02-22T14:51:37.188Z</time>
      </trkpt>
      <trkpt lat="44.1864" lon="0.60624">
        <ele>48</ele>
        <time>2026-02-22T14:51:38.188Z</time>
      </trkpt>
      <trkpt lat="44.18641" lon="0.60625">
        <ele>49</ele>
        <time>2026-02-22T14:51:39.188Z</time>
      </trkpt>
      <trkpt lat="44.18641" lon="0.60627">
        <ele>49</ele>
        <time>2026-02-22T14:51:40.188Z</time>
      </trkpt>
      <trkpt lat="44.18641" lon="0.60628">
        <ele>49</ele>
        <time>2026-02-22T14:51:41.188Z</time>
      </trkpt>
      <trkpt lat="44.18642" lon="0.6063">
        <ele>49</ele>
        <time>2026-02-22T14:51:42.188Z</time>
      </trkpt>
      <trkpt lat="44.18642" lon="0.60631">
        <ele>49</ele>
        <time>2026-02-22T14:51:43.188Z</time>
      </trkpt>
      <trkpt lat="44.18642" lon="0.60633">
        <ele>49</ele>
        <time>2026-02-22T14:51:44.188Z</time>
      </trkpt>
      <trkpt lat="44.18643" lon="0.60634">
        <ele>49</ele>
        <time>2026-02-22T14:51:45.189Z</time>
      </trkpt>
      <trkpt lat="44.18644" lon="0.60636">
        <ele>49</ele>
        <time>2026-02-22T14:51:46.188Z</time>
      </trkpt>
      <trkpt lat="44.18644" lon="0.60638">
        <ele>50</ele>
        <time>2026-02-22T14:51:47.188Z</time>
      </trkpt>
      <trkpt lat="44.18645" lon="0.6064">
        <ele>50</ele>
        <time>2026-02-22T14:51:48.188Z</time>
      </trkpt>
      <trkpt lat="44.18645" lon="0.60641">
        <ele>50</ele>
        <time>2026-02-22T14:51:49.188Z</time>
      </trkpt>
      <trkpt lat="44.18646" lon="0.60643">
        <ele>50</ele>
        <time>2026-02-22T14:51:50.188Z</time>
      </trkpt>
      <trkpt lat="44.18647" lon="0.60644">
        <ele>50</ele>
        <time>2026-02-22T14:51:51.188Z</time>
      </trkpt>
      <trkpt lat="44.18647" lon="0.60646">
        <ele>50</ele>
        <time>2026-02-22T14:51:52.188Z</time>
      </trkpt>
      <trkpt lat="44.18647" lon="0.60647">
        <ele>50</ele>
        <time>2026-02-22T14:51:53.188Z</time>
      </trkpt>
      <trkpt lat="44.18648" lon="0.60649">
        <ele>50</ele>
        <time>2026-02-22T14:51:54.188Z</time>
      </trkpt>
      <trkpt lat="44.18648" lon="0.60651">
        <ele>50</ele>
        <time>2026-02-22T14:51:55.188Z</time>
      </trkpt>
      <trkpt lat="44.18649" lon="0.60652">
        <ele>50</ele>
        <time>2026-02-22T14:51:56.188Z</time>
      </trkpt>
      <trkpt lat="44.18649" lon="0.60654">
        <ele>50</ele>
        <time>2026-02-22T14:51:57.188Z</time>
      </trkpt>
      <trkpt lat="44.18649" lon="0.60656">
        <ele>50</ele>
        <time>2026-02-22T14:51:58.188Z</time>
      </trkpt>
      <trkpt lat="44.18649" lon="0.60657">
        <ele>50</ele>
        <time>2026-02-22T14:51:59.188Z</time>
      </trkpt>
      <trkpt lat="44.1865" lon="0.60658">
        <ele>50</ele>
        <time>2026-02-22T14:52:00.188Z</time>
      </trkpt>
      <trkpt lat="44.1865" lon="0.6066">
        <ele>50</ele>
        <time>2026-02-22T14:52:01.188Z</time>
      </trkpt>
      <trkpt lat="44.1865" lon="0.60661">
        <ele>49</ele>
        <time>2026-02-22T14:52:02.189Z</time>
      </trkpt>
      <trkpt lat="44.1865" lon="0.60663">
        <ele>49</ele>
        <time>2026-02-22T14:52:03.188Z</time>
      </trkpt>
      <trkpt lat="44.18651" lon="0.60664">
        <ele>48</ele>
        <time>2026-02-22T14:52:04.188Z</time>
      </trkpt>
      <trkpt lat="44.18651" lon="0.60666">
        <ele>48</ele>
        <time>2026-02-22T14:52:05.188Z</time>
      </trkpt>
      <trkpt lat="44.18651" lon="0.60668">
        <ele>47</ele>
        <time>2026-02-22T14:52:06.188Z</time>
      </trkpt>
      <trkpt lat="44.18652" lon="0.60669">
        <ele>47</ele>
        <time>2026-02-22T14:52:07.188Z</time>
      </trkpt>
      <trkpt lat="44.18652" lon="0.60671">
        <ele>47</ele>
        <time>2026-02-22T14:52:08.188Z</time>
      </trkpt>
      <trkpt lat="44.18653" lon="0.60672">
        <ele>47</ele>
        <time>2026-02-22T14:52:09.188Z</time>
      </trkpt>
      <trkpt lat="44.18653" lon="0.60674">
        <ele>47</ele>
        <time>2026-02-22T14:52:10.188Z</time>
      </trkpt>
      <trkpt lat="44.18653" lon="0.60675">
        <ele>47</ele>
        <time>2026-02-22T14:52:11.188Z</time>
      </trkpt>
      <trkpt lat="44.18654" lon="0.60677">
        <ele>47</ele>
        <time>2026-02-22T14:52:12.188Z</time>
      </trkpt>
      <trkpt lat="44.18654" lon="0.60679">
        <ele>47</ele>
        <time>2026-02-22T14:52:13.188Z</time>
      </trkpt>
      <trkpt lat="44.18655" lon="0.60681">
        <ele>48</ele>
        <time>2026-02-22T14:52:14.188Z</time>
      </trkpt>
      <trkpt lat="44.18655" lon="0.60682">
        <ele>47</ele>
        <time>2026-02-22T14:52:15.188Z</time>
      </trkpt>
      <trkpt lat="44.18656" lon="0.60684">
        <ele>47</ele>
        <time>2026-02-22T14:52:16.188Z</time>
      </trkpt>
      <trkpt lat="44.18656" lon="0.60686">
        <ele>48</ele>
        <time>2026-02-22T14:52:17.188Z</time>
      </trkpt>
      <trkpt lat="44.18657" lon="0.60687">
        <ele>48</ele>
        <time>2026-02-22T14:52:18.188Z</time>
      </trkpt>
      <trkpt lat="44.18657" lon="0.60689">
        <ele>48</ele>
        <time>2026-02-22T14:52:19.188Z</time>
      </trkpt>
      <trkpt lat="44.18657" lon="0.6069">
        <ele>48</ele>
        <time>2026-02-22T14:52:20.188Z</time>
      </trkpt>
      <trkpt lat="44.18657" lon="0.60692">
        <ele>48</ele>
        <time>2026-02-22T14:52:21.188Z</time>
      </trkpt>
      <trkpt lat="44.18658" lon="0.60694">
        <ele>48</ele>
        <time>2026-02-22T14:52:22.189Z</time>
      </trkpt>
      <trkpt lat="44.18658" lon="0.60696">
        <ele>48</ele>
        <time>2026-02-22T14:52:23.188Z</time>
      </trkpt>
      <trkpt lat="44.18659" lon="0.60697">
        <ele>48</ele>
        <time>2026-02-22T14:52:24.188Z</time>
      </trkpt>
      <trkpt lat="44.18659" lon="0.60699">
        <ele>48</ele>
        <time>2026-02-22T14:52:25.188Z</time>
      </trkpt>
      <trkpt lat="44.1866" lon="0.60701">
        <ele>48</ele>
        <time>2026-02-22T14:52:26.188Z</time>
      </trkpt>
      <trkpt lat="44.1866" lon="0.60703">
        <ele>48</ele>
        <time>2026-02-22T14:52:27.188Z</time>
      </trkpt>
      <trkpt lat="44.18661" lon="0.60704">
        <ele>48</ele>
        <time>2026-02-22T14:52:28.188Z</time>
      </trkpt>
      <trkpt lat="44.18661" lon="0.60706">
        <ele>48</ele>
        <time>2026-02-22T14:52:29.188Z</time>
      </trkpt>
      <trkpt lat="44.18661" lon="0.60707">
        <ele>48</ele>
        <time>2026-02-22T14:52:30.188Z</time>
      </trkpt>
      <trkpt lat="44.18661" lon="0.60709">
        <ele>48</ele>
        <time>2026-02-22T14:52:31.188Z</time>
      </trkpt>
      <trkpt lat="44.18662" lon="0.6071">
        <ele>48</ele>
        <time>2026-02-22T14:52:32.188Z</time>
      </trkpt>
      <trkpt lat="44.18662" lon="0.60712">
        <ele>48</ele>
        <time>2026-02-22T14:52:33.188Z</time>
      </trkpt>
      <trkpt lat="44.18663" lon="0.60714">
        <ele>47</ele>
        <time>2026-02-22T14:52:34.188Z</time>
      </trkpt>
      <trkpt lat="44.18663" lon="0.60716">
        <ele>47</ele>
        <time>2026-02-22T14:52:35.188Z</time>
      </trkpt>
      <trkpt lat="44.18663" lon="0.60718">
        <ele>47</ele>
        <time>2026-02-22T14:52:36.188Z</time>
      </trkpt>
      <trkpt lat="44.18664" lon="0.60719">
        <ele>47</ele>
        <time>2026-02-22T14:52:37.188Z</time>
      </trkpt>
      <trkpt lat="44.18664" lon="0.60721">
        <ele>47</ele>
        <time>2026-02-22T14:52:38.189Z</time>
      </trkpt>
      <trkpt lat="44.18665" lon="0.60722">
        <ele>47</ele>
        <time>2026-02-22T14:52:39.188Z</time>
      </trkpt>
      <trkpt lat="44.18665" lon="0.60724">
        <ele>47</ele>
        <time>2026-02-22T14:52:40.188Z</time>
      </trkpt>
      <trkpt lat="44.18665" lon="0.60725">
        <ele>47</ele>
        <time>2026-02-22T14:52:41.188Z</time>
      </trkpt>
      <trkpt lat="44.18666" lon="0.60727">
        <ele>47</ele>
        <time>2026-02-22T14:52:42.188Z</time>
      </trkpt>
      <trkpt lat="44.18666" lon="0.60729">
        <ele>47</ele>
        <time>2026-02-22T14:52:43.188Z</time>
      </trkpt>
      <trkpt lat="44.18666" lon="0.60731">
        <ele>47</ele>
        <time>2026-02-22T14:52:44.188Z</time>
      </trkpt>
      <trkpt lat="44.18667" lon="0.60732">
        <ele>47</ele>
        <time>2026-02-22T14:52:45.188Z</time>
      </trkpt>
      <trkpt lat="44.18667" lon="0.60734">
        <ele>47</ele>
        <time>2026-02-22T14:52:46.188Z</time>
      </trkpt>
      <trkpt lat="44.18667" lon="0.60736">
        <ele>46</ele>
        <time>2026-02-22T14:52:47.188Z</time>
      </trkpt>
      <trkpt lat="44.18667" lon="0.60737">
        <ele>46</ele>
        <time>2026-02-22T14:52:48.188Z</time>
      </trkpt>
      <trkpt lat="44.18668" lon="0.60738">
        <ele>46</ele>
        <time>2026-02-22T14:52:49.188Z</time>
      </trkpt>
      <trkpt lat="44.18668" lon="0.60739">
        <ele>46</ele>
        <time>2026-02-22T14:52:50.188Z</time>
      </trkpt>
      <trkpt lat="44.18668" lon="0.60739">
        <ele>46</ele>
        <time>2026-02-22T14:52:51.188Z</time>
      </trkpt>
      <trkpt lat="44.18669" lon="0.60741">
        <ele>46</ele>
        <time>2026-02-22T14:52:52.188Z</time>
      </trkpt>
      <trkpt lat="44.1867" lon="0.60742">
        <ele>46</ele>
        <time>2026-02-22T14:52:53.188Z</time>
      </trkpt>
      <trkpt lat="44.1867" lon="0.60744">
        <ele>46</ele>
        <time>2026-02-22T14:52:54.188Z</time>
      </trkpt>
      <trkpt lat="44.18671" lon="0.60745">
        <ele>46</ele>
        <time>2026-02-22T14:52:55.188Z</time>
      </trkpt>
      <trkpt lat="44.18671" lon="0.60747">
        <ele>46</ele>
        <time>2026-02-22T14:52:56.188Z</time>
      </trkpt>
      <trkpt lat="44.18672" lon="0.60748">
        <ele>47</ele>
        <time>2026-02-22T14:52:57.188Z</time>
      </trkpt>
      <trkpt lat="44.18672" lon="0.6075">
        <ele>47</ele>
        <time>2026-02-22T14:52:58.188Z</time>
      </trkpt>
      <trkpt lat="44.18672" lon="0.60751">
        <ele>47</ele>
        <time>2026-02-22T14:52:59.188Z</time>
      </trkpt>
      <trkpt lat="44.18673" lon="0.60753">
        <ele>47</ele>
        <time>2026-02-22T14:53:00.188Z</time>
      </trkpt>
      <trkpt lat="44.18673" lon="0.60754">
        <ele>47</ele>
        <time>2026-02-22T14:53:01.188Z</time>
      </trkpt>
      <trkpt lat="44.18674" lon="0.60756">
        <ele>48</ele>
        <time>2026-02-22T14:53:02.188Z</time>
      </trkpt>
      <trkpt lat="44.18674" lon="0.60757">
        <ele>48</ele>
        <time>2026-02-22T14:53:03.188Z</time>
      </trkpt>
      <trkpt lat="44.18675" lon="0.60759">
        <ele>48</ele>
        <time>2026-02-22T14:53:04.188Z</time>
      </trkpt>
      <trkpt lat="44.18675" lon="0.6076">
        <ele>48</ele>
        <time>2026-02-22T14:53:05.188Z</time>
      </trkpt>
      <trkpt lat="44.18675" lon="0.60761">
        <ele>48</ele>
        <time>2026-02-22T14:53:06.188Z</time>
      </trkpt>
      <trkpt lat="44.18676" lon="0.60762">
        <ele>48</ele>
        <time>2026-02-22T14:53:07.189Z</time>
      </trkpt>
      <trkpt lat="44.18676" lon="0.60763">
        <ele>49</ele>
        <time>2026-02-22T14:53:08.188Z</time>
      </trkpt>
      <trkpt lat="44.18677" lon="0.60765">
        <ele>49</ele>
        <time>2026-02-22T14:53:09.188Z</time>
      </trkpt>
      <trkpt lat="44.18677" lon="0.60766">
        <ele>49</ele>
        <time>2026-02-22T14:53:10.188Z</time>
      </trkpt>
      <trkpt lat="44.18677" lon="0.60767">
        <ele>49</ele>
        <time>2026-02-22T14:53:11.188Z</time>
      </trkpt>
      <trkpt lat="44.18678" lon="0.60769">
        <ele>49</ele>
        <time>2026-02-22T14:53:12.189Z</time>
      </trkpt>
      <trkpt lat="44.18678" lon="0.60771">
        <ele>48</ele>
        <time>2026-02-22T14:53:13.188Z</time>
      </trkpt>
      <trkpt lat="44.18678" lon="0.60773">
        <ele>48</ele>
        <time>2026-02-22T14:53:14.189Z</time>
      </trkpt>
      <trkpt lat="44.18679" lon="0.60774">
        <ele>48</ele>
        <time>2026-02-22T14:53:15.189Z</time>
      </trkpt>
      <trkpt lat="44.18679" lon="0.60775">
        <ele>48</ele>
        <time>2026-02-22T14:53:16.188Z</time>
      </trkpt>
      <trkpt lat="44.18679" lon="0.60777">
        <ele>48</ele>
        <time>2026-02-22T14:53:17.188Z</time>
      </trkpt>
      <trkpt lat="44.1868" lon="0.60778">
        <ele>47</ele>
        <time>2026-02-22T14:53:18.188Z</time>
      </trkpt>
      <trkpt lat="44.1868" lon="0.6078">
        <ele>47</ele>
        <time>2026-02-22T14:53:19.188Z</time>
      </trkpt>
      <trkpt lat="44.1868" lon="0.60781">
        <ele>47</ele>
        <time>2026-02-22T14:53:20.188Z</time>
      </trkpt>
      <trkpt lat="44.18681" lon="0.60783">
        <ele>47</ele>
        <time>2026-02-22T14:53:21.188Z</time>
      </trkpt>
      <trkpt lat="44.18681" lon="0.60785">
        <ele>47</ele>
        <time>2026-02-22T14:53:22.189Z</time>
      </trkpt>
      <trkpt lat="44.18682" lon="0.60786">
        <ele>47</ele>
        <time>2026-02-22T14:53:23.188Z</time>
      </trkpt>
      <trkpt lat="44.18682" lon="0.60788">
        <ele>47</ele>
        <time>2026-02-22T14:53:24.188Z</time>
      </trkpt>
      <trkpt lat="44.18683" lon="0.60789">
        <ele>47</ele>
        <time>2026-02-22T14:53:25.188Z</time>
      </trkpt>
      <trkpt lat="44.18683" lon="0.60791">
        <ele>47</ele>
        <time>2026-02-22T14:53:26.188Z</time>
      </trkpt>
      <trkpt lat="44.18684" lon="0.60793">
        <ele>48</ele>
        <time>2026-02-22T14:53:27.188Z</time>
      </trkpt>
      <trkpt lat="44.18684" lon="0.60795">
        <ele>48</ele>
        <time>2026-02-22T14:53:28.188Z</time>
      </trkpt>
      <trkpt lat="44.18685" lon="0.60796">
        <ele>48</ele>
        <time>2026-02-22T14:53:29.188Z</time>
      </trkpt>
      <trkpt lat="44.18685" lon="0.60798">
        <ele>48</ele>
        <time>2026-02-22T14:53:30.188Z</time>
      </trkpt>
      <trkpt lat="44.18685" lon="0.60799">
        <ele>48</ele>
        <time>2026-02-22T14:53:31.188Z</time>
      </trkpt>
      <trkpt lat="44.18686" lon="0.60801">
        <ele>48</ele>
        <time>2026-02-22T14:53:32.188Z</time>
      </trkpt>
      <trkpt lat="44.18686" lon="0.60803">
        <ele>48</ele>
        <time>2026-02-22T14:53:33.188Z</time>
      </trkpt>
      <trkpt lat="44.18686" lon="0.60805">
        <ele>48</ele>
        <time>2026-02-22T14:53:34.188Z</time>
      </trkpt>
      <trkpt lat="44.18687" lon="0.60807">
        <ele>48</ele>
        <time>2026-02-22T14:53:35.188Z</time>
      </trkpt>
      <trkpt lat="44.18687" lon="0.60808">
        <ele>48</ele>
        <time>2026-02-22T14:53:36.188Z</time>
      </trkpt>
      <trkpt lat="44.18688" lon="0.6081">
        <ele>48</ele>
        <time>2026-02-22T14:53:37.189Z</time>
      </trkpt>
      <trkpt lat="44.18688" lon="0.60812">
        <ele>48</ele>
        <time>2026-02-22T14:53:38.188Z</time>
      </trkpt>
      <trkpt lat="44.18689" lon="0.60813">
        <ele>48</ele>
        <time>2026-02-22T14:53:39.188Z</time>
      </trkpt>
      <trkpt lat="44.18689" lon="0.60815">
        <ele>48</ele>
        <time>2026-02-22T14:53:40.188Z</time>
      </trkpt>
      <trkpt lat="44.18689" lon="0.60816">
        <ele>48</ele>
        <time>2026-02-22T14:53:41.188Z</time>
      </trkpt>
      <trkpt lat="44.1869" lon="0.60818">
        <ele>48</ele>
        <time>2026-02-22T14:53:42.188Z</time>
      </trkpt>
      <trkpt lat="44.1869" lon="0.6082">
        <ele>48</ele>
        <time>2026-02-22T14:53:43.188Z</time>
      </trkpt>
      <trkpt lat="44.18691" lon="0.60821">
        <ele>48</ele>
        <time>2026-02-22T14:53:44.188Z</time>
      </trkpt>
      <trkpt lat="44.18691" lon="0.60823">
        <ele>48</ele>
        <time>2026-02-22T14:53:45.188Z</time>
      </trkpt>
      <trkpt lat="44.18692" lon="0.60825">
        <ele>48</ele>
        <time>2026-02-22T14:53:46.188Z</time>
      </trkpt>
      <trkpt lat="44.18692" lon="0.60827">
        <ele>48</ele>
        <time>2026-02-22T14:53:47.188Z</time>
      </trkpt>
      <trkpt lat="44.18693" lon="0.60829">
        <ele>48</ele>
        <time>2026-02-22T14:53:48.188Z</time>
      </trkpt>
      <trkpt lat="44.18694" lon="0.60831">
        <ele>48</ele>
        <time>2026-02-22T14:53:49.188Z</time>
      </trkpt>
      <trkpt lat="44.18694" lon="0.60832">
        <ele>48</ele>
        <time>2026-02-22T14:53:50.188Z</time>
      </trkpt>
      <trkpt lat="44.18695" lon="0.60834">
        <ele>48</ele>
        <time>2026-02-22T14:53:51.188Z</time>
      </trkpt>
      <trkpt lat="44.18696" lon="0.60835">
        <ele>48</ele>
        <time>2026-02-22T14:53:52.188Z</time>
      </trkpt>
      <trkpt lat="44.18696" lon="0.60837">
        <ele>48</ele>
        <time>2026-02-22T14:53:53.188Z</time>
      </trkpt>
      <trkpt lat="44.18697" lon="0.60838">
        <ele>48</ele>
        <time>2026-02-22T14:53:54.188Z</time>
      </trkpt>
      <trkpt lat="44.18698" lon="0.60839">
        <ele>48</ele>
        <time>2026-02-22T14:53:55.188Z</time>
      </trkpt>
      <trkpt lat="44.18698" lon="0.60841">
        <ele>48</ele>
        <time>2026-02-22T14:53:56.188Z</time>
      </trkpt>
      <trkpt lat="44.18698" lon="0.60842">
        <ele>48</ele>
        <time>2026-02-22T14:53:57.188Z</time>
      </trkpt>
      <trkpt lat="44.18699" lon="0.60844">
        <ele>48</ele>
        <time>2026-02-22T14:53:58.188Z</time>
      </trkpt>
      <trkpt lat="44.18699" lon="0.60846">
        <ele>48</ele>
        <time>2026-02-22T14:53:59.188Z</time>
      </trkpt>
      <trkpt lat="44.187" lon="0.60848">
        <ele>48</ele>
        <time>2026-02-22T14:54:00.188Z</time>
      </trkpt>
      <trkpt lat="44.18701" lon="0.60849">
        <ele>48</ele>
        <time>2026-02-22T14:54:01.188Z</time>
      </trkpt>
      <trkpt lat="44.18701" lon="0.60851">
        <ele>47</ele>
        <time>2026-02-22T14:54:02.188Z</time>
      </trkpt>
      <trkpt lat="44.18702" lon="0.60852">
        <ele>47</ele>
        <time>2026-02-22T14:54:03.188Z</time>
      </trkpt>
      <trkpt lat="44.18703" lon="0.60854">
        <ele>47</ele>
        <time>2026-02-22T14:54:04.188Z</time>
      </trkpt>
      <trkpt lat="44.18703" lon="0.60856">
        <ele>47</ele>
        <time>2026-02-22T14:54:05.188Z</time>
      </trkpt>
      <trkpt lat="44.18704" lon="0.60857">
        <ele>48</ele>
        <time>2026-02-22T14:54:06.188Z</time>
      </trkpt>
      <trkpt lat="44.18704" lon="0.60858">
        <ele>48</ele>
        <time>2026-02-22T14:54:07.188Z</time>
      </trkpt>
      <trkpt lat="44.18705" lon="0.6086">
        <ele>48</ele>
        <time>2026-02-22T14:54:08.188Z</time>
      </trkpt>
      <trkpt lat="44.18705" lon="0.60861">
        <ele>48</ele>
        <time>2026-02-22T14:54:09.188Z</time>
      </trkpt>
      <trkpt lat="44.18706" lon="0.60863">
        <ele>48</ele>
        <time>2026-02-22T14:54:10.188Z</time>
      </trkpt>
      <trkpt lat="44.18707" lon="0.60865">
        <ele>48</ele>
        <time>2026-02-22T14:54:11.188Z</time>
      </trkpt>
      <trkpt lat="44.18708" lon="0.60866">
        <ele>49</ele>
        <time>2026-02-22T14:54:12.188Z</time>
      </trkpt>
      <trkpt lat="44.18709" lon="0.60868">
        <ele>49</ele>
        <time>2026-02-22T14:54:13.188Z</time>
      </trkpt>
      <trkpt lat="44.1871" lon="0.6087">
        <ele>50</ele>
        <time>2026-02-22T14:54:14.188Z</time>
      </trkpt>
      <trkpt lat="44.1871" lon="0.60872">
        <ele>50</ele>
        <time>2026-02-22T14:54:15.188Z</time>
      </trkpt>
      <trkpt lat="44.18711" lon="0.60873">
        <ele>50</ele>
        <time>2026-02-22T14:54:16.188Z</time>
      </trkpt>
      <trkpt lat="44.18711" lon="0.60875">
        <ele>50</ele>
        <time>2026-02-22T14:54:17.188Z</time>
      </trkpt>
      <trkpt lat="44.18712" lon="0.60876">
        <ele>49</ele>
        <time>2026-02-22T14:54:18.188Z</time>
      </trkpt>
      <trkpt lat="44.18712" lon="0.60877">
        <ele>49</ele>
        <time>2026-02-22T14:54:19.188Z</time>
      </trkpt>
      <trkpt lat="44.18713" lon="0.60879">
        <ele>49</ele>
        <time>2026-02-22T14:54:20.189Z</time>
      </trkpt>
      <trkpt lat="44.18713" lon="0.6088">
        <ele>49</ele>
        <time>2026-02-22T14:54:21.188Z</time>
      </trkpt>
      <trkpt lat="44.18714" lon="0.60882">
        <ele>49</ele>
        <time>2026-02-22T14:54:22.188Z</time>
      </trkpt>
      <trkpt lat="44.18715" lon="0.60884">
        <ele>49</ele>
        <time>2026-02-22T14:54:23.188Z</time>
      </trkpt>
      <trkpt lat="44.18716" lon="0.60885">
        <ele>49</ele>
        <time>2026-02-22T14:54:24.189Z</time>
      </trkpt>
      <trkpt lat="44.18717" lon="0.60887">
        <ele>50</ele>
        <time>2026-02-22T14:54:25.188Z</time>
      </trkpt>
      <trkpt lat="44.18717" lon="0.60889">
        <ele>50</ele>
        <time>2026-02-22T14:54:26.188Z</time>
      </trkpt>
      <trkpt lat="44.18718" lon="0.6089">
        <ele>50</ele>
        <time>2026-02-22T14:54:27.188Z</time>
      </trkpt>
      <trkpt lat="44.18719" lon="0.60892">
        <ele>50</ele>
        <time>2026-02-22T14:54:28.188Z</time>
      </trkpt>
      <trkpt lat="44.18719" lon="0.60893">
        <ele>51</ele>
        <time>2026-02-22T14:54:29.188Z</time>
      </trkpt>
      <trkpt lat="44.1872" lon="0.60894">
        <ele>51</ele>
        <time>2026-02-22T14:54:30.188Z</time>
      </trkpt>
      <trkpt lat="44.18721" lon="0.60896">
        <ele>51</ele>
        <time>2026-02-22T14:54:31.188Z</time>
      </trkpt>
      <trkpt lat="44.18722" lon="0.60897">
        <ele>51</ele>
        <time>2026-02-22T14:54:32.188Z</time>
      </trkpt>
      <trkpt lat="44.18722" lon="0.60899">
        <ele>51</ele>
        <time>2026-02-22T14:54:33.188Z</time>
      </trkpt>
      <trkpt lat="44.18723" lon="0.609">
        <ele>51</ele>
        <time>2026-02-22T14:54:34.188Z</time>
      </trkpt>
      <trkpt lat="44.18724" lon="0.60902">
        <ele>51</ele>
        <time>2026-02-22T14:54:35.188Z</time>
      </trkpt>
      <trkpt lat="44.18725" lon="0.60903">
        <ele>51</ele>
        <time>2026-02-22T14:54:36.188Z</time>
      </trkpt>
      <trkpt lat="44.18726" lon="0.60905">
        <ele>50</ele>
        <time>2026-02-22T14:54:37.188Z</time>
      </trkpt>
      <trkpt lat="44.18726" lon="0.60907">
        <ele>50</ele>
        <time>2026-02-22T14:54:38.188Z</time>
      </trkpt>
      <trkpt lat="44.18727" lon="0.60908">
        <ele>50</ele>
        <time>2026-02-22T14:54:39.188Z</time>
      </trkpt>
      <trkpt lat="44.18728" lon="0.60909">
        <ele>50</ele>
        <time>2026-02-22T14:54:40.188Z</time>
      </trkpt>
      <trkpt lat="44.18729" lon="0.60911">
        <ele>50</ele>
        <time>2026-02-22T14:54:41.188Z</time>
      </trkpt>
      <trkpt lat="44.18729" lon="0.60912">
        <ele>49</ele>
        <time>2026-02-22T14:54:42.188Z</time>
      </trkpt>
      <trkpt lat="44.18731" lon="0.60914">
        <ele>49</ele>
        <time>2026-02-22T14:54:43.188Z</time>
      </trkpt>
      <trkpt lat="44.18731" lon="0.60915">
        <ele>49</ele>
        <time>2026-02-22T14:54:44.188Z</time>
      </trkpt>
      <trkpt lat="44.18732" lon="0.60916">
        <ele>49</ele>
        <time>2026-02-22T14:54:45.188Z</time>
      </trkpt>
      <trkpt lat="44.18733" lon="0.60918">
        <ele>49</ele>
        <time>2026-02-22T14:54:46.188Z</time>
      </trkpt>
      <trkpt lat="44.18734" lon="0.6092">
        <ele>48</ele>
        <time>2026-02-22T14:54:47.188Z</time>
      </trkpt>
      <trkpt lat="44.18735" lon="0.60921">
        <ele>48</ele>
        <time>2026-02-22T14:54:48.188Z</time>
      </trkpt>
      <trkpt lat="44.18735" lon="0.60923">
        <ele>48</ele>
        <time>2026-02-22T14:54:49.188Z</time>
      </trkpt>
      <trkpt lat="44.18736" lon="0.60924">
        <ele>49</ele>
        <time>2026-02-22T14:54:50.189Z</time>
      </trkpt>
      <trkpt lat="44.18736" lon="0.60926">
        <ele>49</ele>
        <time>2026-02-22T14:54:51.188Z</time>
      </trkpt>
      <trkpt lat="44.18737" lon="0.60927">
        <ele>49</ele>
        <time>2026-02-22T14:54:52.188Z</time>
      </trkpt>
      <trkpt lat="44.18738" lon="0.60929">
        <ele>49</ele>
        <time>2026-02-22T14:54:53.188Z</time>
      </trkpt>
      <trkpt lat="44.18739" lon="0.60931">
        <ele>49</ele>
        <time>2026-02-22T14:54:54.188Z</time>
      </trkpt>
      <trkpt lat="44.18739" lon="0.60932">
        <ele>49</ele>
        <time>2026-02-22T14:54:55.188Z</time>
      </trkpt>
      <trkpt lat="44.1874" lon="0.60934">
        <ele>49</ele>
        <time>2026-02-22T14:54:56.188Z</time>
      </trkpt>
      <trkpt lat="44.1874" lon="0.60935">
        <ele>49</ele>
        <time>2026-02-22T14:54:57.188Z</time>
      </trkpt>
      <trkpt lat="44.18741" lon="0.60937">
        <ele>49</ele>
        <time>2026-02-22T14:54:58.189Z</time>
      </trkpt>
      <trkpt lat="44.18741" lon="0.60938">
        <ele>49</ele>
        <time>2026-02-22T14:54:59.188Z</time>
      </trkpt>
      <trkpt lat="44.18741" lon="0.60939">
        <ele>49</ele>
        <time>2026-02-22T14:55:00.189Z</time>
      </trkpt>
      <trkpt lat="44.18742" lon="0.60941">
        <ele>49</ele>
        <time>2026-02-22T14:55:01.188Z</time>
      </trkpt>
      <trkpt lat="44.18743" lon="0.60942">
        <ele>48</ele>
        <time>2026-02-22T14:55:02.188Z</time>
      </trkpt>
      <trkpt lat="44.18744" lon="0.60943">
        <ele>48</ele>
        <time>2026-02-22T14:55:03.188Z</time>
      </trkpt>
      <trkpt lat="44.18744" lon="0.60945">
        <ele>48</ele>
        <time>2026-02-22T14:55:04.188Z</time>
      </trkpt>
      <trkpt lat="44.18745" lon="0.60946">
        <ele>48</ele>
        <time>2026-02-22T14:55:05.189Z</time>
      </trkpt>
      <trkpt lat="44.18746" lon="0.60947">
        <ele>48</ele>
        <time>2026-02-22T14:55:06.188Z</time>
      </trkpt>
      <trkpt lat="44.18746" lon="0.60948">
        <ele>48</ele>
        <time>2026-02-22T14:55:07.188Z</time>
      </trkpt>
      <trkpt lat="44.18747" lon="0.6095">
        <ele>48</ele>
        <time>2026-02-22T14:55:08.188Z</time>
      </trkpt>
      <trkpt lat="44.18748" lon="0.60951">
        <ele>48</ele>
        <time>2026-02-22T14:55:09.188Z</time>
      </trkpt>
      <trkpt lat="44.18748" lon="0.60952">
        <ele>48</ele>
        <time>2026-02-22T14:55:10.188Z</time>
      </trkpt>
      <trkpt lat="44.18749" lon="0.60954">
        <ele>48</ele>
        <time>2026-02-22T14:55:11.188Z</time>
      </trkpt>
      <trkpt lat="44.1875" lon="0.60955">
        <ele>48</ele>
        <time>2026-02-22T14:55:12.188Z</time>
      </trkpt>
      <trkpt lat="44.18751" lon="0.60957">
        <ele>48</ele>
        <time>2026-02-22T14:55:13.188Z</time>
      </trkpt>
      <trkpt lat="44.18751" lon="0.60958">
        <ele>48</ele>
        <time>2026-02-22T14:55:14.188Z</time>
      </trkpt>
      <trkpt lat="44.18752" lon="0.60959">
        <ele>48</ele>
        <time>2026-02-22T14:55:15.188Z</time>
      </trkpt>
      <trkpt lat="44.18752" lon="0.6096">
        <ele>48</ele>
        <time>2026-02-22T14:55:16.188Z</time>
      </trkpt>
      <trkpt lat="44.18753" lon="0.60962">
        <ele>48</ele>
        <time>2026-02-22T14:55:17.188Z</time>
      </trkpt>
      <trkpt lat="44.18753" lon="0.60963">
        <ele>49</ele>
        <time>2026-02-22T14:55:18.189Z</time>
      </trkpt>
      <trkpt lat="44.18754" lon="0.60965">
        <ele>49</ele>
        <time>2026-02-22T14:55:19.188Z</time>
      </trkpt>
      <trkpt lat="44.18755" lon="0.60966">
        <ele>49</ele>
        <time>2026-02-22T14:55:20.189Z</time>
      </trkpt>
      <trkpt lat="44.18755" lon="0.60968">
        <ele>48</ele>
        <time>2026-02-22T14:55:21.188Z</time>
      </trkpt>
      <trkpt lat="44.18756" lon="0.60969">
        <ele>48</ele>
        <time>2026-02-22T14:55:22.188Z</time>
      </trkpt>
      <trkpt lat="44.18756" lon="0.60971">
        <ele>48</ele>
        <time>2026-02-22T14:55:23.188Z</time>
      </trkpt>
      <trkpt lat="44.18757" lon="0.60972">
        <ele>48</ele>
        <time>2026-02-22T14:55:24.188Z</time>
      </trkpt>
      <trkpt lat="44.18758" lon="0.60973">
        <ele>48</ele>
        <time>2026-02-22T14:55:25.188Z</time>
      </trkpt>
      <trkpt lat="44.18758" lon="0.60974">
        <ele>48</ele>
        <time>2026-02-22T14:55:26.188Z</time>
      </trkpt>
      <trkpt lat="44.18759" lon="0.60976">
        <ele>49</ele>
        <time>2026-02-22T14:55:27.188Z</time>
      </trkpt>
      <trkpt lat="44.18759" lon="0.60977">
        <ele>49</ele>
        <time>2026-02-22T14:55:28.188Z</time>
      </trkpt>
      <trkpt lat="44.1876" lon="0.60979">
        <ele>49</ele>
        <time>2026-02-22T14:55:29.188Z</time>
      </trkpt>
      <trkpt lat="44.18761" lon="0.6098">
        <ele>49</ele>
        <time>2026-02-22T14:55:30.188Z</time>
      </trkpt>
      <trkpt lat="44.18761" lon="0.60981">
        <ele>49</ele>
        <time>2026-02-22T14:55:31.188Z</time>
      </trkpt>
      <trkpt lat="44.18761" lon="0.60983">
        <ele>49</ele>
        <time>2026-02-22T14:55:32.188Z</time>
      </trkpt>
      <trkpt lat="44.18762" lon="0.60984">
        <ele>49</ele>
        <time>2026-02-22T14:55:33.188Z</time>
      </trkpt>
      <trkpt lat="44.18763" lon="0.60986">
        <ele>49</ele>
        <time>2026-02-22T14:55:34.189Z</time>
      </trkpt>
      <trkpt lat="44.18763" lon="0.60987">
        <ele>49</ele>
        <time>2026-02-22T14:55:35.189Z</time>
      </trkpt>
      <trkpt lat="44.18763" lon="0.60988">
        <ele>50</ele>
        <time>2026-02-22T14:55:36.188Z</time>
      </trkpt>
      <trkpt lat="44.18763" lon="0.60988">
        <ele>50</ele>
        <time>2026-02-22T14:55:37.188Z</time>
      </trkpt>
      <trkpt lat="44.18764" lon="0.60988">
        <ele>50</ele>
        <time>2026-02-22T14:55:38.188Z</time>
      </trkpt>
      <trkpt lat="44.18764" lon="0.60988">
        <ele>50</ele>
        <time>2026-02-22T14:55:39.188Z</time>
      </trkpt>
      <trkpt lat="44.18764" lon="0.60989">
        <ele>49</ele>
        <time>2026-02-22T14:55:40.188Z</time>
      </trkpt>
      <trkpt lat="44.18764" lon="0.60989">
        <ele>49</ele>
        <time>2026-02-22T14:55:41.188Z</time>
      </trkpt>
      <trkpt lat="44.18764" lon="0.60989">
        <ele>49</ele>
        <time>2026-02-22T14:55:42.188Z</time>
      </trkpt>
      <trkpt lat="44.18764" lon="0.60989">
        <ele>49</ele>
        <time>2026-02-22T14:55:43.188Z</time>
      </trkpt>
      <trkpt lat="44.18764" lon="0.60989">
        <ele>48</ele>
        <time>2026-02-22T14:55:44.188Z</time>
      </trkpt>
      <trkpt lat="44.18764" lon="0.60989">
        <ele>48</ele>
        <time>2026-02-22T14:55:45.188Z</time>
      </trkpt>
      <trkpt lat="44.18764" lon="0.60989">
        <ele>47</ele>
        <time>2026-02-22T14:55:46.188Z</time>
      </trkpt>
      <trkpt lat="44.18764" lon="0.60989">
        <ele>47</ele>
        <time>2026-02-22T14:55:47.188Z</time>
      </trkpt>
      <trkpt lat="44.18764" lon="0.60989">
        <ele>47</ele>
        <time>2026-02-22T14:55:48.188Z</time>
      </trkpt>
      <trkpt lat="44.18764" lon="0.60989">
        <ele>47</ele>
        <time>2026-02-22T14:55:49.188Z</time>
      </trkpt>
      <trkpt lat="44.18764" lon="0.60989">
        <ele>47</ele>
        <time>2026-02-22T14:55:50.188Z</time>
      </trkpt>
      <trkpt lat="44.18764" lon="0.60989">
        <ele>47</ele>
        <time>2026-02-22T14:55:51.188Z</time>
      </trkpt>
      <trkpt lat="44.18764" lon="0.60989">
        <ele>47</ele>
        <time>2026-02-22T14:55:52.188Z</time>
      </trkpt>
      <trkpt lat="44.18765" lon="0.6099">
        <ele>47</ele>
        <time>2026-02-22T14:55:53.188Z</time>
      </trkpt>
      <trkpt lat="44.18765" lon="0.6099">
        <ele>47</ele>
        <time>2026-02-22T14:55:54.188Z</time>
      </trkpt>
      <trkpt lat="44.18764" lon="0.6099">
        <ele>46</ele>
        <time>2026-02-22T14:55:55.188Z</time>
      </trkpt>
      <trkpt lat="44.18764" lon="0.6099">
        <ele>46</ele>
        <time>2026-02-22T14:55:56.188Z</time>
      </trkpt>
      <trkpt lat="44.18764" lon="0.6099">
        <ele>46</ele>
        <time>2026-02-22T14:55:57.188Z</time>
      </trkpt>
      <trkpt lat="44.18765" lon="0.6099">
        <ele>46</ele>
        <time>2026-02-22T14:55:58.188Z</time>
      </trkpt>
      <trkpt lat="44.18765" lon="0.60991">
        <ele>46</ele>
        <time>2026-02-22T14:55:59.188Z</time>
      </trkpt>
      <trkpt lat="44.18764" lon="0.60991">
        <ele>46</ele>
        <time>2026-02-22T14:56:00.188Z</time>
      </trkpt>
      <trkpt lat="44.18765" lon="0.60992">
        <ele>46</ele>
        <time>2026-02-22T14:56:01.188Z</time>
      </trkpt>
      <trkpt lat="44.18765" lon="0.60993">
        <ele>46</ele>
        <time>2026-02-22T14:56:02.188Z</time>
      </trkpt>
      <trkpt lat="44.18765" lon="0.60994">
        <ele>46</ele>
        <time>2026-02-22T14:56:03.189Z</time>
      </trkpt>
      <trkpt lat="44.18765" lon="0.60994">
        <ele>47</ele>
        <time>2026-02-22T14:56:04.188Z</time>
      </trkpt>
      <trkpt lat="44.18765" lon="0.60995">
        <ele>47</ele>
        <time>2026-02-22T14:56:05.189Z</time>
      </trkpt>
      <trkpt lat="44.18765" lon="0.60995">
        <ele>47</ele>
        <time>2026-02-22T14:56:06.188Z</time>
      </trkpt>
      <trkpt lat="44.18766" lon="0.60995">
        <ele>47</ele>
        <time>2026-02-22T14:56:07.188Z</time>
      </trkpt>
      <trkpt lat="44.18766" lon="0.60995">
        <ele>47</ele>
        <time>2026-02-22T14:56:08.188Z</time>
      </trkpt>
      <trkpt lat="44.18766" lon="0.60996">
        <ele>46</ele>
        <time>2026-02-22T14:56:09.188Z</time>
      </trkpt>
      <trkpt lat="44.18765" lon="0.60995">
        <ele>46</ele>
        <time>2026-02-22T14:56:10.189Z</time>
      </trkpt>
      <trkpt lat="44.18765" lon="0.60995">
        <ele>46</ele>
        <time>2026-02-22T14:56:11.188Z</time>
      </trkpt>
      <trkpt lat="44.18765" lon="0.60996">
        <ele>45</ele>
        <time>2026-02-22T14:56:12.188Z</time>
      </trkpt>
      <trkpt lat="44.18765" lon="0.60996">
        <ele>45</ele>
        <time>2026-02-22T14:56:13.188Z</time>
      </trkpt>
      <trkpt lat="44.18765" lon="0.60996">
        <ele>44</ele>
        <time>2026-02-22T14:56:14.188Z</time>
      </trkpt>
      <trkpt lat="44.18765" lon="0.60996">
        <ele>44</ele>
        <time>2026-02-22T14:56:15.188Z</time>
      </trkpt>
      <trkpt lat="44.18765" lon="0.60996">
        <ele>44</ele>
        <time>2026-02-22T14:56:16.189Z</time>
      </trkpt>
      <trkpt lat="44.18765" lon="0.60996">
        <ele>44</ele>
        <time>2026-02-22T14:56:17.188Z</time>
      </trkpt>
      <trkpt lat="44.18765" lon="0.60995">
        <ele>44</ele>
        <time>2026-02-22T14:56:18.188Z</time>
      </trkpt>
      <trkpt lat="44.18765" lon="0.60994">
        <ele>45</ele>
        <time>2026-02-22T14:56:19.188Z</time>
      </trkpt>
      <trkpt lat="44.18765" lon="0.60994">
        <ele>45</ele>
        <time>2026-02-22T14:56:20.188Z</time>
      </trkpt>
      <trkpt lat="44.18765" lon="0.60993">
        <ele>45</ele>
        <time>2026-02-22T14:56:21.188Z</time>
      </trkpt>
      <trkpt lat="44.18765" lon="0.60993">
        <ele>45</ele>
        <time>2026-02-22T14:56:22.188Z</time>
      </trkpt>
      <trkpt lat="44.18765" lon="0.60993">
        <ele>45</ele>
        <time>2026-02-22T14:56:23.188Z</time>
      </trkpt>
      <trkpt lat="44.18765" lon="0.60993">
        <ele>45</ele>
        <time>2026-02-22T14:56:24.188Z</time>
      </trkpt>
      <trkpt lat="44.18765" lon="0.60993">
        <ele>45</ele>
        <time>2026-02-22T14:56:25.188Z</time>
      </trkpt>
      <trkpt lat="44.18765" lon="0.60993">
        <ele>45</ele>
        <time>2026-02-22T14:56:26.188Z</time>
      </trkpt>
      <trkpt lat="44.18765" lon="0.60993">
        <ele>45</ele>
        <time>2026-02-22T14:56:27.188Z</time>
      </trkpt>
      <trkpt lat="44.18765" lon="0.60993">
        <ele>45</ele>
        <time>2026-02-22T14:56:28.188Z</time>
      </trkpt>
      <trkpt lat="44.18765" lon="0.60993">
        <ele>45</ele>
        <time>2026-02-22T14:56:29.188Z</time>
      </trkpt>
      <trkpt lat="44.18765" lon="0.60993">
        <ele>46</ele>
        <time>2026-02-22T14:56:30.188Z</time>
      </trkpt>
      <trkpt lat="44.18765" lon="0.60993">
        <ele>46</ele>
        <time>2026-02-22T14:56:31.188Z</time>
      </trkpt>
      <trkpt lat="44.18765" lon="0.60993">
        <ele>46</ele>
        <time>2026-02-22T14:56:32.188Z</time>
      </trkpt>
      <trkpt lat="44.18765" lon="0.60993">
        <ele>46</ele>
        <time>2026-02-22T14:56:33.188Z</time>
      </trkpt>
      <trkpt lat="44.18765" lon="0.60992">
        <ele>47</ele>
        <time>2026-02-22T14:56:34.188Z</time>
      </trkpt>
      <trkpt lat="44.18765" lon="0.60992">
        <ele>47</ele>
        <time>2026-02-22T14:56:35.188Z</time>
      </trkpt>
      <trkpt lat="44.18765" lon="0.60993">
        <ele>47</ele>
        <time>2026-02-22T14:56:36.188Z</time>
      </trkpt>
      <trkpt lat="44.18765" lon="0.60993">
        <ele>47</ele>
        <time>2026-02-22T14:56:37.188Z</time>
      </trkpt>
      <trkpt lat="44.18765" lon="0.60993">
        <ele>47</ele>
        <time>2026-02-22T14:56:38.188Z</time>
      </trkpt>
      <trkpt lat="44.18765" lon="0.60993">
        <ele>47</ele>
        <time>2026-02-22T14:56:39.188Z</time>
      </trkpt>
      <trkpt lat="44.18764" lon="0.60993">
        <ele>47</ele>
        <time>2026-02-22T14:56:40.188Z</time>
      </trkpt>
      <trkpt lat="44.18764" lon="0.60993">
        <ele>47</ele>
        <time>2026-02-22T14:56:41.188Z</time>
      </trkpt>
      <trkpt lat="44.18764" lon="0.60993">
        <ele>47</ele>
        <time>2026-02-22T14:56:42.188Z</time>
      </trkpt>
      <trkpt lat="44.18764" lon="0.60993">
        <ele>46</ele>
        <time>2026-02-22T14:56:43.188Z</time>
      </trkpt>
      <trkpt lat="44.18764" lon="0.60993">
        <ele>46</ele>
        <time>2026-02-22T14:56:44.189Z</time>
      </trkpt>
      <trkpt lat="44.18764" lon="0.60993">
        <ele>45</ele>
        <time>2026-02-22T14:56:45.189Z</time>
      </trkpt>
      <trkpt lat="44.18764" lon="0.60993">
        <ele>45</ele>
        <time>2026-02-22T14:56:46.188Z</time>
      </trkpt>
      <trkpt lat="44.18764" lon="0.60993">
        <ele>44</ele>
        <time>2026-02-22T14:56:47.188Z</time>
      </trkpt>
      <trkpt lat="44.18764" lon="0.60993">
        <ele>44</ele>
        <time>2026-02-22T14:56:48.188Z</time>
      </trkpt>
      <trkpt lat="44.18764" lon="0.60993">
        <ele>44</ele>
        <time>2026-02-22T14:56:49.188Z</time>
      </trkpt>
      <trkpt lat="44.18764" lon="0.60993">
        <ele>44</ele>
        <time>2026-02-22T14:56:50.188Z</time>
      </trkpt>
      <trkpt lat="44.18764" lon="0.60993">
        <ele>44</ele>
        <time>2026-02-22T14:56:51.188Z</time>
      </trkpt>
      <trkpt lat="44.18764" lon="0.60993">
        <ele>44</ele>
        <time>2026-02-22T14:56:52.188Z</time>
      </trkpt>
      <trkpt lat="44.18764" lon="0.60993">
        <ele>43</ele>
        <time>2026-02-22T14:56:53.188Z</time>
      </trkpt>
      <trkpt lat="44.18764" lon="0.60993">
        <ele>43</ele>
        <time>2026-02-22T14:56:54.188Z</time>
      </trkpt>
      <trkpt lat="44.18764" lon="0.60993">
        <ele>43</ele>
        <time>2026-02-22T14:56:55.188Z</time>
      </trkpt>
      <trkpt lat="44.18764" lon="0.60993">
        <ele>43</ele>
        <time>2026-02-22T14:56:56.188Z</time>
      </trkpt>
      <trkpt lat="44.18764" lon="0.60993">
        <ele>44</ele>
        <time>2026-02-22T14:56:57.188Z</time>
      </trkpt>
      <trkpt lat="44.18764" lon="0.60993">
        <ele>44</ele>
        <time>2026-02-22T14:56:58.188Z</time>
      </trkpt>
      <trkpt lat="44.18764" lon="0.60993">
        <ele>43</ele>
        <time>2026-02-22T14:56:59.188Z</time>
      </trkpt>
      <trkpt lat="44.18764" lon="0.60993">
        <ele>43</ele>
        <time>2026-02-22T14:57:00.188Z</time>
      </trkpt>
      <trkpt lat="44.18764" lon="0.60993">
        <ele>43</ele>
        <time>2026-02-22T14:57:01.188Z</time>
      </trkpt>
      <trkpt lat="44.18764" lon="0.60993">
        <ele>42</ele>
        <time>2026-02-22T14:57:02.188Z</time>
      </trkpt>
      <trkpt lat="44.18764" lon="0.60993">
        <ele>42</ele>
        <time>2026-02-22T14:57:03.188Z</time>
      </trkpt>
      <trkpt lat="44.18764" lon="0.60993">
        <ele>42</ele>
        <time>2026-02-22T14:57:04.188Z</time>
      </trkpt>
      <trkpt lat="44.18763" lon="0.60993">
        <ele>42</ele>
        <time>2026-02-22T14:57:05.188Z</time>
      </trkpt>
      <trkpt lat="44.18763" lon="0.60993">
        <ele>43</ele>
        <time>2026-02-22T14:57:06.188Z</time>
      </trkpt>
      <trkpt lat="44.18763" lon="0.60993">
        <ele>43</ele>
        <time>2026-02-22T14:57:07.188Z</time>
      </trkpt>
      <trkpt lat="44.18763" lon="0.60993">
        <ele>43</ele>
        <time>2026-02-22T14:57:08.188Z</time>
      </trkpt>
      <trkpt lat="44.18763" lon="0.60993">
        <ele>43</ele>
        <time>2026-02-22T14:57:09.188Z</time>
      </trkpt>
      <trkpt lat="44.18763" lon="0.60993">
        <ele>44</ele>
        <time>2026-02-22T14:57:10.188Z</time>
      </trkpt>
      <trkpt lat="44.18763" lon="0.60993">
        <ele>44</ele>
        <time>2026-02-22T14:57:11.188Z</time>
      </trkpt>
      <trkpt lat="44.18763" lon="0.60993">
        <ele>44</ele>
        <time>2026-02-22T14:57:12.188Z</time>
      </trkpt>
      <trkpt lat="44.18763" lon="0.60993">
        <ele>44</ele>
        <time>2026-02-22T14:57:13.188Z</time>
      </trkpt>
      <trkpt lat="44.18763" lon="0.60993">
        <ele>44</ele>
        <time>2026-02-22T14:57:14.189Z</time>
      </trkpt>
      <trkpt lat="44.18763" lon="0.60993">
        <ele>44</ele>
        <time>2026-02-22T14:57:15.188Z</time>
      </trkpt>
      <trkpt lat="44.18763" lon="0.60993">
        <ele>44</ele>
        <time>2026-02-22T14:57:16.188Z</time>
      </trkpt>
      <trkpt lat="44.18763" lon="0.60993">
        <ele>44</ele>
        <time>2026-02-22T14:57:17.189Z</time>
      </trkpt>
      <trkpt lat="44.18763" lon="0.60993">
        <ele>44</ele>
        <time>2026-02-22T14:57:18.188Z</time>
      </trkpt>
      <trkpt lat="44.18763" lon="0.60993">
        <ele>44</ele>
        <time>2026-02-22T14:57:19.188Z</time>
      </trkpt>
      <trkpt lat="44.18763" lon="0.60993">
        <ele>43</ele>
        <time>2026-02-22T14:57:20.188Z</time>
      </trkpt>
      <trkpt lat="44.18763" lon="0.60993">
        <ele>43</ele>
        <time>2026-02-22T14:57:21.189Z</time>
      </trkpt>
      <trkpt lat="44.18764" lon="0.60993">
        <ele>43</ele>
        <time>2026-02-22T14:57:22.188Z</time>
      </trkpt>
      <trkpt lat="44.18763" lon="0.60993">
        <ele>43</ele>
        <time>2026-02-22T14:57:23.188Z</time>
      </trkpt>
      <trkpt lat="44.18763" lon="0.60993">
        <ele>43</ele>
        <time>2026-02-22T14:57:24.188Z</time>
      </trkpt>
      <trkpt lat="44.18763" lon="0.60993">
        <ele>43</ele>
        <time>2026-02-22T14:57:25.188Z</time>
      </trkpt>
      <trkpt lat="44.18763" lon="0.60993">
        <ele>44</ele>
        <time>2026-02-22T14:57:26.188Z</time>
      </trkpt>
      <trkpt lat="44.18764" lon="0.60993">
        <ele>44</ele>
        <time>2026-02-22T14:57:27.188Z</time>
      </trkpt>
      <trkpt lat="44.18764" lon="0.60993">
        <ele>44</ele>
        <time>2026-02-22T14:57:28.188Z</time>
      </trkpt>
      <trkpt lat="44.18764" lon="0.60993">
        <ele>44</ele>
        <time>2026-02-22T14:57:29.189Z</time>
      </trkpt>
      <trkpt lat="44.18764" lon="0.60994">
        <ele>44</ele>
        <time>2026-02-22T14:57:30.188Z</time>
      </trkpt>
      <trkpt lat="44.18764" lon="0.60994">
        <ele>44</ele>
        <time>2026-02-22T14:57:31.188Z</time>
      </trkpt>
      <trkpt lat="44.18764" lon="0.60994">
        <ele>44</ele>
        <time>2026-02-22T14:57:32.188Z</time>
      </trkpt>
      <trkpt lat="44.18764" lon="0.60994">
        <ele>43</ele>
        <time>2026-02-22T14:57:33.188Z</time>
      </trkpt>
      <trkpt lat="44.18764" lon="0.60993">
        <ele>43</ele>
        <time>2026-02-22T14:57:34.188Z</time>
      </trkpt>
      <trkpt lat="44.18763" lon="0.60993">
        <ele>43</ele>
        <time>2026-02-22T14:57:35.188Z</time>
      </trkpt>
      <trkpt lat="44.18763" lon="0.60993">
        <ele>43</ele>
        <time>2026-02-22T14:57:36.188Z</time>
      </trkpt>
      <trkpt lat="44.18763" lon="0.60993">
        <ele>43</ele>
        <time>2026-02-22T14:57:37.188Z</time>
      </trkpt>
      <trkpt lat="44.18763" lon="0.60993">
        <ele>43</ele>
        <time>2026-02-22T14:57:38.188Z</time>
      </trkpt>
      <trkpt lat="44.18763" lon="0.60993">
        <ele>43</ele>
        <time>2026-02-22T14:57:39.188Z</time>
      </trkpt>
      <trkpt lat="44.18764" lon="0.60994">
        <ele>43</ele>
        <time>2026-02-22T14:57:40.188Z</time>
      </trkpt>
      <trkpt lat="44.18764" lon="0.60994">
        <ele>43</ele>
        <time>2026-02-22T14:57:41.188Z</time>
      </trkpt>
      <trkpt lat="44.18764" lon="0.60994">
        <ele>43</ele>
        <time>2026-02-22T14:57:42.189Z</time>
      </trkpt>
      <trkpt lat="44.18764" lon="0.60994">
        <ele>43</ele>
        <time>2026-02-22T14:57:43.188Z</time>
      </trkpt>
      <trkpt lat="44.18764" lon="0.60994">
        <ele>44</ele>
        <time>2026-02-22T14:57:44.189Z</time>
      </trkpt>
      <trkpt lat="44.18764" lon="0.60994">
        <ele>44</ele>
        <time>2026-02-22T14:57:45.188Z</time>
      </trkpt>
      <trkpt lat="44.18764" lon="0.60994">
        <ele>45</ele>
        <time>2026-02-22T14:57:46.188Z</time>
      </trkpt>
      <trkpt lat="44.18764" lon="0.60994">
        <ele>45</ele>
        <time>2026-02-22T14:57:47.188Z</time>
      </trkpt>
      <trkpt lat="44.18764" lon="0.60994">
        <ele>46</ele>
        <time>2026-02-22T14:57:48.188Z</time>
      </trkpt>
      <trkpt lat="44.18764" lon="0.60994">
        <ele>46</ele>
        <time>2026-02-22T14:57:49.188Z</time>
      </trkpt>
      <trkpt lat="44.18764" lon="0.60994">
        <ele>46</ele>
        <time>2026-02-22T14:57:50.188Z</time>
      </trkpt>
      <trkpt lat="44.18764" lon="0.60994">
        <ele>46</ele>
        <time>2026-02-22T14:57:51.188Z</time>
      </trkpt>
      <trkpt lat="44.18765" lon="0.60994">
        <ele>46</ele>
        <time>2026-02-22T14:57:52.188Z</time>
      </trkpt>
      <trkpt lat="44.18765" lon="0.60994">
        <ele>46</ele>
        <time>2026-02-22T14:57:53.188Z</time>
      </trkpt>
      <trkpt lat="44.18765" lon="0.60994">
        <ele>46</ele>
        <time>2026-02-22T14:57:54.188Z</time>
      </trkpt>
      <trkpt lat="44.18765" lon="0.60994">
        <ele>46</ele>
        <time>2026-02-22T14:57:55.188Z</time>
      </trkpt>
      <trkpt lat="44.18765" lon="0.60994">
        <ele>46</ele>
        <time>2026-02-22T14:57:56.189Z</time>
      </trkpt>
      <trkpt lat="44.18766" lon="0.60994">
        <ele>46</ele>
        <time>2026-02-22T14:57:57.188Z</time>
      </trkpt>
      <trkpt lat="44.18767" lon="0.60994">
        <ele>45</ele>
        <time>2026-02-22T14:57:58.188Z</time>
      </trkpt>
      <trkpt lat="44.18767" lon="0.60995">
        <ele>45</ele>
        <time>2026-02-22T14:57:59.188Z</time>
      </trkpt>
      <trkpt lat="44.18768" lon="0.60996">
        <ele>45</ele>
        <time>2026-02-22T14:58:00.188Z</time>
      </trkpt>
      <trkpt lat="44.18769" lon="0.60997">
        <ele>45</ele>
        <time>2026-02-22T14:58:01.188Z</time>
      </trkpt>
      <trkpt lat="44.1877" lon="0.60998">
        <ele>45</ele>
        <time>2026-02-22T14:58:02.188Z</time>
      </trkpt>
      <trkpt lat="44.1877" lon="0.60998">
        <ele>45</ele>
        <time>2026-02-22T14:58:03.188Z</time>
      </trkpt>
      <trkpt lat="44.18771" lon="0.60998">
        <ele>45</ele>
        <time>2026-02-22T14:58:04.188Z</time>
      </trkpt>
      <trkpt lat="44.18772" lon="0.60999">
        <ele>45</ele>
        <time>2026-02-22T14:58:05.188Z</time>
      </trkpt>
      <trkpt lat="44.18772" lon="0.60999">
        <ele>45</ele>
        <time>2026-02-22T14:58:06.188Z</time>
      </trkpt>
      <trkpt lat="44.18772" lon="0.60999">
        <ele>45</ele>
        <time>2026-02-22T14:58:07.188Z</time>
      </trkpt>
      <trkpt lat="44.18772" lon="0.60999">
        <ele>45</ele>
        <time>2026-02-22T14:58:08.188Z</time>
      </trkpt>
      <trkpt lat="44.18772" lon="0.60999">
        <ele>45</ele>
        <time>2026-02-22T14:58:09.188Z</time>
      </trkpt>
      <trkpt lat="44.18772" lon="0.60999">
        <ele>45</ele>
        <time>2026-02-22T14:58:10.189Z</time>
      </trkpt>
      <trkpt lat="44.18773" lon="0.60999">
        <ele>45</ele>
        <time>2026-02-22T14:58:11.188Z</time>
      </trkpt>
      <trkpt lat="44.18774" lon="0.60998">
        <ele>45</ele>
        <time>2026-02-22T14:58:12.189Z</time>
      </trkpt>
      <trkpt lat="44.18775" lon="0.60998">
        <ele>44</ele>
        <time>2026-02-22T14:58:13.188Z</time>
      </trkpt>
      <trkpt lat="44.18776" lon="0.60997">
        <ele>44</ele>
        <time>2026-02-22T14:58:14.188Z</time>
      </trkpt>
      <trkpt lat="44.18776" lon="0.60997">
        <ele>44</ele>
        <time>2026-02-22T14:58:15.188Z</time>
      </trkpt>
      <trkpt lat="44.18777" lon="0.60997">
        <ele>44</ele>
        <time>2026-02-22T14:58:16.188Z</time>
      </trkpt>
      <trkpt lat="44.18778" lon="0.60996">
        <ele>43</ele>
        <time>2026-02-22T14:58:17.188Z</time>
      </trkpt>
      <trkpt lat="44.18779" lon="0.60996">
        <ele>43</ele>
        <time>2026-02-22T14:58:18.188Z</time>
      </trkpt>
      <trkpt lat="44.1878" lon="0.60996">
        <ele>43</ele>
        <time>2026-02-22T14:58:19.188Z</time>
      </trkpt>
      <trkpt lat="44.18782" lon="0.60996">
        <ele>43</ele>
        <time>2026-02-22T14:58:20.188Z</time>
      </trkpt>
      <trkpt lat="44.18783" lon="0.60995">
        <ele>44</ele>
        <time>2026-02-22T14:58:21.188Z</time>
      </trkpt>
      <trkpt lat="44.18784" lon="0.60995">
        <ele>44</ele>
        <time>2026-02-22T14:58:22.188Z</time>
      </trkpt>
      <trkpt lat="44.18785" lon="0.60994">
        <ele>44</ele>
        <time>2026-02-22T14:58:23.188Z</time>
      </trkpt>
      <trkpt lat="44.18786" lon="0.60994">
        <ele>45</ele>
        <time>2026-02-22T14:58:24.188Z</time>
      </trkpt>
      <trkpt lat="44.18786" lon="0.60993">
        <ele>45</ele>
        <time>2026-02-22T14:58:25.188Z</time>
      </trkpt>
      <trkpt lat="44.18787" lon="0.60993">
        <ele>45</ele>
        <time>2026-02-22T14:58:26.188Z</time>
      </trkpt>
      <trkpt lat="44.18788" lon="0.60992">
        <ele>45</ele>
        <time>2026-02-22T14:58:27.188Z</time>
      </trkpt>
      <trkpt lat="44.1879" lon="0.60992">
        <ele>45</ele>
        <time>2026-02-22T14:58:28.188Z</time>
      </trkpt>
      <trkpt lat="44.18791" lon="0.60992">
        <ele>46</ele>
        <time>2026-02-22T14:58:29.188Z</time>
      </trkpt>
      <trkpt lat="44.18793" lon="0.60992">
        <ele>46</ele>
        <time>2026-02-22T14:58:30.188Z</time>
      </trkpt>
      <trkpt lat="44.18794" lon="0.60991">
        <ele>46</ele>
        <time>2026-02-22T14:58:31.188Z</time>
      </trkpt>
      <trkpt lat="44.18794" lon="0.60991">
        <ele>46</ele>
        <time>2026-02-22T14:58:32.188Z</time>
      </trkpt>
      <trkpt lat="44.18795" lon="0.60992">
        <ele>46</ele>
        <time>2026-02-22T14:58:33.188Z</time>
      </trkpt>
      <trkpt lat="44.18796" lon="0.60992">
        <ele>46</ele>
        <time>2026-02-22T14:58:34.188Z</time>
      </trkpt>
      <trkpt lat="44.18797" lon="0.60991">
        <ele>46</ele>
        <time>2026-02-22T14:58:35.188Z</time>
      </trkpt>
      <trkpt lat="44.18798" lon="0.60991">
        <ele>46</ele>
        <time>2026-02-22T14:58:36.188Z</time>
      </trkpt>
      <trkpt lat="44.18799" lon="0.6099">
        <ele>46</ele>
        <time>2026-02-22T14:58:37.188Z</time>
      </trkpt>
      <trkpt lat="44.18801" lon="0.6099">
        <ele>46</ele>
        <time>2026-02-22T14:58:38.188Z</time>
      </trkpt>
      <trkpt lat="44.18802" lon="0.6099">
        <ele>47</ele>
        <time>2026-02-22T14:58:39.188Z</time>
      </trkpt>
      <trkpt lat="44.18803" lon="0.60989">
        <ele>47</ele>
        <time>2026-02-22T14:58:40.189Z</time>
      </trkpt>
      <trkpt lat="44.18805" lon="0.60989">
        <ele>47</ele>
        <time>2026-02-22T14:58:41.188Z</time>
      </trkpt>
      <trkpt lat="44.18806" lon="0.60989">
        <ele>47</ele>
        <time>2026-02-22T14:58:42.188Z</time>
      </trkpt>
      <trkpt lat="44.18807" lon="0.60988">
        <ele>47</ele>
        <time>2026-02-22T14:58:43.188Z</time>
      </trkpt>
      <trkpt lat="44.18808" lon="0.60988">
        <ele>48</ele>
        <time>2026-02-22T14:58:44.188Z</time>
      </trkpt>
      <trkpt lat="44.18809" lon="0.60988">
        <ele>48</ele>
        <time>2026-02-22T14:58:45.188Z</time>
      </trkpt>
      <trkpt lat="44.1881" lon="0.60987">
        <ele>48</ele>
        <time>2026-02-22T14:58:46.188Z</time>
      </trkpt>
      <trkpt lat="44.18812" lon="0.60987">
        <ele>48</ele>
        <time>2026-02-22T14:58:47.188Z</time>
      </trkpt>
      <trkpt lat="44.18813" lon="0.60987">
        <ele>48</ele>
        <time>2026-02-22T14:58:48.188Z</time>
      </trkpt>
      <trkpt lat="44.18814" lon="0.60987">
        <ele>48</ele>
        <time>2026-02-22T14:58:49.188Z</time>
      </trkpt>
      <trkpt lat="44.18815" lon="0.60986">
        <ele>48</ele>
        <time>2026-02-22T14:58:50.188Z</time>
      </trkpt>
      <trkpt lat="44.18816" lon="0.60986">
        <ele>48</ele>
        <time>2026-02-22T14:58:51.188Z</time>
      </trkpt>
      <trkpt lat="44.18817" lon="0.60986">
        <ele>48</ele>
        <time>2026-02-22T14:58:52.188Z</time>
      </trkpt>
      <trkpt lat="44.18818" lon="0.60985">
        <ele>49</ele>
        <time>2026-02-22T14:58:53.188Z</time>
      </trkpt>
      <trkpt lat="44.18819" lon="0.60985">
        <ele>49</ele>
        <time>2026-02-22T14:58:54.188Z</time>
      </trkpt>
      <trkpt lat="44.1882" lon="0.60985">
        <ele>49</ele>
        <time>2026-02-22T14:58:55.189Z</time>
      </trkpt>
      <trkpt lat="44.18822" lon="0.60985">
        <ele>49</ele>
        <time>2026-02-22T14:58:56.188Z</time>
      </trkpt>
      <trkpt lat="44.18823" lon="0.60984">
        <ele>49</ele>
        <time>2026-02-22T14:58:57.188Z</time>
      </trkpt>
      <trkpt lat="44.18824" lon="0.60984">
        <ele>49</ele>
        <time>2026-02-22T14:58:58.188Z</time>
      </trkpt>
      <trkpt lat="44.18826" lon="0.60984">
        <ele>49</ele>
        <time>2026-02-22T14:58:59.188Z</time>
      </trkpt>
      <trkpt lat="44.18827" lon="0.60984">
        <ele>48</ele>
        <time>2026-02-22T14:59:00.188Z</time>
      </trkpt>
      <trkpt lat="44.18828" lon="0.60983">
        <ele>49</ele>
        <time>2026-02-22T14:59:01.188Z</time>
      </trkpt>
      <trkpt lat="44.18829" lon="0.60983">
        <ele>49</ele>
        <time>2026-02-22T14:59:02.188Z</time>
      </trkpt>
      <trkpt lat="44.1883" lon="0.60983">
        <ele>49</ele>
        <time>2026-02-22T14:59:03.188Z</time>
      </trkpt>
      <trkpt lat="44.18832" lon="0.60983">
        <ele>49</ele>
        <time>2026-02-22T14:59:04.188Z</time>
      </trkpt>
      <trkpt lat="44.18833" lon="0.60982">
        <ele>49</ele>
        <time>2026-02-22T14:59:05.188Z</time>
      </trkpt>
      <trkpt lat="44.18834" lon="0.60982">
        <ele>49</ele>
        <time>2026-02-22T14:59:06.189Z</time>
      </trkpt>
      <trkpt lat="44.18836" lon="0.60982">
        <ele>49</ele>
        <time>2026-02-22T14:59:07.188Z</time>
      </trkpt>
      <trkpt lat="44.18837" lon="0.60982">
        <ele>49</ele>
        <time>2026-02-22T14:59:08.189Z</time>
      </trkpt>
      <trkpt lat="44.18838" lon="0.60981">
        <ele>50</ele>
        <time>2026-02-22T14:59:09.188Z</time>
      </trkpt>
      <trkpt lat="44.18839" lon="0.60981">
        <ele>50</ele>
        <time>2026-02-22T14:59:10.189Z</time>
      </trkpt>
      <trkpt lat="44.1884" lon="0.60981">
        <ele>50</ele>
        <time>2026-02-22T14:59:11.188Z</time>
      </trkpt>
      <trkpt lat="44.18842" lon="0.6098">
        <ele>50</ele>
        <time>2026-02-22T14:59:12.188Z</time>
      </trkpt>
      <trkpt lat="44.18843" lon="0.6098">
        <ele>50</ele>
        <time>2026-02-22T14:59:13.188Z</time>
      </trkpt>
      <trkpt lat="44.18844" lon="0.6098">
        <ele>50</ele>
        <time>2026-02-22T14:59:14.188Z</time>
      </trkpt>
      <trkpt lat="44.18846" lon="0.60979">
        <ele>50</ele>
        <time>2026-02-22T14:59:15.188Z</time>
      </trkpt>
      <trkpt lat="44.18847" lon="0.60979">
        <ele>50</ele>
        <time>2026-02-22T14:59:16.188Z</time>
      </trkpt>
      <trkpt lat="44.18848" lon="0.60979">
        <ele>50</ele>
        <time>2026-02-22T14:59:17.188Z</time>
      </trkpt>
      <trkpt lat="44.18849" lon="0.60978">
        <ele>50</ele>
        <time>2026-02-22T14:59:18.188Z</time>
      </trkpt>
      <trkpt lat="44.18851" lon="0.60978">
        <ele>49</ele>
        <time>2026-02-22T14:59:19.188Z</time>
      </trkpt>
      <trkpt lat="44.18852" lon="0.60978">
        <ele>49</ele>
        <time>2026-02-22T14:59:20.188Z</time>
      </trkpt>
      <trkpt lat="44.18853" lon="0.60977">
        <ele>49</ele>
        <time>2026-02-22T14:59:21.188Z</time>
      </trkpt>
      <trkpt lat="44.18854" lon="0.60977">
        <ele>49</ele>
        <time>2026-02-22T14:59:22.188Z</time>
      </trkpt>
      <trkpt lat="44.18855" lon="0.60976">
        <ele>49</ele>
        <time>2026-02-22T14:59:23.188Z</time>
      </trkpt>
      <trkpt lat="44.18856" lon="0.60976">
        <ele>49</ele>
        <time>2026-02-22T14:59:24.188Z</time>
      </trkpt>
      <trkpt lat="44.18857" lon="0.60976">
        <ele>49</ele>
        <time>2026-02-22T14:59:25.188Z</time>
      </trkpt>
      <trkpt lat="44.18858" lon="0.60975">
        <ele>49</ele>
        <time>2026-02-22T14:59:26.188Z</time>
      </trkpt>
      <trkpt lat="44.1886" lon="0.60975">
        <ele>48</ele>
        <time>2026-02-22T14:59:27.188Z</time>
      </trkpt>
      <trkpt lat="44.18861" lon="0.60974">
        <ele>48</ele>
        <time>2026-02-22T14:59:28.188Z</time>
      </trkpt>
      <trkpt lat="44.18862" lon="0.60974">
        <ele>48</ele>
        <time>2026-02-22T14:59:29.188Z</time>
      </trkpt>
      <trkpt lat="44.18863" lon="0.60974">
        <ele>48</ele>
        <time>2026-02-22T14:59:30.188Z</time>
      </trkpt>
      <trkpt lat="44.18865" lon="0.60973">
        <ele>48</ele>
        <time>2026-02-22T14:59:31.188Z</time>
      </trkpt>
      <trkpt lat="44.18866" lon="0.60972">
        <ele>48</ele>
        <time>2026-02-22T14:59:32.188Z</time>
      </trkpt>
      <trkpt lat="44.18867" lon="0.60972">
        <ele>48</ele>
        <time>2026-02-22T14:59:33.188Z</time>
      </trkpt>
      <trkpt lat="44.18868" lon="0.60971">
        <ele>48</ele>
        <time>2026-02-22T14:59:34.188Z</time>
      </trkpt>
      <trkpt lat="44.18869" lon="0.6097">
        <ele>48</ele>
        <time>2026-02-22T14:59:35.188Z</time>
      </trkpt>
      <trkpt lat="44.1887" lon="0.6097">
        <ele>48</ele>
        <time>2026-02-22T14:59:36.188Z</time>
      </trkpt>
      <trkpt lat="44.18871" lon="0.60969">
        <ele>48</ele>
        <time>2026-02-22T14:59:37.188Z</time>
      </trkpt>
      <trkpt lat="44.18873" lon="0.60968">
        <ele>48</ele>
        <time>2026-02-22T14:59:38.189Z</time>
      </trkpt>
      <trkpt lat="44.18874" lon="0.60968">
        <ele>48</ele>
        <time>2026-02-22T14:59:39.188Z</time>
      </trkpt>
      <trkpt lat="44.18875" lon="0.60967">
        <ele>48</ele>
        <time>2026-02-22T14:59:40.188Z</time>
      </trkpt>
      <trkpt lat="44.18876" lon="0.60967">
        <ele>48</ele>
        <time>2026-02-22T14:59:41.188Z</time>
      </trkpt>
      <trkpt lat="44.18878" lon="0.60966">
        <ele>48</ele>
        <time>2026-02-22T14:59:42.188Z</time>
      </trkpt>
      <trkpt lat="44.18879" lon="0.60965">
        <ele>48</ele>
        <time>2026-02-22T14:59:43.188Z</time>
      </trkpt>
      <trkpt lat="44.1888" lon="0.60964">
        <ele>48</ele>
        <time>2026-02-22T14:59:44.189Z</time>
      </trkpt>
      <trkpt lat="44.18881" lon="0.60963">
        <ele>48</ele>
        <time>2026-02-22T14:59:45.189Z</time>
      </trkpt>
      <trkpt lat="44.18882" lon="0.60963">
        <ele>48</ele>
        <time>2026-02-22T14:59:46.188Z</time>
      </trkpt>
      <trkpt lat="44.18883" lon="0.60962">
        <ele>48</ele>
        <time>2026-02-22T14:59:47.188Z</time>
      </trkpt>
      <trkpt lat="44.18884" lon="0.60961">
        <ele>48</ele>
        <time>2026-02-22T14:59:48.188Z</time>
      </trkpt>
      <trkpt lat="44.18885" lon="0.6096">
        <ele>48</ele>
        <time>2026-02-22T14:59:49.188Z</time>
      </trkpt>
      <trkpt lat="44.18887" lon="0.60959">
        <ele>48</ele>
        <time>2026-02-22T14:59:50.188Z</time>
      </trkpt>
      <trkpt lat="44.18888" lon="0.60958">
        <ele>49</ele>
        <time>2026-02-22T14:59:51.189Z</time>
      </trkpt>
      <trkpt lat="44.18889" lon="0.60957">
        <ele>49</ele>
        <time>2026-02-22T14:59:52.188Z</time>
      </trkpt>
      <trkpt lat="44.1889" lon="0.60957">
        <ele>49</ele>
        <time>2026-02-22T14:59:53.188Z</time>
      </trkpt>
      <trkpt lat="44.18892" lon="0.60956">
        <ele>49</ele>
        <time>2026-02-22T14:59:54.188Z</time>
      </trkpt>
      <trkpt lat="44.18893" lon="0.60955">
        <ele>49</ele>
        <time>2026-02-22T14:59:55.188Z</time>
      </trkpt>
      <trkpt lat="44.18894" lon="0.60954">
        <ele>49</ele>
        <time>2026-02-22T14:59:56.188Z</time>
      </trkpt>
      <trkpt lat="44.18895" lon="0.60954">
        <ele>49</ele>
        <time>2026-02-22T14:59:57.188Z</time>
      </trkpt>
      <trkpt lat="44.18896" lon="0.60953">
        <ele>49</ele>
        <time>2026-02-22T14:59:58.188Z</time>
      </trkpt>
      <trkpt lat="44.18897" lon="0.60952">
        <ele>48</ele>
        <time>2026-02-22T14:59:59.188Z</time>
      </trkpt>
      <trkpt lat="44.18899" lon="0.60952">
        <ele>48</ele>
        <time>2026-02-22T15:00:00.188Z</time>
      </trkpt>
      <trkpt lat="44.189" lon="0.60951">
        <ele>49</ele>
        <time>2026-02-22T15:00:01.188Z</time>
      </trkpt>
      <trkpt lat="44.18901" lon="0.6095">
        <ele>49</ele>
        <time>2026-02-22T15:00:02.188Z</time>
      </trkpt>
      <trkpt lat="44.18902" lon="0.60949">
        <ele>49</ele>
        <time>2026-02-22T15:00:03.188Z</time>
      </trkpt>
      <trkpt lat="44.18904" lon="0.60949">
        <ele>49</ele>
        <time>2026-02-22T15:00:04.189Z</time>
      </trkpt>
      <trkpt lat="44.18905" lon="0.60948">
        <ele>49</ele>
        <time>2026-02-22T15:00:05.188Z</time>
      </trkpt>
      <trkpt lat="44.18907" lon="0.60948">
        <ele>49</ele>
        <time>2026-02-22T15:00:06.188Z</time>
      </trkpt>
      <trkpt lat="44.18908" lon="0.60947">
        <ele>49</ele>
        <time>2026-02-22T15:00:07.188Z</time>
      </trkpt>
      <trkpt lat="44.18909" lon="0.60946">
        <ele>49</ele>
        <time>2026-02-22T15:00:08.188Z</time>
      </trkpt>
      <trkpt lat="44.1891" lon="0.60946">
        <ele>49</ele>
        <time>2026-02-22T15:00:09.188Z</time>
      </trkpt>
      <trkpt lat="44.18911" lon="0.60945">
        <ele>49</ele>
        <time>2026-02-22T15:00:10.188Z</time>
      </trkpt>
      <trkpt lat="44.18912" lon="0.60944">
        <ele>48</ele>
        <time>2026-02-22T15:00:11.188Z</time>
      </trkpt>
      <trkpt lat="44.18913" lon="0.60944">
        <ele>48</ele>
        <time>2026-02-22T15:00:12.188Z</time>
      </trkpt>
      <trkpt lat="44.18915" lon="0.60943">
        <ele>48</ele>
        <time>2026-02-22T15:00:13.188Z</time>
      </trkpt>
      <trkpt lat="44.18916" lon="0.60942">
        <ele>47</ele>
        <time>2026-02-22T15:00:14.188Z</time>
      </trkpt>
      <trkpt lat="44.18917" lon="0.60941">
        <ele>47</ele>
        <time>2026-02-22T15:00:15.188Z</time>
      </trkpt>
      <trkpt lat="44.18918" lon="0.6094">
        <ele>47</ele>
        <time>2026-02-22T15:00:16.188Z</time>
      </trkpt>
      <trkpt lat="44.18919" lon="0.6094">
        <ele>47</ele>
        <time>2026-02-22T15:00:17.189Z</time>
      </trkpt>
      <trkpt lat="44.18921" lon="0.6094">
        <ele>47</ele>
        <time>2026-02-22T15:00:18.189Z</time>
      </trkpt>
      <trkpt lat="44.18922" lon="0.60939">
        <ele>46</ele>
        <time>2026-02-22T15:00:19.188Z</time>
      </trkpt>
      <trkpt lat="44.18923" lon="0.60939">
        <ele>46</ele>
        <time>2026-02-22T15:00:20.189Z</time>
      </trkpt>
      <trkpt lat="44.18924" lon="0.60939">
        <ele>46</ele>
        <time>2026-02-22T15:00:21.188Z</time>
      </trkpt>
      <trkpt lat="44.18925" lon="0.60938">
        <ele>46</ele>
        <time>2026-02-22T15:00:22.188Z</time>
      </trkpt>
      <trkpt lat="44.18926" lon="0.60938">
        <ele>46</ele>
        <time>2026-02-22T15:00:23.188Z</time>
      </trkpt>
      <trkpt lat="44.18928" lon="0.60937">
        <ele>46</ele>
        <time>2026-02-22T15:00:24.188Z</time>
      </trkpt>
      <trkpt lat="44.18929" lon="0.60936">
        <ele>46</ele>
        <time>2026-02-22T15:00:25.188Z</time>
      </trkpt>
      <trkpt lat="44.1893" lon="0.60936">
        <ele>47</ele>
        <time>2026-02-22T15:00:26.188Z</time>
      </trkpt>
      <trkpt lat="44.18932" lon="0.60936">
        <ele>47</ele>
        <time>2026-02-22T15:00:27.188Z</time>
      </trkpt>
      <trkpt lat="44.18933" lon="0.60936">
        <ele>47</ele>
        <time>2026-02-22T15:00:28.188Z</time>
      </trkpt>
      <trkpt lat="44.18934" lon="0.60936">
        <ele>47</ele>
        <time>2026-02-22T15:00:29.188Z</time>
      </trkpt>
      <trkpt lat="44.18935" lon="0.60936">
        <ele>47</ele>
        <time>2026-02-22T15:00:30.189Z</time>
      </trkpt>
      <trkpt lat="44.18936" lon="0.60936">
        <ele>46</ele>
        <time>2026-02-22T15:00:31.188Z</time>
      </trkpt>
      <trkpt lat="44.18938" lon="0.60936">
        <ele>46</ele>
        <time>2026-02-22T15:00:32.188Z</time>
      </trkpt>
      <trkpt lat="44.18939" lon="0.60936">
        <ele>46</ele>
        <time>2026-02-22T15:00:33.188Z</time>
      </trkpt>
      <trkpt lat="44.1894" lon="0.60936">
        <ele>46</ele>
        <time>2026-02-22T15:00:34.188Z</time>
      </trkpt>
      <trkpt lat="44.18942" lon="0.60936">
        <ele>46</ele>
        <time>2026-02-22T15:00:35.188Z</time>
      </trkpt>
      <trkpt lat="44.18943" lon="0.60936">
        <ele>46</ele>
        <time>2026-02-22T15:00:36.188Z</time>
      </trkpt>
      <trkpt lat="44.18944" lon="0.60936">
        <ele>47</ele>
        <time>2026-02-22T15:00:37.188Z</time>
      </trkpt>
      <trkpt lat="44.18945" lon="0.60936">
        <ele>47</ele>
        <time>2026-02-22T15:00:38.188Z</time>
      </trkpt>
      <trkpt lat="44.18946" lon="0.60935">
        <ele>47</ele>
        <time>2026-02-22T15:00:39.188Z</time>
      </trkpt>
      <trkpt lat="44.18947" lon="0.60935">
        <ele>47</ele>
        <time>2026-02-22T15:00:40.188Z</time>
      </trkpt>
      <trkpt lat="44.18948" lon="0.60935">
        <ele>47</ele>
        <time>2026-02-22T15:00:41.188Z</time>
      </trkpt>
      <trkpt lat="44.1895" lon="0.60935">
        <ele>47</ele>
        <time>2026-02-22T15:00:42.188Z</time>
      </trkpt>
      <trkpt lat="44.18951" lon="0.60935">
        <ele>47</ele>
        <time>2026-02-22T15:00:43.188Z</time>
      </trkpt>
      <trkpt lat="44.18952" lon="0.60935">
        <ele>47</ele>
        <time>2026-02-22T15:00:44.188Z</time>
      </trkpt>
      <trkpt lat="44.18953" lon="0.60935">
        <ele>47</ele>
        <time>2026-02-22T15:00:45.188Z</time>
      </trkpt>
      <trkpt lat="44.18954" lon="0.60934">
        <ele>47</ele>
        <time>2026-02-22T15:00:46.188Z</time>
      </trkpt>
      <trkpt lat="44.18956" lon="0.60934">
        <ele>47</ele>
        <time>2026-02-22T15:00:47.188Z</time>
      </trkpt>
      <trkpt lat="44.18957" lon="0.60934">
        <ele>47</ele>
        <time>2026-02-22T15:00:48.188Z</time>
      </trkpt>
      <trkpt lat="44.18958" lon="0.60934">
        <ele>47</ele>
        <time>2026-02-22T15:00:49.188Z</time>
      </trkpt>
      <trkpt lat="44.1896" lon="0.60933">
        <ele>47</ele>
        <time>2026-02-22T15:00:50.188Z</time>
      </trkpt>
      <trkpt lat="44.18961" lon="0.60933">
        <ele>48</ele>
        <time>2026-02-22T15:00:51.188Z</time>
      </trkpt>
      <trkpt lat="44.18962" lon="0.60933">
        <ele>48</ele>
        <time>2026-02-22T15:00:52.188Z</time>
      </trkpt>
      <trkpt lat="44.18963" lon="0.60933">
        <ele>48</ele>
        <time>2026-02-22T15:00:53.188Z</time>
      </trkpt>
      <trkpt lat="44.18964" lon="0.60932">
        <ele>48</ele>
        <time>2026-02-22T15:00:54.189Z</time>
      </trkpt>
      <trkpt lat="44.18965" lon="0.60932">
        <ele>48</ele>
        <time>2026-02-22T15:00:55.188Z</time>
      </trkpt>
      <trkpt lat="44.18966" lon="0.60932">
        <ele>48</ele>
        <time>2026-02-22T15:00:56.189Z</time>
      </trkpt>
      <trkpt lat="44.18967" lon="0.60931">
        <ele>48</ele>
        <time>2026-02-22T15:00:57.188Z</time>
      </trkpt>
      <trkpt lat="44.18969" lon="0.6093">
        <ele>49</ele>
        <time>2026-02-22T15:00:58.189Z</time>
      </trkpt>
      <trkpt lat="44.1897" lon="0.6093">
        <ele>49</ele>
        <time>2026-02-22T15:00:59.188Z</time>
      </trkpt>
      <trkpt lat="44.18971" lon="0.6093">
        <ele>49</ele>
        <time>2026-02-22T15:01:00.188Z</time>
      </trkpt>
      <trkpt lat="44.18972" lon="0.60929">
        <ele>49</ele>
        <time>2026-02-22T15:01:01.188Z</time>
      </trkpt>
      <trkpt lat="44.18973" lon="0.60929">
        <ele>49</ele>
        <time>2026-02-22T15:01:02.188Z</time>
      </trkpt>
      <trkpt lat="44.18974" lon="0.60929">
        <ele>49</ele>
        <time>2026-02-22T15:01:03.188Z</time>
      </trkpt>
      <trkpt lat="44.18975" lon="0.60929">
        <ele>49</ele>
        <time>2026-02-22T15:01:04.188Z</time>
      </trkpt>
      <trkpt lat="44.18977" lon="0.60928">
        <ele>48</ele>
        <time>2026-02-22T15:01:05.188Z</time>
      </trkpt>
      <trkpt lat="44.18978" lon="0.60928">
        <ele>48</ele>
        <time>2026-02-22T15:01:06.188Z</time>
      </trkpt>
      <trkpt lat="44.18979" lon="0.60927">
        <ele>48</ele>
        <time>2026-02-22T15:01:07.188Z</time>
      </trkpt>
      <trkpt lat="44.1898" lon="0.60927">
        <ele>48</ele>
        <time>2026-02-22T15:01:08.188Z</time>
      </trkpt>
      <trkpt lat="44.18981" lon="0.60927">
        <ele>48</ele>
        <time>2026-02-22T15:01:09.188Z</time>
      </trkpt>
      <trkpt lat="44.18982" lon="0.60926">
        <ele>48</ele>
        <time>2026-02-22T15:01:10.188Z</time>
      </trkpt>
      <trkpt lat="44.18984" lon="0.60926">
        <ele>48</ele>
        <time>2026-02-22T15:01:11.188Z</time>
      </trkpt>
      <trkpt lat="44.18985" lon="0.60925">
        <ele>48</ele>
        <time>2026-02-22T15:01:12.188Z</time>
      </trkpt>
      <trkpt lat="44.18986" lon="0.60925">
        <ele>48</ele>
        <time>2026-02-22T15:01:13.188Z</time>
      </trkpt>
      <trkpt lat="44.18987" lon="0.60924">
        <ele>49</ele>
        <time>2026-02-22T15:01:14.188Z</time>
      </trkpt>
      <trkpt lat="44.18988" lon="0.60924">
        <ele>49</ele>
        <time>2026-02-22T15:01:15.188Z</time>
      </trkpt>
      <trkpt lat="44.18989" lon="0.60924">
        <ele>49</ele>
        <time>2026-02-22T15:01:16.188Z</time>
      </trkpt>
      <trkpt lat="44.1899" lon="0.60924">
        <ele>48</ele>
        <time>2026-02-22T15:01:17.188Z</time>
      </trkpt>
      <trkpt lat="44.18991" lon="0.60924">
        <ele>48</ele>
        <time>2026-02-22T15:01:18.188Z</time>
      </trkpt>
      <trkpt lat="44.18992" lon="0.60924">
        <ele>48</ele>
        <time>2026-02-22T15:01:19.188Z</time>
      </trkpt>
      <trkpt lat="44.18993" lon="0.60924">
        <ele>47</ele>
        <time>2026-02-22T15:01:20.188Z</time>
      </trkpt>
      <trkpt lat="44.18994" lon="0.60923">
        <ele>47</ele>
        <time>2026-02-22T15:01:21.188Z</time>
      </trkpt>
      <trkpt lat="44.18996" lon="0.60923">
        <ele>47</ele>
        <time>2026-02-22T15:01:22.188Z</time>
      </trkpt>
      <trkpt lat="44.18997" lon="0.60922">
        <ele>47</ele>
        <time>2026-02-22T15:01:23.188Z</time>
      </trkpt>
      <trkpt lat="44.18998" lon="0.60922">
        <ele>47</ele>
        <time>2026-02-22T15:01:24.188Z</time>
      </trkpt>
      <trkpt lat="44.18999" lon="0.60921">
        <ele>47</ele>
        <time>2026-02-22T15:01:25.188Z</time>
      </trkpt>
      <trkpt lat="44.19" lon="0.60921">
        <ele>47</ele>
        <time>2026-02-22T15:01:26.188Z</time>
      </trkpt>
      <trkpt lat="44.19001" lon="0.60921">
        <ele>47</ele>
        <time>2026-02-22T15:01:27.188Z</time>
      </trkpt>
      <trkpt lat="44.19002" lon="0.6092">
        <ele>47</ele>
        <time>2026-02-22T15:01:28.189Z</time>
      </trkpt>
      <trkpt lat="44.19003" lon="0.6092">
        <ele>47</ele>
        <time>2026-02-22T15:01:29.188Z</time>
      </trkpt>
      <trkpt lat="44.19005" lon="0.6092">
        <ele>47</ele>
        <time>2026-02-22T15:01:30.188Z</time>
      </trkpt>
      <trkpt lat="44.19006" lon="0.60919">
        <ele>47</ele>
        <time>2026-02-22T15:01:31.188Z</time>
      </trkpt>
      <trkpt lat="44.19007" lon="0.60919">
        <ele>47</ele>
        <time>2026-02-22T15:01:32.189Z</time>
      </trkpt>
      <trkpt lat="44.19008" lon="0.60918">
        <ele>47</ele>
        <time>2026-02-22T15:01:33.188Z</time>
      </trkpt>
      <trkpt lat="44.19009" lon="0.60918">
        <ele>47</ele>
        <time>2026-02-22T15:01:34.188Z</time>
      </trkpt>
      <trkpt lat="44.1901" lon="0.60918">
        <ele>47</ele>
        <time>2026-02-22T15:01:35.188Z</time>
      </trkpt>
      <trkpt lat="44.19012" lon="0.60917">
        <ele>47</ele>
        <time>2026-02-22T15:01:36.188Z</time>
      </trkpt>
      <trkpt lat="44.19013" lon="0.60917">
        <ele>47</ele>
        <time>2026-02-22T15:01:37.188Z</time>
      </trkpt>
      <trkpt lat="44.19014" lon="0.60916">
        <ele>47</ele>
        <time>2026-02-22T15:01:38.188Z</time>
      </trkpt>
      <trkpt lat="44.19015" lon="0.60916">
        <ele>47</ele>
        <time>2026-02-22T15:01:39.188Z</time>
      </trkpt>
      <trkpt lat="44.19016" lon="0.60915">
        <ele>47</ele>
        <time>2026-02-22T15:01:40.188Z</time>
      </trkpt>
      <trkpt lat="44.19018" lon="0.60915">
        <ele>47</ele>
        <time>2026-02-22T15:01:41.188Z</time>
      </trkpt>
      <trkpt lat="44.19019" lon="0.60914">
        <ele>47</ele>
        <time>2026-02-22T15:01:42.188Z</time>
      </trkpt>
      <trkpt lat="44.1902" lon="0.60913">
        <ele>47</ele>
        <time>2026-02-22T15:01:43.188Z</time>
      </trkpt>
      <trkpt lat="44.19021" lon="0.60912">
        <ele>47</ele>
        <time>2026-02-22T15:01:44.188Z</time>
      </trkpt>
      <trkpt lat="44.19022" lon="0.60911">
        <ele>47</ele>
        <time>2026-02-22T15:01:45.188Z</time>
      </trkpt>
      <trkpt lat="44.19023" lon="0.6091">
        <ele>48</ele>
        <time>2026-02-22T15:01:46.188Z</time>
      </trkpt>
      <trkpt lat="44.19024" lon="0.60909">
        <ele>48</ele>
        <time>2026-02-22T15:01:47.188Z</time>
      </trkpt>
      <trkpt lat="44.19026" lon="0.60909">
        <ele>48</ele>
        <time>2026-02-22T15:01:48.188Z</time>
      </trkpt>
      <trkpt lat="44.19027" lon="0.60909">
        <ele>48</ele>
        <time>2026-02-22T15:01:49.188Z</time>
      </trkpt>
      <trkpt lat="44.19028" lon="0.60908">
        <ele>48</ele>
        <time>2026-02-22T15:01:50.188Z</time>
      </trkpt>
      <trkpt lat="44.19029" lon="0.60908">
        <ele>48</ele>
        <time>2026-02-22T15:01:51.188Z</time>
      </trkpt>
      <trkpt lat="44.1903" lon="0.60908">
        <ele>48</ele>
        <time>2026-02-22T15:01:52.188Z</time>
      </trkpt>
      <trkpt lat="44.19032" lon="0.60907">
        <ele>48</ele>
        <time>2026-02-22T15:01:53.188Z</time>
      </trkpt>
      <trkpt lat="44.19033" lon="0.60907">
        <ele>48</ele>
        <time>2026-02-22T15:01:54.188Z</time>
      </trkpt>
      <trkpt lat="44.19034" lon="0.60906">
        <ele>48</ele>
        <time>2026-02-22T15:01:55.188Z</time>
      </trkpt>
      <trkpt lat="44.19035" lon="0.60906">
        <ele>48</ele>
        <time>2026-02-22T15:01:56.188Z</time>
      </trkpt>
      <trkpt lat="44.19036" lon="0.60905">
        <ele>48</ele>
        <time>2026-02-22T15:01:57.188Z</time>
      </trkpt>
      <trkpt lat="44.19037" lon="0.60905">
        <ele>48</ele>
        <time>2026-02-22T15:01:58.189Z</time>
      </trkpt>
      <trkpt lat="44.19038" lon="0.60905">
        <ele>48</ele>
        <time>2026-02-22T15:01:59.188Z</time>
      </trkpt>
      <trkpt lat="44.1904" lon="0.60904">
        <ele>48</ele>
        <time>2026-02-22T15:02:00.188Z</time>
      </trkpt>
      <trkpt lat="44.19041" lon="0.60904">
        <ele>48</ele>
        <time>2026-02-22T15:02:01.188Z</time>
      </trkpt>
      <trkpt lat="44.19042" lon="0.60903">
        <ele>48</ele>
        <time>2026-02-22T15:02:02.188Z</time>
      </trkpt>
      <trkpt lat="44.19043" lon="0.60903">
        <ele>48</ele>
        <time>2026-02-22T15:02:03.188Z</time>
      </trkpt>
      <trkpt lat="44.19044" lon="0.60902">
        <ele>48</ele>
        <time>2026-02-22T15:02:04.188Z</time>
      </trkpt>
      <trkpt lat="44.19046" lon="0.60902">
        <ele>48</ele>
        <time>2026-02-22T15:02:05.188Z</time>
      </trkpt>
      <trkpt lat="44.19047" lon="0.60901">
        <ele>48</ele>
        <time>2026-02-22T15:02:06.188Z</time>
      </trkpt>
      <trkpt lat="44.19048" lon="0.609">
        <ele>49</ele>
        <time>2026-02-22T15:02:07.188Z</time>
      </trkpt>
      <trkpt lat="44.19049" lon="0.609">
        <ele>49</ele>
        <time>2026-02-22T15:02:08.189Z</time>
      </trkpt>
      <trkpt lat="44.1905" lon="0.60899">
        <ele>49</ele>
        <time>2026-02-22T15:02:09.189Z</time>
      </trkpt>
      <trkpt lat="44.19051" lon="0.60899">
        <ele>50</ele>
        <time>2026-02-22T15:02:10.189Z</time>
      </trkpt>
      <trkpt lat="44.19053" lon="0.60898">
        <ele>50</ele>
        <time>2026-02-22T15:02:11.188Z</time>
      </trkpt>
      <trkpt lat="44.19054" lon="0.60898">
        <ele>49</ele>
        <time>2026-02-22T15:02:12.188Z</time>
      </trkpt>
      <trkpt lat="44.19055" lon="0.60898">
        <ele>49</ele>
        <time>2026-02-22T15:02:13.188Z</time>
      </trkpt>
      <trkpt lat="44.19056" lon="0.60897">
        <ele>49</ele>
        <time>2026-02-22T15:02:14.188Z</time>
      </trkpt>
      <trkpt lat="44.19057" lon="0.60897">
        <ele>49</ele>
        <time>2026-02-22T15:02:15.188Z</time>
      </trkpt>
      <trkpt lat="44.19058" lon="0.60896">
        <ele>49</ele>
        <time>2026-02-22T15:02:16.188Z</time>
      </trkpt>
      <trkpt lat="44.19059" lon="0.60896">
        <ele>48</ele>
        <time>2026-02-22T15:02:17.188Z</time>
      </trkpt>
      <trkpt lat="44.19061" lon="0.60895">
        <ele>48</ele>
        <time>2026-02-22T15:02:18.188Z</time>
      </trkpt>
      <trkpt lat="44.19062" lon="0.60895">
        <ele>48</ele>
        <time>2026-02-22T15:02:19.188Z</time>
      </trkpt>
      <trkpt lat="44.19063" lon="0.60895">
        <ele>48</ele>
        <time>2026-02-22T15:02:20.188Z</time>
      </trkpt>
      <trkpt lat="44.19064" lon="0.60895">
        <ele>48</ele>
        <time>2026-02-22T15:02:21.188Z</time>
      </trkpt>
      <trkpt lat="44.19065" lon="0.60894">
        <ele>48</ele>
        <time>2026-02-22T15:02:22.189Z</time>
      </trkpt>
      <trkpt lat="44.19066" lon="0.60894">
        <ele>48</ele>
        <time>2026-02-22T15:02:23.188Z</time>
      </trkpt>
      <trkpt lat="44.19067" lon="0.60894">
        <ele>48</ele>
        <time>2026-02-22T15:02:24.188Z</time>
      </trkpt>
      <trkpt lat="44.19068" lon="0.60893">
        <ele>48</ele>
        <time>2026-02-22T15:02:25.188Z</time>
      </trkpt>
      <trkpt lat="44.1907" lon="0.60892">
        <ele>48</ele>
        <time>2026-02-22T15:02:26.188Z</time>
      </trkpt>
      <trkpt lat="44.19071" lon="0.60892">
        <ele>48</ele>
        <time>2026-02-22T15:02:27.188Z</time>
      </trkpt>
      <trkpt lat="44.19072" lon="0.60892">
        <ele>48</ele>
        <time>2026-02-22T15:02:28.188Z</time>
      </trkpt>
      <trkpt lat="44.19073" lon="0.60891">
        <ele>47</ele>
        <time>2026-02-22T15:02:29.188Z</time>
      </trkpt>
      <trkpt lat="44.19074" lon="0.6089">
        <ele>48</ele>
        <time>2026-02-22T15:02:30.188Z</time>
      </trkpt>
      <trkpt lat="44.19075" lon="0.6089">
        <ele>48</ele>
        <time>2026-02-22T15:02:31.188Z</time>
      </trkpt>
      <trkpt lat="44.19077" lon="0.60889">
        <ele>48</ele>
        <time>2026-02-22T15:02:32.188Z</time>
      </trkpt>
      <trkpt lat="44.19078" lon="0.60888">
        <ele>48</ele>
        <time>2026-02-22T15:02:33.188Z</time>
      </trkpt>
      <trkpt lat="44.19079" lon="0.60888">
        <ele>48</ele>
        <time>2026-02-22T15:02:34.188Z</time>
      </trkpt>
      <trkpt lat="44.19081" lon="0.60888">
        <ele>48</ele>
        <time>2026-02-22T15:02:35.188Z</time>
      </trkpt>
      <trkpt lat="44.19082" lon="0.60887">
        <ele>48</ele>
        <time>2026-02-22T15:02:36.188Z</time>
      </trkpt>
      <trkpt lat="44.19083" lon="0.60887">
        <ele>48</ele>
        <time>2026-02-22T15:02:37.188Z</time>
      </trkpt>
      <trkpt lat="44.19084" lon="0.60887">
        <ele>48</ele>
        <time>2026-02-22T15:02:38.188Z</time>
      </trkpt>
      <trkpt lat="44.19085" lon="0.60887">
        <ele>47</ele>
        <time>2026-02-22T15:02:39.188Z</time>
      </trkpt>
      <trkpt lat="44.19086" lon="0.60886">
        <ele>47</ele>
        <time>2026-02-22T15:02:40.188Z</time>
      </trkpt>
      <trkpt lat="44.19087" lon="0.60886">
        <ele>47</ele>
        <time>2026-02-22T15:02:41.188Z</time>
      </trkpt>
      <trkpt lat="44.19089" lon="0.60885">
        <ele>47</ele>
        <time>2026-02-22T15:02:42.188Z</time>
      </trkpt>
      <trkpt lat="44.1909" lon="0.60885">
        <ele>47</ele>
        <time>2026-02-22T15:02:43.188Z</time>
      </trkpt>
      <trkpt lat="44.19091" lon="0.60884">
        <ele>47</ele>
        <time>2026-02-22T15:02:44.189Z</time>
      </trkpt>
      <trkpt lat="44.19093" lon="0.60884">
        <ele>47</ele>
        <time>2026-02-22T15:02:45.188Z</time>
      </trkpt>
      <trkpt lat="44.19094" lon="0.60883">
        <ele>47</ele>
        <time>2026-02-22T15:02:46.188Z</time>
      </trkpt>
      <trkpt lat="44.19095" lon="0.60883">
        <ele>47</ele>
        <time>2026-02-22T15:02:47.188Z</time>
      </trkpt>
      <trkpt lat="44.19096" lon="0.60882">
        <ele>47</ele>
        <time>2026-02-22T15:02:48.188Z</time>
      </trkpt>
      <trkpt lat="44.19097" lon="0.60882">
        <ele>47</ele>
        <time>2026-02-22T15:02:49.188Z</time>
      </trkpt>
      <trkpt lat="44.19098" lon="0.60881">
        <ele>48</ele>
        <time>2026-02-22T15:02:50.188Z</time>
      </trkpt>
      <trkpt lat="44.19099" lon="0.60881">
        <ele>47</ele>
        <time>2026-02-22T15:02:51.188Z</time>
      </trkpt>
      <trkpt lat="44.191" lon="0.60881">
        <ele>47</ele>
        <time>2026-02-22T15:02:52.189Z</time>
      </trkpt>
      <trkpt lat="44.19101" lon="0.6088">
        <ele>47</ele>
        <time>2026-02-22T15:02:53.188Z</time>
      </trkpt>
      <trkpt lat="44.19102" lon="0.6088">
        <ele>47</ele>
        <time>2026-02-22T15:02:54.188Z</time>
      </trkpt>
      <trkpt lat="44.19103" lon="0.60879">
        <ele>47</ele>
        <time>2026-02-22T15:02:55.188Z</time>
      </trkpt>
      <trkpt lat="44.19104" lon="0.60879">
        <ele>47</ele>
        <time>2026-02-22T15:02:56.188Z</time>
      </trkpt>
      <trkpt lat="44.19106" lon="0.60878">
        <ele>47</ele>
        <time>2026-02-22T15:02:57.188Z</time>
      </trkpt>
      <trkpt lat="44.19107" lon="0.60878">
        <ele>47</ele>
        <time>2026-02-22T15:02:58.188Z</time>
      </trkpt>
      <trkpt lat="44.19108" lon="0.60877">
        <ele>47</ele>
        <time>2026-02-22T15:02:59.188Z</time>
      </trkpt>
      <trkpt lat="44.19109" lon="0.60877">
        <ele>47</ele>
        <time>2026-02-22T15:03:00.188Z</time>
      </trkpt>
      <trkpt lat="44.19111" lon="0.60876">
        <ele>48</ele>
        <time>2026-02-22T15:03:01.188Z</time>
      </trkpt>
      <trkpt lat="44.19112" lon="0.60876">
        <ele>47</ele>
        <time>2026-02-22T15:03:02.188Z</time>
      </trkpt>
      <trkpt lat="44.19113" lon="0.60876">
        <ele>47</ele>
        <time>2026-02-22T15:03:03.188Z</time>
      </trkpt>
      <trkpt lat="44.19114" lon="0.60875">
        <ele>47</ele>
        <time>2026-02-22T15:03:04.188Z</time>
      </trkpt>
      <trkpt lat="44.19115" lon="0.60875">
        <ele>47</ele>
        <time>2026-02-22T15:03:05.188Z</time>
      </trkpt>
      <trkpt lat="44.19116" lon="0.60875">
        <ele>47</ele>
        <time>2026-02-22T15:03:06.188Z</time>
      </trkpt>
      <trkpt lat="44.19118" lon="0.60874">
        <ele>46</ele>
        <time>2026-02-22T15:03:07.188Z</time>
      </trkpt>
      <trkpt lat="44.19119" lon="0.60874">
        <ele>46</ele>
        <time>2026-02-22T15:03:08.188Z</time>
      </trkpt>
      <trkpt lat="44.1912" lon="0.60874">
        <ele>46</ele>
        <time>2026-02-22T15:03:09.188Z</time>
      </trkpt>
      <trkpt lat="44.19121" lon="0.60874">
        <ele>46</ele>
        <time>2026-02-22T15:03:10.188Z</time>
      </trkpt>
      <trkpt lat="44.19122" lon="0.60873">
        <ele>46</ele>
        <time>2026-02-22T15:03:11.188Z</time>
      </trkpt>
      <trkpt lat="44.19124" lon="0.60872">
        <ele>46</ele>
        <time>2026-02-22T15:03:12.188Z</time>
      </trkpt>
      <trkpt lat="44.19125" lon="0.60872">
        <ele>46</ele>
        <time>2026-02-22T15:03:13.188Z</time>
      </trkpt>
      <trkpt lat="44.19126" lon="0.60872">
        <ele>46</ele>
        <time>2026-02-22T15:03:14.188Z</time>
      </trkpt>
      <trkpt lat="44.19127" lon="0.60871">
        <ele>45</ele>
        <time>2026-02-22T15:03:15.188Z</time>
      </trkpt>
      <trkpt lat="44.19128" lon="0.60871">
        <ele>45</ele>
        <time>2026-02-22T15:03:16.188Z</time>
      </trkpt>
      <trkpt lat="44.1913" lon="0.60871">
        <ele>46</ele>
        <time>2026-02-22T15:03:17.188Z</time>
      </trkpt>
      <trkpt lat="44.19131" lon="0.60871">
        <ele>46</ele>
        <time>2026-02-22T15:03:18.188Z</time>
      </trkpt>
      <trkpt lat="44.19132" lon="0.6087">
        <ele>46</ele>
        <time>2026-02-22T15:03:19.188Z</time>
      </trkpt>
      <trkpt lat="44.19133" lon="0.6087">
        <ele>46</ele>
        <time>2026-02-22T15:03:20.189Z</time>
      </trkpt>
      <trkpt lat="44.19134" lon="0.60869">
        <ele>46</ele>
        <time>2026-02-22T15:03:21.188Z</time>
      </trkpt>
      <trkpt lat="44.19135" lon="0.60869">
        <ele>46</ele>
        <time>2026-02-22T15:03:22.188Z</time>
      </trkpt>
      <trkpt lat="44.19136" lon="0.60868">
        <ele>46</ele>
        <time>2026-02-22T15:03:23.188Z</time>
      </trkpt>
      <trkpt lat="44.19138" lon="0.60868">
        <ele>46</ele>
        <time>2026-02-22T15:03:24.188Z</time>
      </trkpt>
      <trkpt lat="44.19139" lon="0.60867">
        <ele>46</ele>
        <time>2026-02-22T15:03:25.188Z</time>
      </trkpt>
      <trkpt lat="44.1914" lon="0.60867">
        <ele>46</ele>
        <time>2026-02-22T15:03:26.188Z</time>
      </trkpt>
      <trkpt lat="44.19141" lon="0.60866">
        <ele>46</ele>
        <time>2026-02-22T15:03:27.188Z</time>
      </trkpt>
      <trkpt lat="44.19143" lon="0.60866">
        <ele>46</ele>
        <time>2026-02-22T15:03:28.188Z</time>
      </trkpt>
      <trkpt lat="44.19144" lon="0.60865">
        <ele>46</ele>
        <time>2026-02-22T15:03:29.188Z</time>
      </trkpt>
      <trkpt lat="44.19145" lon="0.60865">
        <ele>46</ele>
        <time>2026-02-22T15:03:30.188Z</time>
      </trkpt>
      <trkpt lat="44.19146" lon="0.60864">
        <ele>46</ele>
        <time>2026-02-22T15:03:31.188Z</time>
      </trkpt>
      <trkpt lat="44.19147" lon="0.60864">
        <ele>46</ele>
        <time>2026-02-22T15:03:32.188Z</time>
      </trkpt>
      <trkpt lat="44.19148" lon="0.60863">
        <ele>46</ele>
        <time>2026-02-22T15:03:33.188Z</time>
      </trkpt>
      <trkpt lat="44.19149" lon="0.60863">
        <ele>46</ele>
        <time>2026-02-22T15:03:34.188Z</time>
      </trkpt>
      <trkpt lat="44.19151" lon="0.60863">
        <ele>46</ele>
        <time>2026-02-22T15:03:35.188Z</time>
      </trkpt>
      <trkpt lat="44.19152" lon="0.60862">
        <ele>46</ele>
        <time>2026-02-22T15:03:36.188Z</time>
      </trkpt>
      <trkpt lat="44.19153" lon="0.60862">
        <ele>46</ele>
        <time>2026-02-22T15:03:37.188Z</time>
      </trkpt>
      <trkpt lat="44.19154" lon="0.60862">
        <ele>46</ele>
        <time>2026-02-22T15:03:38.188Z</time>
      </trkpt>
      <trkpt lat="44.19155" lon="0.60861">
        <ele>46</ele>
        <time>2026-02-22T15:03:39.188Z</time>
      </trkpt>
      <trkpt lat="44.19156" lon="0.60861">
        <ele>46</ele>
        <time>2026-02-22T15:03:40.188Z</time>
      </trkpt>
      <trkpt lat="44.19157" lon="0.6086">
        <ele>46</ele>
        <time>2026-02-22T15:03:41.188Z</time>
      </trkpt>
      <trkpt lat="44.19158" lon="0.6086">
        <ele>46</ele>
        <time>2026-02-22T15:03:42.188Z</time>
      </trkpt>
      <trkpt lat="44.1916" lon="0.60859">
        <ele>47</ele>
        <time>2026-02-22T15:03:43.188Z</time>
      </trkpt>
      <trkpt lat="44.19161" lon="0.60859">
        <ele>46</ele>
        <time>2026-02-22T15:03:44.188Z</time>
      </trkpt>
      <trkpt lat="44.19162" lon="0.60858">
        <ele>47</ele>
        <time>2026-02-22T15:03:45.188Z</time>
      </trkpt>
      <trkpt lat="44.19163" lon="0.60858">
        <ele>47</ele>
        <time>2026-02-22T15:03:46.188Z</time>
      </trkpt>
      <trkpt lat="44.19164" lon="0.60857">
        <ele>47</ele>
        <time>2026-02-22T15:03:47.188Z</time>
      </trkpt>
      <trkpt lat="44.19165" lon="0.60856">
        <ele>47</ele>
        <time>2026-02-22T15:03:48.188Z</time>
      </trkpt>
      <trkpt lat="44.19166" lon="0.60856">
        <ele>47</ele>
        <time>2026-02-22T15:03:49.188Z</time>
      </trkpt>
      <trkpt lat="44.19168" lon="0.60855">
        <ele>47</ele>
        <time>2026-02-22T15:03:50.188Z</time>
      </trkpt>
      <trkpt lat="44.19169" lon="0.60855">
        <ele>47</ele>
        <time>2026-02-22T15:03:51.188Z</time>
      </trkpt>
      <trkpt lat="44.1917" lon="0.60854">
        <ele>47</ele>
        <time>2026-02-22T15:03:52.189Z</time>
      </trkpt>
      <trkpt lat="44.19171" lon="0.60854">
        <ele>47</ele>
        <time>2026-02-22T15:03:53.188Z</time>
      </trkpt>
      <trkpt lat="44.19172" lon="0.60854">
        <ele>47</ele>
        <time>2026-02-22T15:03:54.188Z</time>
      </trkpt>
      <trkpt lat="44.19173" lon="0.60853">
        <ele>47</ele>
        <time>2026-02-22T15:03:55.188Z</time>
      </trkpt>
      <trkpt lat="44.19174" lon="0.60852">
        <ele>47</ele>
        <time>2026-02-22T15:03:56.188Z</time>
      </trkpt>
      <trkpt lat="44.19175" lon="0.60851">
        <ele>47</ele>
        <time>2026-02-22T15:03:57.188Z</time>
      </trkpt>
      <trkpt lat="44.19176" lon="0.6085">
        <ele>47</ele>
        <time>2026-02-22T15:03:58.189Z</time>
      </trkpt>
      <trkpt lat="44.19178" lon="0.6085">
        <ele>48</ele>
        <time>2026-02-22T15:03:59.189Z</time>
      </trkpt>
      <trkpt lat="44.19179" lon="0.60849">
        <ele>48</ele>
        <time>2026-02-22T15:04:00.188Z</time>
      </trkpt>
      <trkpt lat="44.1918" lon="0.60849">
        <ele>47</ele>
        <time>2026-02-22T15:04:01.188Z</time>
      </trkpt>
      <trkpt lat="44.19181" lon="0.60848">
        <ele>47</ele>
        <time>2026-02-22T15:04:02.188Z</time>
      </trkpt>
      <trkpt lat="44.19182" lon="0.60848">
        <ele>47</ele>
        <time>2026-02-22T15:04:03.188Z</time>
      </trkpt>
      <trkpt lat="44.19183" lon="0.60847">
        <ele>47</ele>
        <time>2026-02-22T15:04:04.188Z</time>
      </trkpt>
      <trkpt lat="44.19184" lon="0.60846">
        <ele>48</ele>
        <time>2026-02-22T15:04:05.188Z</time>
      </trkpt>
      <trkpt lat="44.19186" lon="0.60845">
        <ele>48</ele>
        <time>2026-02-22T15:04:06.188Z</time>
      </trkpt>
      <trkpt lat="44.19187" lon="0.60845">
        <ele>48</ele>
        <time>2026-02-22T15:04:07.188Z</time>
      </trkpt>
      <trkpt lat="44.19188" lon="0.60845">
        <ele>48</ele>
        <time>2026-02-22T15:04:08.188Z</time>
      </trkpt>
      <trkpt lat="44.19189" lon="0.60844">
        <ele>48</ele>
        <time>2026-02-22T15:04:09.188Z</time>
      </trkpt>
      <trkpt lat="44.1919" lon="0.60844">
        <ele>48</ele>
        <time>2026-02-22T15:04:10.188Z</time>
      </trkpt>
      <trkpt lat="44.19191" lon="0.60843">
        <ele>48</ele>
        <time>2026-02-22T15:04:11.188Z</time>
      </trkpt>
      <trkpt lat="44.19192" lon="0.60842">
        <ele>48</ele>
        <time>2026-02-22T15:04:12.188Z</time>
      </trkpt>
      <trkpt lat="44.19193" lon="0.60842">
        <ele>48</ele>
        <time>2026-02-22T15:04:13.188Z</time>
      </trkpt>
      <trkpt lat="44.19194" lon="0.60841">
        <ele>48</ele>
        <time>2026-02-22T15:04:14.188Z</time>
      </trkpt>
      <trkpt lat="44.19195" lon="0.60841">
        <ele>48</ele>
        <time>2026-02-22T15:04:15.188Z</time>
      </trkpt>
      <trkpt lat="44.19196" lon="0.6084">
        <ele>48</ele>
        <time>2026-02-22T15:04:16.188Z</time>
      </trkpt>
      <trkpt lat="44.19197" lon="0.60839">
        <ele>48</ele>
        <time>2026-02-22T15:04:17.188Z</time>
      </trkpt>
      <trkpt lat="44.19198" lon="0.60838">
        <ele>48</ele>
        <time>2026-02-22T15:04:18.188Z</time>
      </trkpt>
      <trkpt lat="44.19199" lon="0.60838">
        <ele>48</ele>
        <time>2026-02-22T15:04:19.188Z</time>
      </trkpt>
      <trkpt lat="44.192" lon="0.60837">
        <ele>48</ele>
        <time>2026-02-22T15:04:20.188Z</time>
      </trkpt>
      <trkpt lat="44.19202" lon="0.60836">
        <ele>48</ele>
        <time>2026-02-22T15:04:21.188Z</time>
      </trkpt>
      <trkpt lat="44.19203" lon="0.60836">
        <ele>48</ele>
        <time>2026-02-22T15:04:22.189Z</time>
      </trkpt>
      <trkpt lat="44.19204" lon="0.60835">
        <ele>48</ele>
        <time>2026-02-22T15:04:23.188Z</time>
      </trkpt>
      <trkpt lat="44.19205" lon="0.60835">
        <ele>48</ele>
        <time>2026-02-22T15:04:24.188Z</time>
      </trkpt>
      <trkpt lat="44.19206" lon="0.60834">
        <ele>48</ele>
        <time>2026-02-22T15:04:25.188Z</time>
      </trkpt>
      <trkpt lat="44.19207" lon="0.60834">
        <ele>47</ele>
        <time>2026-02-22T15:04:26.188Z</time>
      </trkpt>
      <trkpt lat="44.19208" lon="0.60834">
        <ele>47</ele>
        <time>2026-02-22T15:04:27.188Z</time>
      </trkpt>
      <trkpt lat="44.1921" lon="0.60833">
        <ele>47</ele>
        <time>2026-02-22T15:04:28.188Z</time>
      </trkpt>
      <trkpt lat="44.19211" lon="0.60833">
        <ele>47</ele>
        <time>2026-02-22T15:04:29.188Z</time>
      </trkpt>
      <trkpt lat="44.19212" lon="0.60832">
        <ele>47</ele>
        <time>2026-02-22T15:04:30.188Z</time>
      </trkpt>
      <trkpt lat="44.19213" lon="0.60831">
        <ele>47</ele>
        <time>2026-02-22T15:04:31.188Z</time>
      </trkpt>
      <trkpt lat="44.19214" lon="0.6083">
        <ele>47</ele>
        <time>2026-02-22T15:04:32.188Z</time>
      </trkpt>
      <trkpt lat="44.19216" lon="0.6083">
        <ele>47</ele>
        <time>2026-02-22T15:04:33.188Z</time>
      </trkpt>
      <trkpt lat="44.19216" lon="0.6083">
        <ele>47</ele>
        <time>2026-02-22T15:04:34.189Z</time>
      </trkpt>
      <trkpt lat="44.19217" lon="0.60829">
        <ele>46</ele>
        <time>2026-02-22T15:04:35.189Z</time>
      </trkpt>
      <trkpt lat="44.19219" lon="0.60828">
        <ele>46</ele>
        <time>2026-02-22T15:04:36.189Z</time>
      </trkpt>
      <trkpt lat="44.1922" lon="0.60828">
        <ele>46</ele>
        <time>2026-02-22T15:04:37.188Z</time>
      </trkpt>
      <trkpt lat="44.19221" lon="0.60827">
        <ele>46</ele>
        <time>2026-02-22T15:04:38.188Z</time>
      </trkpt>
      <trkpt lat="44.19222" lon="0.60826">
        <ele>46</ele>
        <time>2026-02-22T15:04:39.189Z</time>
      </trkpt>
      <trkpt lat="44.19223" lon="0.60826">
        <ele>46</ele>
        <time>2026-02-22T15:04:40.188Z</time>
      </trkpt>
      <trkpt lat="44.19225" lon="0.60826">
        <ele>46</ele>
        <time>2026-02-22T15:04:41.188Z</time>
      </trkpt>
      <trkpt lat="44.19225" lon="0.60825">
        <ele>46</ele>
        <time>2026-02-22T15:04:42.188Z</time>
      </trkpt>
      <trkpt lat="44.19226" lon="0.60824">
        <ele>46</ele>
        <time>2026-02-22T15:04:43.188Z</time>
      </trkpt>
      <trkpt lat="44.19228" lon="0.60824">
        <ele>46</ele>
        <time>2026-02-22T15:04:44.188Z</time>
      </trkpt>
      <trkpt lat="44.19229" lon="0.60823">
        <ele>46</ele>
        <time>2026-02-22T15:04:45.188Z</time>
      </trkpt>
      <trkpt lat="44.1923" lon="0.60823">
        <ele>45</ele>
        <time>2026-02-22T15:04:46.188Z</time>
      </trkpt>
      <trkpt lat="44.19231" lon="0.60822">
        <ele>45</ele>
        <time>2026-02-22T15:04:47.188Z</time>
      </trkpt>
      <trkpt lat="44.19232" lon="0.60822">
        <ele>45</ele>
        <time>2026-02-22T15:04:48.188Z</time>
      </trkpt>
      <trkpt lat="44.19233" lon="0.60821">
        <ele>46</ele>
        <time>2026-02-22T15:04:49.188Z</time>
      </trkpt>
      <trkpt lat="44.19234" lon="0.60821">
        <ele>46</ele>
        <time>2026-02-22T15:04:50.188Z</time>
      </trkpt>
      <trkpt lat="44.19235" lon="0.6082">
        <ele>46</ele>
        <time>2026-02-22T15:04:51.188Z</time>
      </trkpt>
      <trkpt lat="44.19236" lon="0.6082">
        <ele>45</ele>
        <time>2026-02-22T15:04:52.188Z</time>
      </trkpt>
      <trkpt lat="44.19237" lon="0.60819">
        <ele>46</ele>
        <time>2026-02-22T15:04:53.188Z</time>
      </trkpt>
      <trkpt lat="44.19239" lon="0.60819">
        <ele>46</ele>
        <time>2026-02-22T15:04:54.189Z</time>
      </trkpt>
      <trkpt lat="44.1924" lon="0.60818">
        <ele>46</ele>
        <time>2026-02-22T15:04:55.188Z</time>
      </trkpt>
      <trkpt lat="44.19241" lon="0.60818">
        <ele>46</ele>
        <time>2026-02-22T15:04:56.188Z</time>
      </trkpt>
      <trkpt lat="44.19242" lon="0.60817">
        <ele>46</ele>
        <time>2026-02-22T15:04:57.188Z</time>
      </trkpt>
      <trkpt lat="44.19243" lon="0.60817">
        <ele>46</ele>
        <time>2026-02-22T15:04:58.188Z</time>
      </trkpt>
      <trkpt lat="44.19244" lon="0.60817">
        <ele>47</ele>
        <time>2026-02-22T15:04:59.188Z</time>
      </trkpt>
      <trkpt lat="44.19245" lon="0.60817">
        <ele>47</ele>
        <time>2026-02-22T15:05:00.188Z</time>
      </trkpt>
      <trkpt lat="44.19246" lon="0.60816">
        <ele>47</ele>
        <time>2026-02-22T15:05:01.188Z</time>
      </trkpt>
      <trkpt lat="44.19248" lon="0.60816">
        <ele>47</ele>
        <time>2026-02-22T15:05:02.188Z</time>
      </trkpt>
      <trkpt lat="44.19249" lon="0.60816">
        <ele>47</ele>
        <time>2026-02-22T15:05:03.188Z</time>
      </trkpt>
      <trkpt lat="44.1925" lon="0.60816">
        <ele>47</ele>
        <time>2026-02-22T15:05:04.188Z</time>
      </trkpt>
      <trkpt lat="44.19251" lon="0.60816">
        <ele>47</ele>
        <time>2026-02-22T15:05:05.188Z</time>
      </trkpt>
      <trkpt lat="44.19252" lon="0.60816">
        <ele>48</ele>
        <time>2026-02-22T15:05:06.188Z</time>
      </trkpt>
      <trkpt lat="44.19254" lon="0.60816">
        <ele>48</ele>
        <time>2026-02-22T15:05:07.188Z</time>
      </trkpt>
      <trkpt lat="44.19255" lon="0.60816">
        <ele>48</ele>
        <time>2026-02-22T15:05:08.188Z</time>
      </trkpt>
      <trkpt lat="44.19256" lon="0.60816">
        <ele>48</ele>
        <time>2026-02-22T15:05:09.188Z</time>
      </trkpt>
      <trkpt lat="44.19257" lon="0.60817">
        <ele>48</ele>
        <time>2026-02-22T15:05:10.188Z</time>
      </trkpt>
      <trkpt lat="44.19258" lon="0.60817">
        <ele>48</ele>
        <time>2026-02-22T15:05:11.188Z</time>
      </trkpt>
      <trkpt lat="44.19259" lon="0.60817">
        <ele>48</ele>
        <time>2026-02-22T15:05:12.189Z</time>
      </trkpt>
      <trkpt lat="44.1926" lon="0.60818">
        <ele>48</ele>
        <time>2026-02-22T15:05:13.189Z</time>
      </trkpt>
      <trkpt lat="44.19261" lon="0.60818">
        <ele>48</ele>
        <time>2026-02-22T15:05:14.188Z</time>
      </trkpt>
      <trkpt lat="44.19263" lon="0.60819">
        <ele>48</ele>
        <time>2026-02-22T15:05:15.188Z</time>
      </trkpt>
      <trkpt lat="44.19264" lon="0.6082">
        <ele>48</ele>
        <time>2026-02-22T15:05:16.188Z</time>
      </trkpt>
      <trkpt lat="44.19265" lon="0.6082">
        <ele>48</ele>
        <time>2026-02-22T15:05:17.188Z</time>
      </trkpt>
      <trkpt lat="44.19266" lon="0.60821">
        <ele>48</ele>
        <time>2026-02-22T15:05:18.188Z</time>
      </trkpt>
      <trkpt lat="44.19267" lon="0.60821">
        <ele>48</ele>
        <time>2026-02-22T15:05:19.188Z</time>
      </trkpt>
      <trkpt lat="44.19268" lon="0.60822">
        <ele>47</ele>
        <time>2026-02-22T15:05:20.188Z</time>
      </trkpt>
      <trkpt lat="44.19269" lon="0.60823">
        <ele>47</ele>
        <time>2026-02-22T15:05:21.188Z</time>
      </trkpt>
      <trkpt lat="44.1927" lon="0.60824">
        <ele>47</ele>
        <time>2026-02-22T15:05:22.188Z</time>
      </trkpt>
      <trkpt lat="44.19271" lon="0.60825">
        <ele>46</ele>
        <time>2026-02-22T15:05:23.188Z</time>
      </trkpt>
      <trkpt lat="44.19272" lon="0.60826">
        <ele>46</ele>
        <time>2026-02-22T15:05:24.188Z</time>
      </trkpt>
      <trkpt lat="44.19273" lon="0.60827">
        <ele>46</ele>
        <time>2026-02-22T15:05:25.188Z</time>
      </trkpt>
      <trkpt lat="44.19274" lon="0.60829">
        <ele>46</ele>
        <time>2026-02-22T15:05:26.189Z</time>
      </trkpt>
      <trkpt lat="44.19275" lon="0.6083">
        <ele>46</ele>
        <time>2026-02-22T15:05:27.188Z</time>
      </trkpt>
      <trkpt lat="44.19275" lon="0.60831">
        <ele>46</ele>
        <time>2026-02-22T15:05:28.188Z</time>
      </trkpt>
      <trkpt lat="44.19276" lon="0.60833">
        <ele>46</ele>
        <time>2026-02-22T15:05:29.188Z</time>
      </trkpt>
      <trkpt lat="44.19276" lon="0.60835">
        <ele>46</ele>
        <time>2026-02-22T15:05:30.188Z</time>
      </trkpt>
      <trkpt lat="44.19277" lon="0.60836">
        <ele>46</ele>
        <time>2026-02-22T15:05:31.188Z</time>
      </trkpt>
      <trkpt lat="44.19277" lon="0.60838">
        <ele>46</ele>
        <time>2026-02-22T15:05:32.188Z</time>
      </trkpt>
      <trkpt lat="44.19278" lon="0.6084">
        <ele>46</ele>
        <time>2026-02-22T15:05:33.188Z</time>
      </trkpt>
      <trkpt lat="44.19278" lon="0.60842">
        <ele>46</ele>
        <time>2026-02-22T15:05:34.188Z</time>
      </trkpt>
      <trkpt lat="44.19279" lon="0.60843">
        <ele>46</ele>
        <time>2026-02-22T15:05:35.188Z</time>
      </trkpt>
      <trkpt lat="44.19279" lon="0.60845">
        <ele>46</ele>
        <time>2026-02-22T15:05:36.188Z</time>
      </trkpt>
      <trkpt lat="44.19279" lon="0.60847">
        <ele>46</ele>
        <time>2026-02-22T15:05:37.188Z</time>
      </trkpt>
      <trkpt lat="44.1928" lon="0.60848">
        <ele>46</ele>
        <time>2026-02-22T15:05:38.188Z</time>
      </trkpt>
      <trkpt lat="44.1928" lon="0.6085">
        <ele>46</ele>
        <time>2026-02-22T15:05:39.188Z</time>
      </trkpt>
      <trkpt lat="44.1928" lon="0.60852">
        <ele>46</ele>
        <time>2026-02-22T15:05:40.188Z</time>
      </trkpt>
      <trkpt lat="44.19281" lon="0.60854">
        <ele>46</ele>
        <time>2026-02-22T15:05:41.188Z</time>
      </trkpt>
      <trkpt lat="44.19281" lon="0.60856">
        <ele>46</ele>
        <time>2026-02-22T15:05:42.188Z</time>
      </trkpt>
      <trkpt lat="44.19282" lon="0.60857">
        <ele>46</ele>
        <time>2026-02-22T15:05:43.189Z</time>
      </trkpt>
      <trkpt lat="44.19282" lon="0.60859">
        <ele>46</ele>
        <time>2026-02-22T15:05:44.188Z</time>
      </trkpt>
      <trkpt lat="44.19283" lon="0.6086">
        <ele>46</ele>
        <time>2026-02-22T15:05:45.188Z</time>
      </trkpt>
      <trkpt lat="44.19283" lon="0.60861">
        <ele>46</ele>
        <time>2026-02-22T15:05:46.188Z</time>
      </trkpt>
      <trkpt lat="44.19283" lon="0.60863">
        <ele>46</ele>
        <time>2026-02-22T15:05:47.188Z</time>
      </trkpt>
      <trkpt lat="44.19284" lon="0.60865">
        <ele>46</ele>
        <time>2026-02-22T15:05:48.189Z</time>
      </trkpt>
      <trkpt lat="44.19284" lon="0.60866">
        <ele>46</ele>
        <time>2026-02-22T15:05:49.189Z</time>
      </trkpt>
      <trkpt lat="44.19285" lon="0.60868">
        <ele>46</ele>
        <time>2026-02-22T15:05:50.188Z</time>
      </trkpt>
      <trkpt lat="44.19286" lon="0.6087">
        <ele>46</ele>
        <time>2026-02-22T15:05:51.188Z</time>
      </trkpt>
      <trkpt lat="44.19286" lon="0.60872">
        <ele>47</ele>
        <time>2026-02-22T15:05:52.188Z</time>
      </trkpt>
      <trkpt lat="44.19287" lon="0.60873">
        <ele>47</ele>
        <time>2026-02-22T15:05:53.188Z</time>
      </trkpt>
      <trkpt lat="44.19287" lon="0.60874">
        <ele>47</ele>
        <time>2026-02-22T15:05:54.188Z</time>
      </trkpt>
      <trkpt lat="44.19288" lon="0.60875">
        <ele>47</ele>
        <time>2026-02-22T15:05:55.188Z</time>
      </trkpt>
      <trkpt lat="44.19289" lon="0.60877">
        <ele>46</ele>
        <time>2026-02-22T15:05:56.189Z</time>
      </trkpt>
      <trkpt lat="44.19289" lon="0.60878">
        <ele>46</ele>
        <time>2026-02-22T15:05:57.188Z</time>
      </trkpt>
      <trkpt lat="44.1929" lon="0.6088">
        <ele>46</ele>
        <time>2026-02-22T15:05:58.189Z</time>
      </trkpt>
      <trkpt lat="44.1929" lon="0.60882">
        <ele>46</ele>
        <time>2026-02-22T15:05:59.188Z</time>
      </trkpt>
      <trkpt lat="44.19291" lon="0.60883">
        <ele>46</ele>
        <time>2026-02-22T15:06:00.188Z</time>
      </trkpt>
      <trkpt lat="44.19292" lon="0.60885">
        <ele>46</ele>
        <time>2026-02-22T15:06:01.188Z</time>
      </trkpt>
      <trkpt lat="44.19293" lon="0.60886">
        <ele>46</ele>
        <time>2026-02-22T15:06:02.188Z</time>
      </trkpt>
      <trkpt lat="44.19294" lon="0.60887">
        <ele>46</ele>
        <time>2026-02-22T15:06:03.188Z</time>
      </trkpt>
      <trkpt lat="44.19294" lon="0.60889">
        <ele>46</ele>
        <time>2026-02-22T15:06:04.188Z</time>
      </trkpt>
      <trkpt lat="44.19295" lon="0.6089">
        <ele>46</ele>
        <time>2026-02-22T15:06:05.188Z</time>
      </trkpt>
      <trkpt lat="44.19295" lon="0.60891">
        <ele>46</ele>
        <time>2026-02-22T15:06:06.188Z</time>
      </trkpt>
      <trkpt lat="44.19296" lon="0.60893">
        <ele>46</ele>
        <time>2026-02-22T15:06:07.188Z</time>
      </trkpt>
      <trkpt lat="44.19297" lon="0.60894">
        <ele>46</ele>
        <time>2026-02-22T15:06:08.188Z</time>
      </trkpt>
      <trkpt lat="44.19298" lon="0.60896">
        <ele>46</ele>
        <time>2026-02-22T15:06:09.188Z</time>
      </trkpt>
      <trkpt lat="44.19299" lon="0.60897">
        <ele>46</ele>
        <time>2026-02-22T15:06:10.188Z</time>
      </trkpt>
      <trkpt lat="44.193" lon="0.60899">
        <ele>47</ele>
        <time>2026-02-22T15:06:11.188Z</time>
      </trkpt>
      <trkpt lat="44.19301" lon="0.609">
        <ele>47</ele>
        <time>2026-02-22T15:06:12.188Z</time>
      </trkpt>
      <trkpt lat="44.19302" lon="0.60901">
        <ele>47</ele>
        <time>2026-02-22T15:06:13.188Z</time>
      </trkpt>
      <trkpt lat="44.19302" lon="0.60902">
        <ele>47</ele>
        <time>2026-02-22T15:06:14.188Z</time>
      </trkpt>
      <trkpt lat="44.19303" lon="0.60903">
        <ele>46</ele>
        <time>2026-02-22T15:06:15.188Z</time>
      </trkpt>
      <trkpt lat="44.19304" lon="0.60904">
        <ele>46</ele>
        <time>2026-02-22T15:06:16.188Z</time>
      </trkpt>
      <trkpt lat="44.19305" lon="0.60906">
        <ele>46</ele>
        <time>2026-02-22T15:06:17.188Z</time>
      </trkpt>
      <trkpt lat="44.19306" lon="0.60907">
        <ele>46</ele>
        <time>2026-02-22T15:06:18.188Z</time>
      </trkpt>
      <trkpt lat="44.19307" lon="0.60908">
        <ele>46</ele>
        <time>2026-02-22T15:06:19.188Z</time>
      </trkpt>
      <trkpt lat="44.19308" lon="0.60909">
        <ele>46</ele>
        <time>2026-02-22T15:06:20.188Z</time>
      </trkpt>
      <trkpt lat="44.19309" lon="0.60911">
        <ele>46</ele>
        <time>2026-02-22T15:06:21.188Z</time>
      </trkpt>
      <trkpt lat="44.19311" lon="0.60912">
        <ele>46</ele>
        <time>2026-02-22T15:06:22.188Z</time>
      </trkpt>
      <trkpt lat="44.19311" lon="0.60912">
        <ele>47</ele>
        <time>2026-02-22T15:06:23.188Z</time>
      </trkpt>
      <trkpt lat="44.19312" lon="0.60913">
        <ele>46</ele>
        <time>2026-02-22T15:06:24.189Z</time>
      </trkpt>
      <trkpt lat="44.19313" lon="0.60914">
        <ele>46</ele>
        <time>2026-02-22T15:06:25.189Z</time>
      </trkpt>
      <trkpt lat="44.19314" lon="0.60915">
        <ele>46</ele>
        <time>2026-02-22T15:06:26.188Z</time>
      </trkpt>
      <trkpt lat="44.19315" lon="0.60915">
        <ele>46</ele>
        <time>2026-02-22T15:06:27.188Z</time>
      </trkpt>
      <trkpt lat="44.19316" lon="0.60916">
        <ele>46</ele>
        <time>2026-02-22T15:06:28.189Z</time>
      </trkpt>
      <trkpt lat="44.19317" lon="0.60917">
        <ele>46</ele>
        <time>2026-02-22T15:06:29.188Z</time>
      </trkpt>
      <trkpt lat="44.19318" lon="0.60917">
        <ele>46</ele>
        <time>2026-02-22T15:06:30.188Z</time>
      </trkpt>
      <trkpt lat="44.1932" lon="0.60918">
        <ele>46</ele>
        <time>2026-02-22T15:06:31.188Z</time>
      </trkpt>
      <trkpt lat="44.19321" lon="0.60919">
        <ele>46</ele>
        <time>2026-02-22T15:06:32.188Z</time>
      </trkpt>
      <trkpt lat="44.19322" lon="0.6092">
        <ele>45</ele>
        <time>2026-02-22T15:06:33.188Z</time>
      </trkpt>
      <trkpt lat="44.19323" lon="0.6092">
        <ele>45</ele>
        <time>2026-02-22T15:06:34.188Z</time>
      </trkpt>
      <trkpt lat="44.19324" lon="0.60921">
        <ele>45</ele>
        <time>2026-02-22T15:06:35.188Z</time>
      </trkpt>
      <trkpt lat="44.19325" lon="0.60922">
        <ele>45</ele>
        <time>2026-02-22T15:06:36.188Z</time>
      </trkpt>
      <trkpt lat="44.19326" lon="0.60922">
        <ele>45</ele>
        <time>2026-02-22T15:06:37.188Z</time>
      </trkpt>
      <trkpt lat="44.19327" lon="0.60923">
        <ele>45</ele>
        <time>2026-02-22T15:06:38.188Z</time>
      </trkpt>
      <trkpt lat="44.19328" lon="0.60923">
        <ele>45</ele>
        <time>2026-02-22T15:06:39.188Z</time>
      </trkpt>
      <trkpt lat="44.1933" lon="0.60924">
        <ele>45</ele>
        <time>2026-02-22T15:06:40.188Z</time>
      </trkpt>
      <trkpt lat="44.19331" lon="0.60924">
        <ele>46</ele>
        <time>2026-02-22T15:06:41.188Z</time>
      </trkpt>
      <trkpt lat="44.19332" lon="0.60924">
        <ele>46</ele>
        <time>2026-02-22T15:06:42.189Z</time>
      </trkpt>
      <trkpt lat="44.19333" lon="0.60924">
        <ele>46</ele>
        <time>2026-02-22T15:06:43.188Z</time>
      </trkpt>
      <trkpt lat="44.19334" lon="0.60924">
        <ele>47</ele>
        <time>2026-02-22T15:06:44.188Z</time>
      </trkpt>
      <trkpt lat="44.19336" lon="0.60925">
        <ele>47</ele>
        <time>2026-02-22T15:06:45.189Z</time>
      </trkpt>
      <trkpt lat="44.19337" lon="0.60925">
        <ele>47</ele>
        <time>2026-02-22T15:06:46.188Z</time>
      </trkpt>
      <trkpt lat="44.19338" lon="0.60925">
        <ele>48</ele>
        <time>2026-02-22T15:06:47.188Z</time>
      </trkpt>
      <trkpt lat="44.19339" lon="0.60925">
        <ele>48</ele>
        <time>2026-02-22T15:06:48.188Z</time>
      </trkpt>
      <trkpt lat="44.1934" lon="0.60925">
        <ele>48</ele>
        <time>2026-02-22T15:06:49.188Z</time>
      </trkpt>
      <trkpt lat="44.19341" lon="0.60925">
        <ele>49</ele>
        <time>2026-02-22T15:06:50.188Z</time>
      </trkpt>
      <trkpt lat="44.19342" lon="0.60925">
        <ele>49</ele>
        <time>2026-02-22T15:06:51.188Z</time>
      </trkpt>
      <trkpt lat="44.19344" lon="0.60925">
        <ele>49</ele>
        <time>2026-02-22T15:06:52.188Z</time>
      </trkpt>
      <trkpt lat="44.19345" lon="0.60924">
        <ele>49</ele>
        <time>2026-02-22T15:06:53.188Z</time>
      </trkpt>
      <trkpt lat="44.19346" lon="0.60924">
        <ele>50</ele>
        <time>2026-02-22T15:06:54.188Z</time>
      </trkpt>
      <trkpt lat="44.19347" lon="0.60925">
        <ele>50</ele>
        <time>2026-02-22T15:06:55.188Z</time>
      </trkpt>
      <trkpt lat="44.19347" lon="0.60925">
        <ele>50</ele>
        <time>2026-02-22T15:06:56.188Z</time>
      </trkpt>
      <trkpt lat="44.19348" lon="0.60925">
        <ele>50</ele>
        <time>2026-02-22T15:06:57.188Z</time>
      </trkpt>
      <trkpt lat="44.19348" lon="0.60924">
        <ele>49</ele>
        <time>2026-02-22T15:06:58.188Z</time>
      </trkpt>
      <trkpt lat="44.19349" lon="0.60924">
        <ele>49</ele>
        <time>2026-02-22T15:06:59.188Z</time>
      </trkpt>
      <trkpt lat="44.1935" lon="0.60924">
        <ele>49</ele>
        <time>2026-02-22T15:07:00.189Z</time>
      </trkpt>
      <trkpt lat="44.19351" lon="0.60924">
        <ele>49</ele>
        <time>2026-02-22T15:07:01.188Z</time>
      </trkpt>
      <trkpt lat="44.19352" lon="0.60924">
        <ele>48</ele>
        <time>2026-02-22T15:07:02.189Z</time>
      </trkpt>
      <trkpt lat="44.19353" lon="0.60924">
        <ele>48</ele>
        <time>2026-02-22T15:07:03.188Z</time>
      </trkpt>
      <trkpt lat="44.19354" lon="0.60923">
        <ele>48</ele>
        <time>2026-02-22T15:07:04.188Z</time>
      </trkpt>
      <trkpt lat="44.19355" lon="0.60923">
        <ele>48</ele>
        <time>2026-02-22T15:07:05.188Z</time>
      </trkpt>
      <trkpt lat="44.19357" lon="0.60923">
        <ele>48</ele>
        <time>2026-02-22T15:07:06.188Z</time>
      </trkpt>
      <trkpt lat="44.19358" lon="0.60922">
        <ele>48</ele>
        <time>2026-02-22T15:07:07.188Z</time>
      </trkpt>
      <trkpt lat="44.19359" lon="0.60922">
        <ele>47</ele>
        <time>2026-02-22T15:07:08.188Z</time>
      </trkpt>
      <trkpt lat="44.1936" lon="0.60922">
        <ele>47</ele>
        <time>2026-02-22T15:07:09.188Z</time>
      </trkpt>
      <trkpt lat="44.19361" lon="0.60922">
        <ele>47</ele>
        <time>2026-02-22T15:07:10.188Z</time>
      </trkpt>
      <trkpt lat="44.19362" lon="0.60922">
        <ele>46</ele>
        <time>2026-02-22T15:07:11.188Z</time>
      </trkpt>
      <trkpt lat="44.19363" lon="0.60922">
        <ele>46</ele>
        <time>2026-02-22T15:07:12.188Z</time>
      </trkpt>
      <trkpt lat="44.19365" lon="0.60921">
        <ele>46</ele>
        <time>2026-02-22T15:07:13.188Z</time>
      </trkpt>
      <trkpt lat="44.19366" lon="0.60921">
        <ele>46</ele>
        <time>2026-02-22T15:07:14.188Z</time>
      </trkpt>
      <trkpt lat="44.19367" lon="0.60921">
        <ele>46</ele>
        <time>2026-02-22T15:07:15.188Z</time>
      </trkpt>
      <trkpt lat="44.19368" lon="0.60921">
        <ele>47</ele>
        <time>2026-02-22T15:07:16.188Z</time>
      </trkpt>
      <trkpt lat="44.19369" lon="0.60921">
        <ele>47</ele>
        <time>2026-02-22T15:07:17.189Z</time>
      </trkpt>
      <trkpt lat="44.1937" lon="0.60921">
        <ele>46</ele>
        <time>2026-02-22T15:07:18.188Z</time>
      </trkpt>
      <trkpt lat="44.19371" lon="0.60921">
        <ele>46</ele>
        <time>2026-02-22T15:07:19.188Z</time>
      </trkpt>
      <trkpt lat="44.19373" lon="0.60921">
        <ele>46</ele>
        <time>2026-02-22T15:07:20.188Z</time>
      </trkpt>
      <trkpt lat="44.19374" lon="0.60921">
        <ele>46</ele>
        <time>2026-02-22T15:07:21.188Z</time>
      </trkpt>
      <trkpt lat="44.19375" lon="0.6092">
        <ele>46</ele>
        <time>2026-02-22T15:07:22.188Z</time>
      </trkpt>
      <trkpt lat="44.19376" lon="0.6092">
        <ele>46</ele>
        <time>2026-02-22T15:07:23.188Z</time>
      </trkpt>
      <trkpt lat="44.19377" lon="0.6092">
        <ele>45</ele>
        <time>2026-02-22T15:07:24.188Z</time>
      </trkpt>
      <trkpt lat="44.19378" lon="0.6092">
        <ele>45</ele>
        <time>2026-02-22T15:07:25.188Z</time>
      </trkpt>
      <trkpt lat="44.19379" lon="0.60919">
        <ele>45</ele>
        <time>2026-02-22T15:07:26.188Z</time>
      </trkpt>
      <trkpt lat="44.1938" lon="0.60919">
        <ele>45</ele>
        <time>2026-02-22T15:07:27.188Z</time>
      </trkpt>
      <trkpt lat="44.19382" lon="0.60918">
        <ele>45</ele>
        <time>2026-02-22T15:07:28.188Z</time>
      </trkpt>
      <trkpt lat="44.19383" lon="0.60918">
        <ele>45</ele>
        <time>2026-02-22T15:07:29.188Z</time>
      </trkpt>
      <trkpt lat="44.19384" lon="0.60918">
        <ele>45</ele>
        <time>2026-02-22T15:07:30.188Z</time>
      </trkpt>
      <trkpt lat="44.19385" lon="0.60918">
        <ele>45</ele>
        <time>2026-02-22T15:07:31.188Z</time>
      </trkpt>
      <trkpt lat="44.19387" lon="0.60918">
        <ele>45</ele>
        <time>2026-02-22T15:07:32.188Z</time>
      </trkpt>
      <trkpt lat="44.19388" lon="0.60918">
        <ele>45</ele>
        <time>2026-02-22T15:07:33.188Z</time>
      </trkpt>
      <trkpt lat="44.19389" lon="0.60918">
        <ele>44</ele>
        <time>2026-02-22T15:07:34.188Z</time>
      </trkpt>
      <trkpt lat="44.1939" lon="0.60918">
        <ele>44</ele>
        <time>2026-02-22T15:07:35.188Z</time>
      </trkpt>
      <trkpt lat="44.19391" lon="0.60918">
        <ele>44</ele>
        <time>2026-02-22T15:07:36.188Z</time>
      </trkpt>
      <trkpt lat="44.19393" lon="0.60918">
        <ele>44</ele>
        <time>2026-02-22T15:07:37.188Z</time>
      </trkpt>
      <trkpt lat="44.19394" lon="0.60918">
        <ele>44</ele>
        <time>2026-02-22T15:07:38.188Z</time>
      </trkpt>
      <trkpt lat="44.19395" lon="0.60918">
        <ele>44</ele>
        <time>2026-02-22T15:07:39.188Z</time>
      </trkpt>
      <trkpt lat="44.19396" lon="0.60917">
        <ele>44</ele>
        <time>2026-02-22T15:07:40.188Z</time>
      </trkpt>
      <trkpt lat="44.19398" lon="0.60917">
        <ele>44</ele>
        <time>2026-02-22T15:07:41.188Z</time>
      </trkpt>
      <trkpt lat="44.19399" lon="0.60917">
        <ele>44</ele>
        <time>2026-02-22T15:07:42.188Z</time>
      </trkpt>
      <trkpt lat="44.194" lon="0.60917">
        <ele>44</ele>
        <time>2026-02-22T15:07:43.188Z</time>
      </trkpt>
      <trkpt lat="44.19401" lon="0.60916">
        <ele>43</ele>
        <time>2026-02-22T15:07:44.188Z</time>
      </trkpt>
      <trkpt lat="44.19402" lon="0.60916">
        <ele>43</ele>
        <time>2026-02-22T15:07:45.188Z</time>
      </trkpt>
      <trkpt lat="44.19404" lon="0.60916">
        <ele>43</ele>
        <time>2026-02-22T15:07:46.188Z</time>
      </trkpt>
      <trkpt lat="44.19405" lon="0.60916">
        <ele>43</ele>
        <time>2026-02-22T15:07:47.188Z</time>
      </trkpt>
      <trkpt lat="44.19406" lon="0.60916">
        <ele>43</ele>
        <time>2026-02-22T15:07:48.188Z</time>
      </trkpt>
      <trkpt lat="44.19407" lon="0.60915">
        <ele>43</ele>
        <time>2026-02-22T15:07:49.188Z</time>
      </trkpt>
      <trkpt lat="44.19409" lon="0.60915">
        <ele>43</ele>
        <time>2026-02-22T15:07:50.189Z</time>
      </trkpt>
      <trkpt lat="44.1941" lon="0.60915">
        <ele>43</ele>
        <time>2026-02-22T15:07:51.188Z</time>
      </trkpt>
      <trkpt lat="44.19411" lon="0.60915">
        <ele>43</ele>
        <time>2026-02-22T15:07:52.188Z</time>
      </trkpt>
      <trkpt lat="44.19412" lon="0.60914">
        <ele>43</ele>
        <time>2026-02-22T15:07:53.188Z</time>
      </trkpt>
      <trkpt lat="44.19413" lon="0.60914">
        <ele>42</ele>
        <time>2026-02-22T15:07:54.188Z</time>
      </trkpt>
      <trkpt lat="44.19414" lon="0.60914">
        <ele>42</ele>
        <time>2026-02-22T15:07:55.188Z</time>
      </trkpt>
      <trkpt lat="44.19415" lon="0.60913">
        <ele>42</ele>
        <time>2026-02-22T15:07:56.188Z</time>
      </trkpt>
      <trkpt lat="44.19416" lon="0.60913">
        <ele>42</ele>
        <time>2026-02-22T15:07:57.188Z</time>
      </trkpt>
      <trkpt lat="44.19418" lon="0.60913">
        <ele>43</ele>
        <time>2026-02-22T15:07:58.188Z</time>
      </trkpt>
      <trkpt lat="44.19419" lon="0.60912">
        <ele>43</ele>
        <time>2026-02-22T15:07:59.188Z</time>
      </trkpt>
      <trkpt lat="44.1942" lon="0.60912">
        <ele>43</ele>
        <time>2026-02-22T15:08:00.189Z</time>
      </trkpt>
      <trkpt lat="44.19421" lon="0.60912">
        <ele>43</ele>
        <time>2026-02-22T15:08:01.188Z</time>
      </trkpt>
      <trkpt lat="44.19423" lon="0.60912">
        <ele>43</ele>
        <time>2026-02-22T15:08:02.188Z</time>
      </trkpt>
      <trkpt lat="44.19424" lon="0.60911">
        <ele>43</ele>
        <time>2026-02-22T15:08:03.188Z</time>
      </trkpt>
      <trkpt lat="44.19425" lon="0.60911">
        <ele>43</ele>
        <time>2026-02-22T15:08:04.188Z</time>
      </trkpt>
      <trkpt lat="44.19426" lon="0.6091">
        <ele>44</ele>
        <time>2026-02-22T15:08:05.188Z</time>
      </trkpt>
      <trkpt lat="44.19427" lon="0.6091">
        <ele>44</ele>
        <time>2026-02-22T15:08:06.188Z</time>
      </trkpt>
      <trkpt lat="44.19428" lon="0.60909">
        <ele>44</ele>
        <time>2026-02-22T15:08:07.188Z</time>
      </trkpt>
      <trkpt lat="44.19429" lon="0.60909">
        <ele>44</ele>
        <time>2026-02-22T15:08:08.188Z</time>
      </trkpt>
      <trkpt lat="44.19431" lon="0.60909">
        <ele>44</ele>
        <time>2026-02-22T15:08:09.188Z</time>
      </trkpt>
      <trkpt lat="44.19432" lon="0.60908">
        <ele>44</ele>
        <time>2026-02-22T15:08:10.188Z</time>
      </trkpt>
      <trkpt lat="44.19433" lon="0.60908">
        <ele>44</ele>
        <time>2026-02-22T15:08:11.188Z</time>
      </trkpt>
      <trkpt lat="44.19434" lon="0.60907">
        <ele>44</ele>
        <time>2026-02-22T15:08:12.189Z</time>
      </trkpt>
      <trkpt lat="44.19435" lon="0.60907">
        <ele>44</ele>
        <time>2026-02-22T15:08:13.188Z</time>
      </trkpt>
      <trkpt lat="44.19436" lon="0.60907">
        <ele>44</ele>
        <time>2026-02-22T15:08:14.189Z</time>
      </trkpt>
      <trkpt lat="44.19437" lon="0.60906">
        <ele>45</ele>
        <time>2026-02-22T15:08:15.188Z</time>
      </trkpt>
      <trkpt lat="44.19439" lon="0.60906">
        <ele>45</ele>
        <time>2026-02-22T15:08:16.188Z</time>
      </trkpt>
      <trkpt lat="44.1944" lon="0.60905">
        <ele>45</ele>
        <time>2026-02-22T15:08:17.189Z</time>
      </trkpt>
      <trkpt lat="44.19441" lon="0.60905">
        <ele>45</ele>
        <time>2026-02-22T15:08:18.188Z</time>
      </trkpt>
      <trkpt lat="44.19442" lon="0.60905">
        <ele>45</ele>
        <time>2026-02-22T15:08:19.188Z</time>
      </trkpt>
      <trkpt lat="44.19443" lon="0.60904">
        <ele>46</ele>
        <time>2026-02-22T15:08:20.188Z</time>
      </trkpt>
      <trkpt lat="44.19444" lon="0.60904">
        <ele>46</ele>
        <time>2026-02-22T15:08:21.188Z</time>
      </trkpt>
      <trkpt lat="44.19445" lon="0.60904">
        <ele>46</ele>
        <time>2026-02-22T15:08:22.188Z</time>
      </trkpt>
      <trkpt lat="44.19446" lon="0.60903">
        <ele>46</ele>
        <time>2026-02-22T15:08:23.188Z</time>
      </trkpt>
      <trkpt lat="44.19448" lon="0.60902">
        <ele>47</ele>
        <time>2026-02-22T15:08:24.188Z</time>
      </trkpt>
      <trkpt lat="44.19449" lon="0.60902">
        <ele>47</ele>
        <time>2026-02-22T15:08:25.188Z</time>
      </trkpt>
      <trkpt lat="44.1945" lon="0.60901">
        <ele>47</ele>
        <time>2026-02-22T15:08:26.188Z</time>
      </trkpt>
      <trkpt lat="44.19451" lon="0.60901">
        <ele>46</ele>
        <time>2026-02-22T15:08:27.188Z</time>
      </trkpt>
      <trkpt lat="44.19453" lon="0.60901">
        <ele>46</ele>
        <time>2026-02-22T15:08:28.188Z</time>
      </trkpt>
      <trkpt lat="44.19453" lon="0.609">
        <ele>46</ele>
        <time>2026-02-22T15:08:29.188Z</time>
      </trkpt>
      <trkpt lat="44.19454" lon="0.609">
        <ele>46</ele>
        <time>2026-02-22T15:08:30.189Z</time>
      </trkpt>
      <trkpt lat="44.19455" lon="0.609">
        <ele>46</ele>
        <time>2026-02-22T15:08:31.188Z</time>
      </trkpt>
      <trkpt lat="44.19456" lon="0.609">
        <ele>46</ele>
        <time>2026-02-22T15:08:32.188Z</time>
      </trkpt>
      <trkpt lat="44.19458" lon="0.60899">
        <ele>46</ele>
        <time>2026-02-22T15:08:33.188Z</time>
      </trkpt>
      <trkpt lat="44.19459" lon="0.60899">
        <ele>46</ele>
        <time>2026-02-22T15:08:34.188Z</time>
      </trkpt>
      <trkpt lat="44.1946" lon="0.60899">
        <ele>46</ele>
        <time>2026-02-22T15:08:35.188Z</time>
      </trkpt>
      <trkpt lat="44.19462" lon="0.60899">
        <ele>46</ele>
        <time>2026-02-22T15:08:36.188Z</time>
      </trkpt>
      <trkpt lat="44.19463" lon="0.60898">
        <ele>46</ele>
        <time>2026-02-22T15:08:37.188Z</time>
      </trkpt>
      <trkpt lat="44.19464" lon="0.60898">
        <ele>47</ele>
        <time>2026-02-22T15:08:38.188Z</time>
      </trkpt>
      <trkpt lat="44.19465" lon="0.60897">
        <ele>47</ele>
        <time>2026-02-22T15:08:39.188Z</time>
      </trkpt>
      <trkpt lat="44.19466" lon="0.60897">
        <ele>47</ele>
        <time>2026-02-22T15:08:40.188Z</time>
      </trkpt>
      <trkpt lat="44.19468" lon="0.60897">
        <ele>47</ele>
        <time>2026-02-22T15:08:41.188Z</time>
      </trkpt>
      <trkpt lat="44.19469" lon="0.60896">
        <ele>47</ele>
        <time>2026-02-22T15:08:42.188Z</time>
      </trkpt>
      <trkpt lat="44.19469" lon="0.60896">
        <ele>47</ele>
        <time>2026-02-22T15:08:43.188Z</time>
      </trkpt>
      <trkpt lat="44.19471" lon="0.60896">
        <ele>48</ele>
        <time>2026-02-22T15:08:44.188Z</time>
      </trkpt>
      <trkpt lat="44.19472" lon="0.60896">
        <ele>48</ele>
        <time>2026-02-22T15:08:45.188Z</time>
      </trkpt>
      <trkpt lat="44.19473" lon="0.60896">
        <ele>48</ele>
        <time>2026-02-22T15:08:46.188Z</time>
      </trkpt>
      <trkpt lat="44.19474" lon="0.60896">
        <ele>48</ele>
        <time>2026-02-22T15:08:47.188Z</time>
      </trkpt>
      <trkpt lat="44.19476" lon="0.60896">
        <ele>49</ele>
        <time>2026-02-22T15:08:48.189Z</time>
      </trkpt>
      <trkpt lat="44.19477" lon="0.60895">
        <ele>49</ele>
        <time>2026-02-22T15:08:49.188Z</time>
      </trkpt>
      <trkpt lat="44.19478" lon="0.60895">
        <ele>48</ele>
        <time>2026-02-22T15:08:50.189Z</time>
      </trkpt>
      <trkpt lat="44.1948" lon="0.60895">
        <ele>48</ele>
        <time>2026-02-22T15:08:51.188Z</time>
      </trkpt>
      <trkpt lat="44.19481" lon="0.60894">
        <ele>48</ele>
        <time>2026-02-22T15:08:52.188Z</time>
      </trkpt>
      <trkpt lat="44.19483" lon="0.60893">
        <ele>48</ele>
        <time>2026-02-22T15:08:53.188Z</time>
      </trkpt>
      <trkpt lat="44.19485" lon="0.60892">
        <ele>47</ele>
        <time>2026-02-22T15:08:54.188Z</time>
      </trkpt>
      <trkpt lat="44.19487" lon="0.60892">
        <ele>47</ele>
        <time>2026-02-22T15:08:55.188Z</time>
      </trkpt>
      <trkpt lat="44.1949" lon="0.60892">
        <ele>47</ele>
        <time>2026-02-22T15:08:56.188Z</time>
      </trkpt>
      <trkpt lat="44.19493" lon="0.60892">
        <ele>47</ele>
        <time>2026-02-22T15:08:57.188Z</time>
      </trkpt>
      <trkpt lat="44.19495" lon="0.60892">
        <ele>47</ele>
        <time>2026-02-22T15:08:58.188Z</time>
      </trkpt>
      <trkpt lat="44.19496" lon="0.60892">
        <ele>47</ele>
        <time>2026-02-22T15:08:59.188Z</time>
      </trkpt>
      <trkpt lat="44.19498" lon="0.60893">
        <ele>47</ele>
        <time>2026-02-22T15:09:00.189Z</time>
      </trkpt>
      <trkpt lat="44.195" lon="0.60893">
        <ele>47</ele>
        <time>2026-02-22T15:09:01.188Z</time>
      </trkpt>
      <trkpt lat="44.19501" lon="0.60894">
        <ele>47</ele>
        <time>2026-02-22T15:09:02.188Z</time>
      </trkpt>
      <trkpt lat="44.19502" lon="0.60895">
        <ele>47</ele>
        <time>2026-02-22T15:09:03.188Z</time>
      </trkpt>
      <trkpt lat="44.19502" lon="0.60895">
        <ele>48</ele>
        <time>2026-02-22T15:09:04.188Z</time>
      </trkpt>
      <trkpt lat="44.19502" lon="0.60894">
        <ele>48</ele>
        <time>2026-02-22T15:09:05.188Z</time>
      </trkpt>
      <trkpt lat="44.19502" lon="0.60894">
        <ele>48</ele>
        <time>2026-02-22T15:09:06.188Z</time>
      </trkpt>
      <trkpt lat="44.19503" lon="0.60894">
        <ele>48</ele>
        <time>2026-02-22T15:09:07.188Z</time>
      </trkpt>
      <trkpt lat="44.19503" lon="0.60893">
        <ele>47</ele>
        <time>2026-02-22T15:09:08.188Z</time>
      </trkpt>
      <trkpt lat="44.19504" lon="0.60893">
        <ele>47</ele>
        <time>2026-02-22T15:09:09.188Z</time>
      </trkpt>
      <trkpt lat="44.19504" lon="0.60892">
        <ele>46</ele>
        <time>2026-02-22T15:09:10.188Z</time>
      </trkpt>
      <trkpt lat="44.19505" lon="0.60892">
        <ele>46</ele>
        <time>2026-02-22T15:09:11.188Z</time>
      </trkpt>
      <trkpt lat="44.19506" lon="0.60892">
        <ele>46</ele>
        <time>2026-02-22T15:09:12.188Z</time>
      </trkpt>
      <trkpt lat="44.19506" lon="0.60892">
        <ele>45</ele>
        <time>2026-02-22T15:09:13.188Z</time>
      </trkpt>
      <trkpt lat="44.19507" lon="0.60892">
        <ele>45</ele>
        <time>2026-02-22T15:09:14.188Z</time>
      </trkpt>
      <trkpt lat="44.19508" lon="0.60892">
        <ele>45</ele>
        <time>2026-02-22T15:09:15.188Z</time>
      </trkpt>
      <trkpt lat="44.19509" lon="0.60892">
        <ele>45</ele>
        <time>2026-02-22T15:09:16.188Z</time>
      </trkpt>
      <trkpt lat="44.19509" lon="0.60892">
        <ele>44</ele>
        <time>2026-02-22T15:09:17.188Z</time>
      </trkpt>
      <trkpt lat="44.1951" lon="0.60891">
        <ele>44</ele>
        <time>2026-02-22T15:09:18.188Z</time>
      </trkpt>
      <trkpt lat="44.19512" lon="0.60891">
        <ele>45</ele>
        <time>2026-02-22T15:09:19.188Z</time>
      </trkpt>
      <trkpt lat="44.19513" lon="0.6089">
        <ele>45</ele>
        <time>2026-02-22T15:09:20.188Z</time>
      </trkpt>
      <trkpt lat="44.19514" lon="0.60889">
        <ele>45</ele>
        <time>2026-02-22T15:09:21.188Z</time>
      </trkpt>
      <trkpt lat="44.19515" lon="0.60889">
        <ele>45</ele>
        <time>2026-02-22T15:09:22.188Z</time>
      </trkpt>
      <trkpt lat="44.19516" lon="0.60889">
        <ele>45</ele>
        <time>2026-02-22T15:09:23.188Z</time>
      </trkpt>
      <trkpt lat="44.19518" lon="0.60889">
        <ele>45</ele>
        <time>2026-02-22T15:09:24.189Z</time>
      </trkpt>
      <trkpt lat="44.19519" lon="0.60888">
        <ele>44</ele>
        <time>2026-02-22T15:09:25.188Z</time>
      </trkpt>
      <trkpt lat="44.1952" lon="0.60888">
        <ele>45</ele>
        <time>2026-02-22T15:09:26.189Z</time>
      </trkpt>
      <trkpt lat="44.19521" lon="0.60888">
        <ele>45</ele>
        <time>2026-02-22T15:09:27.188Z</time>
      </trkpt>
      <trkpt lat="44.19522" lon="0.60887">
        <ele>46</ele>
        <time>2026-02-22T15:09:28.188Z</time>
      </trkpt>
      <trkpt lat="44.19524" lon="0.60887">
        <ele>46</ele>
        <time>2026-02-22T15:09:29.188Z</time>
      </trkpt>
      <trkpt lat="44.19524" lon="0.60885">
        <ele>46</ele>
        <time>2026-02-22T15:09:30.188Z</time>
      </trkpt>
      <trkpt lat="44.19526" lon="0.60885">
        <ele>46</ele>
        <time>2026-02-22T15:09:31.188Z</time>
      </trkpt>
      <trkpt lat="44.19527" lon="0.60885">
        <ele>47</ele>
        <time>2026-02-22T15:09:32.189Z</time>
      </trkpt>
      <trkpt lat="44.19528" lon="0.60884">
        <ele>47</ele>
        <time>2026-02-22T15:09:33.188Z</time>
      </trkpt>
      <trkpt lat="44.19529" lon="0.60884">
        <ele>47</ele>
        <time>2026-02-22T15:09:34.188Z</time>
      </trkpt>
      <trkpt lat="44.1953" lon="0.60883">
        <ele>47</ele>
        <time>2026-02-22T15:09:35.188Z</time>
      </trkpt>
      <trkpt lat="44.19531" lon="0.60883">
        <ele>47</ele>
        <time>2026-02-22T15:09:36.188Z</time>
      </trkpt>
      <trkpt lat="44.19532" lon="0.60883">
        <ele>47</ele>
        <time>2026-02-22T15:09:37.188Z</time>
      </trkpt>
      <trkpt lat="44.19534" lon="0.60883">
        <ele>47</ele>
        <time>2026-02-22T15:09:38.188Z</time>
      </trkpt>
      <trkpt lat="44.19535" lon="0.60882">
        <ele>47</ele>
        <time>2026-02-22T15:09:39.188Z</time>
      </trkpt>
      <trkpt lat="44.19536" lon="0.60882">
        <ele>47</ele>
        <time>2026-02-22T15:09:40.188Z</time>
      </trkpt>
      <trkpt lat="44.19538" lon="0.60882">
        <ele>47</ele>
        <time>2026-02-22T15:09:41.188Z</time>
      </trkpt>
      <trkpt lat="44.19539" lon="0.60881">
        <ele>47</ele>
        <time>2026-02-22T15:09:42.188Z</time>
      </trkpt>
      <trkpt lat="44.1954" lon="0.60881">
        <ele>47</ele>
        <time>2026-02-22T15:09:43.188Z</time>
      </trkpt>
      <trkpt lat="44.1954" lon="0.60881">
        <ele>47</ele>
        <time>2026-02-22T15:09:44.188Z</time>
      </trkpt>
      <trkpt lat="44.19541" lon="0.60881">
        <ele>47</ele>
        <time>2026-02-22T15:09:45.188Z</time>
      </trkpt>
      <trkpt lat="44.19541" lon="0.60881">
        <ele>47</ele>
        <time>2026-02-22T15:09:46.188Z</time>
      </trkpt>
      <trkpt lat="44.19541" lon="0.60881">
        <ele>47</ele>
        <time>2026-02-22T15:09:47.188Z</time>
      </trkpt>
      <trkpt lat="44.19541" lon="0.60881">
        <ele>47</ele>
        <time>2026-02-22T15:09:48.188Z</time>
      </trkpt>
      <trkpt lat="44.1954" lon="0.60881">
        <ele>48</ele>
        <time>2026-02-22T15:09:49.188Z</time>
      </trkpt>
      <trkpt lat="44.1954" lon="0.60881">
        <ele>48</ele>
        <time>2026-02-22T15:09:50.188Z</time>
      </trkpt>
      <trkpt lat="44.1954" lon="0.6088">
        <ele>48</ele>
        <time>2026-02-22T15:09:51.188Z</time>
      </trkpt>
      <trkpt lat="44.1954" lon="0.6088">
        <ele>48</ele>
        <time>2026-02-22T15:09:52.188Z</time>
      </trkpt>
      <trkpt lat="44.1954" lon="0.6088">
        <ele>47</ele>
        <time>2026-02-22T15:09:53.188Z</time>
      </trkpt>
      <trkpt lat="44.1954" lon="0.6088">
        <ele>47</ele>
        <time>2026-02-22T15:09:54.188Z</time>
      </trkpt>
      <trkpt lat="44.1954" lon="0.60881">
        <ele>46</ele>
        <time>2026-02-22T15:09:55.188Z</time>
      </trkpt>
      <trkpt lat="44.1954" lon="0.60881">
        <ele>46</ele>
        <time>2026-02-22T15:09:56.188Z</time>
      </trkpt>
      <trkpt lat="44.1954" lon="0.60881">
        <ele>46</ele>
        <time>2026-02-22T15:09:57.188Z</time>
      </trkpt>
      <trkpt lat="44.1954" lon="0.60881">
        <ele>46</ele>
        <time>2026-02-22T15:09:58.188Z</time>
      </trkpt>
      <trkpt lat="44.1954" lon="0.60881">
        <ele>46</ele>
        <time>2026-02-22T15:09:59.188Z</time>
      </trkpt>
      <trkpt lat="44.1954" lon="0.60881">
        <ele>46</ele>
        <time>2026-02-22T15:10:00.188Z</time>
      </trkpt>
      <trkpt lat="44.1954" lon="0.60881">
        <ele>46</ele>
        <time>2026-02-22T15:10:01.188Z</time>
      </trkpt>
      <trkpt lat="44.1954" lon="0.60881">
        <ele>46</ele>
        <time>2026-02-22T15:10:02.189Z</time>
      </trkpt>
      <trkpt lat="44.1954" lon="0.60881">
        <ele>45</ele>
        <time>2026-02-22T15:10:03.189Z</time>
      </trkpt>
      <trkpt lat="44.1954" lon="0.60881">
        <ele>45</ele>
        <time>2026-02-22T15:10:04.189Z</time>
      </trkpt>
      <trkpt lat="44.19541" lon="0.60881">
        <ele>44</ele>
        <time>2026-02-22T15:10:05.188Z</time>
      </trkpt>
      <trkpt lat="44.19541" lon="0.60881">
        <ele>44</ele>
        <time>2026-02-22T15:10:06.188Z</time>
      </trkpt>
      <trkpt lat="44.19542" lon="0.60881">
        <ele>44</ele>
        <time>2026-02-22T15:10:07.188Z</time>
      </trkpt>
      <trkpt lat="44.19542" lon="0.60881">
        <ele>43</ele>
        <time>2026-02-22T15:10:08.188Z</time>
      </trkpt>
      <trkpt lat="44.19542" lon="0.60881">
        <ele>43</ele>
        <time>2026-02-22T15:10:09.188Z</time>
      </trkpt>
      <trkpt lat="44.19542" lon="0.60881">
        <ele>43</ele>
        <time>2026-02-22T15:10:10.188Z</time>
      </trkpt>
      <trkpt lat="44.19543" lon="0.60881">
        <ele>43</ele>
        <time>2026-02-22T15:10:11.188Z</time>
      </trkpt>
      <trkpt lat="44.19543" lon="0.60881">
        <ele>43</ele>
        <time>2026-02-22T15:10:12.188Z</time>
      </trkpt>
      <trkpt lat="44.19543" lon="0.60881">
        <ele>42</ele>
        <time>2026-02-22T15:10:13.188Z</time>
      </trkpt>
      <trkpt lat="44.19543" lon="0.60881">
        <ele>42</ele>
        <time>2026-02-22T15:10:14.188Z</time>
      </trkpt>
      <trkpt lat="44.19543" lon="0.60881">
        <ele>42</ele>
        <time>2026-02-22T15:10:15.188Z</time>
      </trkpt>
      <trkpt lat="44.19543" lon="0.60881">
        <ele>42</ele>
        <time>2026-02-22T15:10:16.188Z</time>
      </trkpt>
      <trkpt lat="44.19543" lon="0.60881">
        <ele>42</ele>
        <time>2026-02-22T15:10:17.188Z</time>
      </trkpt>
      <trkpt lat="44.19543" lon="0.60882">
        <ele>41</ele>
        <time>2026-02-22T15:10:18.188Z</time>
      </trkpt>
      <trkpt lat="44.19543" lon="0.60882">
        <ele>41</ele>
        <time>2026-02-22T15:10:19.188Z</time>
      </trkpt>
      <trkpt lat="44.19543" lon="0.60882">
        <ele>41</ele>
        <time>2026-02-22T15:10:20.188Z</time>
      </trkpt>
      <trkpt lat="44.19543" lon="0.60882">
        <ele>42</ele>
        <time>2026-02-22T15:10:21.188Z</time>
      </trkpt>
      <trkpt lat="44.19543" lon="0.60882">
        <ele>42</ele>
        <time>2026-02-22T15:10:22.188Z</time>
      </trkpt>
      <trkpt lat="44.19543" lon="0.60882">
        <ele>42</ele>
        <time>2026-02-22T15:10:23.188Z</time>
      </trkpt>
      <trkpt lat="44.19542" lon="0.60882">
        <ele>43</ele>
        <time>2026-02-22T15:10:24.188Z</time>
      </trkpt>
      <trkpt lat="44.19542" lon="0.60882">
        <ele>44</ele>
        <time>2026-02-22T15:10:25.188Z</time>
      </trkpt>
      <trkpt lat="44.19542" lon="0.60883">
        <ele>45</ele>
        <time>2026-02-22T15:10:26.188Z</time>
      </trkpt>
      <trkpt lat="44.19542" lon="0.60883">
        <ele>45</ele>
        <time>2026-02-22T15:10:27.188Z</time>
      </trkpt>
      <trkpt lat="44.19542" lon="0.60883">
        <ele>45</ele>
        <time>2026-02-22T15:10:28.188Z</time>
      </trkpt>
      <trkpt lat="44.19542" lon="0.60883">
        <ele>46</ele>
        <time>2026-02-22T15:10:29.188Z</time>
      </trkpt>
      <trkpt lat="44.19542" lon="0.60883">
        <ele>46</ele>
        <time>2026-02-22T15:10:30.188Z</time>
      </trkpt>
      <trkpt lat="44.19542" lon="0.60883">
        <ele>46</ele>
        <time>2026-02-22T15:10:31.188Z</time>
      </trkpt>
      <trkpt lat="44.19542" lon="0.60883">
        <ele>46</ele>
        <time>2026-02-22T15:10:32.188Z</time>
      </trkpt>
      <trkpt lat="44.19542" lon="0.60883">
        <ele>46</ele>
        <time>2026-02-22T15:10:33.188Z</time>
      </trkpt>
      <trkpt lat="44.19542" lon="0.60883">
        <ele>47</ele>
        <time>2026-02-22T15:10:34.188Z</time>
      </trkpt>
      <trkpt lat="44.19542" lon="0.60883">
        <ele>46</ele>
        <time>2026-02-22T15:10:35.188Z</time>
      </trkpt>
      <trkpt lat="44.19542" lon="0.60883">
        <ele>46</ele>
        <time>2026-02-22T15:10:36.188Z</time>
      </trkpt>
      <trkpt lat="44.19542" lon="0.60883">
        <ele>47</ele>
        <time>2026-02-22T15:10:37.188Z</time>
      </trkpt>
      <trkpt lat="44.19542" lon="0.60883">
        <ele>47</ele>
        <time>2026-02-22T15:10:38.189Z</time>
      </trkpt>
      <trkpt lat="44.19542" lon="0.60883">
        <ele>47</ele>
        <time>2026-02-22T15:10:39.189Z</time>
      </trkpt>
      <trkpt lat="44.19542" lon="0.60883">
        <ele>47</ele>
        <time>2026-02-22T15:10:40.189Z</time>
      </trkpt>
      <trkpt lat="44.19542" lon="0.60883">
        <ele>47</ele>
        <time>2026-02-22T15:10:41.188Z</time>
      </trkpt>
      <trkpt lat="44.19542" lon="0.60883">
        <ele>46</ele>
        <time>2026-02-22T15:10:42.188Z</time>
      </trkpt>
      <trkpt lat="44.19542" lon="0.60884">
        <ele>46</ele>
        <time>2026-02-22T15:10:43.188Z</time>
      </trkpt>
      <trkpt lat="44.19542" lon="0.60884">
        <ele>46</ele>
        <time>2026-02-22T15:10:44.188Z</time>
      </trkpt>
      <trkpt lat="44.19542" lon="0.60884">
        <ele>46</ele>
        <time>2026-02-22T15:10:45.188Z</time>
      </trkpt>
      <trkpt lat="44.19542" lon="0.60884">
        <ele>46</ele>
        <time>2026-02-22T15:10:46.188Z</time>
      </trkpt>
      <trkpt lat="44.19542" lon="0.60884">
        <ele>46</ele>
        <time>2026-02-22T15:10:47.188Z</time>
      </trkpt>
      <trkpt lat="44.19542" lon="0.60884">
        <ele>46</ele>
        <time>2026-02-22T15:10:48.188Z</time>
      </trkpt>
      <trkpt lat="44.19542" lon="0.60884">
        <ele>47</ele>
        <time>2026-02-22T15:10:49.188Z</time>
      </trkpt>
      <trkpt lat="44.19542" lon="0.60884">
        <ele>47</ele>
        <time>2026-02-22T15:10:50.188Z</time>
      </trkpt>
      <trkpt lat="44.19542" lon="0.60884">
        <ele>46</ele>
        <time>2026-02-22T15:10:51.188Z</time>
      </trkpt>
      <trkpt lat="44.19542" lon="0.60884">
        <ele>46</ele>
        <time>2026-02-22T15:10:52.188Z</time>
      </trkpt>
      <trkpt lat="44.19542" lon="0.60884">
        <ele>46</ele>
        <time>2026-02-22T15:10:53.188Z</time>
      </trkpt>
      <trkpt lat="44.19542" lon="0.60884">
        <ele>47</ele>
        <time>2026-02-22T15:10:54.188Z</time>
      </trkpt>
      <trkpt lat="44.19542" lon="0.60884">
        <ele>47</ele>
        <time>2026-02-22T15:10:55.188Z</time>
      </trkpt>
      <trkpt lat="44.19542" lon="0.60884">
        <ele>47</ele>
        <time>2026-02-22T15:10:56.188Z</time>
      </trkpt>
      <trkpt lat="44.19542" lon="0.60884">
        <ele>47</ele>
        <time>2026-02-22T15:10:57.188Z</time>
      </trkpt>
      <trkpt lat="44.19542" lon="0.60884">
        <ele>47</ele>
        <time>2026-02-22T15:10:58.188Z</time>
      </trkpt>
      <trkpt lat="44.19542" lon="0.60884">
        <ele>47</ele>
        <time>2026-02-22T15:10:59.188Z</time>
      </trkpt>
      <trkpt lat="44.19542" lon="0.60884">
        <ele>47</ele>
        <time>2026-02-22T15:11:00.188Z</time>
      </trkpt>
      <trkpt lat="44.19542" lon="0.60884">
        <ele>47</ele>
        <time>2026-02-22T15:11:01.188Z</time>
      </trkpt>
      <trkpt lat="44.19542" lon="0.60883">
        <ele>47</ele>
        <time>2026-02-22T15:11:02.189Z</time>
      </trkpt>
      <trkpt lat="44.19542" lon="0.60883">
        <ele>48</ele>
        <time>2026-02-22T15:11:03.188Z</time>
      </trkpt>
      <trkpt lat="44.19542" lon="0.60884">
        <ele>48</ele>
        <time>2026-02-22T15:11:04.188Z</time>
      </trkpt>
      <trkpt lat="44.19542" lon="0.60884">
        <ele>48</ele>
        <time>2026-02-22T15:11:05.188Z</time>
      </trkpt>
      <trkpt lat="44.19542" lon="0.60884">
        <ele>48</ele>
        <time>2026-02-22T15:11:06.188Z</time>
      </trkpt>
      <trkpt lat="44.19542" lon="0.60884">
        <ele>47</ele>
        <time>2026-02-22T15:11:07.188Z</time>
      </trkpt>
      <trkpt lat="44.19542" lon="0.60884">
        <ele>46</ele>
        <time>2026-02-22T15:11:08.188Z</time>
      </trkpt>
      <trkpt lat="44.19542" lon="0.60884">
        <ele>45</ele>
        <time>2026-02-22T15:11:09.188Z</time>
      </trkpt>
      <trkpt lat="44.19542" lon="0.60884">
        <ele>45</ele>
        <time>2026-02-22T15:11:10.188Z</time>
      </trkpt>
      <trkpt lat="44.19542" lon="0.60884">
        <ele>45</ele>
        <time>2026-02-22T15:11:11.188Z</time>
      </trkpt>
      <trkpt lat="44.19542" lon="0.60884">
        <ele>44</ele>
        <time>2026-02-22T15:11:12.188Z</time>
      </trkpt>
      <trkpt lat="44.19542" lon="0.60884">
        <ele>44</ele>
        <time>2026-02-22T15:11:13.188Z</time>
      </trkpt>
      <trkpt lat="44.19542" lon="0.60884">
        <ele>44</ele>
        <time>2026-02-22T15:11:14.188Z</time>
      </trkpt>
      <trkpt lat="44.19542" lon="0.60884">
        <ele>44</ele>
        <time>2026-02-22T15:11:15.188Z</time>
      </trkpt>
      <trkpt lat="44.19542" lon="0.60884">
        <ele>43</ele>
        <time>2026-02-22T15:11:16.189Z</time>
      </trkpt>
      <trkpt lat="44.19542" lon="0.60884">
        <ele>43</ele>
        <time>2026-02-22T15:11:17.188Z</time>
      </trkpt>
      <trkpt lat="44.19542" lon="0.60884">
        <ele>43</ele>
        <time>2026-02-22T15:11:18.188Z</time>
      </trkpt>
      <trkpt lat="44.19542" lon="0.60884">
        <ele>42</ele>
        <time>2026-02-22T15:11:19.189Z</time>
      </trkpt>
      <trkpt lat="44.19542" lon="0.60884">
        <ele>42</ele>
        <time>2026-02-22T15:11:20.188Z</time>
      </trkpt>
      <trkpt lat="44.19542" lon="0.60884">
        <ele>42</ele>
        <time>2026-02-22T15:11:21.188Z</time>
      </trkpt>
      <trkpt lat="44.19542" lon="0.60884">
        <ele>42</ele>
        <time>2026-02-22T15:11:22.188Z</time>
      </trkpt>
      <trkpt lat="44.19542" lon="0.60884">
        <ele>43</ele>
        <time>2026-02-22T15:11:23.188Z</time>
      </trkpt>
      <trkpt lat="44.19542" lon="0.60884">
        <ele>43</ele>
        <time>2026-02-22T15:11:24.188Z</time>
      </trkpt>
      <trkpt lat="44.19542" lon="0.60885">
        <ele>44</ele>
        <time>2026-02-22T15:11:25.188Z</time>
      </trkpt>
      <trkpt lat="44.19542" lon="0.60885">
        <ele>44</ele>
        <time>2026-02-22T15:11:26.188Z</time>
      </trkpt>
      <trkpt lat="44.19543" lon="0.60885">
        <ele>45</ele>
        <time>2026-02-22T15:11:27.188Z</time>
      </trkpt>
      <trkpt lat="44.19543" lon="0.60885">
        <ele>46</ele>
        <time>2026-02-22T15:11:28.188Z</time>
      </trkpt>
      <trkpt lat="44.19543" lon="0.60885">
        <ele>46</ele>
        <time>2026-02-22T15:11:29.188Z</time>
      </trkpt>
      <trkpt lat="44.19543" lon="0.60884">
        <ele>46</ele>
        <time>2026-02-22T15:11:30.188Z</time>
      </trkpt>
      <trkpt lat="44.19543" lon="0.60884">
        <ele>47</ele>
        <time>2026-02-22T15:11:31.188Z</time>
      </trkpt>
      <trkpt lat="44.19543" lon="0.60884">
        <ele>47</ele>
        <time>2026-02-22T15:11:32.188Z</time>
      </trkpt>
      <trkpt lat="44.19543" lon="0.60884">
        <ele>47</ele>
        <time>2026-02-22T15:11:33.188Z</time>
      </trkpt>
      <trkpt lat="44.19543" lon="0.60884">
        <ele>47</ele>
        <time>2026-02-22T15:11:34.189Z</time>
      </trkpt>
      <trkpt lat="44.19543" lon="0.60884">
        <ele>47</ele>
        <time>2026-02-22T15:11:35.188Z</time>
      </trkpt>
      <trkpt lat="44.19543" lon="0.60884">
        <ele>47</ele>
        <time>2026-02-22T15:11:36.188Z</time>
      </trkpt>
      <trkpt lat="44.19543" lon="0.60884">
        <ele>47</ele>
        <time>2026-02-22T15:11:37.188Z</time>
      </trkpt>
      <trkpt lat="44.19543" lon="0.60884">
        <ele>47</ele>
        <time>2026-02-22T15:11:38.188Z</time>
      </trkpt>
      <trkpt lat="44.19543" lon="0.60884">
        <ele>47</ele>
        <time>2026-02-22T15:11:39.188Z</time>
      </trkpt>
      <trkpt lat="44.19543" lon="0.60884">
        <ele>47</ele>
        <time>2026-02-22T15:11:40.188Z</time>
      </trkpt>
      <trkpt lat="44.19543" lon="0.60884">
        <ele>47</ele>
        <time>2026-02-22T15:11:41.188Z</time>
      </trkpt>
      <trkpt lat="44.19543" lon="0.60884">
        <ele>47</ele>
        <time>2026-02-22T15:11:42.188Z</time>
      </trkpt>
      <trkpt lat="44.19543" lon="0.60884">
        <ele>47</ele>
        <time>2026-02-22T15:11:43.188Z</time>
      </trkpt>
      <trkpt lat="44.19543" lon="0.60884">
        <ele>47</ele>
        <time>2026-02-22T15:11:44.188Z</time>
      </trkpt>
      <trkpt lat="44.19543" lon="0.60883">
        <ele>46</ele>
        <time>2026-02-22T15:11:45.188Z</time>
      </trkpt>
      <trkpt lat="44.19542" lon="0.60883">
        <ele>46</ele>
        <time>2026-02-22T15:11:46.188Z</time>
      </trkpt>
      <trkpt lat="44.19542" lon="0.60883">
        <ele>46</ele>
        <time>2026-02-22T15:11:47.188Z</time>
      </trkpt>
      <trkpt lat="44.19541" lon="0.60883">
        <ele>46</ele>
        <time>2026-02-22T15:11:48.188Z</time>
      </trkpt>
      <trkpt lat="44.1954" lon="0.60884">
        <ele>46</ele>
        <time>2026-02-22T15:11:49.188Z</time>
      </trkpt>
      <trkpt lat="44.1954" lon="0.60884">
        <ele>46</ele>
        <time>2026-02-22T15:11:50.188Z</time>
      </trkpt>
      <trkpt lat="44.19539" lon="0.60884">
        <ele>46</ele>
        <time>2026-02-22T15:11:51.188Z</time>
      </trkpt>
      <trkpt lat="44.19538" lon="0.60885">
        <ele>46</ele>
        <time>2026-02-22T15:11:52.189Z</time>
      </trkpt>
      <trkpt lat="44.19537" lon="0.60885">
        <ele>46</ele>
        <time>2026-02-22T15:11:53.189Z</time>
      </trkpt>
      <trkpt lat="44.19537" lon="0.60885">
        <ele>46</ele>
        <time>2026-02-22T15:11:54.188Z</time>
      </trkpt>
      <trkpt lat="44.19537" lon="0.60885">
        <ele>46</ele>
        <time>2026-02-22T15:11:55.188Z</time>
      </trkpt>
      <trkpt lat="44.19537" lon="0.60886">
        <ele>45</ele>
        <time>2026-02-22T15:11:56.188Z</time>
      </trkpt>
      <trkpt lat="44.19537" lon="0.60886">
        <ele>45</ele>
        <time>2026-02-22T15:11:57.188Z</time>
      </trkpt>
      <trkpt lat="44.19537" lon="0.60886">
        <ele>45</ele>
        <time>2026-02-22T15:11:58.188Z</time>
      </trkpt>
      <trkpt lat="44.19536" lon="0.60885">
        <ele>45</ele>
        <time>2026-02-22T15:11:59.188Z</time>
      </trkpt>
      <trkpt lat="44.19536" lon="0.60885">
        <ele>44</ele>
        <time>2026-02-22T15:12:00.188Z</time>
      </trkpt>
      <trkpt lat="44.19536" lon="0.60885">
        <ele>44</ele>
        <time>2026-02-22T15:12:01.188Z</time>
      </trkpt>
      <trkpt lat="44.19536" lon="0.60886">
        <ele>43</ele>
        <time>2026-02-22T15:12:02.188Z</time>
      </trkpt>
      <trkpt lat="44.19536" lon="0.60886">
        <ele>43</ele>
        <time>2026-02-22T15:12:03.188Z</time>
      </trkpt>
      <trkpt lat="44.19536" lon="0.60886">
        <ele>43</ele>
        <time>2026-02-22T15:12:04.188Z</time>
      </trkpt>
      <trkpt lat="44.19536" lon="0.60886">
        <ele>43</ele>
        <time>2026-02-22T15:12:05.188Z</time>
      </trkpt>
      <trkpt lat="44.19536" lon="0.60886">
        <ele>42</ele>
        <time>2026-02-22T15:12:06.188Z</time>
      </trkpt>
      <trkpt lat="44.19536" lon="0.60886">
        <ele>42</ele>
        <time>2026-02-22T15:12:07.188Z</time>
      </trkpt>
      <trkpt lat="44.19536" lon="0.60886">
        <ele>42</ele>
        <time>2026-02-22T15:12:08.188Z</time>
      </trkpt>
      <trkpt lat="44.19536" lon="0.60886">
        <ele>42</ele>
        <time>2026-02-22T15:12:09.188Z</time>
      </trkpt>
      <trkpt lat="44.19536" lon="0.60886">
        <ele>42</ele>
        <time>2026-02-22T15:12:10.188Z</time>
      </trkpt>
      <trkpt lat="44.19536" lon="0.60886">
        <ele>42</ele>
        <time>2026-02-22T15:12:11.188Z</time>
      </trkpt>
      <trkpt lat="44.19536" lon="0.60885">
        <ele>43</ele>
        <time>2026-02-22T15:12:12.188Z</time>
      </trkpt>
      <trkpt lat="44.19536" lon="0.60885">
        <ele>44</ele>
        <time>2026-02-22T15:12:13.188Z</time>
      </trkpt>
      <trkpt lat="44.19536" lon="0.60886">
        <ele>44</ele>
        <time>2026-02-22T15:12:14.188Z</time>
      </trkpt>
      <trkpt lat="44.19536" lon="0.60886">
        <ele>44</ele>
        <time>2026-02-22T15:12:15.188Z</time>
      </trkpt>
      <trkpt lat="44.19536" lon="0.60886">
        <ele>44</ele>
        <time>2026-02-22T15:12:16.188Z</time>
      </trkpt>
      <trkpt lat="44.19536" lon="0.60886">
        <ele>44</ele>
        <time>2026-02-22T15:12:17.188Z</time>
      </trkpt>
      <trkpt lat="44.19536" lon="0.60886">
        <ele>44</ele>
        <time>2026-02-22T15:12:18.188Z</time>
      </trkpt>
      <trkpt lat="44.19536" lon="0.60886">
        <ele>44</ele>
        <time>2026-02-22T15:12:19.188Z</time>
      </trkpt>
      <trkpt lat="44.19536" lon="0.60886">
        <ele>44</ele>
        <time>2026-02-22T15:12:20.188Z</time>
      </trkpt>
      <trkpt lat="44.19536" lon="0.60886">
        <ele>44</ele>
        <time>2026-02-22T15:12:21.188Z</time>
      </trkpt>
      <trkpt lat="44.19536" lon="0.60886">
        <ele>45</ele>
        <time>2026-02-22T15:12:22.189Z</time>
      </trkpt>
      <trkpt lat="44.19537" lon="0.60886">
        <ele>44</ele>
        <time>2026-02-22T15:12:23.188Z</time>
      </trkpt>
      <trkpt lat="44.19537" lon="0.60886">
        <ele>45</ele>
        <time>2026-02-22T15:12:24.188Z</time>
      </trkpt>
      <trkpt lat="44.19537" lon="0.60886">
        <ele>45</ele>
        <time>2026-02-22T15:12:25.188Z</time>
      </trkpt>
      <trkpt lat="44.19538" lon="0.60886">
        <ele>45</ele>
        <time>2026-02-22T15:12:26.188Z</time>
      </trkpt>
      <trkpt lat="44.19538" lon="0.60885">
        <ele>45</ele>
        <time>2026-02-22T15:12:27.188Z</time>
      </trkpt>
      <trkpt lat="44.19539" lon="0.60885">
        <ele>45</ele>
        <time>2026-02-22T15:12:28.189Z</time>
      </trkpt>
      <trkpt lat="44.1954" lon="0.60883">
        <ele>45</ele>
        <time>2026-02-22T15:12:29.189Z</time>
      </trkpt>
      <trkpt lat="44.19541" lon="0.60882">
        <ele>46</ele>
        <time>2026-02-22T15:12:30.188Z</time>
      </trkpt>
      <trkpt lat="44.19542" lon="0.60881">
        <ele>46</ele>
        <time>2026-02-22T15:12:31.188Z</time>
      </trkpt>
      <trkpt lat="44.19543" lon="0.60879">
        <ele>46</ele>
        <time>2026-02-22T15:12:32.188Z</time>
      </trkpt>
      <trkpt lat="44.19544" lon="0.60878">
        <ele>46</ele>
        <time>2026-02-22T15:12:33.188Z</time>
      </trkpt>
      <trkpt lat="44.19545" lon="0.60877">
        <ele>46</ele>
        <time>2026-02-22T15:12:34.188Z</time>
      </trkpt>
      <trkpt lat="44.19546" lon="0.60876">
        <ele>46</ele>
        <time>2026-02-22T15:12:35.188Z</time>
      </trkpt>
      <trkpt lat="44.19548" lon="0.60875">
        <ele>46</ele>
        <time>2026-02-22T15:12:36.188Z</time>
      </trkpt>
      <trkpt lat="44.19549" lon="0.60874">
        <ele>46</ele>
        <time>2026-02-22T15:12:37.188Z</time>
      </trkpt>
      <trkpt lat="44.1955" lon="0.60874">
        <ele>46</ele>
        <time>2026-02-22T15:12:38.188Z</time>
      </trkpt>
      <trkpt lat="44.1955" lon="0.60873">
        <ele>46</ele>
        <time>2026-02-22T15:12:39.189Z</time>
      </trkpt>
      <trkpt lat="44.19551" lon="0.60872">
        <ele>46</ele>
        <time>2026-02-22T15:12:40.188Z</time>
      </trkpt>
      <trkpt lat="44.19552" lon="0.60871">
        <ele>46</ele>
        <time>2026-02-22T15:12:41.188Z</time>
      </trkpt>
      <trkpt lat="44.19554" lon="0.6087">
        <ele>46</ele>
        <time>2026-02-22T15:12:42.188Z</time>
      </trkpt>
      <trkpt lat="44.19555" lon="0.60869">
        <ele>47</ele>
        <time>2026-02-22T15:12:43.188Z</time>
      </trkpt>
      <trkpt lat="44.19556" lon="0.60868">
        <ele>47</ele>
        <time>2026-02-22T15:12:44.188Z</time>
      </trkpt>
      <trkpt lat="44.19556" lon="0.60866">
        <ele>47</ele>
        <time>2026-02-22T15:12:45.188Z</time>
      </trkpt>
      <trkpt lat="44.19557" lon="0.60865">
        <ele>47</ele>
        <time>2026-02-22T15:12:46.188Z</time>
      </trkpt>
      <trkpt lat="44.19558" lon="0.60864">
        <ele>47</ele>
        <time>2026-02-22T15:12:47.188Z</time>
      </trkpt>
      <trkpt lat="44.19558" lon="0.60862">
        <ele>47</ele>
        <time>2026-02-22T15:12:48.188Z</time>
      </trkpt>
      <trkpt lat="44.19558" lon="0.6086">
        <ele>47</ele>
        <time>2026-02-22T15:12:49.188Z</time>
      </trkpt>
      <trkpt lat="44.19559" lon="0.60859">
        <ele>46</ele>
        <time>2026-02-22T15:12:50.188Z</time>
      </trkpt>
      <trkpt lat="44.1956" lon="0.60857">
        <ele>46</ele>
        <time>2026-02-22T15:12:51.188Z</time>
      </trkpt>
      <trkpt lat="44.19561" lon="0.60856">
        <ele>46</ele>
        <time>2026-02-22T15:12:52.188Z</time>
      </trkpt>
      <trkpt lat="44.19562" lon="0.60856">
        <ele>46</ele>
        <time>2026-02-22T15:12:53.188Z</time>
      </trkpt>
      <trkpt lat="44.19563" lon="0.60855">
        <ele>46</ele>
        <time>2026-02-22T15:12:54.188Z</time>
      </trkpt>
      <trkpt lat="44.19564" lon="0.60855">
        <ele>47</ele>
        <time>2026-02-22T15:12:55.188Z</time>
      </trkpt>
      <trkpt lat="44.19566" lon="0.60855">
        <ele>47</ele>
        <time>2026-02-22T15:12:56.188Z</time>
      </trkpt>
      <trkpt lat="44.19567" lon="0.60855">
        <ele>46</ele>
        <time>2026-02-22T15:12:57.188Z</time>
      </trkpt>
      <trkpt lat="44.19568" lon="0.60854">
        <ele>46</ele>
        <time>2026-02-22T15:12:58.188Z</time>
      </trkpt>
      <trkpt lat="44.1957" lon="0.60854">
        <ele>46</ele>
        <time>2026-02-22T15:12:59.188Z</time>
      </trkpt>
      <trkpt lat="44.19571" lon="0.60854">
        <ele>46</ele>
        <time>2026-02-22T15:13:00.188Z</time>
      </trkpt>
      <trkpt lat="44.19572" lon="0.60854">
        <ele>46</ele>
        <time>2026-02-22T15:13:01.188Z</time>
      </trkpt>
      <trkpt lat="44.19573" lon="0.60854">
        <ele>46</ele>
        <time>2026-02-22T15:13:02.188Z</time>
      </trkpt>
      <trkpt lat="44.19575" lon="0.60853">
        <ele>46</ele>
        <time>2026-02-22T15:13:03.188Z</time>
      </trkpt>
      <trkpt lat="44.19576" lon="0.60852">
        <ele>46</ele>
        <time>2026-02-22T15:13:04.188Z</time>
      </trkpt>
      <trkpt lat="44.19577" lon="0.60852">
        <ele>46</ele>
        <time>2026-02-22T15:13:05.188Z</time>
      </trkpt>
      <trkpt lat="44.19578" lon="0.60851">
        <ele>45</ele>
        <time>2026-02-22T15:13:06.189Z</time>
      </trkpt>
      <trkpt lat="44.19579" lon="0.60851">
        <ele>45</ele>
        <time>2026-02-22T15:13:07.188Z</time>
      </trkpt>
      <trkpt lat="44.1958" lon="0.6085">
        <ele>45</ele>
        <time>2026-02-22T15:13:08.188Z</time>
      </trkpt>
      <trkpt lat="44.19581" lon="0.60849">
        <ele>45</ele>
        <time>2026-02-22T15:13:09.189Z</time>
      </trkpt>
      <trkpt lat="44.19583" lon="0.60849">
        <ele>45</ele>
        <time>2026-02-22T15:13:10.188Z</time>
      </trkpt>
      <trkpt lat="44.19584" lon="0.60848">
        <ele>45</ele>
        <time>2026-02-22T15:13:11.188Z</time>
      </trkpt>
      <trkpt lat="44.19585" lon="0.60848">
        <ele>45</ele>
        <time>2026-02-22T15:13:12.188Z</time>
      </trkpt>
      <trkpt lat="44.19586" lon="0.60848">
        <ele>45</ele>
        <time>2026-02-22T15:13:13.188Z</time>
      </trkpt>
      <trkpt lat="44.19587" lon="0.60847">
        <ele>45</ele>
        <time>2026-02-22T15:13:14.188Z</time>
      </trkpt>
      <trkpt lat="44.19588" lon="0.60847">
        <ele>45</ele>
        <time>2026-02-22T15:13:15.188Z</time>
      </trkpt>
      <trkpt lat="44.19588" lon="0.60847">
        <ele>45</ele>
        <time>2026-02-22T15:13:16.188Z</time>
      </trkpt>
      <trkpt lat="44.19589" lon="0.60847">
        <ele>45</ele>
        <time>2026-02-22T15:13:17.188Z</time>
      </trkpt>
      <trkpt lat="44.1959" lon="0.60847">
        <ele>45</ele>
        <time>2026-02-22T15:13:18.188Z</time>
      </trkpt>
      <trkpt lat="44.19591" lon="0.60847">
        <ele>45</ele>
        <time>2026-02-22T15:13:19.188Z</time>
      </trkpt>
      <trkpt lat="44.19593" lon="0.60847">
        <ele>45</ele>
        <time>2026-02-22T15:13:20.188Z</time>
      </trkpt>
      <trkpt lat="44.19594" lon="0.60848">
        <ele>45</ele>
        <time>2026-02-22T15:13:21.188Z</time>
      </trkpt>
      <trkpt lat="44.19595" lon="0.60848">
        <ele>45</ele>
        <time>2026-02-22T15:13:22.189Z</time>
      </trkpt>
      <trkpt lat="44.19596" lon="0.60849">
        <ele>45</ele>
        <time>2026-02-22T15:13:23.188Z</time>
      </trkpt>
      <trkpt lat="44.19597" lon="0.60849">
        <ele>45</ele>
        <time>2026-02-22T15:13:24.189Z</time>
      </trkpt>
      <trkpt lat="44.19598" lon="0.60849">
        <ele>45</ele>
        <time>2026-02-22T15:13:25.188Z</time>
      </trkpt>
      <trkpt lat="44.19599" lon="0.60849">
        <ele>45</ele>
        <time>2026-02-22T15:13:26.188Z</time>
      </trkpt>
      <trkpt lat="44.196" lon="0.6085">
        <ele>45</ele>
        <time>2026-02-22T15:13:27.188Z</time>
      </trkpt>
      <trkpt lat="44.19601" lon="0.6085">
        <ele>45</ele>
        <time>2026-02-22T15:13:28.188Z</time>
      </trkpt>
      <trkpt lat="44.19602" lon="0.60849">
        <ele>44</ele>
        <time>2026-02-22T15:13:29.188Z</time>
      </trkpt>
      <trkpt lat="44.19603" lon="0.60848">
        <ele>44</ele>
        <time>2026-02-22T15:13:30.188Z</time>
      </trkpt>
      <trkpt lat="44.19604" lon="0.60848">
        <ele>44</ele>
        <time>2026-02-22T15:13:31.188Z</time>
      </trkpt>
      <trkpt lat="44.19605" lon="0.60848">
        <ele>44</ele>
        <time>2026-02-22T15:13:32.188Z</time>
      </trkpt>
      <trkpt lat="44.19606" lon="0.60849">
        <ele>44</ele>
        <time>2026-02-22T15:13:33.188Z</time>
      </trkpt>
      <trkpt lat="44.19607" lon="0.60849">
        <ele>44</ele>
        <time>2026-02-22T15:13:34.188Z</time>
      </trkpt>
      <trkpt lat="44.19608" lon="0.60849">
        <ele>45</ele>
        <time>2026-02-22T15:13:35.188Z</time>
      </trkpt>
      <trkpt lat="44.19609" lon="0.6085">
        <ele>45</ele>
        <time>2026-02-22T15:13:36.188Z</time>
      </trkpt>
      <trkpt lat="44.1961" lon="0.6085">
        <ele>45</ele>
        <time>2026-02-22T15:13:37.188Z</time>
      </trkpt>
      <trkpt lat="44.19611" lon="0.60851">
        <ele>45</ele>
        <time>2026-02-22T15:13:38.189Z</time>
      </trkpt>
      <trkpt lat="44.19612" lon="0.60851">
        <ele>45</ele>
        <time>2026-02-22T15:13:39.188Z</time>
      </trkpt>
      <trkpt lat="44.19613" lon="0.60852">
        <ele>46</ele>
        <time>2026-02-22T15:13:40.188Z</time>
      </trkpt>
      <trkpt lat="44.19614" lon="0.60852">
        <ele>46</ele>
        <time>2026-02-22T15:13:41.188Z</time>
      </trkpt>
      <trkpt lat="44.19615" lon="0.60853">
        <ele>46</ele>
        <time>2026-02-22T15:13:42.189Z</time>
      </trkpt>
      <trkpt lat="44.19616" lon="0.60853">
        <ele>46</ele>
        <time>2026-02-22T15:13:43.189Z</time>
      </trkpt>
      <trkpt lat="44.19617" lon="0.60853">
        <ele>46</ele>
        <time>2026-02-22T15:13:44.188Z</time>
      </trkpt>
      <trkpt lat="44.19618" lon="0.60853">
        <ele>47</ele>
        <time>2026-02-22T15:13:45.188Z</time>
      </trkpt>
      <trkpt lat="44.19619" lon="0.60852">
        <ele>47</ele>
        <time>2026-02-22T15:13:46.188Z</time>
      </trkpt>
      <trkpt lat="44.19619" lon="0.60852">
        <ele>47</ele>
        <time>2026-02-22T15:13:47.188Z</time>
      </trkpt>
      <trkpt lat="44.1962" lon="0.60852">
        <ele>48</ele>
        <time>2026-02-22T15:13:48.188Z</time>
      </trkpt>
      <trkpt lat="44.19621" lon="0.60852">
        <ele>47</ele>
        <time>2026-02-22T15:13:49.188Z</time>
      </trkpt>
      <trkpt lat="44.19623" lon="0.60852">
        <ele>47</ele>
        <time>2026-02-22T15:13:50.188Z</time>
      </trkpt>
      <trkpt lat="44.19624" lon="0.60853">
        <ele>47</ele>
        <time>2026-02-22T15:13:51.188Z</time>
      </trkpt>
      <trkpt lat="44.19625" lon="0.60853">
        <ele>47</ele>
        <time>2026-02-22T15:13:52.189Z</time>
      </trkpt>
      <trkpt lat="44.19626" lon="0.60853">
        <ele>47</ele>
        <time>2026-02-22T15:13:53.188Z</time>
      </trkpt>
      <trkpt lat="44.19627" lon="0.60854">
        <ele>46</ele>
        <time>2026-02-22T15:13:54.189Z</time>
      </trkpt>
      <trkpt lat="44.19627" lon="0.60854">
        <ele>46</ele>
        <time>2026-02-22T15:13:55.188Z</time>
      </trkpt>
      <trkpt lat="44.19627" lon="0.60854">
        <ele>46</ele>
        <time>2026-02-22T15:13:56.188Z</time>
      </trkpt>
      <trkpt lat="44.19627" lon="0.60854">
        <ele>46</ele>
        <time>2026-02-22T15:13:57.188Z</time>
      </trkpt>
      <trkpt lat="44.19627" lon="0.60854">
        <ele>47</ele>
        <time>2026-02-22T15:13:58.188Z</time>
      </trkpt>
      <trkpt lat="44.19628" lon="0.60854">
        <ele>47</ele>
        <time>2026-02-22T15:13:59.188Z</time>
      </trkpt>
      <trkpt lat="44.19628" lon="0.60853">
        <ele>47</ele>
        <time>2026-02-22T15:14:00.188Z</time>
      </trkpt>
      <trkpt lat="44.19628" lon="0.60853">
        <ele>47</ele>
        <time>2026-02-22T15:14:01.188Z</time>
      </trkpt>
      <trkpt lat="44.19629" lon="0.60853">
        <ele>47</ele>
        <time>2026-02-22T15:14:02.188Z</time>
      </trkpt>
      <trkpt lat="44.1963" lon="0.60854">
        <ele>47</ele>
        <time>2026-02-22T15:14:03.188Z</time>
      </trkpt>
      <trkpt lat="44.19631" lon="0.60854">
        <ele>47</ele>
        <time>2026-02-22T15:14:04.188Z</time>
      </trkpt>
      <trkpt lat="44.19632" lon="0.60853">
        <ele>47</ele>
        <time>2026-02-22T15:14:05.188Z</time>
      </trkpt>
      <trkpt lat="44.19633" lon="0.60853">
        <ele>47</ele>
        <time>2026-02-22T15:14:06.188Z</time>
      </trkpt>
      <trkpt lat="44.19634" lon="0.60853">
        <ele>47</ele>
        <time>2026-02-22T15:14:07.188Z</time>
      </trkpt>
      <trkpt lat="44.19635" lon="0.60853">
        <ele>47</ele>
        <time>2026-02-22T15:14:08.188Z</time>
      </trkpt>
      <trkpt lat="44.19636" lon="0.60853">
        <ele>47</ele>
        <time>2026-02-22T15:14:09.189Z</time>
      </trkpt>
      <trkpt lat="44.19637" lon="0.60853">
        <ele>47</ele>
        <time>2026-02-22T15:14:10.188Z</time>
      </trkpt>
      <trkpt lat="44.19638" lon="0.60853">
        <ele>47</ele>
        <time>2026-02-22T15:14:11.188Z</time>
      </trkpt>
      <trkpt lat="44.19638" lon="0.60853">
        <ele>47</ele>
        <time>2026-02-22T15:14:12.188Z</time>
      </trkpt>
      <trkpt lat="44.19639" lon="0.60852">
        <ele>47</ele>
        <time>2026-02-22T15:14:13.188Z</time>
      </trkpt>
      <trkpt lat="44.1964" lon="0.60852">
        <ele>47</ele>
        <time>2026-02-22T15:14:14.188Z</time>
      </trkpt>
      <trkpt lat="44.19641" lon="0.60852">
        <ele>47</ele>
        <time>2026-02-22T15:14:15.188Z</time>
      </trkpt>
      <trkpt lat="44.19642" lon="0.60852">
        <ele>47</ele>
        <time>2026-02-22T15:14:16.188Z</time>
      </trkpt>
      <trkpt lat="44.19643" lon="0.60853">
        <ele>47</ele>
        <time>2026-02-22T15:14:17.189Z</time>
      </trkpt>
      <trkpt lat="44.19644" lon="0.60853">
        <ele>47</ele>
        <time>2026-02-22T15:14:18.189Z</time>
      </trkpt>
      <trkpt lat="44.19645" lon="0.60853">
        <ele>47</ele>
        <time>2026-02-22T15:14:19.189Z</time>
      </trkpt>
      <trkpt lat="44.19646" lon="0.60853">
        <ele>47</ele>
        <time>2026-02-22T15:14:20.188Z</time>
      </trkpt>
      <trkpt lat="44.19647" lon="0.60854">
        <ele>47</ele>
        <time>2026-02-22T15:14:21.188Z</time>
      </trkpt>
      <trkpt lat="44.19648" lon="0.60854">
        <ele>47</ele>
        <time>2026-02-22T15:14:22.188Z</time>
      </trkpt>
      <trkpt lat="44.19649" lon="0.60855">
        <ele>47</ele>
        <time>2026-02-22T15:14:23.188Z</time>
      </trkpt>
      <trkpt lat="44.1965" lon="0.60855">
        <ele>47</ele>
        <time>2026-02-22T15:14:24.189Z</time>
      </trkpt>
      <trkpt lat="44.19652" lon="0.60855">
        <ele>47</ele>
        <time>2026-02-22T15:14:25.188Z</time>
      </trkpt>
      <trkpt lat="44.19653" lon="0.60855">
        <ele>47</ele>
        <time>2026-02-22T15:14:26.189Z</time>
      </trkpt>
      <trkpt lat="44.19655" lon="0.60855">
        <ele>47</ele>
        <time>2026-02-22T15:14:27.188Z</time>
      </trkpt>
      <trkpt lat="44.19656" lon="0.60855">
        <ele>47</ele>
        <time>2026-02-22T15:14:28.188Z</time>
      </trkpt>
      <trkpt lat="44.19657" lon="0.60855">
        <ele>48</ele>
        <time>2026-02-22T15:14:29.188Z</time>
      </trkpt>
      <trkpt lat="44.19658" lon="0.60855">
        <ele>48</ele>
        <time>2026-02-22T15:14:30.188Z</time>
      </trkpt>
      <trkpt lat="44.1966" lon="0.60855">
        <ele>48</ele>
        <time>2026-02-22T15:14:31.188Z</time>
      </trkpt>
      <trkpt lat="44.19661" lon="0.60855">
        <ele>48</ele>
        <time>2026-02-22T15:14:32.188Z</time>
      </trkpt>
      <trkpt lat="44.19662" lon="0.60855">
        <ele>48</ele>
        <time>2026-02-22T15:14:33.188Z</time>
      </trkpt>
      <trkpt lat="44.19663" lon="0.60855">
        <ele>48</ele>
        <time>2026-02-22T15:14:34.188Z</time>
      </trkpt>
      <trkpt lat="44.19665" lon="0.60855">
        <ele>48</ele>
        <time>2026-02-22T15:14:35.188Z</time>
      </trkpt>
      <trkpt lat="44.19666" lon="0.60855">
        <ele>47</ele>
        <time>2026-02-22T15:14:36.188Z</time>
      </trkpt>
      <trkpt lat="44.19667" lon="0.60854">
        <ele>47</ele>
        <time>2026-02-22T15:14:37.188Z</time>
      </trkpt>
      <trkpt lat="44.19669" lon="0.60854">
        <ele>48</ele>
        <time>2026-02-22T15:14:38.188Z</time>
      </trkpt>
      <trkpt lat="44.19669" lon="0.60854">
        <ele>48</ele>
        <time>2026-02-22T15:14:39.188Z</time>
      </trkpt>
      <trkpt lat="44.1967" lon="0.60854">
        <ele>48</ele>
        <time>2026-02-22T15:14:40.188Z</time>
      </trkpt>
      <trkpt lat="44.19671" lon="0.60854">
        <ele>47</ele>
        <time>2026-02-22T15:14:41.188Z</time>
      </trkpt>
      <trkpt lat="44.19672" lon="0.60853">
        <ele>47</ele>
        <time>2026-02-22T15:14:42.188Z</time>
      </trkpt>
      <trkpt lat="44.19673" lon="0.60854">
        <ele>47</ele>
        <time>2026-02-22T15:14:43.188Z</time>
      </trkpt>
      <trkpt lat="44.19674" lon="0.60853">
        <ele>47</ele>
        <time>2026-02-22T15:14:44.188Z</time>
      </trkpt>
      <trkpt lat="44.19676" lon="0.60853">
        <ele>48</ele>
        <time>2026-02-22T15:14:45.188Z</time>
      </trkpt>
      <trkpt lat="44.19677" lon="0.60853">
        <ele>48</ele>
        <time>2026-02-22T15:14:46.188Z</time>
      </trkpt>
      <trkpt lat="44.19678" lon="0.60853">
        <ele>48</ele>
        <time>2026-02-22T15:14:47.188Z</time>
      </trkpt>
      <trkpt lat="44.1968" lon="0.60852">
        <ele>48</ele>
        <time>2026-02-22T15:14:48.188Z</time>
      </trkpt>
      <trkpt lat="44.19681" lon="0.60852">
        <ele>48</ele>
        <time>2026-02-22T15:14:49.188Z</time>
      </trkpt>
      <trkpt lat="44.19682" lon="0.60852">
        <ele>48</ele>
        <time>2026-02-22T15:14:50.188Z</time>
      </trkpt>
      <trkpt lat="44.19683" lon="0.60852">
        <ele>48</ele>
        <time>2026-02-22T15:14:51.188Z</time>
      </trkpt>
      <trkpt lat="44.19684" lon="0.60852">
        <ele>49</ele>
        <time>2026-02-22T15:14:52.188Z</time>
      </trkpt>
      <trkpt lat="44.19686" lon="0.60851">
        <ele>49</ele>
        <time>2026-02-22T15:14:53.188Z</time>
      </trkpt>
      <trkpt lat="44.19687" lon="0.60852">
        <ele>50</ele>
        <time>2026-02-22T15:14:54.189Z</time>
      </trkpt>
      <trkpt lat="44.19688" lon="0.60852">
        <ele>50</ele>
        <time>2026-02-22T15:14:55.188Z</time>
      </trkpt>
      <trkpt lat="44.19689" lon="0.60852">
        <ele>50</ele>
        <time>2026-02-22T15:14:56.189Z</time>
      </trkpt>
      <trkpt lat="44.1969" lon="0.60852">
        <ele>50</ele>
        <time>2026-02-22T15:14:57.188Z</time>
      </trkpt>
      <trkpt lat="44.19691" lon="0.60852">
        <ele>50</ele>
        <time>2026-02-22T15:14:58.188Z</time>
      </trkpt>
      <trkpt lat="44.19692" lon="0.60852">
        <ele>50</ele>
        <time>2026-02-22T15:14:59.188Z</time>
      </trkpt>
      <trkpt lat="44.19693" lon="0.60852">
        <ele>50</ele>
        <time>2026-02-22T15:15:00.188Z</time>
      </trkpt>
      <trkpt lat="44.19695" lon="0.60852">
        <ele>50</ele>
        <time>2026-02-22T15:15:01.188Z</time>
      </trkpt>
      <trkpt lat="44.19696" lon="0.60851">
        <ele>51</ele>
        <time>2026-02-22T15:15:02.188Z</time>
      </trkpt>
      <trkpt lat="44.19697" lon="0.60851">
        <ele>51</ele>
        <time>2026-02-22T15:15:03.188Z</time>
      </trkpt>
      <trkpt lat="44.19698" lon="0.60851">
        <ele>51</ele>
        <time>2026-02-22T15:15:04.188Z</time>
      </trkpt>
      <trkpt lat="44.19699" lon="0.6085">
        <ele>51</ele>
        <time>2026-02-22T15:15:05.188Z</time>
      </trkpt>
      <trkpt lat="44.197" lon="0.6085">
        <ele>51</ele>
        <time>2026-02-22T15:15:06.188Z</time>
      </trkpt>
      <trkpt lat="44.19701" lon="0.6085">
        <ele>51</ele>
        <time>2026-02-22T15:15:07.188Z</time>
      </trkpt>
      <trkpt lat="44.19702" lon="0.60849">
        <ele>51</ele>
        <time>2026-02-22T15:15:08.188Z</time>
      </trkpt>
      <trkpt lat="44.19703" lon="0.60849">
        <ele>52</ele>
        <time>2026-02-22T15:15:09.188Z</time>
      </trkpt>
      <trkpt lat="44.19705" lon="0.60849">
        <ele>52</ele>
        <time>2026-02-22T15:15:10.188Z</time>
      </trkpt>
      <trkpt lat="44.19706" lon="0.60848">
        <ele>52</ele>
        <time>2026-02-22T15:15:11.188Z</time>
      </trkpt>
      <trkpt lat="44.19707" lon="0.60849">
        <ele>52</ele>
        <time>2026-02-22T15:15:12.188Z</time>
      </trkpt>
      <trkpt lat="44.19708" lon="0.60848">
        <ele>51</ele>
        <time>2026-02-22T15:15:13.188Z</time>
      </trkpt>
      <trkpt lat="44.19709" lon="0.60848">
        <ele>51</ele>
        <time>2026-02-22T15:15:14.188Z</time>
      </trkpt>
      <trkpt lat="44.1971" lon="0.60848">
        <ele>51</ele>
        <time>2026-02-22T15:15:15.188Z</time>
      </trkpt>
      <trkpt lat="44.19711" lon="0.60847">
        <ele>50</ele>
        <time>2026-02-22T15:15:16.188Z</time>
      </trkpt>
      <trkpt lat="44.19712" lon="0.60847">
        <ele>50</ele>
        <time>2026-02-22T15:15:17.188Z</time>
      </trkpt>
      <trkpt lat="44.19714" lon="0.60847">
        <ele>50</ele>
        <time>2026-02-22T15:15:18.188Z</time>
      </trkpt>
      <trkpt lat="44.19715" lon="0.60847">
        <ele>50</ele>
        <time>2026-02-22T15:15:19.188Z</time>
      </trkpt>
      <trkpt lat="44.19716" lon="0.60847">
        <ele>50</ele>
        <time>2026-02-22T15:15:20.188Z</time>
      </trkpt>
      <trkpt lat="44.19717" lon="0.60848">
        <ele>50</ele>
        <time>2026-02-22T15:15:21.188Z</time>
      </trkpt>
      <trkpt lat="44.19718" lon="0.60848">
        <ele>50</ele>
        <time>2026-02-22T15:15:22.188Z</time>
      </trkpt>
      <trkpt lat="44.19719" lon="0.60847">
        <ele>50</ele>
        <time>2026-02-22T15:15:23.188Z</time>
      </trkpt>
      <trkpt lat="44.1972" lon="0.60847">
        <ele>50</ele>
        <time>2026-02-22T15:15:24.188Z</time>
      </trkpt>
      <trkpt lat="44.19721" lon="0.60847">
        <ele>50</ele>
        <time>2026-02-22T15:15:25.188Z</time>
      </trkpt>
      <trkpt lat="44.19722" lon="0.60847">
        <ele>50</ele>
        <time>2026-02-22T15:15:26.188Z</time>
      </trkpt>
      <trkpt lat="44.19723" lon="0.60847">
        <ele>50</ele>
        <time>2026-02-22T15:15:27.188Z</time>
      </trkpt>
      <trkpt lat="44.19723" lon="0.60847">
        <ele>50</ele>
        <time>2026-02-22T15:15:28.189Z</time>
      </trkpt>
      <trkpt lat="44.19724" lon="0.60846">
        <ele>50</ele>
        <time>2026-02-22T15:15:29.188Z</time>
      </trkpt>
      <trkpt lat="44.19725" lon="0.60846">
        <ele>50</ele>
        <time>2026-02-22T15:15:30.188Z</time>
      </trkpt>
      <trkpt lat="44.19725" lon="0.60846">
        <ele>50</ele>
        <time>2026-02-22T15:15:31.188Z</time>
      </trkpt>
      <trkpt lat="44.19726" lon="0.60846">
        <ele>50</ele>
        <time>2026-02-22T15:15:32.189Z</time>
      </trkpt>
      <trkpt lat="44.19727" lon="0.60846">
        <ele>50</ele>
        <time>2026-02-22T15:15:33.189Z</time>
      </trkpt>
      <trkpt lat="44.19729" lon="0.60845">
        <ele>50</ele>
        <time>2026-02-22T15:15:34.189Z</time>
      </trkpt>
      <trkpt lat="44.1973" lon="0.60845">
        <ele>51</ele>
        <time>2026-02-22T15:15:35.188Z</time>
      </trkpt>
      <trkpt lat="44.19731" lon="0.60845">
        <ele>51</ele>
        <time>2026-02-22T15:15:36.188Z</time>
      </trkpt>
      <trkpt lat="44.19732" lon="0.60844">
        <ele>51</ele>
        <time>2026-02-22T15:15:37.188Z</time>
      </trkpt>
      <trkpt lat="44.19733" lon="0.60844">
        <ele>51</ele>
        <time>2026-02-22T15:15:38.188Z</time>
      </trkpt>
      <trkpt lat="44.19734" lon="0.60844">
        <ele>52</ele>
        <time>2026-02-22T15:15:39.188Z</time>
      </trkpt>
      <trkpt lat="44.19736" lon="0.60844">
        <ele>52</ele>
        <time>2026-02-22T15:15:40.188Z</time>
      </trkpt>
      <trkpt lat="44.19737" lon="0.60843">
        <ele>52</ele>
        <time>2026-02-22T15:15:41.188Z</time>
      </trkpt>
      <trkpt lat="44.19738" lon="0.60843">
        <ele>52</ele>
        <time>2026-02-22T15:15:42.188Z</time>
      </trkpt>
      <trkpt lat="44.1974" lon="0.60843">
        <ele>52</ele>
        <time>2026-02-22T15:15:43.188Z</time>
      </trkpt>
      <trkpt lat="44.19741" lon="0.60842">
        <ele>53</ele>
        <time>2026-02-22T15:15:44.188Z</time>
      </trkpt>
      <trkpt lat="44.19742" lon="0.60842">
        <ele>53</ele>
        <time>2026-02-22T15:15:45.189Z</time>
      </trkpt>
      <trkpt lat="44.19743" lon="0.60842">
        <ele>53</ele>
        <time>2026-02-22T15:15:46.188Z</time>
      </trkpt>
      <trkpt lat="44.19744" lon="0.60841">
        <ele>52</ele>
        <time>2026-02-22T15:15:47.188Z</time>
      </trkpt>
      <trkpt lat="44.19745" lon="0.60841">
        <ele>52</ele>
        <time>2026-02-22T15:15:48.188Z</time>
      </trkpt>
      <trkpt lat="44.19746" lon="0.60841">
        <ele>52</ele>
        <time>2026-02-22T15:15:49.188Z</time>
      </trkpt>
      <trkpt lat="44.19748" lon="0.60841">
        <ele>52</ele>
        <time>2026-02-22T15:15:50.188Z</time>
      </trkpt>
      <trkpt lat="44.19749" lon="0.60841">
        <ele>52</ele>
        <time>2026-02-22T15:15:51.188Z</time>
      </trkpt>
      <trkpt lat="44.1975" lon="0.60841">
        <ele>51</ele>
        <time>2026-02-22T15:15:52.188Z</time>
      </trkpt>
      <trkpt lat="44.19751" lon="0.60841">
        <ele>51</ele>
        <time>2026-02-22T15:15:53.188Z</time>
      </trkpt>
      <trkpt lat="44.19752" lon="0.6084">
        <ele>51</ele>
        <time>2026-02-22T15:15:54.188Z</time>
      </trkpt>
      <trkpt lat="44.19753" lon="0.60839">
        <ele>51</ele>
        <time>2026-02-22T15:15:55.188Z</time>
      </trkpt>
      <trkpt lat="44.19753" lon="0.60839">
        <ele>51</ele>
        <time>2026-02-22T15:15:56.188Z</time>
      </trkpt>
      <trkpt lat="44.19753" lon="0.60838">
        <ele>51</ele>
        <time>2026-02-22T15:15:57.188Z</time>
      </trkpt>
      <trkpt lat="44.19753" lon="0.60838">
        <ele>51</ele>
        <time>2026-02-22T15:15:58.189Z</time>
      </trkpt>
      <trkpt lat="44.19753" lon="0.60837">
        <ele>51</ele>
        <time>2026-02-22T15:15:59.188Z</time>
      </trkpt>
      <trkpt lat="44.19753" lon="0.60836">
        <ele>50</ele>
        <time>2026-02-22T15:16:00.188Z</time>
      </trkpt>
      <trkpt lat="44.19753" lon="0.60835">
        <ele>50</ele>
        <time>2026-02-22T15:16:01.188Z</time>
      </trkpt>
      <trkpt lat="44.19753" lon="0.60834">
        <ele>50</ele>
        <time>2026-02-22T15:16:02.188Z</time>
      </trkpt>
      <trkpt lat="44.19753" lon="0.60832">
        <ele>49</ele>
        <time>2026-02-22T15:16:03.188Z</time>
      </trkpt>
      <trkpt lat="44.19753" lon="0.60831">
        <ele>49</ele>
        <time>2026-02-22T15:16:04.188Z</time>
      </trkpt>
      <trkpt lat="44.19753" lon="0.60829">
        <ele>48</ele>
        <time>2026-02-22T15:16:05.188Z</time>
      </trkpt>
      <trkpt lat="44.19753" lon="0.60828">
        <ele>48</ele>
        <time>2026-02-22T15:16:06.188Z</time>
      </trkpt>
      <trkpt lat="44.19753" lon="0.60826">
        <ele>48</ele>
        <time>2026-02-22T15:16:07.188Z</time>
      </trkpt>
      <trkpt lat="44.19753" lon="0.60824">
        <ele>47</ele>
        <time>2026-02-22T15:16:08.189Z</time>
      </trkpt>
      <trkpt lat="44.19753" lon="0.60822">
        <ele>47</ele>
        <time>2026-02-22T15:16:09.189Z</time>
      </trkpt>
      <trkpt lat="44.19753" lon="0.6082">
        <ele>47</ele>
        <time>2026-02-22T15:16:10.189Z</time>
      </trkpt>
      <trkpt lat="44.19754" lon="0.60819">
        <ele>47</ele>
        <time>2026-02-22T15:16:11.188Z</time>
      </trkpt>
      <trkpt lat="44.19754" lon="0.60817">
        <ele>47</ele>
        <time>2026-02-22T15:16:12.188Z</time>
      </trkpt>
      <trkpt lat="44.19755" lon="0.60816">
        <ele>47</ele>
        <time>2026-02-22T15:16:13.188Z</time>
      </trkpt>
      <trkpt lat="44.19756" lon="0.60816">
        <ele>47</ele>
        <time>2026-02-22T15:16:14.188Z</time>
      </trkpt>
      <trkpt lat="44.19756" lon="0.60815">
        <ele>47</ele>
        <time>2026-02-22T15:16:15.188Z</time>
      </trkpt>
      <trkpt lat="44.19758" lon="0.60814">
        <ele>47</ele>
        <time>2026-02-22T15:16:16.188Z</time>
      </trkpt>
      <trkpt lat="44.19759" lon="0.60814">
        <ele>48</ele>
        <time>2026-02-22T15:16:17.188Z</time>
      </trkpt>
      <trkpt lat="44.1976" lon="0.60813">
        <ele>48</ele>
        <time>2026-02-22T15:16:18.188Z</time>
      </trkpt>
      <trkpt lat="44.19761" lon="0.60813">
        <ele>48</ele>
        <time>2026-02-22T15:16:19.188Z</time>
      </trkpt>
      <trkpt lat="44.19762" lon="0.60812">
        <ele>49</ele>
        <time>2026-02-22T15:16:20.188Z</time>
      </trkpt>
      <trkpt lat="44.19763" lon="0.60812">
        <ele>49</ele>
        <time>2026-02-22T15:16:21.188Z</time>
      </trkpt>
      <trkpt lat="44.19764" lon="0.60812">
        <ele>49</ele>
        <time>2026-02-22T15:16:22.188Z</time>
      </trkpt>
      <trkpt lat="44.19765" lon="0.60812">
        <ele>49</ele>
        <time>2026-02-22T15:16:23.188Z</time>
      </trkpt>
      <trkpt lat="44.19767" lon="0.60812">
        <ele>50</ele>
        <time>2026-02-22T15:16:24.188Z</time>
      </trkpt>
      <trkpt lat="44.19768" lon="0.60811">
        <ele>50</ele>
        <time>2026-02-22T15:16:25.188Z</time>
      </trkpt>
      <trkpt lat="44.19769" lon="0.60811">
        <ele>50</ele>
        <time>2026-02-22T15:16:26.188Z</time>
      </trkpt>
      <trkpt lat="44.1977" lon="0.6081">
        <ele>50</ele>
        <time>2026-02-22T15:16:27.188Z</time>
      </trkpt>
      <trkpt lat="44.19771" lon="0.6081">
        <ele>50</ele>
        <time>2026-02-22T15:16:28.189Z</time>
      </trkpt>
      <trkpt lat="44.19772" lon="0.60809">
        <ele>50</ele>
        <time>2026-02-22T15:16:29.188Z</time>
      </trkpt>
      <trkpt lat="44.19774" lon="0.60809">
        <ele>50</ele>
        <time>2026-02-22T15:16:30.188Z</time>
      </trkpt>
      <trkpt lat="44.19775" lon="0.60808">
        <ele>51</ele>
        <time>2026-02-22T15:16:31.188Z</time>
      </trkpt>
      <trkpt lat="44.19776" lon="0.60808">
        <ele>51</ele>
        <time>2026-02-22T15:16:32.188Z</time>
      </trkpt>
      <trkpt lat="44.19777" lon="0.60807">
        <ele>51</ele>
        <time>2026-02-22T15:16:33.188Z</time>
      </trkpt>
      <trkpt lat="44.19778" lon="0.60807">
        <ele>52</ele>
        <time>2026-02-22T15:16:34.188Z</time>
      </trkpt>
      <trkpt lat="44.1978" lon="0.60807">
        <ele>52</ele>
        <time>2026-02-22T15:16:35.188Z</time>
      </trkpt>
      <trkpt lat="44.19781" lon="0.60807">
        <ele>53</ele>
        <time>2026-02-22T15:16:36.188Z</time>
      </trkpt>
      <trkpt lat="44.19782" lon="0.60807">
        <ele>53</ele>
        <time>2026-02-22T15:16:37.188Z</time>
      </trkpt>
      <trkpt lat="44.19784" lon="0.60807">
        <ele>53</ele>
        <time>2026-02-22T15:16:38.188Z</time>
      </trkpt>
      <trkpt lat="44.19785" lon="0.60807">
        <ele>53</ele>
        <time>2026-02-22T15:16:39.188Z</time>
      </trkpt>
      <trkpt lat="44.19786" lon="0.60806">
        <ele>53</ele>
        <time>2026-02-22T15:16:40.188Z</time>
      </trkpt>
      <trkpt lat="44.19787" lon="0.60806">
        <ele>53</ele>
        <time>2026-02-22T15:16:41.188Z</time>
      </trkpt>
      <trkpt lat="44.19789" lon="0.60806">
        <ele>53</ele>
        <time>2026-02-22T15:16:42.188Z</time>
      </trkpt>
      <trkpt lat="44.1979" lon="0.60807">
        <ele>53</ele>
        <time>2026-02-22T15:16:43.188Z</time>
      </trkpt>
      <trkpt lat="44.19791" lon="0.60807">
        <ele>53</ele>
        <time>2026-02-22T15:16:44.188Z</time>
      </trkpt>
      <trkpt lat="44.19792" lon="0.60808">
        <ele>52</ele>
        <time>2026-02-22T15:16:45.188Z</time>
      </trkpt>
      <trkpt lat="44.19794" lon="0.60808">
        <ele>52</ele>
        <time>2026-02-22T15:16:46.189Z</time>
      </trkpt>
      <trkpt lat="44.19795" lon="0.60809">
        <ele>51</ele>
        <time>2026-02-22T15:16:47.189Z</time>
      </trkpt>
      <trkpt lat="44.19796" lon="0.6081">
        <ele>51</ele>
        <time>2026-02-22T15:16:48.188Z</time>
      </trkpt>
      <trkpt lat="44.19798" lon="0.6081">
        <ele>51</ele>
        <time>2026-02-22T15:16:49.188Z</time>
      </trkpt>
      <trkpt lat="44.19799" lon="0.60811">
        <ele>50</ele>
        <time>2026-02-22T15:16:50.188Z</time>
      </trkpt>
      <trkpt lat="44.198" lon="0.60812">
        <ele>50</ele>
        <time>2026-02-22T15:16:51.188Z</time>
      </trkpt>
      <trkpt lat="44.19801" lon="0.60812">
        <ele>50</ele>
        <time>2026-02-22T15:16:52.188Z</time>
      </trkpt>
      <trkpt lat="44.19802" lon="0.60813">
        <ele>49</ele>
        <time>2026-02-22T15:16:53.188Z</time>
      </trkpt>
      <trkpt lat="44.19804" lon="0.60813">
        <ele>49</ele>
        <time>2026-02-22T15:16:54.188Z</time>
      </trkpt>
      <trkpt lat="44.19805" lon="0.60814">
        <ele>49</ele>
        <time>2026-02-22T15:16:55.188Z</time>
      </trkpt>
      <trkpt lat="44.19806" lon="0.60814">
        <ele>49</ele>
        <time>2026-02-22T15:16:56.188Z</time>
      </trkpt>
      <trkpt lat="44.19807" lon="0.60814">
        <ele>49</ele>
        <time>2026-02-22T15:16:57.188Z</time>
      </trkpt>
      <trkpt lat="44.19808" lon="0.60815">
        <ele>50</ele>
        <time>2026-02-22T15:16:58.189Z</time>
      </trkpt>
      <trkpt lat="44.1981" lon="0.60815">
        <ele>50</ele>
        <time>2026-02-22T15:16:59.188Z</time>
      </trkpt>
      <trkpt lat="44.19811" lon="0.60815">
        <ele>50</ele>
        <time>2026-02-22T15:17:00.188Z</time>
      </trkpt>
      <trkpt lat="44.19812" lon="0.60815">
        <ele>49</ele>
        <time>2026-02-22T15:17:01.188Z</time>
      </trkpt>
      <trkpt lat="44.19813" lon="0.60815">
        <ele>49</ele>
        <time>2026-02-22T15:17:02.188Z</time>
      </trkpt>
      <trkpt lat="44.19814" lon="0.60815">
        <ele>49</ele>
        <time>2026-02-22T15:17:03.188Z</time>
      </trkpt>
      <trkpt lat="44.19815" lon="0.60815">
        <ele>49</ele>
        <time>2026-02-22T15:17:04.188Z</time>
      </trkpt>
      <trkpt lat="44.19817" lon="0.60815">
        <ele>49</ele>
        <time>2026-02-22T15:17:05.188Z</time>
      </trkpt>
      <trkpt lat="44.19818" lon="0.60815">
        <ele>49</ele>
        <time>2026-02-22T15:17:06.188Z</time>
      </trkpt>
      <trkpt lat="44.19819" lon="0.60815">
        <ele>48</ele>
        <time>2026-02-22T15:17:07.188Z</time>
      </trkpt>
      <trkpt lat="44.1982" lon="0.60815">
        <ele>48</ele>
        <time>2026-02-22T15:17:08.188Z</time>
      </trkpt>
      <trkpt lat="44.19821" lon="0.60815">
        <ele>47</ele>
        <time>2026-02-22T15:17:09.188Z</time>
      </trkpt>
      <trkpt lat="44.19822" lon="0.60815">
        <ele>47</ele>
        <time>2026-02-22T15:17:10.188Z</time>
      </trkpt>
      <trkpt lat="44.19823" lon="0.60814">
        <ele>47</ele>
        <time>2026-02-22T15:17:11.188Z</time>
      </trkpt>
      <trkpt lat="44.19824" lon="0.60813">
        <ele>47</ele>
        <time>2026-02-22T15:17:12.188Z</time>
      </trkpt>
      <trkpt lat="44.19825" lon="0.60812">
        <ele>47</ele>
        <time>2026-02-22T15:17:13.188Z</time>
      </trkpt>
      <trkpt lat="44.19826" lon="0.60811">
        <ele>47</ele>
        <time>2026-02-22T15:17:14.188Z</time>
      </trkpt>
      <trkpt lat="44.19827" lon="0.6081">
        <ele>47</ele>
        <time>2026-02-22T15:17:15.188Z</time>
      </trkpt>
      <trkpt lat="44.19828" lon="0.6081">
        <ele>47</ele>
        <time>2026-02-22T15:17:16.188Z</time>
      </trkpt>
      <trkpt lat="44.1983" lon="0.60809">
        <ele>47</ele>
        <time>2026-02-22T15:17:17.188Z</time>
      </trkpt>
      <trkpt lat="44.19831" lon="0.60809">
        <ele>47</ele>
        <time>2026-02-22T15:17:18.188Z</time>
      </trkpt>
      <trkpt lat="44.19832" lon="0.60809">
        <ele>47</ele>
        <time>2026-02-22T15:17:19.188Z</time>
      </trkpt>
      <trkpt lat="44.19833" lon="0.60808">
        <ele>47</ele>
        <time>2026-02-22T15:17:20.188Z</time>
      </trkpt>
      <trkpt lat="44.19834" lon="0.60808">
        <ele>48</ele>
        <time>2026-02-22T15:17:21.188Z</time>
      </trkpt>
      <trkpt lat="44.19835" lon="0.60807">
        <ele>48</ele>
        <time>2026-02-22T15:17:22.189Z</time>
      </trkpt>
      <trkpt lat="44.19836" lon="0.60806">
        <ele>48</ele>
        <time>2026-02-22T15:17:23.189Z</time>
      </trkpt>
      <trkpt lat="44.19838" lon="0.60806">
        <ele>48</ele>
        <time>2026-02-22T15:17:24.188Z</time>
      </trkpt>
      <trkpt lat="44.19839" lon="0.60805">
        <ele>48</ele>
        <time>2026-02-22T15:17:25.188Z</time>
      </trkpt>
      <trkpt lat="44.1984" lon="0.60804">
        <ele>49</ele>
        <time>2026-02-22T15:17:26.189Z</time>
      </trkpt>
      <trkpt lat="44.19841" lon="0.60804">
        <ele>49</ele>
        <time>2026-02-22T15:17:27.188Z</time>
      </trkpt>
      <trkpt lat="44.19842" lon="0.60804">
        <ele>48</ele>
        <time>2026-02-22T15:17:28.188Z</time>
      </trkpt>
      <trkpt lat="44.19844" lon="0.60803">
        <ele>48</ele>
        <time>2026-02-22T15:17:29.188Z</time>
      </trkpt>
      <trkpt lat="44.19845" lon="0.60802">
        <ele>48</ele>
        <time>2026-02-22T15:17:30.188Z</time>
      </trkpt>
      <trkpt lat="44.19846" lon="0.60801">
        <ele>48</ele>
        <time>2026-02-22T15:17:31.188Z</time>
      </trkpt>
      <trkpt lat="44.19847" lon="0.60801">
        <ele>48</ele>
        <time>2026-02-22T15:17:32.188Z</time>
      </trkpt>
      <trkpt lat="44.19848" lon="0.608">
        <ele>48</ele>
        <time>2026-02-22T15:17:33.188Z</time>
      </trkpt>
      <trkpt lat="44.19849" lon="0.60798">
        <ele>48</ele>
        <time>2026-02-22T15:17:34.188Z</time>
      </trkpt>
      <trkpt lat="44.1985" lon="0.60797">
        <ele>48</ele>
        <time>2026-02-22T15:17:35.188Z</time>
      </trkpt>
      <trkpt lat="44.1985" lon="0.60796">
        <ele>49</ele>
        <time>2026-02-22T15:17:36.188Z</time>
      </trkpt>
      <trkpt lat="44.1985" lon="0.60794">
        <ele>48</ele>
        <time>2026-02-22T15:17:37.188Z</time>
      </trkpt>
      <trkpt lat="44.19851" lon="0.60793">
        <ele>48</ele>
        <time>2026-02-22T15:17:38.188Z</time>
      </trkpt>
      <trkpt lat="44.19851" lon="0.60791">
        <ele>48</ele>
        <time>2026-02-22T15:17:39.188Z</time>
      </trkpt>
      <trkpt lat="44.19851" lon="0.60789">
        <ele>47</ele>
        <time>2026-02-22T15:17:40.188Z</time>
      </trkpt>
      <trkpt lat="44.19852" lon="0.60787">
        <ele>47</ele>
        <time>2026-02-22T15:17:41.188Z</time>
      </trkpt>
      <trkpt lat="44.19852" lon="0.60786">
        <ele>47</ele>
        <time>2026-02-22T15:17:42.188Z</time>
      </trkpt>
      <trkpt lat="44.19853" lon="0.60784">
        <ele>47</ele>
        <time>2026-02-22T15:17:43.188Z</time>
      </trkpt>
      <trkpt lat="44.19853" lon="0.60782">
        <ele>47</ele>
        <time>2026-02-22T15:17:44.188Z</time>
      </trkpt>
      <trkpt lat="44.19853" lon="0.60781">
        <ele>47</ele>
        <time>2026-02-22T15:17:45.188Z</time>
      </trkpt>
      <trkpt lat="44.19854" lon="0.60779">
        <ele>48</ele>
        <time>2026-02-22T15:17:46.188Z</time>
      </trkpt>
      <trkpt lat="44.19854" lon="0.60778">
        <ele>48</ele>
        <time>2026-02-22T15:17:47.188Z</time>
      </trkpt>
      <trkpt lat="44.19854" lon="0.60776">
        <ele>48</ele>
        <time>2026-02-22T15:17:48.188Z</time>
      </trkpt>
      <trkpt lat="44.19855" lon="0.60774">
        <ele>47</ele>
        <time>2026-02-22T15:17:49.188Z</time>
      </trkpt>
      <trkpt lat="44.19855" lon="0.60773">
        <ele>47</ele>
        <time>2026-02-22T15:17:50.188Z</time>
      </trkpt>
      <trkpt lat="44.19856" lon="0.60771">
        <ele>47</ele>
        <time>2026-02-22T15:17:51.188Z</time>
      </trkpt>
      <trkpt lat="44.19856" lon="0.6077">
        <ele>47</ele>
        <time>2026-02-22T15:17:52.188Z</time>
      </trkpt>
      <trkpt lat="44.19857" lon="0.60768">
        <ele>47</ele>
        <time>2026-02-22T15:17:53.188Z</time>
      </trkpt>
      <trkpt lat="44.19857" lon="0.60767">
        <ele>47</ele>
        <time>2026-02-22T15:17:54.189Z</time>
      </trkpt>
      <trkpt lat="44.19858" lon="0.60766">
        <ele>46</ele>
        <time>2026-02-22T15:17:55.188Z</time>
      </trkpt>
      <trkpt lat="44.19858" lon="0.60764">
        <ele>46</ele>
        <time>2026-02-22T15:17:56.189Z</time>
      </trkpt>
      <trkpt lat="44.19858" lon="0.60762">
        <ele>47</ele>
        <time>2026-02-22T15:17:57.188Z</time>
      </trkpt>
      <trkpt lat="44.19859" lon="0.6076">
        <ele>47</ele>
        <time>2026-02-22T15:17:58.188Z</time>
      </trkpt>
      <trkpt lat="44.19859" lon="0.60759">
        <ele>47</ele>
        <time>2026-02-22T15:17:59.188Z</time>
      </trkpt>
      <trkpt lat="44.1986" lon="0.60757">
        <ele>47</ele>
        <time>2026-02-22T15:18:00.189Z</time>
      </trkpt>
      <trkpt lat="44.1986" lon="0.60756">
        <ele>47</ele>
        <time>2026-02-22T15:18:01.188Z</time>
      </trkpt>
      <trkpt lat="44.19861" lon="0.60754">
        <ele>47</ele>
        <time>2026-02-22T15:18:02.188Z</time>
      </trkpt>
      <trkpt lat="44.19861" lon="0.60753">
        <ele>47</ele>
        <time>2026-02-22T15:18:03.188Z</time>
      </trkpt>
      <trkpt lat="44.19861" lon="0.60751">
        <ele>47</ele>
        <time>2026-02-22T15:18:04.188Z</time>
      </trkpt>
      <trkpt lat="44.19861" lon="0.6075">
        <ele>47</ele>
        <time>2026-02-22T15:18:05.188Z</time>
      </trkpt>
      <trkpt lat="44.19862" lon="0.60748">
        <ele>47</ele>
        <time>2026-02-22T15:18:06.189Z</time>
      </trkpt>
      <trkpt lat="44.19862" lon="0.60746">
        <ele>47</ele>
        <time>2026-02-22T15:18:07.188Z</time>
      </trkpt>
      <trkpt lat="44.19863" lon="0.60745">
        <ele>47</ele>
        <time>2026-02-22T15:18:08.188Z</time>
      </trkpt>
      <trkpt lat="44.19863" lon="0.60743">
        <ele>47</ele>
        <time>2026-02-22T15:18:09.188Z</time>
      </trkpt>
      <trkpt lat="44.19863" lon="0.60742">
        <ele>46</ele>
        <time>2026-02-22T15:18:10.188Z</time>
      </trkpt>
      <trkpt lat="44.19864" lon="0.60741">
        <ele>46</ele>
        <time>2026-02-22T15:18:11.189Z</time>
      </trkpt>
      <trkpt lat="44.19864" lon="0.6074">
        <ele>46</ele>
        <time>2026-02-22T15:18:12.188Z</time>
      </trkpt>
      <trkpt lat="44.19865" lon="0.60738">
        <ele>46</ele>
        <time>2026-02-22T15:18:13.188Z</time>
      </trkpt>
      <trkpt lat="44.19865" lon="0.60736">
        <ele>46</ele>
        <time>2026-02-22T15:18:14.188Z</time>
      </trkpt>
      <trkpt lat="44.19866" lon="0.60735">
        <ele>46</ele>
        <time>2026-02-22T15:18:15.188Z</time>
      </trkpt>
      <trkpt lat="44.19866" lon="0.60733">
        <ele>46</ele>
        <time>2026-02-22T15:18:16.188Z</time>
      </trkpt>
      <trkpt lat="44.19866" lon="0.60731">
        <ele>46</ele>
        <time>2026-02-22T15:18:17.188Z</time>
      </trkpt>
      <trkpt lat="44.19867" lon="0.6073">
        <ele>46</ele>
        <time>2026-02-22T15:18:18.188Z</time>
      </trkpt>
      <trkpt lat="44.19867" lon="0.60729">
        <ele>46</ele>
        <time>2026-02-22T15:18:19.188Z</time>
      </trkpt>
      <trkpt lat="44.19868" lon="0.60727">
        <ele>46</ele>
        <time>2026-02-22T15:18:20.188Z</time>
      </trkpt>
      <trkpt lat="44.19868" lon="0.60726">
        <ele>46</ele>
        <time>2026-02-22T15:18:21.188Z</time>
      </trkpt>
      <trkpt lat="44.19868" lon="0.60724">
        <ele>47</ele>
        <time>2026-02-22T15:18:22.188Z</time>
      </trkpt>
      <trkpt lat="44.19869" lon="0.60722">
        <ele>47</ele>
        <time>2026-02-22T15:18:23.188Z</time>
      </trkpt>
      <trkpt lat="44.19869" lon="0.60721">
        <ele>47</ele>
        <time>2026-02-22T15:18:24.189Z</time>
      </trkpt>
      <trkpt lat="44.1987" lon="0.60719">
        <ele>47</ele>
        <time>2026-02-22T15:18:25.188Z</time>
      </trkpt>
      <trkpt lat="44.1987" lon="0.60718">
        <ele>47</ele>
        <time>2026-02-22T15:18:26.188Z</time>
      </trkpt>
      <trkpt lat="44.1987" lon="0.60716">
        <ele>47</ele>
        <time>2026-02-22T15:18:27.188Z</time>
      </trkpt>
      <trkpt lat="44.19871" lon="0.60715">
        <ele>47</ele>
        <time>2026-02-22T15:18:28.188Z</time>
      </trkpt>
      <trkpt lat="44.19871" lon="0.60713">
        <ele>47</ele>
        <time>2026-02-22T15:18:29.188Z</time>
      </trkpt>
      <trkpt lat="44.19871" lon="0.60712">
        <ele>47</ele>
        <time>2026-02-22T15:18:30.188Z</time>
      </trkpt>
      <trkpt lat="44.19872" lon="0.6071">
        <ele>47</ele>
        <time>2026-02-22T15:18:31.188Z</time>
      </trkpt>
      <trkpt lat="44.19872" lon="0.60709">
        <ele>47</ele>
        <time>2026-02-22T15:18:32.188Z</time>
      </trkpt>
      <trkpt lat="44.19872" lon="0.60708">
        <ele>47</ele>
        <time>2026-02-22T15:18:33.188Z</time>
      </trkpt>
      <trkpt lat="44.19873" lon="0.60706">
        <ele>47</ele>
        <time>2026-02-22T15:18:34.188Z</time>
      </trkpt>
      <trkpt lat="44.19873" lon="0.60705">
        <ele>47</ele>
        <time>2026-02-22T15:18:35.188Z</time>
      </trkpt>
      <trkpt lat="44.19873" lon="0.60704">
        <ele>47</ele>
        <time>2026-02-22T15:18:36.189Z</time>
      </trkpt>
      <trkpt lat="44.19874" lon="0.60702">
        <ele>47</ele>
        <time>2026-02-22T15:18:37.188Z</time>
      </trkpt>
      <trkpt lat="44.19874" lon="0.607">
        <ele>47</ele>
        <time>2026-02-22T15:18:38.188Z</time>
      </trkpt>
      <trkpt lat="44.19875" lon="0.60699">
        <ele>47</ele>
        <time>2026-02-22T15:18:39.189Z</time>
      </trkpt>
      <trkpt lat="44.19876" lon="0.60697">
        <ele>47</ele>
        <time>2026-02-22T15:18:40.188Z</time>
      </trkpt>
      <trkpt lat="44.19876" lon="0.60696">
        <ele>47</ele>
        <time>2026-02-22T15:18:41.188Z</time>
      </trkpt>
      <trkpt lat="44.19878" lon="0.60695">
        <ele>47</ele>
        <time>2026-02-22T15:18:42.188Z</time>
      </trkpt>
      <trkpt lat="44.19879" lon="0.60695">
        <ele>48</ele>
        <time>2026-02-22T15:18:43.188Z</time>
      </trkpt>
      <trkpt lat="44.1988" lon="0.60694">
        <ele>48</ele>
        <time>2026-02-22T15:18:44.188Z</time>
      </trkpt>
      <trkpt lat="44.19881" lon="0.60694">
        <ele>48</ele>
        <time>2026-02-22T15:18:45.188Z</time>
      </trkpt>
      <trkpt lat="44.19882" lon="0.60694">
        <ele>48</ele>
        <time>2026-02-22T15:18:46.188Z</time>
      </trkpt>
      <trkpt lat="44.19884" lon="0.60694">
        <ele>48</ele>
        <time>2026-02-22T15:18:47.188Z</time>
      </trkpt>
      <trkpt lat="44.19885" lon="0.60694">
        <ele>48</ele>
        <time>2026-02-22T15:18:48.188Z</time>
      </trkpt>
      <trkpt lat="44.19886" lon="0.60695">
        <ele>48</ele>
        <time>2026-02-22T15:18:49.188Z</time>
      </trkpt>
      <trkpt lat="44.19887" lon="0.60696">
        <ele>47</ele>
        <time>2026-02-22T15:18:50.188Z</time>
      </trkpt>
      <trkpt lat="44.19888" lon="0.60696">
        <ele>47</ele>
        <time>2026-02-22T15:18:51.188Z</time>
      </trkpt>
      <trkpt lat="44.1989" lon="0.60697">
        <ele>47</ele>
        <time>2026-02-22T15:18:52.189Z</time>
      </trkpt>
      <trkpt lat="44.19891" lon="0.60697">
        <ele>47</ele>
        <time>2026-02-22T15:18:53.188Z</time>
      </trkpt>
      <trkpt lat="44.19892" lon="0.60698">
        <ele>47</ele>
        <time>2026-02-22T15:18:54.189Z</time>
      </trkpt>
      <trkpt lat="44.19893" lon="0.60698">
        <ele>47</ele>
        <time>2026-02-22T15:18:55.188Z</time>
      </trkpt>
      <trkpt lat="44.19893" lon="0.60698">
        <ele>47</ele>
        <time>2026-02-22T15:18:56.188Z</time>
      </trkpt>
      <trkpt lat="44.19893" lon="0.60697">
        <ele>47</ele>
        <time>2026-02-22T15:18:57.188Z</time>
      </trkpt>
      <trkpt lat="44.19893" lon="0.60697">
        <ele>47</ele>
        <time>2026-02-22T15:18:58.188Z</time>
      </trkpt>
      <trkpt lat="44.19893" lon="0.60697">
        <ele>47</ele>
        <time>2026-02-22T15:18:59.188Z</time>
      </trkpt>
      <trkpt lat="44.19893" lon="0.60697">
        <ele>47</ele>
        <time>2026-02-22T15:19:00.188Z</time>
      </trkpt>
      <trkpt lat="44.19893" lon="0.60697">
        <ele>47</ele>
        <time>2026-02-22T15:19:01.188Z</time>
      </trkpt>
      <trkpt lat="44.19893" lon="0.60697">
        <ele>47</ele>
        <time>2026-02-22T15:19:02.188Z</time>
      </trkpt>
      <trkpt lat="44.19893" lon="0.60697">
        <ele>47</ele>
        <time>2026-02-22T15:19:03.188Z</time>
      </trkpt>
      <trkpt lat="44.19893" lon="0.60697">
        <ele>47</ele>
        <time>2026-02-22T15:19:04.188Z</time>
      </trkpt>
      <trkpt lat="44.19893" lon="0.60697">
        <ele>47</ele>
        <time>2026-02-22T15:19:05.188Z</time>
      </trkpt>
      <trkpt lat="44.19893" lon="0.60697">
        <ele>47</ele>
        <time>2026-02-22T15:19:06.188Z</time>
      </trkpt>
      <trkpt lat="44.19893" lon="0.60698">
        <ele>47</ele>
        <time>2026-02-22T15:19:07.188Z</time>
      </trkpt>
      <trkpt lat="44.19893" lon="0.60698">
        <ele>47</ele>
        <time>2026-02-22T15:19:08.188Z</time>
      </trkpt>
      <trkpt lat="44.19893" lon="0.60698">
        <ele>47</ele>
        <time>2026-02-22T15:19:09.188Z</time>
      </trkpt>
      <trkpt lat="44.19893" lon="0.60698">
        <ele>47</ele>
        <time>2026-02-22T15:19:10.188Z</time>
      </trkpt>
      <trkpt lat="44.19893" lon="0.60698">
        <ele>47</ele>
        <time>2026-02-22T15:19:11.188Z</time>
      </trkpt>
      <trkpt lat="44.19893" lon="0.60698">
        <ele>47</ele>
        <time>2026-02-22T15:19:12.189Z</time>
      </trkpt>
      <trkpt lat="44.19893" lon="0.60698">
        <ele>47</ele>
        <time>2026-02-22T15:19:13.188Z</time>
      </trkpt>
      <trkpt lat="44.19893" lon="0.60698">
        <ele>47</ele>
        <time>2026-02-22T15:19:14.189Z</time>
      </trkpt>
      <trkpt lat="44.19893" lon="0.60698">
        <ele>47</ele>
        <time>2026-02-22T15:19:15.188Z</time>
      </trkpt>
      <trkpt lat="44.19893" lon="0.60698">
        <ele>46</ele>
        <time>2026-02-22T15:19:16.188Z</time>
      </trkpt>
      <trkpt lat="44.19894" lon="0.60698">
        <ele>46</ele>
        <time>2026-02-22T15:19:17.188Z</time>
      </trkpt>
      <trkpt lat="44.19894" lon="0.60699">
        <ele>46</ele>
        <time>2026-02-22T15:19:18.188Z</time>
      </trkpt>
      <trkpt lat="44.19895" lon="0.60699">
        <ele>46</ele>
        <time>2026-02-22T15:19:19.188Z</time>
      </trkpt>
      <trkpt lat="44.19896" lon="0.607">
        <ele>46</ele>
        <time>2026-02-22T15:19:20.188Z</time>
      </trkpt>
      <trkpt lat="44.19897" lon="0.607">
        <ele>46</ele>
        <time>2026-02-22T15:19:21.188Z</time>
      </trkpt>
      <trkpt lat="44.19898" lon="0.60701">
        <ele>46</ele>
        <time>2026-02-22T15:19:22.189Z</time>
      </trkpt>
      <trkpt lat="44.19899" lon="0.60702">
        <ele>45</ele>
        <time>2026-02-22T15:19:23.188Z</time>
      </trkpt>
      <trkpt lat="44.199" lon="0.60702">
        <ele>45</ele>
        <time>2026-02-22T15:19:24.188Z</time>
      </trkpt>
      <trkpt lat="44.19902" lon="0.60703">
        <ele>45</ele>
        <time>2026-02-22T15:19:25.188Z</time>
      </trkpt>
      <trkpt lat="44.19903" lon="0.60704">
        <ele>45</ele>
        <time>2026-02-22T15:19:26.188Z</time>
      </trkpt>
      <trkpt lat="44.19904" lon="0.60704">
        <ele>45</ele>
        <time>2026-02-22T15:19:27.188Z</time>
      </trkpt>
      <trkpt lat="44.19905" lon="0.60705">
        <ele>45</ele>
        <time>2026-02-22T15:19:28.188Z</time>
      </trkpt>
      <trkpt lat="44.19906" lon="0.60705">
        <ele>45</ele>
        <time>2026-02-22T15:19:29.188Z</time>
      </trkpt>
      <trkpt lat="44.19907" lon="0.60706">
        <ele>45</ele>
        <time>2026-02-22T15:19:30.188Z</time>
      </trkpt>
      <trkpt lat="44.19909" lon="0.60706">
        <ele>45</ele>
        <time>2026-02-22T15:19:31.188Z</time>
      </trkpt>
      <trkpt lat="44.1991" lon="0.60707">
        <ele>45</ele>
        <time>2026-02-22T15:19:32.188Z</time>
      </trkpt>
      <trkpt lat="44.19911" lon="0.60707">
        <ele>46</ele>
        <time>2026-02-22T15:19:33.188Z</time>
      </trkpt>
      <trkpt lat="44.19912" lon="0.60708">
        <ele>46</ele>
        <time>2026-02-22T15:19:34.188Z</time>
      </trkpt>
      <trkpt lat="44.19913" lon="0.60708">
        <ele>46</ele>
        <time>2026-02-22T15:19:35.188Z</time>
      </trkpt>
      <trkpt lat="44.19914" lon="0.60708">
        <ele>46</ele>
        <time>2026-02-22T15:19:36.188Z</time>
      </trkpt>
      <trkpt lat="44.19915" lon="0.60708">
        <ele>47</ele>
        <time>2026-02-22T15:19:37.188Z</time>
      </trkpt>
      <trkpt lat="44.19915" lon="0.60707">
        <ele>47</ele>
        <time>2026-02-22T15:19:38.188Z</time>
      </trkpt>
      <trkpt lat="44.19916" lon="0.60705">
        <ele>46</ele>
        <time>2026-02-22T15:19:39.189Z</time>
      </trkpt>
      <trkpt lat="44.19916" lon="0.60703">
        <ele>46</ele>
        <time>2026-02-22T15:19:40.188Z</time>
      </trkpt>
      <trkpt lat="44.19917" lon="0.60702">
        <ele>46</ele>
        <time>2026-02-22T15:19:41.188Z</time>
      </trkpt>
      <trkpt lat="44.19917" lon="0.607">
        <ele>46</ele>
        <time>2026-02-22T15:19:42.188Z</time>
      </trkpt>
      <trkpt lat="44.19918" lon="0.60699">
        <ele>46</ele>
        <time>2026-02-22T15:19:43.188Z</time>
      </trkpt>
      <trkpt lat="44.19918" lon="0.60697">
        <ele>46</ele>
        <time>2026-02-22T15:19:44.188Z</time>
      </trkpt>
      <trkpt lat="44.19919" lon="0.60696">
        <ele>46</ele>
        <time>2026-02-22T15:19:45.188Z</time>
      </trkpt>
      <trkpt lat="44.19919" lon="0.60694">
        <ele>46</ele>
        <time>2026-02-22T15:19:46.188Z</time>
      </trkpt>
      <trkpt lat="44.19919" lon="0.60693">
        <ele>46</ele>
        <time>2026-02-22T15:19:47.188Z</time>
      </trkpt>
      <trkpt lat="44.1992" lon="0.60691">
        <ele>46</ele>
        <time>2026-02-22T15:19:48.188Z</time>
      </trkpt>
      <trkpt lat="44.1992" lon="0.60689">
        <ele>46</ele>
        <time>2026-02-22T15:19:49.188Z</time>
      </trkpt>
      <trkpt lat="44.1992" lon="0.60687">
        <ele>46</ele>
        <time>2026-02-22T15:19:50.189Z</time>
      </trkpt>
      <trkpt lat="44.19921" lon="0.60686">
        <ele>46</ele>
        <time>2026-02-22T15:19:51.188Z</time>
      </trkpt>
      <trkpt lat="44.19921" lon="0.60684">
        <ele>46</ele>
        <time>2026-02-22T15:19:52.189Z</time>
      </trkpt>
      <trkpt lat="44.19922" lon="0.60683">
        <ele>46</ele>
        <time>2026-02-22T15:19:53.188Z</time>
      </trkpt>
      <trkpt lat="44.19922" lon="0.60681">
        <ele>46</ele>
        <time>2026-02-22T15:19:54.189Z</time>
      </trkpt>
      <trkpt lat="44.19923" lon="0.6068">
        <ele>46</ele>
        <time>2026-02-22T15:19:55.188Z</time>
      </trkpt>
      <trkpt lat="44.19923" lon="0.60678">
        <ele>46</ele>
        <time>2026-02-22T15:19:56.188Z</time>
      </trkpt>
      <trkpt lat="44.19923" lon="0.60676">
        <ele>46</ele>
        <time>2026-02-22T15:19:57.188Z</time>
      </trkpt>
      <trkpt lat="44.19923" lon="0.60674">
        <ele>46</ele>
        <time>2026-02-22T15:19:58.188Z</time>
      </trkpt>
      <trkpt lat="44.19923" lon="0.60673">
        <ele>46</ele>
        <time>2026-02-22T15:19:59.188Z</time>
      </trkpt>
      <trkpt lat="44.19924" lon="0.60672">
        <ele>46</ele>
        <time>2026-02-22T15:20:00.188Z</time>
      </trkpt>
      <trkpt lat="44.19924" lon="0.6067">
        <ele>46</ele>
        <time>2026-02-22T15:20:01.188Z</time>
      </trkpt>
      <trkpt lat="44.19925" lon="0.60669">
        <ele>46</ele>
        <time>2026-02-22T15:20:02.188Z</time>
      </trkpt>
      <trkpt lat="44.19925" lon="0.60668">
        <ele>46</ele>
        <time>2026-02-22T15:20:03.188Z</time>
      </trkpt>
      <trkpt lat="44.19925" lon="0.60666">
        <ele>46</ele>
        <time>2026-02-22T15:20:04.188Z</time>
      </trkpt>
      <trkpt lat="44.19926" lon="0.60665">
        <ele>46</ele>
        <time>2026-02-22T15:20:05.188Z</time>
      </trkpt>
      <trkpt lat="44.19926" lon="0.60664">
        <ele>46</ele>
        <time>2026-02-22T15:20:06.188Z</time>
      </trkpt>
      <trkpt lat="44.19927" lon="0.60663">
        <ele>46</ele>
        <time>2026-02-22T15:20:07.188Z</time>
      </trkpt>
      <trkpt lat="44.19928" lon="0.60663">
        <ele>46</ele>
        <time>2026-02-22T15:20:08.188Z</time>
      </trkpt>
      <trkpt lat="44.19929" lon="0.60662">
        <ele>46</ele>
        <time>2026-02-22T15:20:09.189Z</time>
      </trkpt>
      <trkpt lat="44.1993" lon="0.60662">
        <ele>46</ele>
        <time>2026-02-22T15:20:10.188Z</time>
      </trkpt>
      <trkpt lat="44.19931" lon="0.60662">
        <ele>46</ele>
        <time>2026-02-22T15:20:11.188Z</time>
      </trkpt>
      <trkpt lat="44.19932" lon="0.60661">
        <ele>46</ele>
        <time>2026-02-22T15:20:12.188Z</time>
      </trkpt>
      <trkpt lat="44.19932" lon="0.60661">
        <ele>45</ele>
        <time>2026-02-22T15:20:13.188Z</time>
      </trkpt>
      <trkpt lat="44.19933" lon="0.60661">
        <ele>45</ele>
        <time>2026-02-22T15:20:14.188Z</time>
      </trkpt>
      <trkpt lat="44.19933" lon="0.60661">
        <ele>45</ele>
        <time>2026-02-22T15:20:15.188Z</time>
      </trkpt>
      <trkpt lat="44.19932" lon="0.60661">
        <ele>45</ele>
        <time>2026-02-22T15:20:16.188Z</time>
      </trkpt>
      <trkpt lat="44.19932" lon="0.60662">
        <ele>45</ele>
        <time>2026-02-22T15:20:17.188Z</time>
      </trkpt>
      <trkpt lat="44.19932" lon="0.60663">
        <ele>45</ele>
        <time>2026-02-22T15:20:18.188Z</time>
      </trkpt>
      <trkpt lat="44.19931" lon="0.60663">
        <ele>44</ele>
        <time>2026-02-22T15:20:19.188Z</time>
      </trkpt>
      <trkpt lat="44.1993" lon="0.60663">
        <ele>44</ele>
        <time>2026-02-22T15:20:20.188Z</time>
      </trkpt>
      <trkpt lat="44.1993" lon="0.60663">
        <ele>44</ele>
        <time>2026-02-22T15:20:21.188Z</time>
      </trkpt>
      <trkpt lat="44.19929" lon="0.60663">
        <ele>44</ele>
        <time>2026-02-22T15:20:22.188Z</time>
      </trkpt>
    </trkseg>
  </trk>
</gpx>